<?xml version='1.0' encoding='UTF-8'?><gpx version="1.1" creator="JPX - https://github.com/jenetics/jpx" xmlns="http://www.topografix.com/GPX/1/1"><trk><trkseg><trkpt lat="47.72788978096527" lon="-1.7296433264253"><ele>57.0</ele><time>2026-03-24T09:37:37Z</time></trkpt><trkpt lat="47.72798409800184" lon="-1.7296501255654373"><ele>57.0</ele><time>2026-03-24T09:37:38.999Z</time></trkpt><trkpt lat="47.72806054400406" lon="-1.7296627865976868"><ele>57.0</ele><time>2026-03-24T09:37:40.999Z</time></trkpt><trkpt lat="47.728228666809706" lon="-1.7296399834512315"><ele>57.0</ele><time>2026-03-24T09:37:43.999Z</time></trkpt><trkpt lat="47.72831287573693" lon="-1.7297505893953453"><ele>57.0</ele><time>2026-03-24T09:37:45.999Z</time></trkpt><trkpt lat="47.728423438058044" lon="-1.7298710897535678"><ele>57.0</ele><time>2026-03-24T09:37:47.999Z</time></trkpt><trkpt lat="47.72845090011673" lon="-1.7299940169050938"><ele>57.0</ele><time>2026-03-24T09:37:50.999Z</time></trkpt><trkpt lat="47.72828243172573" lon="-1.7300914417425355"><ele>57.0</ele><time>2026-03-24T09:37:51.999Z</time></trkpt><trkpt lat="47.72817197476967" lon="-1.730163259990725"><ele>57.0</ele><time>2026-03-24T09:37:53.999Z</time></trkpt><trkpt lat="47.72808881006574" lon="-1.7302067546109723"><ele>57.0</ele><time>2026-03-24T09:37:54.999Z</time></trkpt><trkpt lat="47.72798501064642" lon="-1.7302595834631975"><ele>57.0</ele><time>2026-03-24T09:37:55.999Z</time></trkpt><trkpt lat="47.727872950697495" lon="-1.73029107467753"><ele>57.0</ele><time>2026-03-24T09:37:56.999Z</time></trkpt><trkpt lat="47.72778067812126" lon="-1.7303658117426566"><ele>57.0</ele><time>2026-03-24T09:37:57.999Z</time></trkpt><trkpt lat="47.727666986826875" lon="-1.7304263719230626"><ele>56.5</ele><time>2026-03-24T09:37:58.999Z</time></trkpt><trkpt lat="47.72755349897015" lon="-1.730489404156735"><ele>56.0</ele><time>2026-03-24T09:37:59.999Z</time></trkpt><trkpt lat="47.72743265113904" lon="-1.7305543226600435"><ele>55.5</ele><time>2026-03-24T09:38:00.999Z</time></trkpt><trkpt lat="47.72730264649352" lon="-1.7306156898137874"><ele>55.0</ele><time>2026-03-24T09:38:01.999Z</time></trkpt><trkpt lat="47.72718335829888" lon="-1.7306458876842892"><ele>55.0</ele><time>2026-03-24T09:38:02.999Z</time></trkpt><trkpt lat="47.72709572327464" lon="-1.7307064695458785"><ele>55.0</ele><time>2026-03-24T09:38:03.999Z</time></trkpt><trkpt lat="47.72702100714474" lon="-1.7307595531213142"><ele>55.0</ele><time>2026-03-24T09:38:04.999Z</time></trkpt><trkpt lat="47.726917845035565" lon="-1.7307979594494198"><ele>55.0</ele><time>2026-03-24T09:38:06.999Z</time></trkpt><trkpt lat="47.726815165088254" lon="-1.7308516010456145"><ele>55.0</ele><time>2026-03-24T09:38:08.999Z</time></trkpt><trkpt lat="47.72671466363949" lon="-1.7309046316529382"><ele>55.166666666666664</ele><time>2026-03-24T09:38:10.999Z</time></trkpt><trkpt lat="47.72669214271699" lon="-1.7310513260286804"><ele>55.33333333333333</ele><time>2026-03-24T09:38:16.999Z</time></trkpt><trkpt lat="47.72669010934338" lon="-1.731153598416977"><ele>55.5</ele><time>2026-03-24T09:38:17.999Z</time></trkpt><trkpt lat="47.7266853966446" lon="-1.7313380022484084"><ele>55.66666666666667</ele><time>2026-03-24T09:38:19.999Z</time></trkpt><trkpt lat="47.7266818974383" lon="-1.7314570105543732"><ele>55.833333333333336</ele><time>2026-03-24T09:38:20.999Z</time></trkpt><trkpt lat="47.72666678715327" lon="-1.7315661639394406"><ele>56.0</ele><time>2026-03-24T09:38:21.999Z</time></trkpt><trkpt lat="47.72667361040412" lon="-1.731678951146103"><ele>57.199999999999996</ele><time>2026-03-24T09:38:22.999Z</time></trkpt><trkpt lat="47.72666347436196" lon="-1.7318736302932607"><ele>58.39999999999999</ele><time>2026-03-24T09:38:24.999Z</time></trkpt><trkpt lat="47.72665873097718" lon="-1.7319912249594567"><ele>59.6</ele><time>2026-03-24T09:38:25.999Z</time></trkpt><trkpt lat="47.726655120590756" lon="-1.7321124998069541"><ele>60.8</ele><time>2026-03-24T09:38:26.999Z</time></trkpt><trkpt lat="47.72666065899014" lon="-1.73225541936854"><ele>62.0</ele><time>2026-03-24T09:38:27.999Z</time></trkpt><trkpt lat="47.72665603277621" lon="-1.7324196732768757"><ele>62.400000000000006</ele><time>2026-03-24T09:38:28.999Z</time></trkpt><trkpt lat="47.726663303295744" lon="-1.7325733128544818"><ele>62.800000000000004</ele><time>2026-03-24T09:38:29.999Z</time></trkpt><trkpt lat="47.72666038457152" lon="-1.732725899580007"><ele>63.2</ele><time>2026-03-24T09:38:30.999Z</time></trkpt><trkpt lat="47.726652203124694" lon="-1.7328939184791947"><ele>63.6</ele><time>2026-03-24T09:38:31.999Z</time></trkpt><trkpt lat="47.726637431790174" lon="-1.7330845552518548"><ele>64.0</ele><time>2026-03-24T09:38:32.999Z</time></trkpt><trkpt lat="47.72661791379309" lon="-1.7332566431837448"><ele>64.33333333333333</ele><time>2026-03-24T09:38:33.999Z</time></trkpt><trkpt lat="47.72659865585359" lon="-1.7333933549945562"><ele>64.66666666666666</ele><time>2026-03-24T09:38:34.999Z</time></trkpt><trkpt lat="47.72658918184654" lon="-1.7334915125775252"><ele>65.0</ele><time>2026-03-24T09:38:35.999Z</time></trkpt><trkpt lat="47.72656763181871" lon="-1.7335878580823785"><ele>65.33333333333333</ele><time>2026-03-24T09:38:36.999Z</time></trkpt><trkpt lat="47.72654899704286" lon="-1.733723970593889"><ele>65.66666666666667</ele><time>2026-03-24T09:38:38.999Z</time></trkpt><trkpt lat="47.72651159800681" lon="-1.7338579567901498"><ele>66.0</ele><time>2026-03-24T09:38:45.999Z</time></trkpt><trkpt lat="47.72640918353953" lon="-1.733863725198071"><ele>66.0</ele><time>2026-03-24T09:38:46.998Z</time></trkpt><trkpt lat="47.72634865590214" lon="-1.7338920915549618"><ele>66.0</ele><time>2026-03-24T09:38:47.998Z</time></trkpt><trkpt lat="47.72627978535542" lon="-1.7337927595710543"><ele>66.0</ele><time>2026-03-24T09:38:48.998Z</time></trkpt><trkpt lat="47.72621484024359" lon="-1.7337134193699797"><ele>66.0</ele><time>2026-03-24T09:38:49.998Z</time></trkpt><trkpt lat="47.72613699482157" lon="-1.7336163141011018"><ele>66.0</ele><time>2026-03-24T09:38:50.998Z</time></trkpt><trkpt lat="47.72605680168311" lon="-1.7335466893755018"><ele>66.0</ele><time>2026-03-24T09:38:52Z</time></trkpt><trkpt lat="47.725970629662136" lon="-1.733567202046499"><ele>65.6</ele><time>2026-03-24T09:38:53Z</time></trkpt><trkpt lat="47.72587955119238" lon="-1.733518166274306"><ele>65.19999999999999</ele><time>2026-03-24T09:38:55Z</time></trkpt><trkpt lat="47.72576901884803" lon="-1.7334586567291825"><ele>64.80000000000001</ele><time>2026-03-24T09:38:57Z</time></trkpt><trkpt lat="47.72569085039136" lon="-1.7334165715797372"><ele>64.4</ele><time>2026-03-24T09:38:58Z</time></trkpt><trkpt lat="47.725622007444485" lon="-1.7333152409466697"><ele>64.0</ele><time>2026-03-24T09:38:59Z</time></trkpt><trkpt lat="47.725535402523384" lon="-1.733272298981681"><ele>64.0</ele><time>2026-03-24T09:39:00Z</time></trkpt><trkpt lat="47.72544850791425" lon="-1.7332207839738467"><ele>64.0</ele><time>2026-03-24T09:39:01Z</time></trkpt><trkpt lat="47.725354429327254" lon="-1.7331751214870121"><ele>64.0</ele><time>2026-03-24T09:39:02Z</time></trkpt><trkpt lat="47.72524574732503" lon="-1.7331211584674797"><ele>64.0</ele><time>2026-03-24T09:39:03Z</time></trkpt><trkpt lat="47.72513716584223" lon="-1.733066918786153"><ele>64.0</ele><time>2026-03-24T09:39:04Z</time></trkpt><trkpt lat="47.725017955629454" lon="-1.7330495420717724"><ele>63.6</ele><time>2026-03-24T09:39:05Z</time></trkpt><trkpt lat="47.724914884558466" lon="-1.7329922792170416"><ele>63.2</ele><time>2026-03-24T09:39:06Z</time></trkpt><trkpt lat="47.72483185303289" lon="-1.732952133954064"><ele>62.800000000000004</ele><time>2026-03-24T09:39:07Z</time></trkpt><trkpt lat="47.72474295339451" lon="-1.7329235300047212"><ele>62.400000000000006</ele><time>2026-03-24T09:39:08Z</time></trkpt><trkpt lat="47.724641086381844" lon="-1.7329017941562022"><ele>62.0</ele><time>2026-03-24T09:39:09Z</time></trkpt><trkpt lat="47.72454486448682" lon="-1.7328792526247285"><ele>62.0</ele><time>2026-03-24T09:39:10Z</time></trkpt><trkpt lat="47.724455871561055" lon="-1.732858720186989"><ele>62.0</ele><time>2026-03-24T09:39:11Z</time></trkpt><trkpt lat="47.724380405160005" lon="-1.7328413177270103"><ele>62.0</ele><time>2026-03-24T09:39:12Z</time></trkpt><trkpt lat="47.72427790700689" lon="-1.732821131180329"><ele>62.0</ele><time>2026-03-24T09:39:14Z</time></trkpt><trkpt lat="47.724197459946865" lon="-1.7328052705953734"><ele>62.0</ele><time>2026-03-24T09:39:16Z</time></trkpt><trkpt lat="47.72407891176141" lon="-1.7327602360776364"><ele>61.833333333333336</ele><time>2026-03-24T09:39:18Z</time></trkpt><trkpt lat="47.7240089641265" lon="-1.7327342278285296"><ele>61.66666666666667</ele><time>2026-03-24T09:39:19Z</time></trkpt><trkpt lat="47.72392547839194" lon="-1.7327022326738688"><ele>61.5</ele><time>2026-03-24T09:39:20Z</time></trkpt><trkpt lat="47.72385544238978" lon="-1.732671907462878"><ele>61.33333333333333</ele><time>2026-03-24T09:39:21Z</time></trkpt><trkpt lat="47.723734921149244" lon="-1.732620369485747"><ele>61.166666666666664</ele><time>2026-03-24T09:39:23Z</time></trkpt><trkpt lat="47.723662981325" lon="-1.73259805644272"><ele>61.0</ele><time>2026-03-24T09:39:24Z</time></trkpt><trkpt lat="47.72359815471391" lon="-1.7325862105490881"><ele>60.83333333333333</ele><time>2026-03-24T09:39:25Z</time></trkpt><trkpt lat="47.72352349730417" lon="-1.7325845602017236"><ele>60.666666666666664</ele><time>2026-03-24T09:39:28Z</time></trkpt><trkpt lat="47.72342141503249" lon="-1.7325752236021226"><ele>60.5</ele><time>2026-03-24T09:39:31Z</time></trkpt><trkpt lat="47.72334744655298" lon="-1.7325770431212637"><ele>60.33333333333333</ele><time>2026-03-24T09:39:34Z</time></trkpt><trkpt lat="47.723284129775266" lon="-1.732587411149925"><ele>60.166666666666664</ele><time>2026-03-24T09:39:36Z</time></trkpt><trkpt lat="47.723189864944665" lon="-1.732600793109673"><ele>60.0</ele><time>2026-03-24T09:39:38Z</time></trkpt><trkpt lat="47.723094478183306" lon="-1.732608781489424"><ele>60.0</ele><time>2026-03-24T09:39:39.999Z</time></trkpt><trkpt lat="47.72299411511819" lon="-1.7326039418832109"><ele>60.0</ele><time>2026-03-24T09:39:41.999Z</time></trkpt><trkpt lat="47.72292787247536" lon="-1.73260545740504"><ele>60.0</ele><time>2026-03-24T09:39:42.999Z</time></trkpt><trkpt lat="47.722863761282774" lon="-1.7326093903933943"><ele>60.0</ele><time>2026-03-24T09:39:43.999Z</time></trkpt><trkpt lat="47.722793960805554" lon="-1.7326080891905096"><ele>60.0</ele><time>2026-03-24T09:39:44.999Z</time></trkpt><trkpt lat="47.72272002103657" lon="-1.732598331860304"><ele>60.0</ele><time>2026-03-24T09:39:45.999Z</time></trkpt><trkpt lat="47.722653866717046" lon="-1.7325941521404868"><ele>60.0</ele><time>2026-03-24T09:39:46.999Z</time></trkpt><trkpt lat="47.722526636237305" lon="-1.7325962363829148"><ele>59.5</ele><time>2026-03-24T09:39:48.999Z</time></trkpt><trkpt lat="47.72245071620031" lon="-1.7325878704026272"><ele>59.0</ele><time>2026-03-24T09:39:49.999Z</time></trkpt><trkpt lat="47.72237223658556" lon="-1.7326412717317055"><ele>58.5</ele><time>2026-03-24T09:39:50.999Z</time></trkpt><trkpt lat="47.72229686798637" lon="-1.7326503038903793"><ele>58.0</ele><time>2026-03-24T09:39:51.999Z</time></trkpt><trkpt lat="47.722214682981324" lon="-1.7326544073787893"><ele>57.5</ele><time>2026-03-24T09:39:52.999Z</time></trkpt><trkpt lat="47.722122323080654" lon="-1.732651923290771"><ele>57.0</ele><time>2026-03-24T09:39:53.999Z</time></trkpt><trkpt lat="47.72201775815784" lon="-1.7326525240239439"><ele>57.0</ele><time>2026-03-24T09:39:54.999Z</time></trkpt><trkpt lat="47.72191447682345" lon="-1.7326441974147972"><ele>57.0</ele><time>2026-03-24T09:39:55.999Z</time></trkpt><trkpt lat="47.72181839435038" lon="-1.7326472273447573"><ele>57.0</ele><time>2026-03-24T09:39:56.999Z</time></trkpt><trkpt lat="47.72172398149327" lon="-1.732631438980698"><ele>57.0</ele><time>2026-03-24T09:39:57.999Z</time></trkpt><trkpt lat="47.72164552828764" lon="-1.732610478928657"><ele>57.0</ele><time>2026-03-24T09:39:58.999Z</time></trkpt><trkpt lat="47.72157156309188" lon="-1.7326056718568892"><ele>57.0</ele><time>2026-03-24T09:39:59.999Z</time></trkpt><trkpt lat="47.721496407719364" lon="-1.7325927765963876"><ele>55.6</ele><time>2026-03-24T09:40:00.999Z</time></trkpt><trkpt lat="47.72140864890666" lon="-1.7325863559048649"><ele>54.2</ele><time>2026-03-24T09:40:01.999Z</time></trkpt><trkpt lat="47.72131266429148" lon="-1.7325709841627812"><ele>52.8</ele><time>2026-03-24T09:40:02.999Z</time></trkpt><trkpt lat="47.72120628590053" lon="-1.7325702226911546"><ele>51.4</ele><time>2026-03-24T09:40:03.999Z</time></trkpt><trkpt lat="47.72109903303673" lon="-1.732554117509892"><ele>50.0</ele><time>2026-03-24T09:40:04.999Z</time></trkpt><trkpt lat="47.720987712238426" lon="-1.7325366067268964"><ele>49.2</ele><time>2026-03-24T09:40:05.999Z</time></trkpt><trkpt lat="47.72086535636878" lon="-1.73250890435831"><ele>48.4</ele><time>2026-03-24T09:40:06.999Z</time></trkpt><trkpt lat="47.72074491597503" lon="-1.7325329761551682"><ele>47.599999999999994</ele><time>2026-03-24T09:40:07.999Z</time></trkpt><trkpt lat="47.72063969606527" lon="-1.7325225801425457"><ele>46.8</ele><time>2026-03-24T09:40:08.999Z</time></trkpt><trkpt lat="47.72054168837661" lon="-1.7325146496778119"><ele>46.0</ele><time>2026-03-24T09:40:09.999Z</time></trkpt><trkpt lat="47.72044990838825" lon="-1.7325040958986846"><ele>46.0</ele><time>2026-03-24T09:40:10.999Z</time></trkpt><trkpt lat="47.720361670044376" lon="-1.7324926952739006"><ele>46.0</ele><time>2026-03-24T09:40:11.999Z</time></trkpt><trkpt lat="47.72027339525185" lon="-1.7324743048086835"><ele>46.0</ele><time>2026-03-24T09:40:12.999Z</time></trkpt><trkpt lat="47.72018493833268" lon="-1.7324658240240314"><ele>46.0</ele><time>2026-03-24T09:40:13.999Z</time></trkpt><trkpt lat="47.72009941893048" lon="-1.7324460673391613"><ele>46.0</ele><time>2026-03-24T09:40:14.999Z</time></trkpt><trkpt lat="47.72000968453814" lon="-1.7324180147987487"><ele>46.0</ele><time>2026-03-24T09:40:15.999Z</time></trkpt><trkpt lat="47.71991178421751" lon="-1.7323996316475982"><ele>45.0</ele><time>2026-03-24T09:40:16.999Z</time></trkpt><trkpt lat="47.71980357476999" lon="-1.7323777437030712"><ele>44.0</ele><time>2026-03-24T09:40:17.999Z</time></trkpt><trkpt lat="47.719688210143616" lon="-1.732359131458002"><ele>43.0</ele><time>2026-03-24T09:40:18.999Z</time></trkpt><trkpt lat="47.71956593342909" lon="-1.7323447553061744"><ele>42.0</ele><time>2026-03-24T09:40:19.999Z</time></trkpt><trkpt lat="47.719446704169606" lon="-1.7323552849172035"><ele>41.2</ele><time>2026-03-24T09:40:20.999Z</time></trkpt><trkpt lat="47.71934699983016" lon="-1.732341091578486"><ele>40.400000000000006</ele><time>2026-03-24T09:40:21.999Z</time></trkpt><trkpt lat="47.719258639677854" lon="-1.7323248544195606"><ele>39.599999999999994</ele><time>2026-03-24T09:40:22.999Z</time></trkpt><trkpt lat="47.71917461294339" lon="-1.732317351132477"><ele>38.8</ele><time>2026-03-24T09:40:23.999Z</time></trkpt><trkpt lat="47.71909309653842" lon="-1.7323268808469732"><ele>38.0</ele><time>2026-03-24T09:40:24.999Z</time></trkpt><trkpt lat="47.71899582002009" lon="-1.7323279806238576"><ele>38.0</ele><time>2026-03-24T09:40:25.999Z</time></trkpt><trkpt lat="47.71887388740272" lon="-1.7322939076138948"><ele>38.0</ele><time>2026-03-24T09:40:26.999Z</time></trkpt><trkpt lat="47.71874973873519" lon="-1.7322703145253493"><ele>38.0</ele><time>2026-03-24T09:40:27.999Z</time></trkpt><trkpt lat="47.71859370814885" lon="-1.7322496042876434"><ele>38.0</ele><time>2026-03-24T09:40:28.999Z</time></trkpt><trkpt lat="47.718426335445166" lon="-1.7322296293151846"><ele>36.666666666666664</ele><time>2026-03-24T09:40:29.999Z</time></trkpt><trkpt lat="47.71825946496759" lon="-1.7322015740230952"><ele>35.333333333333336</ele><time>2026-03-24T09:40:30.999Z</time></trkpt><trkpt lat="47.718090563265044" lon="-1.7321751522688078"><ele>34.0</ele><time>2026-03-24T09:40:31.999Z</time></trkpt><trkpt lat="47.71790199601007" lon="-1.7321560818541473"><ele>33.66666666666667</ele><time>2026-03-24T09:40:32.999Z</time></trkpt><trkpt lat="47.71772408469415" lon="-1.73213065815214"><ele>33.333333333333336</ele><time>2026-03-24T09:40:33.999Z</time></trkpt><trkpt lat="47.717568674558784" lon="-1.7321149971327832"><ele>33.0</ele><time>2026-03-24T09:40:34.999Z</time></trkpt><trkpt lat="47.71744478541778" lon="-1.7320907824688907"><ele>33.0</ele><time>2026-03-24T09:40:35.999Z</time></trkpt><trkpt lat="47.717323196990215" lon="-1.7320716034608399"><ele>33.0</ele><time>2026-03-24T09:40:36.999Z</time></trkpt><trkpt lat="47.71722533001592" lon="-1.7320827757089612"><ele>33.0</ele><time>2026-03-24T09:40:37.999Z</time></trkpt><trkpt lat="47.71714837350405" lon="-1.7321304173899443"><ele>33.0</ele><time>2026-03-24T09:40:38.999Z</time></trkpt><trkpt lat="47.717084280394836" lon="-1.73220705705388"><ele>33.0</ele><time>2026-03-24T09:40:39.999Z</time></trkpt><trkpt lat="47.717044720643386" lon="-1.7323041176294958"><ele>33.0</ele><time>2026-03-24T09:40:40.999Z</time></trkpt><trkpt lat="47.71706875860699" lon="-1.7324702321270447"><ele>33.0</ele><time>2026-03-24T09:40:41.999Z</time></trkpt><trkpt lat="47.717059822686835" lon="-1.7326299186438077"><ele>33.0</ele><time>2026-03-24T09:40:42.999Z</time></trkpt><trkpt lat="47.71705352096358" lon="-1.7327425320706882"><ele>33.0</ele><time>2026-03-24T09:40:43.999Z</time></trkpt><trkpt lat="47.717044658359725" lon="-1.7329009102842317"><ele>33.0</ele><time>2026-03-24T09:40:45.999Z</time></trkpt><trkpt lat="47.716921441203034" lon="-1.7329034281685851"><ele>32.8</ele><time>2026-03-24T09:40:46.998Z</time></trkpt><trkpt lat="47.7168186308936" lon="-1.7329088354949518"><ele>32.599999999999994</ele><time>2026-03-24T09:40:47.998Z</time></trkpt><trkpt lat="47.71672627549606" lon="-1.732912628772946"><ele>32.400000000000006</ele><time>2026-03-24T09:40:48.998Z</time></trkpt><trkpt lat="47.71661102321952" lon="-1.7328916313035831"><ele>32.2</ele><time>2026-03-24T09:40:49.998Z</time></trkpt><trkpt lat="47.71652274443622" lon="-1.7329116201245298"><ele>32.0</ele><time>2026-03-24T09:40:50.998Z</time></trkpt><trkpt lat="47.71645972450969" lon="-1.7329163507914125"><ele>31.6</ele><time>2026-03-24T09:40:51.998Z</time></trkpt><trkpt lat="47.71641340506932" lon="-1.7326978933943902"><ele>31.200000000000003</ele><time>2026-03-24T09:40:53.998Z</time></trkpt><trkpt lat="47.71639029627968" lon="-1.7325842814643908"><ele>30.8</ele><time>2026-03-24T09:40:54.998Z</time></trkpt><trkpt lat="47.71637193532451" lon="-1.7324399498013132"><ele>30.4</ele><time>2026-03-24T09:40:55.998Z</time></trkpt><trkpt lat="47.71637289486438" lon="-1.7323445434698816"><ele>30.0</ele><time>2026-03-24T09:40:56.998Z</time></trkpt><trkpt lat="47.716449834223255" lon="-1.7322269315707024"><ele>30.0</ele><time>2026-03-24T09:40:59Z</time></trkpt><trkpt lat="47.7165590603116" lon="-1.7322055813432669"><ele>30.0</ele><time>2026-03-24T09:41:01Z</time></trkpt><trkpt lat="47.716616009959594" lon="-1.73226079092226"><ele>30.0</ele><time>2026-03-24T09:41:02Z</time></trkpt><trkpt lat="47.716693379246195" lon="-1.7323103027855198"><ele>30.0</ele><time>2026-03-24T09:41:04Z</time></trkpt><trkpt lat="47.7166658326343" lon="-1.732437839061763"><ele>30.0</ele><time>2026-03-24T09:41:07Z</time></trkpt><trkpt lat="47.71676822966164" lon="-1.7324761723287985"><ele>30.0</ele><time>2026-03-24T09:41:56.999Z</time></trkpt><trkpt lat="47.716718385886814" lon="-1.73256652567357"><ele>30.0</ele><time>2026-03-24T09:44:28.999Z</time></trkpt><trkpt lat="47.71676023935675" lon="-1.732646809380476"><ele>30.0</ele><time>2026-03-24T09:44:29.999Z</time></trkpt><trkpt lat="47.71680728576348" lon="-1.7327160349143902"><ele>30.0</ele><time>2026-03-24T09:44:30.999Z</time></trkpt><trkpt lat="47.71689207476175" lon="-1.732791068100422"><ele>30.0</ele><time>2026-03-24T09:44:32.999Z</time></trkpt><trkpt lat="47.71698068388401" lon="-1.7327998655689427"><ele>30.0</ele><time>2026-03-24T09:44:34.999Z</time></trkpt><trkpt lat="47.717055575570214" lon="-1.7326294294244216"><ele>30.6</ele><time>2026-03-24T09:44:36.999Z</time></trkpt><trkpt lat="47.71706840557529" lon="-1.732476967558067"><ele>31.2</ele><time>2026-03-24T09:44:37.999Z</time></trkpt><trkpt lat="47.71704262254134" lon="-1.7323405669096577"><ele>31.799999999999997</ele><time>2026-03-24T09:44:38.999Z</time></trkpt><trkpt lat="47.71704190093799" lon="-1.73217377054015"><ele>32.4</ele><time>2026-03-24T09:44:40.999Z</time></trkpt><trkpt lat="47.717014336400155" lon="-1.732085446150858"><ele>33.0</ele><time>2026-03-24T09:44:41.999Z</time></trkpt><trkpt lat="47.71704412501194" lon="-1.731921547281623"><ele>33.0</ele><time>2026-03-24T09:44:43.999Z</time></trkpt><trkpt lat="47.717161366031554" lon="-1.7319188726044814"><ele>33.0</ele><time>2026-03-24T09:44:45.999Z</time></trkpt><trkpt lat="47.717255046263425" lon="-1.7320001520490695"><ele>33.0</ele><time>2026-03-24T09:44:46.999Z</time></trkpt><trkpt lat="47.71735442027169" lon="-1.7320535070434069"><ele>33.0</ele><time>2026-03-24T09:44:47.999Z</time></trkpt><trkpt lat="47.717447450784704" lon="-1.7320648979606716"><ele>33.0</ele><time>2026-03-24T09:44:48.999Z</time></trkpt><trkpt lat="47.71756164561772" lon="-1.7320676805965234"><ele>33.0</ele><time>2026-03-24T09:44:49.999Z</time></trkpt><trkpt lat="47.71767783014515" lon="-1.7320720032161805"><ele>33.0</ele><time>2026-03-24T09:44:50.999Z</time></trkpt><trkpt lat="47.71782367587299" lon="-1.7320881497365956"><ele>33.0</ele><time>2026-03-24T09:44:51.999Z</time></trkpt><trkpt lat="47.717964468914815" lon="-1.7320828603894458"><ele>33.0</ele><time>2026-03-24T09:44:52.999Z</time></trkpt><trkpt lat="47.71806626189235" lon="-1.732115097244171"><ele>33.25</ele><time>2026-03-24T09:44:53.999Z</time></trkpt><trkpt lat="47.71819727476457" lon="-1.7321430141891205"><ele>33.5</ele><time>2026-03-24T09:44:54.999Z</time></trkpt><trkpt lat="47.71830647762951" lon="-1.7321800436354928"><ele>33.75</ele><time>2026-03-24T09:44:55.999Z</time></trkpt><trkpt lat="47.7184061734571" lon="-1.7321972769945453"><ele>34.0</ele><time>2026-03-24T09:44:56.999Z</time></trkpt><trkpt lat="47.718524757564275" lon="-1.7322126084944762"><ele>34.8</ele><time>2026-03-24T09:44:57.999Z</time></trkpt><trkpt lat="47.71860823737878" lon="-1.7322020220000027"><ele>35.599999999999994</ele><time>2026-03-24T09:44:58.999Z</time></trkpt><trkpt lat="47.71868881381371" lon="-1.7322127170644859"><ele>36.4</ele><time>2026-03-24T09:44:59.998Z</time></trkpt><trkpt lat="47.71878346289651" lon="-1.732225280024367"><ele>37.199999999999996</ele><time>2026-03-24T09:45:00.998Z</time></trkpt><trkpt lat="47.718909497916336" lon="-1.7322396437561043"><ele>38.0</ele><time>2026-03-24T09:45:01.998Z</time></trkpt><trkpt lat="47.71900169833206" lon="-1.732250498660183"><ele>38.0</ele><time>2026-03-24T09:45:02.998Z</time></trkpt><trkpt lat="47.71910043027781" lon="-1.7322479375542663"><ele>38.0</ele><time>2026-03-24T09:45:03.998Z</time></trkpt><trkpt lat="47.71919445958707" lon="-1.7322919789601299"><ele>38.0</ele><time>2026-03-24T09:45:04.998Z</time></trkpt><trkpt lat="47.719287844737785" lon="-1.7322850288585547"><ele>38.0</ele><time>2026-03-24T09:45:05.998Z</time></trkpt><trkpt lat="47.71940931033278" lon="-1.7322975876556375"><ele>38.0</ele><time>2026-03-24T09:45:06.998Z</time></trkpt><trkpt lat="47.719531397093824" lon="-1.7323100404998362"><ele>39.0</ele><time>2026-03-24T09:45:07.998Z</time></trkpt><trkpt lat="47.719670768451" lon="-1.732324556457547"><ele>40.0</ele><time>2026-03-24T09:45:08.998Z</time></trkpt><trkpt lat="47.71978958231173" lon="-1.7323392693662805"><ele>41.0</ele><time>2026-03-24T09:45:10Z</time></trkpt><trkpt lat="47.71990455599751" lon="-1.7323539498572669"><ele>42.0</ele><time>2026-03-24T09:45:11Z</time></trkpt><trkpt lat="47.72003362129325" lon="-1.732370429733799"><ele>42.0</ele><time>2026-03-24T09:45:12Z</time></trkpt><trkpt lat="47.720166886814596" lon="-1.7323900826979632"><ele>42.0</ele><time>2026-03-24T09:45:13Z</time></trkpt><trkpt lat="47.72029955745524" lon="-1.7324087003851647"><ele>42.0</ele><time>2026-03-24T09:45:14Z</time></trkpt><trkpt lat="47.720415792186714" lon="-1.7324347008539727"><ele>42.0</ele><time>2026-03-24T09:45:15Z</time></trkpt><trkpt lat="47.720535846962875" lon="-1.7324042924804952"><ele>42.8</ele><time>2026-03-24T09:45:16Z</time></trkpt><trkpt lat="47.72061858696402" lon="-1.7324170071414966"><ele>43.6</ele><time>2026-03-24T09:45:17Z</time></trkpt><trkpt lat="47.72071407207228" lon="-1.7324408316741318"><ele>44.4</ele><time>2026-03-24T09:45:18Z</time></trkpt><trkpt lat="47.72084046474826" lon="-1.7324526535550415"><ele>45.199999999999996</ele><time>2026-03-24T09:45:19Z</time></trkpt><trkpt lat="47.720960917416356" lon="-1.7324743549108825"><ele>46.0</ele><time>2026-03-24T09:45:20Z</time></trkpt><trkpt lat="47.72108790007204" lon="-1.7325011346068748"><ele>46.8</ele><time>2026-03-24T09:45:21Z</time></trkpt><trkpt lat="47.72120110331788" lon="-1.7325265530472356"><ele>47.599999999999994</ele><time>2026-03-24T09:45:22Z</time></trkpt><trkpt lat="47.72130263989769" lon="-1.732533002124342"><ele>48.4</ele><time>2026-03-24T09:45:23Z</time></trkpt><trkpt lat="47.721389344493296" lon="-1.7325374139098764"><ele>49.2</ele><time>2026-03-24T09:45:24Z</time></trkpt><trkpt lat="47.72147792340935" lon="-1.7325309014827626"><ele>50.0</ele><time>2026-03-24T09:45:25Z</time></trkpt><trkpt lat="47.72157071382587" lon="-1.7325328515500544"><ele>50.00000000000001</ele><time>2026-03-24T09:45:26Z</time></trkpt><trkpt lat="47.72164385367124" lon="-1.7325324345507156"><ele>50.0</ele><time>2026-03-24T09:45:27Z</time></trkpt><trkpt lat="47.7217338696269" lon="-1.732531152009086"><ele>50.0</ele><time>2026-03-24T09:45:28Z</time></trkpt><trkpt lat="47.721830232844155" lon="-1.7325493749856615"><ele>50.0</ele><time>2026-03-24T09:45:29Z</time></trkpt><trkpt lat="47.72191655517534" lon="-1.7325532876226997"><ele>50.00000000000001</ele><time>2026-03-24T09:45:30Z</time></trkpt><trkpt lat="47.72199722149283" lon="-1.7325501910925425"><ele>50.0</ele><time>2026-03-24T09:45:31Z</time></trkpt><trkpt lat="47.72207273901741" lon="-1.7325452307937963"><ele>51.0</ele><time>2026-03-24T09:45:32Z</time></trkpt><trkpt lat="47.722168576602314" lon="-1.7325801223968698"><ele>52.0</ele><time>2026-03-24T09:45:34Z</time></trkpt><trkpt lat="47.72220155087352" lon="-1.7328297971929927"><ele>53.0</ele><time>2026-03-24T09:45:36Z</time></trkpt><trkpt lat="47.72220518817515" lon="-1.7329588879742068"><ele>54.0</ele><time>2026-03-24T09:45:37Z</time></trkpt><trkpt lat="47.72219220724978" lon="-1.7331044851795006"><ele>54.0</ele><time>2026-03-24T09:45:38Z</time></trkpt><trkpt lat="47.72220187634441" lon="-1.733277905387089"><ele>54.0</ele><time>2026-03-24T09:45:39Z</time></trkpt><trkpt lat="47.72220445447182" lon="-1.733441687498814"><ele>54.0</ele><time>2026-03-24T09:45:40Z</time></trkpt><trkpt lat="47.72220004425688" lon="-1.7335941474079135"><ele>54.0</ele><time>2026-03-24T09:45:41Z</time></trkpt><trkpt lat="47.722160492847706" lon="-1.7337698310259004"><ele>53.400000000000006</ele><time>2026-03-24T09:45:42Z</time></trkpt><trkpt lat="47.72215831715645" lon="-1.73393477814949"><ele>52.800000000000004</ele><time>2026-03-24T09:45:43Z</time></trkpt><trkpt lat="47.72213732310257" lon="-1.7341236690040907"><ele>52.2</ele><time>2026-03-24T09:45:44Z</time></trkpt><trkpt lat="47.72213422819866" lon="-1.7342753424503938"><ele>51.599999999999994</ele><time>2026-03-24T09:45:45Z</time></trkpt><trkpt lat="47.722115016538254" lon="-1.7344104574703678"><ele>51.0</ele><time>2026-03-24T09:45:46Z</time></trkpt><trkpt lat="47.72212781054289" lon="-1.7345490411061275"><ele>50.4</ele><time>2026-03-24T09:45:47Z</time></trkpt><trkpt lat="47.72213059467932" lon="-1.7346727939121918"><ele>49.8</ele><time>2026-03-24T09:45:48Z</time></trkpt><trkpt lat="47.722120326673156" lon="-1.7347901651952098"><ele>49.199999999999996</ele><time>2026-03-24T09:45:49Z</time></trkpt><trkpt lat="47.72211987803177" lon="-1.7349207633222157"><ele>48.599999999999994</ele><time>2026-03-24T09:45:50Z</time></trkpt><trkpt lat="47.72211289850555" lon="-1.7350751975455592"><ele>48.0</ele><time>2026-03-24T09:45:51Z</time></trkpt><trkpt lat="47.72209784701019" lon="-1.735247819799638"><ele>47.25</ele><time>2026-03-24T09:45:52Z</time></trkpt><trkpt lat="47.72208621225617" lon="-1.7354287423028945"><ele>46.5</ele><time>2026-03-24T09:45:53Z</time></trkpt><trkpt lat="47.72212092634052" lon="-1.7356059604783534"><ele>45.75</ele><time>2026-03-24T09:45:54Z</time></trkpt><trkpt lat="47.72212314778214" lon="-1.7357935283678203"><ele>45.0</ele><time>2026-03-24T09:45:55Z</time></trkpt><trkpt lat="47.722109724043726" lon="-1.7359994641770615"><ele>45.5</ele><time>2026-03-24T09:45:56Z</time></trkpt><trkpt lat="47.72210904139407" lon="-1.7361939050228576"><ele>46.0</ele><time>2026-03-24T09:45:57Z</time></trkpt><trkpt lat="47.72210074842217" lon="-1.7364026864231628"><ele>46.5</ele><time>2026-03-24T09:45:58Z</time></trkpt><trkpt lat="47.72205031048647" lon="-1.7365907353388774"><ele>47.0</ele><time>2026-03-24T09:45:58.999Z</time></trkpt><trkpt lat="47.722003495343394" lon="-1.7368075619429646"><ele>46.666666666666664</ele><time>2026-03-24T09:45:59.999Z</time></trkpt><trkpt lat="47.721939369641255" lon="-1.737083263497646"><ele>46.333333333333336</ele><time>2026-03-24T09:46:00.999Z</time></trkpt><trkpt lat="47.7218821383896" lon="-1.7373282877148548"><ele>46.0</ele><time>2026-03-24T09:46:01.999Z</time></trkpt><trkpt lat="47.721827778205665" lon="-1.737560843678106"><ele>46.66666666666667</ele><time>2026-03-24T09:46:02.999Z</time></trkpt><trkpt lat="47.721773656411216" lon="-1.7377923682582443"><ele>47.333333333333336</ele><time>2026-03-24T09:46:03.999Z</time></trkpt><trkpt lat="47.72171997818738" lon="-1.7380026094548675"><ele>48.0</ele><time>2026-03-24T09:46:04.999Z</time></trkpt><trkpt lat="47.721652851263414" lon="-1.7382341548324935"><ele>48.0</ele><time>2026-03-24T09:46:05.999Z</time></trkpt><trkpt lat="47.721594624832726" lon="-1.7384845637927622"><ele>48.0</ele><time>2026-03-24T09:46:06.999Z</time></trkpt><trkpt lat="47.72153664260717" lon="-1.7387181020031395"><ele>48.0</ele><time>2026-03-24T09:46:07.999Z</time></trkpt><trkpt lat="47.721463187087615" lon="-1.738938403214012"><ele>48.66666666666667</ele><time>2026-03-24T09:46:08.999Z</time></trkpt><trkpt lat="47.72137634875117" lon="-1.7391922541875706"><ele>49.333333333333336</ele><time>2026-03-24T09:46:09.999Z</time></trkpt><trkpt lat="47.72126041308991" lon="-1.73942101014108"><ele>50.0</ele><time>2026-03-24T09:46:10.999Z</time></trkpt><trkpt lat="47.721148294177546" lon="-1.739656890872902"><ele>49.333333333333336</ele><time>2026-03-24T09:46:11.999Z</time></trkpt><trkpt lat="47.7210184705796" lon="-1.7398999305678713"><ele>48.66666666666667</ele><time>2026-03-24T09:46:12.999Z</time></trkpt><trkpt lat="47.720913528155826" lon="-1.7401436358728641"><ele>48.0</ele><time>2026-03-24T09:46:13.999Z</time></trkpt><trkpt lat="47.720798036956694" lon="-1.7403723950443741"><ele>48.0</ele><time>2026-03-24T09:46:14.999Z</time></trkpt><trkpt lat="47.72070178561186" lon="-1.7405735795040191"><ele>48.0</ele><time>2026-03-24T09:46:15.999Z</time></trkpt><trkpt lat="47.720611703129585" lon="-1.7407739115425258"><ele>48.0</ele><time>2026-03-24T09:46:16.999Z</time></trkpt><trkpt lat="47.72051314788619" lon="-1.740964567711193"><ele>48.0</ele><time>2026-03-24T09:46:17.999Z</time></trkpt><trkpt lat="47.72043153415607" lon="-1.7411796773953583"><ele>48.0</ele><time>2026-03-24T09:46:18.999Z</time></trkpt><trkpt lat="47.72034474933015" lon="-1.741366875542766"><ele>48.0</ele><time>2026-03-24T09:46:19.999Z</time></trkpt><trkpt lat="47.720249984351476" lon="-1.7415739692726426"><ele>47.0</ele><time>2026-03-24T09:46:20.999Z</time></trkpt><trkpt lat="47.72015542871622" lon="-1.7417732989509316"><ele>46.0</ele><time>2026-03-24T09:46:21.999Z</time></trkpt><trkpt lat="47.720052825107196" lon="-1.7419903545100373"><ele>45.0</ele><time>2026-03-24T09:46:22.999Z</time></trkpt><trkpt lat="47.719951912494274" lon="-1.7422090459389576"><ele>44.666666666666664</ele><time>2026-03-24T09:46:23.999Z</time></trkpt><trkpt lat="47.71983311767236" lon="-1.7424191750664897"><ele>44.33333333333333</ele><time>2026-03-24T09:46:24.999Z</time></trkpt><trkpt lat="47.71973776101916" lon="-1.7426646597399762"><ele>44.0</ele><time>2026-03-24T09:46:25.999Z</time></trkpt><trkpt lat="47.71962433225384" lon="-1.7429085291915596"><ele>44.0</ele><time>2026-03-24T09:46:26.999Z</time></trkpt><trkpt lat="47.719517602624244" lon="-1.7431325915382583"><ele>44.0</ele><time>2026-03-24T09:46:27.999Z</time></trkpt><trkpt lat="47.71941437250979" lon="-1.7433210502001064"><ele>44.0</ele><time>2026-03-24T09:46:28.999Z</time></trkpt><trkpt lat="47.71928907035466" lon="-1.7434897761893202"><ele>43.33333333333333</ele><time>2026-03-24T09:46:29.999Z</time></trkpt><trkpt lat="47.71917232172929" lon="-1.7436932201691686"><ele>42.666666666666664</ele><time>2026-03-24T09:46:30.999Z</time></trkpt><trkpt lat="47.7190491685989" lon="-1.7438700293328881"><ele>42.0</ele><time>2026-03-24T09:46:31.999Z</time></trkpt><trkpt lat="47.718919422581436" lon="-1.7440529331744843"><ele>42.0</ele><time>2026-03-24T09:46:32.999Z</time></trkpt><trkpt lat="47.71879375274397" lon="-1.7442300910584463"><ele>42.0</ele><time>2026-03-24T09:46:33.999Z</time></trkpt><trkpt lat="47.71866517265377" lon="-1.7444113511439787"><ele>42.0</ele><time>2026-03-24T09:46:34.999Z</time></trkpt><trkpt lat="47.71854305864221" lon="-1.744583886262456"><ele>41.0</ele><time>2026-03-24T09:46:35.999Z</time></trkpt><trkpt lat="47.718417237946475" lon="-1.744763467085882"><ele>40.0</ele><time>2026-03-24T09:46:36.999Z</time></trkpt><trkpt lat="47.718291948731185" lon="-1.7449426147302425"><ele>39.0</ele><time>2026-03-24T09:46:37.999Z</time></trkpt><trkpt lat="47.71816242058141" lon="-1.7451230101867843"><ele>39.0</ele><time>2026-03-24T09:46:38.999Z</time></trkpt><trkpt lat="47.718027878573935" lon="-1.745313902361606"><ele>39.0</ele><time>2026-03-24T09:46:39.999Z</time></trkpt><trkpt lat="47.71789401343099" lon="-1.74550389319097"><ele>39.0</ele><time>2026-03-24T09:46:40.999Z</time></trkpt><trkpt lat="47.71775765627749" lon="-1.7456974199551862"><ele>38.333333333333336</ele><time>2026-03-24T09:46:41.999Z</time></trkpt><trkpt lat="47.7176249694919" lon="-1.7458977604800843"><ele>37.66666666666667</ele><time>2026-03-24T09:46:42.999Z</time></trkpt><trkpt lat="47.717503484626256" lon="-1.7461225215412441"><ele>37.0</ele><time>2026-03-24T09:46:43.999Z</time></trkpt><trkpt lat="47.71740145225365" lon="-1.7463613394341375"><ele>37.0</ele><time>2026-03-24T09:46:44.999Z</time></trkpt><trkpt lat="47.717309617511596" lon="-1.7466138505432338"><ele>37.0</ele><time>2026-03-24T09:46:45.999Z</time></trkpt><trkpt lat="47.71721764745684" lon="-1.746876328143608"><ele>37.0</ele><time>2026-03-24T09:46:46.999Z</time></trkpt><trkpt lat="47.71712641835137" lon="-1.7471325545520617"><ele>36.66666666666667</ele><time>2026-03-24T09:46:47.999Z</time></trkpt><trkpt lat="47.717037687482026" lon="-1.7473821334210902"><ele>36.333333333333336</ele><time>2026-03-24T09:46:48.999Z</time></trkpt><trkpt lat="47.716951749529564" lon="-1.7476290229673794"><ele>36.0</ele><time>2026-03-24T09:46:49.999Z</time></trkpt><trkpt lat="47.71684833632064" lon="-1.7478719108681655"><ele>35.333333333333336</ele><time>2026-03-24T09:46:50.999Z</time></trkpt><trkpt lat="47.71677779572767" lon="-1.7481209403623132"><ele>34.66666666666667</ele><time>2026-03-24T09:46:51.999Z</time></trkpt><trkpt lat="47.716680116693354" lon="-1.7483508202948115"><ele>34.0</ele><time>2026-03-24T09:46:52.999Z</time></trkpt><trkpt lat="47.71659916793581" lon="-1.7485892073293063"><ele>34.0</ele><time>2026-03-24T09:46:53.999Z</time></trkpt><trkpt lat="47.71651580992587" lon="-1.7488219786618147"><ele>34.0</ele><time>2026-03-24T09:46:54.999Z</time></trkpt><trkpt lat="47.71643334349945" lon="-1.7490531231978903"><ele>34.0</ele><time>2026-03-24T09:46:55.999Z</time></trkpt><trkpt lat="47.71636672542941" lon="-1.7492887411503533"><ele>33.66666666666667</ele><time>2026-03-24T09:46:56.999Z</time></trkpt><trkpt lat="47.71628288816282" lon="-1.7495173594565796"><ele>33.333333333333336</ele><time>2026-03-24T09:46:57.999Z</time></trkpt><trkpt lat="47.71619946596891" lon="-1.7497448602564123"><ele>33.0</ele><time>2026-03-24T09:46:58.999Z</time></trkpt><trkpt lat="47.716120628784445" lon="-1.749967733347837"><ele>32.333333333333336</ele><time>2026-03-24T09:46:59.999Z</time></trkpt><trkpt lat="47.71603835218416" lon="-1.7501904665481887"><ele>31.666666666666668</ele><time>2026-03-24T09:47:00.999Z</time></trkpt><trkpt lat="47.71595621583637" lon="-1.7504193156451284"><ele>31.0</ele><time>2026-03-24T09:47:01.998Z</time></trkpt><trkpt lat="47.71587532739445" lon="-1.7506475246441564"><ele>30.666666666666668</ele><time>2026-03-24T09:47:02.998Z</time></trkpt><trkpt lat="47.71579326277543" lon="-1.750871999814352"><ele>30.333333333333336</ele><time>2026-03-24T09:47:03.998Z</time></trkpt><trkpt lat="47.715714128823215" lon="-1.751092703181076"><ele>30.0</ele><time>2026-03-24T09:47:04.998Z</time></trkpt><trkpt lat="47.715629099294254" lon="-1.7513279663969707"><ele>30.0</ele><time>2026-03-24T09:47:05.998Z</time></trkpt><trkpt lat="47.71554643347483" lon="-1.7515572594572677"><ele>30.0</ele><time>2026-03-24T09:47:06.998Z</time></trkpt><trkpt lat="47.715461290964996" lon="-1.7517946939673938"><ele>30.0</ele><time>2026-03-24T09:47:07.998Z</time></trkpt><trkpt lat="47.7153734575869" lon="-1.7520385888928969"><ele>29.333333333333336</ele><time>2026-03-24T09:47:08.998Z</time></trkpt><trkpt lat="47.715286168692835" lon="-1.7522792754897278"><ele>28.666666666666668</ele><time>2026-03-24T09:47:09.998Z</time></trkpt><trkpt lat="47.715202570396805" lon="-1.7525097856104077"><ele>28.0</ele><time>2026-03-24T09:47:10.998Z</time></trkpt><trkpt lat="47.71511662957894" lon="-1.7527467575889881"><ele>27.666666666666668</ele><time>2026-03-24T09:47:11.998Z</time></trkpt><trkpt lat="47.71504011215446" lon="-1.7529780685374623"><ele>27.333333333333336</ele><time>2026-03-24T09:47:12.998Z</time></trkpt><trkpt lat="47.71497366935833" lon="-1.753233177867675"><ele>27.0</ele><time>2026-03-24T09:47:13.998Z</time></trkpt><trkpt lat="47.714929033893135" lon="-1.7534642951649062"><ele>26.0</ele><time>2026-03-24T09:47:14.998Z</time></trkpt><trkpt lat="47.71488282315177" lon="-1.7537155195227543"><ele>25.0</ele><time>2026-03-24T09:47:16Z</time></trkpt><trkpt lat="47.71483935443849" lon="-1.7539612881668623"><ele>24.0</ele><time>2026-03-24T09:47:17Z</time></trkpt><trkpt lat="47.71479542216114" lon="-1.7542121527539172"><ele>24.0</ele><time>2026-03-24T09:47:18Z</time></trkpt><trkpt lat="47.7147492089721" lon="-1.754477775418631"><ele>24.0</ele><time>2026-03-24T09:47:19Z</time></trkpt><trkpt lat="47.714704609376064" lon="-1.7547351079545956"><ele>24.0</ele><time>2026-03-24T09:47:20Z</time></trkpt><trkpt lat="47.714643824418026" lon="-1.7549920277545061"><ele>24.333333333333336</ele><time>2026-03-24T09:47:21Z</time></trkpt><trkpt lat="47.71461651200392" lon="-1.7552414503938751"><ele>24.666666666666668</ele><time>2026-03-24T09:47:22Z</time></trkpt><trkpt lat="47.714569536401555" lon="-1.7555025512205416"><ele>25.0</ele><time>2026-03-24T09:47:23Z</time></trkpt><trkpt lat="47.71452416489286" lon="-1.755756519690778"><ele>25.0</ele><time>2026-03-24T09:47:24Z</time></trkpt><trkpt lat="47.71447849528229" lon="-1.756016169905656"><ele>25.0</ele><time>2026-03-24T09:47:25Z</time></trkpt><trkpt lat="47.71442304441275" lon="-1.7562678075270703"><ele>25.0</ele><time>2026-03-24T09:47:26Z</time></trkpt><trkpt lat="47.71438671671465" lon="-1.756535657752764"><ele>25.333333333333336</ele><time>2026-03-24T09:47:27Z</time></trkpt><trkpt lat="47.71434101664874" lon="-1.7567909650149613"><ele>25.666666666666664</ele><time>2026-03-24T09:47:28Z</time></trkpt><trkpt lat="47.71429591400508" lon="-1.7570429339745337"><ele>26.0</ele><time>2026-03-24T09:47:29Z</time></trkpt><trkpt lat="47.714250307519606" lon="-1.7572983283230024"><ele>26.333333333333332</ele><time>2026-03-24T09:47:30Z</time></trkpt><trkpt lat="47.71420655445499" lon="-1.7575443639077588"><ele>26.666666666666664</ele><time>2026-03-24T09:47:31Z</time></trkpt><trkpt lat="47.71416398430612" lon="-1.7577910058370316"><ele>27.0</ele><time>2026-03-24T09:47:32Z</time></trkpt><trkpt lat="47.71412027107061" lon="-1.758035699221585"><ele>27.666666666666664</ele><time>2026-03-24T09:47:33Z</time></trkpt><trkpt lat="47.71407684903446" lon="-1.7582777163743466"><ele>28.333333333333332</ele><time>2026-03-24T09:47:34Z</time></trkpt><trkpt lat="47.7140313455013" lon="-1.7585313345972235"><ele>29.0</ele><time>2026-03-24T09:47:35Z</time></trkpt><trkpt lat="47.713986117982515" lon="-1.758783414978896"><ele>29.0</ele><time>2026-03-24T09:47:36Z</time></trkpt><trkpt lat="47.713929760119065" lon="-1.759031123914042"><ele>29.0</ele><time>2026-03-24T09:47:37Z</time></trkpt><trkpt lat="47.71388871041203" lon="-1.7592612478200018"><ele>29.0</ele><time>2026-03-24T09:47:38Z</time></trkpt><trkpt lat="47.71384878915592" lon="-1.7595031109663961"><ele>28.666666666666664</ele><time>2026-03-24T09:47:39Z</time></trkpt><trkpt lat="47.7138058992092" lon="-1.7597226350047634"><ele>28.333333333333336</ele><time>2026-03-24T09:47:40Z</time></trkpt><trkpt lat="47.71376669914371" lon="-1.7599402314756962"><ele>28.0</ele><time>2026-03-24T09:47:41Z</time></trkpt><trkpt lat="47.71373800181957" lon="-1.7601908411662714"><ele>28.333333333333336</ele><time>2026-03-24T09:47:42Z</time></trkpt><trkpt lat="47.71368142491337" lon="-1.7604197396096304"><ele>28.666666666666664</ele><time>2026-03-24T09:47:43Z</time></trkpt><trkpt lat="47.71365636098971" lon="-1.7606495262624513"><ele>29.0</ele><time>2026-03-24T09:47:44Z</time></trkpt><trkpt lat="47.713613333931015" lon="-1.7608933982284227"><ele>28.666666666666664</ele><time>2026-03-24T09:47:45Z</time></trkpt><trkpt lat="47.71357137674551" lon="-1.7611314388468104"><ele>28.333333333333336</ele><time>2026-03-24T09:47:46Z</time></trkpt><trkpt lat="47.71351240486541" lon="-1.7613711831845082"><ele>28.0</ele><time>2026-03-24T09:47:47Z</time></trkpt><trkpt lat="47.713471104234635" lon="-1.7616151307257601"><ele>27.666666666666668</ele><time>2026-03-24T09:47:48Z</time></trkpt><trkpt lat="47.71344133088102" lon="-1.7618692429120164"><ele>27.333333333333336</ele><time>2026-03-24T09:47:49Z</time></trkpt><trkpt lat="47.71339537220872" lon="-1.7621299853038856"><ele>27.0</ele><time>2026-03-24T09:47:50Z</time></trkpt><trkpt lat="47.71335081389534" lon="-1.762381207899964"><ele>27.0</ele><time>2026-03-24T09:47:51Z</time></trkpt><trkpt lat="47.71330323672019" lon="-1.7626440431996189"><ele>27.0</ele><time>2026-03-24T09:47:52Z</time></trkpt><trkpt lat="47.7132568294547" lon="-1.7629004155198753"><ele>27.0</ele><time>2026-03-24T09:47:53Z</time></trkpt><trkpt lat="47.71321068453233" lon="-1.7631584332289512"><ele>27.666666666666664</ele><time>2026-03-24T09:47:54Z</time></trkpt><trkpt lat="47.71314637848008" lon="-1.7634261259699673"><ele>28.333333333333332</ele><time>2026-03-24T09:47:55Z</time></trkpt><trkpt lat="47.71310044473828" lon="-1.7637063455361097"><ele>29.0</ele><time>2026-03-24T09:47:56Z</time></trkpt><trkpt lat="47.7130599704274" lon="-1.76397979174687"><ele>29.333333333333332</ele><time>2026-03-24T09:47:57Z</time></trkpt><trkpt lat="47.71301024456481" lon="-1.7642460183534403"><ele>29.666666666666664</ele><time>2026-03-24T09:47:58Z</time></trkpt><trkpt lat="47.71296343700912" lon="-1.7645330067707246"><ele>30.0</ele><time>2026-03-24T09:47:59Z</time></trkpt><trkpt lat="47.712909131498066" lon="-1.7648180431787588"><ele>29.333333333333336</ele><time>2026-03-24T09:48:00Z</time></trkpt><trkpt lat="47.71284245098083" lon="-1.7651111556447139"><ele>28.666666666666668</ele><time>2026-03-24T09:48:00.999Z</time></trkpt><trkpt lat="47.71277325231936" lon="-1.765390995716272"><ele>28.0</ele><time>2026-03-24T09:48:01.999Z</time></trkpt><trkpt lat="47.712701660564846" lon="-1.7656578013037403"><ele>27.0</ele><time>2026-03-24T09:48:02.999Z</time></trkpt><trkpt lat="47.71262366977422" lon="-1.7659318005390725"><ele>26.0</ele><time>2026-03-24T09:48:03.999Z</time></trkpt><trkpt lat="47.712546317735416" lon="-1.7661960976961495"><ele>25.0</ele><time>2026-03-24T09:48:04.999Z</time></trkpt><trkpt lat="47.712462425319316" lon="-1.7664704118388448"><ele>24.666666666666668</ele><time>2026-03-24T09:48:05.999Z</time></trkpt><trkpt lat="47.712390632987585" lon="-1.7667495460707532"><ele>24.333333333333336</ele><time>2026-03-24T09:48:06.999Z</time></trkpt><trkpt lat="47.712301036597445" lon="-1.7670247178343235"><ele>24.0</ele><time>2026-03-24T09:48:07.999Z</time></trkpt><trkpt lat="47.7122206369507" lon="-1.7672976524264368"><ele>24.0</ele><time>2026-03-24T09:48:08.999Z</time></trkpt><trkpt lat="47.71213805764836" lon="-1.7675779087930423"><ele>24.0</ele><time>2026-03-24T09:48:09.999Z</time></trkpt><trkpt lat="47.71205199905695" lon="-1.7678590272058337"><ele>24.0</ele><time>2026-03-24T09:48:10.999Z</time></trkpt><trkpt lat="47.71198207098475" lon="-1.7681495258996542"><ele>23.333333333333332</ele><time>2026-03-24T09:48:11.999Z</time></trkpt><trkpt lat="47.71190228937945" lon="-1.7684330970465738"><ele>22.666666666666664</ele><time>2026-03-24T09:48:12.999Z</time></trkpt><trkpt lat="47.71182662992317" lon="-1.768695133765075"><ele>22.0</ele><time>2026-03-24T09:48:13.999Z</time></trkpt><trkpt lat="47.71174952489069" lon="-1.7689615402274477"><ele>21.666666666666664</ele><time>2026-03-24T09:48:14.999Z</time></trkpt><trkpt lat="47.711672960103385" lon="-1.7692256135927962"><ele>21.333333333333332</ele><time>2026-03-24T09:48:15.999Z</time></trkpt><trkpt lat="47.711601496714664" lon="-1.7694742250794362"><ele>21.0</ele><time>2026-03-24T09:48:16.999Z</time></trkpt><trkpt lat="47.71153019497421" lon="-1.7697245523645693"><ele>21.666666666666668</ele><time>2026-03-24T09:48:17.999Z</time></trkpt><trkpt lat="47.71146365913649" lon="-1.76995814744116"><ele>22.333333333333336</ele><time>2026-03-24T09:48:18.999Z</time></trkpt><trkpt lat="47.71140102122294" lon="-1.7701749977306955"><ele>23.0</ele><time>2026-03-24T09:48:19.999Z</time></trkpt><trkpt lat="47.711349326979885" lon="-1.7703530088709085"><ele>23.2</ele><time>2026-03-24T09:48:20.999Z</time></trkpt><trkpt lat="47.71129300179569" lon="-1.77049329854782"><ele>23.4</ele><time>2026-03-24T09:48:21.999Z</time></trkpt><trkpt lat="47.71128042254845" lon="-1.7706142022018276"><ele>23.599999999999998</ele><time>2026-03-24T09:48:22.999Z</time></trkpt><trkpt lat="47.711270909146265" lon="-1.7707104204995934"><ele>23.799999999999997</ele><time>2026-03-24T09:48:23.999Z</time></trkpt><trkpt lat="47.71125142329271" lon="-1.7708460836996374"><ele>24.0</ele><time>2026-03-24T09:48:25.999Z</time></trkpt><trkpt lat="47.71146814940832" lon="-1.7709103451189039"><ele>24.0</ele><time>2026-03-24T09:48:26.999Z</time></trkpt><trkpt lat="47.71156305955315" lon="-1.7709589613924182"><ele>24.0</ele><time>2026-03-24T09:48:27.999Z</time></trkpt><trkpt lat="47.71163761309301" lon="-1.7709955670589348"><ele>24.0</ele><time>2026-03-24T09:48:28.999Z</time></trkpt><trkpt lat="47.7117340660087" lon="-1.7710443523392398"><ele>24.0</ele><time>2026-03-24T09:48:30.999Z</time></trkpt><trkpt lat="47.711799696671186" lon="-1.7710731676924438"><ele>24.0</ele><time>2026-03-24T09:48:32.999Z</time></trkpt><trkpt lat="47.71186592875387" lon="-1.7711047611389625"><ele>24.0</ele><time>2026-03-24T09:48:34.999Z</time></trkpt><trkpt lat="47.71192593882816" lon="-1.771135828623581"><ele>24.4</ele><time>2026-03-24T09:48:36.999Z</time></trkpt><trkpt lat="47.711995687635635" lon="-1.771173297105932"><ele>24.799999999999997</ele><time>2026-03-24T09:48:37.999Z</time></trkpt><trkpt lat="47.71205755012704" lon="-1.771223895538427"><ele>25.200000000000003</ele><time>2026-03-24T09:48:38.999Z</time></trkpt><trkpt lat="47.71215047267349" lon="-1.7712539176096076"><ele>25.6</ele><time>2026-03-24T09:48:40.999Z</time></trkpt><trkpt lat="47.71212622830923" lon="-1.7715535502028845"><ele>26.0</ele><time>2026-03-24T09:48:42.999Z</time></trkpt><trkpt lat="47.71212010709139" lon="-1.771720405018262"><ele>26.25</ele><time>2026-03-24T09:48:43.999Z</time></trkpt><trkpt lat="47.712110910466066" lon="-1.771900073355481"><ele>26.5</ele><time>2026-03-24T09:48:44.999Z</time></trkpt><trkpt lat="47.7120964026414" lon="-1.772062470076489"><ele>26.75</ele><time>2026-03-24T09:48:45.999Z</time></trkpt><trkpt lat="47.71208018624745" lon="-1.7722347622049388"><ele>27.0</ele><time>2026-03-24T09:48:46.999Z</time></trkpt><trkpt lat="47.7120654606771" lon="-1.7724137605908021"><ele>27.0</ele><time>2026-03-24T09:48:47.999Z</time></trkpt><trkpt lat="47.71206558614514" lon="-1.77261425870206"><ele>27.0</ele><time>2026-03-24T09:48:48.999Z</time></trkpt><trkpt lat="47.7120580008792" lon="-1.7728148054857942"><ele>27.0</ele><time>2026-03-24T09:48:49.999Z</time></trkpt><trkpt lat="47.712048496978746" lon="-1.7730201790039393"><ele>27.0</ele><time>2026-03-24T09:48:50.999Z</time></trkpt><trkpt lat="47.71204392660006" lon="-1.77321159480911"><ele>26.75</ele><time>2026-03-24T09:48:51.999Z</time></trkpt><trkpt lat="47.71204382717709" lon="-1.7734245028001472"><ele>26.5</ele><time>2026-03-24T09:48:52.999Z</time></trkpt><trkpt lat="47.71204426222544" lon="-1.7736300387671522"><ele>26.25</ele><time>2026-03-24T09:48:53.999Z</time></trkpt><trkpt lat="47.71204248959379" lon="-1.7738480301758728"><ele>26.0</ele><time>2026-03-24T09:48:54.999Z</time></trkpt><trkpt lat="47.71203625754168" lon="-1.7740473373335843"><ele>25.75</ele><time>2026-03-24T09:48:55.999Z</time></trkpt><trkpt lat="47.71203493064088" lon="-1.774255714579285"><ele>25.5</ele><time>2026-03-24T09:48:56.999Z</time></trkpt><trkpt lat="47.7120376043358" lon="-1.7744648273041632"><ele>25.25</ele><time>2026-03-24T09:48:57.999Z</time></trkpt><trkpt lat="47.71205166319201" lon="-1.7746713260593352"><ele>25.0</ele><time>2026-03-24T09:48:58.999Z</time></trkpt><trkpt lat="47.712072256699194" lon="-1.774845903379589"><ele>25.0</ele><time>2026-03-24T09:48:59.999Z</time></trkpt><trkpt lat="47.71210911006848" lon="-1.7750244876457073"><ele>25.0</ele><time>2026-03-24T09:49:00.999Z</time></trkpt><trkpt lat="47.71212358386298" lon="-1.7752131738826336"><ele>25.0</ele><time>2026-03-24T09:49:01.999Z</time></trkpt><trkpt lat="47.71214114506265" lon="-1.7754151119187633"><ele>25.0</ele><time>2026-03-24T09:49:02.999Z</time></trkpt><trkpt lat="47.71215816584334" lon="-1.775630644965883"><ele>25.0</ele><time>2026-03-24T09:49:03.999Z</time></trkpt><trkpt lat="47.712172062284296" lon="-1.7758608815815535"><ele>25.0</ele><time>2026-03-24T09:49:04.998Z</time></trkpt><trkpt lat="47.712187809341366" lon="-1.776094053906567"><ele>25.0</ele><time>2026-03-24T09:49:05.998Z</time></trkpt><trkpt lat="47.71220164989135" lon="-1.7763155618473292"><ele>24.75</ele><time>2026-03-24T09:49:06.998Z</time></trkpt><trkpt lat="47.712216842460805" lon="-1.776516306956966"><ele>24.5</ele><time>2026-03-24T09:49:07.998Z</time></trkpt><trkpt lat="47.712243532833355" lon="-1.7767023727827824"><ele>24.25</ele><time>2026-03-24T09:49:08.998Z</time></trkpt><trkpt lat="47.71227007263871" lon="-1.7768933419689457"><ele>24.0</ele><time>2026-03-24T09:49:09.998Z</time></trkpt><trkpt lat="47.71227609985123" lon="-1.7770799395962653"><ele>24.0</ele><time>2026-03-24T09:49:10.998Z</time></trkpt><trkpt lat="47.71226122606193" lon="-1.7772661538439312"><ele>24.0</ele><time>2026-03-24T09:49:11.998Z</time></trkpt><trkpt lat="47.71223855220055" lon="-1.7774820462835499"><ele>24.0</ele><time>2026-03-24T09:49:12.998Z</time></trkpt><trkpt lat="47.71222999480446" lon="-1.777685713945164"><ele>24.0</ele><time>2026-03-24T09:49:13.998Z</time></trkpt><trkpt lat="47.712202091208205" lon="-1.777890945192676"><ele>23.5</ele><time>2026-03-24T09:49:14.998Z</time></trkpt><trkpt lat="47.71217356366595" lon="-1.7780969689874018"><ele>23.0</ele><time>2026-03-24T09:49:15.998Z</time></trkpt><trkpt lat="47.71214459162123" lon="-1.7783044209225374"><ele>22.5</ele><time>2026-03-24T09:49:16.998Z</time></trkpt><trkpt lat="47.71210915374532" lon="-1.7785285631507237"><ele>22.0</ele><time>2026-03-24T09:49:17.998Z</time></trkpt><trkpt lat="47.71207678143793" lon="-1.77875268132797"><ele>22.0</ele><time>2026-03-24T09:49:18.998Z</time></trkpt><trkpt lat="47.712047069817764" lon="-1.7789627087484339"><ele>22.0</ele><time>2026-03-24T09:49:19.998Z</time></trkpt><trkpt lat="47.71202893823704" lon="-1.7791584996862688"><ele>22.0</ele><time>2026-03-24T09:49:20.998Z</time></trkpt><trkpt lat="47.71200110007193" lon="-1.779323874641967"><ele>22.0</ele><time>2026-03-24T09:49:22Z</time></trkpt><trkpt lat="47.71196463338908" lon="-1.7795189653727286"><ele>22.0</ele><time>2026-03-24T09:49:23Z</time></trkpt><trkpt lat="47.71193531700884" lon="-1.7797053052379193"><ele>22.0</ele><time>2026-03-24T09:49:24Z</time></trkpt><trkpt lat="47.71191018881263" lon="-1.7798906996305432"><ele>22.0</ele><time>2026-03-24T09:49:25Z</time></trkpt><trkpt lat="47.71189628478571" lon="-1.7800827992762982"><ele>22.0</ele><time>2026-03-24T09:49:26Z</time></trkpt><trkpt lat="47.71187726916074" lon="-1.7802728274003974"><ele>22.0</ele><time>2026-03-24T09:49:27Z</time></trkpt><trkpt lat="47.7118597291266" lon="-1.7804571674145508"><ele>22.0</ele><time>2026-03-24T09:49:28Z</time></trkpt><trkpt lat="47.7118459554201" lon="-1.7806532597364164"><ele>22.0</ele><time>2026-03-24T09:49:29Z</time></trkpt><trkpt lat="47.711830502995625" lon="-1.780850425562883"><ele>22.0</ele><time>2026-03-24T09:49:30Z</time></trkpt><trkpt lat="47.711811334174776" lon="-1.7810638658691764"><ele>22.0</ele><time>2026-03-24T09:49:31Z</time></trkpt><trkpt lat="47.71180325736284" lon="-1.7813026207765463"><ele>22.0</ele><time>2026-03-24T09:49:32Z</time></trkpt><trkpt lat="47.71179514146646" lon="-1.7815456180702611"><ele>22.0</ele><time>2026-03-24T09:49:33Z</time></trkpt><trkpt lat="47.71179074964077" lon="-1.7817579549784737"><ele>21.75</ele><time>2026-03-24T09:49:34Z</time></trkpt><trkpt lat="47.71177313606122" lon="-1.781957862434105"><ele>21.5</ele><time>2026-03-24T09:49:35Z</time></trkpt><trkpt lat="47.711751015150384" lon="-1.7821453119672364"><ele>21.25</ele><time>2026-03-24T09:49:36Z</time></trkpt><trkpt lat="47.71173197060922" lon="-1.7823060992781246"><ele>21.0</ele><time>2026-03-24T09:49:37Z</time></trkpt><trkpt lat="47.71171731300491" lon="-1.7824808334941538"><ele>21.0</ele><time>2026-03-24T09:49:38Z</time></trkpt><trkpt lat="47.71169828691309" lon="-1.7826565352329276"><ele>21.0</ele><time>2026-03-24T09:49:39Z</time></trkpt><trkpt lat="47.711686944840274" lon="-1.7828544577721535"><ele>21.0</ele><time>2026-03-24T09:49:40Z</time></trkpt><trkpt lat="47.71164279118266" lon="-1.783040024094048"><ele>21.0</ele><time>2026-03-24T09:49:41Z</time></trkpt><trkpt lat="47.71160133660857" lon="-1.7832390264417204"><ele>20.75</ele><time>2026-03-24T09:49:42Z</time></trkpt><trkpt lat="47.71156142521774" lon="-1.783449292470707"><ele>20.5</ele><time>2026-03-24T09:49:43Z</time></trkpt><trkpt lat="47.711525282061764" lon="-1.783658736627378"><ele>20.25</ele><time>2026-03-24T09:49:44Z</time></trkpt><trkpt lat="47.71148795483943" lon="-1.783869555598972"><ele>20.0</ele><time>2026-03-24T09:49:45Z</time></trkpt><trkpt lat="47.711443428337155" lon="-1.7840967318020102"><ele>20.0</ele><time>2026-03-24T09:49:46Z</time></trkpt><trkpt lat="47.71139705083771" lon="-1.784330837286782"><ele>20.0</ele><time>2026-03-24T09:49:47Z</time></trkpt><trkpt lat="47.71137823147435" lon="-1.7845688573691645"><ele>20.0</ele><time>2026-03-24T09:49:48Z</time></trkpt><trkpt lat="47.71136041120801" lon="-1.784811701621783"><ele>19.25</ele><time>2026-03-24T09:49:49Z</time></trkpt><trkpt lat="47.71134162998216" lon="-1.785050562002236"><ele>18.5</ele><time>2026-03-24T09:49:50Z</time></trkpt><trkpt lat="47.7113285201835" lon="-1.785271149666869"><ele>17.75</ele><time>2026-03-24T09:49:51Z</time></trkpt><trkpt lat="47.711317233081125" lon="-1.785461985972722"><ele>17.0</ele><time>2026-03-24T09:49:52Z</time></trkpt><trkpt lat="47.71128233228008" lon="-1.785641711446655"><ele>16.6</ele><time>2026-03-24T09:49:53Z</time></trkpt><trkpt lat="47.71127342828069" lon="-1.785798519482808"><ele>16.2</ele><time>2026-03-24T09:49:54Z</time></trkpt><trkpt lat="47.71124114063174" lon="-1.7859447858894135"><ele>15.8</ele><time>2026-03-24T09:49:55Z</time></trkpt><trkpt lat="47.71122620545118" lon="-1.7860943170170938"><ele>15.4</ele><time>2026-03-24T09:49:56Z</time></trkpt><trkpt lat="47.7112349556491" lon="-1.7862381100039542"><ele>15.0</ele><time>2026-03-24T09:49:57Z</time></trkpt><trkpt lat="47.7112148488429" lon="-1.7863629214812957"><ele>14.833333333333334</ele><time>2026-03-24T09:49:58Z</time></trkpt><trkpt lat="47.711199097760996" lon="-1.7864786613113723"><ele>14.666666666666668</ele><time>2026-03-24T09:49:59Z</time></trkpt><trkpt lat="47.7111748203095" lon="-1.7865908199708467"><ele>14.5</ele><time>2026-03-24T09:50:00Z</time></trkpt><trkpt lat="47.71115411786516" lon="-1.7867140728618294"><ele>14.333333333333334</ele><time>2026-03-24T09:50:01Z</time></trkpt><trkpt lat="47.71113690982573" lon="-1.7868206260614963"><ele>14.166666666666668</ele><time>2026-03-24T09:50:02Z</time></trkpt><trkpt lat="47.71114355607058" lon="-1.786918921820609"><ele>14.0</ele><time>2026-03-24T09:50:03Z</time></trkpt><trkpt lat="47.71114773686162" lon="-1.787040501307454"><ele>13.6</ele><time>2026-03-24T09:50:03.999Z</time></trkpt><trkpt lat="47.71117258226375" lon="-1.7871854532433202"><ele>13.2</ele><time>2026-03-24T09:50:04.999Z</time></trkpt><trkpt lat="47.71118978591926" lon="-1.7873398201173774"><ele>12.799999999999999</ele><time>2026-03-24T09:50:05.999Z</time></trkpt><trkpt lat="47.711192498433945" lon="-1.787517279019427"><ele>12.399999999999999</ele><time>2026-03-24T09:50:06.999Z</time></trkpt><trkpt lat="47.711184484915954" lon="-1.7876803099647876"><ele>12.0</ele><time>2026-03-24T09:50:07.999Z</time></trkpt><trkpt lat="47.71122110634194" lon="-1.7878449357317068"><ele>12.0</ele><time>2026-03-24T09:50:08.999Z</time></trkpt><trkpt lat="47.711239830088886" lon="-1.7880036437325335"><ele>12.0</ele><time>2026-03-24T09:50:09.999Z</time></trkpt><trkpt lat="47.711247248000014" lon="-1.7881570774376259"><ele>12.0</ele><time>2026-03-24T09:50:10.999Z</time></trkpt><trkpt lat="47.711257946119694" lon="-1.7882636711866096"><ele>12.0</ele><time>2026-03-24T09:50:11.999Z</time></trkpt><trkpt lat="47.71126381782781" lon="-1.788362795568312"><ele>12.0</ele><time>2026-03-24T09:50:12.999Z</time></trkpt><trkpt lat="47.711262969101625" lon="-1.7884659300435253"><ele>12.0</ele><time>2026-03-24T09:50:13.999Z</time></trkpt><trkpt lat="47.71128153504187" lon="-1.788651328999591"><ele>12.0</ele><time>2026-03-24T09:50:15.999Z</time></trkpt><trkpt lat="47.711296896618514" lon="-1.7887667108297338"><ele>12.0</ele><time>2026-03-24T09:50:17.999Z</time></trkpt><trkpt lat="47.71130620783762" lon="-1.7889115995303098"><ele>12.0</ele><time>2026-03-24T09:50:40.999Z</time></trkpt><trkpt lat="47.71130871160894" lon="-1.7890280302218808"><ele>12.0</ele><time>2026-03-24T09:50:41.999Z</time></trkpt><trkpt lat="47.71131648560752" lon="-1.7891308211584356"><ele>12.0</ele><time>2026-03-24T09:50:42.999Z</time></trkpt><trkpt lat="47.7113392391719" lon="-1.7892874826296536"><ele>12.0</ele><time>2026-03-24T09:50:44.999Z</time></trkpt><trkpt lat="47.71135155583855" lon="-1.7893867477048342"><ele>12.0</ele><time>2026-03-24T09:50:45.999Z</time></trkpt><trkpt lat="47.711349730365406" lon="-1.7895372541286247"><ele>12.0</ele><time>2026-03-24T09:50:47.999Z</time></trkpt><trkpt lat="47.71138610800069" lon="-1.7896669415123079"><ele>12.0</ele><time>2026-03-24T09:50:49.999Z</time></trkpt><trkpt lat="47.71147794125769" lon="-1.7897977103592932"><ele>12.0</ele><time>2026-03-24T09:50:51.999Z</time></trkpt><trkpt lat="47.71154169432762" lon="-1.7898692097114512"><ele>12.0</ele><time>2026-03-24T09:50:52.999Z</time></trkpt><trkpt lat="47.71160237785893" lon="-1.7899436086252054"><ele>12.0</ele><time>2026-03-24T09:50:53.999Z</time></trkpt><trkpt lat="47.71168758775733" lon="-1.7900308632879034"><ele>12.0</ele><time>2026-03-24T09:50:54.999Z</time></trkpt><trkpt lat="47.71177414412448" lon="-1.7901617178352103"><ele>12.0</ele><time>2026-03-24T09:50:55.999Z</time></trkpt><trkpt lat="47.71185840273947" lon="-1.7902658265403606"><ele>12.0</ele><time>2026-03-24T09:50:56.999Z</time></trkpt><trkpt lat="47.71195193305548" lon="-1.7903709192210233"><ele>12.25</ele><time>2026-03-24T09:50:57.999Z</time></trkpt><trkpt lat="47.712049219720306" lon="-1.790484743749763"><ele>12.5</ele><time>2026-03-24T09:50:58.999Z</time></trkpt><trkpt lat="47.71215553728659" lon="-1.7906060201953855"><ele>12.75</ele><time>2026-03-24T09:50:59.999Z</time></trkpt><trkpt lat="47.7122674583155" lon="-1.7907319497408614"><ele>13.0</ele><time>2026-03-24T09:51:00.999Z</time></trkpt><trkpt lat="47.71237152735948" lon="-1.7908634082223183"><ele>13.0</ele><time>2026-03-24T09:51:01.999Z</time></trkpt><trkpt lat="47.71247636884204" lon="-1.790987741324819"><ele>13.0</ele><time>2026-03-24T09:51:02.999Z</time></trkpt><trkpt lat="47.71258641763783" lon="-1.7911088775845299"><ele>13.0</ele><time>2026-03-24T09:51:03.999Z</time></trkpt><trkpt lat="47.71270030883593" lon="-1.7912457445989793"><ele>13.0</ele><time>2026-03-24T09:51:04.999Z</time></trkpt><trkpt lat="47.712825102771475" lon="-1.791390736684494"><ele>13.666666666666666</ele><time>2026-03-24T09:51:05.999Z</time></trkpt><trkpt lat="47.712953301429195" lon="-1.7915381653000002"><ele>14.333333333333332</ele><time>2026-03-24T09:51:06.998Z</time></trkpt><trkpt lat="47.713081601133595" lon="-1.7916893082621435"><ele>15.0</ele><time>2026-03-24T09:51:07.998Z</time></trkpt><trkpt lat="47.713220912573526" lon="-1.7918544404798171"><ele>15.0</ele><time>2026-03-24T09:51:08.998Z</time></trkpt><trkpt lat="47.71335432823802" lon="-1.7920128664084383"><ele>15.0</ele><time>2026-03-24T09:51:09.998Z</time></trkpt><trkpt lat="47.71347799291891" lon="-1.7921574916346037"><ele>15.0</ele><time>2026-03-24T09:51:10.998Z</time></trkpt><trkpt lat="47.71360000517071" lon="-1.7922966195919017"><ele>15.666666666666668</ele><time>2026-03-24T09:51:11.998Z</time></trkpt><trkpt lat="47.71373192676271" lon="-1.7924434116070105"><ele>16.333333333333336</ele><time>2026-03-24T09:51:12.998Z</time></trkpt><trkpt lat="47.713855167024015" lon="-1.792589197800594"><ele>17.0</ele><time>2026-03-24T09:51:13.998Z</time></trkpt><trkpt lat="47.713986654224335" lon="-1.7927419856932367"><ele>17.0</ele><time>2026-03-24T09:51:14.998Z</time></trkpt><trkpt lat="47.7141236487927" lon="-1.7929067483871888"><ele>17.0</ele><time>2026-03-24T09:51:15.998Z</time></trkpt><trkpt lat="47.71425845206304" lon="-1.7930670847376564"><ele>17.0</ele><time>2026-03-24T09:51:16.998Z</time></trkpt><trkpt lat="47.714399123532786" lon="-1.7932289903734842"><ele>17.666666666666668</ele><time>2026-03-24T09:51:17.998Z</time></trkpt><trkpt lat="47.7145412244496" lon="-1.793395524925514"><ele>18.333333333333332</ele><time>2026-03-24T09:51:18.998Z</time></trkpt><trkpt lat="47.714683928846824" lon="-1.7935601547768085"><ele>19.0</ele><time>2026-03-24T09:51:19.998Z</time></trkpt><trkpt lat="47.71482321328384" lon="-1.7937171742159101"><ele>19.333333333333332</ele><time>2026-03-24T09:51:20.998Z</time></trkpt><trkpt lat="47.714961248977616" lon="-1.793873012967976"><ele>19.666666666666668</ele><time>2026-03-24T09:51:21.998Z</time></trkpt><trkpt lat="47.71509893384299" lon="-1.7940378905032601"><ele>20.0</ele><time>2026-03-24T09:51:22.998Z</time></trkpt><trkpt lat="47.71524651186546" lon="-1.7942090362587577"><ele>20.333333333333336</ele><time>2026-03-24T09:51:23.998Z</time></trkpt><trkpt lat="47.7153897660477" lon="-1.7943775748094752"><ele>20.666666666666668</ele><time>2026-03-24T09:51:24.998Z</time></trkpt><trkpt lat="47.715525943275104" lon="-1.7945390490377187"><ele>21.0</ele><time>2026-03-24T09:51:25.998Z</time></trkpt><trkpt lat="47.71565698713988" lon="-1.7946883965877645"><ele>21.0</ele><time>2026-03-24T09:51:27Z</time></trkpt><trkpt lat="47.715784261800216" lon="-1.794834830526346"><ele>21.0</ele><time>2026-03-24T09:51:28Z</time></trkpt><trkpt lat="47.71590325470348" lon="-1.7949738677596014"><ele>21.0</ele><time>2026-03-24T09:51:29Z</time></trkpt><trkpt lat="47.716014627009294" lon="-1.7951134171170977"><ele>21.75</ele><time>2026-03-24T09:51:30Z</time></trkpt><trkpt lat="47.7161273735978" lon="-1.795246953167671"><ele>22.5</ele><time>2026-03-24T09:51:31Z</time></trkpt><trkpt lat="47.71624472459198" lon="-1.7953751160484637"><ele>23.25</ele><time>2026-03-24T09:51:32Z</time></trkpt><trkpt lat="47.716366069159726" lon="-1.7955118336774094"><ele>24.0</ele><time>2026-03-24T09:51:33Z</time></trkpt><trkpt lat="47.71648757958916" lon="-1.7956612586002256"><ele>24.0</ele><time>2026-03-24T09:51:34Z</time></trkpt><trkpt lat="47.716602621791345" lon="-1.7958085921337714"><ele>24.0</ele><time>2026-03-24T09:51:35Z</time></trkpt><trkpt lat="47.716730919434234" lon="-1.79596202823253"><ele>24.0</ele><time>2026-03-24T09:51:36Z</time></trkpt><trkpt lat="47.71686747439757" lon="-1.7961137771541553"><ele>24.333333333333336</ele><time>2026-03-24T09:51:37Z</time></trkpt><trkpt lat="47.71699571676144" lon="-1.7962637902024854"><ele>24.666666666666668</ele><time>2026-03-24T09:51:38Z</time></trkpt><trkpt lat="47.71713980820913" lon="-1.7964230224474442"><ele>25.0</ele><time>2026-03-24T09:51:39Z</time></trkpt><trkpt lat="47.71727874955199" lon="-1.796582531479555"><ele>25.0</ele><time>2026-03-24T09:51:40Z</time></trkpt><trkpt lat="47.71741161820085" lon="-1.7967345536070558"><ele>25.0</ele><time>2026-03-24T09:51:41Z</time></trkpt><trkpt lat="47.717522059655465" lon="-1.7968711016911358"><ele>25.0</ele><time>2026-03-24T09:51:42Z</time></trkpt><trkpt lat="47.71762242882046" lon="-1.7969998663383595"><ele>25.0</ele><time>2026-03-24T09:51:43Z</time></trkpt><trkpt lat="47.717736852025034" lon="-1.797108414929198"><ele>26.0</ele><time>2026-03-24T09:51:44Z</time></trkpt><trkpt lat="47.717826519395196" lon="-1.7972394549628097"><ele>27.0</ele><time>2026-03-24T09:51:45Z</time></trkpt><trkpt lat="47.71792535602184" lon="-1.7973478120529274"><ele>28.0</ele><time>2026-03-24T09:51:46Z</time></trkpt><trkpt lat="47.718020584128176" lon="-1.7974600724812166"><ele>29.0</ele><time>2026-03-24T09:51:47Z</time></trkpt><trkpt lat="47.718128453664654" lon="-1.7975611349615588"><ele>29.4</ele><time>2026-03-24T09:51:48Z</time></trkpt><trkpt lat="47.71822031405365" lon="-1.7976750515397437"><ele>29.799999999999997</ele><time>2026-03-24T09:51:49Z</time></trkpt><trkpt lat="47.718292579532196" lon="-1.7977631585655465"><ele>30.200000000000003</ele><time>2026-03-24T09:51:50Z</time></trkpt><trkpt lat="47.71836609704891" lon="-1.7978398438072836"><ele>30.6</ele><time>2026-03-24T09:51:51Z</time></trkpt><trkpt lat="47.71843334834156" lon="-1.7979154148583891"><ele>31.0</ele><time>2026-03-24T09:51:52Z</time></trkpt><trkpt lat="47.71849398795202" lon="-1.7979953868253506"><ele>31.0</ele><time>2026-03-24T09:51:53Z</time></trkpt><trkpt lat="47.718564856763095" lon="-1.7980845837746144"><ele>31.0</ele><time>2026-03-24T09:51:54Z</time></trkpt><trkpt lat="47.7186482932813" lon="-1.7981711212359386"><ele>31.0</ele><time>2026-03-24T09:51:55Z</time></trkpt><trkpt lat="47.71873417465977" lon="-1.7982767854363801"><ele>31.0</ele><time>2026-03-24T09:51:56Z</time></trkpt><trkpt lat="47.71881925202824" lon="-1.7983817227460905"><ele>31.0</ele><time>2026-03-24T09:51:57Z</time></trkpt><trkpt lat="47.71891847615575" lon="-1.7984863076587327"><ele>31.333333333333336</ele><time>2026-03-24T09:51:58Z</time></trkpt><trkpt lat="47.71899249196421" lon="-1.7985677838165872"><ele>31.666666666666668</ele><time>2026-03-24T09:51:59Z</time></trkpt><trkpt lat="47.719050449994704" lon="-1.7986416505532525"><ele>32.0</ele><time>2026-03-24T09:52:00Z</time></trkpt><trkpt lat="47.71911055960877" lon="-1.7987255305318508"><ele>32.333333333333336</ele><time>2026-03-24T09:52:01Z</time></trkpt><trkpt lat="47.719182385576254" lon="-1.7988064710367915"><ele>32.666666666666664</ele><time>2026-03-24T09:52:02Z</time></trkpt><trkpt lat="47.71924188225148" lon="-1.7988910549607684"><ele>33.0</ele><time>2026-03-24T09:52:03Z</time></trkpt><trkpt lat="47.719292124577116" lon="-1.7989618391934683"><ele>33.0</ele><time>2026-03-24T09:52:04Z</time></trkpt><trkpt lat="47.719386855768654" lon="-1.7990408594498477"><ele>33.0</ele><time>2026-03-24T09:52:06Z</time></trkpt><trkpt lat="47.7192908366647" lon="-1.7991733812278867"><ele>33.0</ele><time>2026-03-24T09:52:08.999Z</time></trkpt><trkpt lat="47.71921101143757" lon="-1.799201919999288"><ele>33.0</ele><time>2026-03-24T09:52:11.999Z</time></trkpt><trkpt lat="47.71911747536884" lon="-1.7992196638169444"><ele>33.0</ele><time>2026-03-24T09:52:13.999Z</time></trkpt><trkpt lat="47.71903530513361" lon="-1.7992576714701978"><ele>33.0</ele><time>2026-03-24T09:52:15.999Z</time></trkpt><trkpt lat="47.71896007639759" lon="-1.7992791045741916"><ele>33.0</ele><time>2026-03-24T09:52:18.999Z</time></trkpt><trkpt lat="47.718881101455885" lon="-1.7992991827255005"><ele>33.0</ele><time>2026-03-24T09:52:20.999Z</time></trkpt><trkpt lat="47.71881764673923" lon="-1.7993124675937981"><ele>33.0</ele><time>2026-03-24T09:52:23.999Z</time></trkpt><trkpt lat="47.718719681356575" lon="-1.7993400966735504"><ele>33.0</ele><time>2026-03-24T09:52:25.999Z</time></trkpt><trkpt lat="47.71855640589332" lon="-1.799357229663257"><ele>33.0</ele><time>2026-03-24T09:52:27.999Z</time></trkpt><trkpt lat="47.718462113148014" lon="-1.7993223388494435"><ele>33.0</ele><time>2026-03-24T09:52:30.999Z</time></trkpt><trkpt lat="47.71834147169927" lon="-1.7993089710325985"><ele>33.0</ele><time>2026-03-24T09:52:32.999Z</time></trkpt><trkpt lat="47.71823066352553" lon="-1.7994087402377779"><ele>33.0</ele><time>2026-03-24T09:52:34.999Z</time></trkpt><trkpt lat="47.718167315158844" lon="-1.799459015920479"><ele>33.0</ele><time>2026-03-24T09:52:35.999Z</time></trkpt><trkpt lat="47.71810473505977" lon="-1.7995037787712465"><ele>33.0</ele><time>2026-03-24T09:52:36.999Z</time></trkpt><trkpt lat="47.71804252807575" lon="-1.799554001664632"><ele>33.0</ele><time>2026-03-24T09:52:37.999Z</time></trkpt><trkpt lat="47.71800537714498" lon="-1.7996983242045346"><ele>33.0</ele><time>2026-03-24T09:52:39.999Z</time></trkpt><trkpt lat="47.718008273840816" lon="-1.7998863907977933"><ele>33.0</ele><time>2026-03-24T09:52:41.999Z</time></trkpt><trkpt lat="47.718006444907914" lon="-1.800018267624826"><ele>33.0</ele><time>2026-03-24T09:52:42.999Z</time></trkpt><trkpt lat="47.71800696934594" lon="-1.8001730191642682"><ele>33.0</ele><time>2026-03-24T09:52:43.999Z</time></trkpt><trkpt lat="47.718008826249694" lon="-1.8003351885392995"><ele>33.0</ele><time>2026-03-24T09:52:44.999Z</time></trkpt><trkpt lat="47.71799476181729" lon="-1.8004602740238618"><ele>33.0</ele><time>2026-03-24T09:52:45.999Z</time></trkpt><trkpt lat="47.718019660989775" lon="-1.8005801848076437"><ele>33.0</ele><time>2026-03-24T09:52:46.999Z</time></trkpt><trkpt lat="47.71802138884167" lon="-1.8006990094462463"><ele>33.0</ele><time>2026-03-24T09:52:47.999Z</time></trkpt><trkpt lat="47.71800968247109" lon="-1.8008042346524593"><ele>33.0</ele><time>2026-03-24T09:52:48.999Z</time></trkpt><trkpt lat="47.71802797178296" lon="-1.8009127772506255"><ele>33.0</ele><time>2026-03-24T09:52:49.999Z</time></trkpt><trkpt lat="47.718023341592556" lon="-1.8010065885924325"><ele>33.0</ele><time>2026-03-24T09:52:50.999Z</time></trkpt><trkpt lat="47.718150904526006" lon="-1.8010565291309473"><ele>33.0</ele><time>2026-03-24T09:52:51.999Z</time></trkpt><trkpt lat="47.718245477553495" lon="-1.8010809039586817"><ele>33.0</ele><time>2026-03-24T09:52:52.999Z</time></trkpt><trkpt lat="47.71834976768868" lon="-1.8011077833150624"><ele>33.0</ele><time>2026-03-24T09:52:53.999Z</time></trkpt><trkpt lat="47.71846870009177" lon="-1.801156383597167"><ele>34.0</ele><time>2026-03-24T09:52:54.999Z</time></trkpt><trkpt lat="47.71861328055738" lon="-1.8011892587805294"><ele>35.0</ele><time>2026-03-24T09:52:55.999Z</time></trkpt><trkpt lat="47.718737257572826" lon="-1.8012208096361781"><ele>36.0</ele><time>2026-03-24T09:52:56.999Z</time></trkpt><trkpt lat="47.71885112472082" lon="-1.8012385458560438"><ele>37.0</ele><time>2026-03-24T09:52:57.999Z</time></trkpt><trkpt lat="47.718977024442744" lon="-1.801265277135289"><ele>37.0</ele><time>2026-03-24T09:52:58.999Z</time></trkpt><trkpt lat="47.719076035987584" lon="-1.8012941379965253"><ele>37.0</ele><time>2026-03-24T09:52:59.999Z</time></trkpt><trkpt lat="47.71916205226485" lon="-1.8013159225499327"><ele>37.0</ele><time>2026-03-24T09:53:00.999Z</time></trkpt><trkpt lat="47.71922581411548" lon="-1.8013346667735972"><ele>37.0</ele><time>2026-03-24T09:53:01.999Z</time></trkpt><trkpt lat="47.719334431988976" lon="-1.801353987586467"><ele>37.0</ele><time>2026-03-24T09:53:03.999Z</time></trkpt><trkpt lat="47.719409537458745" lon="-1.8016799694928831"><ele>38.75</ele><time>2026-03-24T09:53:05.999Z</time></trkpt><trkpt lat="47.719417403109105" lon="-1.8018397962076986"><ele>40.5</ele><time>2026-03-24T09:53:06.999Z</time></trkpt><trkpt lat="47.71943446312032" lon="-1.8020018716193456"><ele>42.25</ele><time>2026-03-24T09:53:07.999Z</time></trkpt><trkpt lat="47.71945640529204" lon="-1.8021813838113905"><ele>44.0</ele><time>2026-03-24T09:53:08.999Z</time></trkpt><trkpt lat="47.719481098493645" lon="-1.802344387735732"><ele>44.0</ele><time>2026-03-24T09:53:09.999Z</time></trkpt><trkpt lat="47.71950391578675" lon="-1.8025224993498652"><ele>44.0</ele><time>2026-03-24T09:53:10.999Z</time></trkpt><trkpt lat="47.71953976255852" lon="-1.8026879132625424"><ele>44.0</ele><time>2026-03-24T09:53:11.999Z</time></trkpt><trkpt lat="47.719562260438344" lon="-1.802847806393958"><ele>44.0</ele><time>2026-03-24T09:53:12.998Z</time></trkpt><trkpt lat="47.71957036258787" lon="-1.8030191820021295"><ele>43.75</ele><time>2026-03-24T09:53:13.998Z</time></trkpt><trkpt lat="47.719611282922365" lon="-1.8031962109350108"><ele>43.5</ele><time>2026-03-24T09:53:14.998Z</time></trkpt><trkpt lat="47.719638139484864" lon="-1.8033870813882877"><ele>43.25</ele><time>2026-03-24T09:53:15.998Z</time></trkpt><trkpt lat="47.719652507300125" lon="-1.8035957338797226"><ele>43.0</ele><time>2026-03-24T09:53:16.998Z</time></trkpt><trkpt lat="47.71968322779171" lon="-1.803799170806209"><ele>43.0</ele><time>2026-03-24T09:53:17.998Z</time></trkpt><trkpt lat="47.71971082476121" lon="-1.8040192098117418"><ele>43.0</ele><time>2026-03-24T09:53:18.998Z</time></trkpt><trkpt lat="47.71974298884428" lon="-1.8042174714714532"><ele>43.0</ele><time>2026-03-24T09:53:19.998Z</time></trkpt><trkpt lat="47.71977099607903" lon="-1.8044184710715274"><ele>43.0</ele><time>2026-03-24T09:53:20.998Z</time></trkpt><trkpt lat="47.719800176427604" lon="-1.8046263329615464"><ele>43.0</ele><time>2026-03-24T09:53:21.998Z</time></trkpt><trkpt lat="47.71983296586436" lon="-1.8048537483268545"><ele>43.0</ele><time>2026-03-24T09:53:22.998Z</time></trkpt><trkpt lat="47.71986650628138" lon="-1.8050860691575312"><ele>43.0</ele><time>2026-03-24T09:53:23.998Z</time></trkpt><trkpt lat="47.719899850225026" lon="-1.8053223908725544"><ele>43.0</ele><time>2026-03-24T09:53:24.998Z</time></trkpt><trkpt lat="47.71992719894471" lon="-1.8055618658331347"><ele>43.0</ele><time>2026-03-24T09:53:25.998Z</time></trkpt><trkpt lat="47.719962968178244" lon="-1.805801089800614"><ele>43.0</ele><time>2026-03-24T09:53:26.998Z</time></trkpt><trkpt lat="47.71998798901955" lon="-1.8060297062166644"><ele>43.0</ele><time>2026-03-24T09:53:27.998Z</time></trkpt><trkpt lat="47.72002040544784" lon="-1.806228372983705"><ele>43.0</ele><time>2026-03-24T09:53:28.998Z</time></trkpt><trkpt lat="47.720039771967855" lon="-1.8063997094786581"><ele>43.0</ele><time>2026-03-24T09:53:29.998Z</time></trkpt><trkpt lat="47.72006322702942" lon="-1.8065879417793407"><ele>43.0</ele><time>2026-03-24T09:53:30.998Z</time></trkpt><trkpt lat="47.720086684521576" lon="-1.806771221690465"><ele>42.5</ele><time>2026-03-24T09:53:31.998Z</time></trkpt><trkpt lat="47.72011311270047" lon="-1.806967020708274"><ele>42.0</ele><time>2026-03-24T09:53:33Z</time></trkpt><trkpt lat="47.72012904248641" lon="-1.8071807523757428"><ele>41.5</ele><time>2026-03-24T09:53:34Z</time></trkpt><trkpt lat="47.72013683848578" lon="-1.8073811177414196"><ele>41.0</ele><time>2026-03-24T09:53:35Z</time></trkpt><trkpt lat="47.72014793705399" lon="-1.8075893212900642"><ele>41.0</ele><time>2026-03-24T09:53:36Z</time></trkpt><trkpt lat="47.720170962849124" lon="-1.8078176373402655"><ele>41.0</ele><time>2026-03-24T09:53:37Z</time></trkpt><trkpt lat="47.720183957460264" lon="-1.8079696292176997"><ele>41.0</ele><time>2026-03-24T09:53:38Z</time></trkpt><trkpt lat="47.72020052130195" lon="-1.8081147120260308"><ele>41.0</ele><time>2026-03-24T09:53:39Z</time></trkpt><trkpt lat="47.7202200408696" lon="-1.8082672332390703"><ele>40.75</ele><time>2026-03-24T09:53:41Z</time></trkpt><trkpt lat="47.72023974778639" lon="-1.8083816110738005"><ele>40.5</ele><time>2026-03-24T09:53:49Z</time></trkpt><trkpt lat="47.72005393440107" lon="-1.8085391981435817"><ele>40.25</ele><time>2026-03-24T09:53:52Z</time></trkpt><trkpt lat="47.71994028433941" lon="-1.8085695090117075"><ele>40.0</ele><time>2026-03-24T09:53:54Z</time></trkpt><trkpt lat="47.71985939507232" lon="-1.8085799378112306"><ele>40.0</ele><time>2026-03-24T09:53:56Z</time></trkpt><trkpt lat="47.71990502154394" lon="-1.8087929775873817"><ele>40.0</ele><time>2026-03-24T09:54:02Z</time></trkpt><trkpt lat="47.71991840016862" lon="-1.8089450920931638"><ele>40.0</ele><time>2026-03-24T09:54:05Z</time></trkpt><trkpt lat="47.71992880743043" lon="-1.8090905328766334"><ele>40.0</ele><time>2026-03-24T09:54:07Z</time></trkpt><trkpt lat="47.7199379318816" lon="-1.8091857962899325"><ele>40.0</ele><time>2026-03-24T09:54:10Z</time></trkpt><trkpt lat="47.71992701335393" lon="-1.809061141408821"><ele>40.0</ele><time>2026-03-24T09:54:16Z</time></trkpt><trkpt lat="47.720006752906414" lon="-1.8091968275417434"><ele>40.0</ele><time>2026-03-24T09:54:17.999Z</time></trkpt><trkpt lat="47.71985996813239" lon="-1.8086576162641819"><ele>40.0</ele><time>2026-03-24T09:54:18.999Z</time></trkpt><trkpt lat="47.719908533789784" lon="-1.808556290870811"><ele>40.0</ele><time>2026-03-24T09:54:23.999Z</time></trkpt><trkpt lat="47.72002959062764" lon="-1.8085365197965375"><ele>40.0</ele><time>2026-03-24T09:54:25.999Z</time></trkpt><trkpt lat="47.72011555487415" lon="-1.808489996497549"><ele>40.0</ele><time>2026-03-24T09:54:27.999Z</time></trkpt><trkpt lat="47.72014973218306" lon="-1.8083989480902096"><ele>40.0</ele><time>2026-03-24T09:54:30.999Z</time></trkpt><trkpt lat="47.72024183707327" lon="-1.8083783036701853"><ele>40.4</ele><time>2026-03-24T09:54:32.999Z</time></trkpt><trkpt lat="47.720326620832694" lon="-1.8084280190241773"><ele>40.8</ele><time>2026-03-24T09:54:33.999Z</time></trkpt><trkpt lat="47.72038781566208" lon="-1.8085077310625701"><ele>41.2</ele><time>2026-03-24T09:54:34.999Z</time></trkpt><trkpt lat="47.72044869585766" lon="-1.8085530434393045"><ele>41.6</ele><time>2026-03-24T09:54:35.999Z</time></trkpt><trkpt lat="47.720543722116886" lon="-1.808584620508365"><ele>42.0</ele><time>2026-03-24T09:54:36.999Z</time></trkpt><trkpt lat="47.7206586110969" lon="-1.8086318235860384"><ele>42.0</ele><time>2026-03-24T09:54:37.999Z</time></trkpt><trkpt lat="47.72075276855662" lon="-1.8086777021033793"><ele>42.0</ele><time>2026-03-24T09:54:38.999Z</time></trkpt><trkpt lat="47.72082926178477" lon="-1.8087011494096614"><ele>42.0</ele><time>2026-03-24T09:54:39.999Z</time></trkpt><trkpt lat="47.72089882175406" lon="-1.8087207660683073"><ele>42.0</ele><time>2026-03-24T09:54:40.999Z</time></trkpt><trkpt lat="47.72096952170719" lon="-1.8087191829934226"><ele>42.0</ele><time>2026-03-24T09:54:41.999Z</time></trkpt><trkpt lat="47.72106214462522" lon="-1.8087181015357536"><ele>42.0</ele><time>2026-03-24T09:54:43.999Z</time></trkpt><trkpt lat="47.7210961235772" lon="-1.80883538234318"><ele>42.0</ele><time>2026-03-24T09:54:45.999Z</time></trkpt><trkpt lat="47.721063595910955" lon="-1.8089782350965011"><ele>42.0</ele><time>2026-03-24T09:54:46.999Z</time></trkpt><trkpt lat="47.721021272262604" lon="-1.8091249340026068"><ele>42.0</ele><time>2026-03-24T09:54:47.999Z</time></trkpt><trkpt lat="47.72095459258717" lon="-1.8092715094416272"><ele>42.0</ele><time>2026-03-24T09:54:48.999Z</time></trkpt><trkpt lat="47.72087414599632" lon="-1.809374837727075"><ele>42.0</ele><time>2026-03-24T09:54:49.999Z</time></trkpt><trkpt lat="47.7207786322835" lon="-1.8094763546573913"><ele>40.75</ele><time>2026-03-24T09:54:50.999Z</time></trkpt><trkpt lat="47.72064390211792" lon="-1.809563017921259"><ele>39.5</ele><time>2026-03-24T09:54:51.999Z</time></trkpt><trkpt lat="47.720523386141195" lon="-1.809660394199558"><ele>38.25</ele><time>2026-03-24T09:54:52.999Z</time></trkpt><trkpt lat="47.72039405386529" lon="-1.8097385119064757"><ele>37.0</ele><time>2026-03-24T09:54:53.999Z</time></trkpt><trkpt lat="47.72029776851001" lon="-1.809823696490979"><ele>37.0</ele><time>2026-03-24T09:54:54.999Z</time></trkpt><trkpt lat="47.72020184962184" lon="-1.809920486460633"><ele>37.0</ele><time>2026-03-24T09:54:55.999Z</time></trkpt><trkpt lat="47.720123469979754" lon="-1.8100488832539678"><ele>37.0</ele><time>2026-03-24T09:54:56.999Z</time></trkpt><trkpt lat="47.72004408103986" lon="-1.810191992096859"><ele>37.0</ele><time>2026-03-24T09:54:57.999Z</time></trkpt><trkpt lat="47.71999912048077" lon="-1.8103565551097673"><ele>36.0</ele><time>2026-03-24T09:54:58.999Z</time></trkpt><trkpt lat="47.7199455875966" lon="-1.8105520027387068"><ele>35.0</ele><time>2026-03-24T09:54:59.999Z</time></trkpt><trkpt lat="47.71990078723692" lon="-1.810750835337264"><ele>34.0</ele><time>2026-03-24T09:55:00.999Z</time></trkpt><trkpt lat="47.71986162107704" lon="-1.8109420673316683"><ele>33.0</ele><time>2026-03-24T09:55:01.999Z</time></trkpt><trkpt lat="47.71982036752278" lon="-1.8111468376268016"><ele>32.25</ele><time>2026-03-24T09:55:02.999Z</time></trkpt><trkpt lat="47.71977520336959" lon="-1.8113710194815746"><ele>31.5</ele><time>2026-03-24T09:55:03.999Z</time></trkpt><trkpt lat="47.71973366504614" lon="-1.8115743606194767"><ele>30.75</ele><time>2026-03-24T09:55:04.999Z</time></trkpt><trkpt lat="47.719693369341186" lon="-1.8117506343884118"><ele>30.0</ele><time>2026-03-24T09:55:05.999Z</time></trkpt><trkpt lat="47.71965176907408" lon="-1.8119116213752966"><ele>29.4</ele><time>2026-03-24T09:55:06.999Z</time></trkpt><trkpt lat="47.719600217612786" lon="-1.8120721318664028"><ele>28.8</ele><time>2026-03-24T09:55:07.999Z</time></trkpt><trkpt lat="47.71954211421324" lon="-1.812214054090419"><ele>28.200000000000003</ele><time>2026-03-24T09:55:08.999Z</time></trkpt><trkpt lat="47.71947656653386" lon="-1.8123386213302295"><ele>27.6</ele><time>2026-03-24T09:55:09.999Z</time></trkpt><trkpt lat="47.71940236043868" lon="-1.8124279189905848"><ele>27.0</ele><time>2026-03-24T09:55:10.999Z</time></trkpt><trkpt lat="47.719344686431214" lon="-1.8124760937217888"><ele>27.0</ele><time>2026-03-24T09:55:11.999Z</time></trkpt><trkpt lat="47.719446293331075" lon="-1.8126444060910556"><ele>27.000000000000004</ele><time>2026-03-24T09:55:16.999Z</time></trkpt><trkpt lat="47.719515834299024" lon="-1.8126475590811606"><ele>27.000000000000004</ele><time>2026-03-24T09:55:17.999Z</time></trkpt><trkpt lat="47.7195897196673" lon="-1.8126550706982019"><ele>27.0</ele><time>2026-03-24T09:55:18.999Z</time></trkpt><trkpt lat="47.7196836956107" lon="-1.812671764433677"><ele>27.0</ele><time>2026-03-24T09:55:19.999Z</time></trkpt><trkpt lat="47.71977996980123" lon="-1.8126985128998123"><ele>26.714285714285715</ele><time>2026-03-24T09:55:20.999Z</time></trkpt><trkpt lat="47.71985664353146" lon="-1.8127198079312197"><ele>26.428571428571427</ele><time>2026-03-24T09:55:21.999Z</time></trkpt><trkpt lat="47.71993158724812" lon="-1.8127372467504432"><ele>26.142857142857146</ele><time>2026-03-24T09:55:22.998Z</time></trkpt><trkpt lat="47.720002980194806" lon="-1.8127550701894248"><ele>25.857142857142858</ele><time>2026-03-24T09:55:23.998Z</time></trkpt><trkpt lat="47.72007426766203" lon="-1.8127730322490447"><ele>25.571428571428573</ele><time>2026-03-24T09:55:24.998Z</time></trkpt><trkpt lat="47.72014223568386" lon="-1.81279072627565"><ele>25.28571428571429</ele><time>2026-03-24T09:55:25.998Z</time></trkpt><trkpt lat="47.720215380641285" lon="-1.8128098054535708"><ele>25.0</ele><time>2026-03-24T09:55:26.998Z</time></trkpt><trkpt lat="47.72029398708583" lon="-1.81282524423694"><ele>25.0</ele><time>2026-03-24T09:55:27.998Z</time></trkpt><trkpt lat="47.72037938722156" lon="-1.8128455131677605"><ele>25.0</ele><time>2026-03-24T09:55:28.998Z</time></trkpt><trkpt lat="47.72047185335518" lon="-1.8128592099811618"><ele>25.0</ele><time>2026-03-24T09:55:29.998Z</time></trkpt><trkpt lat="47.72057633241482" lon="-1.8128537698740075"><ele>25.0</ele><time>2026-03-24T09:55:30.998Z</time></trkpt><trkpt lat="47.72068676649395" lon="-1.812828655161359"><ele>25.0</ele><time>2026-03-24T09:55:31.998Z</time></trkpt><trkpt lat="47.72080312271947" lon="-1.8128044211963166"><ele>25.0</ele><time>2026-03-24T09:55:32.998Z</time></trkpt><trkpt lat="47.720923085623106" lon="-1.81278325637926"><ele>25.0</ele><time>2026-03-24T09:55:33.998Z</time></trkpt><trkpt lat="47.72101914346112" lon="-1.812769067460994"><ele>25.0</ele><time>2026-03-24T09:55:34.998Z</time></trkpt><trkpt lat="47.72109723053051" lon="-1.8127534562784111"><ele>25.0</ele><time>2026-03-24T09:55:35.998Z</time></trkpt><trkpt lat="47.721208296743995" lon="-1.8127553560259033"><ele>25.0</ele><time>2026-03-24T09:55:37.998Z</time></trkpt><trkpt lat="47.72128693428961" lon="-1.8127767291736328"><ele>25.0</ele><time>2026-03-24T09:55:40Z</time></trkpt><trkpt lat="47.721351521380356" lon="-1.812799423547207"><ele>25.0</ele><time>2026-03-24T09:55:43Z</time></trkpt><trkpt lat="47.721460685671495" lon="-1.8127650908404234"><ele>25.0</ele><time>2026-03-24T09:55:45Z</time></trkpt><trkpt lat="47.72157860836545" lon="-1.8127665218761633"><ele>25.0</ele><time>2026-03-24T09:55:47Z</time></trkpt><trkpt lat="47.72169996554383" lon="-1.8127676782095783"><ele>25.0</ele><time>2026-03-24T09:55:49Z</time></trkpt><trkpt lat="47.721770474982925" lon="-1.8127658219062261"><ele>25.000000000000004</ele><time>2026-03-24T09:55:50Z</time></trkpt><trkpt lat="47.72184505836545" lon="-1.8127680105178827"><ele>25.0</ele><time>2026-03-24T09:55:51Z</time></trkpt><trkpt lat="47.72191794581358" lon="-1.81277535388285"><ele>25.0</ele><time>2026-03-24T09:55:52Z</time></trkpt><trkpt lat="47.72200575590217" lon="-1.8127847982859726"><ele>25.0</ele><time>2026-03-24T09:55:53Z</time></trkpt><trkpt lat="47.722085670518226" lon="-1.8127876442761452"><ele>25.000000000000004</ele><time>2026-03-24T09:55:54Z</time></trkpt><trkpt lat="47.722164095743" lon="-1.812789186333781"><ele>25.0</ele><time>2026-03-24T09:55:55Z</time></trkpt><trkpt lat="47.72223989457831" lon="-1.8127890752125253"><ele>25.333333333333336</ele><time>2026-03-24T09:55:56Z</time></trkpt><trkpt lat="47.722322151753254" lon="-1.812792871533337"><ele>25.666666666666668</ele><time>2026-03-24T09:55:57Z</time></trkpt><trkpt lat="47.72239865596016" lon="-1.8127935199435259"><ele>26.0</ele><time>2026-03-24T09:55:58Z</time></trkpt><trkpt lat="47.72248624083028" lon="-1.812796844913706"><ele>26.333333333333336</ele><time>2026-03-24T09:55:59Z</time></trkpt><trkpt lat="47.72259286638173" lon="-1.812802674303889"><ele>26.666666666666668</ele><time>2026-03-24T09:56:00Z</time></trkpt><trkpt lat="47.72268852415347" lon="-1.8128032934606622"><ele>27.0</ele><time>2026-03-24T09:56:01Z</time></trkpt><trkpt lat="47.722798223068956" lon="-1.812801166150818"><ele>28.0</ele><time>2026-03-24T09:56:02Z</time></trkpt><trkpt lat="47.72291174229034" lon="-1.812804296675311"><ele>29.0</ele><time>2026-03-24T09:56:03Z</time></trkpt><trkpt lat="47.723031863345305" lon="-1.8128129826424264"><ele>30.0</ele><time>2026-03-24T09:56:04Z</time></trkpt><trkpt lat="47.72315687241074" lon="-1.8128280536084784"><ele>31.0</ele><time>2026-03-24T09:56:05Z</time></trkpt><trkpt lat="47.72326561410964" lon="-1.8128418330749108"><ele>31.0</ele><time>2026-03-24T09:56:06Z</time></trkpt><trkpt lat="47.72337967947943" lon="-1.8128522321061344"><ele>31.0</ele><time>2026-03-24T09:56:07Z</time></trkpt><trkpt lat="47.723490941915394" lon="-1.8128579257283441"><ele>31.0</ele><time>2026-03-24T09:56:08Z</time></trkpt><trkpt lat="47.723600596633965" lon="-1.8128610485146468"><ele>31.0</ele><time>2026-03-24T09:56:09Z</time></trkpt><trkpt lat="47.72371000386721" lon="-1.812863905948174"><ele>31.0</ele><time>2026-03-24T09:56:10Z</time></trkpt><trkpt lat="47.72380453568677" lon="-1.8128713230331917"><ele>31.833333333333336</ele><time>2026-03-24T09:56:11Z</time></trkpt><trkpt lat="47.723881789631676" lon="-1.812869668278874"><ele>32.66666666666667</ele><time>2026-03-24T09:56:12Z</time></trkpt><trkpt lat="47.723946009834755" lon="-1.812864731758447"><ele>33.5</ele><time>2026-03-24T09:56:13Z</time></trkpt><trkpt lat="47.72399669766672" lon="-1.8129230532495555"><ele>34.333333333333336</ele><time>2026-03-24T09:56:15Z</time></trkpt><trkpt lat="47.724008109582115" lon="-1.8130677223455012"><ele>35.166666666666664</ele><time>2026-03-24T09:56:17Z</time></trkpt><trkpt lat="47.72400836980285" lon="-1.8131874899661216"><ele>36.0</ele><time>2026-03-24T09:56:18Z</time></trkpt><trkpt lat="47.72400645172622" lon="-1.8133048987149514"><ele>36.0</ele><time>2026-03-24T09:56:18.999Z</time></trkpt><trkpt lat="47.72400828977628" lon="-1.8134531543083752"><ele>36.0</ele><time>2026-03-24T09:56:19.999Z</time></trkpt><trkpt lat="47.72401015266965" lon="-1.813619672360185"><ele>36.0</ele><time>2026-03-24T09:56:20.999Z</time></trkpt><trkpt lat="47.72402015587634" lon="-1.8137975677713274"><ele>36.0</ele><time>2026-03-24T09:56:21.999Z</time></trkpt><trkpt lat="47.72402180429255" lon="-1.8139641179018124"><ele>36.0</ele><time>2026-03-24T09:56:22.999Z</time></trkpt><trkpt lat="47.72402512169086" lon="-1.8141341258983041"><ele>35.25</ele><time>2026-03-24T09:56:23.999Z</time></trkpt><trkpt lat="47.724028494291204" lon="-1.8143175755198557"><ele>34.5</ele><time>2026-03-24T09:56:24.999Z</time></trkpt><trkpt lat="47.7240334769165" lon="-1.814510316907462"><ele>33.75</ele><time>2026-03-24T09:56:25.999Z</time></trkpt><trkpt lat="47.7240358820749" lon="-1.8146958788512002"><ele>33.0</ele><time>2026-03-24T09:56:26.999Z</time></trkpt><trkpt lat="47.724019697936946" lon="-1.8148720086725585"><ele>32.75</ele><time>2026-03-24T09:56:27.999Z</time></trkpt><trkpt lat="47.72397481821484" lon="-1.815056237930102"><ele>32.5</ele><time>2026-03-24T09:56:28.999Z</time></trkpt><trkpt lat="47.72391893609731" lon="-1.815261837991856"><ele>32.25</ele><time>2026-03-24T09:56:29.999Z</time></trkpt><trkpt lat="47.72386739176674" lon="-1.8154745294756227"><ele>32.0</ele><time>2026-03-24T09:56:30.999Z</time></trkpt><trkpt lat="47.72381963047705" lon="-1.8156930340957684"><ele>32.0</ele><time>2026-03-24T09:56:31.999Z</time></trkpt><trkpt lat="47.72376905235712" lon="-1.815898231954194"><ele>32.0</ele><time>2026-03-24T09:56:32.999Z</time></trkpt><trkpt lat="47.72372965593798" lon="-1.816083167630809"><ele>32.0</ele><time>2026-03-24T09:56:33.999Z</time></trkpt><trkpt lat="47.72368911310554" lon="-1.8162553732371303"><ele>32.0</ele><time>2026-03-24T09:56:34.999Z</time></trkpt><trkpt lat="47.72366069820073" lon="-1.8163941784386692"><ele>32.0</ele><time>2026-03-24T09:56:35.999Z</time></trkpt><trkpt lat="47.72363148883417" lon="-1.8165157959199976"><ele>32.0</ele><time>2026-03-24T09:56:36.999Z</time></trkpt><trkpt lat="47.72361572660975" lon="-1.816619793274873"><ele>32.0</ele><time>2026-03-24T09:56:37.999Z</time></trkpt><trkpt lat="47.723563410551606" lon="-1.8167723979163533"><ele>32.0</ele><time>2026-03-24T09:56:39.999Z</time></trkpt><trkpt lat="47.723474810077235" lon="-1.8168491532647586"><ele>32.0</ele><time>2026-03-24T09:56:41.999Z</time></trkpt><trkpt lat="47.72340163908749" lon="-1.8168670211240707"><ele>30.75</ele><time>2026-03-24T09:56:42.999Z</time></trkpt><trkpt lat="47.72330465098462" lon="-1.8168703278143323"><ele>29.5</ele><time>2026-03-24T09:56:43.999Z</time></trkpt><trkpt lat="47.72320505741542" lon="-1.8168696700607534"><ele>28.25</ele><time>2026-03-24T09:56:44.999Z</time></trkpt><trkpt lat="47.7230812325302" lon="-1.8169123540485976"><ele>27.0</ele><time>2026-03-24T09:56:45.999Z</time></trkpt><trkpt lat="47.72295310814611" lon="-1.8169999165466058"><ele>27.0</ele><time>2026-03-24T09:56:46.999Z</time></trkpt><trkpt lat="47.722840381681486" lon="-1.8170781815004182"><ele>27.000000000000004</ele><time>2026-03-24T09:56:47.999Z</time></trkpt><trkpt lat="47.72273920695291" lon="-1.8171480554141264"><ele>27.000000000000004</ele><time>2026-03-24T09:56:48.999Z</time></trkpt><trkpt lat="47.72264988245994" lon="-1.8172378564685716"><ele>27.0</ele><time>2026-03-24T09:56:49.999Z</time></trkpt><trkpt lat="47.722589862814374" lon="-1.8173430772346042"><ele>27.0</ele><time>2026-03-24T09:56:50.999Z</time></trkpt><trkpt lat="47.722524737731035" lon="-1.8174759073478766"><ele>26.0</ele><time>2026-03-24T09:56:52.999Z</time></trkpt><trkpt lat="47.72247170519758" lon="-1.8175500948150376"><ele>25.000000000000004</ele><time>2026-03-24T09:56:53.999Z</time></trkpt><trkpt lat="47.72237229264958" lon="-1.817621707036317"><ele>24.0</ele><time>2026-03-24T09:56:55.999Z</time></trkpt><trkpt lat="47.72229805488096" lon="-1.8176288911528096"><ele>23.0</ele><time>2026-03-24T09:56:56.999Z</time></trkpt><trkpt lat="47.72220547614762" lon="-1.8176350846824096"><ele>22.0</ele><time>2026-03-24T09:56:57.999Z</time></trkpt><trkpt lat="47.72210323022855" lon="-1.8176578233416452"><ele>21.200000000000003</ele><time>2026-03-24T09:56:58.999Z</time></trkpt><trkpt lat="47.72200408482827" lon="-1.8176680558730316"><ele>20.400000000000002</ele><time>2026-03-24T09:56:59.999Z</time></trkpt><trkpt lat="47.72189817504187" lon="-1.8176720109147673"><ele>19.6</ele><time>2026-03-24T09:57:00.999Z</time></trkpt><trkpt lat="47.72178636030341" lon="-1.8176690099626365"><ele>18.8</ele><time>2026-03-24T09:57:01.999Z</time></trkpt><trkpt lat="47.72166417880467" lon="-1.8176751425985738"><ele>18.0</ele><time>2026-03-24T09:57:02.999Z</time></trkpt><trkpt lat="47.7215141511511" lon="-1.8176885987071156"><ele>17.5</ele><time>2026-03-24T09:57:03.999Z</time></trkpt><trkpt lat="47.721391102752335" lon="-1.8177033008430146"><ele>17.0</ele><time>2026-03-24T09:57:04.999Z</time></trkpt><trkpt lat="47.72126272961383" lon="-1.8177175769352505"><ele>16.5</ele><time>2026-03-24T09:57:05.999Z</time></trkpt><trkpt lat="47.72114570814678" lon="-1.8177066123376384"><ele>16.0</ele><time>2026-03-24T09:57:06.999Z</time></trkpt><trkpt lat="47.721021816457906" lon="-1.8177166998471477"><ele>16.0</ele><time>2026-03-24T09:57:07.999Z</time></trkpt><trkpt lat="47.72087996514113" lon="-1.817729174406493"><ele>16.0</ele><time>2026-03-24T09:57:08.999Z</time></trkpt><trkpt lat="47.72073481293944" lon="-1.8177639938011054"><ele>16.0</ele><time>2026-03-24T09:57:09.999Z</time></trkpt><trkpt lat="47.7205919294607" lon="-1.8177736892208112"><ele>16.0</ele><time>2026-03-24T09:57:10.999Z</time></trkpt><trkpt lat="47.720448656482354" lon="-1.8177884125946344"><ele>16.0</ele><time>2026-03-24T09:57:11.999Z</time></trkpt><trkpt lat="47.72026113196286" lon="-1.8178286440995226"><ele>16.0</ele><time>2026-03-24T09:57:12.999Z</time></trkpt><trkpt lat="47.72012124402474" lon="-1.8178166795124497"><ele>16.0</ele><time>2026-03-24T09:57:13.999Z</time></trkpt><trkpt lat="47.719979830730125" lon="-1.8178245692829276"><ele>15.8</ele><time>2026-03-24T09:57:14.999Z</time></trkpt><trkpt lat="47.719848480360604" lon="-1.8178452279704733"><ele>15.600000000000001</ele><time>2026-03-24T09:57:15.999Z</time></trkpt><trkpt lat="47.71974673818193" lon="-1.8178267904671548"><ele>15.4</ele><time>2026-03-24T09:57:16.999Z</time></trkpt><trkpt lat="47.71964097677504" lon="-1.8178388194237642"><ele>15.2</ele><time>2026-03-24T09:57:17.999Z</time></trkpt><trkpt lat="47.71953485959448" lon="-1.8178677144492241"><ele>15.0</ele><time>2026-03-24T09:57:18.999Z</time></trkpt><trkpt lat="47.71944494983502" lon="-1.8179110346073166"><ele>14.75</ele><time>2026-03-24T09:57:19.999Z</time></trkpt><trkpt lat="47.71934013293209" lon="-1.818007187906524"><ele>14.5</ele><time>2026-03-24T09:57:20.999Z</time></trkpt><trkpt lat="47.71921588665995" lon="-1.8180843108181068"><ele>14.25</ele><time>2026-03-24T09:57:21.999Z</time></trkpt><trkpt lat="47.719068300662954" lon="-1.8181891692155816"><ele>14.0</ele><time>2026-03-24T09:57:22.998Z</time></trkpt><trkpt lat="47.71894804912201" lon="-1.8182775973823673"><ele>14.0</ele><time>2026-03-24T09:57:23.998Z</time></trkpt><trkpt lat="47.71882922651963" lon="-1.8183641107111417"><ele>14.0</ele><time>2026-03-24T09:57:24.998Z</time></trkpt><trkpt lat="47.71872105965729" lon="-1.8184346655436652"><ele>14.0</ele><time>2026-03-24T09:57:25.998Z</time></trkpt><trkpt lat="47.718624541261505" lon="-1.8185039665223643"><ele>14.0</ele><time>2026-03-24T09:57:26.998Z</time></trkpt><trkpt lat="47.71853626865292" lon="-1.8185611614169594"><ele>13.799999999999999</ele><time>2026-03-24T09:57:27.998Z</time></trkpt><trkpt lat="47.71845538409195" lon="-1.818623489002444"><ele>13.599999999999998</ele><time>2026-03-24T09:57:28.998Z</time></trkpt><trkpt lat="47.71838148133342" lon="-1.818669468360468"><ele>13.4</ele><time>2026-03-24T09:57:29.998Z</time></trkpt><trkpt lat="47.7182628092614" lon="-1.8187100006205432"><ele>13.2</ele><time>2026-03-24T09:57:31.998Z</time></trkpt><trkpt lat="47.71817661479758" lon="-1.8186752863329658"><ele>13.0</ele><time>2026-03-24T09:57:33.998Z</time></trkpt><trkpt lat="47.71811205177613" lon="-1.8187050170822558"><ele>13.0</ele><time>2026-03-24T09:57:41.998Z</time></trkpt><trkpt lat="47.71803612017297" lon="-1.8188048866098727"><ele>13.0</ele><time>2026-03-24T09:59:14.999Z</time></trkpt><trkpt lat="47.71805214178761" lon="-1.8189292276292428"><ele>13.0</ele><time>2026-03-24T09:59:15.999Z</time></trkpt><trkpt lat="47.718043736701894" lon="-1.8190920106489812"><ele>13.0</ele><time>2026-03-24T09:59:17.999Z</time></trkpt><trkpt lat="47.71804142827358" lon="-1.8191980587123933"><ele>13.0</ele><time>2026-03-24T09:59:18.999Z</time></trkpt><trkpt lat="47.71803703102723" lon="-1.8193445154156058"><ele>12.8</ele><time>2026-03-24T09:59:19.999Z</time></trkpt><trkpt lat="47.71803425500253" lon="-1.8195113803080434"><ele>12.600000000000001</ele><time>2026-03-24T09:59:20.999Z</time></trkpt><trkpt lat="47.718022798893074" lon="-1.8196616189837689"><ele>12.399999999999999</ele><time>2026-03-24T09:59:21.999Z</time></trkpt><trkpt lat="47.71803717397349" lon="-1.8197999366647337"><ele>12.2</ele><time>2026-03-24T09:59:22.999Z</time></trkpt><trkpt lat="47.71802632846617" lon="-1.8199900947106213"><ele>12.0</ele><time>2026-03-24T09:59:23.999Z</time></trkpt><trkpt lat="47.718011659481306" lon="-1.820190821651295"><ele>11.75</ele><time>2026-03-24T09:59:24.999Z</time></trkpt><trkpt lat="47.71798047936806" lon="-1.8204022408074618"><ele>11.5</ele><time>2026-03-24T09:59:25.999Z</time></trkpt><trkpt lat="47.71795861730731" lon="-1.8206332327963344"><ele>11.25</ele><time>2026-03-24T09:59:26.999Z</time></trkpt><trkpt lat="47.717939867250685" lon="-1.8208175635711608"><ele>11.0</ele><time>2026-03-24T09:59:27.999Z</time></trkpt><trkpt lat="47.717928828827546" lon="-1.8209472420926158"><ele>10.8</ele><time>2026-03-24T09:59:28.999Z</time></trkpt><trkpt lat="47.71791441872698" lon="-1.8210811747352855"><ele>10.600000000000001</ele><time>2026-03-24T09:59:29.999Z</time></trkpt><trkpt lat="47.71789532306956" lon="-1.8211944499558028"><ele>10.4</ele><time>2026-03-24T09:59:31.999Z</time></trkpt><trkpt lat="47.717875539552516" lon="-1.8212925989749091"><ele>10.2</ele><time>2026-03-24T09:59:33.999Z</time></trkpt><trkpt lat="47.7176910798522" lon="-1.8212877006775807"><ele>10.0</ele><time>2026-03-24T09:59:35.998Z</time></trkpt><trkpt lat="47.717631920735265" lon="-1.8212309330995202"><ele>10.0</ele><time>2026-03-24T09:59:36.998Z</time></trkpt><trkpt lat="47.71755690020004" lon="-1.821170800575517"><ele>10.0</ele><time>2026-03-24T09:59:37.998Z</time></trkpt><trkpt lat="47.71747532536855" lon="-1.8211159700866832"><ele>10.0</ele><time>2026-03-24T09:59:38.998Z</time></trkpt><trkpt lat="47.71737332195441" lon="-1.8210504399889837"><ele>10.0</ele><time>2026-03-24T09:59:39.998Z</time></trkpt><trkpt lat="47.717268530209545" lon="-1.8209831182872964"><ele>10.0</ele><time>2026-03-24T09:59:40.998Z</time></trkpt><trkpt lat="47.717172445406156" lon="-1.8209054040053294"><ele>10.25</ele><time>2026-03-24T09:59:41.998Z</time></trkpt><trkpt lat="47.71705915438184" lon="-1.8208288402355763"><ele>10.5</ele><time>2026-03-24T09:59:42.998Z</time></trkpt><trkpt lat="47.716935898452384" lon="-1.820748619530396"><ele>10.75</ele><time>2026-03-24T09:59:43.998Z</time></trkpt><trkpt lat="47.716804137219434" lon="-1.8206518098337974"><ele>11.0</ele><time>2026-03-24T09:59:44.998Z</time></trkpt><trkpt lat="47.71665697594247" lon="-1.8205569437505622"><ele>11.0</ele><time>2026-03-24T09:59:45.998Z</time></trkpt><trkpt lat="47.716527929048254" lon="-1.8204670684662496"><ele>11.0</ele><time>2026-03-24T09:59:46.998Z</time></trkpt><trkpt lat="47.716414589634546" lon="-1.8203887923030584"><ele>11.0</ele><time>2026-03-24T09:59:47.998Z</time></trkpt><trkpt lat="47.71627307913185" lon="-1.82028917915584"><ele>11.0</ele><time>2026-03-24T09:59:48.998Z</time></trkpt><trkpt lat="47.71611352450623" lon="-1.8201930686806114"><ele>10.666666666666666</ele><time>2026-03-24T09:59:49.998Z</time></trkpt><trkpt lat="47.71595407557806" lon="-1.8200879173751912"><ele>10.333333333333334</ele><time>2026-03-24T09:59:51Z</time></trkpt><trkpt lat="47.715796894279556" lon="-1.8200090229838353"><ele>10.0</ele><time>2026-03-24T09:59:52Z</time></trkpt><trkpt lat="47.715668860426916" lon="-1.819913227618545"><ele>10.0</ele><time>2026-03-24T09:59:53Z</time></trkpt><trkpt lat="47.71555060855537" lon="-1.8198384921727027"><ele>10.0</ele><time>2026-03-24T09:59:54Z</time></trkpt><trkpt lat="47.715423472748455" lon="-1.8197438397873602"><ele>10.0</ele><time>2026-03-24T09:59:55Z</time></trkpt><trkpt lat="47.715293946013574" lon="-1.8196573007320245"><ele>10.0</ele><time>2026-03-24T09:59:56Z</time></trkpt><trkpt lat="47.71515418514104" lon="-1.8195521308549758"><ele>10.0</ele><time>2026-03-24T09:59:57Z</time></trkpt><trkpt lat="47.7150172957853" lon="-1.8194367771578028"><ele>10.0</ele><time>2026-03-24T09:59:58Z</time></trkpt><trkpt lat="47.71488055623215" lon="-1.8193157594716767"><ele>10.0</ele><time>2026-03-24T09:59:59Z</time></trkpt><trkpt lat="47.7147479184526" lon="-1.8191679740305515"><ele>10.0</ele><time>2026-03-24T10:00:00Z</time></trkpt><trkpt lat="47.714601137943646" lon="-1.8190134418541521"><ele>10.0</ele><time>2026-03-24T10:00:01Z</time></trkpt><trkpt lat="47.714468110723125" lon="-1.8188652614959446"><ele>10.0</ele><time>2026-03-24T10:00:02Z</time></trkpt><trkpt lat="47.71432981457638" lon="-1.8186976952543144"><ele>10.333333333333334</ele><time>2026-03-24T10:00:03Z</time></trkpt><trkpt lat="47.71418527237157" lon="-1.818534271421236"><ele>10.666666666666666</ele><time>2026-03-24T10:00:04Z</time></trkpt><trkpt lat="47.71403644096163" lon="-1.8183767143793477"><ele>11.0</ele><time>2026-03-24T10:00:05Z</time></trkpt><trkpt lat="47.71389735408518" lon="-1.81823968412345"><ele>11.0</ele><time>2026-03-24T10:00:06Z</time></trkpt><trkpt lat="47.71377392934357" lon="-1.8180939353275996"><ele>11.0</ele><time>2026-03-24T10:00:07Z</time></trkpt><trkpt lat="47.71365598578526" lon="-1.817984519861913"><ele>11.0</ele><time>2026-03-24T10:00:08Z</time></trkpt><trkpt lat="47.71354521630018" lon="-1.8178991096576707"><ele>11.0</ele><time>2026-03-24T10:00:09Z</time></trkpt><trkpt lat="47.7134380156812" lon="-1.8178179389607245"><ele>10.8</ele><time>2026-03-24T10:00:10Z</time></trkpt><trkpt lat="47.713341073590094" lon="-1.817752502260301"><ele>10.600000000000001</ele><time>2026-03-24T10:00:11Z</time></trkpt><trkpt lat="47.71325681010334" lon="-1.817701280717111"><ele>10.4</ele><time>2026-03-24T10:00:12Z</time></trkpt><trkpt lat="47.71317218377973" lon="-1.8176582510223156"><ele>10.2</ele><time>2026-03-24T10:00:13Z</time></trkpt><trkpt lat="47.71308433593371" lon="-1.8176137994257306"><ele>10.0</ele><time>2026-03-24T10:00:14Z</time></trkpt><trkpt lat="47.713004958750716" lon="-1.8175747603305308"><ele>10.0</ele><time>2026-03-24T10:00:15Z</time></trkpt><trkpt lat="47.712918195858414" lon="-1.8175197531250171"><ele>10.0</ele><time>2026-03-24T10:00:16Z</time></trkpt><trkpt lat="47.712815331547304" lon="-1.8174675698792029"><ele>10.0</ele><time>2026-03-24T10:00:17Z</time></trkpt><trkpt lat="47.71272357783479" lon="-1.8174307845922661"><ele>10.0</ele><time>2026-03-24T10:00:18Z</time></trkpt><trkpt lat="47.712650111299396" lon="-1.8174009346762818"><ele>10.0</ele><time>2026-03-24T10:00:19Z</time></trkpt><trkpt lat="47.712545043392836" lon="-1.8173799507922799"><ele>9.666666666666668</ele><time>2026-03-24T10:00:21Z</time></trkpt><trkpt lat="47.71245374946321" lon="-1.8176746382760478"><ele>9.333333333333334</ele><time>2026-03-24T10:00:23Z</time></trkpt><trkpt lat="47.71238614827538" lon="-1.8178239223373323"><ele>9.0</ele><time>2026-03-24T10:00:24Z</time></trkpt><trkpt lat="47.712303035529224" lon="-1.8179729044010986"><ele>9.0</ele><time>2026-03-24T10:00:25Z</time></trkpt><trkpt lat="47.712219386320946" lon="-1.8181418186905827"><ele>9.0</ele><time>2026-03-24T10:00:26Z</time></trkpt><trkpt lat="47.71215009130003" lon="-1.8183108125547471"><ele>9.0</ele><time>2026-03-24T10:00:27Z</time></trkpt><trkpt lat="47.712074230630705" lon="-1.8184679110896982"><ele>9.0</ele><time>2026-03-24T10:00:28Z</time></trkpt><trkpt lat="47.711999871254484" lon="-1.8186100241512533"><ele>8.6</ele><time>2026-03-24T10:00:29Z</time></trkpt><trkpt lat="47.71193608434068" lon="-1.8187378075098704"><ele>8.2</ele><time>2026-03-24T10:00:30Z</time></trkpt><trkpt lat="47.711877889679805" lon="-1.8188498434153688"><ele>7.799999999999999</ele><time>2026-03-24T10:00:31Z</time></trkpt><trkpt lat="47.71183520254434" lon="-1.8189659109851968"><ele>7.3999999999999995</ele><time>2026-03-24T10:00:32Z</time></trkpt><trkpt lat="47.711787270709436" lon="-1.8190662749294826"><ele>7.0</ele><time>2026-03-24T10:00:33Z</time></trkpt><trkpt lat="47.711744959938926" lon="-1.8191630811217168"><ele>7.000000000000001</ele><time>2026-03-24T10:00:34Z</time></trkpt><trkpt lat="47.71171085685948" lon="-1.8192475230749148"><ele>7.0</ele><time>2026-03-24T10:00:35Z</time></trkpt><trkpt lat="47.71170788646339" lon="-1.8193520035965265"><ele>7.0</ele><time>2026-03-24T10:00:37Z</time></trkpt><trkpt lat="47.711737250964966" lon="-1.8194506028458632"><ele>7.0</ele><time>2026-03-24T10:00:44.999Z</time></trkpt><trkpt lat="47.71171708919558" lon="-1.8192991647348344"><ele>7.000000000000001</ele><time>2026-03-24T10:00:49.999Z</time></trkpt><trkpt lat="47.7117281846072" lon="-1.8191548167326788"><ele>7.0</ele><time>2026-03-24T10:00:51.999Z</time></trkpt><trkpt lat="47.711788910890476" lon="-1.8190021816169706"><ele>7.0</ele><time>2026-03-24T10:00:53.999Z</time></trkpt><trkpt lat="47.71184825059595" lon="-1.8189274401532352"><ele>6.999999999999999</ele><time>2026-03-24T10:00:54.999Z</time></trkpt><trkpt lat="47.71189088363945" lon="-1.818830668254895"><ele>6.999999999999999</ele><time>2026-03-24T10:00:55.999Z</time></trkpt><trkpt lat="47.71197553018451" lon="-1.818646216908061"><ele>7.0</ele><time>2026-03-24T10:00:56.999Z</time></trkpt><trkpt lat="47.71205687909422" lon="-1.818487451431674"><ele>7.0</ele><time>2026-03-24T10:00:57.999Z</time></trkpt><trkpt lat="47.71214853817436" lon="-1.8183469215063952"><ele>7.5</ele><time>2026-03-24T10:00:58.999Z</time></trkpt><trkpt lat="47.71223502105779" lon="-1.818176743658313"><ele>8.0</ele><time>2026-03-24T10:00:59.999Z</time></trkpt><trkpt lat="47.7122945177338" lon="-1.8180132111248923"><ele>8.5</ele><time>2026-03-24T10:01:00.999Z</time></trkpt><trkpt lat="47.71236106563005" lon="-1.8178873764909291"><ele>9.0</ele><time>2026-03-24T10:01:01.999Z</time></trkpt><trkpt lat="47.71241050241615" lon="-1.817788602140428"><ele>9.0</ele><time>2026-03-24T10:01:02.999Z</time></trkpt><trkpt lat="47.71245714104361" lon="-1.8176797454544202"><ele>9.0</ele><time>2026-03-24T10:01:03.999Z</time></trkpt><trkpt lat="47.71249012215614" lon="-1.8175984896509192"><ele>9.0</ele><time>2026-03-24T10:01:04.999Z</time></trkpt><trkpt lat="47.71252597897231" lon="-1.8175207498193395"><ele>9.0</ele><time>2026-03-24T10:01:05.999Z</time></trkpt><trkpt lat="47.712584394702326" lon="-1.8174109678603014"><ele>9.0</ele><time>2026-03-24T10:01:07.999Z</time></trkpt><trkpt lat="47.71263698582687" lon="-1.817307320223477"><ele>9.0</ele><time>2026-03-24T10:01:10.999Z</time></trkpt><trkpt lat="47.712860824249624" lon="-1.8174880373807958"><ele>9.0</ele><time>2026-03-24T10:01:11.999Z</time></trkpt><trkpt lat="47.71295867692711" lon="-1.817542974050015"><ele>9.0</ele><time>2026-03-24T10:01:12.999Z</time></trkpt><trkpt lat="47.71306513467413" lon="-1.8175881828951337"><ele>9.0</ele><time>2026-03-24T10:01:13.999Z</time></trkpt><trkpt lat="47.713173546474565" lon="-1.8176378146938943"><ele>9.0</ele><time>2026-03-24T10:01:14.999Z</time></trkpt><trkpt lat="47.71329041492644" lon="-1.8176828287582716"><ele>9.0</ele><time>2026-03-24T10:01:15.999Z</time></trkpt><trkpt lat="47.71341649247854" lon="-1.817753618412558"><ele>9.0</ele><time>2026-03-24T10:01:16.999Z</time></trkpt><trkpt lat="47.71354408146423" lon="-1.8178593097877462"><ele>9.0</ele><time>2026-03-24T10:01:17.999Z</time></trkpt><trkpt lat="47.71367898776041" lon="-1.8179770413145249"><ele>9.0</ele><time>2026-03-24T10:01:18.999Z</time></trkpt><trkpt lat="47.71379178100518" lon="-1.8180896678791783"><ele>9.0</ele><time>2026-03-24T10:01:19.999Z</time></trkpt><trkpt lat="47.713915878524425" lon="-1.8182314012169352"><ele>9.666666666666666</ele><time>2026-03-24T10:01:20.999Z</time></trkpt><trkpt lat="47.71406649414608" lon="-1.8183684495483348"><ele>10.333333333333332</ele><time>2026-03-24T10:01:21.999Z</time></trkpt><trkpt lat="47.71420584279186" lon="-1.818522585205871"><ele>11.0</ele><time>2026-03-24T10:01:22.999Z</time></trkpt><trkpt lat="47.714352272150585" lon="-1.8186846926363296"><ele>10.666666666666666</ele><time>2026-03-24T10:01:23.999Z</time></trkpt><trkpt lat="47.714478425653596" lon="-1.8188252229853012"><ele>10.333333333333334</ele><time>2026-03-24T10:01:24.999Z</time></trkpt><trkpt lat="47.71460941327586" lon="-1.8189711385977647"><ele>10.0</ele><time>2026-03-24T10:01:25.999Z</time></trkpt><trkpt lat="47.71472935597185" lon="-1.8191041844628686"><ele>10.0</ele><time>2026-03-24T10:01:26.999Z</time></trkpt><trkpt lat="47.71485204950537" lon="-1.8192324550061976"><ele>10.0</ele><time>2026-03-24T10:01:27.999Z</time></trkpt><trkpt lat="47.71498372667873" lon="-1.8193571974705378"><ele>10.0</ele><time>2026-03-24T10:01:28.999Z</time></trkpt><trkpt lat="47.71512682659002" lon="-1.8194828155592035"><ele>10.0</ele><time>2026-03-24T10:01:29.999Z</time></trkpt><trkpt lat="47.71527682007715" lon="-1.819592297401418"><ele>10.0</ele><time>2026-03-24T10:01:30.999Z</time></trkpt><trkpt lat="47.715439038450484" lon="-1.819700206612969"><ele>10.0</ele><time>2026-03-24T10:01:31.999Z</time></trkpt><trkpt lat="47.71560297311723" lon="-1.8198145542038975"><ele>10.0</ele><time>2026-03-24T10:01:32.999Z</time></trkpt><trkpt lat="47.71577650127618" lon="-1.8199393205903938"><ele>10.0</ele><time>2026-03-24T10:01:33.999Z</time></trkpt><trkpt lat="47.715952964335884" lon="-1.8200792545670739"><ele>10.0</ele><time>2026-03-24T10:01:34.999Z</time></trkpt><trkpt lat="47.716137936012316" lon="-1.8201731748423282"><ele>10.333333333333334</ele><time>2026-03-24T10:01:35.999Z</time></trkpt><trkpt lat="47.71630190224447" lon="-1.82027706938941"><ele>10.666666666666666</ele><time>2026-03-24T10:01:36.999Z</time></trkpt><trkpt lat="47.71644461481605" lon="-1.8203718278509202"><ele>11.0</ele><time>2026-03-24T10:01:37.999Z</time></trkpt><trkpt lat="47.71658622009649" lon="-1.820488924929777"><ele>11.0</ele><time>2026-03-24T10:01:38.999Z</time></trkpt><trkpt lat="47.716706785744094" lon="-1.8205465796043625"><ele>11.0</ele><time>2026-03-24T10:01:39.999Z</time></trkpt><trkpt lat="47.71682539826179" lon="-1.8206491911546923"><ele>11.0</ele><time>2026-03-24T10:01:40.999Z</time></trkpt><trkpt lat="47.716946581545244" lon="-1.8206900336370293"><ele>11.0</ele><time>2026-03-24T10:01:41.999Z</time></trkpt><trkpt lat="47.71703933586385" lon="-1.8207507933514575"><ele>11.0</ele><time>2026-03-24T10:01:42.999Z</time></trkpt><trkpt lat="47.71711768984405" lon="-1.820815902069777"><ele>11.0</ele><time>2026-03-24T10:01:43.999Z</time></trkpt><trkpt lat="47.71718708688704" lon="-1.8208759064788236"><ele>11.0</ele><time>2026-03-24T10:01:44.998Z</time></trkpt><trkpt lat="47.717249431435654" lon="-1.8209153379934888"><ele>11.0</ele><time>2026-03-24T10:01:45.998Z</time></trkpt><trkpt lat="47.71730651284808" lon="-1.8211857412355128"><ele>11.0</ele><time>2026-03-24T10:01:47.998Z</time></trkpt><trkpt lat="47.717294032047285" lon="-1.8213439494912236"><ele>10.75</ele><time>2026-03-24T10:01:48.998Z</time></trkpt><trkpt lat="47.717288279555106" lon="-1.8215330936820493"><ele>10.5</ele><time>2026-03-24T10:01:49.998Z</time></trkpt><trkpt lat="47.71728233013574" lon="-1.8217389678591323"><ele>10.25</ele><time>2026-03-24T10:01:50.998Z</time></trkpt><trkpt lat="47.71729563670446" lon="-1.8219524025349432"><ele>10.0</ele><time>2026-03-24T10:01:51.998Z</time></trkpt><trkpt lat="47.71728796219012" lon="-1.8221440861673324"><ele>9.75</ele><time>2026-03-24T10:01:52.998Z</time></trkpt><trkpt lat="47.71727896728729" lon="-1.8223390175308578"><ele>9.5</ele><time>2026-03-24T10:01:53.998Z</time></trkpt><trkpt lat="47.71728073532172" lon="-1.8225639919334566"><ele>9.25</ele><time>2026-03-24T10:01:54.998Z</time></trkpt><trkpt lat="47.71726490032524" lon="-1.8227970067939843"><ele>9.0</ele><time>2026-03-24T10:01:55.998Z</time></trkpt><trkpt lat="47.71725458494592" lon="-1.8230129767773693"><ele>9.0</ele><time>2026-03-24T10:01:57Z</time></trkpt><trkpt lat="47.71724279558958" lon="-1.8232175438061424"><ele>9.0</ele><time>2026-03-24T10:01:58Z</time></trkpt><trkpt lat="47.7172387853496" lon="-1.8234039861484648"><ele>9.0</ele><time>2026-03-24T10:01:59Z</time></trkpt><trkpt lat="47.71722656143648" lon="-1.8235515944766179"><ele>9.0</ele><time>2026-03-24T10:02:00Z</time></trkpt><trkpt lat="47.71723742903173" lon="-1.8236984344525884"><ele>8.333333333333334</ele><time>2026-03-24T10:02:01Z</time></trkpt><trkpt lat="47.71723495866927" lon="-1.823837200891825"><ele>7.666666666666667</ele><time>2026-03-24T10:02:02Z</time></trkpt><trkpt lat="47.71722754121342" lon="-1.82397152503476"><ele>7.0</ele><time>2026-03-24T10:02:03Z</time></trkpt><trkpt lat="47.717248405568455" lon="-1.8240870147780006"><ele>6.333333333333334</ele><time>2026-03-24T10:02:04Z</time></trkpt><trkpt lat="47.71727457543927" lon="-1.8241928579423206"><ele>5.666666666666667</ele><time>2026-03-24T10:02:05Z</time></trkpt><trkpt lat="47.717289327754266" lon="-1.8243043203346112"><ele>5.0</ele><time>2026-03-24T10:02:06Z</time></trkpt><trkpt lat="47.717297827939746" lon="-1.8244130134857466"><ele>5.0</ele><time>2026-03-24T10:02:07Z</time></trkpt><trkpt lat="47.71726701390634" lon="-1.8245240002705267"><ele>5.0</ele><time>2026-03-24T10:02:08Z</time></trkpt><trkpt lat="47.71719602960143" lon="-1.8245979391269895"><ele>5.0</ele><time>2026-03-24T10:02:09Z</time></trkpt><trkpt lat="47.717145833198536" lon="-1.8246766865884112"><ele>5.0</ele><time>2026-03-24T10:02:10Z</time></trkpt><trkpt lat="47.71709231937091" lon="-1.8247771533000932"><ele>5.0</ele><time>2026-03-24T10:02:11Z</time></trkpt><trkpt lat="47.71703303157652" lon="-1.824912293903991"><ele>5.0</ele><time>2026-03-24T10:02:12Z</time></trkpt><trkpt lat="47.71694524103605" lon="-1.8250287533211096"><ele>4.8</ele><time>2026-03-24T10:02:13Z</time></trkpt><trkpt lat="47.716868388055616" lon="-1.8251569630157103"><ele>4.6</ele><time>2026-03-24T10:02:14Z</time></trkpt><trkpt lat="47.71681229446587" lon="-1.8252802045229986"><ele>4.4</ele><time>2026-03-24T10:02:15Z</time></trkpt><trkpt lat="47.71677201464" lon="-1.8253957728374388"><ele>4.2</ele><time>2026-03-24T10:02:16Z</time></trkpt><trkpt lat="47.71675006188972" lon="-1.8255207621028506"><ele>4.0</ele><time>2026-03-24T10:02:17Z</time></trkpt><trkpt lat="47.71672953184276" lon="-1.8256337279343422"><ele>4.0</ele><time>2026-03-24T10:02:18Z</time></trkpt><trkpt lat="47.71671403655187" lon="-1.8257400767097394"><ele>4.0</ele><time>2026-03-24T10:02:19Z</time></trkpt><trkpt lat="47.716706251833656" lon="-1.8258950666094453"><ele>4.0</ele><time>2026-03-24T10:02:21Z</time></trkpt><trkpt lat="47.716691719613685" lon="-1.8260047779355677"><ele>4.0</ele><time>2026-03-24T10:02:23Z</time></trkpt><trkpt lat="47.71668273140029" lon="-1.826147165748742"><ele>4.0</ele><time>2026-03-24T10:02:27Z</time></trkpt><trkpt lat="47.716943009069176" lon="-1.8262370272316262"><ele>4.0</ele><time>2026-03-24T10:02:28Z</time></trkpt><trkpt lat="47.71713159928259" lon="-1.8263658070521978"><ele>4.0</ele><time>2026-03-24T10:02:29Z</time></trkpt><trkpt lat="47.71731207738444" lon="-1.826419734334293"><ele>4.0</ele><time>2026-03-24T10:02:30Z</time></trkpt><trkpt lat="47.71752118557322" lon="-1.8264474931724803"><ele>4.0</ele><time>2026-03-24T10:02:31Z</time></trkpt><trkpt lat="47.717708506679266" lon="-1.8264570861166736"><ele>4.0</ele><time>2026-03-24T10:02:32Z</time></trkpt><trkpt lat="47.71788867011854" lon="-1.8264840485698102"><ele>4.0</ele><time>2026-03-24T10:02:33Z</time></trkpt><trkpt lat="47.718073137006435" lon="-1.826509971176333"><ele>4.333333333333333</ele><time>2026-03-24T10:02:34Z</time></trkpt><trkpt lat="47.71823340348271" lon="-1.8265237180365526"><ele>4.666666666666667</ele><time>2026-03-24T10:02:35Z</time></trkpt><trkpt lat="47.718404308925976" lon="-1.8265508196257485"><ele>5.0</ele><time>2026-03-24T10:02:36Z</time></trkpt><trkpt lat="47.718574067801626" lon="-1.8265682537486048"><ele>5.0</ele><time>2026-03-24T10:02:37Z</time></trkpt><trkpt lat="47.71878245963104" lon="-1.8265960387479083"><ele>5.0</ele><time>2026-03-24T10:02:38Z</time></trkpt><trkpt lat="47.71898091501282" lon="-1.826558776499737"><ele>5.0</ele><time>2026-03-24T10:02:39Z</time></trkpt><trkpt lat="47.71921820162558" lon="-1.8265604025000808"><ele>5.0</ele><time>2026-03-24T10:02:40Z</time></trkpt><trkpt lat="47.719439506679706" lon="-1.8265931782448763"><ele>5.0</ele><time>2026-03-24T10:02:41Z</time></trkpt><trkpt lat="47.71964922658988" lon="-1.826611555811178"><ele>5.0</ele><time>2026-03-24T10:02:42Z</time></trkpt><trkpt lat="47.719896030341054" lon="-1.8266532339499235"><ele>5.0</ele><time>2026-03-24T10:02:43Z</time></trkpt><trkpt lat="47.720112276928475" lon="-1.8266906525255446"><ele>5.0</ele><time>2026-03-24T10:02:44Z</time></trkpt><trkpt lat="47.720321434333215" lon="-1.8267285408915683"><ele>5.0</ele><time>2026-03-24T10:02:45Z</time></trkpt><trkpt lat="47.72052360782818" lon="-1.8267595198526794"><ele>5.0</ele><time>2026-03-24T10:02:45.999Z</time></trkpt><trkpt lat="47.72069109497676" lon="-1.8267725201829885"><ele>5.0</ele><time>2026-03-24T10:02:46.999Z</time></trkpt><trkpt lat="47.72087639161541" lon="-1.8267849921652903"><ele>5.0</ele><time>2026-03-24T10:02:47.999Z</time></trkpt><trkpt lat="47.7210693290346" lon="-1.8268239332036433"><ele>5.333333333333334</ele><time>2026-03-24T10:02:48.999Z</time></trkpt><trkpt lat="47.72125272815681" lon="-1.826849119600764"><ele>5.666666666666667</ele><time>2026-03-24T10:02:49.999Z</time></trkpt><trkpt lat="47.72142013223552" lon="-1.8268882382743532"><ele>6.0</ele><time>2026-03-24T10:02:50.999Z</time></trkpt><trkpt lat="47.72157605500593" lon="-1.8269403815839214"><ele>6.0</ele><time>2026-03-24T10:02:51.999Z</time></trkpt><trkpt lat="47.72173972876368" lon="-1.8270030495599852"><ele>6.0</ele><time>2026-03-24T10:02:52.999Z</time></trkpt><trkpt lat="47.72187371131222" lon="-1.8270917359406236"><ele>6.0</ele><time>2026-03-24T10:02:53.999Z</time></trkpt><trkpt lat="47.72202675761635" lon="-1.8271843567533737"><ele>5.75</ele><time>2026-03-24T10:02:54.999Z</time></trkpt><trkpt lat="47.72216534212388" lon="-1.8272696027222892"><ele>5.5</ele><time>2026-03-24T10:02:55.999Z</time></trkpt><trkpt lat="47.72230107118138" lon="-1.827335668626504"><ele>5.25</ele><time>2026-03-24T10:02:56.999Z</time></trkpt><trkpt lat="47.72240808290076" lon="-1.8273959204752435"><ele>5.0</ele><time>2026-03-24T10:02:57.999Z</time></trkpt><trkpt lat="47.722520730317505" lon="-1.8274502616070556"><ele>5.0</ele><time>2026-03-24T10:02:58.999Z</time></trkpt><trkpt lat="47.72261155377954" lon="-1.8275092822227286"><ele>5.0</ele><time>2026-03-24T10:02:59.999Z</time></trkpt><trkpt lat="47.72269443544404" lon="-1.8275625628023253"><ele>5.0</ele><time>2026-03-24T10:03:00.999Z</time></trkpt><trkpt lat="47.722761925607685" lon="-1.8276001583959935"><ele>5.0</ele><time>2026-03-24T10:03:01.999Z</time></trkpt><trkpt lat="47.72280378442413" lon="-1.8276766697883053"><ele>5.0</ele><time>2026-03-24T10:03:03.999Z</time></trkpt><trkpt lat="47.722806820773286" lon="-1.827807694230833"><ele>5.0</ele><time>2026-03-24T10:03:06.999Z</time></trkpt><trkpt lat="47.72288176979273" lon="-1.827942447296959"><ele>4.8</ele><time>2026-03-24T10:03:08.999Z</time></trkpt><trkpt lat="47.72295074611213" lon="-1.828004022584954"><ele>4.6</ele><time>2026-03-24T10:03:09.999Z</time></trkpt><trkpt lat="47.723033673638646" lon="-1.8280663673950162"><ele>4.4</ele><time>2026-03-24T10:03:10.999Z</time></trkpt><trkpt lat="47.72311450885593" lon="-1.8281384483918413"><ele>4.2</ele><time>2026-03-24T10:03:11.999Z</time></trkpt><trkpt lat="47.72320271235411" lon="-1.8282245905616794"><ele>4.0</ele><time>2026-03-24T10:03:12.999Z</time></trkpt><trkpt lat="47.723308980962834" lon="-1.8283113559569257"><ele>4.0</ele><time>2026-03-24T10:03:13.999Z</time></trkpt><trkpt lat="47.723410437600485" lon="-1.8284188223101248"><ele>4.0</ele><time>2026-03-24T10:03:14.999Z</time></trkpt><trkpt lat="47.72355290539042" lon="-1.8285669884232034"><ele>4.0</ele><time>2026-03-24T10:03:15.999Z</time></trkpt><trkpt lat="47.72367503540503" lon="-1.8287047617968304"><ele>3.75</ele><time>2026-03-24T10:03:16.999Z</time></trkpt><trkpt lat="47.72380067889397" lon="-1.8288351494105335"><ele>3.5</ele><time>2026-03-24T10:03:17.999Z</time></trkpt><trkpt lat="47.72390179952568" lon="-1.8289403435876497"><ele>3.25</ele><time>2026-03-24T10:03:18.999Z</time></trkpt><trkpt lat="47.72400604112773" lon="-1.8290410693154522"><ele>3.0</ele><time>2026-03-24T10:03:19.999Z</time></trkpt><trkpt lat="47.72412355953374" lon="-1.8291595179185638"><ele>3.0</ele><time>2026-03-24T10:03:20.999Z</time></trkpt><trkpt lat="47.72423591340046" lon="-1.8292666357513017"><ele>3.0</ele><time>2026-03-24T10:03:21.999Z</time></trkpt><trkpt lat="47.72434751674948" lon="-1.8293813105927743"><ele>3.0</ele><time>2026-03-24T10:03:22.999Z</time></trkpt><trkpt lat="47.724456614987744" lon="-1.8294960710862527"><ele>3.0</ele><time>2026-03-24T10:03:23.999Z</time></trkpt><trkpt lat="47.72454988081003" lon="-1.8295828667150078"><ele>3.5</ele><time>2026-03-24T10:03:24.999Z</time></trkpt><trkpt lat="47.72461919291857" lon="-1.8296332762458438"><ele>4.0</ele><time>2026-03-24T10:03:25.999Z</time></trkpt><trkpt lat="47.724682664692516" lon="-1.8296576892421748"><ele>4.5</ele><time>2026-03-24T10:03:27.999Z</time></trkpt><trkpt lat="47.72475069911953" lon="-1.8296936376253778"><ele>5.0</ele><time>2026-03-24T10:03:29.999Z</time></trkpt><trkpt lat="47.72486780414832" lon="-1.8297748059269234"><ele>5.5</ele><time>2026-03-24T10:03:31.999Z</time></trkpt><trkpt lat="47.7249530059786" lon="-1.82982705965891"><ele>6.0</ele><time>2026-03-24T10:03:32.999Z</time></trkpt><trkpt lat="47.72506778277304" lon="-1.8298572155162205"><ele>6.0</ele><time>2026-03-24T10:03:33.999Z</time></trkpt><trkpt lat="47.72515056297623" lon="-1.8298968257394979"><ele>6.0</ele><time>2026-03-24T10:03:34.999Z</time></trkpt><trkpt lat="47.72524449318342" lon="-1.8299410909905003"><ele>6.0</ele><time>2026-03-24T10:03:35.999Z</time></trkpt><trkpt lat="47.72534108870502" lon="-1.8299780242563142"><ele>6.0</ele><time>2026-03-24T10:03:36.999Z</time></trkpt><trkpt lat="47.725428453578196" lon="-1.8300164525029492"><ele>6.0</ele><time>2026-03-24T10:03:37.999Z</time></trkpt><trkpt lat="47.72552612604198" lon="-1.8300647804818304"><ele>5.833333333333333</ele><time>2026-03-24T10:03:38.999Z</time></trkpt><trkpt lat="47.72560733484984" lon="-1.8301090783581495"><ele>5.666666666666667</ele><time>2026-03-24T10:03:39.999Z</time></trkpt><trkpt lat="47.72568181310363" lon="-1.8301296088153025"><ele>5.5</ele><time>2026-03-24T10:03:40.999Z</time></trkpt><trkpt lat="47.72574782716164" lon="-1.830170197575566"><ele>5.333333333333334</ele><time>2026-03-24T10:03:41.999Z</time></trkpt><trkpt lat="47.725842436464944" lon="-1.830243856849896"><ele>5.166666666666667</ele><time>2026-03-24T10:03:43.999Z</time></trkpt><trkpt lat="47.72587289815612" lon="-1.830360745594233"><ele>5.0</ele><time>2026-03-24T10:03:45.999Z</time></trkpt><trkpt lat="47.72586885170408" lon="-1.830571236014686"><ele>5.0</ele><time>2026-03-24T10:03:47.999Z</time></trkpt><trkpt lat="47.725848914649674" lon="-1.830712561597342"><ele>5.0</ele><time>2026-03-24T10:03:48.998Z</time></trkpt><trkpt lat="47.72582140559943" lon="-1.830873968102435"><ele>5.0</ele><time>2026-03-24T10:03:49.998Z</time></trkpt><trkpt lat="47.72578987727612" lon="-1.8310369521381573"><ele>5.0</ele><time>2026-03-24T10:03:50.998Z</time></trkpt><trkpt lat="47.72575457430147" lon="-1.8311862176510314"><ele>5.0</ele><time>2026-03-24T10:03:51.998Z</time></trkpt><trkpt lat="47.72568954052138" lon="-1.831341751848556"><ele>4.833333333333334</ele><time>2026-03-24T10:03:52.998Z</time></trkpt><trkpt lat="47.725659992740425" lon="-1.8314983172153907"><ele>4.666666666666667</ele><time>2026-03-24T10:03:53.998Z</time></trkpt><trkpt lat="47.725651588252596" lon="-1.831622040152125"><ele>4.5</ele><time>2026-03-24T10:03:54.998Z</time></trkpt><trkpt lat="47.725637401836984" lon="-1.8317349244673398"><ele>4.333333333333333</ele><time>2026-03-24T10:03:55.998Z</time></trkpt><trkpt lat="47.72565313133159" lon="-1.8318352965469913"><ele>4.166666666666666</ele><time>2026-03-24T10:03:56.998Z</time></trkpt><trkpt lat="47.72569478979048" lon="-1.8319594946773028"><ele>4.0</ele><time>2026-03-24T10:03:57.998Z</time></trkpt><trkpt lat="47.725738952393385" lon="-1.832083344771727"><ele>3.9999999999999996</ele><time>2026-03-24T10:03:58.998Z</time></trkpt><trkpt lat="47.72580669487366" lon="-1.8321578525130926"><ele>4.0</ele><time>2026-03-24T10:03:59.998Z</time></trkpt><trkpt lat="47.725859350437446" lon="-1.8322604745460247"><ele>4.0</ele><time>2026-03-24T10:04:00.998Z</time></trkpt><trkpt lat="47.7258663788636" lon="-1.8323783122538693"><ele>4.0</ele><time>2026-03-24T10:04:01.998Z</time></trkpt><trkpt lat="47.72586820055183" lon="-1.8324958376908251"><ele>3.9999999999999996</ele><time>2026-03-24T10:04:03Z</time></trkpt><trkpt lat="47.725826547618084" lon="-1.8326568757270643"><ele>4.0</ele><time>2026-03-24T10:04:04Z</time></trkpt><trkpt lat="47.725814804669135" lon="-1.832805678389326"><ele>4.0</ele><time>2026-03-24T10:04:05Z</time></trkpt><trkpt lat="47.725805844186326" lon="-1.8329737890296451"><ele>4.0</ele><time>2026-03-24T10:04:06Z</time></trkpt><trkpt lat="47.72577895396244" lon="-1.8331400298258373"><ele>4.0</ele><time>2026-03-24T10:04:07Z</time></trkpt><trkpt lat="47.72576826878323" lon="-1.8333070975504346"><ele>4.0</ele><time>2026-03-24T10:04:08Z</time></trkpt><trkpt lat="47.725748452401874" lon="-1.8334458821298698"><ele>4.0</ele><time>2026-03-24T10:04:09Z</time></trkpt><trkpt lat="47.72572812581821" lon="-1.833556616032906"><ele>3.833333333333333</ele><time>2026-03-24T10:04:10Z</time></trkpt><trkpt lat="47.72571321136744" lon="-1.833685056175253"><ele>3.6666666666666665</ele><time>2026-03-24T10:04:11Z</time></trkpt><trkpt lat="47.725705533127844" lon="-1.8338002217835536"><ele>3.5</ele><time>2026-03-24T10:04:12Z</time></trkpt><trkpt lat="47.72576616309028" lon="-1.8339033796087851"><ele>3.333333333333333</ele><time>2026-03-24T10:04:13Z</time></trkpt><trkpt lat="47.725757205944916" lon="-1.8340284172396"><ele>3.1666666666666665</ele><time>2026-03-24T10:04:14Z</time></trkpt><trkpt lat="47.725749170299366" lon="-1.8341405915666353"><ele>3.0</ele><time>2026-03-24T10:04:15Z</time></trkpt><trkpt lat="47.72573549817918" lon="-1.8342592787571457"><ele>3.0</ele><time>2026-03-24T10:04:16Z</time></trkpt><trkpt lat="47.72574627889764" lon="-1.8344233904933671"><ele>3.0</ele><time>2026-03-24T10:04:18Z</time></trkpt><trkpt lat="47.72583018036948" lon="-1.834486198429645"><ele>3.0</ele><time>2026-03-24T10:04:20Z</time></trkpt><trkpt lat="47.7259126762336" lon="-1.8344963092909528"><ele>3.0</ele><time>2026-03-24T10:04:21Z</time></trkpt><trkpt lat="47.72603188565311" lon="-1.8345276526292449"><ele>3.0</ele><time>2026-03-24T10:04:22Z</time></trkpt><trkpt lat="47.72618544169225" lon="-1.8345664918618922"><ele>3.0</ele><time>2026-03-24T10:04:23Z</time></trkpt><trkpt lat="47.72633077724602" lon="-1.8345938162119773"><ele>3.0</ele><time>2026-03-24T10:04:24Z</time></trkpt><trkpt lat="47.72648732339365" lon="-1.8346558520110567"><ele>3.0</ele><time>2026-03-24T10:04:25Z</time></trkpt><trkpt lat="47.726667254936004" lon="-1.8346796851511573"><ele>3.0</ele><time>2026-03-24T10:04:26Z</time></trkpt><trkpt lat="47.72682780287349" lon="-1.8347313892015895"><ele>3.0</ele><time>2026-03-24T10:04:27Z</time></trkpt><trkpt lat="47.726999481522576" lon="-1.8347810337023414"><ele>3.0</ele><time>2026-03-24T10:04:28Z</time></trkpt><trkpt lat="47.72718361226466" lon="-1.834836432624506"><ele>3.333333333333333</ele><time>2026-03-24T10:04:29Z</time></trkpt><trkpt lat="47.727371499815405" lon="-1.8348844266242859"><ele>3.6666666666666665</ele><time>2026-03-24T10:04:30Z</time></trkpt><trkpt lat="47.727559208793075" lon="-1.8349293785049834"><ele>4.0</ele><time>2026-03-24T10:04:31Z</time></trkpt><trkpt lat="47.72774872617534" lon="-1.8349761537863745"><ele>4.333333333333333</ele><time>2026-03-24T10:04:32Z</time></trkpt><trkpt lat="47.727954120951274" lon="-1.835035004406154"><ele>4.666666666666667</ele><time>2026-03-24T10:04:33Z</time></trkpt><trkpt lat="47.72816787501402" lon="-1.8350778857916683"><ele>5.0</ele><time>2026-03-24T10:04:34Z</time></trkpt><trkpt lat="47.72835735234767" lon="-1.8351242960534095"><ele>4.666666666666667</ele><time>2026-03-24T10:04:35Z</time></trkpt><trkpt lat="47.728528366647836" lon="-1.8351753473081958"><ele>4.333333333333333</ele><time>2026-03-24T10:04:36Z</time></trkpt><trkpt lat="47.72869526020655" lon="-1.835213459082677"><ele>4.0</ele><time>2026-03-24T10:04:37Z</time></trkpt><trkpt lat="47.72885085445665" lon="-1.8352458270344152"><ele>4.5</ele><time>2026-03-24T10:04:38Z</time></trkpt><trkpt lat="47.72896413723741" lon="-1.8352795580109307"><ele>5.0</ele><time>2026-03-24T10:04:39Z</time></trkpt><trkpt lat="47.72908081926583" lon="-1.8353198059985767"><ele>5.5</ele><time>2026-03-24T10:04:40Z</time></trkpt><trkpt lat="47.729207598213904" lon="-1.8353299733266975"><ele>6.0</ele><time>2026-03-24T10:04:41Z</time></trkpt><trkpt lat="47.72934447285966" lon="-1.8353644123632151"><ele>6.0</ele><time>2026-03-24T10:04:42Z</time></trkpt><trkpt lat="47.729483311554084" lon="-1.8353991274005945"><ele>6.0</ele><time>2026-03-24T10:04:43Z</time></trkpt><trkpt lat="47.72962612352551" lon="-1.835434835997169"><ele>6.0</ele><time>2026-03-24T10:04:44Z</time></trkpt><trkpt lat="47.72976370155162" lon="-1.8354692358311937"><ele>6.0</ele><time>2026-03-24T10:04:45Z</time></trkpt><trkpt lat="47.72990042802004" lon="-1.8355034227636353"><ele>6.0</ele><time>2026-03-24T10:04:46Z</time></trkpt><trkpt lat="47.730017683666446" lon="-1.8355327412624793"><ele>6.0</ele><time>2026-03-24T10:04:47Z</time></trkpt><trkpt lat="47.73012537120141" lon="-1.8355596672768713"><ele>6.0</ele><time>2026-03-24T10:04:48Z</time></trkpt><trkpt lat="47.73022976257396" lon="-1.8355857691826092"><ele>6.0</ele><time>2026-03-24T10:04:49Z</time></trkpt><trkpt lat="47.730306551017065" lon="-1.8356049692660046"><ele>6.0</ele><time>2026-03-24T10:04:49.999Z</time></trkpt><trkpt lat="47.730388417053916" lon="-1.8356485046610895"><ele>5.75</ele><time>2026-03-24T10:04:50.999Z</time></trkpt><trkpt lat="47.73045795436852" lon="-1.835620169441569"><ele>5.5</ele><time>2026-03-24T10:04:51.999Z</time></trkpt><trkpt lat="47.73050592333459" lon="-1.835406347683185"><ele>5.25</ele><time>2026-03-24T10:04:58.999Z</time></trkpt><trkpt lat="47.73048766254421" lon="-1.8351573043683438"><ele>5.0</ele><time>2026-03-24T10:05:00.999Z</time></trkpt><trkpt lat="47.7304756359787" lon="-1.8349932846167059"><ele>5.0</ele><time>2026-03-24T10:05:01.999Z</time></trkpt><trkpt lat="47.73047802823261" lon="-1.834831550452279"><ele>5.0</ele><time>2026-03-24T10:05:02.999Z</time></trkpt><trkpt lat="47.73044441985226" lon="-1.834669775052841"><ele>5.0</ele><time>2026-03-24T10:05:03.999Z</time></trkpt><trkpt lat="47.730427573259256" lon="-1.8345289746877664"><ele>5.0</ele><time>2026-03-24T10:05:04.999Z</time></trkpt><trkpt lat="47.730421028830094" lon="-1.834367203055468"><ele>5.0</ele><time>2026-03-24T10:05:05.999Z</time></trkpt><trkpt lat="47.73041478833162" lon="-1.8341799444863465"><ele>5.2</ele><time>2026-03-24T10:05:06.999Z</time></trkpt><trkpt lat="47.7304143897945" lon="-1.8340417240622842"><ele>5.4</ele><time>2026-03-24T10:05:07.999Z</time></trkpt><trkpt lat="47.73039021195724" lon="-1.833914943566795"><ele>5.6</ele><time>2026-03-24T10:05:08.999Z</time></trkpt><trkpt lat="47.730376781247394" lon="-1.8337807922766038"><ele>5.8</ele><time>2026-03-24T10:05:09.999Z</time></trkpt><trkpt lat="47.7303920462721" lon="-1.8336235391734572"><ele>6.0</ele><time>2026-03-24T10:05:11.999Z</time></trkpt><trkpt lat="47.73057147826118" lon="-1.8337270870688165"><ele>6.0</ele><time>2026-03-24T10:05:15.999Z</time></trkpt><trkpt lat="47.73066567809634" lon="-1.8338106263414642"><ele>6.0</ele><time>2026-03-24T10:05:16.999Z</time></trkpt><trkpt lat="47.730755989430705" lon="-1.8339206556385619"><ele>6.0</ele><time>2026-03-24T10:05:17.999Z</time></trkpt><trkpt lat="47.7308504255328" lon="-1.834035710078707"><ele>6.0</ele><time>2026-03-24T10:05:18.999Z</time></trkpt><trkpt lat="47.73093813170354" lon="-1.8341367778436675"><ele>6.0</ele><time>2026-03-24T10:05:19.999Z</time></trkpt><trkpt lat="47.7310249761923" lon="-1.8342303817664722"><ele>6.0</ele><time>2026-03-24T10:05:20.999Z</time></trkpt><trkpt lat="47.73112463884551" lon="-1.8343305135976842"><ele>6.0</ele><time>2026-03-24T10:05:21.999Z</time></trkpt><trkpt lat="47.73124400959415" lon="-1.8344462635431857"><ele>6.0</ele><time>2026-03-24T10:05:22.999Z</time></trkpt><trkpt lat="47.731354867093" lon="-1.834584718241822"><ele>5.75</ele><time>2026-03-24T10:05:23.999Z</time></trkpt><trkpt lat="47.73147488901162" lon="-1.8347014837577573"><ele>5.5</ele><time>2026-03-24T10:05:24.999Z</time></trkpt><trkpt lat="47.73159458009647" lon="-1.834792872974306"><ele>5.25</ele><time>2026-03-24T10:05:25.999Z</time></trkpt><trkpt lat="47.73168505449766" lon="-1.834903730655241"><ele>5.0</ele><time>2026-03-24T10:05:26.999Z</time></trkpt><trkpt lat="47.73177965554342" lon="-1.8349938971126423"><ele>5.0</ele><time>2026-03-24T10:05:27.999Z</time></trkpt><trkpt lat="47.73188705963006" lon="-1.8351066073133606"><ele>5.0</ele><time>2026-03-24T10:05:28.999Z</time></trkpt><trkpt lat="47.731995547278316" lon="-1.8352256242385059"><ele>5.0</ele><time>2026-03-24T10:05:29.999Z</time></trkpt><trkpt lat="47.73209802736254" lon="-1.8353144509601715"><ele>5.0</ele><time>2026-03-24T10:05:30.999Z</time></trkpt><trkpt lat="47.73220525665645" lon="-1.8353485357583676"><ele>4.5</ele><time>2026-03-24T10:05:31.999Z</time></trkpt><trkpt lat="47.7323154445011" lon="-1.8354044017125362"><ele>4.0</ele><time>2026-03-24T10:05:32.999Z</time></trkpt><trkpt lat="47.732434319848814" lon="-1.8354659692591615"><ele>3.5</ele><time>2026-03-24T10:05:33.999Z</time></trkpt><trkpt lat="47.73257246149202" lon="-1.8355412536245879"><ele>3.0</ele><time>2026-03-24T10:05:34.999Z</time></trkpt><trkpt lat="47.73271264881743" lon="-1.8356176529748567"><ele>3.5</ele><time>2026-03-24T10:05:35.999Z</time></trkpt><trkpt lat="47.732848853388454" lon="-1.8357103478287873"><ele>4.0</ele><time>2026-03-24T10:05:36.999Z</time></trkpt><trkpt lat="47.73298933470389" lon="-1.835764428289418"><ele>4.5</ele><time>2026-03-24T10:05:37.999Z</time></trkpt><trkpt lat="47.733097864787915" lon="-1.835845464953048"><ele>5.0</ele><time>2026-03-24T10:05:38.999Z</time></trkpt><trkpt lat="47.733201102980644" lon="-1.835899016717736"><ele>4.75</ele><time>2026-03-24T10:05:39.999Z</time></trkpt><trkpt lat="47.73332281818207" lon="-1.8360208545270966"><ele>4.5</ele><time>2026-03-24T10:05:41.999Z</time></trkpt><trkpt lat="47.73342983360479" lon="-1.8361239254304946"><ele>4.25</ele><time>2026-03-24T10:05:42.999Z</time></trkpt><trkpt lat="47.73354933676434" lon="-1.8362212344975763"><ele>4.0</ele><time>2026-03-24T10:05:43.999Z</time></trkpt><trkpt lat="47.73367818459747" lon="-1.8362898196625481"><ele>4.0</ele><time>2026-03-24T10:05:44.999Z</time></trkpt><trkpt lat="47.733796330012964" lon="-1.8363376176954582"><ele>4.0</ele><time>2026-03-24T10:05:45.999Z</time></trkpt><trkpt lat="47.733918113298735" lon="-1.8363374623344164"><ele>4.0</ele><time>2026-03-24T10:05:46.999Z</time></trkpt><trkpt lat="47.73405197329649" lon="-1.8363399185117315"><ele>4.0</ele><time>2026-03-24T10:05:47.999Z</time></trkpt><trkpt lat="47.73420916565514" lon="-1.836344449669179"><ele>3.9999999999999996</ele><time>2026-03-24T10:05:48.999Z</time></trkpt><trkpt lat="47.73432202201062" lon="-1.8363721619065718"><ele>4.0</ele><time>2026-03-24T10:05:49.999Z</time></trkpt><trkpt lat="47.73439455787742" lon="-1.8363626538411135"><ele>4.0</ele><time>2026-03-24T10:05:50.999Z</time></trkpt><trkpt lat="47.73446585080374" lon="-1.8363486068773647"><ele>4.0</ele><time>2026-03-24T10:05:51.999Z</time></trkpt><trkpt lat="47.73454255970159" lon="-1.836378665381643"><ele>3.9999999999999996</ele><time>2026-03-24T10:05:53.998Z</time></trkpt><trkpt lat="47.73461153865136" lon="-1.836384179045419"><ele>4.0</ele><time>2026-03-24T10:05:56.998Z</time></trkpt><trkpt lat="47.734616551833575" lon="-1.8367659614790088"><ele>4.5</ele><time>2026-03-24T10:05:57.998Z</time></trkpt><trkpt lat="47.7346014102514" lon="-1.8369234051749013"><ele>5.0</ele><time>2026-03-24T10:05:58.998Z</time></trkpt><trkpt lat="47.73460921081021" lon="-1.8370442194320336"><ele>5.5</ele><time>2026-03-24T10:05:59.998Z</time></trkpt><trkpt lat="47.734606122919516" lon="-1.8371599903565734"><ele>6.0</ele><time>2026-03-24T10:06:00.998Z</time></trkpt><trkpt lat="47.734616834102916" lon="-1.8372530573599837"><ele>6.500000000000001</ele><time>2026-03-24T10:06:01.998Z</time></trkpt><trkpt lat="47.73463831509149" lon="-1.837361100063532"><ele>7.0</ele><time>2026-03-24T10:06:02.998Z</time></trkpt><trkpt lat="47.73467492077005" lon="-1.8374846132323057"><ele>7.0</ele><time>2026-03-24T10:06:03.998Z</time></trkpt><trkpt lat="47.73469370050363" lon="-1.837584654082703"><ele>6.999999999999999</ele><time>2026-03-24T10:06:04.998Z</time></trkpt><trkpt lat="47.734770484806866" lon="-1.8377483570238562"><ele>6.999999999999999</ele><time>2026-03-24T10:06:06.998Z</time></trkpt><trkpt lat="47.73479212315459" lon="-1.837873839352517"><ele>7.0</ele><time>2026-03-24T10:06:09Z</time></trkpt><trkpt lat="47.73484051989224" lon="-1.8379776211791539"><ele>7.0</ele><time>2026-03-24T10:06:13Z</time></trkpt><trkpt lat="47.73479884062577" lon="-1.837866071431163"><ele>7.0</ele><time>2026-03-24T10:06:24Z</time></trkpt><trkpt lat="47.73474608844154" lon="-1.8377162324367522"><ele>7.0</ele><time>2026-03-24T10:06:26Z</time></trkpt><trkpt lat="47.73469755513557" lon="-1.8375075951883288"><ele>7.0</ele><time>2026-03-24T10:06:27Z</time></trkpt><trkpt lat="47.7346678301708" lon="-1.8373465613967452"><ele>7.0</ele><time>2026-03-24T10:06:28Z</time></trkpt><trkpt lat="47.7346393146475" lon="-1.8371991892215895"><ele>7.0</ele><time>2026-03-24T10:06:29Z</time></trkpt><trkpt lat="47.7346230875164" lon="-1.8370069621778748"><ele>6.999999999999999</ele><time>2026-03-24T10:06:30Z</time></trkpt><trkpt lat="47.73461174744646" lon="-1.8368276528850211"><ele>6.999999999999999</ele><time>2026-03-24T10:06:31Z</time></trkpt><trkpt lat="47.734614855816936" lon="-1.836695215295288"><ele>7.0</ele><time>2026-03-24T10:06:32Z</time></trkpt><trkpt lat="47.734602749388486" lon="-1.8365772305338128"><ele>7.0</ele><time>2026-03-24T10:06:33Z</time></trkpt><trkpt lat="47.734571880782866" lon="-1.8364851815412675"><ele>7.0</ele><time>2026-03-24T10:06:34Z</time></trkpt><trkpt lat="47.73457888066448" lon="-1.836321883807277"><ele>6.999999999999999</ele><time>2026-03-24T10:06:36Z</time></trkpt><trkpt lat="47.73457571986068" lon="-1.8362262373334395"><ele>6.999999999999999</ele><time>2026-03-24T10:06:37Z</time></trkpt><trkpt lat="47.73457871116768" lon="-1.8361067206582056"><ele>7.0</ele><time>2026-03-24T10:06:38Z</time></trkpt><trkpt lat="47.73456808272333" lon="-1.8359704973050364"><ele>7.0</ele><time>2026-03-24T10:06:39Z</time></trkpt><trkpt lat="47.734568908955694" lon="-1.8358036696788311"><ele>7.0</ele><time>2026-03-24T10:06:40Z</time></trkpt><trkpt lat="47.734569945026294" lon="-1.8356373224696823"><ele>7.0</ele><time>2026-03-24T10:06:41Z</time></trkpt><trkpt lat="47.734587278151636" lon="-1.8354689740850616"><ele>7.0</ele><time>2026-03-24T10:06:42Z</time></trkpt><trkpt lat="47.73458520971596" lon="-1.8352745775367252"><ele>7.0</ele><time>2026-03-24T10:06:43Z</time></trkpt><trkpt lat="47.73459058366249" lon="-1.8351125657907834"><ele>7.199999999999999</ele><time>2026-03-24T10:06:44Z</time></trkpt><trkpt lat="47.73460003719121" lon="-1.8349819522022095"><ele>7.3999999999999995</ele><time>2026-03-24T10:06:45Z</time></trkpt><trkpt lat="47.734643712204615" lon="-1.8348444610460268"><ele>7.6000000000000005</ele><time>2026-03-24T10:06:47Z</time></trkpt><trkpt lat="47.734729620073026" lon="-1.8347804040118418"><ele>7.800000000000001</ele><time>2026-03-24T10:06:49Z</time></trkpt><trkpt lat="47.734863166408026" lon="-1.8347869833278736"><ele>8.0</ele><time>2026-03-24T10:06:51Z</time></trkpt><trkpt lat="47.73499018812093" lon="-1.834784400952299"><ele>8.0</ele><time>2026-03-24T10:06:51.999Z</time></trkpt><trkpt lat="47.735096481045964" lon="-1.8347839592793074"><ele>8.0</ele><time>2026-03-24T10:06:52.999Z</time></trkpt><trkpt lat="47.735197624643696" lon="-1.8347740938949761"><ele>8.0</ele><time>2026-03-24T10:06:53.999Z</time></trkpt><trkpt lat="47.735310171310296" lon="-1.834763972719386"><ele>8.0</ele><time>2026-03-24T10:06:54.999Z</time></trkpt><trkpt lat="47.73540768988931" lon="-1.8347560794829927"><ele>8.0</ele><time>2026-03-24T10:06:55.999Z</time></trkpt><trkpt lat="47.735485224318815" lon="-1.8347564017078077"><ele>8.600000000000001</ele><time>2026-03-24T10:06:56.999Z</time></trkpt><trkpt lat="47.73556651954041" lon="-1.8347264761821058"><ele>9.200000000000001</ele><time>2026-03-24T10:06:58.999Z</time></trkpt><trkpt lat="47.735671564912174" lon="-1.8347752115077902"><ele>9.8</ele><time>2026-03-24T10:10:03.998Z</time></trkpt><trkpt lat="47.73571086275829" lon="-1.8348590977636865"><ele>10.4</ele><time>2026-03-24T10:10:04.998Z</time></trkpt><trkpt lat="47.73580491082749" lon="-1.8349735331436035"><ele>11.0</ele><time>2026-03-24T10:10:06.998Z</time></trkpt><trkpt lat="47.73585222186249" lon="-1.835043620325058"><ele>10.8</ele><time>2026-03-24T10:10:07.998Z</time></trkpt><trkpt lat="47.73589702788658" lon="-1.8351446538466245"><ele>10.600000000000001</ele><time>2026-03-24T10:10:08.998Z</time></trkpt><trkpt lat="47.73596655724331" lon="-1.8352402773020358"><ele>10.4</ele><time>2026-03-24T10:10:09.998Z</time></trkpt><trkpt lat="47.73605103787758" lon="-1.8353541595549923"><ele>10.2</ele><time>2026-03-24T10:10:10.998Z</time></trkpt><trkpt lat="47.73614065726565" lon="-1.835465632262472"><ele>10.0</ele><time>2026-03-24T10:10:11.998Z</time></trkpt><trkpt lat="47.73621254559222" lon="-1.8355994188796385"><ele>10.75</ele><time>2026-03-24T10:10:12.998Z</time></trkpt><trkpt lat="47.73630246318434" lon="-1.8357108461415792"><ele>11.5</ele><time>2026-03-24T10:10:13.998Z</time></trkpt><trkpt lat="47.73638204862634" lon="-1.8358275470564696"><ele>12.25</ele><time>2026-03-24T10:10:14.998Z</time></trkpt><trkpt lat="47.73644874710962" lon="-1.8359253510847384"><ele>13.0</ele><time>2026-03-24T10:10:15.998Z</time></trkpt><trkpt lat="47.73654065876081" lon="-1.8360601266577947"><ele>13.0</ele><time>2026-03-24T10:10:16.998Z</time></trkpt><trkpt lat="47.73661946435022" lon="-1.8361756839135461"><ele>13.0</ele><time>2026-03-24T10:10:17.998Z</time></trkpt><trkpt lat="47.73673335706165" lon="-1.8363427507984946"><ele>13.0</ele><time>2026-03-24T10:10:18.998Z</time></trkpt><trkpt lat="47.73659854302729" lon="-1.8361383397901332"><ele>13.0</ele><time>2026-03-24T10:10:19.998Z</time></trkpt><trkpt lat="47.73668797566736" lon="-1.8362649612932431"><ele>13.0</ele><time>2026-03-24T10:10:21Z</time></trkpt><trkpt lat="47.73678603481057" lon="-1.8364074247999678"><ele>13.0</ele><time>2026-03-24T10:10:22Z</time></trkpt><trkpt lat="47.73687754963713" lon="-1.83654024842601"><ele>13.0</ele><time>2026-03-24T10:10:23Z</time></trkpt><trkpt lat="47.73696817347114" lon="-1.8366745880124735"><ele>13.0</ele><time>2026-03-24T10:10:24Z</time></trkpt><trkpt lat="47.737063767326084" lon="-1.8368159139172995"><ele>13.0</ele><time>2026-03-24T10:10:25Z</time></trkpt><trkpt lat="47.73716764304143" lon="-1.836970138508833"><ele>13.0</ele><time>2026-03-24T10:10:26Z</time></trkpt><trkpt lat="47.73728039729365" lon="-1.8371341667006627"><ele>13.0</ele><time>2026-03-24T10:10:27Z</time></trkpt><trkpt lat="47.7373905919244" lon="-1.8372968099117455"><ele>13.0</ele><time>2026-03-24T10:10:28Z</time></trkpt><trkpt lat="47.73750694720905" lon="-1.8374792889632285"><ele>13.0</ele><time>2026-03-24T10:10:29Z</time></trkpt><trkpt lat="47.737610330004756" lon="-1.8376358556018737"><ele>13.0</ele><time>2026-03-24T10:10:30Z</time></trkpt><trkpt lat="47.73771960641589" lon="-1.837795521042107"><ele>12.666666666666666</ele><time>2026-03-24T10:10:31Z</time></trkpt><trkpt lat="47.737824013911855" lon="-1.8379685365311353"><ele>12.333333333333332</ele><time>2026-03-24T10:10:32Z</time></trkpt><trkpt lat="47.73794249705956" lon="-1.8381381980194662"><ele>12.0</ele><time>2026-03-24T10:10:33Z</time></trkpt><trkpt lat="47.738075131940285" lon="-1.838313554358529"><ele>12.333333333333332</ele><time>2026-03-24T10:10:34Z</time></trkpt><trkpt lat="47.73819096500093" lon="-1.8384864043176286"><ele>12.666666666666666</ele><time>2026-03-24T10:10:35Z</time></trkpt><trkpt lat="47.73830773319395" lon="-1.838662570676626"><ele>13.0</ele><time>2026-03-24T10:10:36Z</time></trkpt><trkpt lat="47.738419335531766" lon="-1.8388164714707456"><ele>13.0</ele><time>2026-03-24T10:10:37Z</time></trkpt><trkpt lat="47.73851577904242" lon="-1.8389653215515742"><ele>13.0</ele><time>2026-03-24T10:10:38Z</time></trkpt><trkpt lat="47.73860277240772" lon="-1.8390872333032"><ele>13.0</ele><time>2026-03-24T10:10:39Z</time></trkpt><trkpt lat="47.73867661948335" lon="-1.8392082882100564"><ele>13.0</ele><time>2026-03-24T10:10:40Z</time></trkpt><trkpt lat="47.7387498419953" lon="-1.8393096712654362"><ele>12.999999999999998</ele><time>2026-03-24T10:10:41Z</time></trkpt><trkpt lat="47.738794849259406" lon="-1.8393812600206882"><ele>13.0</ele><time>2026-03-24T10:10:42Z</time></trkpt><trkpt lat="47.73885670831949" lon="-1.8394700317739965"><ele>13.0</ele><time>2026-03-24T10:10:43Z</time></trkpt><trkpt lat="47.73890869760924" lon="-1.839559144708316"><ele>13.0</ele><time>2026-03-24T10:10:44Z</time></trkpt><trkpt lat="47.73895399039322" lon="-1.839638759121221"><ele>12.999999999999998</ele><time>2026-03-24T10:10:45Z</time></trkpt><trkpt lat="47.73902462870567" lon="-1.839726042896186"><ele>13.0</ele><time>2026-03-24T10:10:47Z</time></trkpt><trkpt lat="47.73907258287053" lon="-1.8398258245327652"><ele>13.0</ele><time>2026-03-24T10:10:51Z</time></trkpt><trkpt lat="47.73900901001154" lon="-1.8400253631032146"><ele>13.0</ele><time>2026-03-24T10:10:53Z</time></trkpt><trkpt lat="47.73897096672314" lon="-1.840117295733542"><ele>13.0</ele><time>2026-03-24T10:10:54Z</time></trkpt><trkpt lat="47.7389239793762" lon="-1.8402331821305677"><ele>13.0</ele><time>2026-03-24T10:10:55Z</time></trkpt><trkpt lat="47.7388828139" lon="-1.8403707656488886"><ele>13.0</ele><time>2026-03-24T10:10:56Z</time></trkpt><trkpt lat="47.73882368012472" lon="-1.8405458168525208"><ele>12.25</ele><time>2026-03-24T10:10:57Z</time></trkpt><trkpt lat="47.738786996011214" lon="-1.8407103344020734"><ele>11.5</ele><time>2026-03-24T10:10:58Z</time></trkpt><trkpt lat="47.73876993540368" lon="-1.8409059161214973"><ele>10.75</ele><time>2026-03-24T10:10:59Z</time></trkpt><trkpt lat="47.73875971987371" lon="-1.8411073199833838"><ele>10.0</ele><time>2026-03-24T10:11:00Z</time></trkpt><trkpt lat="47.73874577241218" lon="-1.8413497512997778"><ele>9.666666666666668</ele><time>2026-03-24T10:11:01Z</time></trkpt><trkpt lat="47.73875216065844" lon="-1.8415819616047275"><ele>9.333333333333334</ele><time>2026-03-24T10:11:02Z</time></trkpt><trkpt lat="47.73880282966349" lon="-1.8417755150683228"><ele>9.0</ele><time>2026-03-24T10:11:02.999Z</time></trkpt><trkpt lat="47.73883244789911" lon="-1.842009953020759"><ele>8.25</ele><time>2026-03-24T10:11:03.999Z</time></trkpt><trkpt lat="47.73887532224949" lon="-1.8422376398320113"><ele>7.5</ele><time>2026-03-24T10:11:04.999Z</time></trkpt><trkpt lat="47.73891318540578" lon="-1.8424413787091027"><ele>6.75</ele><time>2026-03-24T10:11:05.999Z</time></trkpt><trkpt lat="47.73894279491763" lon="-1.842610031582566"><ele>6.0</ele><time>2026-03-24T10:11:06.999Z</time></trkpt><trkpt lat="47.73898597228015" lon="-1.8427442395085802"><ele>6.0</ele><time>2026-03-24T10:11:07.999Z</time></trkpt><trkpt lat="47.73901170523465" lon="-1.8428771733661544"><ele>6.0</ele><time>2026-03-24T10:11:08.999Z</time></trkpt><trkpt lat="47.73904083969296" lon="-1.8430192312182512"><ele>6.0</ele><time>2026-03-24T10:11:09.999Z</time></trkpt><trkpt lat="47.73906505621393" lon="-1.8431719713719967"><ele>6.0</ele><time>2026-03-24T10:11:10.999Z</time></trkpt><trkpt lat="47.73909104851409" lon="-1.8433408953256398"><ele>6.0</ele><time>2026-03-24T10:11:11.999Z</time></trkpt><trkpt lat="47.739111820919355" lon="-1.8434802988281862"><ele>6.0</ele><time>2026-03-24T10:11:12.999Z</time></trkpt><trkpt lat="47.73913228867875" lon="-1.8435992819998028"><ele>6.0</ele><time>2026-03-24T10:11:13.999Z</time></trkpt><trkpt lat="47.739154191161695" lon="-1.8437032923650956"><ele>6.0</ele><time>2026-03-24T10:11:14.999Z</time></trkpt><trkpt lat="47.739178887161174" lon="-1.84388887192813"><ele>6.0</ele><time>2026-03-24T10:11:16.999Z</time></trkpt><trkpt lat="47.739192605852686" lon="-1.8439922120865568"><ele>6.0</ele><time>2026-03-24T10:11:17.999Z</time></trkpt><trkpt lat="47.7392083295112" lon="-1.8440874423573175"><ele>6.0</ele><time>2026-03-24T10:11:18.999Z</time></trkpt><trkpt lat="47.73922780348309" lon="-1.844234037137222"><ele>6.0</ele><time>2026-03-24T10:11:20.999Z</time></trkpt><trkpt lat="47.73924695107044" lon="-1.8443234310331644"><ele>6.0</ele><time>2026-03-24T10:11:22.999Z</time></trkpt><trkpt lat="47.7392740384543" lon="-1.8441902126286174"><ele>6.0</ele><time>2026-03-24T10:11:26.999Z</time></trkpt><trkpt lat="47.73924775668894" lon="-1.8441040310673271"><ele>6.0</ele><time>2026-03-24T10:11:27.999Z</time></trkpt><trkpt lat="47.73926515092711" lon="-1.8440006112950003"><ele>6.0</ele><time>2026-03-24T10:11:28.999Z</time></trkpt><trkpt lat="47.739273999628566" lon="-1.8439067652230674"><ele>6.0</ele><time>2026-03-24T10:11:29.999Z</time></trkpt><trkpt lat="47.73935387947216" lon="-1.8438316436029807"><ele>6.666666666666667</ele><time>2026-03-24T10:11:30.999Z</time></trkpt><trkpt lat="47.739436279842415" lon="-1.8437959608103145"><ele>7.333333333333334</ele><time>2026-03-24T10:11:31.999Z</time></trkpt><trkpt lat="47.739501387214176" lon="-1.8437521053455177"><ele>8.0</ele><time>2026-03-24T10:11:32.999Z</time></trkpt><trkpt lat="47.739568127917664" lon="-1.843673458285614"><ele>8.666666666666668</ele><time>2026-03-24T10:11:33.999Z</time></trkpt><trkpt lat="47.73964587096969" lon="-1.8436186047389058"><ele>9.333333333333334</ele><time>2026-03-24T10:11:34.999Z</time></trkpt><trkpt lat="47.73972186980517" lon="-1.8435633887669738"><ele>10.0</ele><time>2026-03-24T10:11:35.999Z</time></trkpt><trkpt lat="47.73979564245619" lon="-1.8435247349689297"><ele>10.0</ele><time>2026-03-24T10:11:36.999Z</time></trkpt><trkpt lat="47.739876148586525" lon="-1.843465278117218"><ele>10.0</ele><time>2026-03-24T10:11:37.999Z</time></trkpt><trkpt lat="47.73996576705837" lon="-1.8434077119223715"><ele>10.0</ele><time>2026-03-24T10:11:38.999Z</time></trkpt><trkpt lat="47.740058572644124" lon="-1.8433540813096103"><ele>10.0</ele><time>2026-03-24T10:11:39.999Z</time></trkpt><trkpt lat="47.74014380705605" lon="-1.843314816912433"><ele>10.0</ele><time>2026-03-24T10:11:40.999Z</time></trkpt><trkpt lat="47.740231102991636" lon="-1.8432835330596782"><ele>9.0</ele><time>2026-03-24T10:11:41.999Z</time></trkpt><trkpt lat="47.74034463762787" lon="-1.84324739327124"><ele>8.0</ele><time>2026-03-24T10:11:42.999Z</time></trkpt><trkpt lat="47.74044466601271" lon="-1.84317519248862"><ele>7.0</ele><time>2026-03-24T10:11:43.999Z</time></trkpt><trkpt lat="47.74056361728362" lon="-1.8431448547497455"><ele>6.0</ele><time>2026-03-24T10:11:44.999Z</time></trkpt><trkpt lat="47.74066465654595" lon="-1.8430976993700519"><ele>6.0</ele><time>2026-03-24T10:11:45.999Z</time></trkpt><trkpt lat="47.740748342425405" lon="-1.8430616497721133"><ele>6.0</ele><time>2026-03-24T10:11:46.999Z</time></trkpt><trkpt lat="47.74083317572342" lon="-1.8430196543927624"><ele>6.0</ele><time>2026-03-24T10:11:47.999Z</time></trkpt><trkpt lat="47.740911645196135" lon="-1.842944555998459"><ele>6.0</ele><time>2026-03-24T10:11:48.999Z</time></trkpt><trkpt lat="47.740988961390215" lon="-1.8428683972734659"><ele>6.0</ele><time>2026-03-24T10:11:49.999Z</time></trkpt><trkpt lat="47.74107226731788" lon="-1.8427730370153612"><ele>6.0</ele><time>2026-03-24T10:11:51.999Z</time></trkpt><trkpt lat="47.74117098827269" lon="-1.842655696773016"><ele>6.0</ele><time>2026-03-24T10:11:54.999Z</time></trkpt><trkpt lat="47.741230273504385" lon="-1.8425806753193714"><ele>6.0</ele><time>2026-03-24T10:11:55.999Z</time></trkpt><trkpt lat="47.741296813608066" lon="-1.8424969427514695"><ele>6.0</ele><time>2026-03-24T10:11:56.999Z</time></trkpt><trkpt lat="47.7413531471518" lon="-1.8424229793113294"><ele>6.0</ele><time>2026-03-24T10:11:57.999Z</time></trkpt><trkpt lat="47.741421558560745" lon="-1.842332970086418"><ele>6.0</ele><time>2026-03-24T10:12:00.999Z</time></trkpt><trkpt lat="47.74150969579137" lon="-1.8422700983937466"><ele>6.0</ele><time>2026-03-24T10:12:02.999Z</time></trkpt><trkpt lat="47.7419235320656" lon="-1.8428843210224548"><ele>6.333333333333333</ele><time>2026-03-24T10:12:03.999Z</time></trkpt><trkpt lat="47.742010943380144" lon="-1.8429240594931704"><ele>6.666666666666666</ele><time>2026-03-24T10:12:04.998Z</time></trkpt><trkpt lat="47.74209470736184" lon="-1.8429623949158214"><ele>7.0</ele><time>2026-03-24T10:12:05.998Z</time></trkpt><trkpt lat="47.7421698125874" lon="-1.842944287569612"><ele>7.333333333333333</ele><time>2026-03-24T10:12:06.998Z</time></trkpt><trkpt lat="47.742254345195114" lon="-1.8428993646974012"><ele>7.666666666666666</ele><time>2026-03-24T10:12:07.998Z</time></trkpt><trkpt lat="47.742319976798385" lon="-1.8428560930361855"><ele>8.0</ele><time>2026-03-24T10:12:08.998Z</time></trkpt><trkpt lat="47.74239519191959" lon="-1.8427817097309453"><ele>7.999999999999999</ele><time>2026-03-24T10:12:09.998Z</time></trkpt><trkpt lat="47.742459690529245" lon="-1.8427380481428173"><ele>8.0</ele><time>2026-03-24T10:12:10.998Z</time></trkpt><trkpt lat="47.742543571786854" lon="-1.8426852223329158"><ele>8.0</ele><time>2026-03-24T10:12:11.998Z</time></trkpt><trkpt lat="47.742616150906386" lon="-1.8426175594322036"><ele>8.0</ele><time>2026-03-24T10:12:12.998Z</time></trkpt><trkpt lat="47.74270000276519" lon="-1.8425586235314244"><ele>7.999999999999999</ele><time>2026-03-24T10:12:13.998Z</time></trkpt><trkpt lat="47.742786511634726" lon="-1.8424983149787955"><ele>8.0</ele><time>2026-03-24T10:12:14.998Z</time></trkpt><trkpt lat="47.742860998795386" lon="-1.8424373883318101"><ele>8.166666666666666</ele><time>2026-03-24T10:12:15.998Z</time></trkpt><trkpt lat="47.74293977924203" lon="-1.8423609813610429"><ele>8.333333333333332</ele><time>2026-03-24T10:12:16.998Z</time></trkpt><trkpt lat="47.743011527249514" lon="-1.8423045197994468"><ele>8.5</ele><time>2026-03-24T10:12:17.998Z</time></trkpt><trkpt lat="47.74307128704931" lon="-1.842242252202832"><ele>8.666666666666666</ele><time>2026-03-24T10:12:18.998Z</time></trkpt><trkpt lat="47.74315401042584" lon="-1.84218005870364"><ele>8.833333333333334</ele><time>2026-03-24T10:12:19.998Z</time></trkpt><trkpt lat="47.743234813422475" lon="-1.8421372522254007"><ele>9.0</ele><time>2026-03-24T10:12:20.998Z</time></trkpt><trkpt lat="47.74330126613303" lon="-1.8420726092858082"><ele>9.0</ele><time>2026-03-24T10:12:21.998Z</time></trkpt><trkpt lat="47.74337310668578" lon="-1.8420364149179629"><ele>9.0</ele><time>2026-03-24T10:12:22.998Z</time></trkpt><trkpt lat="47.74344243840136" lon="-1.8419783607725388"><ele>9.0</ele><time>2026-03-24T10:12:23.998Z</time></trkpt><trkpt lat="47.74351169749867" lon="-1.8419198674178165"><ele>9.0</ele><time>2026-03-24T10:12:24.998Z</time></trkpt><trkpt lat="47.743590603816095" lon="-1.8418724313036132"><ele>9.0</ele><time>2026-03-24T10:12:25.998Z</time></trkpt><trkpt lat="47.743653732887076" lon="-1.8418146976897811"><ele>9.0</ele><time>2026-03-24T10:12:27Z</time></trkpt><trkpt lat="47.7437115660441" lon="-1.841765122552205"><ele>8.833333333333334</ele><time>2026-03-24T10:12:28Z</time></trkpt><trkpt lat="47.74376769861176" lon="-1.841721133815604"><ele>8.666666666666666</ele><time>2026-03-24T10:12:29Z</time></trkpt><trkpt lat="47.74385674909799" lon="-1.8416894207313892"><ele>8.5</ele><time>2026-03-24T10:12:30Z</time></trkpt><trkpt lat="47.743915045216326" lon="-1.841602538364863"><ele>8.333333333333332</ele><time>2026-03-24T10:12:31Z</time></trkpt><trkpt lat="47.743958049060296" lon="-1.841533238058131"><ele>8.166666666666666</ele><time>2026-03-24T10:12:32Z</time></trkpt><trkpt lat="47.74403168242059" lon="-1.8414714277571476"><ele>8.0</ele><time>2026-03-24T10:12:33Z</time></trkpt><trkpt lat="47.74410090022755" lon="-1.8414428060683516"><ele>7.999999999999999</ele><time>2026-03-24T10:12:34Z</time></trkpt><trkpt lat="47.74416395897337" lon="-1.8413900009690372"><ele>8.0</ele><time>2026-03-24T10:12:35Z</time></trkpt><trkpt lat="47.744221567488715" lon="-1.8413118663944894"><ele>8.0</ele><time>2026-03-24T10:12:36Z</time></trkpt><trkpt lat="47.74429706774891" lon="-1.8412616071333598"><ele>8.0</ele><time>2026-03-24T10:12:37Z</time></trkpt><trkpt lat="47.744365981477905" lon="-1.8412079475632082"><ele>7.999999999999999</ele><time>2026-03-24T10:12:38Z</time></trkpt><trkpt lat="47.74442490113024" lon="-1.841153786155686"><ele>8.0</ele><time>2026-03-24T10:12:39Z</time></trkpt><trkpt lat="47.74450514989487" lon="-1.841045942286696"><ele>8.0</ele><time>2026-03-24T10:12:41Z</time></trkpt><trkpt lat="47.74461392869725" lon="-1.8409761897364916"><ele>8.0</ele><time>2026-03-24T10:12:43Z</time></trkpt><trkpt lat="47.744681784440665" lon="-1.8409090671309993"><ele>8.0</ele><time>2026-03-24T10:12:44Z</time></trkpt><trkpt lat="47.74474998199385" lon="-1.8408496548174766"><ele>8.0</ele><time>2026-03-24T10:12:45Z</time></trkpt><trkpt lat="47.74480446248507" lon="-1.8407890769865387"><ele>8.0</ele><time>2026-03-24T10:12:46Z</time></trkpt><trkpt lat="47.744930731657455" lon="-1.8406825040451307"><ele>8.0</ele><time>2026-03-24T10:12:48Z</time></trkpt><trkpt lat="47.7450359137296" lon="-1.8405706599773797"><ele>8.0</ele><time>2026-03-24T10:12:50Z</time></trkpt><trkpt lat="47.745111656131954" lon="-1.84047440303981"><ele>8.0</ele><time>2026-03-24T10:12:51Z</time></trkpt><trkpt lat="47.74516954843614" lon="-1.8404038476157016"><ele>8.0</ele><time>2026-03-24T10:12:52Z</time></trkpt><trkpt lat="47.74524352784164" lon="-1.8403420778223496"><ele>8.0</ele><time>2026-03-24T10:12:53Z</time></trkpt><trkpt lat="47.74531485153838" lon="-1.8402879567290995"><ele>8.0</ele><time>2026-03-24T10:12:54Z</time></trkpt><trkpt lat="47.74537267526998" lon="-1.8402050720962848"><ele>7.999999999999999</ele><time>2026-03-24T10:12:55Z</time></trkpt><trkpt lat="47.745442281622935" lon="-1.8401621979364189"><ele>8.0</ele><time>2026-03-24T10:12:56Z</time></trkpt><trkpt lat="47.74551393018955" lon="-1.8401011183526808"><ele>8.0</ele><time>2026-03-24T10:12:57Z</time></trkpt><trkpt lat="47.74557130488649" lon="-1.84004580485892"><ele>7.999999999999999</ele><time>2026-03-24T10:12:58Z</time></trkpt><trkpt lat="47.745622211050616" lon="-1.8399787901492297"><ele>8.0</ele><time>2026-03-24T10:12:59Z</time></trkpt><trkpt lat="47.745671200996206" lon="-1.8399161197088412"><ele>8.0</ele><time>2026-03-24T10:13:00Z</time></trkpt><trkpt lat="47.74574071375334" lon="-1.8398668147915334"><ele>8.0</ele><time>2026-03-24T10:13:00.999Z</time></trkpt><trkpt lat="47.745806617926064" lon="-1.8398072938063827"><ele>8.0</ele><time>2026-03-24T10:13:01.999Z</time></trkpt><trkpt lat="47.745894821936425" lon="-1.8397530753216191"><ele>8.0</ele><time>2026-03-24T10:13:02.999Z</time></trkpt><trkpt lat="47.74596611818114" lon="-1.8396792130649242"><ele>8.0</ele><time>2026-03-24T10:13:03.999Z</time></trkpt><trkpt lat="47.7460347726723" lon="-1.8396265805006236"><ele>8.0</ele><time>2026-03-24T10:13:04.999Z</time></trkpt><trkpt lat="47.74615421406055" lon="-1.8395258848614857"><ele>7.999999999999999</ele><time>2026-03-24T10:13:06.999Z</time></trkpt><trkpt lat="47.74622318027923" lon="-1.8394751739608226"><ele>8.0</ele><time>2026-03-24T10:13:07.999Z</time></trkpt><trkpt lat="47.74630443573389" lon="-1.8393925696365254"><ele>8.0</ele><time>2026-03-24T10:13:08.999Z</time></trkpt><trkpt lat="47.74637546166725" lon="-1.8393238782320367"><ele>8.0</ele><time>2026-03-24T10:13:09.999Z</time></trkpt><trkpt lat="47.7464501337458" lon="-1.8392609185915896"><ele>7.999999999999999</ele><time>2026-03-24T10:13:10.999Z</time></trkpt><trkpt lat="47.74652139338456" lon="-1.8392037050160015"><ele>8.0</ele><time>2026-03-24T10:13:11.999Z</time></trkpt><trkpt lat="47.74658534410901" lon="-1.8391404215204004"><ele>8.200000000000001</ele><time>2026-03-24T10:13:12.999Z</time></trkpt><trkpt lat="47.746696931602486" lon="-1.8390048791295102"><ele>8.4</ele><time>2026-03-24T10:13:14.999Z</time></trkpt><trkpt lat="47.746762634836195" lon="-1.8389393559111622"><ele>8.600000000000001</ele><time>2026-03-24T10:13:15.999Z</time></trkpt><trkpt lat="47.74683701454699" lon="-1.838884323866194"><ele>8.8</ele><time>2026-03-24T10:13:16.999Z</time></trkpt><trkpt lat="47.746909298978665" lon="-1.8388241830846574"><ele>9.0</ele><time>2026-03-24T10:13:17.999Z</time></trkpt><trkpt lat="47.7469988463756" lon="-1.8387591640329288"><ele>9.166666666666666</ele><time>2026-03-24T10:13:18.999Z</time></trkpt><trkpt lat="47.74707799409119" lon="-1.8387018483166382"><ele>9.333333333333334</ele><time>2026-03-24T10:13:19.999Z</time></trkpt><trkpt lat="47.74714939491306" lon="-1.838628799526902"><ele>9.5</ele><time>2026-03-24T10:13:20.999Z</time></trkpt><trkpt lat="47.74723796905926" lon="-1.8385745439572814"><ele>9.666666666666668</ele><time>2026-03-24T10:13:21.999Z</time></trkpt><trkpt lat="47.747314808517935" lon="-1.8385016307653768"><ele>9.833333333333334</ele><time>2026-03-24T10:13:22.999Z</time></trkpt><trkpt lat="47.74739163794125" lon="-1.8384451163222053"><ele>10.0</ele><time>2026-03-24T10:13:23.999Z</time></trkpt><trkpt lat="47.747465926628855" lon="-1.8383963974433055"><ele>10.0</ele><time>2026-03-24T10:13:24.999Z</time></trkpt><trkpt lat="47.74753031911382" lon="-1.8383101871435163"><ele>10.0</ele><time>2026-03-24T10:13:25.999Z</time></trkpt><trkpt lat="47.74762047610475" lon="-1.838258499419421"><ele>10.0</ele><time>2026-03-24T10:13:26.999Z</time></trkpt><trkpt lat="47.74770663432258" lon="-1.8382093619001487"><ele>10.0</ele><time>2026-03-24T10:13:27.999Z</time></trkpt><trkpt lat="47.747777501249544" lon="-1.8381421706464938"><ele>10.0</ele><time>2026-03-24T10:13:28.999Z</time></trkpt><trkpt lat="47.747871909130986" lon="-1.838103540884372"><ele>10.8</ele><time>2026-03-24T10:13:29.999Z</time></trkpt><trkpt lat="47.74796416191983" lon="-1.838054011444093"><ele>11.6</ele><time>2026-03-24T10:13:30.999Z</time></trkpt><trkpt lat="47.7480622168499" lon="-1.838007735836864"><ele>12.399999999999999</ele><time>2026-03-24T10:13:31.999Z</time></trkpt><trkpt lat="47.748160497668664" lon="-1.8379586460989652"><ele>13.2</ele><time>2026-03-24T10:13:32.999Z</time></trkpt><trkpt lat="47.748234721294324" lon="-1.8379305885929242"><ele>14.0</ele><time>2026-03-24T10:13:33.999Z</time></trkpt><trkpt lat="47.74834313788716" lon="-1.8378691011461923"><ele>14.0</ele><time>2026-03-24T10:13:35.999Z</time></trkpt><trkpt lat="47.74841959047037" lon="-1.837808793877308"><ele>13.999999999999998</ele><time>2026-03-24T10:13:37.999Z</time></trkpt><trkpt lat="47.7484860278891" lon="-1.837810354313758"><ele>13.999999999999998</ele><time>2026-03-24T10:13:49.999Z</time></trkpt><trkpt lat="47.748602808573146" lon="-1.8377743614482414"><ele>14.0</ele><time>2026-03-24T10:13:51.999Z</time></trkpt><trkpt lat="47.74866253838919" lon="-1.8377277248654247"><ele>14.0</ele><time>2026-03-24T10:13:52.999Z</time></trkpt><trkpt lat="47.74877650832501" lon="-1.8376907877639777"><ele>14.2</ele><time>2026-03-24T10:13:54.999Z</time></trkpt><trkpt lat="47.74885892915297" lon="-1.8376679062671524"><ele>14.399999999999999</ele><time>2026-03-24T10:13:55.999Z</time></trkpt><trkpt lat="47.7489443997097" lon="-1.8376649613456864"><ele>14.6</ele><time>2026-03-24T10:13:56.999Z</time></trkpt><trkpt lat="47.749043756632" lon="-1.8376139689266464"><ele>14.8</ele><time>2026-03-24T10:13:57.999Z</time></trkpt><trkpt lat="47.74915274955679" lon="-1.8375939245628803"><ele>15.0</ele><time>2026-03-24T10:13:58.999Z</time></trkpt><trkpt lat="47.74925633607604" lon="-1.837548439837484"><ele>16.0</ele><time>2026-03-24T10:13:59.999Z</time></trkpt><trkpt lat="47.749405874763895" lon="-1.8375183012548426"><ele>17.0</ele><time>2026-03-24T10:14:00.999Z</time></trkpt><trkpt lat="47.74955792246386" lon="-1.837484795318699"><ele>18.0</ele><time>2026-03-24T10:14:01.999Z</time></trkpt><trkpt lat="47.74969255421579" lon="-1.8374567272935114"><ele>19.0</ele><time>2026-03-24T10:14:02.999Z</time></trkpt><trkpt lat="47.74984728151853" lon="-1.8374301143578093"><ele>19.0</ele><time>2026-03-24T10:14:03.999Z</time></trkpt><trkpt lat="47.750020660078135" lon="-1.8373932638783659"><ele>19.0</ele><time>2026-03-24T10:14:04.999Z</time></trkpt><trkpt lat="47.75019020568359" lon="-1.8373479093290899"><ele>19.0</ele><time>2026-03-24T10:14:05.999Z</time></trkpt><trkpt lat="47.75037224413131" lon="-1.8372694118816755"><ele>20.0</ele><time>2026-03-24T10:14:06.999Z</time></trkpt><trkpt lat="47.750518594394705" lon="-1.8371601393657255"><ele>21.0</ele><time>2026-03-24T10:14:07.999Z</time></trkpt><trkpt lat="47.750637315384076" lon="-1.837069971306924"><ele>22.0</ele><time>2026-03-24T10:14:08.998Z</time></trkpt><trkpt lat="47.75074746588712" lon="-1.836968298547568"><ele>23.0</ele><time>2026-03-24T10:14:09.998Z</time></trkpt><trkpt lat="47.750860292434396" lon="-1.8368676949882303"><ele>22.799999999999997</ele><time>2026-03-24T10:14:10.998Z</time></trkpt><trkpt lat="47.75095396702963" lon="-1.8367812398498704"><ele>22.6</ele><time>2026-03-24T10:14:11.998Z</time></trkpt><trkpt lat="47.75103957991845" lon="-1.8367042700255287"><ele>22.4</ele><time>2026-03-24T10:14:12.998Z</time></trkpt><trkpt lat="47.75112441690499" lon="-1.8366262918371836"><ele>22.200000000000003</ele><time>2026-03-24T10:14:13.998Z</time></trkpt><trkpt lat="47.75121926748621" lon="-1.8365189535732056"><ele>22.0</ele><time>2026-03-24T10:14:14.998Z</time></trkpt><trkpt lat="47.7513535484379" lon="-1.8364635146522899"><ele>22.0</ele><time>2026-03-24T10:14:15.998Z</time></trkpt><trkpt lat="47.75146079312876" lon="-1.8364029108272526"><ele>22.0</ele><time>2026-03-24T10:14:16.998Z</time></trkpt><trkpt lat="47.75159029825634" lon="-1.8363822226669022"><ele>22.0</ele><time>2026-03-24T10:14:17.998Z</time></trkpt><trkpt lat="47.75168392950391" lon="-1.8362493736395213"><ele>22.0</ele><time>2026-03-24T10:14:18.998Z</time></trkpt><trkpt lat="47.75183646880011" lon="-1.836404531193759"><ele>23.25</ele><time>2026-03-24T10:14:19.998Z</time></trkpt><trkpt lat="47.751946307762445" lon="-1.8364649594553102"><ele>24.5</ele><time>2026-03-24T10:14:20.998Z</time></trkpt><trkpt lat="47.752062316755584" lon="-1.8365579224696"><ele>25.75</ele><time>2026-03-24T10:14:21.998Z</time></trkpt><trkpt lat="47.75219541388369" lon="-1.8366419526723725"><ele>27.0</ele><time>2026-03-24T10:14:22.998Z</time></trkpt><trkpt lat="47.75229747259818" lon="-1.8367131158704093"><ele>27.0</ele><time>2026-03-24T10:14:23.998Z</time></trkpt><trkpt lat="47.752424576310766" lon="-1.836646428166232"><ele>27.000000000000004</ele><time>2026-03-24T10:14:24.998Z</time></trkpt><trkpt lat="47.7525180478523" lon="-1.836682124035787"><ele>27.000000000000004</ele><time>2026-03-24T10:14:25.998Z</time></trkpt><trkpt lat="47.75258018201552" lon="-1.8367058567125136"><ele>27.0</ele><time>2026-03-24T10:14:26.998Z</time></trkpt><trkpt lat="47.75264799796783" lon="-1.8367317596931807"><ele>27.0</ele><time>2026-03-24T10:14:27.998Z</time></trkpt><trkpt lat="47.752623786222706" lon="-1.8365813173946492"><ele>27.0</ele><time>2026-03-24T10:14:30.998Z</time></trkpt><trkpt lat="47.752602652851714" lon="-1.8364426459016887"><ele>27.000000000000004</ele><time>2026-03-24T10:14:31.998Z</time></trkpt><trkpt lat="47.75255918152244" lon="-1.8363217025400222"><ele>27.000000000000004</ele><time>2026-03-24T10:14:33Z</time></trkpt><trkpt lat="47.75252573391008" lon="-1.8361656015803294"><ele>27.0</ele><time>2026-03-24T10:14:34Z</time></trkpt><trkpt lat="47.75247792645544" lon="-1.8360222216837379"><ele>27.0</ele><time>2026-03-24T10:14:35Z</time></trkpt><trkpt lat="47.75242146688181" lon="-1.8358923409958168"><ele>27.200000000000003</ele><time>2026-03-24T10:14:36Z</time></trkpt><trkpt lat="47.75239482001021" lon="-1.8357846933078243"><ele>27.400000000000002</ele><time>2026-03-24T10:14:37Z</time></trkpt><trkpt lat="47.75236809478091" lon="-1.8356968738188346"><ele>27.599999999999998</ele><time>2026-03-24T10:14:38Z</time></trkpt><trkpt lat="47.75246013365588" lon="-1.8354459014041027"><ele>27.799999999999997</ele><time>2026-03-24T10:14:40Z</time></trkpt><trkpt lat="47.752521000582774" lon="-1.8353311633193907"><ele>28.0</ele><time>2026-03-24T10:14:41Z</time></trkpt><trkpt lat="47.752575777638825" lon="-1.8352144478020804"><ele>28.599999999999998</ele><time>2026-03-24T10:14:42Z</time></trkpt><trkpt lat="47.75263163997195" lon="-1.8350960440292894"><ele>29.199999999999996</ele><time>2026-03-24T10:14:43Z</time></trkpt><trkpt lat="47.75268245200757" lon="-1.8349543707957425"><ele>29.8</ele><time>2026-03-24T10:14:44Z</time></trkpt><trkpt lat="47.752720894164455" lon="-1.8348112204271643"><ele>30.4</ele><time>2026-03-24T10:14:45Z</time></trkpt><trkpt lat="47.75278851513243" lon="-1.8347175506531423"><ele>31.0</ele><time>2026-03-24T10:14:46Z</time></trkpt><trkpt lat="47.75284286231438" lon="-1.834644748093244"><ele>35.8</ele><time>2026-03-24T10:14:47Z</time></trkpt><trkpt lat="47.752893247935305" lon="-1.8345688419262969"><ele>40.6</ele><time>2026-03-24T10:14:48Z</time></trkpt><trkpt lat="47.75296557128677" lon="-1.834498004396883"><ele>45.4</ele><time>2026-03-24T10:14:49Z</time></trkpt><trkpt lat="47.75305756226213" lon="-1.8343990705275044"><ele>50.2</ele><time>2026-03-24T10:14:50Z</time></trkpt><trkpt lat="47.75316517442037" lon="-1.8343836402929425"><ele>55.0</ele><time>2026-03-24T10:14:51Z</time></trkpt><trkpt lat="47.75323978070713" lon="-1.8343454552491927"><ele>53.75</ele><time>2026-03-24T10:14:52Z</time></trkpt><trkpt lat="47.753334958833236" lon="-1.8342862093823273"><ele>52.5</ele><time>2026-03-24T10:14:53Z</time></trkpt><trkpt lat="47.753440030280736" lon="-1.8342139643021784"><ele>51.25</ele><time>2026-03-24T10:14:54Z</time></trkpt><trkpt lat="47.75355265790447" lon="-1.834128111221403"><ele>50.0</ele><time>2026-03-24T10:14:55Z</time></trkpt><trkpt lat="47.75349348394105" lon="-1.8333175684814442"><ele>52.0</ele><time>2026-03-24T10:14:56Z</time></trkpt><trkpt lat="47.75358040058907" lon="-1.8331634080294397"><ele>54.0</ele><time>2026-03-24T10:14:57Z</time></trkpt><trkpt lat="47.75365040369785" lon="-1.8330063699127697"><ele>56.0</ele><time>2026-03-24T10:14:58Z</time></trkpt><trkpt lat="47.75372151913092" lon="-1.8328662520657961"><ele>58.0</ele><time>2026-03-24T10:14:59Z</time></trkpt><trkpt lat="47.753795461480365" lon="-1.8327207928045623"><ele>56.0</ele><time>2026-03-24T10:15:00Z</time></trkpt><trkpt lat="47.75387149195588" lon="-1.8325814899952244"><ele>54.0</ele><time>2026-03-24T10:15:01Z</time></trkpt><trkpt lat="47.75395127422798" lon="-1.8324205533816647"><ele>52.0</ele><time>2026-03-24T10:15:02Z</time></trkpt><trkpt lat="47.754032257893975" lon="-1.832278663024453"><ele>50.0</ele><time>2026-03-24T10:15:03Z</time></trkpt><trkpt lat="47.75412240037726" lon="-1.8321197402556355"><ele>50.0</ele><time>2026-03-24T10:15:04Z</time></trkpt><trkpt lat="47.754200514779505" lon="-1.8319662311106515"><ele>50.0</ele><time>2026-03-24T10:15:05Z</time></trkpt><trkpt lat="47.75429235957517" lon="-1.8318063071670174"><ele>50.0</ele><time>2026-03-24T10:15:06Z</time></trkpt><trkpt lat="47.754380091844745" lon="-1.8316619584332248"><ele>50.0</ele><time>2026-03-24T10:15:07Z</time></trkpt><trkpt lat="47.7544588301685" lon="-1.8314448885962047"><ele>51.0</ele><time>2026-03-24T10:15:08Z</time></trkpt><trkpt lat="47.75454165944492" lon="-1.8312686055030947"><ele>52.0</ele><time>2026-03-24T10:15:09Z</time></trkpt><trkpt lat="47.7545933839144" lon="-1.83117130897493"><ele>53.0</ele><time>2026-03-24T10:15:10Z</time></trkpt><trkpt lat="47.754645355282314" lon="-1.8310762396400733"><ele>54.0</ele><time>2026-03-24T10:15:11Z</time></trkpt><trkpt lat="47.75471999478418" lon="-1.8309488567523018"><ele>55.0</ele><time>2026-03-24T10:15:13Z</time></trkpt><trkpt lat="47.754762854638614" lon="-1.83086867574896"><ele>52.8</ele><time>2026-03-24T10:15:13.999Z</time></trkpt><trkpt lat="47.754805005640996" lon="-1.830779033476784"><ele>50.6</ele><time>2026-03-24T10:15:14.999Z</time></trkpt><trkpt lat="47.754864475544125" lon="-1.8306979702050288"><ele>48.400000000000006</ele><time>2026-03-24T10:15:15.999Z</time></trkpt><trkpt lat="47.75493251306185" lon="-1.8305599717193721"><ele>46.2</ele><time>2026-03-24T10:15:17.999Z</time></trkpt><trkpt lat="47.754988297519844" lon="-1.8304672128168258"><ele>44.0</ele><time>2026-03-24T10:15:20.999Z</time></trkpt><trkpt lat="47.755084288617724" lon="-1.8304961908975625"><ele>44.0</ele><time>2026-03-24T10:16:33.998Z</time></trkpt><trkpt lat="47.75521314197789" lon="-1.8305560203797624"><ele>44.0</ele><time>2026-03-24T10:16:35.998Z</time></trkpt><trkpt lat="47.7552696202093" lon="-1.8306112609662333"><ele>44.0</ele><time>2026-03-24T10:16:36.998Z</time></trkpt><trkpt lat="47.7553229467876" lon="-1.8306789447915162"><ele>44.0</ele><time>2026-03-24T10:16:37.998Z</time></trkpt><trkpt lat="47.75539376451819" lon="-1.8307075161751587"><ele>44.0</ele><time>2026-03-24T10:16:39Z</time></trkpt><trkpt lat="47.7554528415348" lon="-1.8307686651592487"><ele>44.0</ele><time>2026-03-24T10:16:40Z</time></trkpt><trkpt lat="47.755507503146895" lon="-1.830824556583178"><ele>44.0</ele><time>2026-03-24T10:16:41Z</time></trkpt><trkpt lat="47.75556866746215" lon="-1.8308804891596395"><ele>44.0</ele><time>2026-03-24T10:16:42Z</time></trkpt><trkpt lat="47.75587700584459" lon="-1.8306043172409598"><ele>44.0</ele><time>2026-03-24T10:16:44Z</time></trkpt><trkpt lat="47.75596292852342" lon="-1.830587024598037"><ele>43.5</ele><time>2026-03-24T10:16:45Z</time></trkpt><trkpt lat="47.75605254832934" lon="-1.830572428021489"><ele>43.0</ele><time>2026-03-24T10:16:46Z</time></trkpt><trkpt lat="47.75612703090938" lon="-1.8305627284483943"><ele>42.5</ele><time>2026-03-24T10:16:47Z</time></trkpt><trkpt lat="47.756192077954736" lon="-1.830555452988621"><ele>42.0</ele><time>2026-03-24T10:16:48Z</time></trkpt><trkpt lat="47.75631325075296" lon="-1.8305344390777893"><ele>41.5</ele><time>2026-03-24T10:16:50Z</time></trkpt><trkpt lat="47.75637980156008" lon="-1.830517559188003"><ele>41.0</ele><time>2026-03-24T10:16:51Z</time></trkpt><trkpt lat="47.75644948529208" lon="-1.8305066395284846"><ele>41.0</ele><time>2026-03-24T10:16:52Z</time></trkpt><trkpt lat="47.756524469200585" lon="-1.8304928469095496"><ele>41.0</ele><time>2026-03-24T10:16:53Z</time></trkpt><trkpt lat="47.75660683714025" lon="-1.8304772704450656"><ele>41.0</ele><time>2026-03-24T10:16:54Z</time></trkpt><trkpt lat="47.75670968097911" lon="-1.8304633576647045"><ele>41.0</ele><time>2026-03-24T10:16:55Z</time></trkpt><trkpt lat="47.756840156657965" lon="-1.8304409128722454"><ele>41.0</ele><time>2026-03-24T10:16:56Z</time></trkpt><trkpt lat="47.756956960128726" lon="-1.8304360666905801"><ele>40.25</ele><time>2026-03-24T10:16:57Z</time></trkpt><trkpt lat="47.75706781176128" lon="-1.8304274521450747"><ele>39.5</ele><time>2026-03-24T10:16:58Z</time></trkpt><trkpt lat="47.75718342439456" lon="-1.8304205026173554"><ele>38.75</ele><time>2026-03-24T10:16:59Z</time></trkpt><trkpt lat="47.757298635419815" lon="-1.8304127996370865"><ele>38.0</ele><time>2026-03-24T10:17:00Z</time></trkpt><trkpt lat="47.75741333545096" lon="-1.830388285015876"><ele>38.0</ele><time>2026-03-24T10:17:01Z</time></trkpt><trkpt lat="47.75755479723915" lon="-1.8303832023518882"><ele>38.0</ele><time>2026-03-24T10:17:02Z</time></trkpt><trkpt lat="47.757648960462106" lon="-1.8303475622483212"><ele>38.0</ele><time>2026-03-24T10:17:03Z</time></trkpt><trkpt lat="47.757747492479204" lon="-1.8303088274520336"><ele>38.0</ele><time>2026-03-24T10:17:04Z</time></trkpt><trkpt lat="47.757858247959405" lon="-1.8302892057691222"><ele>37.666666666666664</ele><time>2026-03-24T10:17:05Z</time></trkpt><trkpt lat="47.75793649661335" lon="-1.8302828054937976"><ele>37.33333333333333</ele><time>2026-03-24T10:17:06Z</time></trkpt><trkpt lat="47.75802410373874" lon="-1.8302857106641337"><ele>37.0</ele><time>2026-03-24T10:17:07Z</time></trkpt><trkpt lat="47.7581118176286" lon="-1.8302660018797485"><ele>36.666666666666664</ele><time>2026-03-24T10:17:08Z</time></trkpt><trkpt lat="47.75817916650818" lon="-1.8302698319028963"><ele>36.333333333333336</ele><time>2026-03-24T10:17:09Z</time></trkpt><trkpt lat="47.75825842442251" lon="-1.8303495576541395"><ele>36.0</ele><time>2026-03-24T10:17:11Z</time></trkpt><trkpt lat="47.758287054554295" lon="-1.8305300611338262"><ele>36.0</ele><time>2026-03-24T10:17:13Z</time></trkpt><trkpt lat="47.75828401027233" lon="-1.8306919799636763"><ele>36.0</ele><time>2026-03-24T10:17:14Z</time></trkpt><trkpt lat="47.75829398930436" lon="-1.8308547573410587"><ele>36.0</ele><time>2026-03-24T10:17:15Z</time></trkpt><trkpt lat="47.758303608528486" lon="-1.8310466053569312"><ele>36.0</ele><time>2026-03-24T10:17:16Z</time></trkpt><trkpt lat="47.75831397891912" lon="-1.8312751035208485"><ele>36.666666666666664</ele><time>2026-03-24T10:17:17Z</time></trkpt><trkpt lat="47.75831114654116" lon="-1.831520735136799"><ele>37.33333333333333</ele><time>2026-03-24T10:17:18Z</time></trkpt><trkpt lat="47.75829384602436" lon="-1.831790025891161"><ele>38.0</ele><time>2026-03-24T10:17:19Z</time></trkpt><trkpt lat="47.758284223558796" lon="-1.8320560082052337"><ele>39.33333333333333</ele><time>2026-03-24T10:17:20Z</time></trkpt><trkpt lat="47.758267558095326" lon="-1.8323375134862792"><ele>40.666666666666664</ele><time>2026-03-24T10:17:21Z</time></trkpt><trkpt lat="47.758259840771224" lon="-1.8326532925242058"><ele>42.0</ele><time>2026-03-24T10:17:22Z</time></trkpt><trkpt lat="47.75824473268768" lon="-1.8329896158553336"><ele>44.5</ele><time>2026-03-24T10:17:23Z</time></trkpt><trkpt lat="47.75823822477307" lon="-1.8333713722130038"><ele>47.0</ele><time>2026-03-24T10:17:24Z</time></trkpt><trkpt lat="47.758227886986724" lon="-1.833687572392494"><ele>47.75</ele><time>2026-03-24T10:17:25Z</time></trkpt><trkpt lat="47.75822333521208" lon="-1.8339363309468832"><ele>48.5</ele><time>2026-03-24T10:17:26Z</time></trkpt><trkpt lat="47.75822208807574" lon="-1.834147541567033"><ele>49.25</ele><time>2026-03-24T10:17:26.999Z</time></trkpt><trkpt lat="47.758224058840334" lon="-1.8343201326431104"><ele>50.0</ele><time>2026-03-24T10:17:27.999Z</time></trkpt><trkpt lat="47.758228059584866" lon="-1.8344316189329588"><ele>50.4</ele><time>2026-03-24T10:17:28.999Z</time></trkpt><trkpt lat="47.75820753005989" lon="-1.8345492390513063"><ele>50.8</ele><time>2026-03-24T10:17:29.999Z</time></trkpt><trkpt lat="47.75820067190576" lon="-1.834647106229938"><ele>51.2</ele><time>2026-03-24T10:17:30.999Z</time></trkpt><trkpt lat="47.75820041077851" lon="-1.834783779617414"><ele>51.6</ele><time>2026-03-24T10:17:32.999Z</time></trkpt><trkpt lat="47.75813405937438" lon="-1.8348878331478538"><ele>52.0</ele><time>2026-03-24T10:17:35.999Z</time></trkpt><trkpt lat="47.758022494341354" lon="-1.8349451807970274"><ele>52.0</ele><time>2026-03-24T10:17:37.999Z</time></trkpt><trkpt lat="47.75792063421847" lon="-1.8349475177869239"><ele>52.0</ele><time>2026-03-24T10:17:38.999Z</time></trkpt><trkpt lat="47.757789246278584" lon="-1.8349159871980785"><ele>52.0</ele><time>2026-03-24T10:17:39.999Z</time></trkpt><trkpt lat="47.757666215195634" lon="-1.834898434803435"><ele>52.0</ele><time>2026-03-24T10:17:40.999Z</time></trkpt><trkpt lat="47.7575494553504" lon="-1.834889414406648"><ele>52.6</ele><time>2026-03-24T10:17:41.999Z</time></trkpt><trkpt lat="47.757425467608634" lon="-1.834872956487018"><ele>53.2</ele><time>2026-03-24T10:17:42.999Z</time></trkpt><trkpt lat="47.75731716837001" lon="-1.8348375720669075"><ele>53.8</ele><time>2026-03-24T10:17:43.999Z</time></trkpt><trkpt lat="47.757248287181106" lon="-1.8348065197883392"><ele>54.4</ele><time>2026-03-24T10:17:44.999Z</time></trkpt><trkpt lat="47.75716671710551" lon="-1.834766878285917"><ele>55.0</ele><time>2026-03-24T10:17:46.999Z</time></trkpt><trkpt lat="47.7570154545071" lon="-1.835056042971491"><ele>55.8</ele><time>2026-03-24T10:17:49.999Z</time></trkpt><trkpt lat="47.756969623281115" lon="-1.8351794126787269"><ele>56.6</ele><time>2026-03-24T10:17:50.999Z</time></trkpt><trkpt lat="47.756922095765646" lon="-1.8353104504639666"><ele>57.400000000000006</ele><time>2026-03-24T10:17:51.999Z</time></trkpt><trkpt lat="47.75687936053575" lon="-1.8354238335041517"><ele>58.2</ele><time>2026-03-24T10:17:52.999Z</time></trkpt><trkpt lat="47.756840493484695" lon="-1.8355635807598545"><ele>59.0</ele><time>2026-03-24T10:17:53.999Z</time></trkpt><trkpt lat="47.75681929511641" lon="-1.835716241370036"><ele>59.2</ele><time>2026-03-24T10:17:54.999Z</time></trkpt><trkpt lat="47.75681545602723" lon="-1.835853512061908"><ele>59.400000000000006</ele><time>2026-03-24T10:17:55.999Z</time></trkpt><trkpt lat="47.75683337926917" lon="-1.836005770894548"><ele>59.6</ele><time>2026-03-24T10:17:56.999Z</time></trkpt><trkpt lat="47.756856316570314" lon="-1.8361481695243136"><ele>59.8</ele><time>2026-03-24T10:17:57.999Z</time></trkpt><trkpt lat="47.75686988030749" lon="-1.8362942559279793"><ele>60.0</ele><time>2026-03-24T10:17:58.999Z</time></trkpt><trkpt lat="47.756893028665864" lon="-1.8364486076991324"><ele>60.0</ele><time>2026-03-24T10:17:59.999Z</time></trkpt><trkpt lat="47.75692924036885" lon="-1.836619789058656"><ele>60.0</ele><time>2026-03-24T10:18:00.999Z</time></trkpt><trkpt lat="47.75695522480235" lon="-1.836819463030378"><ele>60.0</ele><time>2026-03-24T10:18:01.999Z</time></trkpt><trkpt lat="47.756989764030614" lon="-1.8370017914097287"><ele>60.0</ele><time>2026-03-24T10:18:02.999Z</time></trkpt><trkpt lat="47.75702107176171" lon="-1.8371678161555438"><ele>60.0</ele><time>2026-03-24T10:18:03.999Z</time></trkpt><trkpt lat="47.75703251656398" lon="-1.8373271733300862"><ele>60.0</ele><time>2026-03-24T10:18:04.999Z</time></trkpt><trkpt lat="47.75705312178152" lon="-1.8374585273097293"><ele>60.0</ele><time>2026-03-24T10:18:05.999Z</time></trkpt><trkpt lat="47.75708287143525" lon="-1.837573077318463"><ele>60.0</ele><time>2026-03-24T10:18:06.999Z</time></trkpt><trkpt lat="47.75710511961934" lon="-1.8377012107887805"><ele>60.0</ele><time>2026-03-24T10:18:07.999Z</time></trkpt><trkpt lat="47.75713066655047" lon="-1.8378207403714788"><ele>59.42857142857143</ele><time>2026-03-24T10:18:08.999Z</time></trkpt><trkpt lat="47.75714700725059" lon="-1.8379316118288418"><ele>58.857142857142854</ele><time>2026-03-24T10:18:09.999Z</time></trkpt><trkpt lat="47.75716050362945" lon="-1.8380523923420313"><ele>58.285714285714285</ele><time>2026-03-24T10:18:10.999Z</time></trkpt><trkpt lat="47.75718277399241" lon="-1.8381574367511575"><ele>57.714285714285715</ele><time>2026-03-24T10:18:11.999Z</time></trkpt><trkpt lat="47.757196847441925" lon="-1.8382560673524135"><ele>57.14285714285714</ele><time>2026-03-24T10:18:12.999Z</time></trkpt><trkpt lat="47.75721428509992" lon="-1.8383763605707093"><ele>56.57142857142857</ele><time>2026-03-24T10:18:14.999Z</time></trkpt><trkpt lat="47.75720644706811" lon="-1.8384729244029552"><ele>56.0</ele><time>2026-03-24T10:18:30.999Z</time></trkpt><trkpt lat="47.75726990041823" lon="-1.8385071481072266"><ele>56.0</ele><time>2026-03-24T10:18:31.999Z</time></trkpt><trkpt lat="47.7573484214383" lon="-1.8385336279722762"><ele>55.99999999999999</ele><time>2026-03-24T10:18:32.999Z</time></trkpt><trkpt lat="47.75741683407343" lon="-1.8385797379540754"><ele>55.99999999999999</ele><time>2026-03-24T10:18:33.999Z</time></trkpt><trkpt lat="47.75750739202537" lon="-1.8386174862748783"><ele>56.0</ele><time>2026-03-24T10:18:34.999Z</time></trkpt><trkpt lat="47.75760302189885" lon="-1.8386867463872483"><ele>56.0</ele><time>2026-03-24T10:18:35.998Z</time></trkpt><trkpt lat="47.75771571828658" lon="-1.8387718314321366"><ele>56.0</ele><time>2026-03-24T10:18:36.998Z</time></trkpt><trkpt lat="47.75783444587622" lon="-1.8388493673363377"><ele>56.0</ele><time>2026-03-24T10:18:37.998Z</time></trkpt><trkpt lat="47.75794040321702" lon="-1.838919355954188"><ele>56.0</ele><time>2026-03-24T10:18:38.998Z</time></trkpt><trkpt lat="47.75803791123455" lon="-1.8389844969413653"><ele>56.0</ele><time>2026-03-24T10:18:39.998Z</time></trkpt><trkpt lat="47.7581418488527" lon="-1.8390517064355403"><ele>56.0</ele><time>2026-03-24T10:18:40.998Z</time></trkpt><trkpt lat="47.758250639749775" lon="-1.8391204086903428"><ele>56.0</ele><time>2026-03-24T10:18:41.998Z</time></trkpt><trkpt lat="47.758350386995154" lon="-1.8391878702667208"><ele>56.0</ele><time>2026-03-24T10:18:42.998Z</time></trkpt><trkpt lat="47.75845875809372" lon="-1.8392684178163416"><ele>56.0</ele><time>2026-03-24T10:18:44Z</time></trkpt><trkpt lat="47.758570281570826" lon="-1.839370102490061"><ele>56.75</ele><time>2026-03-24T10:18:45Z</time></trkpt><trkpt lat="47.75868044591685" lon="-1.8395102547086841"><ele>57.5</ele><time>2026-03-24T10:18:46Z</time></trkpt><trkpt lat="47.75877307038089" lon="-1.8396792707903815"><ele>58.25</ele><time>2026-03-24T10:18:47Z</time></trkpt><trkpt lat="47.75884710311066" lon="-1.8398431953127847"><ele>59.0</ele><time>2026-03-24T10:18:48Z</time></trkpt><trkpt lat="47.758908630517155" lon="-1.840027597263754"><ele>59.333333333333336</ele><time>2026-03-24T10:18:49Z</time></trkpt><trkpt lat="47.758979465122614" lon="-1.8402371559212947"><ele>59.66666666666667</ele><time>2026-03-24T10:18:50Z</time></trkpt><trkpt lat="47.759046872604706" lon="-1.840466562517172"><ele>60.0</ele><time>2026-03-24T10:18:51Z</time></trkpt><trkpt lat="47.75912275228989" lon="-1.8406864358142683"><ele>60.0</ele><time>2026-03-24T10:18:52Z</time></trkpt><trkpt lat="47.75919928592665" lon="-1.840896572977334"><ele>60.0</ele><time>2026-03-24T10:18:53Z</time></trkpt><trkpt lat="47.75926620384737" lon="-1.841083412126356"><ele>60.0</ele><time>2026-03-24T10:18:54Z</time></trkpt><trkpt lat="47.75930541116659" lon="-1.8412512939179684"><ele>60.0</ele><time>2026-03-24T10:18:55Z</time></trkpt><trkpt lat="47.759345387678934" lon="-1.841383543911543"><ele>60.8</ele><time>2026-03-24T10:18:56Z</time></trkpt><trkpt lat="47.75938360799668" lon="-1.841502411175351"><ele>61.6</ele><time>2026-03-24T10:18:57Z</time></trkpt><trkpt lat="47.759414994310134" lon="-1.841601558079468"><ele>62.400000000000006</ele><time>2026-03-24T10:18:58Z</time></trkpt><trkpt lat="47.759408916213275" lon="-1.8417837071958412"><ele>63.2</ele><time>2026-03-24T10:19:00Z</time></trkpt><trkpt lat="47.75939294356927" lon="-1.8419316788157913"><ele>64.0</ele><time>2026-03-24T10:19:02Z</time></trkpt><trkpt lat="47.75931252581239" lon="-1.8419523357718617"><ele>63.99999999999999</ele><time>2026-03-24T10:19:03Z</time></trkpt><trkpt lat="47.759274478813204" lon="-1.8420275398344994"><ele>64.0</ele><time>2026-03-24T10:19:05Z</time></trkpt><trkpt lat="47.75934214634107" lon="-1.842053403915382"><ele>64.0</ele><time>2026-03-24T10:19:10Z</time></trkpt><trkpt lat="47.75938513383833" lon="-1.8421801512219615"><ele>64.0</ele><time>2026-03-24T10:19:21Z</time></trkpt><trkpt lat="47.75932265075888" lon="-1.8422377725925065"><ele>63.99999999999999</ele><time>2026-03-24T10:19:22Z</time></trkpt><trkpt lat="47.75927062439446" lon="-1.842334919489754"><ele>64.0</ele><time>2026-03-24T10:19:23Z</time></trkpt><trkpt lat="47.75920609514049" lon="-1.8424257950500598"><ele>64.0</ele><time>2026-03-24T10:19:24Z</time></trkpt><trkpt lat="47.759184566617215" lon="-1.8425536116145311"><ele>64.0</ele><time>2026-03-24T10:19:25Z</time></trkpt><trkpt lat="47.759117269920644" lon="-1.8426892260956165"><ele>64.0</ele><time>2026-03-24T10:19:26Z</time></trkpt><trkpt lat="47.75905190156781" lon="-1.8428701967435734"><ele>64.0</ele><time>2026-03-24T10:19:27Z</time></trkpt><trkpt lat="47.75901081172156" lon="-1.8430385016878577"><ele>64.0</ele><time>2026-03-24T10:19:28Z</time></trkpt><trkpt lat="47.75897842140599" lon="-1.8431489255926374"><ele>64.0</ele><time>2026-03-24T10:19:29Z</time></trkpt><trkpt lat="47.75894130331952" lon="-1.8432754676152876"><ele>64.0</ele><time>2026-03-24T10:19:29.999Z</time></trkpt><trkpt lat="47.75888051472275" lon="-1.8434675988664402"><ele>64.0</ele><time>2026-03-24T10:19:30.999Z</time></trkpt><trkpt lat="47.75882618567212" lon="-1.8436338191539166"><ele>64.0</ele><time>2026-03-24T10:19:31.999Z</time></trkpt><trkpt lat="47.75875859184219" lon="-1.843853241341124"><ele>64.0</ele><time>2026-03-24T10:19:32.999Z</time></trkpt><trkpt lat="47.75869195461674" lon="-1.8440861653147524"><ele>64.0</ele><time>2026-03-24T10:19:33.999Z</time></trkpt><trkpt lat="47.75865337280775" lon="-1.8443130370415382"><ele>64.0</ele><time>2026-03-24T10:19:34.999Z</time></trkpt><trkpt lat="47.758641372818" lon="-1.8445149622262853"><ele>64.0</ele><time>2026-03-24T10:19:35.999Z</time></trkpt><trkpt lat="47.758649546476335" lon="-1.844409385478718"><ele>64.0</ele><time>2026-03-24T10:19:36.999Z</time></trkpt><trkpt lat="47.75862825041578" lon="-1.8446818108968384"><ele>64.0</ele><time>2026-03-24T10:19:37.999Z</time></trkpt><trkpt lat="47.758605870050374" lon="-1.8449440467636897"><ele>64.0</ele><time>2026-03-24T10:19:38.999Z</time></trkpt><trkpt lat="47.75858026674837" lon="-1.8452088653960148"><ele>64.33333333333333</ele><time>2026-03-24T10:19:39.999Z</time></trkpt><trkpt lat="47.758551347361134" lon="-1.8454652146953512"><ele>64.66666666666667</ele><time>2026-03-24T10:19:40.999Z</time></trkpt><trkpt lat="47.75850539451718" lon="-1.8457007172772375"><ele>65.0</ele><time>2026-03-24T10:19:41.999Z</time></trkpt><trkpt lat="47.75841730633882" lon="-1.8459253996680884"><ele>63.0</ele><time>2026-03-24T10:19:42.999Z</time></trkpt><trkpt lat="47.758323528918986" lon="-1.846130157633151"><ele>61.0</ele><time>2026-03-24T10:19:43.999Z</time></trkpt><trkpt lat="47.75822553747764" lon="-1.846342729293364"><ele>59.0</ele><time>2026-03-24T10:19:44.999Z</time></trkpt><trkpt lat="47.75812935032474" lon="-1.8465400869242286"><ele>59.0</ele><time>2026-03-24T10:19:45.999Z</time></trkpt><trkpt lat="47.75803217590421" lon="-1.8467394702438542"><ele>59.0</ele><time>2026-03-24T10:19:46.999Z</time></trkpt><trkpt lat="47.757926564437064" lon="-1.846954134716874"><ele>59.0</ele><time>2026-03-24T10:19:47.999Z</time></trkpt><trkpt lat="47.757815755377145" lon="-1.8471780322489157"><ele>60.333333333333336</ele><time>2026-03-24T10:19:48.999Z</time></trkpt><trkpt lat="47.75771028383381" lon="-1.8473911451781542"><ele>61.66666666666667</ele><time>2026-03-24T10:19:49.999Z</time></trkpt><trkpt lat="47.75760874901138" lon="-1.847597682706081"><ele>63.0</ele><time>2026-03-24T10:19:50.999Z</time></trkpt><trkpt lat="47.757508690276076" lon="-1.8478074975272567"><ele>64.66666666666667</ele><time>2026-03-24T10:19:51.999Z</time></trkpt><trkpt lat="47.75740762568646" lon="-1.848019421860197"><ele>66.33333333333334</ele><time>2026-03-24T10:19:52.999Z</time></trkpt><trkpt lat="47.75730596993963" lon="-1.848232059421699"><ele>68.0</ele><time>2026-03-24T10:19:53.999Z</time></trkpt><trkpt lat="47.75720345535887" lon="-1.8484447564491107"><ele>68.75</ele><time>2026-03-24T10:19:54.999Z</time></trkpt><trkpt lat="47.757110963065365" lon="-1.8486366592617807"><ele>69.5</ele><time>2026-03-24T10:19:55.999Z</time></trkpt><trkpt lat="47.75704247176908" lon="-1.8487943733742584"><ele>70.25</ele><time>2026-03-24T10:19:56.999Z</time></trkpt><trkpt lat="47.75696190134848" lon="-1.8489097300161836"><ele>71.0</ele><time>2026-03-24T10:19:57.999Z</time></trkpt><trkpt lat="47.75689715965697" lon="-1.8490163387080714"><ele>72.25</ele><time>2026-03-24T10:19:58.999Z</time></trkpt><trkpt lat="47.756840313546206" lon="-1.849104615937381"><ele>73.5</ele><time>2026-03-24T10:19:59.999Z</time></trkpt><trkpt lat="47.7567280624445" lon="-1.8491633233085485"><ele>74.75</ele><time>2026-03-24T10:20:00.999Z</time></trkpt><trkpt lat="47.756580762245385" lon="-1.8491268021769072"><ele>76.0</ele><time>2026-03-24T10:20:01.999Z</time></trkpt><trkpt lat="47.75644548356758" lon="-1.8491129659065149"><ele>76.0</ele><time>2026-03-24T10:20:02.999Z</time></trkpt><trkpt lat="47.756303902928195" lon="-1.849067538443939"><ele>76.0</ele><time>2026-03-24T10:20:03.999Z</time></trkpt><trkpt lat="47.75617181327429" lon="-1.8490220450896517"><ele>76.0</ele><time>2026-03-24T10:20:04.999Z</time></trkpt><trkpt lat="47.756071155056695" lon="-1.848993648414926"><ele>76.0</ele><time>2026-03-24T10:20:05.999Z</time></trkpt><trkpt lat="47.755968890380295" lon="-1.8489804159608398"><ele>76.2</ele><time>2026-03-24T10:20:06.999Z</time></trkpt><trkpt lat="47.75586468654387" lon="-1.8489702803713073"><ele>76.39999999999999</ele><time>2026-03-24T10:20:07.999Z</time></trkpt><trkpt lat="47.755756068873424" lon="-1.848951129514413"><ele>76.6</ele><time>2026-03-24T10:20:08.999Z</time></trkpt><trkpt lat="47.75564072127994" lon="-1.8489433824173938"><ele>76.8</ele><time>2026-03-24T10:20:09.999Z</time></trkpt><trkpt lat="47.755523836034314" lon="-1.8489246698077468"><ele>77.0</ele><time>2026-03-24T10:20:10.999Z</time></trkpt><trkpt lat="47.75540254877535" lon="-1.8489014442049536"><ele>77.0</ele><time>2026-03-24T10:20:11.999Z</time></trkpt><trkpt lat="47.755264310124204" lon="-1.848885019745619"><ele>77.0</ele><time>2026-03-24T10:20:12.999Z</time></trkpt><trkpt lat="47.75512323300742" lon="-1.8488575427912295"><ele>77.0</ele><time>2026-03-24T10:20:13.999Z</time></trkpt><trkpt lat="47.75495596869361" lon="-1.8488363186251273"><ele>77.0</ele><time>2026-03-24T10:20:14.999Z</time></trkpt><trkpt lat="47.75480553021742" lon="-1.8488115985883629"><ele>76.0</ele><time>2026-03-24T10:20:15.999Z</time></trkpt><trkpt lat="47.754652244818146" lon="-1.8487895409060722"><ele>75.0</ele><time>2026-03-24T10:20:16.999Z</time></trkpt><trkpt lat="47.7544905579073" lon="-1.8487660528836019"><ele>74.0</ele><time>2026-03-24T10:20:17.999Z</time></trkpt><trkpt lat="47.754326450306856" lon="-1.8487343308908493"><ele>72.0</ele><time>2026-03-24T10:20:18.999Z</time></trkpt><trkpt lat="47.754152792089045" lon="-1.8487089902191893"><ele>70.0</ele><time>2026-03-24T10:20:19.999Z</time></trkpt><trkpt lat="47.75398917462626" lon="-1.8486793984640215"><ele>68.0</ele><time>2026-03-24T10:20:20.999Z</time></trkpt><trkpt lat="47.75384787590613" lon="-1.848641695914934"><ele>68.0</ele><time>2026-03-24T10:20:21.999Z</time></trkpt><trkpt lat="47.753709713247105" lon="-1.8486137646937355"><ele>68.0</ele><time>2026-03-24T10:20:22.999Z</time></trkpt><trkpt lat="47.75356784758734" lon="-1.8485896605133985"><ele>68.0</ele><time>2026-03-24T10:20:23.999Z</time></trkpt><trkpt lat="47.75344420936753" lon="-1.848570469038693"><ele>68.0</ele><time>2026-03-24T10:20:24.999Z</time></trkpt><trkpt lat="47.75331533388381" lon="-1.8485470549644587"><ele>67.6</ele><time>2026-03-24T10:20:25.999Z</time></trkpt><trkpt lat="47.753188525740086" lon="-1.8485180867764097"><ele>67.19999999999999</ele><time>2026-03-24T10:20:26.999Z</time></trkpt><trkpt lat="47.75307855328801" lon="-1.8485048617090878"><ele>66.8</ele><time>2026-03-24T10:20:27.999Z</time></trkpt><trkpt lat="47.75299699501509" lon="-1.8485073516160386"><ele>66.39999999999999</ele><time>2026-03-24T10:20:28.999Z</time></trkpt><trkpt lat="47.752933179404394" lon="-1.8485369571376382"><ele>66.0</ele><time>2026-03-24T10:20:29.999Z</time></trkpt><trkpt lat="47.75291342336413" lon="-1.8488151957241494"><ele>66.0</ele><time>2026-03-24T10:20:32.999Z</time></trkpt><trkpt lat="47.75290143580348" lon="-1.8489471274490934"><ele>66.0</ele><time>2026-03-24T10:20:33.999Z</time></trkpt><trkpt lat="47.7528841774716" lon="-1.8491187080172404"><ele>66.0</ele><time>2026-03-24T10:20:34.999Z</time></trkpt><trkpt lat="47.75286686822511" lon="-1.8492907948802983"><ele>66.0</ele><time>2026-03-24T10:20:35.999Z</time></trkpt><trkpt lat="47.752837129392155" lon="-1.849427460892011"><ele>66.0</ele><time>2026-03-24T10:20:36.999Z</time></trkpt><trkpt lat="47.75285000065765" lon="-1.849558478966591"><ele>66.0</ele><time>2026-03-24T10:20:37.998Z</time></trkpt><trkpt lat="47.75283876680096" lon="-1.849668805944327"><ele>66.0</ele><time>2026-03-24T10:20:38.998Z</time></trkpt><trkpt lat="47.752830755462" lon="-1.8497696412190492"><ele>66.0</ele><time>2026-03-24T10:20:39.998Z</time></trkpt><trkpt lat="47.75281829831932" lon="-1.8499111972245552"><ele>66.0</ele><time>2026-03-24T10:20:41.998Z</time></trkpt><trkpt lat="47.752794673962974" lon="-1.8500618524657058"><ele>66.0</ele><time>2026-03-24T10:20:43.998Z</time></trkpt><trkpt lat="47.75277190068391" lon="-1.8502384958795963"><ele>66.16666666666667</ele><time>2026-03-24T10:20:45.998Z</time></trkpt><trkpt lat="47.75275767308199" lon="-1.85034053803131"><ele>66.33333333333333</ele><time>2026-03-24T10:20:46.998Z</time></trkpt><trkpt lat="47.75274633999751" lon="-1.8504625844570621"><ele>66.5</ele><time>2026-03-24T10:20:47.998Z</time></trkpt><trkpt lat="47.75274004653197" lon="-1.8506037839297749"><ele>66.66666666666666</ele><time>2026-03-24T10:20:48.998Z</time></trkpt><trkpt lat="47.75272689196792" lon="-1.85075127995112"><ele>66.83333333333333</ele><time>2026-03-24T10:20:50Z</time></trkpt><trkpt lat="47.752700308207025" lon="-1.8508907306926914"><ele>67.0</ele><time>2026-03-24T10:20:51Z</time></trkpt><trkpt lat="47.75268434288938" lon="-1.8510223479605308"><ele>68.0</ele><time>2026-03-24T10:20:52Z</time></trkpt><trkpt lat="47.752671448750206" lon="-1.8511659351424536"><ele>69.0</ele><time>2026-03-24T10:20:53Z</time></trkpt><trkpt lat="47.75265472236065" lon="-1.8513258490654951"><ele>70.0</ele><time>2026-03-24T10:20:54Z</time></trkpt><trkpt lat="47.75265185053594" lon="-1.8515033922112534"><ele>71.0</ele><time>2026-03-24T10:20:55Z</time></trkpt><trkpt lat="47.75262251490345" lon="-1.8517035527692933"><ele>70.75</ele><time>2026-03-24T10:20:56Z</time></trkpt><trkpt lat="47.75260779347093" lon="-1.8519040562527895"><ele>70.5</ele><time>2026-03-24T10:20:57Z</time></trkpt><trkpt lat="47.75258968226051" lon="-1.8521011294702545"><ele>70.25</ele><time>2026-03-24T10:20:58Z</time></trkpt><trkpt lat="47.75256541933511" lon="-1.8522966891152395"><ele>70.0</ele><time>2026-03-24T10:20:59Z</time></trkpt><trkpt lat="47.75254403654162" lon="-1.8524949986812431"><ele>70.0</ele><time>2026-03-24T10:21:00Z</time></trkpt><trkpt lat="47.75252148460625" lon="-1.8527055458477995"><ele>70.0</ele><time>2026-03-24T10:21:01Z</time></trkpt><trkpt lat="47.75249040518891" lon="-1.8529280212566055"><ele>70.0</ele><time>2026-03-24T10:21:02Z</time></trkpt><trkpt lat="47.75245993833321" lon="-1.8531645674562247"><ele>70.0</ele><time>2026-03-24T10:21:03Z</time></trkpt><trkpt lat="47.7524494250702" lon="-1.8534061119440708"><ele>70.0</ele><time>2026-03-24T10:21:04Z</time></trkpt><trkpt lat="47.752422040862804" lon="-1.853648821092896"><ele>70.0</ele><time>2026-03-24T10:21:05Z</time></trkpt><trkpt lat="47.752402766795626" lon="-1.8538734426701124"><ele>70.25</ele><time>2026-03-24T10:21:06Z</time></trkpt><trkpt lat="47.75238135681711" lon="-1.8540693779243878"><ele>70.5</ele><time>2026-03-24T10:21:07Z</time></trkpt><trkpt lat="47.75236218026312" lon="-1.8542788160002108"><ele>70.75</ele><time>2026-03-24T10:21:08Z</time></trkpt><trkpt lat="47.75233993088428" lon="-1.854502141967037"><ele>71.0</ele><time>2026-03-24T10:21:09Z</time></trkpt><trkpt lat="47.752320790137595" lon="-1.8547322369720867"><ele>71.33333333333334</ele><time>2026-03-24T10:21:10Z</time></trkpt><trkpt lat="47.75229888515575" lon="-1.8549552798914384"><ele>71.66666666666667</ele><time>2026-03-24T10:21:11Z</time></trkpt><trkpt lat="47.752270395332204" lon="-1.8551975969678514"><ele>72.0</ele><time>2026-03-24T10:21:12Z</time></trkpt><trkpt lat="47.75224143839073" lon="-1.8554426125445702"><ele>72.0</ele><time>2026-03-24T10:21:13Z</time></trkpt><trkpt lat="47.75221443749599" lon="-1.8556616770624599"><ele>72.0</ele><time>2026-03-24T10:21:14Z</time></trkpt><trkpt lat="47.75219101314669" lon="-1.8559084932174512"><ele>72.0</ele><time>2026-03-24T10:21:15Z</time></trkpt><trkpt lat="47.75216917750078" lon="-1.85615653337704"><ele>72.66666666666667</ele><time>2026-03-24T10:21:16Z</time></trkpt><trkpt lat="47.75213819188342" lon="-1.8564077084414026"><ele>73.33333333333334</ele><time>2026-03-24T10:21:17Z</time></trkpt><trkpt lat="47.75212382037617" lon="-1.8566787566886043"><ele>74.0</ele><time>2026-03-24T10:21:18Z</time></trkpt><trkpt lat="47.75209479574265" lon="-1.856967627393047"><ele>74.33333333333334</ele><time>2026-03-24T10:21:19Z</time></trkpt><trkpt lat="47.75205337802769" lon="-1.8572198172699512"><ele>74.66666666666667</ele><time>2026-03-24T10:21:20Z</time></trkpt><trkpt lat="47.752032651826774" lon="-1.8574891355091574"><ele>75.0</ele><time>2026-03-24T10:21:21Z</time></trkpt><trkpt lat="47.752003095917274" lon="-1.857765203976238"><ele>75.66666666666667</ele><time>2026-03-24T10:21:22Z</time></trkpt><trkpt lat="47.7519760445732" lon="-1.8580448212332306"><ele>76.33333333333334</ele><time>2026-03-24T10:21:23Z</time></trkpt><trkpt lat="47.75194592635198" lon="-1.8583272546924567"><ele>77.0</ele><time>2026-03-24T10:21:24Z</time></trkpt><trkpt lat="47.75193072338917" lon="-1.8586182219080516"><ele>77.33333333333334</ele><time>2026-03-24T10:21:25Z</time></trkpt><trkpt lat="47.75188626835479" lon="-1.8589080691393904"><ele>77.66666666666667</ele><time>2026-03-24T10:21:26Z</time></trkpt><trkpt lat="47.75187225177919" lon="-1.859192143950684"><ele>78.0</ele><time>2026-03-24T10:21:27Z</time></trkpt><trkpt lat="47.75184589712151" lon="-1.8594508254870918"><ele>77.33333333333333</ele><time>2026-03-24T10:21:28Z</time></trkpt><trkpt lat="47.75182117309773" lon="-1.8596898670364919"><ele>76.66666666666666</ele><time>2026-03-24T10:21:29Z</time></trkpt><trkpt lat="47.751798049297946" lon="-1.8599110292625474"><ele>76.0</ele><time>2026-03-24T10:21:30Z</time></trkpt><trkpt lat="47.75177554761374" lon="-1.8601262416143047"><ele>76.0</ele><time>2026-03-24T10:21:31Z</time></trkpt><trkpt lat="47.751755254960294" lon="-1.8603336535928863"><ele>76.0</ele><time>2026-03-24T10:21:32Z</time></trkpt><trkpt lat="47.75173912883741" lon="-1.8605208442077852"><ele>76.0</ele><time>2026-03-24T10:21:33Z</time></trkpt><trkpt lat="47.75172431495396" lon="-1.8606928025149156"><ele>76.0</ele><time>2026-03-24T10:21:34Z</time></trkpt><trkpt lat="47.75169823960701" lon="-1.8608333881693127"><ele>76.16666666666666</ele><time>2026-03-24T10:21:35Z</time></trkpt><trkpt lat="47.75168069860886" lon="-1.8609679231785092"><ele>76.33333333333333</ele><time>2026-03-24T10:21:36Z</time></trkpt><trkpt lat="47.75167591445677" lon="-1.8610876218341776"><ele>76.5</ele><time>2026-03-24T10:21:37Z</time></trkpt><trkpt lat="47.751688002316676" lon="-1.8611803086216998"><ele>76.66666666666667</ele><time>2026-03-24T10:21:37.999Z</time></trkpt><trkpt lat="47.75180186046998" lon="-1.8612390621015091"><ele>76.83333333333334</ele><time>2026-03-24T10:21:39.999Z</time></trkpt><trkpt lat="47.75188842257061" lon="-1.8612637371636966"><ele>77.0</ele><time>2026-03-24T10:21:40.999Z</time></trkpt><trkpt lat="47.75199910730444" lon="-1.861295288466376"><ele>77.75</ele><time>2026-03-24T10:21:41.999Z</time></trkpt><trkpt lat="47.752115856596184" lon="-1.8613520621438264"><ele>78.5</ele><time>2026-03-24T10:21:42.999Z</time></trkpt><trkpt lat="47.7522322314669" lon="-1.8613687581040397"><ele>79.25</ele><time>2026-03-24T10:21:43.999Z</time></trkpt><trkpt lat="47.75235569706272" lon="-1.8614028873773818"><ele>80.0</ele><time>2026-03-24T10:21:44.999Z</time></trkpt><trkpt lat="47.75249679649354" lon="-1.8614512701112684"><ele>80.0</ele><time>2026-03-24T10:21:45.999Z</time></trkpt><trkpt lat="47.752624901604214" lon="-1.861470664888241"><ele>80.0</ele><time>2026-03-24T10:21:46.999Z</time></trkpt><trkpt lat="47.75275105398769" lon="-1.8615163958008427"><ele>80.0</ele><time>2026-03-24T10:21:47.999Z</time></trkpt><trkpt lat="47.7528876725162" lon="-1.8615616935254697"><ele>80.0</ele><time>2026-03-24T10:21:48.999Z</time></trkpt><trkpt lat="47.753024753492454" lon="-1.8615913292757702"><ele>81.33333333333334</ele><time>2026-03-24T10:21:49.999Z</time></trkpt><trkpt lat="47.753170046263" lon="-1.8616269614488428"><ele>82.66666666666667</ele><time>2026-03-24T10:21:50.999Z</time></trkpt><trkpt lat="47.75332099199201" lon="-1.8616678339036874"><ele>84.0</ele><time>2026-03-24T10:21:51.999Z</time></trkpt><trkpt lat="47.75347423026992" lon="-1.861712352049075"><ele>84.66666666666667</ele><time>2026-03-24T10:21:52.999Z</time></trkpt><trkpt lat="47.753635768944065" lon="-1.8617513427653483"><ele>85.33333333333334</ele><time>2026-03-24T10:21:53.999Z</time></trkpt><trkpt lat="47.75380171448492" lon="-1.8618005752641977"><ele>86.0</ele><time>2026-03-24T10:21:54.999Z</time></trkpt><trkpt lat="47.753973251004645" lon="-1.8618547366470957"><ele>86.33333333333334</ele><time>2026-03-24T10:21:55.999Z</time></trkpt><trkpt lat="47.75414718726234" lon="-1.8619058367091745"><ele>86.66666666666667</ele><time>2026-03-24T10:21:56.999Z</time></trkpt><trkpt lat="47.754304151228126" lon="-1.8619555226387645"><ele>87.0</ele><time>2026-03-24T10:21:57.999Z</time></trkpt><trkpt lat="47.75445943411571" lon="-1.8619990585815445"><ele>87.66666666666667</ele><time>2026-03-24T10:21:58.999Z</time></trkpt><trkpt lat="47.75461491968959" lon="-1.8620443811983847"><ele>88.33333333333334</ele><time>2026-03-24T10:21:59.999Z</time></trkpt><trkpt lat="47.754786151398314" lon="-1.8620918464596956"><ele>89.0</ele><time>2026-03-24T10:22:00.999Z</time></trkpt><trkpt lat="47.75496300355234" lon="-1.8621386211137034"><ele>89.0</ele><time>2026-03-24T10:22:01.999Z</time></trkpt><trkpt lat="47.75514918999326" lon="-1.86216508061492"><ele>89.0</ele><time>2026-03-24T10:22:02.999Z</time></trkpt><trkpt lat="47.75533778265186" lon="-1.8622421323805165"><ele>89.0</ele><time>2026-03-24T10:22:03.999Z</time></trkpt><trkpt lat="47.755521582092534" lon="-1.8622897965637693"><ele>88.66666666666667</ele><time>2026-03-24T10:22:04.999Z</time></trkpt><trkpt lat="47.75569274024764" lon="-1.862320497655698"><ele>88.33333333333333</ele><time>2026-03-24T10:22:05.999Z</time></trkpt><trkpt lat="47.75585194013175" lon="-1.862382719586814"><ele>88.0</ele><time>2026-03-24T10:22:06.999Z</time></trkpt><trkpt lat="47.75601698141758" lon="-1.8624259039773552"><ele>88.0</ele><time>2026-03-24T10:22:07.999Z</time></trkpt><trkpt lat="47.75617610964103" lon="-1.8624729755471916"><ele>88.0</ele><time>2026-03-24T10:22:08.999Z</time></trkpt><trkpt lat="47.75634354186216" lon="-1.8625058409120656"><ele>88.0</ele><time>2026-03-24T10:22:09.999Z</time></trkpt><trkpt lat="47.7565103550813" lon="-1.8625466003336302"><ele>88.0</ele><time>2026-03-24T10:22:10.999Z</time></trkpt><trkpt lat="47.75664898697108" lon="-1.8625889684650674"><ele>88.0</ele><time>2026-03-24T10:22:11.999Z</time></trkpt><trkpt lat="47.75679575656068" lon="-1.8626456561385492"><ele>88.0</ele><time>2026-03-24T10:22:12.999Z</time></trkpt><trkpt lat="47.7569529689535" lon="-1.8626901186201354"><ele>89.0</ele><time>2026-03-24T10:22:13.999Z</time></trkpt><trkpt lat="47.757105393184446" lon="-1.862739223303767"><ele>90.0</ele><time>2026-03-24T10:22:14.999Z</time></trkpt><trkpt lat="47.75727768919058" lon="-1.862760105195684"><ele>91.0</ele><time>2026-03-24T10:22:15.999Z</time></trkpt><trkpt lat="47.757447829385804" lon="-1.8628042592988545"><ele>91.0</ele><time>2026-03-24T10:22:16.999Z</time></trkpt><trkpt lat="47.757618562715315" lon="-1.862851415817148"><ele>91.0</ele><time>2026-03-24T10:22:17.999Z</time></trkpt><trkpt lat="47.75778871067282" lon="-1.8628984106768196"><ele>91.0</ele><time>2026-03-24T10:22:18.999Z</time></trkpt><trkpt lat="47.75797199160659" lon="-1.8629490328522975"><ele>91.33333333333333</ele><time>2026-03-24T10:22:19.999Z</time></trkpt><trkpt lat="47.75815831492766" lon="-1.8630014459721311"><ele>91.66666666666667</ele><time>2026-03-24T10:22:20.999Z</time></trkpt><trkpt lat="47.75835436371984" lon="-1.8630608405519664"><ele>92.0</ele><time>2026-03-24T10:22:21.999Z</time></trkpt><trkpt lat="47.75856807572567" lon="-1.8631255863332812"><ele>92.66666666666667</ele><time>2026-03-24T10:22:22.999Z</time></trkpt><trkpt lat="47.75878396829971" lon="-1.8631909927822317"><ele>93.33333333333333</ele><time>2026-03-24T10:22:23.999Z</time></trkpt><trkpt lat="47.75900168256926" lon="-1.863249161313162"><ele>94.0</ele><time>2026-03-24T10:22:24.999Z</time></trkpt><trkpt lat="47.7592120850142" lon="-1.8633049556043533"><ele>94.0</ele><time>2026-03-24T10:22:25.999Z</time></trkpt><trkpt lat="47.75943376577454" lon="-1.8633637430618724"><ele>94.0</ele><time>2026-03-24T10:22:26.999Z</time></trkpt><trkpt lat="47.759628767205285" lon="-1.8634158272571022"><ele>94.0</ele><time>2026-03-24T10:22:27.999Z</time></trkpt><trkpt lat="47.759802936375486" lon="-1.863462827678511"><ele>94.0</ele><time>2026-03-24T10:22:28.999Z</time></trkpt><trkpt lat="47.75999446034421" lon="-1.8635145112837699"><ele>94.0</ele><time>2026-03-24T10:22:29.999Z</time></trkpt><trkpt lat="47.760177943432865" lon="-1.8635640250676508"><ele>94.0</ele><time>2026-03-24T10:22:30.999Z</time></trkpt><trkpt lat="47.760362604349126" lon="-1.8636306227668822"><ele>92.66666666666666</ele><time>2026-03-24T10:22:31.999Z</time></trkpt><trkpt lat="47.760543042598385" lon="-1.863677168309147"><ele>91.33333333333333</ele><time>2026-03-24T10:22:32.999Z</time></trkpt><trkpt lat="47.760724866931646" lon="-1.8637329494774046"><ele>90.0</ele><time>2026-03-24T10:22:33.999Z</time></trkpt><trkpt lat="47.76090938444198" lon="-1.8637667621809964"><ele>90.0</ele><time>2026-03-24T10:22:34.999Z</time></trkpt><trkpt lat="47.76109305720924" lon="-1.8638390081905598"><ele>90.0</ele><time>2026-03-24T10:22:35.999Z</time></trkpt><trkpt lat="47.76128070166256" lon="-1.8638677027822068"><ele>90.0</ele><time>2026-03-24T10:22:36.999Z</time></trkpt><trkpt lat="47.761477874307474" lon="-1.863907332388867"><ele>90.0</ele><time>2026-03-24T10:22:37.999Z</time></trkpt><trkpt lat="47.761685357077" lon="-1.8639258724752592"><ele>90.0</ele><time>2026-03-24T10:22:38.999Z</time></trkpt><trkpt lat="47.76187095427722" lon="-1.8639601414360543"><ele>90.0</ele><time>2026-03-24T10:22:39.999Z</time></trkpt><trkpt lat="47.7620684802162" lon="-1.8640183622313478"><ele>90.33333333333333</ele><time>2026-03-24T10:22:40.999Z</time></trkpt><trkpt lat="47.76225253550383" lon="-1.864083060645999"><ele>90.66666666666666</ele><time>2026-03-24T10:22:41.999Z</time></trkpt><trkpt lat="47.762433922260236" lon="-1.864120781497541"><ele>91.0</ele><time>2026-03-24T10:22:42.999Z</time></trkpt><trkpt lat="47.76261085516215" lon="-1.8642023732571906"><ele>91.0</ele><time>2026-03-24T10:22:43.999Z</time></trkpt><trkpt lat="47.76278460234752" lon="-1.8642340069599646"><ele>91.0</ele><time>2026-03-24T10:22:44.999Z</time></trkpt><trkpt lat="47.76294455704623" lon="-1.8642846151585877"><ele>91.0</ele><time>2026-03-24T10:22:45.998Z</time></trkpt><trkpt lat="47.76307353000751" lon="-1.8643295755799796"><ele>91.0</ele><time>2026-03-24T10:22:46.998Z</time></trkpt><trkpt lat="47.76319372034128" lon="-1.8643741784314911"><ele>91.0</ele><time>2026-03-24T10:22:47.998Z</time></trkpt><trkpt lat="47.76331063084028" lon="-1.864424341154289"><ele>91.0</ele><time>2026-03-24T10:22:48.998Z</time></trkpt><trkpt lat="47.76344032839234" lon="-1.8645193494850931"><ele>91.0</ele><time>2026-03-24T10:22:49.998Z</time></trkpt><trkpt lat="47.76356074483822" lon="-1.864643698144684"><ele>91.33333333333333</ele><time>2026-03-24T10:22:50.998Z</time></trkpt><trkpt lat="47.76368749295942" lon="-1.864789508224572"><ele>91.66666666666667</ele><time>2026-03-24T10:22:51.998Z</time></trkpt><trkpt lat="47.763834376581464" lon="-1.8649452479534758"><ele>92.0</ele><time>2026-03-24T10:22:52.998Z</time></trkpt><trkpt lat="47.76398451203584" lon="-1.8651044356816433"><ele>92.33333333333334</ele><time>2026-03-24T10:22:53.998Z</time></trkpt><trkpt lat="47.76413640133478" lon="-1.8652698241964387"><ele>92.66666666666667</ele><time>2026-03-24T10:22:54.998Z</time></trkpt><trkpt lat="47.76426595030819" lon="-1.8654113043475475"><ele>93.0</ele><time>2026-03-24T10:22:56Z</time></trkpt><trkpt lat="47.764402333048366" lon="-1.8655602498426707"><ele>93.0</ele><time>2026-03-24T10:22:57Z</time></trkpt><trkpt lat="47.764552910264975" lon="-1.865723549583921"><ele>93.0</ele><time>2026-03-24T10:22:58Z</time></trkpt><trkpt lat="47.76470747784662" lon="-1.8658902675259394"><ele>93.0</ele><time>2026-03-24T10:22:59Z</time></trkpt><trkpt lat="47.764859520332934" lon="-1.866054261783844"><ele>93.0</ele><time>2026-03-24T10:23:00Z</time></trkpt><trkpt lat="47.764984372195954" lon="-1.866186159532923"><ele>93.0</ele><time>2026-03-24T10:23:01Z</time></trkpt><trkpt lat="47.76510859822067" lon="-1.8663154968610487"><ele>93.0</ele><time>2026-03-24T10:23:02Z</time></trkpt><trkpt lat="47.765237913998504" lon="-1.8664501334108736"><ele>92.60000000000001</ele><time>2026-03-24T10:23:03Z</time></trkpt><trkpt lat="47.7653382412387" lon="-1.8665545886246644"><ele>92.2</ele><time>2026-03-24T10:23:04Z</time></trkpt><trkpt lat="47.765440887753684" lon="-1.8666712972830766"><ele>91.8</ele><time>2026-03-24T10:23:05Z</time></trkpt><trkpt lat="47.76552486664747" lon="-1.866781046323942"><ele>91.4</ele><time>2026-03-24T10:23:06Z</time></trkpt><trkpt lat="47.76558896885332" lon="-1.8668468797084392"><ele>91.0</ele><time>2026-03-24T10:23:07Z</time></trkpt><trkpt lat="47.7656507331818" lon="-1.866918152406989"><ele>91.8</ele><time>2026-03-24T10:23:09Z</time></trkpt><trkpt lat="47.76571588464106" lon="-1.8669617429291565"><ele>92.6</ele><time>2026-03-24T10:23:12Z</time></trkpt><trkpt lat="47.76578840549572" lon="-1.8669848377551246"><ele>93.4</ele><time>2026-03-24T10:23:17Z</time></trkpt><trkpt lat="47.76590069109286" lon="-1.8669799552277457"><ele>94.2</ele><time>2026-03-24T10:23:19Z</time></trkpt><trkpt lat="47.766047597051454" lon="-1.86691776520841"><ele>95.0</ele><time>2026-03-24T10:23:21Z</time></trkpt><trkpt lat="47.76614330702139" lon="-1.8668595713527405"><ele>95.25</ele><time>2026-03-24T10:23:22Z</time></trkpt><trkpt lat="47.76626112548379" lon="-1.8668058878042915"><ele>95.5</ele><time>2026-03-24T10:23:23Z</time></trkpt><trkpt lat="47.76638300354008" lon="-1.866752776581988"><ele>95.75</ele><time>2026-03-24T10:23:24Z</time></trkpt><trkpt lat="47.76651153649639" lon="-1.866661538728925"><ele>96.0</ele><time>2026-03-24T10:23:25Z</time></trkpt><trkpt lat="47.766654328462685" lon="-1.866586423702656"><ele>95.33333333333333</ele><time>2026-03-24T10:23:26Z</time></trkpt><trkpt lat="47.76678272600077" lon="-1.8665188808722104"><ele>94.66666666666666</ele><time>2026-03-24T10:23:27Z</time></trkpt><trkpt lat="47.76693492072497" lon="-1.866438144269268"><ele>94.0</ele><time>2026-03-24T10:23:28Z</time></trkpt><trkpt lat="47.76711299182557" lon="-1.8663494701244894"><ele>94.0</ele><time>2026-03-24T10:23:29Z</time></trkpt><trkpt lat="47.76729584584421" lon="-1.866270304020373"><ele>94.0</ele><time>2026-03-24T10:23:30Z</time></trkpt><trkpt lat="47.76749097467817" lon="-1.8661798840232564"><ele>94.0</ele><time>2026-03-24T10:23:31Z</time></trkpt><trkpt lat="47.76768641033421" lon="-1.866077823913048"><ele>94.0</ele><time>2026-03-24T10:23:32Z</time></trkpt><trkpt lat="47.76788743690929" lon="-1.865964011850683"><ele>94.0</ele><time>2026-03-24T10:23:33Z</time></trkpt><trkpt lat="47.76808889158933" lon="-1.8657732753568343"><ele>94.66666666666666</ele><time>2026-03-24T10:23:34Z</time></trkpt><trkpt lat="47.76827935479955" lon="-1.8655891217972747"><ele>95.33333333333333</ele><time>2026-03-24T10:23:35Z</time></trkpt><trkpt lat="47.76843347821774" lon="-1.8654231111962782"><ele>96.0</ele><time>2026-03-24T10:23:36Z</time></trkpt><trkpt lat="47.76856496106908" lon="-1.8652772434225369"><ele>96.0</ele><time>2026-03-24T10:23:37Z</time></trkpt><trkpt lat="47.76866238595869" lon="-1.8651518430344503"><ele>96.0</ele><time>2026-03-24T10:23:38Z</time></trkpt><trkpt lat="47.768760517452456" lon="-1.8650662679252665"><ele>96.0</ele><time>2026-03-24T10:23:39Z</time></trkpt><trkpt lat="47.76885906311121" lon="-1.864986207703633"><ele>96.0</ele><time>2026-03-24T10:23:40Z</time></trkpt><trkpt lat="47.768953821857636" lon="-1.8649161745476563"><ele>96.0</ele><time>2026-03-24T10:23:41Z</time></trkpt><trkpt lat="47.769050737716285" lon="-1.8648512095529983"><ele>96.0</ele><time>2026-03-24T10:23:42Z</time></trkpt><trkpt lat="47.76914431725725" lon="-1.8647944824630367"><ele>96.0</ele><time>2026-03-24T10:23:43Z</time></trkpt><trkpt lat="47.76922184319012" lon="-1.8647441014405843"><ele>96.0</ele><time>2026-03-24T10:23:44Z</time></trkpt><trkpt lat="47.76929760988083" lon="-1.864695401841289"><ele>96.0</ele><time>2026-03-24T10:23:45Z</time></trkpt><trkpt lat="47.769380562684546" lon="-1.864686971119185"><ele>96.33333333333333</ele><time>2026-03-24T10:23:47Z</time></trkpt><trkpt lat="47.76945184737222" lon="-1.8646729707542085"><ele>96.66666666666666</ele><time>2026-03-24T10:23:50.999Z</time></trkpt><trkpt lat="47.76952075047263" lon="-1.864630503987712"><ele>97.0</ele><time>2026-03-24T10:23:51.999Z</time></trkpt><trkpt lat="47.76962914226183" lon="-1.8645971318306214"><ele>97.33333333333333</ele><time>2026-03-24T10:23:53.999Z</time></trkpt><trkpt lat="47.769710495781595" lon="-1.864545712393251"><ele>97.66666666666666</ele><time>2026-03-24T10:23:54.999Z</time></trkpt><trkpt lat="47.76963938356248" lon="-1.8645947456516339"><ele>98.0</ele><time>2026-03-24T10:23:58.999Z</time></trkpt><trkpt lat="47.76956888201969" lon="-1.8646097904247574"><ele>98.0</ele><time>2026-03-24T10:24:02.999Z</time></trkpt><trkpt lat="47.76948234980006" lon="-1.8646491871604074"><ele>98.0</ele><time>2026-03-24T10:24:06.999Z</time></trkpt><trkpt lat="47.7694180523511" lon="-1.8647064341341042"><ele>98.0</ele><time>2026-03-24T10:24:14.999Z</time></trkpt><trkpt lat="47.76857677851448" lon="-1.8652474683624238"><ele>84.0</ele><time>2026-03-24T10:24:36.999Z</time></trkpt><trkpt lat="47.76885595699713" lon="-1.8690172604538104"><ele>84.0</ele><time>2026-03-24T10:24:37.999Z</time></trkpt><trkpt lat="47.76885405770886" lon="-1.8691563485773242"><ele>84.0</ele><time>2026-03-24T10:24:38.999Z</time></trkpt><trkpt lat="47.76882474944455" lon="-1.8662209397131815"><ele>84.33333333333333</ele><time>2026-03-24T10:24:41.999Z</time></trkpt><trkpt lat="47.76881812103103" lon="-1.8665780424204497"><ele>84.66666666666666</ele><time>2026-03-24T10:24:42.999Z</time></trkpt><trkpt lat="47.76883393385433" lon="-1.8668485911106907"><ele>85.0</ele><time>2026-03-24T10:24:43.999Z</time></trkpt><trkpt lat="47.768870541182444" lon="-1.867748151267487"><ele>85.0</ele><time>2026-03-24T10:24:45.999Z</time></trkpt><trkpt lat="47.76885341159138" lon="-1.8681543111220165"><ele>85.0</ele><time>2026-03-24T10:24:46.999Z</time></trkpt><trkpt lat="47.768855368305935" lon="-1.8687326096474783"><ele>84.5</ele><time>2026-03-24T10:24:47.999Z</time></trkpt><trkpt lat="47.76885189751468" lon="-1.8691310623059478"><ele>84.0</ele><time>2026-03-24T10:24:48.999Z</time></trkpt><trkpt lat="47.7688567473571" lon="-1.8696148282939034"><ele>86.0</ele><time>2026-03-24T10:24:49.999Z</time></trkpt><trkpt lat="47.76880685958748" lon="-1.8703566628688442"><ele>86.0</ele><time>2026-03-24T10:24:50.999Z</time></trkpt><trkpt lat="47.768787871618514" lon="-1.8708727596930605"><ele>86.0</ele><time>2026-03-24T10:24:51.999Z</time></trkpt><trkpt lat="47.76878875605983" lon="-1.8713060139230817"><ele>86.0</ele><time>2026-03-24T10:24:52.999Z</time></trkpt><trkpt lat="47.76876432062919" lon="-1.8716579889827412"><ele>86.0</ele><time>2026-03-24T10:24:53.999Z</time></trkpt><trkpt lat="47.76875285177715" lon="-1.8719214846998975"><ele>86.0</ele><time>2026-03-24T10:24:54.999Z</time></trkpt><trkpt lat="47.76873415405009" lon="-1.872162082759161"><ele>85.75</ele><time>2026-03-24T10:24:55.999Z</time></trkpt><trkpt lat="47.76872383053765" lon="-1.872353628039355"><ele>85.5</ele><time>2026-03-24T10:24:56.998Z</time></trkpt><trkpt lat="47.7687078254278" lon="-1.872498216114513"><ele>85.25</ele><time>2026-03-24T10:24:57.998Z</time></trkpt><trkpt lat="47.76870574290299" lon="-1.872671766480983"><ele>85.0</ele><time>2026-03-24T10:24:58.998Z</time></trkpt><trkpt lat="47.76870213003951" lon="-1.8728460583086617"><ele>84.83333333333333</ele><time>2026-03-24T10:24:59.998Z</time></trkpt><trkpt lat="47.76869402165665" lon="-1.872986914498653"><ele>84.66666666666666</ele><time>2026-03-24T10:25:00.998Z</time></trkpt><trkpt lat="47.76868414116826" lon="-1.8731195726643701"><ele>84.5</ele><time>2026-03-24T10:25:02Z</time></trkpt><trkpt lat="47.768668363177504" lon="-1.8732545796468614"><ele>84.33333333333333</ele><time>2026-03-24T10:25:03Z</time></trkpt><trkpt lat="47.768655272287766" lon="-1.8733896619186399"><ele>84.16666666666667</ele><time>2026-03-24T10:25:04Z</time></trkpt><trkpt lat="47.76865226356318" lon="-1.8735009886906868"><ele>84.0</ele><time>2026-03-24T10:25:05Z</time></trkpt><trkpt lat="47.76865191460074" lon="-1.873594933012294"><ele>84.0</ele><time>2026-03-24T10:25:06Z</time></trkpt><trkpt lat="47.76872954350916" lon="-1.8736617552237427"><ele>84.0</ele><time>2026-03-24T10:25:11Z</time></trkpt><trkpt lat="47.76881025221828" lon="-1.873685862959075"><ele>84.0</ele><time>2026-03-24T10:25:13Z</time></trkpt><trkpt lat="47.768916557965824" lon="-1.8737337324385892"><ele>84.0</ele><time>2026-03-24T10:25:15Z</time></trkpt><trkpt lat="47.76898551694869" lon="-1.8737723497693302"><ele>84.0</ele><time>2026-03-24T10:25:16Z</time></trkpt><trkpt lat="47.769067916631116" lon="-1.8738135327575332"><ele>84.0</ele><time>2026-03-24T10:25:17Z</time></trkpt><trkpt lat="47.7691510916065" lon="-1.8738395628681237"><ele>84.0</ele><time>2026-03-24T10:25:18Z</time></trkpt><trkpt lat="47.769247477368665" lon="-1.873860883297013"><ele>84.0</ele><time>2026-03-24T10:25:19Z</time></trkpt><trkpt lat="47.769337259116256" lon="-1.8738944857630369"><ele>84.0</ele><time>2026-03-24T10:25:20Z</time></trkpt><trkpt lat="47.76943757297017" lon="-1.873950601778865"><ele>84.0</ele><time>2026-03-24T10:25:21Z</time></trkpt><trkpt lat="47.769539640602545" lon="-1.874007429635281"><ele>84.0</ele><time>2026-03-24T10:25:22Z</time></trkpt><trkpt lat="47.769635479580394" lon="-1.8740452446436688"><ele>83.66666666666667</ele><time>2026-03-24T10:25:23Z</time></trkpt><trkpt lat="47.769712658304115" lon="-1.8740917027621378"><ele>83.33333333333333</ele><time>2026-03-24T10:25:24Z</time></trkpt><trkpt lat="47.76979881790622" lon="-1.8741381484713147"><ele>83.0</ele><time>2026-03-24T10:25:25Z</time></trkpt><trkpt lat="47.769861968299914" lon="-1.8742115351166933"><ele>82.66666666666666</ele><time>2026-03-24T10:25:26Z</time></trkpt><trkpt lat="47.769919722976056" lon="-1.8743154553303734"><ele>82.33333333333333</ele><time>2026-03-24T10:25:27Z</time></trkpt><trkpt lat="47.76997130522506" lon="-1.87443672469506"><ele>82.0</ele><time>2026-03-24T10:25:28Z</time></trkpt><trkpt lat="47.77000441407929" lon="-1.8745914387217266"><ele>82.0</ele><time>2026-03-24T10:25:29Z</time></trkpt><trkpt lat="47.770006622312174" lon="-1.874771313621097"><ele>82.0</ele><time>2026-03-24T10:25:30Z</time></trkpt><trkpt lat="47.76999813701338" lon="-1.8749810851407973"><ele>82.0</ele><time>2026-03-24T10:25:31Z</time></trkpt><trkpt lat="47.76999769887177" lon="-1.8751883456145946"><ele>82.0</ele><time>2026-03-24T10:25:32Z</time></trkpt><trkpt lat="47.77000420701151" lon="-1.8754022304207578"><ele>82.25</ele><time>2026-03-24T10:25:33Z</time></trkpt><trkpt lat="47.77001632864845" lon="-1.8756023080770152"><ele>82.5</ele><time>2026-03-24T10:25:34Z</time></trkpt><trkpt lat="47.77001707778525" lon="-1.875796414216533"><ele>82.75</ele><time>2026-03-24T10:25:35Z</time></trkpt><trkpt lat="47.770020705771245" lon="-1.8759924847966054"><ele>83.0</ele><time>2026-03-24T10:25:36Z</time></trkpt><trkpt lat="47.77002142488626" lon="-1.8762078487621856"><ele>83.0</ele><time>2026-03-24T10:25:37Z</time></trkpt><trkpt lat="47.77002870275094" lon="-1.876427475672206"><ele>83.0</ele><time>2026-03-24T10:25:38Z</time></trkpt><trkpt lat="47.770035373805186" lon="-1.8766557094380347"><ele>83.0</ele><time>2026-03-24T10:25:39Z</time></trkpt><trkpt lat="47.77008101633269" lon="-1.8768869068288954"><ele>82.33333333333334</ele><time>2026-03-24T10:25:40Z</time></trkpt><trkpt lat="47.77008816291146" lon="-1.877142800904423"><ele>81.66666666666667</ele><time>2026-03-24T10:25:41Z</time></trkpt><trkpt lat="47.77009509688322" lon="-1.8773910822188453"><ele>81.0</ele><time>2026-03-24T10:25:42Z</time></trkpt><trkpt lat="47.770101251981515" lon="-1.8776260174510666"><ele>81.0</ele><time>2026-03-24T10:25:43Z</time></trkpt><trkpt lat="47.77010604674268" lon="-1.8778658221111322"><ele>81.0</ele><time>2026-03-24T10:25:44Z</time></trkpt><trkpt lat="47.77011109063518" lon="-1.878118086919108"><ele>81.0</ele><time>2026-03-24T10:25:45Z</time></trkpt><trkpt lat="47.770116882145565" lon="-1.8783625410043687"><ele>80.66666666666667</ele><time>2026-03-24T10:25:46Z</time></trkpt><trkpt lat="47.77012792689157" lon="-1.8786253228429406"><ele>80.33333333333334</ele><time>2026-03-24T10:25:47Z</time></trkpt><trkpt lat="47.770150578624715" lon="-1.8788843274447364"><ele>80.0</ele><time>2026-03-24T10:25:48Z</time></trkpt><trkpt lat="47.7701940669176" lon="-1.8791493011102385"><ele>79.0</ele><time>2026-03-24T10:25:49Z</time></trkpt><trkpt lat="47.77024386354505" lon="-1.8794405094377906"><ele>78.0</ele><time>2026-03-24T10:25:50Z</time></trkpt><trkpt lat="47.770291822272654" lon="-1.879728819398561"><ele>77.0</ele><time>2026-03-24T10:25:50.999Z</time></trkpt><trkpt lat="47.770333963569094" lon="-1.8799846721122435"><ele>77.0</ele><time>2026-03-24T10:25:51.999Z</time></trkpt><trkpt lat="47.77037260963283" lon="-1.8802206104937185"><ele>77.0</ele><time>2026-03-24T10:25:52.999Z</time></trkpt><trkpt lat="47.7704063370274" lon="-1.8804265200546066"><ele>77.0</ele><time>2026-03-24T10:25:53.999Z</time></trkpt><trkpt lat="47.770437033925184" lon="-1.8806296603650683"><ele>77.0</ele><time>2026-03-24T10:25:54.999Z</time></trkpt><trkpt lat="47.77045614128771" lon="-1.8808173302710403"><ele>77.33333333333334</ele><time>2026-03-24T10:25:55.999Z</time></trkpt><trkpt lat="47.77045874745709" lon="-1.8810344739541736"><ele>77.66666666666667</ele><time>2026-03-24T10:25:56.999Z</time></trkpt><trkpt lat="47.770448996089904" lon="-1.881260484029643"><ele>78.0</ele><time>2026-03-24T10:25:57.999Z</time></trkpt><trkpt lat="47.77043168924112" lon="-1.881532237344997"><ele>78.66666666666667</ele><time>2026-03-24T10:25:58.999Z</time></trkpt><trkpt lat="47.770417005976654" lon="-1.8818128291261293"><ele>79.33333333333334</ele><time>2026-03-24T10:25:59.999Z</time></trkpt><trkpt lat="47.77039450974115" lon="-1.8821006435635108"><ele>80.0</ele><time>2026-03-24T10:26:00.999Z</time></trkpt><trkpt lat="47.7703915023672" lon="-1.8823784084033617"><ele>80.66666666666667</ele><time>2026-03-24T10:26:01.999Z</time></trkpt><trkpt lat="47.77037336576986" lon="-1.8826638947241046"><ele>81.33333333333333</ele><time>2026-03-24T10:26:02.999Z</time></trkpt><trkpt lat="47.77035410754768" lon="-1.8829670365123459"><ele>82.0</ele><time>2026-03-24T10:26:03.999Z</time></trkpt><trkpt lat="47.770334614250345" lon="-1.883267716974824"><ele>82.0</ele><time>2026-03-24T10:26:04.999Z</time></trkpt><trkpt lat="47.77031459730654" lon="-1.883570278352748"><ele>82.0</ele><time>2026-03-24T10:26:05.999Z</time></trkpt><trkpt lat="47.77029341276567" lon="-1.8838904882691052"><ele>82.0</ele><time>2026-03-24T10:26:06.999Z</time></trkpt><trkpt lat="47.77027464203406" lon="-1.884174212690615"><ele>82.33333333333333</ele><time>2026-03-24T10:26:07.999Z</time></trkpt><trkpt lat="47.77024307111726" lon="-1.8844092431036037"><ele>82.66666666666667</ele><time>2026-03-24T10:26:08.999Z</time></trkpt><trkpt lat="47.77024427110673" lon="-1.8846385042862852"><ele>83.0</ele><time>2026-03-24T10:26:09.999Z</time></trkpt><trkpt lat="47.77023146024335" lon="-1.8848424584934866"><ele>83.0</ele><time>2026-03-24T10:26:10.999Z</time></trkpt><trkpt lat="47.770219386501914" lon="-1.8850362906379872"><ele>83.0</ele><time>2026-03-24T10:26:11.999Z</time></trkpt><trkpt lat="47.77019517785324" lon="-1.8852358148495927"><ele>83.0</ele><time>2026-03-24T10:26:12.999Z</time></trkpt><trkpt lat="47.77018362508105" lon="-1.8854584031397135"><ele>83.0</ele><time>2026-03-24T10:26:13.999Z</time></trkpt><trkpt lat="47.770166465955626" lon="-1.8856903574331823"><ele>84.33333333333334</ele><time>2026-03-24T10:26:14.999Z</time></trkpt><trkpt lat="47.7701652833259" lon="-1.885929673031293"><ele>85.66666666666667</ele><time>2026-03-24T10:26:15.999Z</time></trkpt><trkpt lat="47.7701348763325" lon="-1.8861815689064834"><ele>87.0</ele><time>2026-03-24T10:26:16.999Z</time></trkpt><trkpt lat="47.7701210108051" lon="-1.8864279543376719"><ele>87.0</ele><time>2026-03-24T10:26:17.999Z</time></trkpt><trkpt lat="47.77011755963337" lon="-1.8866918458670536"><ele>87.0</ele><time>2026-03-24T10:26:18.999Z</time></trkpt><trkpt lat="47.7700859459545" lon="-1.8869535313349335"><ele>87.0</ele><time>2026-03-24T10:26:19.999Z</time></trkpt><trkpt lat="47.770069397781945" lon="-1.8872423751910137"><ele>87.0</ele><time>2026-03-24T10:26:20.999Z</time></trkpt><trkpt lat="47.770053384240725" lon="-1.8875382532498661"><ele>87.0</ele><time>2026-03-24T10:26:21.999Z</time></trkpt><trkpt lat="47.77003859309214" lon="-1.8878112682283918"><ele>87.0</ele><time>2026-03-24T10:26:22.999Z</time></trkpt><trkpt lat="47.77003647533214" lon="-1.8880600439622781"><ele>86.25</ele><time>2026-03-24T10:26:23.999Z</time></trkpt><trkpt lat="47.77001249848992" lon="-1.8882676347021918"><ele>85.5</ele><time>2026-03-24T10:26:24.999Z</time></trkpt><trkpt lat="47.77001148009261" lon="-1.8884584120636538"><ele>84.75</ele><time>2026-03-24T10:26:25.999Z</time></trkpt><trkpt lat="47.769996381164255" lon="-1.8886577870444639"><ele>84.0</ele><time>2026-03-24T10:26:26.999Z</time></trkpt><trkpt lat="47.76998812204408" lon="-1.8888634982278047"><ele>83.25</ele><time>2026-03-24T10:26:27.999Z</time></trkpt><trkpt lat="47.76997557969373" lon="-1.8890586016260391"><ele>82.5</ele><time>2026-03-24T10:26:28.999Z</time></trkpt><trkpt lat="47.76996001047316" lon="-1.8892729852348586"><ele>81.75</ele><time>2026-03-24T10:26:29.999Z</time></trkpt><trkpt lat="47.769943012563616" lon="-1.8894916784220195"><ele>81.0</ele><time>2026-03-24T10:26:30.999Z</time></trkpt><trkpt lat="47.76992385935706" lon="-1.8897121444125276"><ele>81.0</ele><time>2026-03-24T10:26:31.999Z</time></trkpt><trkpt lat="47.769904398483334" lon="-1.8899279826589481"><ele>81.0</ele><time>2026-03-24T10:26:32.999Z</time></trkpt><trkpt lat="47.769903254519186" lon="-1.8901149789100338"><ele>81.0</ele><time>2026-03-24T10:26:33.999Z</time></trkpt><trkpt lat="47.76992802808919" lon="-1.8903022656938842"><ele>81.0</ele><time>2026-03-24T10:26:34.999Z</time></trkpt><trkpt lat="47.76996490949376" lon="-1.890505577433656"><ele>81.0</ele><time>2026-03-24T10:26:35.999Z</time></trkpt><trkpt lat="47.7699954445249" lon="-1.8906557348717457"><ele>81.0</ele><time>2026-03-24T10:26:36.999Z</time></trkpt><trkpt lat="47.77001864435101" lon="-1.8907742113378796"><ele>81.0</ele><time>2026-03-24T10:26:37.999Z</time></trkpt><trkpt lat="47.77003473048351" lon="-1.890911031830326"><ele>81.0</ele><time>2026-03-24T10:26:39.999Z</time></trkpt><trkpt lat="47.770095850489525" lon="-1.8909864083995105"><ele>81.0</ele><time>2026-03-24T10:26:41.999Z</time></trkpt><trkpt lat="47.77020674139563" lon="-1.8908913802677907"><ele>80.8</ele><time>2026-03-24T10:26:44.999Z</time></trkpt><trkpt lat="47.7702622071178" lon="-1.890808247766297"><ele>80.6</ele><time>2026-03-24T10:26:45.999Z</time></trkpt><trkpt lat="47.77032360667167" lon="-1.890684940606452"><ele>80.4</ele><time>2026-03-24T10:26:46.999Z</time></trkpt><trkpt lat="47.770419757736036" lon="-1.8905790557169317"><ele>80.2</ele><time>2026-03-24T10:26:47.999Z</time></trkpt><trkpt lat="47.770498803822896" lon="-1.8904665168223433"><ele>80.0</ele><time>2026-03-24T10:26:48.999Z</time></trkpt><trkpt lat="47.77060251513582" lon="-1.890358059400383"><ele>80.0</ele><time>2026-03-24T10:26:49.999Z</time></trkpt><trkpt lat="47.77072553088926" lon="-1.8902352409339616"><ele>80.0</ele><time>2026-03-24T10:26:50.999Z</time></trkpt><trkpt lat="47.77085112429548" lon="-1.8901249372325641"><ele>80.0</ele><time>2026-03-24T10:26:51.999Z</time></trkpt><trkpt lat="47.770971747554505" lon="-1.890017977357382"><ele>80.0</ele><time>2026-03-24T10:26:52.999Z</time></trkpt><trkpt lat="47.77110985861166" lon="-1.889927962398313"><ele>80.33333333333334</ele><time>2026-03-24T10:26:53.999Z</time></trkpt><trkpt lat="47.771274342871315" lon="-1.8898463551346014"><ele>80.66666666666667</ele><time>2026-03-24T10:26:54.999Z</time></trkpt><trkpt lat="47.77144948402514" lon="-1.8897849904515758"><ele>81.0</ele><time>2026-03-24T10:26:55.999Z</time></trkpt><trkpt lat="47.771621829912235" lon="-1.8897385411734005"><ele>81.0</ele><time>2026-03-24T10:26:56.999Z</time></trkpt><trkpt lat="47.77180625981501" lon="-1.8896958669769863"><ele>81.0</ele><time>2026-03-24T10:26:57.998Z</time></trkpt><trkpt lat="47.771995611017296" lon="-1.8896466510302885"><ele>81.0</ele><time>2026-03-24T10:26:58.998Z</time></trkpt><trkpt lat="47.77219992671697" lon="-1.889612339276392"><ele>80.0</ele><time>2026-03-24T10:26:59.998Z</time></trkpt><trkpt lat="47.77239350007579" lon="-1.889607263602986"><ele>79.0</ele><time>2026-03-24T10:27:00.998Z</time></trkpt><trkpt lat="47.77257539730555" lon="-1.8895988394928183"><ele>78.0</ele><time>2026-03-24T10:27:01.998Z</time></trkpt><trkpt lat="47.7727414739302" lon="-1.8895918063140524"><ele>77.0</ele><time>2026-03-24T10:27:02.998Z</time></trkpt><trkpt lat="47.772892346524905" lon="-1.8895893914483333"><ele>76.0</ele><time>2026-03-24T10:27:03.998Z</time></trkpt><trkpt lat="47.77301777443251" lon="-1.8895842569285162"><ele>75.0</ele><time>2026-03-24T10:27:04.998Z</time></trkpt><trkpt lat="47.77310996369926" lon="-1.8895844093003054"><ele>74.0</ele><time>2026-03-24T10:27:05.998Z</time></trkpt><trkpt lat="47.77318930047688" lon="-1.8895585257826244"><ele>74.0</ele><time>2026-03-24T10:27:06.998Z</time></trkpt><trkpt lat="47.77328881210138" lon="-1.8896021280619189"><ele>74.0</ele><time>2026-03-24T10:27:09Z</time></trkpt><trkpt lat="47.77336035349694" lon="-1.889593578686704"><ele>74.0</ele><time>2026-03-24T10:27:11Z</time></trkpt><trkpt lat="47.773356095289635" lon="-1.889884559396853"><ele>74.0</ele><time>2026-03-24T10:27:12Z</time></trkpt><trkpt lat="47.77333751810997" lon="-1.89004423743326"><ele>74.25</ele><time>2026-03-24T10:27:13Z</time></trkpt><trkpt lat="47.7733197194158" lon="-1.8902633234506137"><ele>74.5</ele><time>2026-03-24T10:27:14Z</time></trkpt><trkpt lat="47.77331355262738" lon="-1.8904836807445073"><ele>74.75</ele><time>2026-03-24T10:27:15Z</time></trkpt><trkpt lat="47.77331705452005" lon="-1.8906827730019709"><ele>75.0</ele><time>2026-03-24T10:27:16Z</time></trkpt><trkpt lat="47.773317466529214" lon="-1.8908939073586717"><ele>75.66666666666667</ele><time>2026-03-24T10:27:17Z</time></trkpt><trkpt lat="47.77330974940006" lon="-1.8911359298452302"><ele>76.33333333333334</ele><time>2026-03-24T10:27:18Z</time></trkpt><trkpt lat="47.773299924396376" lon="-1.8913803274272094"><ele>77.0</ele><time>2026-03-24T10:27:19Z</time></trkpt><trkpt lat="47.77330171828937" lon="-1.8916266218132467"><ele>77.0</ele><time>2026-03-24T10:27:20Z</time></trkpt><trkpt lat="47.77329749634419" lon="-1.8918754345809052"><ele>77.0</ele><time>2026-03-24T10:27:21Z</time></trkpt><trkpt lat="47.773293823726064" lon="-1.8921230252107706"><ele>77.0</ele><time>2026-03-24T10:27:22Z</time></trkpt><trkpt lat="47.773292994420466" lon="-1.8923763580751445"><ele>77.66666666666667</ele><time>2026-03-24T10:27:23Z</time></trkpt><trkpt lat="47.77328827377308" lon="-1.8926388077738705"><ele>78.33333333333333</ele><time>2026-03-24T10:27:24Z</time></trkpt><trkpt lat="47.773284137782596" lon="-1.892892548426855"><ele>79.0</ele><time>2026-03-24T10:27:25Z</time></trkpt><trkpt lat="47.77328303776078" lon="-1.8931255915357184"><ele>79.0</ele><time>2026-03-24T10:27:26Z</time></trkpt><trkpt lat="47.77327855773586" lon="-1.89337654536842"><ele>79.0</ele><time>2026-03-24T10:27:27Z</time></trkpt><trkpt lat="47.77327724925719" lon="-1.8936169915463035"><ele>79.0</ele><time>2026-03-24T10:27:28Z</time></trkpt><trkpt lat="47.773275199593996" lon="-1.8938692248713775"><ele>79.66666666666666</ele><time>2026-03-24T10:27:29Z</time></trkpt><trkpt lat="47.77327424978395" lon="-1.8941077002320972"><ele>80.33333333333333</ele><time>2026-03-24T10:27:30Z</time></trkpt><trkpt lat="47.77326841936681" lon="-1.89435410128036"><ele>81.0</ele><time>2026-03-24T10:27:31Z</time></trkpt><trkpt lat="47.77326822529266" lon="-1.8945880527034493"><ele>81.0</ele><time>2026-03-24T10:27:32Z</time></trkpt><trkpt lat="47.773268383833575" lon="-1.894789923408638"><ele>81.0</ele><time>2026-03-24T10:27:33Z</time></trkpt><trkpt lat="47.77326934315662" lon="-1.8949449787012616"><ele>81.0</ele><time>2026-03-24T10:27:34Z</time></trkpt><trkpt lat="47.77326887454289" lon="-1.8950887267045176"><ele>81.0</ele><time>2026-03-24T10:27:35Z</time></trkpt><trkpt lat="47.77326761887029" lon="-1.8951882803346423"><ele>81.0</ele><time>2026-03-24T10:27:36Z</time></trkpt><trkpt lat="47.77325738138792" lon="-1.895287688322565"><ele>81.16666666666667</ele><time>2026-03-24T10:27:37Z</time></trkpt><trkpt lat="47.773240755461956" lon="-1.895387527770127"><ele>81.33333333333333</ele><time>2026-03-24T10:27:38Z</time></trkpt><trkpt lat="47.773148795305154" lon="-1.8954281465744893"><ele>81.5</ele><time>2026-03-24T10:27:40Z</time></trkpt><trkpt lat="47.77305271716307" lon="-1.8954331601809642"><ele>81.66666666666666</ele><time>2026-03-24T10:27:41Z</time></trkpt><trkpt lat="47.77298044792515" lon="-1.8954555318811104"><ele>81.83333333333333</ele><time>2026-03-24T10:27:42Z</time></trkpt><trkpt lat="47.77293295877147" lon="-1.8955278761252872"><ele>82.0</ele><time>2026-03-24T10:27:43Z</time></trkpt><trkpt lat="47.77291330089532" lon="-1.895633977620697"><ele>82.0</ele><time>2026-03-24T10:27:44Z</time></trkpt><trkpt lat="47.77291556331557" lon="-1.8957621637984587"><ele>82.0</ele><time>2026-03-24T10:27:45Z</time></trkpt><trkpt lat="47.77296804027355" lon="-1.8959213244040853"><ele>82.0</ele><time>2026-03-24T10:27:46Z</time></trkpt><trkpt lat="47.77295842860255" lon="-1.896101963171145"><ele>82.0</ele><time>2026-03-24T10:27:47Z</time></trkpt><trkpt lat="47.772948064835504" lon="-1.8962967354226554"><ele>81.66666666666666</ele><time>2026-03-24T10:27:48Z</time></trkpt><trkpt lat="47.77293648919627" lon="-1.8965142837224667"><ele>81.33333333333333</ele><time>2026-03-24T10:27:49Z</time></trkpt><trkpt lat="47.77292379071232" lon="-1.8967529346639678"><ele>81.0</ele><time>2026-03-24T10:27:50Z</time></trkpt><trkpt lat="47.772910057648296" lon="-1.8970110285338102"><ele>80.0</ele><time>2026-03-24T10:27:51Z</time></trkpt><trkpt lat="47.772894960208376" lon="-1.8972947641317188"><ele>79.0</ele><time>2026-03-24T10:27:52Z</time></trkpt><trkpt lat="47.772879429710436" lon="-1.8975916184458552"><ele>78.0</ele><time>2026-03-24T10:27:53Z</time></trkpt><trkpt lat="47.77286406391017" lon="-1.8978864897577934"><ele>78.0</ele><time>2026-03-24T10:27:54Z</time></trkpt><trkpt lat="47.77285010049197" lon="-1.8981544494794564"><ele>78.0</ele><time>2026-03-24T10:27:54.999Z</time></trkpt><trkpt lat="47.77283724400696" lon="-1.8984011671351373"><ele>78.0</ele><time>2026-03-24T10:27:55.999Z</time></trkpt><trkpt lat="47.77282444507933" lon="-1.8986467803931895"><ele>78.0</ele><time>2026-03-24T10:27:56.999Z</time></trkpt><trkpt lat="47.772811590968345" lon="-1.8988934517273781"><ele>78.0</ele><time>2026-03-24T10:27:57.999Z</time></trkpt><trkpt lat="47.772798716708785" lon="-1.8991373124206585"><ele>78.0</ele><time>2026-03-24T10:27:58.999Z</time></trkpt><trkpt lat="47.77278497702861" lon="-1.8993816119728377"><ele>78.0</ele><time>2026-03-24T10:27:59.999Z</time></trkpt><trkpt lat="47.772771925597816" lon="-1.8996136746198256"><ele>78.0</ele><time>2026-03-24T10:28:00.999Z</time></trkpt><trkpt lat="47.77275835830073" lon="-1.8998549092426031"><ele>78.0</ele><time>2026-03-24T10:28:01.999Z</time></trkpt><trkpt lat="47.772744176450544" lon="-1.900107070873591"><ele>78.0</ele><time>2026-03-24T10:28:02.999Z</time></trkpt><trkpt lat="47.77273091643081" lon="-1.9003428420049902"><ele>78.0</ele><time>2026-03-24T10:28:03.999Z</time></trkpt><trkpt lat="47.77271656905587" lon="-1.900597946945869"><ele>78.0</ele><time>2026-03-24T10:28:04.999Z</time></trkpt><trkpt lat="47.77270544999252" lon="-1.9008068615650622"><ele>78.33333333333333</ele><time>2026-03-24T10:28:05.999Z</time></trkpt><trkpt lat="47.77269437774315" lon="-1.9010176255481055"><ele>78.66666666666666</ele><time>2026-03-24T10:28:06.999Z</time></trkpt><trkpt lat="47.77268266377509" lon="-1.9012406053725268"><ele>79.0</ele><time>2026-03-24T10:28:07.999Z</time></trkpt><trkpt lat="47.7726692016811" lon="-1.901489384917629"><ele>79.25</ele><time>2026-03-24T10:28:08.999Z</time></trkpt><trkpt lat="47.772655792216085" lon="-1.9017266814477423"><ele>79.5</ele><time>2026-03-24T10:28:09.999Z</time></trkpt><trkpt lat="47.77264296428091" lon="-1.9019536873173017"><ele>79.75</ele><time>2026-03-24T10:28:10.999Z</time></trkpt><trkpt lat="47.772632510260756" lon="-1.902138684388963"><ele>80.0</ele><time>2026-03-24T10:28:11.999Z</time></trkpt><trkpt lat="47.77262529270191" lon="-1.9022664074316287"><ele>80.0</ele><time>2026-03-24T10:28:12.999Z</time></trkpt><trkpt lat="47.77261898215166" lon="-1.902378080574659"><ele>80.0</ele><time>2026-03-24T10:28:13.999Z</time></trkpt><trkpt lat="47.772618274391654" lon="-1.9024762491415719"><ele>80.0</ele><time>2026-03-24T10:28:14.999Z</time></trkpt><trkpt lat="47.77260934011593" lon="-1.9026079317598994"><ele>80.0</ele><time>2026-03-24T10:28:16.999Z</time></trkpt><trkpt lat="47.77261560920412" lon="-1.9027332418554093"><ele>80.0</ele><time>2026-03-24T10:28:19.999Z</time></trkpt><trkpt lat="47.77275915374027" lon="-1.902747101409148"><ele>80.6</ele><time>2026-03-24T10:28:21.999Z</time></trkpt><trkpt lat="47.77287617683018" lon="-1.9027652544093576"><ele>81.2</ele><time>2026-03-24T10:28:23.999Z</time></trkpt><trkpt lat="47.77294727088324" lon="-1.9027766586911836"><ele>81.80000000000001</ele><time>2026-03-24T10:28:24.999Z</time></trkpt><trkpt lat="47.77308966451347" lon="-1.9028173924092975"><ele>82.4</ele><time>2026-03-24T10:28:25.999Z</time></trkpt><trkpt lat="47.773201696241486" lon="-1.9028289543201216"><ele>83.0</ele><time>2026-03-24T10:28:26.999Z</time></trkpt><trkpt lat="47.77330998261305" lon="-1.9028327439789205"><ele>83.0</ele><time>2026-03-24T10:28:27.999Z</time></trkpt><trkpt lat="47.7734015799279" lon="-1.9028649727494544"><ele>83.0</ele><time>2026-03-24T10:28:28.999Z</time></trkpt><trkpt lat="47.7734950214731" lon="-1.9028686930710466"><ele>83.0</ele><time>2026-03-24T10:28:29.999Z</time></trkpt><trkpt lat="47.77358183653521" lon="-1.9028920285994912"><ele>83.0</ele><time>2026-03-24T10:28:30.999Z</time></trkpt><trkpt lat="47.773702921264906" lon="-1.902906286303631"><ele>83.0</ele><time>2026-03-24T10:28:31.999Z</time></trkpt><trkpt lat="47.773832719057566" lon="-1.9029223558170045"><ele>82.0</ele><time>2026-03-24T10:28:32.999Z</time></trkpt><trkpt lat="47.773981175974356" lon="-1.9029354236807718"><ele>81.0</ele><time>2026-03-24T10:28:33.999Z</time></trkpt><trkpt lat="47.77412815495267" lon="-1.9029458422524423"><ele>80.0</ele><time>2026-03-24T10:28:34.999Z</time></trkpt><trkpt lat="47.77426864627016" lon="-1.9029232832771121"><ele>79.0</ele><time>2026-03-24T10:28:35.999Z</time></trkpt><trkpt lat="47.77440737284285" lon="-1.9029060569797493"><ele>78.0</ele><time>2026-03-24T10:28:36.999Z</time></trkpt><trkpt lat="47.774569058563024" lon="-1.902878235721066"><ele>77.0</ele><time>2026-03-24T10:28:37.999Z</time></trkpt><trkpt lat="47.77474985916201" lon="-1.9028647735725561"><ele>76.0</ele><time>2026-03-24T10:28:38.999Z</time></trkpt><trkpt lat="47.77494460616528" lon="-1.9028458997395368"><ele>76.0</ele><time>2026-03-24T10:28:39.999Z</time></trkpt><trkpt lat="47.77512699448536" lon="-1.9028238957682522"><ele>76.0</ele><time>2026-03-24T10:28:40.999Z</time></trkpt><trkpt lat="47.775317271102836" lon="-1.902798288996672"><ele>76.0</ele><time>2026-03-24T10:28:41.999Z</time></trkpt><trkpt lat="47.77552009089653" lon="-1.9027711266781377"><ele>75.33333333333333</ele><time>2026-03-24T10:28:42.999Z</time></trkpt><trkpt lat="47.775709631852656" lon="-1.902751819665072"><ele>74.66666666666667</ele><time>2026-03-24T10:28:43.999Z</time></trkpt><trkpt lat="47.775868374274545" lon="-1.9027390195584857"><ele>74.0</ele><time>2026-03-24T10:28:44.999Z</time></trkpt><trkpt lat="47.776019175783766" lon="-1.9027107150634668"><ele>73.8</ele><time>2026-03-24T10:28:45.999Z</time></trkpt><trkpt lat="47.776138967738255" lon="-1.902698132695488"><ele>73.60000000000001</ele><time>2026-03-24T10:28:46.999Z</time></trkpt><trkpt lat="47.77624682305976" lon="-1.9026889036523877"><ele>73.4</ele><time>2026-03-24T10:28:47.999Z</time></trkpt><trkpt lat="47.77634217952107" lon="-1.9026790676478387"><ele>73.2</ele><time>2026-03-24T10:28:48.999Z</time></trkpt><trkpt lat="47.776422226676075" lon="-1.9026633523374077"><ele>73.0</ele><time>2026-03-24T10:28:49.999Z</time></trkpt><trkpt lat="47.77649335153947" lon="-1.9026462381776064"><ele>73.0</ele><time>2026-03-24T10:28:50.999Z</time></trkpt><trkpt lat="47.776556929155305" lon="-1.9026474718496167"><ele>73.0</ele><time>2026-03-24T10:28:51.999Z</time></trkpt><trkpt lat="47.77659913052001" lon="-1.9028946181004789"><ele>73.0</ele><time>2026-03-24T10:29:00.998Z</time></trkpt><trkpt lat="47.776546676312265" lon="-1.9029731218680517"><ele>73.0</ele><time>2026-03-24T10:29:01.998Z</time></trkpt><trkpt lat="47.77651788874381" lon="-1.9030789054706496"><ele>73.0</ele><time>2026-03-24T10:29:02.998Z</time></trkpt><trkpt lat="47.776480560577845" lon="-1.9031643140129295"><ele>73.0</ele><time>2026-03-24T10:29:03.998Z</time></trkpt><trkpt lat="47.77642516113327" lon="-1.9032910704232702"><ele>73.0</ele><time>2026-03-24T10:29:04.998Z</time></trkpt><trkpt lat="47.776347778621194" lon="-1.9034250507985007"><ele>73.0</ele><time>2026-03-24T10:29:05.998Z</time></trkpt><trkpt lat="47.776293360656744" lon="-1.9035747084534194"><ele>73.0</ele><time>2026-03-24T10:29:06.998Z</time></trkpt><trkpt lat="47.776246051640776" lon="-1.9036701089513262"><ele>73.0</ele><time>2026-03-24T10:29:07.998Z</time></trkpt><trkpt lat="47.776196625479095" lon="-1.9037810552985805"><ele>73.0</ele><time>2026-03-24T10:29:08.998Z</time></trkpt><trkpt lat="47.77617726916526" lon="-1.9038916723089252"><ele>73.0</ele><time>2026-03-24T10:29:09.998Z</time></trkpt><trkpt lat="47.77623551092464" lon="-1.904168265942415"><ele>73.0</ele><time>2026-03-24T10:29:11.998Z</time></trkpt><trkpt lat="47.77629633805174" lon="-1.904443815060052"><ele>73.5</ele><time>2026-03-24T10:29:12.998Z</time></trkpt><trkpt lat="47.77631196169447" lon="-1.9046775759315449"><ele>74.0</ele><time>2026-03-24T10:29:14Z</time></trkpt><trkpt lat="47.77635991421323" lon="-1.9048818613581262"><ele>74.5</ele><time>2026-03-24T10:29:15Z</time></trkpt><trkpt lat="47.776396940319934" lon="-1.9050627021372497"><ele>75.0</ele><time>2026-03-24T10:29:16Z</time></trkpt><trkpt lat="47.776435253588254" lon="-1.9052470497069791"><ele>75.0</ele><time>2026-03-24T10:29:17Z</time></trkpt><trkpt lat="47.776477042053806" lon="-1.905448118560463"><ele>75.0</ele><time>2026-03-24T10:29:18Z</time></trkpt><trkpt lat="47.77652028889969" lon="-1.9056562046720313"><ele>75.0</ele><time>2026-03-24T10:29:19Z</time></trkpt><trkpt lat="47.77655115822992" lon="-1.905887133458509"><ele>75.0</ele><time>2026-03-24T10:29:20Z</time></trkpt><trkpt lat="47.77661516695438" lon="-1.9061135230115147"><ele>74.75</ele><time>2026-03-24T10:29:21Z</time></trkpt><trkpt lat="47.77666247815127" lon="-1.9063331552670133"><ele>74.5</ele><time>2026-03-24T10:29:22Z</time></trkpt><trkpt lat="47.77671315699337" lon="-1.9065440334414987"><ele>74.25</ele><time>2026-03-24T10:29:23Z</time></trkpt><trkpt lat="47.77673877248606" lon="-1.9067270948369863"><ele>74.0</ele><time>2026-03-24T10:29:24Z</time></trkpt><trkpt lat="47.77677268551984" lon="-1.9069305386232895"><ele>73.75</ele><time>2026-03-24T10:29:25Z</time></trkpt><trkpt lat="47.776814749231484" lon="-1.9071296948492698"><ele>73.5</ele><time>2026-03-24T10:29:26Z</time></trkpt><trkpt lat="47.77685430510495" lon="-1.9073399904507111"><ele>73.25</ele><time>2026-03-24T10:29:27Z</time></trkpt><trkpt lat="47.77689831797036" lon="-1.9075623079559532"><ele>73.0</ele><time>2026-03-24T10:29:28Z</time></trkpt><trkpt lat="47.77693738874779" lon="-1.9077904697460166"><ele>73.66666666666666</ele><time>2026-03-24T10:29:29Z</time></trkpt><trkpt lat="47.77696940860202" lon="-1.9080177921298722"><ele>74.33333333333333</ele><time>2026-03-24T10:29:30Z</time></trkpt><trkpt lat="47.77699365088661" lon="-1.9082549824880966"><ele>75.0</ele><time>2026-03-24T10:29:31Z</time></trkpt><trkpt lat="47.777000824136394" lon="-1.9085015518212796"><ele>75.0</ele><time>2026-03-24T10:29:32Z</time></trkpt><trkpt lat="47.777020603451064" lon="-1.9087531924214887"><ele>75.0</ele><time>2026-03-24T10:29:33Z</time></trkpt><trkpt lat="47.77703290992927" lon="-1.9089729993754083"><ele>75.0</ele><time>2026-03-24T10:29:34Z</time></trkpt><trkpt lat="47.77704424337172" lon="-1.9092008872411417"><ele>74.0</ele><time>2026-03-24T10:29:35Z</time></trkpt><trkpt lat="47.77705594712955" lon="-1.9093925194924457"><ele>73.0</ele><time>2026-03-24T10:29:36Z</time></trkpt><trkpt lat="47.777072572299936" lon="-1.9095807891990773"><ele>72.0</ele><time>2026-03-24T10:29:37Z</time></trkpt><trkpt lat="47.77708211793982" lon="-1.9097635169994644"><ele>71.0</ele><time>2026-03-24T10:29:38Z</time></trkpt><trkpt lat="47.777093223462415" lon="-1.9099225240178832"><ele>70.5</ele><time>2026-03-24T10:29:39Z</time></trkpt><trkpt lat="47.7771046029636" lon="-1.910081054973047"><ele>70.0</ele><time>2026-03-24T10:29:40Z</time></trkpt><trkpt lat="47.77711554531882" lon="-1.9102228772665177"><ele>69.5</ele><time>2026-03-24T10:29:41Z</time></trkpt><trkpt lat="47.777124644926076" lon="-1.9103567500485557"><ele>69.0</ele><time>2026-03-24T10:29:42Z</time></trkpt><trkpt lat="47.777134090808126" lon="-1.9104774908704174"><ele>68.5</ele><time>2026-03-24T10:29:43Z</time></trkpt><trkpt lat="47.777142098913124" lon="-1.910575011226906"><ele>68.0</ele><time>2026-03-24T10:29:44Z</time></trkpt><trkpt lat="47.77714732815389" lon="-1.9106856155238907"><ele>68.0</ele><time>2026-03-24T10:29:45Z</time></trkpt><trkpt lat="47.77715008493048" lon="-1.910799081959394"><ele>68.0</ele><time>2026-03-24T10:29:46Z</time></trkpt><trkpt lat="47.77714554562302" lon="-1.9109144020698612"><ele>68.0</ele><time>2026-03-24T10:29:47Z</time></trkpt><trkpt lat="47.77713480678372" lon="-1.9110401953208096"><ele>68.0</ele><time>2026-03-24T10:29:48Z</time></trkpt><trkpt lat="47.777110570325654" lon="-1.9112049728689615"><ele>68.0</ele><time>2026-03-24T10:29:49Z</time></trkpt><trkpt lat="47.777082203666595" lon="-1.9113954436306582"><ele>68.0</ele><time>2026-03-24T10:29:50Z</time></trkpt><trkpt lat="47.77707218218219" lon="-1.911597287585458"><ele>68.0</ele><time>2026-03-24T10:29:51Z</time></trkpt><trkpt lat="47.77705459706528" lon="-1.9118039668860962"><ele>68.0</ele><time>2026-03-24T10:29:52Z</time></trkpt><trkpt lat="47.77703220822751" lon="-1.9120010897480224"><ele>68.0</ele><time>2026-03-24T10:29:53Z</time></trkpt><trkpt lat="47.7770031878044" lon="-1.9122091842033886"><ele>68.0</ele><time>2026-03-24T10:29:54Z</time></trkpt><trkpt lat="47.77696805560767" lon="-1.9124137065916096"><ele>68.0</ele><time>2026-03-24T10:29:55Z</time></trkpt><trkpt lat="47.77692848515761" lon="-1.912657465982643"><ele>68.0</ele><time>2026-03-24T10:29:56Z</time></trkpt><trkpt lat="47.77689620607948" lon="-1.9128968859898314"><ele>68.25</ele><time>2026-03-24T10:29:57Z</time></trkpt><trkpt lat="47.77688539897782" lon="-1.9130981158019398"><ele>68.5</ele><time>2026-03-24T10:29:58Z</time></trkpt><trkpt lat="47.77686290282678" lon="-1.913286085080553"><ele>68.75</ele><time>2026-03-24T10:29:59Z</time></trkpt><trkpt lat="47.7768416406496" lon="-1.9134637436243633"><ele>69.0</ele><time>2026-03-24T10:30:00Z</time></trkpt><trkpt lat="47.776822639845406" lon="-1.9136171266670456"><ele>69.2</ele><time>2026-03-24T10:30:01Z</time></trkpt><trkpt lat="47.77680750947281" lon="-1.9137375775029246"><ele>69.4</ele><time>2026-03-24T10:30:01.999Z</time></trkpt><trkpt lat="47.776790698109814" lon="-1.9138714104032013"><ele>69.6</ele><time>2026-03-24T10:30:03.999Z</time></trkpt><trkpt lat="47.776610729265535" lon="-1.9138461430056917"><ele>69.8</ele><time>2026-03-24T10:30:04.999Z</time></trkpt><trkpt lat="47.77651766483012" lon="-1.9138300356685394"><ele>70.0</ele><time>2026-03-24T10:30:05.999Z</time></trkpt><trkpt lat="47.77642233830913" lon="-1.913778067105043"><ele>70.0</ele><time>2026-03-24T10:30:06.999Z</time></trkpt><trkpt lat="47.77631955374908" lon="-1.91375957848175"><ele>70.0</ele><time>2026-03-24T10:30:07.999Z</time></trkpt><trkpt lat="47.77621378626686" lon="-1.9137234955935916"><ele>70.0</ele><time>2026-03-24T10:30:08.999Z</time></trkpt><trkpt lat="47.77610304862546" lon="-1.913683936678614"><ele>70.0</ele><time>2026-03-24T10:30:09.999Z</time></trkpt><trkpt lat="47.7760211881194" lon="-1.9136482146457345"><ele>70.0</ele><time>2026-03-24T10:30:10.999Z</time></trkpt><trkpt lat="47.775925523246585" lon="-1.9136233189230474"><ele>70.5</ele><time>2026-03-24T10:30:11.999Z</time></trkpt><trkpt lat="47.77583253739628" lon="-1.9135858417650344"><ele>71.0</ele><time>2026-03-24T10:30:12.999Z</time></trkpt><trkpt lat="47.775729260170216" lon="-1.9135468006621705"><ele>71.5</ele><time>2026-03-24T10:30:13.999Z</time></trkpt><trkpt lat="47.775607768687266" lon="-1.9135051555316858"><ele>72.0</ele><time>2026-03-24T10:30:14.999Z</time></trkpt><trkpt lat="47.775451398207785" lon="-1.9134615296391089"><ele>72.0</ele><time>2026-03-24T10:30:15.999Z</time></trkpt><trkpt lat="47.77530692652572" lon="-1.9134173988403018"><ele>72.0</ele><time>2026-03-24T10:30:16.999Z</time></trkpt><trkpt lat="47.77516834807337" lon="-1.913369117213796"><ele>72.0</ele><time>2026-03-24T10:30:17.999Z</time></trkpt><trkpt lat="47.775011647359676" lon="-1.913314979820183"><ele>72.66666666666667</ele><time>2026-03-24T10:30:18.999Z</time></trkpt><trkpt lat="47.77483344431426" lon="-1.9132404135888073"><ele>73.33333333333334</ele><time>2026-03-24T10:30:19.999Z</time></trkpt><trkpt lat="47.77468147399287" lon="-1.9131843478001127"><ele>74.0</ele><time>2026-03-24T10:30:20.999Z</time></trkpt><trkpt lat="47.77455279649424" lon="-1.9131440053628457"><ele>74.0</ele><time>2026-03-24T10:30:21.999Z</time></trkpt><trkpt lat="47.774434093336886" lon="-1.9131001729382542"><ele>74.0</ele><time>2026-03-24T10:30:22.999Z</time></trkpt><trkpt lat="47.77430474681133" lon="-1.9130583758105835"><ele>74.0</ele><time>2026-03-24T10:30:23.999Z</time></trkpt><trkpt lat="47.774183692359" lon="-1.913053658121089"><ele>74.0</ele><time>2026-03-24T10:30:24.999Z</time></trkpt><trkpt lat="47.774092684354734" lon="-1.9130378296715362"><ele>74.4</ele><time>2026-03-24T10:30:25.999Z</time></trkpt><trkpt lat="47.77402246121573" lon="-1.9130543643499087"><ele>74.80000000000001</ele><time>2026-03-24T10:30:27.999Z</time></trkpt><trkpt lat="47.77406288909296" lon="-1.9132800475898817"><ele>75.19999999999999</ele><time>2026-03-24T10:30:34.999Z</time></trkpt><trkpt lat="47.77404967294407" lon="-1.913389782766597"><ele>75.6</ele><time>2026-03-24T10:30:35.999Z</time></trkpt><trkpt lat="47.77402460190704" lon="-1.9135152484129494"><ele>76.0</ele><time>2026-03-24T10:30:36.999Z</time></trkpt><trkpt lat="47.77401498641681" lon="-1.9136777873620252"><ele>76.25</ele><time>2026-03-24T10:30:37.999Z</time></trkpt><trkpt lat="47.77399549988413" lon="-1.9138415964808082"><ele>76.5</ele><time>2026-03-24T10:30:38.999Z</time></trkpt><trkpt lat="47.77398101794738" lon="-1.9139908154463607"><ele>76.75</ele><time>2026-03-24T10:30:39.999Z</time></trkpt><trkpt lat="47.77395701312808" lon="-1.9141510700991182"><ele>77.0</ele><time>2026-03-24T10:30:40.999Z</time></trkpt><trkpt lat="47.77393000827638" lon="-1.9143444478674694"><ele>77.0</ele><time>2026-03-24T10:30:41.999Z</time></trkpt><trkpt lat="47.77390661653784" lon="-1.9145541705887517"><ele>77.0</ele><time>2026-03-24T10:30:42.999Z</time></trkpt><trkpt lat="47.77388165069939" lon="-1.914777874751173"><ele>77.0</ele><time>2026-03-24T10:30:43.999Z</time></trkpt><trkpt lat="47.77385972387601" lon="-1.9149736881090287"><ele>77.0</ele><time>2026-03-24T10:30:44.999Z</time></trkpt><trkpt lat="47.77383871202578" lon="-1.9151701746950904"><ele>77.0</ele><time>2026-03-24T10:30:45.999Z</time></trkpt><trkpt lat="47.773807675012534" lon="-1.9153956493975866"><ele>77.0</ele><time>2026-03-24T10:30:46.999Z</time></trkpt><trkpt lat="47.77378049375356" lon="-1.9156469732707826"><ele>77.0</ele><time>2026-03-24T10:30:47.999Z</time></trkpt><trkpt lat="47.773750350495504" lon="-1.9158899720747227"><ele>77.0</ele><time>2026-03-24T10:30:48.999Z</time></trkpt><trkpt lat="47.773735770615104" lon="-1.916088697515734"><ele>77.0</ele><time>2026-03-24T10:30:49.999Z</time></trkpt><trkpt lat="47.773715842549855" lon="-1.9162805005764634"><ele>77.0</ele><time>2026-03-24T10:30:50.999Z</time></trkpt><trkpt lat="47.773698639456484" lon="-1.916468324703272"><ele>77.0</ele><time>2026-03-24T10:30:51.999Z</time></trkpt><trkpt lat="47.7736701034376" lon="-1.916657958045973"><ele>77.25</ele><time>2026-03-24T10:30:52.999Z</time></trkpt><trkpt lat="47.77363772917668" lon="-1.91686744680108"><ele>77.5</ele><time>2026-03-24T10:30:53.999Z</time></trkpt><trkpt lat="47.77361479082576" lon="-1.9170655018183094"><ele>77.75</ele><time>2026-03-24T10:30:54.999Z</time></trkpt><trkpt lat="47.77361602243477" lon="-1.917260895563016"><ele>78.0</ele><time>2026-03-24T10:30:55.999Z</time></trkpt><trkpt lat="47.77361208019857" lon="-1.917448741564269"><ele>77.75</ele><time>2026-03-24T10:30:56.999Z</time></trkpt><trkpt lat="47.77360897775248" lon="-1.9176562177062098"><ele>77.5</ele><time>2026-03-24T10:30:57.999Z</time></trkpt><trkpt lat="47.773605697520615" lon="-1.91787312688378"><ele>77.25</ele><time>2026-03-24T10:30:58.999Z</time></trkpt><trkpt lat="47.773602244352226" lon="-1.9180965962442396"><ele>77.0</ele><time>2026-03-24T10:30:59.999Z</time></trkpt><trkpt lat="47.773585198798344" lon="-1.918331064659371"><ele>76.66666666666667</ele><time>2026-03-24T10:31:00.999Z</time></trkpt><trkpt lat="47.77359369313076" lon="-1.918551090643502"><ele>76.33333333333333</ele><time>2026-03-24T10:31:01.999Z</time></trkpt><trkpt lat="47.77359617227598" lon="-1.9187826580778486"><ele>76.0</ele><time>2026-03-24T10:31:02.999Z</time></trkpt><trkpt lat="47.77357902351705" lon="-1.9190392700998042"><ele>75.66666666666666</ele><time>2026-03-24T10:31:03.999Z</time></trkpt><trkpt lat="47.773564831859964" lon="-1.9193034037516512"><ele>75.33333333333333</ele><time>2026-03-24T10:31:04.999Z</time></trkpt><trkpt lat="47.77357401284445" lon="-1.9195117055031843"><ele>75.0</ele><time>2026-03-24T10:31:05.999Z</time></trkpt><trkpt lat="47.773568010699755" lon="-1.919743344756831"><ele>75.0</ele><time>2026-03-24T10:31:06.998Z</time></trkpt><trkpt lat="47.773562689154396" lon="-1.91993664115416"><ele>75.0</ele><time>2026-03-24T10:31:07.998Z</time></trkpt><trkpt lat="47.773558127452546" lon="-1.9201065946402962"><ele>75.0</ele><time>2026-03-24T10:31:08.998Z</time></trkpt><trkpt lat="47.7735593942959" lon="-1.9202575423541404"><ele>75.0</ele><time>2026-03-24T10:31:09.998Z</time></trkpt><trkpt lat="47.7735628924833" lon="-1.9204191635020613"><ele>74.75</ele><time>2026-03-24T10:31:10.998Z</time></trkpt><trkpt lat="47.773568400965935" lon="-1.9205756248656825"><ele>74.5</ele><time>2026-03-24T10:31:11.998Z</time></trkpt><trkpt lat="47.77357411400779" lon="-1.920744800721581"><ele>74.25</ele><time>2026-03-24T10:31:12.998Z</time></trkpt><trkpt lat="47.77356242093149" lon="-1.9209252693175352"><ele>74.0</ele><time>2026-03-24T10:31:13.998Z</time></trkpt><trkpt lat="47.77358808080309" lon="-1.921082406656802"><ele>73.8</ele><time>2026-03-24T10:31:14.998Z</time></trkpt><trkpt lat="47.77358522595949" lon="-1.921238186276171"><ele>73.60000000000001</ele><time>2026-03-24T10:31:15.998Z</time></trkpt><trkpt lat="47.77359087591749" lon="-1.9213663020094418"><ele>73.4</ele><time>2026-03-24T10:31:16.998Z</time></trkpt><trkpt lat="47.773597145208804" lon="-1.9214824809547284"><ele>73.2</ele><time>2026-03-24T10:31:17.998Z</time></trkpt><trkpt lat="47.773567700939246" lon="-1.9215754856142142"><ele>73.0</ele><time>2026-03-24T10:31:21Z</time></trkpt><trkpt lat="47.77340342790217" lon="-1.9215449145456323"><ele>73.0</ele><time>2026-03-24T10:31:26Z</time></trkpt><trkpt lat="47.77334893273409" lon="-1.921493329407292"><ele>73.0</ele><time>2026-03-24T10:31:27Z</time></trkpt><trkpt lat="47.77326122927474" lon="-1.9215187588089582"><ele>73.0</ele><time>2026-03-24T10:31:29Z</time></trkpt><trkpt lat="47.773214998486644" lon="-1.9217125478096075"><ele>73.0</ele><time>2026-03-24T10:31:31Z</time></trkpt><trkpt lat="47.773226986461765" lon="-1.9218801953619415"><ele>73.0</ele><time>2026-03-24T10:31:32Z</time></trkpt><trkpt lat="47.77325537975931" lon="-1.922050538536444"><ele>73.0</ele><time>2026-03-24T10:31:33Z</time></trkpt><trkpt lat="47.77328263104577" lon="-1.9222892548486648"><ele>73.0</ele><time>2026-03-24T10:31:34Z</time></trkpt><trkpt lat="47.77330130976458" lon="-1.9225492823803483"><ele>73.0</ele><time>2026-03-24T10:31:35Z</time></trkpt><trkpt lat="47.77333375782508" lon="-1.9228412783527284"><ele>73.0</ele><time>2026-03-24T10:31:36Z</time></trkpt><trkpt lat="47.77336839417289" lon="-1.9231386370496457"><ele>73.0</ele><time>2026-03-24T10:31:37Z</time></trkpt><trkpt lat="47.77339368740076" lon="-1.9234277385715817"><ele>73.0</ele><time>2026-03-24T10:31:38Z</time></trkpt><trkpt lat="47.773415263101924" lon="-1.9236942542242725"><ele>71.66666666666666</ele><time>2026-03-24T10:31:39Z</time></trkpt><trkpt lat="47.77343603008514" lon="-1.9239336344466553"><ele>70.33333333333333</ele><time>2026-03-24T10:31:40Z</time></trkpt><trkpt lat="47.773461830612234" lon="-1.9241839008335548"><ele>69.0</ele><time>2026-03-24T10:31:41Z</time></trkpt><trkpt lat="47.77347904137357" lon="-1.924417640330595"><ele>68.75</ele><time>2026-03-24T10:31:42Z</time></trkpt><trkpt lat="47.77349973780537" lon="-1.9246446265797907"><ele>68.5</ele><time>2026-03-24T10:31:43Z</time></trkpt><trkpt lat="47.77352712468067" lon="-1.9248723152127953"><ele>68.25</ele><time>2026-03-24T10:31:44Z</time></trkpt><trkpt lat="47.77353547732203" lon="-1.9250772659290012"><ele>68.0</ele><time>2026-03-24T10:31:45Z</time></trkpt><trkpt lat="47.773572470300756" lon="-1.9252913980273403"><ele>68.0</ele><time>2026-03-24T10:31:46Z</time></trkpt><trkpt lat="47.773591639121165" lon="-1.92549023109327"><ele>68.0</ele><time>2026-03-24T10:31:47Z</time></trkpt><trkpt lat="47.77361366075051" lon="-1.9257186552676318"><ele>68.0</ele><time>2026-03-24T10:31:48Z</time></trkpt><trkpt lat="47.773628943716616" lon="-1.9259722732716154"><ele>68.0</ele><time>2026-03-24T10:31:49Z</time></trkpt><trkpt lat="47.77365138097697" lon="-1.9262161210630024"><ele>68.0</ele><time>2026-03-24T10:31:50Z</time></trkpt><trkpt lat="47.77368623571325" lon="-1.926460480525174"><ele>68.0</ele><time>2026-03-24T10:31:51Z</time></trkpt><trkpt lat="47.773703570246745" lon="-1.9266605269191626"><ele>67.75</ele><time>2026-03-24T10:31:52Z</time></trkpt><trkpt lat="47.77371555580044" lon="-1.926857702831125"><ele>67.5</ele><time>2026-03-24T10:31:53Z</time></trkpt><trkpt lat="47.77373300416523" lon="-1.9270642131181535"><ele>67.25</ele><time>2026-03-24T10:31:54Z</time></trkpt><trkpt lat="47.77374434886781" lon="-1.9272551744702031"><ele>67.0</ele><time>2026-03-24T10:31:55Z</time></trkpt><trkpt lat="47.773780933843234" lon="-1.9274552552295112"><ele>66.66666666666666</ele><time>2026-03-24T10:31:56Z</time></trkpt><trkpt lat="47.77378847741542" lon="-1.9276514597864287"><ele>66.33333333333333</ele><time>2026-03-24T10:31:57Z</time></trkpt><trkpt lat="47.77381020578259" lon="-1.9278781483353318"><ele>66.0</ele><time>2026-03-24T10:31:58Z</time></trkpt><trkpt lat="47.77383474655374" lon="-1.9281270707948643"><ele>66.0</ele><time>2026-03-24T10:31:59Z</time></trkpt><trkpt lat="47.773854232898636" lon="-1.9283685445563457"><ele>66.0</ele><time>2026-03-24T10:32:00Z</time></trkpt><trkpt lat="47.77388781299414" lon="-1.9286021393785797"><ele>66.0</ele><time>2026-03-24T10:32:01Z</time></trkpt><trkpt lat="47.77391191203564" lon="-1.9288488066435558"><ele>66.33333333333333</ele><time>2026-03-24T10:32:02Z</time></trkpt><trkpt lat="47.77392213072419" lon="-1.9291090023564033"><ele>66.66666666666666</ele><time>2026-03-24T10:32:03Z</time></trkpt><trkpt lat="47.77394824673724" lon="-1.9293606870543474"><ele>67.0</ele><time>2026-03-24T10:32:04Z</time></trkpt><trkpt lat="47.77398838265403" lon="-1.9296315265249426"><ele>66.33333333333333</ele><time>2026-03-24T10:32:04.999Z</time></trkpt><trkpt lat="47.77400376227903" lon="-1.9299163072737104"><ele>65.66666666666667</ele><time>2026-03-24T10:32:05.999Z</time></trkpt><trkpt lat="47.77404260694894" lon="-1.930191410828302"><ele>65.0</ele><time>2026-03-24T10:32:06.999Z</time></trkpt><trkpt lat="47.7740644035951" lon="-1.9304199709569356"><ele>65.0</ele><time>2026-03-24T10:32:07.999Z</time></trkpt><trkpt lat="47.77408479080109" lon="-1.9306337517210868"><ele>65.0</ele><time>2026-03-24T10:32:08.999Z</time></trkpt><trkpt lat="47.77410850649599" lon="-1.9308824350245117"><ele>65.0</ele><time>2026-03-24T10:32:09.999Z</time></trkpt><trkpt lat="47.774131794786285" lon="-1.9311266366200017"><ele>64.75</ele><time>2026-03-24T10:32:10.999Z</time></trkpt><trkpt lat="47.77415314273121" lon="-1.9313477081806627"><ele>64.5</ele><time>2026-03-24T10:32:11.999Z</time></trkpt><trkpt lat="47.7741752352959" lon="-1.9315561785292976"><ele>64.25</ele><time>2026-03-24T10:32:12.999Z</time></trkpt><trkpt lat="47.77419216361797" lon="-1.9317018213487729"><ele>64.0</ele><time>2026-03-24T10:32:13.999Z</time></trkpt><trkpt lat="47.774208278261575" lon="-1.9318516106001142"><ele>64.0</ele><time>2026-03-24T10:32:14.999Z</time></trkpt><trkpt lat="47.774204599659065" lon="-1.931956218575244"><ele>64.0</ele><time>2026-03-24T10:32:15.999Z</time></trkpt><trkpt lat="47.77420331947521" lon="-1.9321139461861576"><ele>64.0</ele><time>2026-03-24T10:32:17.999Z</time></trkpt><trkpt lat="47.77412376477693" lon="-1.932181236848453"><ele>64.0</ele><time>2026-03-24T10:32:18.999Z</time></trkpt><trkpt lat="47.774032798109566" lon="-1.9321913458909128"><ele>64.0</ele><time>2026-03-24T10:32:19.999Z</time></trkpt><trkpt lat="47.77393287467557" lon="-1.9322212326401542"><ele>63.99999999999999</ele><time>2026-03-24T10:32:20.999Z</time></trkpt><trkpt lat="47.77385605583625" lon="-1.9322568546114332"><ele>64.0</ele><time>2026-03-24T10:32:21.999Z</time></trkpt><trkpt lat="47.773794236456574" lon="-1.932317118983301"><ele>64.0</ele><time>2026-03-24T10:32:23.999Z</time></trkpt><trkpt lat="47.77379713858448" lon="-1.9324285918135704"><ele>64.0</ele><time>2026-03-24T10:32:26.999Z</time></trkpt><trkpt lat="47.77385349200528" lon="-1.9324802346203922"><ele>63.99999999999999</ele><time>2026-03-24T10:32:29.019Z</time></trkpt><trkpt lat="47.77389290389981" lon="-1.9326305460355027"><ele>64.0</ele><time>2026-03-24T10:32:30.999Z</time></trkpt><trkpt lat="47.77390907980892" lon="-1.9327480088047984"><ele>63.800000000000004</ele><time>2026-03-24T10:32:31.999Z</time></trkpt><trkpt lat="47.773945642958495" lon="-1.932828753203023"><ele>63.60000000000001</ele><time>2026-03-24T10:32:32.999Z</time></trkpt><trkpt lat="47.77397024502749" lon="-1.9329239072428872"><ele>63.4</ele><time>2026-03-24T10:32:37.999Z</time></trkpt><trkpt lat="47.77383596362047" lon="-1.9330908022836062"><ele>63.2</ele><time>2026-03-24T10:32:39.999Z</time></trkpt><trkpt lat="47.773774607578844" lon="-1.9331258768072617"><ele>63.0</ele><time>2026-03-24T10:32:40.999Z</time></trkpt><trkpt lat="47.7736759744525" lon="-1.93317980426786"><ele>63.0</ele><time>2026-03-24T10:32:41.999Z</time></trkpt><trkpt lat="47.77357605813077" lon="-1.9332296975242538"><ele>63.0</ele><time>2026-03-24T10:32:42.999Z</time></trkpt><trkpt lat="47.773454761813866" lon="-1.9332977742289728"><ele>63.0</ele><time>2026-03-24T10:32:43.999Z</time></trkpt><trkpt lat="47.77335408379575" lon="-1.933346365636159"><ele>63.0</ele><time>2026-03-24T10:32:44.999Z</time></trkpt><trkpt lat="47.77324485411638" lon="-1.933423085011868"><ele>63.0</ele><time>2026-03-24T10:32:45.999Z</time></trkpt><trkpt lat="47.773104176880366" lon="-1.9334850246335764"><ele>63.0</ele><time>2026-03-24T10:32:46.999Z</time></trkpt><trkpt lat="47.77297569529723" lon="-1.9335256835781132"><ele>63.0</ele><time>2026-03-24T10:32:47.999Z</time></trkpt><trkpt lat="47.77288350969403" lon="-1.9335543458294102"><ele>63.0</ele><time>2026-03-24T10:32:48.999Z</time></trkpt><trkpt lat="47.772826937796346" lon="-1.9336005812709671"><ele>63.0</ele><time>2026-03-24T10:32:49.999Z</time></trkpt><trkpt lat="47.77276764589856" lon="-1.9337303928549643"><ele>63.0</ele><time>2026-03-24T10:32:51.999Z</time></trkpt><trkpt lat="47.772790485670605" lon="-1.9338632474117956"><ele>63.0</ele><time>2026-03-24T10:32:52.999Z</time></trkpt><trkpt lat="47.772810785916114" lon="-1.9339934551927658"><ele>63.0</ele><time>2026-03-24T10:32:53.999Z</time></trkpt><trkpt lat="47.772834816833594" lon="-1.9341288693105367"><ele>63.0</ele><time>2026-03-24T10:32:54.999Z</time></trkpt><trkpt lat="47.77285213875244" lon="-1.9343227495724684"><ele>63.0</ele><time>2026-03-24T10:32:55.999Z</time></trkpt><trkpt lat="47.77285558936176" lon="-1.9344928655863365"><ele>63.25</ele><time>2026-03-24T10:32:56.999Z</time></trkpt><trkpt lat="47.77286296708426" lon="-1.9346511443671757"><ele>63.5</ele><time>2026-03-24T10:32:57.999Z</time></trkpt><trkpt lat="47.772856823350054" lon="-1.9348323750869088"><ele>63.75</ele><time>2026-03-24T10:32:58.999Z</time></trkpt><trkpt lat="47.77282764308828" lon="-1.9350370863818047"><ele>64.0</ele><time>2026-03-24T10:32:59.999Z</time></trkpt><trkpt lat="47.77281725874884" lon="-1.9352466931572798"><ele>65.25</ele><time>2026-03-24T10:33:00.999Z</time></trkpt><trkpt lat="47.77282964109992" lon="-1.9354255037648767"><ele>66.5</ele><time>2026-03-24T10:33:01.999Z</time></trkpt><trkpt lat="47.77280725849132" lon="-1.935624379866901"><ele>67.75</ele><time>2026-03-24T10:33:02.999Z</time></trkpt><trkpt lat="47.77280966386154" lon="-1.9357865328423987"><ele>69.0</ele><time>2026-03-24T10:33:03.999Z</time></trkpt><trkpt lat="47.77285950421609" lon="-1.9359614430068461"><ele>69.4</ele><time>2026-03-24T10:33:04.999Z</time></trkpt><trkpt lat="47.772875962413394" lon="-1.9361533357598772"><ele>69.80000000000001</ele><time>2026-03-24T10:33:05.999Z</time></trkpt><trkpt lat="47.77292540517607" lon="-1.9363273301798376"><ele>70.19999999999999</ele><time>2026-03-24T10:33:06.999Z</time></trkpt><trkpt lat="47.77295427743694" lon="-1.9364702356891603"><ele>70.6</ele><time>2026-03-24T10:33:07.999Z</time></trkpt><trkpt lat="47.77296522013746" lon="-1.9366039741712417"><ele>71.0</ele><time>2026-03-24T10:33:08.998Z</time></trkpt><trkpt lat="47.772970646099125" lon="-1.9367783331334714"><ele>72.75</ele><time>2026-03-24T10:33:09.998Z</time></trkpt><trkpt lat="47.773000769801996" lon="-1.9369698990492306"><ele>74.5</ele><time>2026-03-24T10:33:10.998Z</time></trkpt><trkpt lat="47.77302963092682" lon="-1.9371344925524285"><ele>76.25</ele><time>2026-03-24T10:33:11.998Z</time></trkpt><trkpt lat="47.77305744486432" lon="-1.9373043602425042"><ele>78.0</ele><time>2026-03-24T10:33:12.998Z</time></trkpt><trkpt lat="47.773115904114206" lon="-1.9374775572744078"><ele>79.5</ele><time>2026-03-24T10:33:13.998Z</time></trkpt><trkpt lat="47.77315170071067" lon="-1.9376485951434999"><ele>81.0</ele><time>2026-03-24T10:33:14.998Z</time></trkpt><trkpt lat="47.77318915153886" lon="-1.9378420022378873"><ele>82.5</ele><time>2026-03-24T10:33:15.998Z</time></trkpt><trkpt lat="47.773223189947565" lon="-1.938036034122343"><ele>84.0</ele><time>2026-03-24T10:33:16.998Z</time></trkpt><trkpt lat="47.77326589816776" lon="-1.9382419912428397"><ele>83.0</ele><time>2026-03-24T10:33:17.998Z</time></trkpt><trkpt lat="47.773275406231356" lon="-1.938458320658748"><ele>82.0</ele><time>2026-03-24T10:33:18.998Z</time></trkpt><trkpt lat="47.77330051761456" lon="-1.9386476129169827"><ele>81.0</ele><time>2026-03-24T10:33:19.998Z</time></trkpt><trkpt lat="47.77333384492201" lon="-1.9388462083583047"><ele>80.0</ele><time>2026-03-24T10:33:20.998Z</time></trkpt><trkpt lat="47.77335934210954" lon="-1.9390700156977008"><ele>78.66666666666667</ele><time>2026-03-24T10:33:21.998Z</time></trkpt><trkpt lat="47.77339983488392" lon="-1.9392617253254016"><ele>77.33333333333333</ele><time>2026-03-24T10:33:22.998Z</time></trkpt><trkpt lat="47.773437095129104" lon="-1.939472425169853"><ele>76.0</ele><time>2026-03-24T10:33:23.998Z</time></trkpt><trkpt lat="47.7734618811096" lon="-1.9397446374139342"><ele>76.0</ele><time>2026-03-24T10:33:24.998Z</time></trkpt><trkpt lat="47.773492073170296" lon="-1.939982689092472"><ele>76.0</ele><time>2026-03-24T10:33:26Z</time></trkpt><trkpt lat="47.77353679322737" lon="-1.940202795914195"><ele>76.0</ele><time>2026-03-24T10:33:27Z</time></trkpt><trkpt lat="47.77357532857049" lon="-1.9404671180510447"><ele>73.66666666666666</ele><time>2026-03-24T10:33:28Z</time></trkpt><trkpt lat="47.77361283123513" lon="-1.9407099207703313"><ele>71.33333333333333</ele><time>2026-03-24T10:33:29Z</time></trkpt><trkpt lat="47.77365044276659" lon="-1.9409653373030882"><ele>69.0</ele><time>2026-03-24T10:33:30Z</time></trkpt><trkpt lat="47.77368730992466" lon="-1.9412289526058268"><ele>69.0</ele><time>2026-03-24T10:33:31Z</time></trkpt><trkpt lat="47.77372491848316" lon="-1.94146893281999"><ele>69.0</ele><time>2026-03-24T10:33:32Z</time></trkpt><trkpt lat="47.77376055026862" lon="-1.9417292509848834"><ele>69.0</ele><time>2026-03-24T10:33:33Z</time></trkpt><trkpt lat="47.7737995849623" lon="-1.9419744937631118"><ele>69.0</ele><time>2026-03-24T10:33:34Z</time></trkpt><trkpt lat="47.773839048687684" lon="-1.9422347493126508"><ele>69.0</ele><time>2026-03-24T10:33:35Z</time></trkpt><trkpt lat="47.77389882147998" lon="-1.9425001371516404"><ele>69.0</ele><time>2026-03-24T10:33:36Z</time></trkpt><trkpt lat="47.77394092279035" lon="-1.9427616184869825"><ele>68.33333333333333</ele><time>2026-03-24T10:33:37Z</time></trkpt><trkpt lat="47.77396592213852" lon="-1.9430208215999696"><ele>67.66666666666666</ele><time>2026-03-24T10:33:38Z</time></trkpt><trkpt lat="47.77400334673521" lon="-1.9432395502784556"><ele>67.0</ele><time>2026-03-24T10:33:39Z</time></trkpt><trkpt lat="47.77405270841698" lon="-1.9434558926558974"><ele>67.0</ele><time>2026-03-24T10:33:40Z</time></trkpt><trkpt lat="47.77407943870349" lon="-1.9436219081294936"><ele>67.0</ele><time>2026-03-24T10:33:41Z</time></trkpt><trkpt lat="47.77409665519085" lon="-1.9437382027941383"><ele>67.0</ele><time>2026-03-24T10:33:42Z</time></trkpt><trkpt lat="47.774110306951606" lon="-1.9438413952009834"><ele>67.0</ele><time>2026-03-24T10:33:43Z</time></trkpt><trkpt lat="47.774123310702066" lon="-1.9439463879635244"><ele>67.0</ele><time>2026-03-24T10:33:44Z</time></trkpt><trkpt lat="47.77413658541682" lon="-1.9440570112877842"><ele>67.0</ele><time>2026-03-24T10:33:46Z</time></trkpt><trkpt lat="47.77419565990047" lon="-1.944090722222821"><ele>67.0</ele><time>2026-03-24T10:33:50Z</time></trkpt><trkpt lat="47.77425754817321" lon="-1.9441448333214884"><ele>67.0</ele><time>2026-03-24T10:33:52Z</time></trkpt><trkpt lat="47.77432821477387" lon="-1.944144442740483"><ele>67.0</ele><time>2026-03-24T10:33:53Z</time></trkpt><trkpt lat="47.774409967420866" lon="-1.9441478010644904"><ele>67.0</ele><time>2026-03-24T10:33:54Z</time></trkpt><trkpt lat="47.774491477506444" lon="-1.9441531653730535"><ele>67.0</ele><time>2026-03-24T10:33:55Z</time></trkpt><trkpt lat="47.774590130019725" lon="-1.944158993885135"><ele>67.0</ele><time>2026-03-24T10:33:56Z</time></trkpt><trkpt lat="47.774701610214834" lon="-1.9441682760548258"><ele>65.8</ele><time>2026-03-24T10:33:57Z</time></trkpt><trkpt lat="47.77480449076307" lon="-1.9441746419037433"><ele>64.6</ele><time>2026-03-24T10:33:58Z</time></trkpt><trkpt lat="47.77490641305154" lon="-1.9441772610263097"><ele>63.39999999999999</ele><time>2026-03-24T10:33:59Z</time></trkpt><trkpt lat="47.775020283753676" lon="-1.944178730332476"><ele>62.199999999999996</ele><time>2026-03-24T10:34:00Z</time></trkpt><trkpt lat="47.775136011767096" lon="-1.9441891544049617"><ele>61.0</ele><time>2026-03-24T10:34:01Z</time></trkpt><trkpt lat="47.77524971494223" lon="-1.9441934524734217"><ele>60.4</ele><time>2026-03-24T10:34:02Z</time></trkpt><trkpt lat="47.775351518567994" lon="-1.9441976905760068"><ele>59.8</ele><time>2026-03-24T10:34:03Z</time></trkpt><trkpt lat="47.77544933363263" lon="-1.9442062343822215"><ele>59.199999999999996</ele><time>2026-03-24T10:34:04Z</time></trkpt><trkpt lat="47.77556730467892" lon="-1.944212854306412"><ele>58.599999999999994</ele><time>2026-03-24T10:34:05Z</time></trkpt><trkpt lat="47.77569461410283" lon="-1.9442188925833832"><ele>58.0</ele><time>2026-03-24T10:34:06Z</time></trkpt><trkpt lat="47.775823280174365" lon="-1.9442180665257238"><ele>58.0</ele><time>2026-03-24T10:34:07Z</time></trkpt><trkpt lat="47.77593252106703" lon="-1.9442194109769182"><ele>58.0</ele><time>2026-03-24T10:34:08Z</time></trkpt><trkpt lat="47.77602936266503" lon="-1.9442252928928072"><ele>58.0</ele><time>2026-03-24T10:34:09Z</time></trkpt><trkpt lat="47.776126592098684" lon="-1.9442235104117065"><ele>58.0</ele><time>2026-03-24T10:34:10Z</time></trkpt><trkpt lat="47.77621816593414" lon="-1.9442334523098073"><ele>58.0</ele><time>2026-03-24T10:34:11Z</time></trkpt><trkpt lat="47.77629050474447" lon="-1.9442362529652661"><ele>57.666666666666664</ele><time>2026-03-24T10:34:12Z</time></trkpt><trkpt lat="47.77641356393104" lon="-1.944218104446025"><ele>57.33333333333333</ele><time>2026-03-24T10:34:13.999Z</time></trkpt><trkpt lat="47.77649624161612" lon="-1.9442311430502075"><ele>57.0</ele><time>2026-03-24T10:34:15.999Z</time></trkpt><trkpt lat="47.776561141598144" lon="-1.9442172598613845"><ele>56.66666666666667</ele><time>2026-03-24T10:34:24.999Z</time></trkpt><trkpt lat="47.77666919408158" lon="-1.944220719462425"><ele>56.333333333333336</ele><time>2026-03-24T10:34:26.999Z</time></trkpt><trkpt lat="47.77673216801008" lon="-1.9442265714092821"><ele>56.0</ele><time>2026-03-24T10:34:27.999Z</time></trkpt><trkpt lat="47.7768029245814" lon="-1.9442420050465232"><ele>56.199999999999996</ele><time>2026-03-24T10:34:28.999Z</time></trkpt><trkpt lat="47.77689197962551" lon="-1.9442850965551541"><ele>56.39999999999999</ele><time>2026-03-24T10:34:29.999Z</time></trkpt><trkpt lat="47.77699393413767" lon="-1.9442975359149057"><ele>56.6</ele><time>2026-03-24T10:34:30.999Z</time></trkpt><trkpt lat="47.777116214110066" lon="-1.944344654334004"><ele>56.8</ele><time>2026-03-24T10:34:31.999Z</time></trkpt><trkpt lat="47.77723469554305" lon="-1.9443758026217017"><ele>57.0</ele><time>2026-03-24T10:34:32.999Z</time></trkpt><trkpt lat="47.777361068143584" lon="-1.944390567606021"><ele>57.0</ele><time>2026-03-24T10:34:33.999Z</time></trkpt><trkpt lat="47.777481460054695" lon="-1.9443980294480734"><ele>57.0</ele><time>2026-03-24T10:34:34.999Z</time></trkpt><trkpt lat="47.7775765434322" lon="-1.9444059250924688"><ele>57.0</ele><time>2026-03-24T10:34:35.999Z</time></trkpt><trkpt lat="47.77766338405554" lon="-1.9443910364362225"><ele>57.0</ele><time>2026-03-24T10:34:36.999Z</time></trkpt><trkpt lat="47.77773849668147" lon="-1.9444266336757041"><ele>57.0</ele><time>2026-03-24T10:34:38.999Z</time></trkpt><trkpt lat="47.77781263941004" lon="-1.9446685532094654"><ele>57.0</ele><time>2026-03-24T10:34:41.999Z</time></trkpt><trkpt lat="47.777822162814196" lon="-1.9448263655591032"><ele>57.0</ele><time>2026-03-24T10:34:42.999Z</time></trkpt><trkpt lat="47.7778341398241" lon="-1.9450248372025798"><ele>57.0</ele><time>2026-03-24T10:34:43.999Z</time></trkpt><trkpt lat="47.777830248421296" lon="-1.9452124073871508"><ele>57.0</ele><time>2026-03-24T10:34:44.999Z</time></trkpt><trkpt lat="47.77784379483196" lon="-1.9453851435289653"><ele>57.0</ele><time>2026-03-24T10:34:45.999Z</time></trkpt><trkpt lat="47.777857674789324" lon="-1.9455725006206712"><ele>57.0</ele><time>2026-03-24T10:34:46.999Z</time></trkpt><trkpt lat="47.77787894609159" lon="-1.9457673228993315"><ele>57.0</ele><time>2026-03-24T10:34:47.999Z</time></trkpt><trkpt lat="47.77789185255991" lon="-1.9459753716912689"><ele>57.0</ele><time>2026-03-24T10:34:48.999Z</time></trkpt><trkpt lat="47.77789483770164" lon="-1.9461760138598756"><ele>57.0</ele><time>2026-03-24T10:34:49.999Z</time></trkpt><trkpt lat="47.77790739699214" lon="-1.9463850637123616"><ele>57.0</ele><time>2026-03-24T10:34:50.999Z</time></trkpt><trkpt lat="47.77792097855706" lon="-1.9466039980115917"><ele>57.0</ele><time>2026-03-24T10:34:51.999Z</time></trkpt><trkpt lat="47.777934846972194" lon="-1.9468285773587561"><ele>57.0</ele><time>2026-03-24T10:34:52.999Z</time></trkpt><trkpt lat="47.77796297368401" lon="-1.9470755323670834"><ele>57.66666666666667</ele><time>2026-03-24T10:34:53.999Z</time></trkpt><trkpt lat="47.77797868157981" lon="-1.9473244671409917"><ele>58.333333333333336</ele><time>2026-03-24T10:34:54.999Z</time></trkpt><trkpt lat="47.77798254259165" lon="-1.9475549659879678"><ele>59.0</ele><time>2026-03-24T10:34:55.999Z</time></trkpt><trkpt lat="47.77799498980504" lon="-1.9477729672233413"><ele>59.25</ele><time>2026-03-24T10:34:56.999Z</time></trkpt><trkpt lat="47.77800345920065" lon="-1.9479953250469066"><ele>59.5</ele><time>2026-03-24T10:34:57.999Z</time></trkpt><trkpt lat="47.77801530793045" lon="-1.9481855296291906"><ele>59.75</ele><time>2026-03-24T10:34:58.999Z</time></trkpt><trkpt lat="47.778024798021896" lon="-1.9483535123529296"><ele>60.0</ele><time>2026-03-24T10:34:59.999Z</time></trkpt><trkpt lat="47.77803682964761" lon="-1.9485009050320865"><ele>60.4</ele><time>2026-03-24T10:35:00.999Z</time></trkpt><trkpt lat="47.77803962207697" lon="-1.9485989295226456"><ele>60.8</ele><time>2026-03-24T10:35:01.999Z</time></trkpt><trkpt lat="47.778136385433974" lon="-1.9486483027077968"><ele>61.2</ele><time>2026-03-24T10:35:05.999Z</time></trkpt><trkpt lat="47.778256992815265" lon="-1.9486266622286856"><ele>61.6</ele><time>2026-03-24T10:35:07.999Z</time></trkpt><trkpt lat="47.77836465724422" lon="-1.9486116206485504"><ele>62.0</ele><time>2026-03-24T10:35:08.999Z</time></trkpt><trkpt lat="47.778491379981006" lon="-1.948614861118594"><ele>61.400000000000006</ele><time>2026-03-24T10:35:09.999Z</time></trkpt><trkpt lat="47.778596231026434" lon="-1.9485984577980662"><ele>60.800000000000004</ele><time>2026-03-24T10:35:10.999Z</time></trkpt><trkpt lat="47.778744115704846" lon="-1.94856727177445"><ele>60.2</ele><time>2026-03-24T10:35:11.999Z</time></trkpt><trkpt lat="47.77885134392826" lon="-1.9485543021503577"><ele>59.6</ele><time>2026-03-24T10:35:12.999Z</time></trkpt><trkpt lat="47.7789253569826" lon="-1.9485502939976163"><ele>59.0</ele><time>2026-03-24T10:35:13.999Z</time></trkpt><trkpt lat="47.779054993721175" lon="-1.948571105050294"><ele>59.0</ele><time>2026-03-24T10:35:15.999Z</time></trkpt><trkpt lat="47.77912999846666" lon="-1.9486166026851506"><ele>59.00000000000001</ele><time>2026-03-24T10:35:16.998Z</time></trkpt><trkpt lat="47.77921347313144" lon="-1.9486916435935595"><ele>59.00000000000001</ele><time>2026-03-24T10:35:17.998Z</time></trkpt><trkpt lat="47.77929678397856" lon="-1.9488158485131883"><ele>59.0</ele><time>2026-03-24T10:35:18.998Z</time></trkpt><trkpt lat="47.77937277330993" lon="-1.9489576785377076"><ele>59.0</ele><time>2026-03-24T10:35:19.998Z</time></trkpt><trkpt lat="47.77943812627887" lon="-1.9491354862268588"><ele>57.333333333333336</ele><time>2026-03-24T10:35:20.998Z</time></trkpt><trkpt lat="47.779513437946754" lon="-1.9493245741944683"><ele>55.66666666666667</ele><time>2026-03-24T10:35:21.998Z</time></trkpt><trkpt lat="47.779609584619074" lon="-1.9495492968658037"><ele>54.0</ele><time>2026-03-24T10:35:22.998Z</time></trkpt><trkpt lat="47.77968894802845" lon="-1.9497514424707132"><ele>54.0</ele><time>2026-03-24T10:35:23.998Z</time></trkpt><trkpt lat="47.77976404598524" lon="-1.949937063767909"><ele>54.0</ele><time>2026-03-24T10:35:24.998Z</time></trkpt><trkpt lat="47.77983559472752" lon="-1.950117756321428"><ele>54.0</ele><time>2026-03-24T10:35:25.998Z</time></trkpt><trkpt lat="47.77989478790004" lon="-1.9502612379211368"><ele>54.0</ele><time>2026-03-24T10:35:26.998Z</time></trkpt><trkpt lat="47.77993618035199" lon="-1.9503646731997024"><ele>54.2</ele><time>2026-03-24T10:35:27.998Z</time></trkpt><trkpt lat="47.77998473414176" lon="-1.9505103579879335"><ele>54.400000000000006</ele><time>2026-03-24T10:35:28.998Z</time></trkpt><trkpt lat="47.78000056977088" lon="-1.95068952237663"><ele>54.6</ele><time>2026-03-24T10:35:29.998Z</time></trkpt><trkpt lat="47.780039501140784" lon="-1.9508561894788652"><ele>54.8</ele><time>2026-03-24T10:35:30.998Z</time></trkpt><trkpt lat="47.7800532322322" lon="-1.9509874277832993"><ele>55.0</ele><time>2026-03-24T10:35:32Z</time></trkpt><trkpt lat="47.78007505773163" lon="-1.9510978291808296"><ele>55.2</ele><time>2026-03-24T10:35:33Z</time></trkpt><trkpt lat="47.78011479402941" lon="-1.9512073608298572"><ele>55.4</ele><time>2026-03-24T10:35:35Z</time></trkpt><trkpt lat="47.78025740948795" lon="-1.9512037883115279"><ele>55.599999999999994</ele><time>2026-03-24T10:35:37Z</time></trkpt><trkpt lat="47.78033904763183" lon="-1.9511554632631938"><ele>55.8</ele><time>2026-03-24T10:35:38Z</time></trkpt><trkpt lat="47.78043406470333" lon="-1.9511170321268638"><ele>56.0</ele><time>2026-03-24T10:35:39Z</time></trkpt><trkpt lat="47.78053289263813" lon="-1.951051844937878"><ele>55.0</ele><time>2026-03-24T10:35:40Z</time></trkpt><trkpt lat="47.780644938393294" lon="-1.9510080757064874"><ele>54.0</ele><time>2026-03-24T10:35:41Z</time></trkpt><trkpt lat="47.7807442103494" lon="-1.9509767836547842"><ele>53.0</ele><time>2026-03-24T10:35:42Z</time></trkpt><trkpt lat="47.78081207679242" lon="-1.9509490596737984"><ele>52.0</ele><time>2026-03-24T10:35:43Z</time></trkpt><trkpt lat="47.78092882828358" lon="-1.9511172356166742"><ele>52.0</ele><time>2026-03-24T10:35:46Z</time></trkpt><trkpt lat="47.78093864504775" lon="-1.9512440576095476"><ele>52.0</ele><time>2026-03-24T10:35:47Z</time></trkpt><trkpt lat="47.78095159776553" lon="-1.9513934542752076"><ele>52.0</ele><time>2026-03-24T10:35:48Z</time></trkpt><trkpt lat="47.78096790370798" lon="-1.9515790719559225"><ele>52.0</ele><time>2026-03-24T10:35:49Z</time></trkpt><trkpt lat="47.780989143634336" lon="-1.951781013387765"><ele>52.0</ele><time>2026-03-24T10:35:50Z</time></trkpt><trkpt lat="47.78100056002155" lon="-1.9520150563490846"><ele>52.0</ele><time>2026-03-24T10:35:51Z</time></trkpt><trkpt lat="47.78101899700014" lon="-1.9522254193864914"><ele>52.0</ele><time>2026-03-24T10:35:52Z</time></trkpt><trkpt lat="47.781041654973436" lon="-1.9524156077988457"><ele>52.0</ele><time>2026-03-24T10:35:53Z</time></trkpt><trkpt lat="47.78109778642581" lon="-1.9525801323578775"><ele>51.25</ele><time>2026-03-24T10:35:54Z</time></trkpt><trkpt lat="47.78116330608883" lon="-1.9527667488950795"><ele>50.5</ele><time>2026-03-24T10:35:55Z</time></trkpt><trkpt lat="47.78125110106178" lon="-1.9529381450928656"><ele>49.75</ele><time>2026-03-24T10:35:56Z</time></trkpt><trkpt lat="47.78135375329639" lon="-1.9530935000827823"><ele>49.0</ele><time>2026-03-24T10:35:57Z</time></trkpt><trkpt lat="47.78144751993901" lon="-1.9532700677799173"><ele>49.33333333333333</ele><time>2026-03-24T10:35:58Z</time></trkpt><trkpt lat="47.781566613329495" lon="-1.953445868333123"><ele>49.66666666666667</ele><time>2026-03-24T10:35:59Z</time></trkpt><trkpt lat="47.78167418311861" lon="-1.953649052706856"><ele>50.0</ele><time>2026-03-24T10:36:00Z</time></trkpt><trkpt lat="47.7817941596412" lon="-1.953849791512613"><ele>49.25</ele><time>2026-03-24T10:36:01Z</time></trkpt><trkpt lat="47.781902356653646" lon="-1.954000858383622"><ele>48.5</ele><time>2026-03-24T10:36:02Z</time></trkpt><trkpt lat="47.78199959890725" lon="-1.9541549977568269"><ele>47.75</ele><time>2026-03-24T10:36:03Z</time></trkpt><trkpt lat="47.78208111725379" lon="-1.9542842130916114"><ele>47.0</ele><time>2026-03-24T10:36:04Z</time></trkpt><trkpt lat="47.7821587450356" lon="-1.9544377157240342"><ele>47.0</ele><time>2026-03-24T10:36:05Z</time></trkpt><trkpt lat="47.7822417763612" lon="-1.9545756505549656"><ele>47.0</ele><time>2026-03-24T10:36:06Z</time></trkpt><trkpt lat="47.782330202451845" lon="-1.9547380982691192"><ele>47.0</ele><time>2026-03-24T10:36:07Z</time></trkpt><trkpt lat="47.78242567167289" lon="-1.9548587830107091"><ele>47.0</ele><time>2026-03-24T10:36:08Z</time></trkpt><trkpt lat="47.782495999340185" lon="-1.9550020501697105"><ele>47.0</ele><time>2026-03-24T10:36:09Z</time></trkpt><trkpt lat="47.78254192270569" lon="-1.9551878257220552"><ele>47.0</ele><time>2026-03-24T10:36:10Z</time></trkpt><trkpt lat="47.78261309087662" lon="-1.955377165245919"><ele>47.0</ele><time>2026-03-24T10:36:11Z</time></trkpt><trkpt lat="47.782669094999164" lon="-1.955594098294727"><ele>47.0</ele><time>2026-03-24T10:36:12Z</time></trkpt><trkpt lat="47.782722299709704" lon="-1.9557733118194145"><ele>46.5</ele><time>2026-03-24T10:36:13Z</time></trkpt><trkpt lat="47.78279494053493" lon="-1.9559219120050841"><ele>46.0</ele><time>2026-03-24T10:36:14Z</time></trkpt><trkpt lat="47.78287498524749" lon="-1.9560458679366377"><ele>45.5</ele><time>2026-03-24T10:36:15Z</time></trkpt><trkpt lat="47.78297313888403" lon="-1.9561830519195225"><ele>45.0</ele><time>2026-03-24T10:36:15.999Z</time></trkpt><trkpt lat="47.78304941896378" lon="-1.9563611315145113"><ele>45.0</ele><time>2026-03-24T10:36:16.999Z</time></trkpt><trkpt lat="47.783101457086076" lon="-1.9565519339737583"><ele>45.0</ele><time>2026-03-24T10:36:17.999Z</time></trkpt><trkpt lat="47.78317271666595" lon="-1.9567265952571677"><ele>45.0</ele><time>2026-03-24T10:36:18.999Z</time></trkpt><trkpt lat="47.78324887358149" lon="-1.9569156217174453"><ele>45.0</ele><time>2026-03-24T10:36:19.999Z</time></trkpt><trkpt lat="47.783314013286784" lon="-1.9570954203791693"><ele>45.0</ele><time>2026-03-24T10:36:20.999Z</time></trkpt><trkpt lat="47.78339058162233" lon="-1.9572398920811378"><ele>45.0</ele><time>2026-03-24T10:36:21.999Z</time></trkpt><trkpt lat="47.78344335181441" lon="-1.9573810909629032"><ele>45.0</ele><time>2026-03-24T10:36:22.999Z</time></trkpt><trkpt lat="47.7834773293896" lon="-1.9575217654179846"><ele>45.0</ele><time>2026-03-24T10:36:23.999Z</time></trkpt><trkpt lat="47.783525847513154" lon="-1.957639029369075"><ele>45.0</ele><time>2026-03-24T10:36:24.999Z</time></trkpt><trkpt lat="47.78357350482239" lon="-1.9577554874513206"><ele>44.8</ele><time>2026-03-24T10:36:25.999Z</time></trkpt><trkpt lat="47.78362151536167" lon="-1.957869811547314"><ele>44.6</ele><time>2026-03-24T10:36:26.999Z</time></trkpt><trkpt lat="47.78367167114927" lon="-1.9579970223195566"><ele>44.400000000000006</ele><time>2026-03-24T10:36:27.999Z</time></trkpt><trkpt lat="47.78372300381133" lon="-1.95813999877535"><ele>44.2</ele><time>2026-03-24T10:36:28.999Z</time></trkpt><trkpt lat="47.78376437566322" lon="-1.9583196639920468"><ele>44.0</ele><time>2026-03-24T10:36:29.999Z</time></trkpt><trkpt lat="47.78377642964975" lon="-1.95852706742021"><ele>44.666666666666664</ele><time>2026-03-24T10:36:30.999Z</time></trkpt><trkpt lat="47.78377829804995" lon="-1.9587481893359961"><ele>45.333333333333336</ele><time>2026-03-24T10:36:31.999Z</time></trkpt><trkpt lat="47.783768878757826" lon="-1.958977780775229"><ele>46.0</ele><time>2026-03-24T10:36:32.999Z</time></trkpt><trkpt lat="47.78375536492603" lon="-1.9592036434127973"><ele>46.0</ele><time>2026-03-24T10:36:33.999Z</time></trkpt><trkpt lat="47.7837434827226" lon="-1.9594366109423034"><ele>46.0</ele><time>2026-03-24T10:36:34.999Z</time></trkpt><trkpt lat="47.78374365827898" lon="-1.9596687287324426"><ele>46.0</ele><time>2026-03-24T10:36:35.999Z</time></trkpt><trkpt lat="47.78371532981303" lon="-1.9599279658990343"><ele>45.75</ele><time>2026-03-24T10:36:36.999Z</time></trkpt><trkpt lat="47.783712632022635" lon="-1.960185936894591"><ele>45.5</ele><time>2026-03-24T10:36:37.999Z</time></trkpt><trkpt lat="47.78370133459722" lon="-1.960402267142344"><ele>45.25</ele><time>2026-03-24T10:36:38.999Z</time></trkpt><trkpt lat="47.78367775794988" lon="-1.9605507255574635"><ele>45.0</ele><time>2026-03-24T10:36:39.999Z</time></trkpt><trkpt lat="47.783675928085614" lon="-1.960650586686334"><ele>45.0</ele><time>2026-03-24T10:36:40.999Z</time></trkpt><trkpt lat="47.78368585334095" lon="-1.9607626299683225"><ele>45.0</ele><time>2026-03-24T10:36:42.999Z</time></trkpt><trkpt lat="47.7837639982972" lon="-1.9608098082133931"><ele>45.0</ele><time>2026-03-24T10:36:44.999Z</time></trkpt><trkpt lat="47.78389986199219" lon="-1.9608533455869759"><ele>45.0</ele><time>2026-03-24T10:36:46.999Z</time></trkpt><trkpt lat="47.78399172962323" lon="-1.9608431319623953"><ele>45.0</ele><time>2026-03-24T10:36:47.999Z</time></trkpt><trkpt lat="47.78409688149594" lon="-1.9608390641641302"><ele>45.0</ele><time>2026-03-24T10:36:48.999Z</time></trkpt><trkpt lat="47.784236566557084" lon="-1.9608647767759384"><ele>45.0</ele><time>2026-03-24T10:36:49.999Z</time></trkpt><trkpt lat="47.784403505473435" lon="-1.9608692131046093"><ele>45.0</ele><time>2026-03-24T10:36:50.999Z</time></trkpt><trkpt lat="47.784548524919884" lon="-1.9608813917578918"><ele>44.75</ele><time>2026-03-24T10:36:51.999Z</time></trkpt><trkpt lat="47.784696763591676" lon="-1.96086759355547"><ele>44.5</ele><time>2026-03-24T10:36:52.999Z</time></trkpt><trkpt lat="47.784860964251905" lon="-1.9608607733385974"><ele>44.25</ele><time>2026-03-24T10:36:53.999Z</time></trkpt><trkpt lat="47.78499116457303" lon="-1.9608552254882308"><ele>44.0</ele><time>2026-03-24T10:36:54.999Z</time></trkpt><trkpt lat="47.78509294055393" lon="-1.960828804109054"><ele>44.0</ele><time>2026-03-24T10:36:55.999Z</time></trkpt><trkpt lat="47.785170735740806" lon="-1.9608012883816979"><ele>44.0</ele><time>2026-03-24T10:36:56.999Z</time></trkpt><trkpt lat="47.78527723006964" lon="-1.960785081557301"><ele>44.0</ele><time>2026-03-24T10:36:58.999Z</time></trkpt><trkpt lat="47.785353018063105" lon="-1.9610167520126105"><ele>44.0</ele><time>2026-03-24T10:37:00.999Z</time></trkpt><trkpt lat="47.78531593212388" lon="-1.9611509269551588"><ele>44.25</ele><time>2026-03-24T10:37:01.999Z</time></trkpt><trkpt lat="47.78527316984474" lon="-1.9612905727057153"><ele>44.5</ele><time>2026-03-24T10:37:02.999Z</time></trkpt><trkpt lat="47.78521853690371" lon="-1.9614800488101287"><ele>44.75</ele><time>2026-03-24T10:37:03.999Z</time></trkpt><trkpt lat="47.78515349325805" lon="-1.961712477617284"><ele>45.0</ele><time>2026-03-24T10:37:04.999Z</time></trkpt><trkpt lat="47.785093713676076" lon="-1.9619267697252507"><ele>45.0</ele><time>2026-03-24T10:37:05.999Z</time></trkpt><trkpt lat="47.78502920782933" lon="-1.962161161433767"><ele>45.0</ele><time>2026-03-24T10:37:06.999Z</time></trkpt><trkpt lat="47.78496175605035" lon="-1.962408621324996"><ele>45.0</ele><time>2026-03-24T10:37:07.999Z</time></trkpt><trkpt lat="47.78488804698889" lon="-1.9626717065638108"><ele>45.0</ele><time>2026-03-24T10:37:08.999Z</time></trkpt><trkpt lat="47.78480777559734" lon="-1.9629537123054226"><ele>45.0</ele><time>2026-03-24T10:37:09.999Z</time></trkpt><trkpt lat="47.78472950483725" lon="-1.9632286894097608"><ele>45.0</ele><time>2026-03-24T10:37:10.999Z</time></trkpt><trkpt lat="47.78465537117832" lon="-1.9634901630463544"><ele>46.0</ele><time>2026-03-24T10:37:11.999Z</time></trkpt><trkpt lat="47.78457934428441" lon="-1.9637617412399784"><ele>47.0</ele><time>2026-03-24T10:37:12.999Z</time></trkpt><trkpt lat="47.78451084963598" lon="-1.9640064132279638"><ele>48.0</ele><time>2026-03-24T10:37:13.999Z</time></trkpt><trkpt lat="47.784447056069375" lon="-1.9642342923293532"><ele>49.0</ele><time>2026-03-24T10:37:14.999Z</time></trkpt><trkpt lat="47.78438343556433" lon="-1.9644615532463283"><ele>50.0</ele><time>2026-03-24T10:37:15.999Z</time></trkpt><trkpt lat="47.78432277666224" lon="-1.9646766206239161"><ele>51.0</ele><time>2026-03-24T10:37:16.999Z</time></trkpt><trkpt lat="47.784256675145365" lon="-1.9649085869615794"><ele>48.333333333333336</ele><time>2026-03-24T10:37:17.999Z</time></trkpt><trkpt lat="47.78418869202972" lon="-1.9651471563685095"><ele>45.66666666666667</ele><time>2026-03-24T10:37:18.999Z</time></trkpt><trkpt lat="47.78413097105528" lon="-1.9653530136886883"><ele>43.0</ele><time>2026-03-24T10:37:19.998Z</time></trkpt><trkpt lat="47.78407992565213" lon="-1.9655508649407825"><ele>43.0</ele><time>2026-03-24T10:37:20.998Z</time></trkpt><trkpt lat="47.78403996661165" lon="-1.9657461787270827"><ele>43.0</ele><time>2026-03-24T10:37:21.998Z</time></trkpt><trkpt lat="47.783992201104475" lon="-1.9660028249687795"><ele>43.0</ele><time>2026-03-24T10:37:22.998Z</time></trkpt><trkpt lat="47.783949060961206" lon="-1.9662346186656992"><ele>43.333333333333336</ele><time>2026-03-24T10:37:23.998Z</time></trkpt><trkpt lat="47.78389974004501" lon="-1.9664996222699662"><ele>43.666666666666664</ele><time>2026-03-24T10:37:24.998Z</time></trkpt><trkpt lat="47.783850617161434" lon="-1.9667691074781128"><ele>44.0</ele><time>2026-03-24T10:37:25.998Z</time></trkpt><trkpt lat="47.783804752210855" lon="-1.9670222298545803"><ele>44.0</ele><time>2026-03-24T10:37:26.998Z</time></trkpt><trkpt lat="47.78377460561275" lon="-1.9672579626864195"><ele>44.0</ele><time>2026-03-24T10:37:27.998Z</time></trkpt><trkpt lat="47.78375251506867" lon="-1.967501614293637"><ele>44.0</ele><time>2026-03-24T10:37:28.998Z</time></trkpt><trkpt lat="47.78371503544369" lon="-1.9677728166415276"><ele>44.0</ele><time>2026-03-24T10:37:29.998Z</time></trkpt><trkpt lat="47.78370451438119" lon="-1.968064245696341"><ele>44.0</ele><time>2026-03-24T10:37:30.998Z</time></trkpt><trkpt lat="47.78368148324216" lon="-1.9683342010392357"><ele>44.0</ele><time>2026-03-24T10:37:31.998Z</time></trkpt><trkpt lat="47.78365385695606" lon="-1.9686445560376042"><ele>44.33333333333333</ele><time>2026-03-24T10:37:32.998Z</time></trkpt><trkpt lat="47.78362882968221" lon="-1.9689139685562052"><ele>44.666666666666664</ele><time>2026-03-24T10:37:33.998Z</time></trkpt><trkpt lat="47.78358865755422" lon="-1.9691828340242534"><ele>45.0</ele><time>2026-03-24T10:37:34.998Z</time></trkpt><trkpt lat="47.7835766668489" lon="-1.96947349014693"><ele>45.666666666666664</ele><time>2026-03-24T10:37:35.998Z</time></trkpt><trkpt lat="47.78355215462582" lon="-1.9697364187235307"><ele>46.33333333333333</ele><time>2026-03-24T10:37:36.998Z</time></trkpt><trkpt lat="47.78352742378583" lon="-1.9700016933689928"><ele>47.0</ele><time>2026-03-24T10:37:38Z</time></trkpt><trkpt lat="47.783488863917285" lon="-1.9702387102784173"><ele>44.33333333333333</ele><time>2026-03-24T10:37:39Z</time></trkpt><trkpt lat="47.78348098412989" lon="-1.970454504752448"><ele>41.666666666666664</ele><time>2026-03-24T10:37:40Z</time></trkpt><trkpt lat="47.7834606721401" lon="-1.9706935731886595"><ele>39.0</ele><time>2026-03-24T10:37:41Z</time></trkpt><trkpt lat="47.78343546948162" lon="-1.970920154925024"><ele>39.0</ele><time>2026-03-24T10:37:42Z</time></trkpt><trkpt lat="47.78341956888718" lon="-1.9712428960792163"><ele>39.0</ele><time>2026-03-24T10:37:43Z</time></trkpt><trkpt lat="47.783398359225295" lon="-1.9714750840318285"><ele>39.0</ele><time>2026-03-24T10:37:44Z</time></trkpt><trkpt lat="47.78337749545312" lon="-1.9717034862890637"><ele>39.6</ele><time>2026-03-24T10:37:45Z</time></trkpt><trkpt lat="47.783358708123686" lon="-1.9719060490922344"><ele>40.2</ele><time>2026-03-24T10:37:46Z</time></trkpt><trkpt lat="47.78334297535408" lon="-1.9720479210710502"><ele>40.800000000000004</ele><time>2026-03-24T10:37:47Z</time></trkpt><trkpt lat="47.78330713989732" lon="-1.9721881067647233"><ele>41.4</ele><time>2026-03-24T10:37:48Z</time></trkpt><trkpt lat="47.783267658002494" lon="-1.9723107198736203"><ele>42.0</ele><time>2026-03-24T10:37:49Z</time></trkpt><trkpt lat="47.783210733412176" lon="-1.9724476057180875"><ele>41.75</ele><time>2026-03-24T10:37:50Z</time></trkpt><trkpt lat="47.78315133717306" lon="-1.9726100905926032"><ele>41.5</ele><time>2026-03-24T10:37:51Z</time></trkpt><trkpt lat="47.783086635517364" lon="-1.9728027826692736"><ele>41.25</ele><time>2026-03-24T10:37:52Z</time></trkpt><trkpt lat="47.78300400120935" lon="-1.973002969021893"><ele>41.0</ele><time>2026-03-24T10:37:53Z</time></trkpt><trkpt lat="47.78292453742293" lon="-1.9732011544341306"><ele>41.0</ele><time>2026-03-24T10:37:54Z</time></trkpt><trkpt lat="47.782843761557665" lon="-1.9734119995247947"><ele>41.0</ele><time>2026-03-24T10:37:55Z</time></trkpt><trkpt lat="47.782777224253444" lon="-1.9736364861099362"><ele>41.0</ele><time>2026-03-24T10:37:56Z</time></trkpt><trkpt lat="47.78270429530541" lon="-1.9738277782408966"><ele>39.75</ele><time>2026-03-24T10:37:57Z</time></trkpt><trkpt lat="47.782625599426716" lon="-1.9739896474925005"><ele>38.5</ele><time>2026-03-24T10:37:58Z</time></trkpt><trkpt lat="47.78256109503224" lon="-1.9741583907455322"><ele>37.25</ele><time>2026-03-24T10:37:59Z</time></trkpt><trkpt lat="47.78249448923789" lon="-1.9743302037278812"><ele>36.0</ele><time>2026-03-24T10:38:00Z</time></trkpt><trkpt lat="47.78243738130075" lon="-1.974526438686177"><ele>36.0</ele><time>2026-03-24T10:38:01Z</time></trkpt><trkpt lat="47.78235299853816" lon="-1.9746971272232505"><ele>36.0</ele><time>2026-03-24T10:38:02Z</time></trkpt><trkpt lat="47.782293123470126" lon="-1.9749022299004055"><ele>36.0</ele><time>2026-03-24T10:38:03Z</time></trkpt><trkpt lat="47.782219324577945" lon="-1.9750945410186356"><ele>36.0</ele><time>2026-03-24T10:38:04Z</time></trkpt><trkpt lat="47.78214955178225" lon="-1.9752599795486758"><ele>35.6</ele><time>2026-03-24T10:38:05Z</time></trkpt><trkpt lat="47.782091211403824" lon="-1.9754078837836915"><ele>35.2</ele><time>2026-03-24T10:38:06Z</time></trkpt><trkpt lat="47.78204106461378" lon="-1.9755479816810984"><ele>34.8</ele><time>2026-03-24T10:38:07Z</time></trkpt><trkpt lat="47.78199407779048" lon="-1.9756851520156598"><ele>34.4</ele><time>2026-03-24T10:38:08Z</time></trkpt><trkpt lat="47.78194743315791" lon="-1.9758101974202267"><ele>34.0</ele><time>2026-03-24T10:38:09Z</time></trkpt><trkpt lat="47.781903810907835" lon="-1.9759241774829195"><ele>33.4</ele><time>2026-03-24T10:38:10Z</time></trkpt><trkpt lat="47.78186452064129" lon="-1.9760343734566757"><ele>32.8</ele><time>2026-03-24T10:38:11Z</time></trkpt><trkpt lat="47.78183020091333" lon="-1.9761182539009647"><ele>32.2</ele><time>2026-03-24T10:38:12Z</time></trkpt><trkpt lat="47.78177876487113" lon="-1.9762926222851922"><ele>31.6</ele><time>2026-03-24T10:38:14Z</time></trkpt><trkpt lat="47.781725747991295" lon="-1.9763910717665079"><ele>31.0</ele><time>2026-03-24T10:38:16Z</time></trkpt><trkpt lat="47.78156325958032" lon="-1.9763716792615398"><ele>31.0</ele><time>2026-03-24T10:38:20Z</time></trkpt><trkpt lat="47.781454917613544" lon="-1.9762223817053277"><ele>31.0</ele><time>2026-03-24T10:38:21.999Z</time></trkpt><trkpt lat="47.78135747587339" lon="-1.9760887397037745"><ele>31.0</ele><time>2026-03-24T10:38:22.999Z</time></trkpt><trkpt lat="47.78128497314227" lon="-1.9759875751087015"><ele>31.0</ele><time>2026-03-24T10:38:23.999Z</time></trkpt><trkpt lat="47.7812116356666" lon="-1.975885245975321"><ele>31.5</ele><time>2026-03-24T10:38:24.999Z</time></trkpt><trkpt lat="47.781140269070384" lon="-1.975755795150222"><ele>32.0</ele><time>2026-03-24T10:38:25.999Z</time></trkpt><trkpt lat="47.781052953992635" lon="-1.9756487317181535"><ele>32.5</ele><time>2026-03-24T10:38:26.999Z</time></trkpt><trkpt lat="47.78097160884556" lon="-1.9755275609234526"><ele>33.0</ele><time>2026-03-24T10:38:27.999Z</time></trkpt><trkpt lat="47.780855805637444" lon="-1.9754046853083589"><ele>32.25</ele><time>2026-03-24T10:38:28.999Z</time></trkpt><trkpt lat="47.780750396173914" lon="-1.9752388418506386"><ele>31.5</ele><time>2026-03-24T10:38:29.999Z</time></trkpt><trkpt lat="47.780659156291726" lon="-1.9751070131045154"><ele>30.75</ele><time>2026-03-24T10:38:30.999Z</time></trkpt><trkpt lat="47.780564865008046" lon="-1.9749947974479645"><ele>30.0</ele><time>2026-03-24T10:38:31.999Z</time></trkpt><trkpt lat="47.78047602580604" lon="-1.9748574502251708"><ele>30.0</ele><time>2026-03-24T10:38:32.999Z</time></trkpt><trkpt lat="47.78040800169631" lon="-1.9747767538628693"><ele>30.0</ele><time>2026-03-24T10:38:33.999Z</time></trkpt><trkpt lat="47.78033879306859" lon="-1.974697999558261"><ele>30.0</ele><time>2026-03-24T10:38:34.999Z</time></trkpt><trkpt lat="47.780262337312266" lon="-1.974625147565838"><ele>30.0</ele><time>2026-03-24T10:38:35.999Z</time></trkpt><trkpt lat="47.78019447277223" lon="-1.9746446126800072"><ele>30.0</ele><time>2026-03-24T10:38:36.999Z</time></trkpt><trkpt lat="47.780120716963225" lon="-1.9747112991730489"><ele>30.0</ele><time>2026-03-24T10:38:37.999Z</time></trkpt><trkpt lat="47.78007222618396" lon="-1.9747793424685138"><ele>30.0</ele><time>2026-03-24T10:38:38.999Z</time></trkpt><trkpt lat="47.77996718827236" lon="-1.9748578612267809"><ele>30.0</ele><time>2026-03-24T10:38:39.999Z</time></trkpt><trkpt lat="47.779872689677084" lon="-1.9748896005419445"><ele>30.0</ele><time>2026-03-24T10:38:40.999Z</time></trkpt><trkpt lat="47.77975841331705" lon="-1.9749737680116055"><ele>30.0</ele><time>2026-03-24T10:38:41.999Z</time></trkpt><trkpt lat="47.77963971420958" lon="-1.9750327817696693"><ele>29.75</ele><time>2026-03-24T10:38:42.999Z</time></trkpt><trkpt lat="47.77951524069364" lon="-1.975099410693618"><ele>29.5</ele><time>2026-03-24T10:38:43.999Z</time></trkpt><trkpt lat="47.7793900137536" lon="-1.975169460507228"><ele>29.25</ele><time>2026-03-24T10:38:44.999Z</time></trkpt><trkpt lat="47.779283916000665" lon="-1.9752256435336288"><ele>29.0</ele><time>2026-03-24T10:38:45.999Z</time></trkpt><trkpt lat="47.77919770230197" lon="-1.9752751015519554"><ele>29.0</ele><time>2026-03-24T10:38:46.999Z</time></trkpt><trkpt lat="47.77910942428322" lon="-1.9753195916035127"><ele>29.0</ele><time>2026-03-24T10:38:47.999Z</time></trkpt><trkpt lat="47.779042413858285" lon="-1.9753791029523036"><ele>29.0</ele><time>2026-03-24T10:38:48.999Z</time></trkpt><trkpt lat="47.778963584927894" lon="-1.975396509200289"><ele>29.0</ele><time>2026-03-24T10:38:49.999Z</time></trkpt><trkpt lat="47.77890177601915" lon="-1.9755173460691233"><ele>29.0</ele><time>2026-03-24T10:38:51.999Z</time></trkpt><trkpt lat="47.77890877632592" lon="-1.9756858495164749"><ele>29.0</ele><time>2026-03-24T10:38:58.999Z</time></trkpt><trkpt lat="47.77891249410855" lon="-1.9758058060535897"><ele>29.0</ele><time>2026-03-24T10:38:59.999Z</time></trkpt><trkpt lat="47.77891668943971" lon="-1.9759329469479423"><ele>29.0</ele><time>2026-03-24T10:39:00.999Z</time></trkpt><trkpt lat="47.77892035103642" lon="-1.9760836632954895"><ele>29.0</ele><time>2026-03-24T10:39:01.999Z</time></trkpt><trkpt lat="47.77892483610492" lon="-1.9762598493996009"><ele>29.0</ele><time>2026-03-24T10:39:02.999Z</time></trkpt><trkpt lat="47.77892806756568" lon="-1.9764294036154535"><ele>28.5</ele><time>2026-03-24T10:39:03.999Z</time></trkpt><trkpt lat="47.77891523168224" lon="-1.9766389000465936"><ele>28.0</ele><time>2026-03-24T10:39:04.999Z</time></trkpt><trkpt lat="47.7789185751881" lon="-1.976857533306961"><ele>27.5</ele><time>2026-03-24T10:39:05.999Z</time></trkpt><trkpt lat="47.77891311429033" lon="-1.9770949275447716"><ele>27.0</ele><time>2026-03-24T10:39:06.999Z</time></trkpt><trkpt lat="47.77890920826712" lon="-1.9773199697741017"><ele>26.666666666666664</ele><time>2026-03-24T10:39:07.999Z</time></trkpt><trkpt lat="47.77890137220836" lon="-1.977541309027926"><ele>26.333333333333332</ele><time>2026-03-24T10:39:08.999Z</time></trkpt><trkpt lat="47.7788827885942" lon="-1.9777887933512706"><ele>26.0</ele><time>2026-03-24T10:39:09.999Z</time></trkpt><trkpt lat="47.778858184074004" lon="-1.978006544559044"><ele>26.0</ele><time>2026-03-24T10:39:10.999Z</time></trkpt><trkpt lat="47.778838206039175" lon="-1.9782172303495758"><ele>26.0</ele><time>2026-03-24T10:39:11.999Z</time></trkpt><trkpt lat="47.77881545352751" lon="-1.978457992436831"><ele>26.0</ele><time>2026-03-24T10:39:12.999Z</time></trkpt><trkpt lat="47.77879082026694" lon="-1.978710582420107"><ele>26.25</ele><time>2026-03-24T10:39:13.999Z</time></trkpt><trkpt lat="47.77877729866343" lon="-1.9789485853591733"><ele>26.5</ele><time>2026-03-24T10:39:14.999Z</time></trkpt><trkpt lat="47.77878099465221" lon="-1.9791533157362464"><ele>26.75</ele><time>2026-03-24T10:39:15.999Z</time></trkpt><trkpt lat="47.77879020009119" lon="-1.9793365731305055"><ele>27.0</ele><time>2026-03-24T10:39:16.999Z</time></trkpt><trkpt lat="47.7788014208808" lon="-1.9794709702829987"><ele>27.0</ele><time>2026-03-24T10:39:17.999Z</time></trkpt><trkpt lat="47.7788160900634" lon="-1.9795934875653043"><ele>27.0</ele><time>2026-03-24T10:39:18.999Z</time></trkpt><trkpt lat="47.77882929557882" lon="-1.9796879525329043"><ele>27.0</ele><time>2026-03-24T10:39:19.999Z</time></trkpt><trkpt lat="47.778866134109975" lon="-1.9798226599011137"><ele>27.0</ele><time>2026-03-24T10:39:21.999Z</time></trkpt><trkpt lat="47.77876511720222" lon="-1.9799266535484128"><ele>27.0</ele><time>2026-03-24T10:39:22.999Z</time></trkpt><trkpt lat="47.778701429897936" lon="-1.9799604348169713"><ele>27.0</ele><time>2026-03-24T10:39:23.999Z</time></trkpt><trkpt lat="47.778601258524276" lon="-1.9799618951951634"><ele>27.25</ele><time>2026-03-24T10:39:24.998Z</time></trkpt><trkpt lat="47.7785023712429" lon="-1.9799723681882748"><ele>27.5</ele><time>2026-03-24T10:39:25.998Z</time></trkpt><trkpt lat="47.77837654619004" lon="-1.9799881003935238"><ele>27.75</ele><time>2026-03-24T10:39:26.998Z</time></trkpt><trkpt lat="47.778252890160275" lon="-1.9800038710208878"><ele>28.0</ele><time>2026-03-24T10:39:27.998Z</time></trkpt><trkpt lat="47.778103016839864" lon="-1.9800229853055806"><ele>28.25</ele><time>2026-03-24T10:39:28.998Z</time></trkpt><trkpt lat="47.777941985936714" lon="-1.9800429341652712"><ele>28.5</ele><time>2026-03-24T10:39:29.998Z</time></trkpt><trkpt lat="47.777797528321614" lon="-1.9800596678165985"><ele>28.75</ele><time>2026-03-24T10:39:30.998Z</time></trkpt><trkpt lat="47.77765726005276" lon="-1.980069376995738"><ele>29.0</ele><time>2026-03-24T10:39:31.998Z</time></trkpt><trkpt lat="47.77752807112964" lon="-1.9800820691095125"><ele>29.333333333333332</ele><time>2026-03-24T10:39:32.998Z</time></trkpt><trkpt lat="47.77742511790187" lon="-1.9800951414558627"><ele>29.666666666666664</ele><time>2026-03-24T10:39:33.998Z</time></trkpt><trkpt lat="47.77734608612563" lon="-1.980112839964163"><ele>30.0</ele><time>2026-03-24T10:39:34.998Z</time></trkpt><trkpt lat="47.77727371514264" lon="-1.9801179240377333"><ele>30.333333333333336</ele><time>2026-03-24T10:39:35.998Z</time></trkpt><trkpt lat="47.777199992969045" lon="-1.9801348146256395"><ele>30.666666666666668</ele><time>2026-03-24T10:39:37.998Z</time></trkpt><trkpt lat="47.777101122202986" lon="-1.9802057288580617"><ele>31.0</ele><time>2026-03-24T10:39:42.998Z</time></trkpt><trkpt lat="47.77703059692045" lon="-1.980211537876179"><ele>31.0</ele><time>2026-03-24T10:39:44Z</time></trkpt><trkpt lat="47.77701237119752" lon="-1.9800877545785216"><ele>31.0</ele><time>2026-03-24T10:39:45Z</time></trkpt><trkpt lat="47.77690892627743" lon="-1.9799964719560306"><ele>31.0</ele><time>2026-03-24T10:39:47Z</time></trkpt><trkpt lat="47.776822395924235" lon="-1.9799162489699709"><ele>31.0</ele><time>2026-03-24T10:39:49Z</time></trkpt><trkpt lat="47.77672955825122" lon="-1.9798614416457019"><ele>31.0</ele><time>2026-03-24T10:39:51Z</time></trkpt><trkpt lat="47.776447346086556" lon="-1.9803470612062612"><ele>31.0</ele><time>2026-03-24T10:39:52Z</time></trkpt><trkpt lat="47.7763366619943" lon="-1.9804181022086285"><ele>31.0</ele><time>2026-03-24T10:39:53Z</time></trkpt><trkpt lat="47.77623028736048" lon="-1.9804881267692371"><ele>31.0</ele><time>2026-03-24T10:39:54Z</time></trkpt><trkpt lat="47.77611900242578" lon="-1.9805581362947766"><ele>31.0</ele><time>2026-03-24T10:39:55Z</time></trkpt><trkpt lat="47.77600597055792" lon="-1.9806330241018708"><ele>31.25</ele><time>2026-03-24T10:39:56Z</time></trkpt><trkpt lat="47.77588467742684" lon="-1.9807053322364871"><ele>31.5</ele><time>2026-03-24T10:39:57Z</time></trkpt><trkpt lat="47.77576069039758" lon="-1.9807727006455458"><ele>31.75</ele><time>2026-03-24T10:39:58Z</time></trkpt><trkpt lat="47.775653563010174" lon="-1.9808282769394463"><ele>32.0</ele><time>2026-03-24T10:39:59Z</time></trkpt><trkpt lat="47.77555637403229" lon="-1.9808836912676417"><ele>32.0</ele><time>2026-03-24T10:40:00Z</time></trkpt><trkpt lat="47.77547072568465" lon="-1.9809521817012359"><ele>32.0</ele><time>2026-03-24T10:40:01Z</time></trkpt><trkpt lat="47.77539653737042" lon="-1.9810589146655118"><ele>32.0</ele><time>2026-03-24T10:40:02Z</time></trkpt><trkpt lat="47.775333050705335" lon="-1.9812120099225996"><ele>32.0</ele><time>2026-03-24T10:40:03Z</time></trkpt><trkpt lat="47.775292257566065" lon="-1.981395800712352"><ele>32.0</ele><time>2026-03-24T10:40:04Z</time></trkpt><trkpt lat="47.77524660976242" lon="-1.9815697465936386"><ele>32.0</ele><time>2026-03-24T10:40:05Z</time></trkpt><trkpt lat="47.77519344709685" lon="-1.981739616781022"><ele>32.0</ele><time>2026-03-24T10:40:06Z</time></trkpt><trkpt lat="47.77514549053298" lon="-1.9819085665545837"><ele>32.0</ele><time>2026-03-24T10:40:07Z</time></trkpt><trkpt lat="47.7750916626582" lon="-1.98208499513969"><ele>31.0</ele><time>2026-03-24T10:40:08Z</time></trkpt><trkpt lat="47.775028385903695" lon="-1.9822897405586088"><ele>30.0</ele><time>2026-03-24T10:40:09Z</time></trkpt><trkpt lat="47.77495954496676" lon="-1.982496540167757"><ele>29.0</ele><time>2026-03-24T10:40:10Z</time></trkpt><trkpt lat="47.77490152772309" lon="-1.9827031986711245"><ele>28.666666666666664</ele><time>2026-03-24T10:40:11Z</time></trkpt><trkpt lat="47.774843816928694" lon="-1.9829135103308906"><ele>28.333333333333336</ele><time>2026-03-24T10:40:12Z</time></trkpt><trkpt lat="47.774792390733616" lon="-1.983148438298502"><ele>28.0</ele><time>2026-03-24T10:40:13Z</time></trkpt><trkpt lat="47.77475219011044" lon="-1.9833839394908865"><ele>28.0</ele><time>2026-03-24T10:40:14Z</time></trkpt><trkpt lat="47.774713428463926" lon="-1.9836108132025254"><ele>28.0</ele><time>2026-03-24T10:40:15Z</time></trkpt><trkpt lat="47.77466906772918" lon="-1.983836066684858"><ele>28.0</ele><time>2026-03-24T10:40:16Z</time></trkpt><trkpt lat="47.77461622545435" lon="-1.9840731369499889"><ele>28.5</ele><time>2026-03-24T10:40:17Z</time></trkpt><trkpt lat="47.774575846031105" lon="-1.9842819202963984"><ele>29.0</ele><time>2026-03-24T10:40:18Z</time></trkpt><trkpt lat="47.774538704727796" lon="-1.9844719532585566"><ele>29.5</ele><time>2026-03-24T10:40:19Z</time></trkpt><trkpt lat="47.774505078571345" lon="-1.9846292118947346"><ele>30.0</ele><time>2026-03-24T10:40:20Z</time></trkpt><trkpt lat="47.77447042455158" lon="-1.9847763656020598"><ele>30.0</ele><time>2026-03-24T10:40:21Z</time></trkpt><trkpt lat="47.77444543321506" lon="-1.9849163330258894"><ele>30.0</ele><time>2026-03-24T10:40:22Z</time></trkpt><trkpt lat="47.77442022337892" lon="-1.9850394273276377"><ele>30.0</ele><time>2026-03-24T10:40:23Z</time></trkpt><trkpt lat="47.77439496912318" lon="-1.9851576817599625"><ele>30.0</ele><time>2026-03-24T10:40:24Z</time></trkpt><trkpt lat="47.77436443548206" lon="-1.9852894220378905"><ele>30.0</ele><time>2026-03-24T10:40:25Z</time></trkpt><trkpt lat="47.7743316684689" lon="-1.9854284523885057"><ele>29.0</ele><time>2026-03-24T10:40:26Z</time></trkpt><trkpt lat="47.77429697446192" lon="-1.9855804609378245"><ele>28.0</ele><time>2026-03-24T10:40:27Z</time></trkpt><trkpt lat="47.77426056563568" lon="-1.9857605237921556"><ele>27.0</ele><time>2026-03-24T10:40:27.999Z</time></trkpt><trkpt lat="47.774220560985775" lon="-1.9859556933759221"><ele>26.0</ele><time>2026-03-24T10:40:28.999Z</time></trkpt><trkpt lat="47.774179491752854" lon="-1.9861663190364292"><ele>26.0</ele><time>2026-03-24T10:40:29.999Z</time></trkpt><trkpt lat="47.774132941383975" lon="-1.9863611290957905"><ele>26.0</ele><time>2026-03-24T10:40:30.999Z</time></trkpt><trkpt lat="47.774100636701526" lon="-1.9865441837411433"><ele>26.0</ele><time>2026-03-24T10:40:31.999Z</time></trkpt><trkpt lat="47.77406217738227" lon="-1.9867354351811353"><ele>26.0</ele><time>2026-03-24T10:40:32.999Z</time></trkpt><trkpt lat="47.77402383478898" lon="-1.9869260671247957"><ele>26.0</ele><time>2026-03-24T10:40:33.999Z</time></trkpt><trkpt lat="47.773994742834056" lon="-1.9870949382934515"><ele>26.0</ele><time>2026-03-24T10:40:34.999Z</time></trkpt><trkpt lat="47.77397088045958" lon="-1.9872714364073947"><ele>26.0</ele><time>2026-03-24T10:40:35.999Z</time></trkpt><trkpt lat="47.77393567150829" lon="-1.9874485742768118"><ele>26.0</ele><time>2026-03-24T10:40:36.999Z</time></trkpt><trkpt lat="47.773893121835776" lon="-1.9876484558329268"><ele>26.5</ele><time>2026-03-24T10:40:37.999Z</time></trkpt><trkpt lat="47.773855227211705" lon="-1.987836635561427"><ele>27.0</ele><time>2026-03-24T10:40:38.999Z</time></trkpt><trkpt lat="47.77381806361097" lon="-1.9880055522099578"><ele>27.5</ele><time>2026-03-24T10:40:39.999Z</time></trkpt><trkpt lat="47.773781795300216" lon="-1.988167452648273"><ele>28.0</ele><time>2026-03-24T10:40:40.999Z</time></trkpt><trkpt lat="47.773742657913616" lon="-1.9883487011452334"><ele>28.5</ele><time>2026-03-24T10:40:41.999Z</time></trkpt><trkpt lat="47.7737085468674" lon="-1.9885276425420628"><ele>29.0</ele><time>2026-03-24T10:40:42.999Z</time></trkpt><trkpt lat="47.773672709784606" lon="-1.9887171502812464"><ele>29.5</ele><time>2026-03-24T10:40:43.999Z</time></trkpt><trkpt lat="47.77362822095281" lon="-1.988925915554363"><ele>30.0</ele><time>2026-03-24T10:40:44.999Z</time></trkpt><trkpt lat="47.773584105076715" lon="-1.9891381090341225"><ele>29.666666666666664</ele><time>2026-03-24T10:40:45.999Z</time></trkpt><trkpt lat="47.77354047510084" lon="-1.9893597524190894"><ele>29.333333333333332</ele><time>2026-03-24T10:40:46.999Z</time></trkpt><trkpt lat="47.77349390241394" lon="-1.989593228947924"><ele>29.0</ele><time>2026-03-24T10:40:47.999Z</time></trkpt><trkpt lat="47.77345131194207" lon="-1.9897859368708786"><ele>28.25</ele><time>2026-03-24T10:40:48.999Z</time></trkpt><trkpt lat="47.773414972388984" lon="-1.9899691807783009"><ele>27.5</ele><time>2026-03-24T10:40:49.999Z</time></trkpt><trkpt lat="47.77337630210271" lon="-1.9901596846283578"><ele>26.75</ele><time>2026-03-24T10:40:50.999Z</time></trkpt><trkpt lat="47.7733362823124" lon="-1.990359304760426"><ele>26.0</ele><time>2026-03-24T10:40:51.999Z</time></trkpt><trkpt lat="47.77329322530385" lon="-1.9905666134113031"><ele>26.0</ele><time>2026-03-24T10:40:52.999Z</time></trkpt><trkpt lat="47.77325296518668" lon="-1.9907683724545657"><ele>26.0</ele><time>2026-03-24T10:40:53.999Z</time></trkpt><trkpt lat="47.773221043540474" lon="-1.9909307362220476"><ele>26.0</ele><time>2026-03-24T10:40:54.999Z</time></trkpt><trkpt lat="47.77319219172301" lon="-1.9910980971769576"><ele>26.0</ele><time>2026-03-24T10:40:55.999Z</time></trkpt><trkpt lat="47.77315729571033" lon="-1.9912462297280769"><ele>26.5</ele><time>2026-03-24T10:40:56.999Z</time></trkpt><trkpt lat="47.7731164345795" lon="-1.991400618253564"><ele>27.0</ele><time>2026-03-24T10:40:57.999Z</time></trkpt><trkpt lat="47.7730811368204" lon="-1.9915749030621546"><ele>27.5</ele><time>2026-03-24T10:40:58.999Z</time></trkpt><trkpt lat="47.77304378304791" lon="-1.9917627675723113"><ele>28.0</ele><time>2026-03-24T10:40:59.999Z</time></trkpt><trkpt lat="47.77300568998413" lon="-1.991958974304734"><ele>28.0</ele><time>2026-03-24T10:41:00.999Z</time></trkpt><trkpt lat="47.77296981636867" lon="-1.9921507748347043"><ele>28.0</ele><time>2026-03-24T10:41:01.999Z</time></trkpt><trkpt lat="47.772927012258315" lon="-1.9923689127769755"><ele>28.0</ele><time>2026-03-24T10:41:02.999Z</time></trkpt><trkpt lat="47.77288453293828" lon="-1.992589341341156"><ele>28.0</ele><time>2026-03-24T10:41:03.999Z</time></trkpt><trkpt lat="47.77284532833865" lon="-1.992789477857943"><ele>27.799999999999997</ele><time>2026-03-24T10:41:04.999Z</time></trkpt><trkpt lat="47.772814578128575" lon="-1.992941998748682"><ele>27.599999999999998</ele><time>2026-03-24T10:41:05.999Z</time></trkpt><trkpt lat="47.77278564419154" lon="-1.9930781263184965"><ele>27.400000000000002</ele><time>2026-03-24T10:41:06.999Z</time></trkpt><trkpt lat="47.77275150503273" lon="-1.9932044404328146"><ele>27.200000000000003</ele><time>2026-03-24T10:41:07.999Z</time></trkpt><trkpt lat="47.772710216638664" lon="-1.993315376531454"><ele>27.0</ele><time>2026-03-24T10:41:08.999Z</time></trkpt><trkpt lat="47.77266639019816" lon="-1.9934147774743405"><ele>26.8</ele><time>2026-03-24T10:41:09.999Z</time></trkpt><trkpt lat="47.77261202771751" lon="-1.9935044947362837"><ele>26.6</ele><time>2026-03-24T10:41:10.999Z</time></trkpt><trkpt lat="47.77255373601737" lon="-1.9935737657725496"><ele>26.400000000000002</ele><time>2026-03-24T10:41:11.999Z</time></trkpt><trkpt lat="47.77245290136967" lon="-1.993646231426002"><ele>26.200000000000003</ele><time>2026-03-24T10:41:12.999Z</time></trkpt><trkpt lat="47.772330115693066" lon="-1.9937155686667225"><ele>26.0</ele><time>2026-03-24T10:41:13.999Z</time></trkpt><trkpt lat="47.77220704330966" lon="-1.9937966374509544"><ele>26.0</ele><time>2026-03-24T10:41:14.999Z</time></trkpt><trkpt lat="47.772086028701054" lon="-1.9938806963753848"><ele>26.0</ele><time>2026-03-24T10:41:15.999Z</time></trkpt><trkpt lat="47.77194497057296" lon="-1.994014739871947"><ele>26.0</ele><time>2026-03-24T10:41:16.999Z</time></trkpt><trkpt lat="47.77182679978339" lon="-1.9941115523287594"><ele>26.0</ele><time>2026-03-24T10:41:17.999Z</time></trkpt><trkpt lat="47.77170565957592" lon="-1.9941928697682447"><ele>26.166666666666664</ele><time>2026-03-24T10:41:18.999Z</time></trkpt><trkpt lat="47.7716150135222" lon="-1.9942863914200368"><ele>26.333333333333332</ele><time>2026-03-24T10:41:19.999Z</time></trkpt><trkpt lat="47.77153669018463" lon="-1.9943623031016926"><ele>26.5</ele><time>2026-03-24T10:41:20.999Z</time></trkpt><trkpt lat="47.77146206134114" lon="-1.994429604737182"><ele>26.666666666666664</ele><time>2026-03-24T10:41:21.999Z</time></trkpt><trkpt lat="47.77139335646941" lon="-1.9944857180229423"><ele>26.833333333333332</ele><time>2026-03-24T10:41:22.999Z</time></trkpt><trkpt lat="47.77132955556983" lon="-1.9945311794640377"><ele>27.0</ele><time>2026-03-24T10:41:23.999Z</time></trkpt><trkpt lat="47.77124675490112" lon="-1.9946213317984134"><ele>27.0</ele><time>2026-03-24T10:41:25.999Z</time></trkpt><trkpt lat="47.77118969993944" lon="-1.9946743471291186"><ele>27.0</ele><time>2026-03-24T10:41:28.999Z</time></trkpt><trkpt lat="47.7712103508186" lon="-1.9948231728191335"><ele>27.0</ele><time>2026-03-24T10:41:44.998Z</time></trkpt><trkpt lat="47.77130323972331" lon="-1.9949403234866896"><ele>27.0</ele><time>2026-03-24T10:41:45.998Z</time></trkpt><trkpt lat="47.77135051871389" lon="-1.9950129614854066"><ele>27.0</ele><time>2026-03-24T10:41:46.998Z</time></trkpt><trkpt lat="47.77140311992708" lon="-1.9950908268840386"><ele>27.0</ele><time>2026-03-24T10:41:47.998Z</time></trkpt><trkpt lat="47.77145996632276" lon="-1.9951699588740999"><ele>27.0</ele><time>2026-03-24T10:41:48.998Z</time></trkpt><trkpt lat="47.771528815812914" lon="-1.9952674880287584"><ele>27.000000000000004</ele><time>2026-03-24T10:41:50Z</time></trkpt><trkpt lat="47.771596386610064" lon="-1.9953756982906798"><ele>27.000000000000004</ele><time>2026-03-24T10:41:51Z</time></trkpt><trkpt lat="47.77167009235175" lon="-1.995497353042938"><ele>27.0</ele><time>2026-03-24T10:41:52Z</time></trkpt><trkpt lat="47.77174787715942" lon="-1.9956197800345983"><ele>27.0</ele><time>2026-03-24T10:41:53Z</time></trkpt><trkpt lat="47.77181200871147" lon="-1.995724772302026"><ele>27.0</ele><time>2026-03-24T10:41:54Z</time></trkpt><trkpt lat="47.77189326843961" lon="-1.9958630251781935"><ele>27.0</ele><time>2026-03-24T10:41:55Z</time></trkpt><trkpt lat="47.771935654521535" lon="-1.9959606451251541"><ele>27.0</ele><time>2026-03-24T10:41:56Z</time></trkpt><trkpt lat="47.771986288961585" lon="-1.9961246918275515"><ele>27.0</ele><time>2026-03-24T10:41:57Z</time></trkpt><trkpt lat="47.77202041702301" lon="-1.9963126348338913"><ele>27.0</ele><time>2026-03-24T10:41:58Z</time></trkpt><trkpt lat="47.772042734381806" lon="-1.9965172421253865"><ele>27.0</ele><time>2026-03-24T10:41:59Z</time></trkpt><trkpt lat="47.77205080313998" lon="-1.9967425695109715"><ele>27.0</ele><time>2026-03-24T10:42:00Z</time></trkpt><trkpt lat="47.772049283347556" lon="-1.9969765113038838"><ele>27.0</ele><time>2026-03-24T10:42:01Z</time></trkpt><trkpt lat="47.772048298070615" lon="-1.9971776513919786"><ele>27.666666666666664</ele><time>2026-03-24T10:42:02Z</time></trkpt><trkpt lat="47.77204063208851" lon="-1.997397150628583"><ele>28.333333333333332</ele><time>2026-03-24T10:42:03Z</time></trkpt><trkpt lat="47.772030196819976" lon="-1.9976340644919686"><ele>29.0</ele><time>2026-03-24T10:42:04Z</time></trkpt><trkpt lat="47.77202549909096" lon="-1.9978734458008407"><ele>29.0</ele><time>2026-03-24T10:42:05Z</time></trkpt><trkpt lat="47.77202146516626" lon="-1.998123579517767"><ele>29.0</ele><time>2026-03-24T10:42:06Z</time></trkpt><trkpt lat="47.77201343192274" lon="-1.9983801112661719"><ele>29.0</ele><time>2026-03-24T10:42:07Z</time></trkpt><trkpt lat="47.77201376702959" lon="-1.9986451566437318"><ele>29.333333333333332</ele><time>2026-03-24T10:42:08Z</time></trkpt><trkpt lat="47.77201507811989" lon="-1.9989170265583354"><ele>29.666666666666664</ele><time>2026-03-24T10:42:09Z</time></trkpt><trkpt lat="47.77200888725529" lon="-1.999182651047106"><ele>30.0</ele><time>2026-03-24T10:42:10Z</time></trkpt><trkpt lat="47.77201761702456" lon="-1.9994344130114048"><ele>31.0</ele><time>2026-03-24T10:42:11Z</time></trkpt><trkpt lat="47.77200843785268" lon="-1.9996856334816944"><ele>32.0</ele><time>2026-03-24T10:42:12Z</time></trkpt><trkpt lat="47.7719970655543" lon="-1.999910420618305"><ele>33.0</ele><time>2026-03-24T10:42:13Z</time></trkpt><trkpt lat="47.77200814055116" lon="-2.0001133490261074"><ele>33.0</ele><time>2026-03-24T10:42:14Z</time></trkpt><trkpt lat="47.77200567149559" lon="-2.0002752702445834"><ele>33.0</ele><time>2026-03-24T10:42:15Z</time></trkpt><trkpt lat="47.77198719689228" lon="-2.000408415080024"><ele>33.0</ele><time>2026-03-24T10:42:16Z</time></trkpt><trkpt lat="47.77199866941784" lon="-2.000532460640179"><ele>33.0</ele><time>2026-03-24T10:42:17Z</time></trkpt><trkpt lat="47.77199588723654" lon="-2.0006556994196556"><ele>33.0</ele><time>2026-03-24T10:42:18Z</time></trkpt><trkpt lat="47.7719901357038" lon="-2.0008204959265257"><ele>33.199999999999996</ele><time>2026-03-24T10:42:20Z</time></trkpt><trkpt lat="47.77198508912471" lon="-2.0009286593816897"><ele>33.4</ele><time>2026-03-24T10:42:21Z</time></trkpt><trkpt lat="47.771983893689885" lon="-2.001048378329238"><ele>33.599999999999994</ele><time>2026-03-24T10:42:22Z</time></trkpt><trkpt lat="47.77198323002117" lon="-2.0011829467020203"><ele>33.8</ele><time>2026-03-24T10:42:23Z</time></trkpt><trkpt lat="47.77198518183109" lon="-2.0013269650982695"><ele>34.0</ele><time>2026-03-24T10:42:24Z</time></trkpt><trkpt lat="47.771989991479856" lon="-2.001489828672088"><ele>34.0</ele><time>2026-03-24T10:42:25Z</time></trkpt><trkpt lat="47.77199677367578" lon="-2.001658805556806"><ele>34.0</ele><time>2026-03-24T10:42:26Z</time></trkpt><trkpt lat="47.77200249249662" lon="-2.001827590290147"><ele>34.0</ele><time>2026-03-24T10:42:27Z</time></trkpt><trkpt lat="47.77200962169711" lon="-2.002019175074584"><ele>34.0</ele><time>2026-03-24T10:42:28Z</time></trkpt><trkpt lat="47.772020348723466" lon="-2.002212468851137"><ele>34.0</ele><time>2026-03-24T10:42:29Z</time></trkpt><trkpt lat="47.77203238026976" lon="-2.0023943581581385"><ele>34.0</ele><time>2026-03-24T10:42:30Z</time></trkpt><trkpt lat="47.77203695819786" lon="-2.002565112424077"><ele>34.0</ele><time>2026-03-24T10:42:31Z</time></trkpt><trkpt lat="47.772042636438336" lon="-2.0027370279472216"><ele>34.0</ele><time>2026-03-24T10:42:32Z</time></trkpt><trkpt lat="47.77204725506154" lon="-2.0029239281182636"><ele>34.25</ele><time>2026-03-24T10:42:33Z</time></trkpt><trkpt lat="47.772058307599636" lon="-2.0031234559980593"><ele>34.5</ele><time>2026-03-24T10:42:34Z</time></trkpt><trkpt lat="47.77207241014245" lon="-2.0033427445561824"><ele>34.75</ele><time>2026-03-24T10:42:34.999Z</time></trkpt><trkpt lat="47.77208065542903" lon="-2.0035758759354594"><ele>35.0</ele><time>2026-03-24T10:42:35.999Z</time></trkpt><trkpt lat="47.77208808727682" lon="-2.003823809264928"><ele>35.666666666666664</ele><time>2026-03-24T10:42:36.999Z</time></trkpt><trkpt lat="47.7720982061285" lon="-2.0040799442240895"><ele>36.333333333333336</ele><time>2026-03-24T10:42:37.999Z</time></trkpt><trkpt lat="47.77211067416428" lon="-2.0043187435057574"><ele>37.0</ele><time>2026-03-24T10:42:38.999Z</time></trkpt><trkpt lat="47.772117330549555" lon="-2.004547767344428"><ele>37.0</ele><time>2026-03-24T10:42:39.999Z</time></trkpt><trkpt lat="47.77212232327761" lon="-2.0047920961257573"><ele>37.0</ele><time>2026-03-24T10:42:40.999Z</time></trkpt><trkpt lat="47.77212900001211" lon="-2.0050341103399183"><ele>37.0</ele><time>2026-03-24T10:42:41.999Z</time></trkpt><trkpt lat="47.77214347660059" lon="-2.005272347383174"><ele>37.0</ele><time>2026-03-24T10:42:42.999Z</time></trkpt><trkpt lat="47.77217153191676" lon="-2.005477584552495"><ele>37.0</ele><time>2026-03-24T10:42:43.999Z</time></trkpt><trkpt lat="47.77222693309732" lon="-2.0056361471259168"><ele>37.0</ele><time>2026-03-24T10:42:44.999Z</time></trkpt><trkpt lat="47.772294155094" lon="-2.0057797067220045"><ele>37.0</ele><time>2026-03-24T10:42:45.999Z</time></trkpt><trkpt lat="47.77236782830986" lon="-2.005878141860263"><ele>37.0</ele><time>2026-03-24T10:42:46.999Z</time></trkpt><trkpt lat="47.77245583430799" lon="-2.0059420585332166"><ele>37.0</ele><time>2026-03-24T10:42:47.999Z</time></trkpt><trkpt lat="47.77254362701785" lon="-2.0059959603837663"><ele>37.0</ele><time>2026-03-24T10:42:48.999Z</time></trkpt><trkpt lat="47.77264380649975" lon="-2.0060350577592616"><ele>37.0</ele><time>2026-03-24T10:42:49.999Z</time></trkpt><trkpt lat="47.77272832475469" lon="-2.0060752763941117"><ele>37.0</ele><time>2026-03-24T10:42:50.999Z</time></trkpt><trkpt lat="47.77280148995886" lon="-2.006111022591793"><ele>38.5</ele><time>2026-03-24T10:42:52.999Z</time></trkpt><trkpt lat="47.77277792675695" lon="-2.006323747122338"><ele>40.0</ele><time>2026-03-24T10:43:08.999Z</time></trkpt><trkpt lat="47.77276915746787" lon="-2.006433131873809"><ele>41.5</ele><time>2026-03-24T10:43:09.999Z</time></trkpt><trkpt lat="47.772760923671406" lon="-2.0065468612208046"><ele>43.0</ele><time>2026-03-24T10:43:10.999Z</time></trkpt><trkpt lat="47.77275737894555" lon="-2.0066533966058517"><ele>44.5</ele><time>2026-03-24T10:43:11.999Z</time></trkpt><trkpt lat="47.77275230781529" lon="-2.006775015697262"><ele>46.0</ele><time>2026-03-24T10:43:12.999Z</time></trkpt><trkpt lat="47.77274992974203" lon="-2.0069030118868683"><ele>46.0</ele><time>2026-03-24T10:43:13.999Z</time></trkpt><trkpt lat="47.77274596941541" lon="-2.00704756986002"><ele>46.0</ele><time>2026-03-24T10:43:14.999Z</time></trkpt><trkpt lat="47.772738437697406" lon="-2.0072091767880216"><ele>46.0</ele><time>2026-03-24T10:43:15.999Z</time></trkpt><trkpt lat="47.77272682441511" lon="-2.0073474589941345"><ele>46.0</ele><time>2026-03-24T10:43:16.999Z</time></trkpt><trkpt lat="47.77271861263978" lon="-2.007499981953059"><ele>46.0</ele><time>2026-03-24T10:43:17.999Z</time></trkpt><trkpt lat="47.7727083673231" lon="-2.007690812930028"><ele>45.25</ele><time>2026-03-24T10:43:18.999Z</time></trkpt><trkpt lat="47.77270276744725" lon="-2.0078791863993426"><ele>44.5</ele><time>2026-03-24T10:43:19.999Z</time></trkpt><trkpt lat="47.77270238918175" lon="-2.0081243691802126"><ele>43.75</ele><time>2026-03-24T10:43:20.999Z</time></trkpt><trkpt lat="47.77269688570608" lon="-2.008318981707263"><ele>43.0</ele><time>2026-03-24T10:43:21.999Z</time></trkpt><trkpt lat="47.77269917371174" lon="-2.0085070719898237"><ele>42.333333333333336</ele><time>2026-03-24T10:43:22.999Z</time></trkpt><trkpt lat="47.77268726420825" lon="-2.0086387908022427"><ele>41.66666666666667</ele><time>2026-03-24T10:43:23.999Z</time></trkpt><trkpt lat="47.7726733381524" lon="-2.0087734544109126"><ele>41.0</ele><time>2026-03-24T10:43:24.999Z</time></trkpt><trkpt lat="47.772669955363206" lon="-2.0088904956676106"><ele>40.333333333333336</ele><time>2026-03-24T10:43:25.999Z</time></trkpt><trkpt lat="47.77266635724102" lon="-2.009004273274454"><ele>39.666666666666664</ele><time>2026-03-24T10:43:26.999Z</time></trkpt><trkpt lat="47.7726602970135" lon="-2.0091186648256603"><ele>39.0</ele><time>2026-03-24T10:43:27.999Z</time></trkpt><trkpt lat="47.77265100709573" lon="-2.0092320916175277"><ele>39.0</ele><time>2026-03-24T10:43:28.999Z</time></trkpt><trkpt lat="47.77264161199364" lon="-2.009364381388167"><ele>39.0</ele><time>2026-03-24T10:43:29.999Z</time></trkpt><trkpt lat="47.77263383837916" lon="-2.009522185373966"><ele>39.0</ele><time>2026-03-24T10:43:30.999Z</time></trkpt><trkpt lat="47.77262599997847" lon="-2.0097017856756336"><ele>39.0</ele><time>2026-03-24T10:43:31.999Z</time></trkpt><trkpt lat="47.77262229807151" lon="-2.0098946314036112"><ele>39.0</ele><time>2026-03-24T10:43:32.999Z</time></trkpt><trkpt lat="47.77261098927054" lon="-2.0101028395432183"><ele>39.0</ele><time>2026-03-24T10:43:33.999Z</time></trkpt><trkpt lat="47.77260418624669" lon="-2.010255713266031"><ele>39.0</ele><time>2026-03-24T10:43:34.999Z</time></trkpt><trkpt lat="47.77259771816127" lon="-2.010391960706423"><ele>39.0</ele><time>2026-03-24T10:43:35.999Z</time></trkpt><trkpt lat="47.77259222068694" lon="-2.010507250050739"><ele>39.0</ele><time>2026-03-24T10:43:36.999Z</time></trkpt><trkpt lat="47.77259098979579" lon="-2.010608606595744"><ele>39.0</ele><time>2026-03-24T10:43:37.999Z</time></trkpt><trkpt lat="47.77258592631823" lon="-2.010760093653445"><ele>39.0</ele><time>2026-03-24T10:43:39.998Z</time></trkpt><trkpt lat="47.77258355433796" lon="-2.01088572085159"><ele>39.4</ele><time>2026-03-24T10:43:41.998Z</time></trkpt><trkpt lat="47.77259644931186" lon="-2.0110270198042577"><ele>39.8</ele><time>2026-03-24T10:43:43.998Z</time></trkpt><trkpt lat="47.77260713849837" lon="-2.0111587853378934"><ele>40.199999999999996</ele><time>2026-03-24T10:43:44.998Z</time></trkpt><trkpt lat="47.77262348648428" lon="-2.011305390736481"><ele>40.599999999999994</ele><time>2026-03-24T10:43:45.998Z</time></trkpt><trkpt lat="47.77264015920688" lon="-2.011470688790524"><ele>41.0</ele><time>2026-03-24T10:43:46.998Z</time></trkpt><trkpt lat="47.772661181002874" lon="-2.011628542760215"><ele>42.33333333333333</ele><time>2026-03-24T10:43:47.998Z</time></trkpt><trkpt lat="47.77268991144564" lon="-2.011828018753241"><ele>43.666666666666664</ele><time>2026-03-24T10:43:48.998Z</time></trkpt><trkpt lat="47.77272658613964" lon="-2.0120769547637427"><ele>45.0</ele><time>2026-03-24T10:43:49.998Z</time></trkpt><trkpt lat="47.77276110430964" lon="-2.0123220228295193"><ele>45.0</ele><time>2026-03-24T10:43:50.998Z</time></trkpt><trkpt lat="47.77278903880677" lon="-2.0125930867193005"><ele>45.0</ele><time>2026-03-24T10:43:51.998Z</time></trkpt><trkpt lat="47.77282190718136" lon="-2.0128627646014823"><ele>45.0</ele><time>2026-03-24T10:43:52.998Z</time></trkpt><trkpt lat="47.77285604716015" lon="-2.013159986808463"><ele>45.666666666666664</ele><time>2026-03-24T10:43:53.998Z</time></trkpt><trkpt lat="47.77289517064904" lon="-2.013459572497543"><ele>46.33333333333333</ele><time>2026-03-24T10:43:54.998Z</time></trkpt><trkpt lat="47.772931906837385" lon="-2.0137750559919767"><ele>47.0</ele><time>2026-03-24T10:43:56Z</time></trkpt><trkpt lat="47.77297009605041" lon="-2.01405637294555"><ele>47.5</ele><time>2026-03-24T10:43:57Z</time></trkpt><trkpt lat="47.77299728392608" lon="-2.0142821238807778"><ele>48.0</ele><time>2026-03-24T10:43:58Z</time></trkpt><trkpt lat="47.773023582357375" lon="-2.014489075082783"><ele>48.5</ele><time>2026-03-24T10:43:59Z</time></trkpt><trkpt lat="47.77306573666813" lon="-2.014702114463091"><ele>49.0</ele><time>2026-03-24T10:44:00Z</time></trkpt><trkpt lat="47.77309523650574" lon="-2.014918270913791"><ele>49.5</ele><time>2026-03-24T10:44:01Z</time></trkpt><trkpt lat="47.77312291961088" lon="-2.0151327535549646"><ele>50.0</ele><time>2026-03-24T10:44:02Z</time></trkpt><trkpt lat="47.77313702706844" lon="-2.0153298049541934"><ele>50.5</ele><time>2026-03-24T10:44:03Z</time></trkpt><trkpt lat="47.773158120244" lon="-2.015497897214045"><ele>51.0</ele><time>2026-03-24T10:44:04Z</time></trkpt><trkpt lat="47.773194276288606" lon="-2.015659757495767"><ele>51.199999999999996</ele><time>2026-03-24T10:44:05Z</time></trkpt><trkpt lat="47.773214670801075" lon="-2.0158273926829264"><ele>51.4</ele><time>2026-03-24T10:44:06Z</time></trkpt><trkpt lat="47.77323280279001" lon="-2.0159831060217344"><ele>51.6</ele><time>2026-03-24T10:44:07Z</time></trkpt><trkpt lat="47.77324889607144" lon="-2.0161151279091127"><ele>51.8</ele><time>2026-03-24T10:44:08Z</time></trkpt><trkpt lat="47.7732632116763" lon="-2.0162388555701605"><ele>52.0</ele><time>2026-03-24T10:44:09Z</time></trkpt><trkpt lat="47.77327758165118" lon="-2.0163401210238248"><ele>51.99999999999999</ele><time>2026-03-24T10:44:10Z</time></trkpt><trkpt lat="47.77329072133184" lon="-2.0164559325654654"><ele>52.0</ele><time>2026-03-24T10:44:11Z</time></trkpt><trkpt lat="47.77329783434342" lon="-2.0165563931807875"><ele>52.0</ele><time>2026-03-24T10:44:12Z</time></trkpt><trkpt lat="47.77328753666691" lon="-2.0166877393514833"><ele>52.0</ele><time>2026-03-24T10:44:14Z</time></trkpt><trkpt lat="47.77340660349583" lon="-2.016693961611815"><ele>51.99999999999999</ele><time>2026-03-24T10:44:24Z</time></trkpt><trkpt lat="47.77347339237739" lon="-2.01666080309817"><ele>52.0</ele><time>2026-03-24T10:44:25Z</time></trkpt><trkpt lat="47.77362680151579" lon="-2.016607695654436"><ele>52.25</ele><time>2026-03-24T10:44:27Z</time></trkpt><trkpt lat="47.77371185908018" lon="-2.0165383547622318"><ele>52.5</ele><time>2026-03-24T10:44:28Z</time></trkpt><trkpt lat="47.773839885061044" lon="-2.0164734952259007"><ele>52.75</ele><time>2026-03-24T10:44:29Z</time></trkpt><trkpt lat="47.77395290981418" lon="-2.0164348607342077"><ele>53.0</ele><time>2026-03-24T10:44:30Z</time></trkpt><trkpt lat="47.77405830094087" lon="-2.016381021478455"><ele>53.0</ele><time>2026-03-24T10:44:31Z</time></trkpt><trkpt lat="47.774178527248516" lon="-2.0163170648242006"><ele>53.0</ele><time>2026-03-24T10:44:32Z</time></trkpt><trkpt lat="47.774303037323044" lon="-2.0162564683531947"><ele>53.0</ele><time>2026-03-24T10:44:33Z</time></trkpt><trkpt lat="47.77444011284329" lon="-2.0161768945744023"><ele>53.0</ele><time>2026-03-24T10:44:34Z</time></trkpt><trkpt lat="47.77457885788735" lon="-2.0161049027740963"><ele>53.75</ele><time>2026-03-24T10:44:35Z</time></trkpt><trkpt lat="47.77469782016055" lon="-2.0160495023885407"><ele>54.5</ele><time>2026-03-24T10:44:36Z</time></trkpt><trkpt lat="47.774820736666555" lon="-2.0159899752530954"><ele>55.25</ele><time>2026-03-24T10:44:37Z</time></trkpt><trkpt lat="47.77496672143516" lon="-2.0159144420639046"><ele>56.0</ele><time>2026-03-24T10:44:38Z</time></trkpt><trkpt lat="47.77511371839726" lon="-2.015835608872182"><ele>58.66666666666667</ele><time>2026-03-24T10:44:39Z</time></trkpt><trkpt lat="47.77527126655167" lon="-2.0157540025970038"><ele>61.33333333333333</ele><time>2026-03-24T10:44:40Z</time></trkpt><trkpt lat="47.775435461246296" lon="-2.0156582185473173"><ele>64.0</ele><time>2026-03-24T10:44:40.999Z</time></trkpt><trkpt lat="47.775601579067995" lon="-2.0155823790115113"><ele>64.0</ele><time>2026-03-24T10:44:41.999Z</time></trkpt><trkpt lat="47.77575391187168" lon="-2.0155065464728237"><ele>64.0</ele><time>2026-03-24T10:44:42.999Z</time></trkpt><trkpt lat="47.77591470582447" lon="-2.0154336282189447"><ele>64.0</ele><time>2026-03-24T10:44:43.999Z</time></trkpt><trkpt lat="47.77607954777367" lon="-2.015358348228206"><ele>64.25</ele><time>2026-03-24T10:44:44.999Z</time></trkpt><trkpt lat="47.7762247906536" lon="-2.015296931340412"><ele>64.5</ele><time>2026-03-24T10:44:45.999Z</time></trkpt><trkpt lat="47.77636372672228" lon="-2.0152307484329777"><ele>64.75</ele><time>2026-03-24T10:44:46.999Z</time></trkpt><trkpt lat="47.77649172147613" lon="-2.015170406628875"><ele>65.0</ele><time>2026-03-24T10:44:47.999Z</time></trkpt><trkpt lat="47.776599653067926" lon="-2.0151150481218707"><ele>65.0</ele><time>2026-03-24T10:44:48.999Z</time></trkpt><trkpt lat="47.77669370445264" lon="-2.015056013679086"><ele>65.0</ele><time>2026-03-24T10:44:49.999Z</time></trkpt><trkpt lat="47.77677856786507" lon="-2.01501236817182"><ele>65.0</ele><time>2026-03-24T10:44:50.999Z</time></trkpt><trkpt lat="47.77685949715797" lon="-2.0149568277236503"><ele>65.0</ele><time>2026-03-24T10:44:51.999Z</time></trkpt><trkpt lat="47.77693497684953" lon="-2.0149052704168113"><ele>65.0</ele><time>2026-03-24T10:44:52.999Z</time></trkpt><trkpt lat="47.7770015050013" lon="-2.0148607480823726"><ele>65.0</ele><time>2026-03-24T10:44:53.999Z</time></trkpt><trkpt lat="47.77711052641497" lon="-2.014802715959904"><ele>64.83333333333334</ele><time>2026-03-24T10:44:55.999Z</time></trkpt><trkpt lat="47.77716999330747" lon="-2.0147712514008163"><ele>64.66666666666667</ele><time>2026-03-24T10:44:56.999Z</time></trkpt><trkpt lat="47.777239582168335" lon="-2.0147425962245613"><ele>64.5</ele><time>2026-03-24T10:44:57.999Z</time></trkpt><trkpt lat="47.77732177321596" lon="-2.0147040844362647"><ele>64.33333333333333</ele><time>2026-03-24T10:44:58.999Z</time></trkpt><trkpt lat="47.7774124298851" lon="-2.0146591712320268"><ele>64.16666666666666</ele><time>2026-03-24T10:44:59.999Z</time></trkpt><trkpt lat="47.77751494373778" lon="-2.0146160575286682"><ele>64.0</ele><time>2026-03-24T10:45:00.999Z</time></trkpt><trkpt lat="47.77762822210149" lon="-2.014565294905152"><ele>63.75</ele><time>2026-03-24T10:45:01.999Z</time></trkpt><trkpt lat="47.7777483493466" lon="-2.0145066701257406"><ele>63.5</ele><time>2026-03-24T10:45:02.999Z</time></trkpt><trkpt lat="47.77788178485016" lon="-2.0144430541880327"><ele>63.25</ele><time>2026-03-24T10:45:03.999Z</time></trkpt><trkpt lat="47.77801869426188" lon="-2.0143643275460352"><ele>63.0</ele><time>2026-03-24T10:45:04.999Z</time></trkpt><trkpt lat="47.778153243442986" lon="-2.0142868296824195"><ele>63.0</ele><time>2026-03-24T10:45:05.999Z</time></trkpt><trkpt lat="47.778301359200306" lon="-2.0142250964642967"><ele>63.0</ele><time>2026-03-24T10:45:06.999Z</time></trkpt><trkpt lat="47.77845024386173" lon="-2.0141659627037347"><ele>63.0</ele><time>2026-03-24T10:45:07.999Z</time></trkpt><trkpt lat="47.77861202329414" lon="-2.014090618648681"><ele>62.0</ele><time>2026-03-24T10:45:08.999Z</time></trkpt><trkpt lat="47.77877545151646" lon="-2.0140113046007686"><ele>61.0</ele><time>2026-03-24T10:45:09.999Z</time></trkpt><trkpt lat="47.77894137805988" lon="-2.0139176332005597"><ele>60.0</ele><time>2026-03-24T10:45:10.999Z</time></trkpt><trkpt lat="47.77911142221801" lon="-2.013824196648956"><ele>60.0</ele><time>2026-03-24T10:45:11.999Z</time></trkpt><trkpt lat="47.77928160787159" lon="-2.0137344802330754"><ele>60.0</ele><time>2026-03-24T10:45:12.999Z</time></trkpt><trkpt lat="47.77944438021637" lon="-2.013651423406637"><ele>60.0</ele><time>2026-03-24T10:45:13.999Z</time></trkpt><trkpt lat="47.77960843925486" lon="-2.013567998225704"><ele>59.0</ele><time>2026-03-24T10:45:14.999Z</time></trkpt><trkpt lat="47.77977490169097" lon="-2.0134886618116723"><ele>58.0</ele><time>2026-03-24T10:45:15.999Z</time></trkpt><trkpt lat="47.779955815628675" lon="-2.0134093031569456"><ele>57.0</ele><time>2026-03-24T10:45:16.999Z</time></trkpt><trkpt lat="47.78013248830763" lon="-2.0133113952205575"><ele>57.0</ele><time>2026-03-24T10:45:17.999Z</time></trkpt><trkpt lat="47.780319617125656" lon="-2.0132134938218966"><ele>57.0</ele><time>2026-03-24T10:45:18.999Z</time></trkpt><trkpt lat="47.780511112381255" lon="-2.0131204689229167"><ele>57.0</ele><time>2026-03-24T10:45:19.999Z</time></trkpt><trkpt lat="47.78069409898582" lon="-2.0130269058000385"><ele>57.0</ele><time>2026-03-24T10:45:20.999Z</time></trkpt><trkpt lat="47.78085530394492" lon="-2.0129491526857266"><ele>57.0</ele><time>2026-03-24T10:45:21.999Z</time></trkpt><trkpt lat="47.78101144213376" lon="-2.012871363267517"><ele>57.0</ele><time>2026-03-24T10:45:22.999Z</time></trkpt><trkpt lat="47.78114601066235" lon="-2.0128092292915203"><ele>56.8</ele><time>2026-03-24T10:45:23.999Z</time></trkpt><trkpt lat="47.78125562824386" lon="-2.012754516034118"><ele>56.6</ele><time>2026-03-24T10:45:24.999Z</time></trkpt><trkpt lat="47.78135297159179" lon="-2.0127078018026205"><ele>56.39999999999999</ele><time>2026-03-24T10:45:25.999Z</time></trkpt><trkpt lat="47.781445633766864" lon="-2.012662146228209"><ele>56.199999999999996</ele><time>2026-03-24T10:45:26.999Z</time></trkpt><trkpt lat="47.78153258363186" lon="-2.012617613140608"><ele>56.0</ele><time>2026-03-24T10:45:27.999Z</time></trkpt><trkpt lat="47.78160857306401" lon="-2.0125698439633184"><ele>56.00000000000001</ele><time>2026-03-24T10:45:28.999Z</time></trkpt><trkpt lat="47.7816832155595" lon="-2.0125330956918774"><ele>56.0</ele><time>2026-03-24T10:45:29.999Z</time></trkpt><trkpt lat="47.781754241142906" lon="-2.0124956224604476"><ele>56.0</ele><time>2026-03-24T10:45:30.999Z</time></trkpt><trkpt lat="47.78182935997534" lon="-2.012465080456317"><ele>56.0</ele><time>2026-03-24T10:45:31.999Z</time></trkpt><trkpt lat="47.78190138462112" lon="-2.0124541260537505"><ele>56.00000000000001</ele><time>2026-03-24T10:45:32.999Z</time></trkpt><trkpt lat="47.78196241741947" lon="-2.0124294697526515"><ele>56.0</ele><time>2026-03-24T10:45:33.999Z</time></trkpt><trkpt lat="47.782070140753774" lon="-2.0126452483775044"><ele>56.0</ele><time>2026-03-24T10:45:35.999Z</time></trkpt><trkpt lat="47.78207758003833" lon="-2.012767845715012"><ele>55.99999999999999</ele><time>2026-03-24T10:45:36.999Z</time></trkpt><trkpt lat="47.78208362448373" lon="-2.012894954192219"><ele>55.99999999999999</ele><time>2026-03-24T10:45:37.999Z</time></trkpt><trkpt lat="47.782101871942956" lon="-2.013037946872422"><ele>56.0</ele><time>2026-03-24T10:45:38.999Z</time></trkpt><trkpt lat="47.782143794650565" lon="-2.013195487942422"><ele>56.0</ele><time>2026-03-24T10:45:39.999Z</time></trkpt><trkpt lat="47.782171013225344" lon="-2.013369561983129"><ele>55.75</ele><time>2026-03-24T10:45:40.999Z</time></trkpt><trkpt lat="47.78220425261046" lon="-2.0135746099845346"><ele>55.5</ele><time>2026-03-24T10:45:41.999Z</time></trkpt><trkpt lat="47.78223379335295" lon="-2.0137558902636137"><ele>55.25</ele><time>2026-03-24T10:45:42.999Z</time></trkpt><trkpt lat="47.78227080909945" lon="-2.013947316660358"><ele>55.0</ele><time>2026-03-24T10:45:43.999Z</time></trkpt><trkpt lat="47.78230669256499" lon="-2.0141200708418827"><ele>54.8</ele><time>2026-03-24T10:45:44.999Z</time></trkpt><trkpt lat="47.782349152060576" lon="-2.014268261312127"><ele>54.6</ele><time>2026-03-24T10:45:45.998Z</time></trkpt><trkpt lat="47.78238620120879" lon="-2.0144091421985557"><ele>54.400000000000006</ele><time>2026-03-24T10:45:46.998Z</time></trkpt><trkpt lat="47.782429000358626" lon="-2.0145329663481903"><ele>54.2</ele><time>2026-03-24T10:45:47.998Z</time></trkpt><trkpt lat="47.78247123149995" lon="-2.0146726241944193"><ele>54.0</ele><time>2026-03-24T10:45:48.998Z</time></trkpt><trkpt lat="47.7825114651297" lon="-2.014812737191916"><ele>54.0</ele><time>2026-03-24T10:45:49.998Z</time></trkpt><trkpt lat="47.78255470253882" lon="-2.014941973807174"><ele>54.0</ele><time>2026-03-24T10:45:50.998Z</time></trkpt><trkpt lat="47.78258904510251" lon="-2.0150596694678167"><ele>54.0</ele><time>2026-03-24T10:45:51.998Z</time></trkpt><trkpt lat="47.782628769357025" lon="-2.0151766516130976"><ele>54.0</ele><time>2026-03-24T10:45:52.998Z</time></trkpt><trkpt lat="47.782663682644355" lon="-2.0152894014535887"><ele>54.0</ele><time>2026-03-24T10:45:53.998Z</time></trkpt><trkpt lat="47.782706746252714" lon="-2.0153879894793905"><ele>54.0</ele><time>2026-03-24T10:45:54.998Z</time></trkpt><trkpt lat="47.782760395604576" lon="-2.015536189802152"><ele>54.166666666666664</ele><time>2026-03-24T10:45:56.998Z</time></trkpt><trkpt lat="47.78280382222753" lon="-2.0156074088488585"><ele>54.33333333333333</ele><time>2026-03-24T10:45:59.998Z</time></trkpt><trkpt lat="47.782843668913046" lon="-2.015694297680462"><ele>54.5</ele><time>2026-03-24T10:46:03Z</time></trkpt><trkpt lat="47.782960515690895" lon="-2.01557679234173"><ele>54.666666666666664</ele><time>2026-03-24T10:46:04Z</time></trkpt><trkpt lat="47.78302112078313" lon="-2.015527305997862"><ele>54.83333333333333</ele><time>2026-03-24T10:46:05Z</time></trkpt><trkpt lat="47.78308816757068" lon="-2.01546988403848"><ele>55.0</ele><time>2026-03-24T10:46:06Z</time></trkpt><trkpt lat="47.78317628240058" lon="-2.01539498062699"><ele>55.0</ele><time>2026-03-24T10:46:07Z</time></trkpt><trkpt lat="47.78327302121252" lon="-2.015316600122069"><ele>55.0</ele><time>2026-03-24T10:46:08Z</time></trkpt><trkpt lat="47.783364162639636" lon="-2.0152471551741327"><ele>55.0</ele><time>2026-03-24T10:46:09Z</time></trkpt><trkpt lat="47.78345882663107" lon="-2.0151936025588455"><ele>55.0</ele><time>2026-03-24T10:46:10Z</time></trkpt><trkpt lat="47.78355954643018" lon="-2.0151183198418687"><ele>55.0</ele><time>2026-03-24T10:46:11Z</time></trkpt><trkpt lat="47.78366328774592" lon="-2.0150260088911773"><ele>55.8</ele><time>2026-03-24T10:46:12Z</time></trkpt><trkpt lat="47.78376118967608" lon="-2.014932611090767"><ele>56.6</ele><time>2026-03-24T10:46:13Z</time></trkpt><trkpt lat="47.783854088555515" lon="-2.0148512144099096"><ele>57.400000000000006</ele><time>2026-03-24T10:46:14Z</time></trkpt><trkpt lat="47.783906396107014" lon="-2.0147829775722386"><ele>58.2</ele><time>2026-03-24T10:46:15Z</time></trkpt><trkpt lat="47.783994762040585" lon="-2.0147343723474003"><ele>59.0</ele><time>2026-03-24T10:46:17Z</time></trkpt><trkpt lat="47.78409116816568" lon="-2.0149302850377846"><ele>58.800000000000004</ele><time>2026-03-24T10:46:19Z</time></trkpt><trkpt lat="47.78413069704287" lon="-2.0150404676189617"><ele>58.60000000000001</ele><time>2026-03-24T10:46:20Z</time></trkpt><trkpt lat="47.784136985842686" lon="-2.0151902661060572"><ele>58.4</ele><time>2026-03-24T10:46:21Z</time></trkpt><trkpt lat="47.78418107135072" lon="-2.0153035101939016"><ele>58.2</ele><time>2026-03-24T10:46:22Z</time></trkpt><trkpt lat="47.7842081351687" lon="-2.0154188332505516"><ele>58.0</ele><time>2026-03-24T10:46:23Z</time></trkpt><trkpt lat="47.78424049566881" lon="-2.0155555915304895"><ele>58.0</ele><time>2026-03-24T10:46:24Z</time></trkpt><trkpt lat="47.78426874379172" lon="-2.0157085424243832"><ele>58.0</ele><time>2026-03-24T10:46:25Z</time></trkpt><trkpt lat="47.784312437773224" lon="-2.0158627883492404"><ele>58.0</ele><time>2026-03-24T10:46:26Z</time></trkpt><trkpt lat="47.78433633913555" lon="-2.0160149398079192"><ele>58.0</ele><time>2026-03-24T10:46:27Z</time></trkpt><trkpt lat="47.78436839646121" lon="-2.0161830029088974"><ele>58.0</ele><time>2026-03-24T10:46:28Z</time></trkpt><trkpt lat="47.784415106860145" lon="-2.01634261513406"><ele>57.0</ele><time>2026-03-24T10:46:29Z</time></trkpt><trkpt lat="47.784441969760046" lon="-2.016518141814242"><ele>56.0</ele><time>2026-03-24T10:46:30Z</time></trkpt><trkpt lat="47.78447571662511" lon="-2.0166766693154745"><ele>55.0</ele><time>2026-03-24T10:46:31Z</time></trkpt><trkpt lat="47.78451151560002" lon="-2.016856130663324"><ele>54.0</ele><time>2026-03-24T10:46:32Z</time></trkpt><trkpt lat="47.78455702050089" lon="-2.017027805211801"><ele>53.666666666666664</ele><time>2026-03-24T10:46:33Z</time></trkpt><trkpt lat="47.78458143894251" lon="-2.0171588566773346"><ele>53.33333333333333</ele><time>2026-03-24T10:46:34Z</time></trkpt><trkpt lat="47.78459913375368" lon="-2.0173446118401426"><ele>53.0</ele><time>2026-03-24T10:46:36Z</time></trkpt><trkpt lat="47.784624962407335" lon="-2.0174419502929424"><ele>52.666666666666664</ele><time>2026-03-24T10:46:38Z</time></trkpt><trkpt lat="47.78464278413417" lon="-2.017563306618229"><ele>52.33333333333333</ele><time>2026-03-24T10:46:54.999Z</time></trkpt><trkpt lat="47.78462966155784" lon="-2.017462178183361"><ele>52.0</ele><time>2026-03-24T10:47:15.999Z</time></trkpt><trkpt lat="47.784644632071036" lon="-2.017589798414268"><ele>51.0</ele><time>2026-03-24T10:47:22.999Z</time></trkpt><trkpt lat="47.78466377961856" lon="-2.0177337220286646"><ele>50.0</ele><time>2026-03-24T10:47:23.999Z</time></trkpt><trkpt lat="47.78466055012198" lon="-2.017857963302386"><ele>49.0</ele><time>2026-03-24T10:47:24.999Z</time></trkpt><trkpt lat="47.78466914523726" lon="-2.017984464791227"><ele>48.0</ele><time>2026-03-24T10:47:25.999Z</time></trkpt><trkpt lat="47.784646972948345" lon="-2.018105494618291"><ele>47.0</ele><time>2026-03-24T10:47:26.999Z</time></trkpt><trkpt lat="47.784588913615366" lon="-2.018225271206552"><ele>46.8</ele><time>2026-03-24T10:47:27.999Z</time></trkpt><trkpt lat="47.78454261740382" lon="-2.018337006579523"><ele>46.6</ele><time>2026-03-24T10:47:28.999Z</time></trkpt><trkpt lat="47.78451411266334" lon="-2.0184497002930484"><ele>46.4</ele><time>2026-03-24T10:47:29.999Z</time></trkpt><trkpt lat="47.78447248929034" lon="-2.0186073910004323"><ele>46.199999999999996</ele><time>2026-03-24T10:47:31.999Z</time></trkpt><trkpt lat="47.784416036314546" lon="-2.0187511826979856"><ele>46.0</ele><time>2026-03-24T10:47:33.999Z</time></trkpt><trkpt lat="47.78435292343893" lon="-2.018817775670558"><ele>46.0</ele><time>2026-03-24T10:47:36.999Z</time></trkpt><trkpt lat="47.784293467941005" lon="-2.0188600635056173"><ele>46.0</ele><time>2026-03-24T10:47:41.999Z</time></trkpt><trkpt lat="47.78436959081637" lon="-2.018935137523517"><ele>46.0</ele><time>2026-03-24T10:48:53.999Z</time></trkpt><trkpt lat="47.784293066595545" lon="-2.018840641985412"><ele>46.0</ele><time>2026-03-24T10:49:04.999Z</time></trkpt><trkpt lat="47.78426079597229" lon="-2.018754879204974"><ele>46.0</ele><time>2026-03-24T10:49:07.999Z</time></trkpt><trkpt lat="47.78427332741156" lon="-2.0186505674175854"><ele>46.0</ele><time>2026-03-24T10:49:10.999Z</time></trkpt><trkpt lat="47.78429945876819" lon="-2.0184689701470124"><ele>46.199999999999996</ele><time>2026-03-24T10:49:12.999Z</time></trkpt><trkpt lat="47.78434223497281" lon="-2.018301876525191"><ele>46.4</ele><time>2026-03-24T10:49:14.999Z</time></trkpt><trkpt lat="47.78437334670788" lon="-2.018204530290421"><ele>46.6</ele><time>2026-03-24T10:49:15.999Z</time></trkpt><trkpt lat="47.784441314919114" lon="-2.0180210712682527"><ele>46.8</ele><time>2026-03-24T10:49:17.999Z</time></trkpt><trkpt lat="47.78448865905937" lon="-2.017919684049283"><ele>47.0</ele><time>2026-03-24T10:49:18.999Z</time></trkpt><trkpt lat="47.784535789374665" lon="-2.0178059894300002"><ele>47.0</ele><time>2026-03-24T10:49:19.999Z</time></trkpt><trkpt lat="47.78456025866438" lon="-2.0176355196748785"><ele>47.0</ele><time>2026-03-24T10:49:20.999Z</time></trkpt><trkpt lat="47.784587488165094" lon="-2.017514923065997"><ele>47.0</ele><time>2026-03-24T10:49:21.999Z</time></trkpt><trkpt lat="47.78460755707083" lon="-2.0174031729277946"><ele>47.0</ele><time>2026-03-24T10:49:22.999Z</time></trkpt><trkpt lat="47.78462191324596" lon="-2.017300683337978"><ele>47.0</ele><time>2026-03-24T10:49:23.999Z</time></trkpt><trkpt lat="47.78461636308621" lon="-2.0171813585011074"><ele>47.0</ele><time>2026-03-24T10:49:24.999Z</time></trkpt><trkpt lat="47.78453992031541" lon="-2.017091045378785"><ele>48.25</ele><time>2026-03-24T10:49:25.999Z</time></trkpt><trkpt lat="47.78451045958239" lon="-2.016940164072634"><ele>49.5</ele><time>2026-03-24T10:49:26.999Z</time></trkpt><trkpt lat="47.784492959118246" lon="-2.0167707925278537"><ele>50.75</ele><time>2026-03-24T10:49:27.999Z</time></trkpt><trkpt lat="47.78444874115724" lon="-2.016597055583529"><ele>52.0</ele><time>2026-03-24T10:49:28.999Z</time></trkpt><trkpt lat="47.78440732905275" lon="-2.016409522657445"><ele>52.400000000000006</ele><time>2026-03-24T10:49:29.999Z</time></trkpt><trkpt lat="47.784362036491956" lon="-2.0162625167162314"><ele>52.800000000000004</ele><time>2026-03-24T10:49:30.999Z</time></trkpt><trkpt lat="47.78434768457021" lon="-2.0161202915303305"><ele>53.2</ele><time>2026-03-24T10:49:31.999Z</time></trkpt><trkpt lat="47.78431697457075" lon="-2.0159822359072748"><ele>53.6</ele><time>2026-03-24T10:49:32.999Z</time></trkpt><trkpt lat="47.78428568244779" lon="-2.015843858175948"><ele>54.0</ele><time>2026-03-24T10:49:33.999Z</time></trkpt><trkpt lat="47.78425131721343" lon="-2.0156960526697123"><ele>55.0</ele><time>2026-03-24T10:49:34.999Z</time></trkpt><trkpt lat="47.7842125884058" lon="-2.0155263904353267"><ele>56.0</ele><time>2026-03-24T10:49:35.999Z</time></trkpt><trkpt lat="47.78416862225871" lon="-2.0153436428550506"><ele>57.0</ele><time>2026-03-24T10:49:36.999Z</time></trkpt><trkpt lat="47.78413158462592" lon="-2.0151754228325767"><ele>58.0</ele><time>2026-03-24T10:49:37.999Z</time></trkpt><trkpt lat="47.78409843821504" lon="-2.015027463735558"><ele>58.0</ele><time>2026-03-24T10:49:38.999Z</time></trkpt><trkpt lat="47.78405681607536" lon="-2.014924399261877"><ele>58.0</ele><time>2026-03-24T10:49:39.999Z</time></trkpt><trkpt lat="47.78402932174505" lon="-2.0148073486420386"><ele>58.0</ele><time>2026-03-24T10:49:41.999Z</time></trkpt><trkpt lat="47.78389525943527" lon="-2.0148474254003648"><ele>58.0</ele><time>2026-03-24T10:49:43.999Z</time></trkpt><trkpt lat="47.78382770887077" lon="-2.0148955731955818"><ele>58.0</ele><time>2026-03-24T10:49:44.999Z</time></trkpt><trkpt lat="47.78374295159974" lon="-2.0149953886663563"><ele>58.0</ele><time>2026-03-24T10:49:45.999Z</time></trkpt><trkpt lat="47.78364648039143" lon="-2.0150573979638358"><ele>58.0</ele><time>2026-03-24T10:49:46.999Z</time></trkpt><trkpt lat="47.7835413544262" lon="-2.0151363735443235"><ele>58.0</ele><time>2026-03-24T10:49:47.999Z</time></trkpt><trkpt lat="47.783425088711674" lon="-2.0152303681771895"><ele>58.0</ele><time>2026-03-24T10:49:48.999Z</time></trkpt><trkpt lat="47.78333031025109" lon="-2.015343054285597"><ele>57.49999999999999</ele><time>2026-03-24T10:49:49.999Z</time></trkpt><trkpt lat="47.783235390265176" lon="-2.0154117225283343"><ele>57.0</ele><time>2026-03-24T10:49:50.999Z</time></trkpt><trkpt lat="47.78315116912498" lon="-2.0154739954802254"><ele>56.5</ele><time>2026-03-24T10:49:51.999Z</time></trkpt><trkpt lat="47.783080497791296" lon="-2.0155300220650414"><ele>56.0</ele><time>2026-03-24T10:49:52.999Z</time></trkpt><trkpt lat="47.783020063114265" lon="-2.0155978372583854"><ele>55.49999999999999</ele><time>2026-03-24T10:49:53.999Z</time></trkpt><trkpt lat="47.78295187472942" lon="-2.01564594365376"><ele>55.0</ele><time>2026-03-24T10:49:54.999Z</time></trkpt><trkpt lat="47.78288846326715" lon="-2.015678774267784"><ele>55.0</ele><time>2026-03-24T10:49:55.999Z</time></trkpt><trkpt lat="47.782833585330046" lon="-2.0157299120740655"><ele>55.0</ele><time>2026-03-24T10:49:57.999Z</time></trkpt><trkpt lat="47.78273064096354" lon="-2.015524419270739"><ele>55.0</ele><time>2026-03-24T10:49:58.998Z</time></trkpt><trkpt lat="47.782679954498605" lon="-2.015418471850797"><ele>55.0</ele><time>2026-03-24T10:49:59.998Z</time></trkpt><trkpt lat="47.782639419699066" lon="-2.015303077311524"><ele>55.0</ele><time>2026-03-24T10:50:00.998Z</time></trkpt><trkpt lat="47.782610011172395" lon="-2.015157957715894"><ele>54.75</ele><time>2026-03-24T10:50:01.998Z</time></trkpt><trkpt lat="47.78256144665296" lon="-2.0150119792880297"><ele>54.5</ele><time>2026-03-24T10:50:02.998Z</time></trkpt><trkpt lat="47.7825051514688" lon="-2.0148635786061564"><ele>54.25</ele><time>2026-03-24T10:50:03.998Z</time></trkpt><trkpt lat="47.78245233669724" lon="-2.014684875756104"><ele>54.0</ele><time>2026-03-24T10:50:04.998Z</time></trkpt><trkpt lat="47.78239522504266" lon="-2.0144923562337094"><ele>54.0</ele><time>2026-03-24T10:50:05.998Z</time></trkpt><trkpt lat="47.78234235428198" lon="-2.014318750444414"><ele>54.0</ele><time>2026-03-24T10:50:06.998Z</time></trkpt><trkpt lat="47.78229361222946" lon="-2.014133494272393"><ele>54.0</ele><time>2026-03-24T10:50:07.998Z</time></trkpt><trkpt lat="47.78223337849805" lon="-2.0139380531512603"><ele>54.0</ele><time>2026-03-24T10:50:08.998Z</time></trkpt><trkpt lat="47.78219337703999" lon="-2.0137192717520005"><ele>54.33333333333333</ele><time>2026-03-24T10:50:09.998Z</time></trkpt><trkpt lat="47.78214157428603" lon="-2.0134930059662515"><ele>54.666666666666664</ele><time>2026-03-24T10:50:10.998Z</time></trkpt><trkpt lat="47.78211343782461" lon="-2.0132577796959588"><ele>55.0</ele><time>2026-03-24T10:50:11.998Z</time></trkpt><trkpt lat="47.78208513801204" lon="-2.0130704320202946"><ele>55.2</ele><time>2026-03-24T10:50:12.998Z</time></trkpt><trkpt lat="47.78206165521935" lon="-2.012911131222992"><ele>55.4</ele><time>2026-03-24T10:50:14Z</time></trkpt><trkpt lat="47.78204004844026" lon="-2.012779186697631"><ele>55.599999999999994</ele><time>2026-03-24T10:50:15Z</time></trkpt><trkpt lat="47.78202738918637" lon="-2.0126857103911444"><ele>55.8</ele><time>2026-03-24T10:50:16Z</time></trkpt><trkpt lat="47.78199869221501" lon="-2.0125348420381695"><ele>56.0</ele><time>2026-03-24T10:50:18Z</time></trkpt><trkpt lat="47.78183297428715" lon="-2.012545442161188"><ele>56.0</ele><time>2026-03-24T10:50:22Z</time></trkpt><trkpt lat="47.78175777746524" lon="-2.0125824839237074"><ele>55.99999999999999</ele><time>2026-03-24T10:50:23Z</time></trkpt><trkpt lat="47.781660564153135" lon="-2.0126300361541527"><ele>55.99999999999999</ele><time>2026-03-24T10:50:24Z</time></trkpt><trkpt lat="47.781548361819766" lon="-2.0126849204235095"><ele>56.0</ele><time>2026-03-24T10:50:25Z</time></trkpt><trkpt lat="47.781440348243876" lon="-2.012731589922223"><ele>56.0</ele><time>2026-03-24T10:50:26Z</time></trkpt><trkpt lat="47.78133687400575" lon="-2.012774481784484"><ele>56.0</ele><time>2026-03-24T10:50:27Z</time></trkpt><trkpt lat="47.78121359056462" lon="-2.0128301577559236"><ele>56.0</ele><time>2026-03-24T10:50:28Z</time></trkpt><trkpt lat="47.781092721572385" lon="-2.0129184520754744"><ele>56.0</ele><time>2026-03-24T10:50:29Z</time></trkpt><trkpt lat="47.7809625913887" lon="-2.012985458485606"><ele>56.0</ele><time>2026-03-24T10:50:30Z</time></trkpt><trkpt lat="47.78082051204136" lon="-2.013052591092682"><ele>56.25</ele><time>2026-03-24T10:50:31Z</time></trkpt><trkpt lat="47.78068854463599" lon="-2.013112063414012"><ele>56.5</ele><time>2026-03-24T10:50:32Z</time></trkpt><trkpt lat="47.780555996539384" lon="-2.013164058736829"><ele>56.75</ele><time>2026-03-24T10:50:33Z</time></trkpt><trkpt lat="47.78041447635022" lon="-2.0132304627866695"><ele>57.0</ele><time>2026-03-24T10:50:34Z</time></trkpt><trkpt lat="47.78027036380123" lon="-2.0133055962064694"><ele>57.0</ele><time>2026-03-24T10:50:35Z</time></trkpt><trkpt lat="47.780123018967544" lon="-2.0133781305750276"><ele>57.0</ele><time>2026-03-24T10:50:36Z</time></trkpt><trkpt lat="47.77996712425256" lon="-2.013460829071295"><ele>57.0</ele><time>2026-03-24T10:50:37Z</time></trkpt><trkpt lat="47.779804202684794" lon="-2.013538728611629"><ele>57.0</ele><time>2026-03-24T10:50:38Z</time></trkpt><trkpt lat="47.77963677060666" lon="-2.0136166469313346"><ele>57.0</ele><time>2026-03-24T10:50:39Z</time></trkpt><trkpt lat="47.7794654227218" lon="-2.0137211910407147"><ele>57.0</ele><time>2026-03-24T10:50:40Z</time></trkpt><trkpt lat="47.77929487559864" lon="-2.013806226462123"><ele>58.0</ele><time>2026-03-24T10:50:41Z</time></trkpt><trkpt lat="47.77912573283434" lon="-2.013867638100005"><ele>59.0</ele><time>2026-03-24T10:50:42Z</time></trkpt><trkpt lat="47.778958530650044" lon="-2.01395123963781"><ele>60.0</ele><time>2026-03-24T10:50:43Z</time></trkpt><trkpt lat="47.778782476207326" lon="-2.014041344958636"><ele>60.0</ele><time>2026-03-24T10:50:44Z</time></trkpt><trkpt lat="47.778616295106396" lon="-2.0141252611632163"><ele>60.0</ele><time>2026-03-24T10:50:45Z</time></trkpt><trkpt lat="47.77844835802015" lon="-2.014233270655986"><ele>60.0</ele><time>2026-03-24T10:50:46Z</time></trkpt><trkpt lat="47.77826935421512" lon="-2.0143242996055353"><ele>61.0</ele><time>2026-03-24T10:50:47Z</time></trkpt><trkpt lat="47.77807207026773" lon="-2.014397221203133"><ele>62.0</ele><time>2026-03-24T10:50:48Z</time></trkpt><trkpt lat="47.777889096462125" lon="-2.014486902158245"><ele>63.0</ele><time>2026-03-24T10:50:49Z</time></trkpt><trkpt lat="47.777716953679594" lon="-2.0145970489250233"><ele>63.33333333333333</ele><time>2026-03-24T10:50:50Z</time></trkpt><trkpt lat="47.77753787706319" lon="-2.014668487882379"><ele>63.666666666666664</ele><time>2026-03-24T10:50:51Z</time></trkpt><trkpt lat="47.77737277507788" lon="-2.014746579366567"><ele>64.0</ele><time>2026-03-24T10:50:52Z</time></trkpt><trkpt lat="47.77720169757848" lon="-2.0148336575317667"><ele>64.0</ele><time>2026-03-24T10:50:53Z</time></trkpt><trkpt lat="47.77702660581684" lon="-2.014948526897156"><ele>64.0</ele><time>2026-03-24T10:50:54Z</time></trkpt><trkpt lat="47.7768467601952" lon="-2.015035554149569"><ele>64.0</ele><time>2026-03-24T10:50:55Z</time></trkpt><trkpt lat="47.77666842068546" lon="-2.0151208355811474"><ele>64.33333333333333</ele><time>2026-03-24T10:50:56Z</time></trkpt><trkpt lat="47.77648481323807" lon="-2.0151904625937136"><ele>64.66666666666667</ele><time>2026-03-24T10:50:57Z</time></trkpt><trkpt lat="47.77631797677353" lon="-2.0153002233150397"><ele>65.0</ele><time>2026-03-24T10:50:57.999Z</time></trkpt><trkpt lat="47.77613809346295" lon="-2.0153883359177045"><ele>64.66666666666667</ele><time>2026-03-24T10:50:58.999Z</time></trkpt><trkpt lat="47.7759534287668" lon="-2.0154799592724"><ele>64.33333333333333</ele><time>2026-03-24T10:50:59.999Z</time></trkpt><trkpt lat="47.775771919591755" lon="-2.015571644899551"><ele>64.0</ele><time>2026-03-24T10:51:00.999Z</time></trkpt><trkpt lat="47.77558394134307" lon="-2.015665128465409"><ele>64.0</ele><time>2026-03-24T10:51:01.999Z</time></trkpt><trkpt lat="47.77539284224349" lon="-2.0157584360250556"><ele>64.0</ele><time>2026-03-24T10:51:02.999Z</time></trkpt><trkpt lat="47.775197558089104" lon="-2.015853786965837"><ele>64.0</ele><time>2026-03-24T10:51:03.999Z</time></trkpt><trkpt lat="47.7750033029443" lon="-2.0159503238734353"><ele>61.33333333333333</ele><time>2026-03-24T10:51:04.999Z</time></trkpt><trkpt lat="47.774805813021096" lon="-2.0160507905224456"><ele>58.66666666666667</ele><time>2026-03-24T10:51:05.999Z</time></trkpt><trkpt lat="47.77461385835205" lon="-2.016146280177436"><ele>56.0</ele><time>2026-03-24T10:51:06.999Z</time></trkpt><trkpt lat="47.774431013354" lon="-2.016237238141169"><ele>55.0</ele><time>2026-03-24T10:51:07.999Z</time></trkpt><trkpt lat="47.77426105767076" lon="-2.016321784161981"><ele>54.0</ele><time>2026-03-24T10:51:08.999Z</time></trkpt><trkpt lat="47.774075045835055" lon="-2.016414158382319"><ele>53.0</ele><time>2026-03-24T10:51:09.999Z</time></trkpt><trkpt lat="47.77389250978135" lon="-2.0165047815560055"><ele>53.0</ele><time>2026-03-24T10:51:10.999Z</time></trkpt><trkpt lat="47.77372117562578" lon="-2.0165898434069973"><ele>53.0</ele><time>2026-03-24T10:51:11.999Z</time></trkpt><trkpt lat="47.77353465119561" lon="-2.016682446667158"><ele>53.0</ele><time>2026-03-24T10:51:12.999Z</time></trkpt><trkpt lat="47.77335822802305" lon="-2.016770035017708"><ele>53.0</ele><time>2026-03-24T10:51:13.999Z</time></trkpt><trkpt lat="47.77318368612665" lon="-2.016857004552358"><ele>53.0</ele><time>2026-03-24T10:51:14.999Z</time></trkpt><trkpt lat="47.7729984335648" lon="-2.0169495405107596"><ele>53.0</ele><time>2026-03-24T10:51:15.999Z</time></trkpt><trkpt lat="47.77281926491721" lon="-2.01703903756114"><ele>52.333333333333336</ele><time>2026-03-24T10:51:16.999Z</time></trkpt><trkpt lat="47.77262092862051" lon="-2.0171372024956122"><ele>51.66666666666667</ele><time>2026-03-24T10:51:17.999Z</time></trkpt><trkpt lat="47.77242216690264" lon="-2.017235311131966"><ele>51.0</ele><time>2026-03-24T10:51:18.999Z</time></trkpt><trkpt lat="47.77220927173116" lon="-2.0173445605442115"><ele>51.0</ele><time>2026-03-24T10:51:19.999Z</time></trkpt><trkpt lat="47.77199916743918" lon="-2.017451413021555"><ele>51.0</ele><time>2026-03-24T10:51:20.999Z</time></trkpt><trkpt lat="47.7717884453316" lon="-2.017555557497544"><ele>51.0</ele><time>2026-03-24T10:51:21.999Z</time></trkpt><trkpt lat="47.771581534586964" lon="-2.0176546714556336"><ele>51.33333333333333</ele><time>2026-03-24T10:51:22.999Z</time></trkpt><trkpt lat="47.7714002735962" lon="-2.0177431277483646"><ele>51.666666666666664</ele><time>2026-03-24T10:51:23.999Z</time></trkpt><trkpt lat="47.77122778123652" lon="-2.0178334840920664"><ele>52.0</ele><time>2026-03-24T10:51:24.999Z</time></trkpt><trkpt lat="47.771066601463964" lon="-2.0179130090139075"><ele>51.0</ele><time>2026-03-24T10:51:25.999Z</time></trkpt><trkpt lat="47.77092265575479" lon="-2.017982765229448"><ele>50.0</ele><time>2026-03-24T10:51:26.999Z</time></trkpt><trkpt lat="47.7707773224197" lon="-2.018056455844812"><ele>49.0</ele><time>2026-03-24T10:51:27.999Z</time></trkpt><trkpt lat="47.77067155282739" lon="-2.018110085811257"><ele>48.0</ele><time>2026-03-24T10:51:28.999Z</time></trkpt><trkpt lat="47.7705532867986" lon="-2.0181700520872377"><ele>48.0</ele><time>2026-03-24T10:51:29.999Z</time></trkpt><trkpt lat="47.770457235129484" lon="-2.018218224238595"><ele>48.0</ele><time>2026-03-24T10:51:30.999Z</time></trkpt><trkpt lat="47.77036938340152" lon="-2.0182444006914833"><ele>48.0</ele><time>2026-03-24T10:51:31.999Z</time></trkpt><trkpt lat="47.77030860562421" lon="-2.0182880860790022"><ele>48.0</ele><time>2026-03-24T10:51:32.999Z</time></trkpt><trkpt lat="47.77019819681456" lon="-2.0181791413121966"><ele>48.0</ele><time>2026-03-24T10:51:34.999Z</time></trkpt><trkpt lat="47.77012825880487" lon="-2.0180961474989223"><ele>47.8</ele><time>2026-03-24T10:51:36.999Z</time></trkpt><trkpt lat="47.77004076221932" lon="-2.018007764784644"><ele>47.599999999999994</ele><time>2026-03-24T10:51:38.999Z</time></trkpt><trkpt lat="47.77002176747821" lon="-2.0179000696029163"><ele>47.400000000000006</ele><time>2026-03-24T10:51:39.999Z</time></trkpt><trkpt lat="47.77001196879403" lon="-2.017786143761704"><ele>47.2</ele><time>2026-03-24T10:51:40.999Z</time></trkpt><trkpt lat="47.76995675920939" lon="-2.017620284609363"><ele>47.0</ele><time>2026-03-24T10:51:41.999Z</time></trkpt><trkpt lat="47.769917821483716" lon="-2.017449421506637"><ele>46.5</ele><time>2026-03-24T10:51:42.999Z</time></trkpt><trkpt lat="47.76988486025186" lon="-2.01730466436265"><ele>46.0</ele><time>2026-03-24T10:51:43.999Z</time></trkpt><trkpt lat="47.76986811183257" lon="-2.01716110561643"><ele>45.5</ele><time>2026-03-24T10:51:44.999Z</time></trkpt><trkpt lat="47.76980729485844" lon="-2.0169912504181835"><ele>45.0</ele><time>2026-03-24T10:51:45.999Z</time></trkpt><trkpt lat="47.76977531428156" lon="-2.016769705847482"><ele>44.333333333333336</ele><time>2026-03-24T10:51:46.999Z</time></trkpt><trkpt lat="47.7697289228163" lon="-2.0165665975166944"><ele>43.66666666666667</ele><time>2026-03-24T10:51:47.999Z</time></trkpt><trkpt lat="47.769677065406306" lon="-2.0163443027959302"><ele>43.0</ele><time>2026-03-24T10:51:48.999Z</time></trkpt><trkpt lat="47.7696265851878" lon="-2.0161344317693626"><ele>43.0</ele><time>2026-03-24T10:51:49.999Z</time></trkpt><trkpt lat="47.76958373514023" lon="-2.015921900799817"><ele>43.0</ele><time>2026-03-24T10:51:50.999Z</time></trkpt><trkpt lat="47.76953401268444" lon="-2.015719573607283"><ele>43.0</ele><time>2026-03-24T10:51:51.999Z</time></trkpt><trkpt lat="47.76949336173386" lon="-2.0155309223437774"><ele>43.0</ele><time>2026-03-24T10:51:52.999Z</time></trkpt><trkpt lat="47.76943826141047" lon="-2.015368237797219"><ele>43.0</ele><time>2026-03-24T10:51:53.999Z</time></trkpt><trkpt lat="47.769396265176304" lon="-2.0152194002656176"><ele>43.0</ele><time>2026-03-24T10:51:54.999Z</time></trkpt><trkpt lat="47.76936530100831" lon="-2.015106023987345"><ele>43.0</ele><time>2026-03-24T10:51:55.999Z</time></trkpt><trkpt lat="47.769358114829366" lon="-2.014971460653003"><ele>43.0</ele><time>2026-03-24T10:51:57.999Z</time></trkpt><trkpt lat="47.769537324482826" lon="-2.0148778878226907"><ele>42.75</ele><time>2026-03-24T10:52:00.999Z</time></trkpt><trkpt lat="47.769672937777976" lon="-2.0148039471882617"><ele>42.5</ele><time>2026-03-24T10:52:02.999Z</time></trkpt><trkpt lat="47.76977754526465" lon="-2.014755758405256"><ele>42.25</ele><time>2026-03-24T10:52:03.998Z</time></trkpt><trkpt lat="47.769868921344234" lon="-2.0147147115952793"><ele>42.0</ele><time>2026-03-24T10:52:04.998Z</time></trkpt><trkpt lat="47.76996555593914" lon="-2.014644339276543"><ele>42.0</ele><time>2026-03-24T10:52:05.998Z</time></trkpt><trkpt lat="47.77006373510695" lon="-2.014566290374765"><ele>42.0</ele><time>2026-03-24T10:52:06.998Z</time></trkpt><trkpt lat="47.77016393787243" lon="-2.014458986454301"><ele>42.0</ele><time>2026-03-24T10:52:07.998Z</time></trkpt><trkpt lat="47.77022802255219" lon="-2.014306941992227"><ele>42.0</ele><time>2026-03-24T10:52:08.998Z</time></trkpt><trkpt lat="47.770291689146106" lon="-2.0141578779559652"><ele>41.75</ele><time>2026-03-24T10:52:09.998Z</time></trkpt><trkpt lat="47.77036001819603" lon="-2.013987350645665"><ele>41.5</ele><time>2026-03-24T10:52:10.998Z</time></trkpt><trkpt lat="47.77042901245137" lon="-2.0138307071995003"><ele>41.25</ele><time>2026-03-24T10:52:11.998Z</time></trkpt><trkpt lat="47.77050507231718" lon="-2.013661773548272"><ele>41.0</ele><time>2026-03-24T10:52:12.998Z</time></trkpt><trkpt lat="47.77058467848518" lon="-2.013483116302253"><ele>41.0</ele><time>2026-03-24T10:52:13.998Z</time></trkpt><trkpt lat="47.770672890802274" lon="-2.0133287482317956"><ele>41.0</ele><time>2026-03-24T10:52:14.998Z</time></trkpt><trkpt lat="47.77074611525384" lon="-2.0131573692193023"><ele>41.0</ele><time>2026-03-24T10:52:15.998Z</time></trkpt><trkpt lat="47.770823688942784" lon="-2.0129792413231002"><ele>41.0</ele><time>2026-03-24T10:52:16.998Z</time></trkpt><trkpt lat="47.7708995090679" lon="-2.01280826176922"><ele>41.0</ele><time>2026-03-24T10:52:17.998Z</time></trkpt><trkpt lat="47.77096657287028" lon="-2.012647255751962"><ele>41.0</ele><time>2026-03-24T10:52:18.998Z</time></trkpt><trkpt lat="47.77103224505053" lon="-2.012505767669091"><ele>41.0</ele><time>2026-03-24T10:52:20Z</time></trkpt><trkpt lat="47.77109416400692" lon="-2.0123643377319302"><ele>41.0</ele><time>2026-03-24T10:52:21Z</time></trkpt><trkpt lat="47.77117005018" lon="-2.012202529538817"><ele>41.0</ele><time>2026-03-24T10:52:22Z</time></trkpt><trkpt lat="47.77123620537276" lon="-2.012062491900975"><ele>41.0</ele><time>2026-03-24T10:52:23Z</time></trkpt><trkpt lat="47.77131411545252" lon="-2.011885559235349"><ele>41.0</ele><time>2026-03-24T10:52:24Z</time></trkpt><trkpt lat="47.771391635155084" lon="-2.0117134629074713"><ele>41.0</ele><time>2026-03-24T10:52:25Z</time></trkpt><trkpt lat="47.7714751238861" lon="-2.0115280534240374"><ele>40.75</ele><time>2026-03-24T10:52:26Z</time></trkpt><trkpt lat="47.771551889199586" lon="-2.0113517840322737"><ele>40.5</ele><time>2026-03-24T10:52:27Z</time></trkpt><trkpt lat="47.771615637016794" lon="-2.011212771743114"><ele>40.25</ele><time>2026-03-24T10:52:28Z</time></trkpt><trkpt lat="47.771657209465225" lon="-2.0110756095508133"><ele>40.0</ele><time>2026-03-24T10:52:29Z</time></trkpt><trkpt lat="47.77171074435036" lon="-2.010955217006312"><ele>40.0</ele><time>2026-03-24T10:52:30Z</time></trkpt><trkpt lat="47.771753820693064" lon="-2.0108554910301426"><ele>40.0</ele><time>2026-03-24T10:52:31Z</time></trkpt><trkpt lat="47.77180919018888" lon="-2.0107554965729926"><ele>40.0</ele><time>2026-03-24T10:52:32Z</time></trkpt><trkpt lat="47.77188056218711" lon="-2.0105955809704303"><ele>40.0</ele><time>2026-03-24T10:52:34Z</time></trkpt><trkpt lat="47.77193328806433" lon="-2.0105123699654177"><ele>40.0</ele><time>2026-03-24T10:52:36Z</time></trkpt><trkpt lat="47.77199977504414" lon="-2.0104582757707625"><ele>40.0</ele><time>2026-03-24T10:52:39Z</time></trkpt><trkpt lat="47.772064289628105" lon="-2.0105570450876753"><ele>39.833333333333336</ele><time>2026-03-24T10:52:40Z</time></trkpt><trkpt lat="47.77213956916579" lon="-2.0106115943705145"><ele>39.66666666666667</ele><time>2026-03-24T10:52:41Z</time></trkpt><trkpt lat="47.77219910294515" lon="-2.0106820216707835"><ele>39.5</ele><time>2026-03-24T10:52:42Z</time></trkpt><trkpt lat="47.77227485735304" lon="-2.01076192487991"><ele>39.333333333333336</ele><time>2026-03-24T10:52:43Z</time></trkpt><trkpt lat="47.77237436433223" lon="-2.0108475898157585"><ele>39.166666666666664</ele><time>2026-03-24T10:52:44Z</time></trkpt><trkpt lat="47.77244263831051" lon="-2.0109131254157484"><ele>39.0</ele><time>2026-03-24T10:52:45Z</time></trkpt><trkpt lat="47.77252047037632" lon="-2.0109718429725776"><ele>39.0</ele><time>2026-03-24T10:52:47Z</time></trkpt><trkpt lat="47.772572452421656" lon="-2.01075792852238"><ele>39.0</ele><time>2026-03-24T10:57:58.999Z</time></trkpt><trkpt lat="47.77257685792017" lon="-2.010651310885713"><ele>39.0</ele><time>2026-03-24T10:57:59.999Z</time></trkpt><trkpt lat="47.77257834235617" lon="-2.010512584696707"><ele>39.0</ele><time>2026-03-24T10:58:00.999Z</time></trkpt><trkpt lat="47.77258661722009" lon="-2.010390630022071"><ele>39.0</ele><time>2026-03-24T10:58:01.999Z</time></trkpt><trkpt lat="47.77259232879235" lon="-2.0102449587720774"><ele>39.0</ele><time>2026-03-24T10:58:02.999Z</time></trkpt><trkpt lat="47.7725959548248" lon="-2.0100897782334965"><ele>39.0</ele><time>2026-03-24T10:58:03.999Z</time></trkpt><trkpt lat="47.77260166939735" lon="-2.009935904187086"><ele>39.0</ele><time>2026-03-24T10:58:04.999Z</time></trkpt><trkpt lat="47.772605988955455" lon="-2.009803502456717"><ele>39.0</ele><time>2026-03-24T10:58:05.999Z</time></trkpt><trkpt lat="47.77261539718705" lon="-2.0096564625183544"><ele>39.0</ele><time>2026-03-24T10:58:06.999Z</time></trkpt><trkpt lat="47.77262634244745" lon="-2.009472616270899"><ele>39.0</ele><time>2026-03-24T10:58:07.999Z</time></trkpt><trkpt lat="47.77262143944527" lon="-2.009252045845294"><ele>39.0</ele><time>2026-03-24T10:58:08.999Z</time></trkpt><trkpt lat="47.772634868311265" lon="-2.0090477066324106"><ele>39.0</ele><time>2026-03-24T10:58:09.999Z</time></trkpt><trkpt lat="47.77264206785118" lon="-2.008832450085495"><ele>39.0</ele><time>2026-03-24T10:58:10.999Z</time></trkpt><trkpt lat="47.77265030762751" lon="-2.0086241776652307"><ele>38.75</ele><time>2026-03-24T10:58:11.999Z</time></trkpt><trkpt lat="47.7726585534281" lon="-2.008412924302359"><ele>38.5</ele><time>2026-03-24T10:58:12.999Z</time></trkpt><trkpt lat="47.77266762138036" lon="-2.00819429448827"><ele>38.25</ele><time>2026-03-24T10:58:13.999Z</time></trkpt><trkpt lat="47.77267374999082" lon="-2.007969976273184"><ele>38.0</ele><time>2026-03-24T10:58:14.999Z</time></trkpt><trkpt lat="47.772680056515405" lon="-2.0077402810114595"><ele>39.666666666666664</ele><time>2026-03-24T10:58:15.999Z</time></trkpt><trkpt lat="47.772697759241986" lon="-2.0075151884695943"><ele>41.333333333333336</ele><time>2026-03-24T10:58:16.999Z</time></trkpt><trkpt lat="47.772705395579536" lon="-2.007263996192101"><ele>43.0</ele><time>2026-03-24T10:58:17.999Z</time></trkpt><trkpt lat="47.772717015743446" lon="-2.00702494597179"><ele>43.75</ele><time>2026-03-24T10:58:18.999Z</time></trkpt><trkpt lat="47.77272465625519" lon="-2.006785116484315"><ele>44.5</ele><time>2026-03-24T10:58:19.999Z</time></trkpt><trkpt lat="47.772732851131856" lon="-2.006577283353415"><ele>45.25</ele><time>2026-03-24T10:58:20.999Z</time></trkpt><trkpt lat="47.77274090809818" lon="-2.006397781195841"><ele>46.0</ele><time>2026-03-24T10:58:21.999Z</time></trkpt><trkpt lat="47.77273717650702" lon="-2.006270215496965"><ele>46.0</ele><time>2026-03-24T10:58:22.999Z</time></trkpt><trkpt lat="47.77275862873635" lon="-2.0061612171514223"><ele>46.0</ele><time>2026-03-24T10:58:23.999Z</time></trkpt><trkpt lat="47.77276676973767" lon="-2.0060470725003197"><ele>46.0</ele><time>2026-03-24T10:58:24.999Z</time></trkpt><trkpt lat="47.77271217542264" lon="-2.0059986230383213"><ele>46.0</ele><time>2026-03-24T10:58:26.999Z</time></trkpt><trkpt lat="47.7726277932347" lon="-2.0060794774923085"><ele>46.0</ele><time>2026-03-24T10:58:27.999Z</time></trkpt><trkpt lat="47.77255529179662" lon="-2.0060473268521495"><ele>46.0</ele><time>2026-03-24T10:58:28.999Z</time></trkpt><trkpt lat="47.77246969016265" lon="-2.0060041101802337"><ele>43.75</ele><time>2026-03-24T10:58:29.998Z</time></trkpt><trkpt lat="47.77237615589586" lon="-2.005935786042052"><ele>41.5</ele><time>2026-03-24T10:58:30.998Z</time></trkpt><trkpt lat="47.77226709659835" lon="-2.0058063419805054"><ele>39.25</ele><time>2026-03-24T10:58:31.998Z</time></trkpt><trkpt lat="47.77218730817936" lon="-2.005615445086537"><ele>37.0</ele><time>2026-03-24T10:58:32.998Z</time></trkpt><trkpt lat="47.77213671578188" lon="-2.0054219318839555"><ele>37.0</ele><time>2026-03-24T10:58:33.998Z</time></trkpt><trkpt lat="47.772105857605695" lon="-2.0052197169746453"><ele>37.0</ele><time>2026-03-24T10:58:34.998Z</time></trkpt><trkpt lat="47.77209821128598" lon="-2.005021316052068"><ele>37.0</ele><time>2026-03-24T10:58:35.998Z</time></trkpt><trkpt lat="47.77209890158557" lon="-2.0048006556435185"><ele>37.0</ele><time>2026-03-24T10:58:36.998Z</time></trkpt><trkpt lat="47.77209528395025" lon="-2.004556920272651"><ele>37.0</ele><time>2026-03-24T10:58:38Z</time></trkpt><trkpt lat="47.77207592571101" lon="-2.004303337138839"><ele>37.0</ele><time>2026-03-24T10:58:39Z</time></trkpt><trkpt lat="47.77206743037749" lon="-2.0040541996803216"><ele>37.0</ele><time>2026-03-24T10:58:40Z</time></trkpt><trkpt lat="47.77205979501262" lon="-2.00376400409398"><ele>37.0</ele><time>2026-03-24T10:58:41Z</time></trkpt><trkpt lat="47.77204942618264" lon="-2.00348497208651"><ele>37.0</ele><time>2026-03-24T10:58:42Z</time></trkpt><trkpt lat="47.772032728195555" lon="-2.003206178749521"><ele>37.0</ele><time>2026-03-24T10:58:43Z</time></trkpt><trkpt lat="47.7720221694181" lon="-2.0029247057919553"><ele>36.333333333333336</ele><time>2026-03-24T10:58:44Z</time></trkpt><trkpt lat="47.77201362353317" lon="-2.002633449277768"><ele>35.666666666666664</ele><time>2026-03-24T10:58:45Z</time></trkpt><trkpt lat="47.772004356538865" lon="-2.0023823464184676"><ele>35.0</ele><time>2026-03-24T10:58:46Z</time></trkpt><trkpt lat="47.77200115849294" lon="-2.0021470188369044"><ele>34.75</ele><time>2026-03-24T10:58:47Z</time></trkpt><trkpt lat="47.77199339908251" lon="-2.0019241862908723"><ele>34.5</ele><time>2026-03-24T10:58:48Z</time></trkpt><trkpt lat="47.7719691160066" lon="-2.001719679405175"><ele>34.25</ele><time>2026-03-24T10:58:49Z</time></trkpt><trkpt lat="47.77195742050747" lon="-2.0015054488940764"><ele>34.0</ele><time>2026-03-24T10:58:50Z</time></trkpt><trkpt lat="47.771940587613955" lon="-2.001283561445378"><ele>34.0</ele><time>2026-03-24T10:58:51Z</time></trkpt><trkpt lat="47.771968712520525" lon="-2.0010359149196706"><ele>34.0</ele><time>2026-03-24T10:58:52Z</time></trkpt><trkpt lat="47.7719615035263" lon="-2.0007806097619025"><ele>34.0</ele><time>2026-03-24T10:58:53Z</time></trkpt><trkpt lat="47.77197796975244" lon="-2.0005368941270936"><ele>33.66666666666667</ele><time>2026-03-24T10:58:54Z</time></trkpt><trkpt lat="47.77198470146397" lon="-2.0002807530416282"><ele>33.333333333333336</ele><time>2026-03-24T10:58:55Z</time></trkpt><trkpt lat="47.771975903760655" lon="-2.000011698257769"><ele>33.0</ele><time>2026-03-24T10:58:56Z</time></trkpt><trkpt lat="47.77199216431162" lon="-1.999734914646243"><ele>33.0</ele><time>2026-03-24T10:58:57Z</time></trkpt><trkpt lat="47.77199456889819" lon="-1.9994542485752993"><ele>33.0</ele><time>2026-03-24T10:58:58Z</time></trkpt><trkpt lat="47.77199636569211" lon="-1.9991677101653802"><ele>33.0</ele><time>2026-03-24T10:58:59Z</time></trkpt><trkpt lat="47.771997900113206" lon="-1.9988734371647392"><ele>32.0</ele><time>2026-03-24T10:59:00Z</time></trkpt><trkpt lat="47.77199789413739" lon="-1.9985693073732684"><ele>31.0</ele><time>2026-03-24T10:59:01Z</time></trkpt><trkpt lat="47.77199508043579" lon="-1.998267006086256"><ele>30.0</ele><time>2026-03-24T10:59:02Z</time></trkpt><trkpt lat="47.77200191785137" lon="-1.9979699149671724"><ele>29.666666666666664</ele><time>2026-03-24T10:59:03Z</time></trkpt><trkpt lat="47.77200206223973" lon="-1.9976599067553857"><ele>29.333333333333332</ele><time>2026-03-24T10:59:04Z</time></trkpt><trkpt lat="47.77199900013022" lon="-1.9973737357431611"><ele>29.0</ele><time>2026-03-24T10:59:05Z</time></trkpt><trkpt lat="47.77198561388098" lon="-1.9971261896087362"><ele>29.0</ele><time>2026-03-24T10:59:06Z</time></trkpt><trkpt lat="47.771989937141484" lon="-1.996917225718109"><ele>29.0</ele><time>2026-03-24T10:59:07Z</time></trkpt><trkpt lat="47.77198228004294" lon="-1.9967174052428491"><ele>29.0</ele><time>2026-03-24T10:59:08Z</time></trkpt><trkpt lat="47.77198965167941" lon="-1.996525062672608"><ele>29.0</ele><time>2026-03-24T10:59:09Z</time></trkpt><trkpt lat="47.77198989425554" lon="-1.9963448484094752"><ele>28.6</ele><time>2026-03-24T10:59:10Z</time></trkpt><trkpt lat="47.77196087977987" lon="-1.996172847400202"><ele>28.2</ele><time>2026-03-24T10:59:11Z</time></trkpt><trkpt lat="47.77192039067962" lon="-1.9960378777780603"><ele>27.800000000000004</ele><time>2026-03-24T10:59:12Z</time></trkpt><trkpt lat="47.771874802370085" lon="-1.9959059734591258"><ele>27.400000000000002</ele><time>2026-03-24T10:59:13Z</time></trkpt><trkpt lat="47.771805623958244" lon="-1.9957724284005132"><ele>27.0</ele><time>2026-03-24T10:59:14Z</time></trkpt><trkpt lat="47.77172125200632" lon="-1.9956364250294614"><ele>27.0</ele><time>2026-03-24T10:59:15Z</time></trkpt><trkpt lat="47.7716261632529" lon="-1.99548518072036"><ele>27.0</ele><time>2026-03-24T10:59:16Z</time></trkpt><trkpt lat="47.771521672339965" lon="-1.995322899936699"><ele>27.0</ele><time>2026-03-24T10:59:16.999Z</time></trkpt><trkpt lat="47.771434078772444" lon="-1.9951867426905312"><ele>27.0</ele><time>2026-03-24T10:59:17.999Z</time></trkpt><trkpt lat="47.77135052038531" lon="-1.9950235383989987"><ele>27.0</ele><time>2026-03-24T10:59:18.999Z</time></trkpt><trkpt lat="47.771260542899014" lon="-1.9949183819686755"><ele>27.000000000000004</ele><time>2026-03-24T10:59:19.999Z</time></trkpt><trkpt lat="47.771200369261976" lon="-1.9948228442689766"><ele>27.000000000000004</ele><time>2026-03-24T10:59:20.999Z</time></trkpt><trkpt lat="47.77116180388279" lon="-1.9947250344826113"><ele>27.0</ele><time>2026-03-24T10:59:21.999Z</time></trkpt><trkpt lat="47.77110971605853" lon="-1.9946697539722549"><ele>27.0</ele><time>2026-03-24T10:59:22.999Z</time></trkpt><trkpt lat="47.77131814609242" lon="-1.9945027387854863"><ele>27.0</ele><time>2026-03-24T10:59:27.999Z</time></trkpt><trkpt lat="47.77173084356086" lon="-1.9942878055448587"><ele>27.0</ele><time>2026-03-24T10:59:28.999Z</time></trkpt><trkpt lat="47.77182781830918" lon="-1.9942246597732705"><ele>26.75</ele><time>2026-03-24T10:59:29.999Z</time></trkpt><trkpt lat="47.77190150214763" lon="-1.9941534794615443"><ele>26.5</ele><time>2026-03-24T10:59:30.999Z</time></trkpt><trkpt lat="47.77199441558578" lon="-1.994071504276656"><ele>26.25</ele><time>2026-03-24T10:59:31.999Z</time></trkpt><trkpt lat="47.77209898486147" lon="-1.993979575837628"><ele>26.0</ele><time>2026-03-24T10:59:32.999Z</time></trkpt><trkpt lat="47.77222572913443" lon="-1.993873588215202"><ele>26.0</ele><time>2026-03-24T10:59:33.999Z</time></trkpt><trkpt lat="47.772337529764464" lon="-1.9937925404922499"><ele>26.0</ele><time>2026-03-24T10:59:34.999Z</time></trkpt><trkpt lat="47.77243919346358" lon="-1.9936958098448285"><ele>26.0</ele><time>2026-03-24T10:59:35.999Z</time></trkpt><trkpt lat="47.7725414399274" lon="-1.9935889398220101"><ele>26.0</ele><time>2026-03-24T10:59:36.999Z</time></trkpt><trkpt lat="47.77262536268086" lon="-1.9934905669977034"><ele>26.200000000000003</ele><time>2026-03-24T10:59:37.999Z</time></trkpt><trkpt lat="47.77269119503027" lon="-1.993384576396294"><ele>26.400000000000002</ele><time>2026-03-24T10:59:38.999Z</time></trkpt><trkpt lat="47.772760216136184" lon="-1.9933069869521376"><ele>26.6</ele><time>2026-03-24T10:59:39.999Z</time></trkpt><trkpt lat="47.77282573025404" lon="-1.9931872406421456"><ele>26.8</ele><time>2026-03-24T10:59:40.999Z</time></trkpt><trkpt lat="47.772827448434676" lon="-1.993001609970718"><ele>27.0</ele><time>2026-03-24T10:59:41.999Z</time></trkpt><trkpt lat="47.77284120233444" lon="-1.9928304385310025"><ele>27.0</ele><time>2026-03-24T10:59:42.999Z</time></trkpt><trkpt lat="47.772874745627" lon="-1.9926458370829712"><ele>27.0</ele><time>2026-03-24T10:59:43.999Z</time></trkpt><trkpt lat="47.7729194526277" lon="-1.992471660719446"><ele>27.0</ele><time>2026-03-24T10:59:44.999Z</time></trkpt><trkpt lat="47.77295218397917" lon="-1.9922794634616774"><ele>27.0</ele><time>2026-03-24T10:59:45.999Z</time></trkpt><trkpt lat="47.773002119420454" lon="-1.9920651632172572"><ele>27.25</ele><time>2026-03-24T10:59:46.999Z</time></trkpt><trkpt lat="47.77304681957301" lon="-1.9918848145153119"><ele>27.5</ele><time>2026-03-24T10:59:47.999Z</time></trkpt><trkpt lat="47.77308432194462" lon="-1.9916834468096132"><ele>27.75</ele><time>2026-03-24T10:59:48.999Z</time></trkpt><trkpt lat="47.773125616566986" lon="-1.9914713025258846"><ele>28.0</ele><time>2026-03-24T10:59:49.999Z</time></trkpt><trkpt lat="47.77313816896502" lon="-1.991254914330261"><ele>28.0</ele><time>2026-03-24T10:59:50.999Z</time></trkpt><trkpt lat="47.77316259898222" lon="-1.9910918631119516"><ele>27.999999999999996</ele><time>2026-03-24T10:59:51.999Z</time></trkpt><trkpt lat="47.77319324026827" lon="-1.9909577412679897"><ele>27.999999999999996</ele><time>2026-03-24T10:59:52.999Z</time></trkpt><trkpt lat="47.773228351366825" lon="-1.9908334740734692"><ele>28.0</ele><time>2026-03-24T10:59:53.999Z</time></trkpt><trkpt lat="47.77324835965299" lon="-1.9907114311306762"><ele>28.0</ele><time>2026-03-24T10:59:54.999Z</time></trkpt><trkpt lat="47.77326892288017" lon="-1.9905738459583926"><ele>27.5</ele><time>2026-03-24T10:59:55.999Z</time></trkpt><trkpt lat="47.7733049948332" lon="-1.9904303779404153"><ele>27.0</ele><time>2026-03-24T10:59:56.999Z</time></trkpt><trkpt lat="47.77334078947319" lon="-1.9902432650905038"><ele>26.5</ele><time>2026-03-24T10:59:57.999Z</time></trkpt><trkpt lat="47.773375617340555" lon="-1.9900731672931813"><ele>26.0</ele><time>2026-03-24T10:59:58.999Z</time></trkpt><trkpt lat="47.77341581350955" lon="-1.9898892039302039"><ele>25.75</ele><time>2026-03-24T10:59:59.999Z</time></trkpt><trkpt lat="47.773462224762206" lon="-1.9896856194598873"><ele>25.5</ele><time>2026-03-24T11:00:00.999Z</time></trkpt><trkpt lat="47.7735021122989" lon="-1.9894692713867212"><ele>25.25</ele><time>2026-03-24T11:00:01.999Z</time></trkpt><trkpt lat="47.77353684792811" lon="-1.9892850189765185"><ele>25.0</ele><time>2026-03-24T11:00:02.999Z</time></trkpt><trkpt lat="47.77357950460989" lon="-1.9890859609669906"><ele>26.666666666666668</ele><time>2026-03-24T11:00:03.999Z</time></trkpt><trkpt lat="47.77362394087783" lon="-1.9888674307297862"><ele>28.333333333333336</ele><time>2026-03-24T11:00:04.999Z</time></trkpt><trkpt lat="47.77366906916535" lon="-1.9886369928354433"><ele>30.0</ele><time>2026-03-24T11:00:05.999Z</time></trkpt><trkpt lat="47.773710739319974" lon="-1.988433242457267"><ele>29.5</ele><time>2026-03-24T11:00:06.999Z</time></trkpt><trkpt lat="47.773751718939636" lon="-1.9882241836052932"><ele>29.0</ele><time>2026-03-24T11:00:07.999Z</time></trkpt><trkpt lat="47.77378185314274" lon="-1.9880318477227161"><ele>28.5</ele><time>2026-03-24T11:00:08.999Z</time></trkpt><trkpt lat="47.773810108965534" lon="-1.9878573663650505"><ele>28.0</ele><time>2026-03-24T11:00:09.999Z</time></trkpt><trkpt lat="47.77384275721692" lon="-1.9877064282482313"><ele>28.0</ele><time>2026-03-24T11:00:10.999Z</time></trkpt><trkpt lat="47.77388087372796" lon="-1.987574099747085"><ele>27.999999999999996</ele><time>2026-03-24T11:00:11.999Z</time></trkpt><trkpt lat="47.77391572617819" lon="-1.987421473832503"><ele>27.999999999999996</ele><time>2026-03-24T11:00:12.999Z</time></trkpt><trkpt lat="47.77394644548459" lon="-1.9872595542913982"><ele>28.0</ele><time>2026-03-24T11:00:13.999Z</time></trkpt><trkpt lat="47.77397814903441" lon="-1.9870968772231576"><ele>28.0</ele><time>2026-03-24T11:00:14.999Z</time></trkpt><trkpt lat="47.77401646863349" lon="-1.9869394032122896"><ele>27.5</ele><time>2026-03-24T11:00:15.999Z</time></trkpt><trkpt lat="47.77405442632124" lon="-1.9867663207432782"><ele>27.0</ele><time>2026-03-24T11:00:16.999Z</time></trkpt><trkpt lat="47.774092437475055" lon="-1.986572192548962"><ele>26.5</ele><time>2026-03-24T11:00:17.999Z</time></trkpt><trkpt lat="47.7741337968085" lon="-1.9863615270127575"><ele>26.0</ele><time>2026-03-24T11:00:18.999Z</time></trkpt><trkpt lat="47.77418031333159" lon="-1.986141717556542"><ele>26.0</ele><time>2026-03-24T11:00:19.999Z</time></trkpt><trkpt lat="47.774216263560405" lon="-1.9859171797627868"><ele>26.0</ele><time>2026-03-24T11:00:20.999Z</time></trkpt><trkpt lat="47.774257265389885" lon="-1.9857126906127494"><ele>26.0</ele><time>2026-03-24T11:00:21.999Z</time></trkpt><trkpt lat="47.7743088225717" lon="-1.9855511536011132"><ele>26.0</ele><time>2026-03-24T11:00:22.999Z</time></trkpt><trkpt lat="47.77434693018657" lon="-1.9853875050304448"><ele>26.75</ele><time>2026-03-24T11:00:23.999Z</time></trkpt><trkpt lat="47.77439259122905" lon="-1.9852090661662554"><ele>27.5</ele><time>2026-03-24T11:00:24.998Z</time></trkpt><trkpt lat="47.774435771045276" lon="-1.9850268654226046"><ele>28.25</ele><time>2026-03-24T11:00:25.998Z</time></trkpt><trkpt lat="47.77446735764946" lon="-1.9848202796732861"><ele>29.0</ele><time>2026-03-24T11:00:26.998Z</time></trkpt><trkpt lat="47.774499887528336" lon="-1.984603781647802"><ele>29.333333333333332</ele><time>2026-03-24T11:00:27.998Z</time></trkpt><trkpt lat="47.77454519914384" lon="-1.9843841688051584"><ele>29.666666666666664</ele><time>2026-03-24T11:00:28.998Z</time></trkpt><trkpt lat="47.7745933546298" lon="-1.984153913500295"><ele>30.0</ele><time>2026-03-24T11:00:29.998Z</time></trkpt><trkpt lat="47.77464554405915" lon="-1.9839142263026412"><ele>29.333333333333336</ele><time>2026-03-24T11:00:30.998Z</time></trkpt><trkpt lat="47.77469730657619" lon="-1.983673301906039"><ele>28.666666666666668</ele><time>2026-03-24T11:00:31.998Z</time></trkpt><trkpt lat="47.774755782315545" lon="-1.9834171054428946"><ele>28.0</ele><time>2026-03-24T11:00:32.998Z</time></trkpt><trkpt lat="47.7748007365262" lon="-1.983194910115474"><ele>28.0</ele><time>2026-03-24T11:00:33.998Z</time></trkpt><trkpt lat="47.774835330601576" lon="-1.9830196011665187"><ele>28.0</ele><time>2026-03-24T11:00:34.998Z</time></trkpt><trkpt lat="47.77487951105758" lon="-1.9828258739336748"><ele>28.0</ele><time>2026-03-24T11:00:35.998Z</time></trkpt><trkpt lat="47.77492487922737" lon="-1.9826325341054467"><ele>28.0</ele><time>2026-03-24T11:00:36.998Z</time></trkpt><trkpt lat="47.77497523499091" lon="-1.982446284324448"><ele>28.25</ele><time>2026-03-24T11:00:37.998Z</time></trkpt><trkpt lat="47.77502892798061" lon="-1.9822666904405912"><ele>28.5</ele><time>2026-03-24T11:00:38.998Z</time></trkpt><trkpt lat="47.775095104303105" lon="-1.9821015582230441"><ele>28.75</ele><time>2026-03-24T11:00:39.998Z</time></trkpt><trkpt lat="47.77514482932325" lon="-1.9819526878901748"><ele>29.0</ele><time>2026-03-24T11:00:40.998Z</time></trkpt><trkpt lat="47.775188431683894" lon="-1.9818187850563376"><ele>29.499999999999996</ele><time>2026-03-24T11:00:41.998Z</time></trkpt><trkpt lat="47.77522400625482" lon="-1.9816910787869122"><ele>30.0</ele><time>2026-03-24T11:00:42.998Z</time></trkpt><trkpt lat="47.77525697246399" lon="-1.9815658708660122"><ele>30.5</ele><time>2026-03-24T11:00:44Z</time></trkpt><trkpt lat="47.77528472560681" lon="-1.9814666587676002"><ele>31.0</ele><time>2026-03-24T11:00:45Z</time></trkpt><trkpt lat="47.77532828287566" lon="-1.9813428971986542"><ele>31.499999999999996</ele><time>2026-03-24T11:00:46Z</time></trkpt><trkpt lat="47.77535906473548" lon="-1.981211025595744"><ele>32.0</ele><time>2026-03-24T11:00:47Z</time></trkpt><trkpt lat="47.77539826435511" lon="-1.981079071344612"><ele>32.0</ele><time>2026-03-24T11:00:48Z</time></trkpt><trkpt lat="47.775438012502924" lon="-1.9809725342661118"><ele>32.0</ele><time>2026-03-24T11:00:49Z</time></trkpt><trkpt lat="47.7754950256544" lon="-1.980885511788684"><ele>32.0</ele><time>2026-03-24T11:00:50Z</time></trkpt><trkpt lat="47.77556998239071" lon="-1.9808236281957445"><ele>32.0</ele><time>2026-03-24T11:00:51Z</time></trkpt><trkpt lat="47.775661398276" lon="-1.9807772426801697"><ele>32.0</ele><time>2026-03-24T11:00:52Z</time></trkpt><trkpt lat="47.7757644495037" lon="-1.9807311326656758"><ele>31.75</ele><time>2026-03-24T11:00:53Z</time></trkpt><trkpt lat="47.775870164009284" lon="-1.9806671129823525"><ele>31.5</ele><time>2026-03-24T11:00:54Z</time></trkpt><trkpt lat="47.77598546887373" lon="-1.9805931339145115"><ele>31.25</ele><time>2026-03-24T11:00:55Z</time></trkpt><trkpt lat="47.776115644905936" lon="-1.9805040896682282"><ele>31.0</ele><time>2026-03-24T11:00:56Z</time></trkpt><trkpt lat="47.77626048085878" lon="-1.980421783025705"><ele>31.0</ele><time>2026-03-24T11:00:57Z</time></trkpt><trkpt lat="47.77638921228315" lon="-1.980350143441629"><ele>31.0</ele><time>2026-03-24T11:00:58Z</time></trkpt><trkpt lat="47.77649881433687" lon="-1.9802786640087033"><ele>31.0</ele><time>2026-03-24T11:00:59Z</time></trkpt><trkpt lat="47.77659749176846" lon="-1.9802128685221208"><ele>31.0</ele><time>2026-03-24T11:01:00Z</time></trkpt><trkpt lat="47.77668446641199" lon="-1.98015222052837"><ele>31.0</ele><time>2026-03-24T11:01:01Z</time></trkpt><trkpt lat="47.77675823962667" lon="-1.9801113017811738"><ele>31.0</ele><time>2026-03-24T11:01:02Z</time></trkpt><trkpt lat="47.77684913482778" lon="-1.9801159474237355"><ele>31.0</ele><time>2026-03-24T11:01:04Z</time></trkpt><trkpt lat="47.77701659081124" lon="-1.9800072325963336"><ele>31.0</ele><time>2026-03-24T11:01:06Z</time></trkpt><trkpt lat="47.777074972561174" lon="-1.9800591897982764"><ele>31.0</ele><time>2026-03-24T11:01:09Z</time></trkpt><trkpt lat="47.77713190064187" lon="-1.9801071674316215"><ele>31.000000000000004</ele><time>2026-03-24T11:01:23Z</time></trkpt><trkpt lat="47.777200166906596" lon="-1.9800952198800015"><ele>31.0</ele><time>2026-03-24T11:01:23.999Z</time></trkpt><trkpt lat="47.777279232114886" lon="-1.9800754167496444"><ele>31.0</ele><time>2026-03-24T11:01:24.999Z</time></trkpt><trkpt lat="47.77736190814681" lon="-1.9800641082338046"><ele>31.0</ele><time>2026-03-24T11:01:25.999Z</time></trkpt><trkpt lat="47.77746615477365" lon="-1.98005589694132"><ele>31.000000000000004</ele><time>2026-03-24T11:01:26.999Z</time></trkpt><trkpt lat="47.77757627591601" lon="-1.980044216837955"><ele>31.0</ele><time>2026-03-24T11:01:27.999Z</time></trkpt><trkpt lat="47.77768729099231" lon="-1.9800266134618458"><ele>30.25</ele><time>2026-03-24T11:01:28.999Z</time></trkpt><trkpt lat="47.777812106993764" lon="-1.9800095818822363"><ele>29.5</ele><time>2026-03-24T11:01:29.999Z</time></trkpt><trkpt lat="47.77793615006476" lon="-1.9799925452653102"><ele>28.75</ele><time>2026-03-24T11:01:30.999Z</time></trkpt><trkpt lat="47.778077363933654" lon="-1.9799903919211705"><ele>28.0</ele><time>2026-03-24T11:01:31.999Z</time></trkpt><trkpt lat="47.77821274799801" lon="-1.9799676772914845"><ele>28.0</ele><time>2026-03-24T11:01:32.999Z</time></trkpt><trkpt lat="47.77835835488115" lon="-1.9799393736879956"><ele>28.0</ele><time>2026-03-24T11:01:33.999Z</time></trkpt><trkpt lat="47.7785025631072" lon="-1.9799137039279695"><ele>28.0</ele><time>2026-03-24T11:01:34.999Z</time></trkpt><trkpt lat="47.778629425463684" lon="-1.9798970974717582"><ele>28.0</ele><time>2026-03-24T11:01:35.999Z</time></trkpt><trkpt lat="47.77870957628727" lon="-1.9798944817005188"><ele>27.799999999999997</ele><time>2026-03-24T11:01:36.999Z</time></trkpt><trkpt lat="47.77877816748608" lon="-1.9798599471285208"><ele>27.599999999999998</ele><time>2026-03-24T11:01:37.999Z</time></trkpt><trkpt lat="47.7787947063674" lon="-1.979768027026287"><ele>27.400000000000002</ele><time>2026-03-24T11:01:38.999Z</time></trkpt><trkpt lat="47.77882507923552" lon="-1.979592310997949"><ele>27.200000000000003</ele><time>2026-03-24T11:01:40.999Z</time></trkpt><trkpt lat="47.77876966586161" lon="-1.9794042568568064"><ele>27.0</ele><time>2026-03-24T11:01:41.999Z</time></trkpt><trkpt lat="47.778736528211915" lon="-1.9792109907280964"><ele>27.0</ele><time>2026-03-24T11:01:42.999Z</time></trkpt><trkpt lat="47.77872435130142" lon="-1.9790151419065287"><ele>27.0</ele><time>2026-03-24T11:01:43.999Z</time></trkpt><trkpt lat="47.778725077759084" lon="-1.9787764220663688"><ele>27.0</ele><time>2026-03-24T11:01:44.999Z</time></trkpt><trkpt lat="47.778742345586096" lon="-1.9785382141086159"><ele>26.666666666666664</ele><time>2026-03-24T11:01:45.999Z</time></trkpt><trkpt lat="47.7787694842513" lon="-1.9783047260706743"><ele>26.333333333333332</ele><time>2026-03-24T11:01:46.999Z</time></trkpt><trkpt lat="47.778794932335714" lon="-1.978067706925867"><ele>26.0</ele><time>2026-03-24T11:01:47.999Z</time></trkpt><trkpt lat="47.77882004779179" lon="-1.9778047056654533"><ele>26.0</ele><time>2026-03-24T11:01:48.999Z</time></trkpt><trkpt lat="47.77885355674748" lon="-1.9775368307213472"><ele>26.0</ele><time>2026-03-24T11:01:49.999Z</time></trkpt><trkpt lat="47.7788749323132" lon="-1.9772713258785075"><ele>26.0</ele><time>2026-03-24T11:01:50.999Z</time></trkpt><trkpt lat="47.77889146317418" lon="-1.9770503380667077"><ele>26.25</ele><time>2026-03-24T11:01:51.999Z</time></trkpt><trkpt lat="47.77888950087083" lon="-1.9768457971653683"><ele>26.5</ele><time>2026-03-24T11:01:52.999Z</time></trkpt><trkpt lat="47.778895937685036" lon="-1.9766611517027541"><ele>26.75</ele><time>2026-03-24T11:01:53.999Z</time></trkpt><trkpt lat="47.77889329265363" lon="-1.976456231301615"><ele>27.0</ele><time>2026-03-24T11:01:54.999Z</time></trkpt><trkpt lat="47.77888120233754" lon="-1.9762387684452256"><ele>27.0</ele><time>2026-03-24T11:01:55.999Z</time></trkpt><trkpt lat="47.778877437220046" lon="-1.9760359307808646"><ele>27.000000000000004</ele><time>2026-03-24T11:01:56.999Z</time></trkpt><trkpt lat="47.77886976955867" lon="-1.975854195953673"><ele>27.000000000000004</ele><time>2026-03-24T11:01:57.999Z</time></trkpt><trkpt lat="47.778864446557556" lon="-1.9757021502155234"><ele>27.0</ele><time>2026-03-24T11:01:58.999Z</time></trkpt><trkpt lat="47.77886160966857" lon="-1.9755756818309327"><ele>27.0</ele><time>2026-03-24T11:01:59.999Z</time></trkpt><trkpt lat="47.77886779838661" lon="-1.9754691058264664"><ele>27.25</ele><time>2026-03-24T11:02:00.999Z</time></trkpt><trkpt lat="47.77903221170673" lon="-1.975296271508743"><ele>27.5</ele><time>2026-03-24T11:02:02.999Z</time></trkpt><trkpt lat="47.7791318734502" lon="-1.9752341036523156"><ele>27.75</ele><time>2026-03-24T11:02:03.999Z</time></trkpt><trkpt lat="47.779250714295195" lon="-1.9751881088378918"><ele>28.0</ele><time>2026-03-24T11:02:04.999Z</time></trkpt><trkpt lat="47.779375790553885" lon="-1.9751232078131"><ele>28.0</ele><time>2026-03-24T11:02:05.999Z</time></trkpt><trkpt lat="47.779513959443726" lon="-1.975044467704945"><ele>28.0</ele><time>2026-03-24T11:02:06.999Z</time></trkpt><trkpt lat="47.779669156882434" lon="-1.9749533107654422"><ele>28.0</ele><time>2026-03-24T11:02:07.999Z</time></trkpt><trkpt lat="47.77981077078112" lon="-1.9748737438507435"><ele>28.4</ele><time>2026-03-24T11:02:08.999Z</time></trkpt><trkpt lat="47.779928543238825" lon="-1.9748055339332224"><ele>28.799999999999997</ele><time>2026-03-24T11:02:09.999Z</time></trkpt><trkpt lat="47.78003515575598" lon="-1.97474014524247"><ele>29.2</ele><time>2026-03-24T11:02:10.999Z</time></trkpt><trkpt lat="47.78011872657763" lon="-1.9746819765796506"><ele>29.6</ele><time>2026-03-24T11:02:11.999Z</time></trkpt><trkpt lat="47.780184745580286" lon="-1.9746201175021139"><ele>30.0</ele><time>2026-03-24T11:02:12.999Z</time></trkpt><trkpt lat="47.780251728452704" lon="-1.9745900996861265"><ele>30.0</ele><time>2026-03-24T11:02:13.999Z</time></trkpt><trkpt lat="47.780368293142814" lon="-1.9746554691364635"><ele>30.0</ele><time>2026-03-24T11:02:15.999Z</time></trkpt><trkpt lat="47.78041436341572" lon="-1.9747337721315292"><ele>30.0</ele><time>2026-03-24T11:02:16.999Z</time></trkpt><trkpt lat="47.780464454919404" lon="-1.9748235020058136"><ele>30.0</ele><time>2026-03-24T11:02:17.999Z</time></trkpt><trkpt lat="47.78055033820012" lon="-1.9749078015325592"><ele>30.0</ele><time>2026-03-24T11:02:18.999Z</time></trkpt><trkpt lat="47.78065092492157" lon="-1.975044738427424"><ele>29.666666666666664</ele><time>2026-03-24T11:02:19.999Z</time></trkpt><trkpt lat="47.780759005947296" lon="-1.9751909183590943"><ele>29.333333333333332</ele><time>2026-03-24T11:02:20.999Z</time></trkpt><trkpt lat="47.78086843584577" lon="-1.9753413629883245"><ele>29.0</ele><time>2026-03-24T11:02:21.999Z</time></trkpt><trkpt lat="47.78098589406789" lon="-1.9755073223394033"><ele>29.666666666666664</ele><time>2026-03-24T11:02:22.999Z</time></trkpt><trkpt lat="47.78112105908666" lon="-1.9756936257779725"><ele>30.333333333333336</ele><time>2026-03-24T11:02:23.999Z</time></trkpt><trkpt lat="47.781235263744094" lon="-1.97587706172181"><ele>31.0</ele><time>2026-03-24T11:02:24.999Z</time></trkpt><trkpt lat="47.78134550380338" lon="-1.9760354360680545"><ele>31.0</ele><time>2026-03-24T11:02:25.999Z</time></trkpt><trkpt lat="47.78144739657261" lon="-1.9761546659525975"><ele>31.0</ele><time>2026-03-24T11:02:26.999Z</time></trkpt><trkpt lat="47.781522010479186" lon="-1.976262119899667"><ele>31.0</ele><time>2026-03-24T11:02:27.999Z</time></trkpt><trkpt lat="47.78157845055231" lon="-1.9763279816466026"><ele>31.0</ele><time>2026-03-24T11:02:28.999Z</time></trkpt><trkpt lat="47.78167000439618" lon="-1.9763542210368004"><ele>31.0</ele><time>2026-03-24T11:02:30.999Z</time></trkpt><trkpt lat="47.78176992963734" lon="-1.976161154065485"><ele>31.000000000000004</ele><time>2026-03-24T11:02:33.999Z</time></trkpt><trkpt lat="47.78179472949822" lon="-1.9760682155490694"><ele>31.0</ele><time>2026-03-24T11:02:34.999Z</time></trkpt><trkpt lat="47.78184112557447" lon="-1.9759725249936957"><ele>31.0</ele><time>2026-03-24T11:02:35.999Z</time></trkpt><trkpt lat="47.78189098275703" lon="-1.9758682329778412"><ele>31.0</ele><time>2026-03-24T11:02:36.998Z</time></trkpt><trkpt lat="47.78193704157244" lon="-1.9757124095799243"><ele>31.000000000000004</ele><time>2026-03-24T11:02:37.998Z</time></trkpt><trkpt lat="47.78198783236935" lon="-1.9755896685262537"><ele>31.0</ele><time>2026-03-24T11:02:38.998Z</time></trkpt><trkpt lat="47.78202953190755" lon="-1.9754626317729833"><ele>31.75</ele><time>2026-03-24T11:02:39.998Z</time></trkpt><trkpt lat="47.78208776556363" lon="-1.9752830616360337"><ele>32.5</ele><time>2026-03-24T11:02:40.998Z</time></trkpt><trkpt lat="47.782153255204236" lon="-1.9751269171087247"><ele>33.25</ele><time>2026-03-24T11:02:41.998Z</time></trkpt><trkpt lat="47.78221666394663" lon="-1.9749821232184879"><ele>34.0</ele><time>2026-03-24T11:02:42.998Z</time></trkpt><trkpt lat="47.782276204423475" lon="-1.9747948581814578"><ele>34.25</ele><time>2026-03-24T11:02:43.998Z</time></trkpt><trkpt lat="47.78233757017903" lon="-1.9745946955673284"><ele>34.5</ele><time>2026-03-24T11:02:44.998Z</time></trkpt><trkpt lat="47.78241030296909" lon="-1.9744057546144624"><ele>34.75</ele><time>2026-03-24T11:02:45.998Z</time></trkpt><trkpt lat="47.78248982440103" lon="-1.974217894440446"><ele>35.0</ele><time>2026-03-24T11:02:46.998Z</time></trkpt><trkpt lat="47.7825690279489" lon="-1.9740061632201615"><ele>35.0</ele><time>2026-03-24T11:02:47.998Z</time></trkpt><trkpt lat="47.782651411437314" lon="-1.9738095231728165"><ele>35.0</ele><time>2026-03-24T11:02:48.998Z</time></trkpt><trkpt lat="47.78272902393031" lon="-1.9736066503051475"><ele>35.0</ele><time>2026-03-24T11:02:50Z</time></trkpt><trkpt lat="47.78280940408491" lon="-1.973374541818549"><ele>37.0</ele><time>2026-03-24T11:02:51Z</time></trkpt><trkpt lat="47.78289069854315" lon="-1.9731600336945618"><ele>39.0</ele><time>2026-03-24T11:02:52Z</time></trkpt><trkpt lat="47.7829648228467" lon="-1.972945377189261"><ele>41.0</ele><time>2026-03-24T11:02:53Z</time></trkpt><trkpt lat="47.78303969140891" lon="-1.9727425605544249"><ele>41.0</ele><time>2026-03-24T11:02:54Z</time></trkpt><trkpt lat="47.78312071239849" lon="-1.9725234733607018"><ele>41.0</ele><time>2026-03-24T11:02:55Z</time></trkpt><trkpt lat="47.783198637661" lon="-1.9723614116889718"><ele>41.0</ele><time>2026-03-24T11:02:56Z</time></trkpt><trkpt lat="47.783262478316374" lon="-1.972188365526075"><ele>41.0</ele><time>2026-03-24T11:02:57Z</time></trkpt><trkpt lat="47.78330302560282" lon="-1.9720540272029707"><ele>41.25</ele><time>2026-03-24T11:02:58Z</time></trkpt><trkpt lat="47.78332347701859" lon="-1.971919632480322"><ele>41.5</ele><time>2026-03-24T11:02:59Z</time></trkpt><trkpt lat="47.78334072290263" lon="-1.9717384187011653"><ele>41.75</ele><time>2026-03-24T11:03:00Z</time></trkpt><trkpt lat="47.78335665045703" lon="-1.9715640551868763"><ele>42.0</ele><time>2026-03-24T11:03:01Z</time></trkpt><trkpt lat="47.78337587013907" lon="-1.971353651712643"><ele>41.0</ele><time>2026-03-24T11:03:02Z</time></trkpt><trkpt lat="47.78339692832616" lon="-1.9711231213855676"><ele>40.0</ele><time>2026-03-24T11:03:03Z</time></trkpt><trkpt lat="47.78343469106387" lon="-1.9708775908370897"><ele>39.0</ele><time>2026-03-24T11:03:04Z</time></trkpt><trkpt lat="47.78342781759964" lon="-1.9706244654538598"><ele>38.666666666666664</ele><time>2026-03-24T11:03:05Z</time></trkpt><trkpt lat="47.783447422005274" lon="-1.9703556426896427"><ele>38.33333333333333</ele><time>2026-03-24T11:03:06Z</time></trkpt><trkpt lat="47.783471623265484" lon="-1.970124350382488"><ele>38.0</ele><time>2026-03-24T11:03:07Z</time></trkpt><trkpt lat="47.78349884300526" lon="-1.9698965622696125"><ele>40.33333333333333</ele><time>2026-03-24T11:03:08Z</time></trkpt><trkpt lat="47.78353097812179" lon="-1.96963226842874"><ele>42.666666666666664</ele><time>2026-03-24T11:03:09Z</time></trkpt><trkpt lat="47.783559739370205" lon="-1.9693817653202592"><ele>45.0</ele><time>2026-03-24T11:03:10Z</time></trkpt><trkpt lat="47.78358443194566" lon="-1.9691227122650918"><ele>45.0</ele><time>2026-03-24T11:03:11Z</time></trkpt><trkpt lat="47.78360391673827" lon="-1.9688708170311358"><ele>45.0</ele><time>2026-03-24T11:03:12Z</time></trkpt><trkpt lat="47.78363553118933" lon="-1.9686295327620424"><ele>45.0</ele><time>2026-03-24T11:03:13Z</time></trkpt><trkpt lat="47.783658450194544" lon="-1.9683637297152976"><ele>44.666666666666664</ele><time>2026-03-24T11:03:14Z</time></trkpt><trkpt lat="47.78367492103532" lon="-1.96812582297401"><ele>44.33333333333333</ele><time>2026-03-24T11:03:15Z</time></trkpt><trkpt lat="47.78368841764772" lon="-1.967887938017179"><ele>44.0</ele><time>2026-03-24T11:03:16Z</time></trkpt><trkpt lat="47.78371116021701" lon="-1.9676685556590168"><ele>44.33333333333333</ele><time>2026-03-24T11:03:17Z</time></trkpt><trkpt lat="47.783732729115435" lon="-1.9674297868897945"><ele>44.666666666666664</ele><time>2026-03-24T11:03:18Z</time></trkpt><trkpt lat="47.78375506069704" lon="-1.9671912117806714"><ele>45.0</ele><time>2026-03-24T11:03:19Z</time></trkpt><trkpt lat="47.783780159977766" lon="-1.96692818715668"><ele>45.0</ele><time>2026-03-24T11:03:20Z</time></trkpt><trkpt lat="47.783806547726414" lon="-1.9667047929674957"><ele>45.0</ele><time>2026-03-24T11:03:21Z</time></trkpt><trkpt lat="47.78383882636718" lon="-1.9664696869852334"><ele>45.0</ele><time>2026-03-24T11:03:22Z</time></trkpt><trkpt lat="47.7839136185331" lon="-1.9662499774184663"><ele>44.666666666666664</ele><time>2026-03-24T11:03:23Z</time></trkpt><trkpt lat="47.78395309714457" lon="-1.9659941977996027"><ele>44.33333333333333</ele><time>2026-03-24T11:03:24Z</time></trkpt><trkpt lat="47.78399494188467" lon="-1.9657901742344723"><ele>44.0</ele><time>2026-03-24T11:03:25Z</time></trkpt><trkpt lat="47.784024959021764" lon="-1.965588056879696"><ele>43.666666666666664</ele><time>2026-03-24T11:03:26Z</time></trkpt><trkpt lat="47.78407637117246" lon="-1.9653600019995454"><ele>43.333333333333336</ele><time>2026-03-24T11:03:27Z</time></trkpt><trkpt lat="47.78413852551132" lon="-1.9651366163705943"><ele>43.0</ele><time>2026-03-24T11:03:28Z</time></trkpt><trkpt lat="47.784202474679724" lon="-1.9649178709404782"><ele>43.0</ele><time>2026-03-24T11:03:29Z</time></trkpt><trkpt lat="47.78427599866868" lon="-1.964699534418476"><ele>43.0</ele><time>2026-03-24T11:03:30Z</time></trkpt><trkpt lat="47.784345960649" lon="-1.9644622327944776"><ele>43.0</ele><time>2026-03-24T11:03:31Z</time></trkpt><trkpt lat="47.78440650877131" lon="-1.9642221424104376"><ele>44.66666666666667</ele><time>2026-03-24T11:03:32Z</time></trkpt><trkpt lat="47.7844752379946" lon="-1.9639884625289168"><ele>46.333333333333336</ele><time>2026-03-24T11:03:33Z</time></trkpt><trkpt lat="47.78454320900223" lon="-1.9637453541975598"><ele>48.0</ele><time>2026-03-24T11:03:34Z</time></trkpt><trkpt lat="47.78461415429965" lon="-1.963489970678138"><ele>47.0</ele><time>2026-03-24T11:03:35Z</time></trkpt><trkpt lat="47.78469118984137" lon="-1.9632150381858544"><ele>46.0</ele><time>2026-03-24T11:03:35.999Z</time></trkpt><trkpt lat="47.78476403204684" lon="-1.9629570500871913"><ele>45.0</ele><time>2026-03-24T11:03:36.999Z</time></trkpt><trkpt lat="47.78483862295872" lon="-1.962709135646797"><ele>45.0</ele><time>2026-03-24T11:03:37.999Z</time></trkpt><trkpt lat="47.784900798800955" lon="-1.9624825472812575"><ele>45.0</ele><time>2026-03-24T11:03:38.999Z</time></trkpt><trkpt lat="47.78495572589452" lon="-1.9622737967316641"><ele>45.0</ele><time>2026-03-24T11:03:39.999Z</time></trkpt><trkpt lat="47.78499957683239" lon="-1.9620941074598588"><ele>45.0</ele><time>2026-03-24T11:03:40.999Z</time></trkpt><trkpt lat="47.78505771045737" lon="-1.9619225259847637"><ele>45.0</ele><time>2026-03-24T11:03:41.999Z</time></trkpt><trkpt lat="47.78510029451648" lon="-1.9617650810985243"><ele>45.0</ele><time>2026-03-24T11:03:42.999Z</time></trkpt><trkpt lat="47.78514909900879" lon="-1.961582576588206"><ele>45.0</ele><time>2026-03-24T11:03:43.999Z</time></trkpt><trkpt lat="47.78519046023105" lon="-1.961411569494538"><ele>45.0</ele><time>2026-03-24T11:03:44.999Z</time></trkpt><trkpt lat="47.78523513562912" lon="-1.9612695213384936"><ele>44.833333333333336</ele><time>2026-03-24T11:03:45.999Z</time></trkpt><trkpt lat="47.785272702059466" lon="-1.9611259661276548"><ele>44.666666666666664</ele><time>2026-03-24T11:03:46.999Z</time></trkpt><trkpt lat="47.785302342545414" lon="-1.9610322040518566"><ele>44.5</ele><time>2026-03-24T11:03:47.999Z</time></trkpt><trkpt lat="47.78533092125015" lon="-1.9609263909611145"><ele>44.33333333333333</ele><time>2026-03-24T11:03:49.999Z</time></trkpt><trkpt lat="47.78530591211192" lon="-1.9608337210284423"><ele>44.166666666666664</ele><time>2026-03-24T11:03:51.999Z</time></trkpt><trkpt lat="47.78530839665983" lon="-1.9606726411224094"><ele>44.0</ele><time>2026-03-24T11:04:53.998Z</time></trkpt><trkpt lat="47.78510189656042" lon="-1.9608473714767103"><ele>44.0</ele><time>2026-03-24T11:04:54.998Z</time></trkpt><trkpt lat="47.78499006337249" lon="-1.9608888768744839"><ele>44.0</ele><time>2026-03-24T11:04:56Z</time></trkpt><trkpt lat="47.78483100062193" lon="-1.9609076217935781"><ele>44.0</ele><time>2026-03-24T11:04:57Z</time></trkpt><trkpt lat="47.78467014080679" lon="-1.9609162546599817"><ele>44.0</ele><time>2026-03-24T11:04:58Z</time></trkpt><trkpt lat="47.78455857582151" lon="-1.9609178767681865"><ele>44.0</ele><time>2026-03-24T11:04:59Z</time></trkpt><trkpt lat="47.78442347122639" lon="-1.9609189022307454"><ele>44.0</ele><time>2026-03-24T11:05:00Z</time></trkpt><trkpt lat="47.78428666651064" lon="-1.960919403474276"><ele>44.0</ele><time>2026-03-24T11:05:01Z</time></trkpt><trkpt lat="47.78415009805628" lon="-1.960920490163689"><ele>44.0</ele><time>2026-03-24T11:05:02Z</time></trkpt><trkpt lat="47.78402860446715" lon="-1.960917793840655"><ele>44.0</ele><time>2026-03-24T11:05:03Z</time></trkpt><trkpt lat="47.7839371926035" lon="-1.9609157651604483"><ele>44.0</ele><time>2026-03-24T11:05:04Z</time></trkpt><trkpt lat="47.78382577081702" lon="-1.960913292398766"><ele>44.0</ele><time>2026-03-24T11:05:05Z</time></trkpt><trkpt lat="47.7837297788726" lon="-1.960911161926714"><ele>44.0</ele><time>2026-03-24T11:05:07Z</time></trkpt><trkpt lat="47.7836545940174" lon="-1.9604569291663105"><ele>44.2</ele><time>2026-03-24T11:05:09Z</time></trkpt><trkpt lat="47.783655465603054" lon="-1.9603450791767865"><ele>44.400000000000006</ele><time>2026-03-24T11:05:10Z</time></trkpt><trkpt lat="47.783688998839764" lon="-1.960186052051359"><ele>44.6</ele><time>2026-03-24T11:05:11Z</time></trkpt><trkpt lat="47.78369957911124" lon="-1.9600065288970174"><ele>44.8</ele><time>2026-03-24T11:05:12Z</time></trkpt><trkpt lat="47.783711842492025" lon="-1.9598171809022236"><ele>45.0</ele><time>2026-03-24T11:05:13Z</time></trkpt><trkpt lat="47.78371012855946" lon="-1.9595978513406813"><ele>45.25</ele><time>2026-03-24T11:05:14Z</time></trkpt><trkpt lat="47.78371953885389" lon="-1.9593961257753216"><ele>45.5</ele><time>2026-03-24T11:05:15Z</time></trkpt><trkpt lat="47.78374208486308" lon="-1.959213319257545"><ele>45.75</ele><time>2026-03-24T11:05:16Z</time></trkpt><trkpt lat="47.78373286008281" lon="-1.9590198134555603"><ele>46.0</ele><time>2026-03-24T11:05:17Z</time></trkpt><trkpt lat="47.78373791693271" lon="-1.9588293918673612"><ele>46.199999999999996</ele><time>2026-03-24T11:05:18Z</time></trkpt><trkpt lat="47.783739481941886" lon="-1.9586797189548342"><ele>46.4</ele><time>2026-03-24T11:05:19Z</time></trkpt><trkpt lat="47.783737540585726" lon="-1.9585212862255919"><ele>46.6</ele><time>2026-03-24T11:05:20Z</time></trkpt><trkpt lat="47.7837309622176" lon="-1.9583708485556484"><ele>46.8</ele><time>2026-03-24T11:05:21Z</time></trkpt><trkpt lat="47.78370765768359" lon="-1.9582371581160518"><ele>47.0</ele><time>2026-03-24T11:05:22Z</time></trkpt><trkpt lat="47.7836718431321" lon="-1.9580851582760164"><ele>47.25</ele><time>2026-03-24T11:05:23Z</time></trkpt><trkpt lat="47.78360913010259" lon="-1.9579335534148719"><ele>47.5</ele><time>2026-03-24T11:05:24Z</time></trkpt><trkpt lat="47.78353914486296" lon="-1.957745533542247"><ele>47.75</ele><time>2026-03-24T11:05:25Z</time></trkpt><trkpt lat="47.78349110967949" lon="-1.9575786231543864"><ele>48.0</ele><time>2026-03-24T11:05:26Z</time></trkpt><trkpt lat="47.78342026191783" lon="-1.9574017095625886"><ele>47.25</ele><time>2026-03-24T11:05:27Z</time></trkpt><trkpt lat="47.783362034730374" lon="-1.9572270384010315"><ele>46.5</ele><time>2026-03-24T11:05:28Z</time></trkpt><trkpt lat="47.783289676282685" lon="-1.9570913916027481"><ele>45.75</ele><time>2026-03-24T11:05:29Z</time></trkpt><trkpt lat="47.783235372232134" lon="-1.9569553829498636"><ele>45.0</ele><time>2026-03-24T11:05:30Z</time></trkpt><trkpt lat="47.78317344602921" lon="-1.9567947755059796"><ele>45.0</ele><time>2026-03-24T11:05:31Z</time></trkpt><trkpt lat="47.78311272924355" lon="-1.956635954015058"><ele>45.0</ele><time>2026-03-24T11:05:32Z</time></trkpt><trkpt lat="47.78305699424467" lon="-1.9564639802187203"><ele>45.0</ele><time>2026-03-24T11:05:33Z</time></trkpt><trkpt lat="47.7829958142972" lon="-1.9562938178949036"><ele>45.0</ele><time>2026-03-24T11:05:34Z</time></trkpt><trkpt lat="47.78291299470772" lon="-1.9561572162486218"><ele>45.0</ele><time>2026-03-24T11:05:35Z</time></trkpt><trkpt lat="47.78281732416997" lon="-1.9560237181749611"><ele>45.0</ele><time>2026-03-24T11:05:36Z</time></trkpt><trkpt lat="47.78273667287764" lon="-1.9558783151719372"><ele>45.0</ele><time>2026-03-24T11:05:37Z</time></trkpt><trkpt lat="47.7826943768802" lon="-1.9557435602230222"><ele>45.0</ele><time>2026-03-24T11:05:38Z</time></trkpt><trkpt lat="47.782645542438125" lon="-1.9555965813705924"><ele>45.5</ele><time>2026-03-24T11:05:39Z</time></trkpt><trkpt lat="47.782603286778944" lon="-1.955432954700008"><ele>46.0</ele><time>2026-03-24T11:05:40Z</time></trkpt><trkpt lat="47.78254845763031" lon="-1.9552677681613888"><ele>46.5</ele><time>2026-03-24T11:05:41Z</time></trkpt><trkpt lat="47.78249500362501" lon="-1.9551064818493031"><ele>47.0</ele><time>2026-03-24T11:05:42Z</time></trkpt><trkpt lat="47.7824236489104" lon="-1.9549295693548843"><ele>47.0</ele><time>2026-03-24T11:05:43Z</time></trkpt><trkpt lat="47.7823336482083" lon="-1.9547843856008198"><ele>47.0</ele><time>2026-03-24T11:05:44Z</time></trkpt><trkpt lat="47.78223574246177" lon="-1.9546220623790729"><ele>47.0</ele><time>2026-03-24T11:05:45Z</time></trkpt><trkpt lat="47.782149464699245" lon="-1.9544714751421908"><ele>47.0</ele><time>2026-03-24T11:05:46Z</time></trkpt><trkpt lat="47.78209105617723" lon="-1.954340571318831"><ele>47.0</ele><time>2026-03-24T11:05:47Z</time></trkpt><trkpt lat="47.782008741040116" lon="-1.9542144537228936"><ele>47.0</ele><time>2026-03-24T11:05:48Z</time></trkpt><trkpt lat="47.78190639855137" lon="-1.9540795153338752"><ele>47.0</ele><time>2026-03-24T11:05:49Z</time></trkpt><trkpt lat="47.78180547882409" lon="-1.9539195466677328"><ele>47.0</ele><time>2026-03-24T11:05:50Z</time></trkpt><trkpt lat="47.78172619565321" lon="-1.9537581209585007"><ele>47.5</ele><time>2026-03-24T11:05:50.999Z</time></trkpt><trkpt lat="47.78164411660967" lon="-1.9536325806598638"><ele>48.0</ele><time>2026-03-24T11:05:51.999Z</time></trkpt><trkpt lat="47.78156936377918" lon="-1.9535054469319815"><ele>48.5</ele><time>2026-03-24T11:05:52.999Z</time></trkpt><trkpt lat="47.781488588325914" lon="-1.9533625881403807"><ele>49.0</ele><time>2026-03-24T11:05:53.999Z</time></trkpt><trkpt lat="47.78141568621606" lon="-1.9532352544627034"><ele>49.0</ele><time>2026-03-24T11:05:54.999Z</time></trkpt><trkpt lat="47.781346559145376" lon="-1.9531206928538218"><ele>49.0</ele><time>2026-03-24T11:05:55.999Z</time></trkpt><trkpt lat="47.78126790341964" lon="-1.953032626319188"><ele>49.0</ele><time>2026-03-24T11:05:56.999Z</time></trkpt><trkpt lat="47.781206625828986" lon="-1.9529362534669168"><ele>49.0</ele><time>2026-03-24T11:05:57.999Z</time></trkpt><trkpt lat="47.781147254154405" lon="-1.952825753909211"><ele>49.0</ele><time>2026-03-24T11:05:58.999Z</time></trkpt><trkpt lat="47.781109671986414" lon="-1.952693828271649"><ele>49.0</ele><time>2026-03-24T11:05:59.999Z</time></trkpt><trkpt lat="47.78106222871097" lon="-1.9525646135772545"><ele>49.0</ele><time>2026-03-24T11:06:00.999Z</time></trkpt><trkpt lat="47.78103050106586" lon="-1.952426125469534"><ele>49.0</ele><time>2026-03-24T11:06:01.999Z</time></trkpt><trkpt lat="47.78100767591501" lon="-1.952247739023528"><ele>49.0</ele><time>2026-03-24T11:06:02.999Z</time></trkpt><trkpt lat="47.78099343972037" lon="-1.952075428862007"><ele>49.0</ele><time>2026-03-24T11:06:03.999Z</time></trkpt><trkpt lat="47.78097689216364" lon="-1.9518805173155895"><ele>49.75</ele><time>2026-03-24T11:06:04.999Z</time></trkpt><trkpt lat="47.78096272685903" lon="-1.95166183095547"><ele>50.5</ele><time>2026-03-24T11:06:05.999Z</time></trkpt><trkpt lat="47.78093312071582" lon="-1.9514673928058537"><ele>51.25</ele><time>2026-03-24T11:06:06.999Z</time></trkpt><trkpt lat="47.780915709442745" lon="-1.951293830673949"><ele>52.0</ele><time>2026-03-24T11:06:07.999Z</time></trkpt><trkpt lat="47.78090050823936" lon="-1.9511552471936995"><ele>52.0</ele><time>2026-03-24T11:06:08.999Z</time></trkpt><trkpt lat="47.78088191954556" lon="-1.9509983673975464"><ele>52.0</ele><time>2026-03-24T11:06:10.999Z</time></trkpt><trkpt lat="47.780795214163334" lon="-1.9510022830303075"><ele>52.0</ele><time>2026-03-24T11:06:12.999Z</time></trkpt><trkpt lat="47.78072615798499" lon="-1.951038757294176"><ele>52.0</ele><time>2026-03-24T11:06:13.999Z</time></trkpt><trkpt lat="47.78063722889549" lon="-1.9510767247173653"><ele>52.0</ele><time>2026-03-24T11:06:14.999Z</time></trkpt><trkpt lat="47.78051980038187" lon="-1.9511271562017163"><ele>51.99999999999999</ele><time>2026-03-24T11:06:15.999Z</time></trkpt><trkpt lat="47.78042084839998" lon="-1.9511497822604607"><ele>52.0</ele><time>2026-03-24T11:06:16.999Z</time></trkpt><trkpt lat="47.78033694573321" lon="-1.9512182651551748"><ele>52.0</ele><time>2026-03-24T11:06:17.999Z</time></trkpt><trkpt lat="47.78025548557713" lon="-1.9512549574981537"><ele>52.0</ele><time>2026-03-24T11:06:18.999Z</time></trkpt><trkpt lat="47.780192385984925" lon="-1.9512769913848058"><ele>51.99999999999999</ele><time>2026-03-24T11:06:19.999Z</time></trkpt><trkpt lat="47.780132804970535" lon="-1.9513553399526813"><ele>52.0</ele><time>2026-03-24T11:06:21.999Z</time></trkpt><trkpt lat="47.780043278960775" lon="-1.9511404991882106"><ele>52.75</ele><time>2026-03-24T11:06:22.999Z</time></trkpt><trkpt lat="47.780017960805964" lon="-1.9510114642847889"><ele>53.5</ele><time>2026-03-24T11:06:23.999Z</time></trkpt><trkpt lat="47.78000300827098" lon="-1.9508246075724922"><ele>54.25</ele><time>2026-03-24T11:06:24.999Z</time></trkpt><trkpt lat="47.779975997174525" lon="-1.9506131040768095"><ele>55.0</ele><time>2026-03-24T11:06:25.999Z</time></trkpt><trkpt lat="47.77994461343542" lon="-1.950426670636923"><ele>55.0</ele><time>2026-03-24T11:06:26.999Z</time></trkpt><trkpt lat="47.779867290065184" lon="-1.9502555469203908"><ele>55.0</ele><time>2026-03-24T11:06:27.999Z</time></trkpt><trkpt lat="47.779801785683624" lon="-1.9500881234692193"><ele>55.0</ele><time>2026-03-24T11:06:28.999Z</time></trkpt><trkpt lat="47.77972538539536" lon="-1.9499016669713591"><ele>55.0</ele><time>2026-03-24T11:06:29.999Z</time></trkpt><trkpt lat="47.77965094641378" lon="-1.9496903005430728"><ele>54.666666666666664</ele><time>2026-03-24T11:06:30.999Z</time></trkpt><trkpt lat="47.779569824534555" lon="-1.9494916028611002"><ele>54.33333333333333</ele><time>2026-03-24T11:06:31.999Z</time></trkpt><trkpt lat="47.77948334260365" lon="-1.9492753733735848"><ele>54.0</ele><time>2026-03-24T11:06:32.999Z</time></trkpt><trkpt lat="47.77939486812456" lon="-1.949123688812597"><ele>55.25</ele><time>2026-03-24T11:06:33.999Z</time></trkpt><trkpt lat="47.779315455530764" lon="-1.9489544655050224"><ele>56.5</ele><time>2026-03-24T11:06:34.999Z</time></trkpt><trkpt lat="47.77923384125597" lon="-1.9487979421033057"><ele>57.75</ele><time>2026-03-24T11:06:35.999Z</time></trkpt><trkpt lat="47.779156728635805" lon="-1.9486790583933031"><ele>59.0</ele><time>2026-03-24T11:06:36.999Z</time></trkpt><trkpt lat="47.779072794014056" lon="-1.9486124521741837"><ele>59.0</ele><time>2026-03-24T11:06:37.999Z</time></trkpt><trkpt lat="47.778972606941686" lon="-1.9485652097695847"><ele>59.0</ele><time>2026-03-24T11:06:38.999Z</time></trkpt><trkpt lat="47.77885167462687" lon="-1.9485826818553738"><ele>59.0</ele><time>2026-03-24T11:06:39.999Z</time></trkpt><trkpt lat="47.77872638760563" lon="-1.9486001187830602"><ele>59.0</ele><time>2026-03-24T11:06:40.999Z</time></trkpt><trkpt lat="47.77859042403038" lon="-1.948626001609486"><ele>59.6</ele><time>2026-03-24T11:06:41.999Z</time></trkpt><trkpt lat="47.7784774053662" lon="-1.9486439315756274"><ele>60.2</ele><time>2026-03-24T11:06:42.999Z</time></trkpt><trkpt lat="47.77836953647879" lon="-1.9486362448334855"><ele>60.800000000000004</ele><time>2026-03-24T11:06:43.999Z</time></trkpt><trkpt lat="47.77826985258919" lon="-1.9486617637835693"><ele>61.400000000000006</ele><time>2026-03-24T11:06:44.999Z</time></trkpt><trkpt lat="47.778176812439405" lon="-1.9486733604197914"><ele>62.0</ele><time>2026-03-24T11:06:45.999Z</time></trkpt><trkpt lat="47.77809964105216" lon="-1.9487325840109933"><ele>62.0</ele><time>2026-03-24T11:06:46.999Z</time></trkpt><trkpt lat="47.77803791658611" lon="-1.9485765508691182"><ele>62.0</ele><time>2026-03-24T11:06:48.999Z</time></trkpt><trkpt lat="47.777982335666564" lon="-1.9484889298419084"><ele>62.0</ele><time>2026-03-24T11:06:49.999Z</time></trkpt><trkpt lat="47.77799847640256" lon="-1.9482405064511037"><ele>62.0</ele><time>2026-03-24T11:06:50.999Z</time></trkpt><trkpt lat="47.777988587000046" lon="-1.9480629359060273"><ele>61.5</ele><time>2026-03-24T11:06:51.999Z</time></trkpt><trkpt lat="47.77797734736881" lon="-1.9478611211027557"><ele>61.0</ele><time>2026-03-24T11:06:52.999Z</time></trkpt><trkpt lat="47.77797122834519" lon="-1.9476352473399314"><ele>60.5</ele><time>2026-03-24T11:06:53.999Z</time></trkpt><trkpt lat="47.77796351231753" lon="-1.947431278508987"><ele>60.0</ele><time>2026-03-24T11:06:54.999Z</time></trkpt><trkpt lat="47.777940550650264" lon="-1.9472492507301151"><ele>59.75</ele><time>2026-03-24T11:06:55.999Z</time></trkpt><trkpt lat="47.77792834827399" lon="-1.9470570404390908"><ele>59.5</ele><time>2026-03-24T11:06:56.999Z</time></trkpt><trkpt lat="47.77791600069155" lon="-1.9468660379554428"><ele>59.25</ele><time>2026-03-24T11:06:57.999Z</time></trkpt><trkpt lat="47.777902094087295" lon="-1.9466509191887458"><ele>59.0</ele><time>2026-03-24T11:06:58.999Z</time></trkpt><trkpt lat="47.77790051188257" lon="-1.9464146894575907"><ele>58.333333333333336</ele><time>2026-03-24T11:06:59.999Z</time></trkpt><trkpt lat="47.77787923703932" lon="-1.9461675132869414"><ele>57.66666666666667</ele><time>2026-03-24T11:07:00.999Z</time></trkpt><trkpt lat="47.777866854691865" lon="-1.9459183128010875"><ele>57.0</ele><time>2026-03-24T11:07:02Z</time></trkpt><trkpt lat="47.777850840679434" lon="-1.9456685089060577"><ele>57.0</ele><time>2026-03-24T11:07:03Z</time></trkpt><trkpt lat="47.777842701630995" lon="-1.9454573799816266"><ele>57.0</ele><time>2026-03-24T11:07:04Z</time></trkpt><trkpt lat="47.77781539901953" lon="-1.9452679268857958"><ele>57.0</ele><time>2026-03-24T11:07:05Z</time></trkpt><trkpt lat="47.77781971437502" lon="-1.945087562438641"><ele>57.0</ele><time>2026-03-24T11:07:06Z</time></trkpt><trkpt lat="47.77780590807319" lon="-1.9449167757192827"><ele>57.0</ele><time>2026-03-24T11:07:07Z</time></trkpt><trkpt lat="47.77779598823979" lon="-1.9447723582388923"><ele>57.0</ele><time>2026-03-24T11:07:08Z</time></trkpt><trkpt lat="47.777789520561704" lon="-1.9446500067473707"><ele>57.0</ele><time>2026-03-24T11:07:09Z</time></trkpt><trkpt lat="47.777784275692234" lon="-1.9445541857069384"><ele>57.0</ele><time>2026-03-24T11:07:10Z</time></trkpt><trkpt lat="47.77776627368506" lon="-1.9444191074086354"><ele>57.0</ele><time>2026-03-24T11:07:12Z</time></trkpt><trkpt lat="47.777575490503345" lon="-1.9444481947985057"><ele>57.0</ele><time>2026-03-24T11:07:15Z</time></trkpt><trkpt lat="47.777444538626554" lon="-1.9444442880161286"><ele>57.0</ele><time>2026-03-24T11:07:16Z</time></trkpt><trkpt lat="47.77732521348104" lon="-1.9444364111742947"><ele>57.0</ele><time>2026-03-24T11:07:17Z</time></trkpt><trkpt lat="47.777201584899025" lon="-1.944399167910476"><ele>57.0</ele><time>2026-03-24T11:07:18Z</time></trkpt><trkpt lat="47.77706522735278" lon="-1.9443800927335377"><ele>57.0</ele><time>2026-03-24T11:07:19Z</time></trkpt><trkpt lat="47.77693600783673" lon="-1.944338280389744"><ele>57.0</ele><time>2026-03-24T11:07:20Z</time></trkpt><trkpt lat="47.776816918350974" lon="-1.9442956364387936"><ele>57.0</ele><time>2026-03-24T11:07:21Z</time></trkpt><trkpt lat="47.776702275194026" lon="-1.9442568269883245"><ele>57.0</ele><time>2026-03-24T11:07:22Z</time></trkpt><trkpt lat="47.776581457532004" lon="-1.9442672102628502"><ele>56.66666666666667</ele><time>2026-03-24T11:07:23Z</time></trkpt><trkpt lat="47.7764387229752" lon="-1.9442661838437754"><ele>56.333333333333336</ele><time>2026-03-24T11:07:24Z</time></trkpt><trkpt lat="47.77626491929575" lon="-1.944253788904488"><ele>56.0</ele><time>2026-03-24T11:07:25Z</time></trkpt><trkpt lat="47.77608366063189" lon="-1.9442647675984839"><ele>56.66666666666667</ele><time>2026-03-24T11:07:26Z</time></trkpt><trkpt lat="47.77589049902764" lon="-1.9442578642846229"><ele>57.33333333333333</ele><time>2026-03-24T11:07:27Z</time></trkpt><trkpt lat="47.775679500473174" lon="-1.9442281004450663"><ele>58.0</ele><time>2026-03-24T11:07:28Z</time></trkpt><trkpt lat="47.775451201966874" lon="-1.944221206343738"><ele>57.0</ele><time>2026-03-24T11:07:29Z</time></trkpt><trkpt lat="47.775226064957785" lon="-1.9442098332770072"><ele>56.0</ele><time>2026-03-24T11:07:30Z</time></trkpt><trkpt lat="47.7749893098023" lon="-1.9442026244128694"><ele>57.66666666666667</ele><time>2026-03-24T11:07:31Z</time></trkpt><trkpt lat="47.77477439418781" lon="-1.9441899827254112"><ele>59.33333333333333</ele><time>2026-03-24T11:07:32Z</time></trkpt><trkpt lat="47.77459788939179" lon="-1.9441707403442536"><ele>61.0</ele><time>2026-03-24T11:07:33Z</time></trkpt><trkpt lat="47.7744579917287" lon="-1.9441637434052252"><ele>62.199999999999996</ele><time>2026-03-24T11:07:34Z</time></trkpt><trkpt lat="47.77434398641541" lon="-1.9441792239665876"><ele>63.39999999999999</ele><time>2026-03-24T11:07:35Z</time></trkpt><trkpt lat="47.77425235968345" lon="-1.9441551118125686"><ele>64.6</ele><time>2026-03-24T11:07:36Z</time></trkpt><trkpt lat="47.77418641128232" lon="-1.9441681948534795"><ele>65.8</ele><time>2026-03-24T11:07:37Z</time></trkpt><trkpt lat="47.77409731306285" lon="-1.9441619585870082"><ele>67.0</ele><time>2026-03-24T11:07:39Z</time></trkpt><trkpt lat="47.774071132747196" lon="-1.943969103297828"><ele>67.0</ele><time>2026-03-24T11:07:40Z</time></trkpt><trkpt lat="47.77405805147574" lon="-1.943848289300702"><ele>67.0</ele><time>2026-03-24T11:07:41Z</time></trkpt><trkpt lat="47.77404709687226" lon="-1.9437082251872473"><ele>67.0</ele><time>2026-03-24T11:07:42Z</time></trkpt><trkpt lat="47.774012318527134" lon="-1.9435261142383273"><ele>67.0</ele><time>2026-03-24T11:07:43Z</time></trkpt><trkpt lat="47.773978567178084" lon="-1.9433520133780116"><ele>67.0</ele><time>2026-03-24T11:07:44Z</time></trkpt><trkpt lat="47.77394733378383" lon="-1.9431655543091706"><ele>67.0</ele><time>2026-03-24T11:07:45Z</time></trkpt><trkpt lat="47.77391790132623" lon="-1.9429536262347218"><ele>67.0</ele><time>2026-03-24T11:07:46Z</time></trkpt><trkpt lat="47.77388265753007" lon="-1.9427443061817773"><ele>67.0</ele><time>2026-03-24T11:07:47Z</time></trkpt><trkpt lat="47.77384442374369" lon="-1.9425363032335479"><ele>67.0</ele><time>2026-03-24T11:07:48Z</time></trkpt><trkpt lat="47.77381387475078" lon="-1.9423322826488763"><ele>67.66666666666666</ele><time>2026-03-24T11:07:49Z</time></trkpt><trkpt lat="47.77377993567568" lon="-1.9421147887348895"><ele>68.33333333333333</ele><time>2026-03-24T11:07:49.999Z</time></trkpt><trkpt lat="47.773739136864926" lon="-1.9418620780661533"><ele>69.0</ele><time>2026-03-24T11:07:50.999Z</time></trkpt><trkpt lat="47.773695705630715" lon="-1.9416164855736366"><ele>69.0</ele><time>2026-03-24T11:07:51.999Z</time></trkpt><trkpt lat="47.773653961431904" lon="-1.9413628447220124"><ele>69.0</ele><time>2026-03-24T11:07:52.999Z</time></trkpt><trkpt lat="47.77363436444838" lon="-1.9411347487411192"><ele>69.0</ele><time>2026-03-24T11:07:53.999Z</time></trkpt><trkpt lat="47.773584129242046" lon="-1.9409109276082745"><ele>68.66666666666667</ele><time>2026-03-24T11:07:54.999Z</time></trkpt><trkpt lat="47.77354474605424" lon="-1.9406732952258405"><ele>68.33333333333334</ele><time>2026-03-24T11:07:55.999Z</time></trkpt><trkpt lat="47.77351279729269" lon="-1.9404420139758143"><ele>68.0</ele><time>2026-03-24T11:07:56.999Z</time></trkpt><trkpt lat="47.773471340919734" lon="-1.9402004904841306"><ele>70.66666666666667</ele><time>2026-03-24T11:07:57.999Z</time></trkpt><trkpt lat="47.77342937843196" lon="-1.9399543734922444"><ele>73.33333333333333</ele><time>2026-03-24T11:07:58.999Z</time></trkpt><trkpt lat="47.77339340032135" lon="-1.9397146416818158"><ele>76.0</ele><time>2026-03-24T11:07:59.999Z</time></trkpt><trkpt lat="47.77336071067325" lon="-1.9394920777564508"><ele>76.0</ele><time>2026-03-24T11:08:00.999Z</time></trkpt><trkpt lat="47.77332588502271" lon="-1.939270533033257"><ele>76.0</ele><time>2026-03-24T11:08:01.999Z</time></trkpt><trkpt lat="47.77329303594868" lon="-1.9390483926726405"><ele>76.0</ele><time>2026-03-24T11:08:02.999Z</time></trkpt><trkpt lat="47.77325423219881" lon="-1.938816382919981"><ele>77.0</ele><time>2026-03-24T11:08:03.999Z</time></trkpt><trkpt lat="47.77322832551564" lon="-1.9386087543766213"><ele>78.0</ele><time>2026-03-24T11:08:04.999Z</time></trkpt><trkpt lat="47.77320955591401" lon="-1.9384145135209367"><ele>79.0</ele><time>2026-03-24T11:08:05.999Z</time></trkpt><trkpt lat="47.77317909384253" lon="-1.938214428576216"><ele>80.0</ele><time>2026-03-24T11:08:06.999Z</time></trkpt><trkpt lat="47.77314634838262" lon="-1.9380124292119438"><ele>79.5</ele><time>2026-03-24T11:08:07.999Z</time></trkpt><trkpt lat="47.773104639678856" lon="-1.9378585444958158"><ele>79.0</ele><time>2026-03-24T11:08:08.999Z</time></trkpt><trkpt lat="47.77308848520202" lon="-1.9376764720166417"><ele>78.5</ele><time>2026-03-24T11:08:09.999Z</time></trkpt><trkpt lat="47.77304360356374" lon="-1.9374822381256847"><ele>78.0</ele><time>2026-03-24T11:08:10.999Z</time></trkpt><trkpt lat="47.773032330529645" lon="-1.9372422508660616"><ele>78.0</ele><time>2026-03-24T11:08:11.999Z</time></trkpt><trkpt lat="47.77300073377805" lon="-1.9370502305824278"><ele>78.0</ele><time>2026-03-24T11:08:12.999Z</time></trkpt><trkpt lat="47.77296495539035" lon="-1.9369045823316144"><ele>78.0</ele><time>2026-03-24T11:08:13.999Z</time></trkpt><trkpt lat="47.77292324707239" lon="-1.9367464258088751"><ele>78.0</ele><time>2026-03-24T11:08:14.999Z</time></trkpt><trkpt lat="47.772901539209045" lon="-1.936568080578164"><ele>76.25</ele><time>2026-03-24T11:08:15.999Z</time></trkpt><trkpt lat="47.77288328615245" lon="-1.9364233037832432"><ele>74.5</ele><time>2026-03-24T11:08:16.999Z</time></trkpt><trkpt lat="47.77286086324262" lon="-1.936273667303831"><ele>72.75</ele><time>2026-03-24T11:08:17.999Z</time></trkpt><trkpt lat="47.772840280417384" lon="-1.9360988006682103"><ele>71.0</ele><time>2026-03-24T11:08:18.999Z</time></trkpt><trkpt lat="47.77281614521387" lon="-1.935895846799892"><ele>70.5</ele><time>2026-03-24T11:08:19.999Z</time></trkpt><trkpt lat="47.772786235602304" lon="-1.9356977334896777"><ele>70.0</ele><time>2026-03-24T11:08:20.999Z</time></trkpt><trkpt lat="47.77275653868908" lon="-1.9355103532548459"><ele>69.5</ele><time>2026-03-24T11:08:21.999Z</time></trkpt><trkpt lat="47.772741617212155" lon="-1.9353183624841084"><ele>69.0</ele><time>2026-03-24T11:08:22.999Z</time></trkpt><trkpt lat="47.77274778803724" lon="-1.935116140704547"><ele>67.75</ele><time>2026-03-24T11:08:23.999Z</time></trkpt><trkpt lat="47.77277648082879" lon="-1.93493649235049"><ele>66.5</ele><time>2026-03-24T11:08:24.999Z</time></trkpt><trkpt lat="47.77281842388847" lon="-1.93477498898091"><ele>65.25</ele><time>2026-03-24T11:08:25.999Z</time></trkpt><trkpt lat="47.77283464111951" lon="-1.9345966748751167"><ele>64.0</ele><time>2026-03-24T11:08:26.999Z</time></trkpt><trkpt lat="47.77283754740783" lon="-1.9344272292361948"><ele>64.0</ele><time>2026-03-24T11:08:27.999Z</time></trkpt><trkpt lat="47.77281514478012" lon="-1.934262911059121"><ele>64.0</ele><time>2026-03-24T11:08:28.999Z</time></trkpt><trkpt lat="47.772795035441206" lon="-1.9340938370980834"><ele>64.0</ele><time>2026-03-24T11:08:29.999Z</time></trkpt><trkpt lat="47.77276197380529" lon="-1.9339177911291463"><ele>64.0</ele><time>2026-03-24T11:08:30.999Z</time></trkpt><trkpt lat="47.77275147645579" lon="-1.9338084575870642"><ele>64.0</ele><time>2026-03-24T11:08:31.999Z</time></trkpt><trkpt lat="47.77274984056527" lon="-1.9336276420665328"><ele>63.75</ele><time>2026-03-24T11:08:33.999Z</time></trkpt><trkpt lat="47.7728598531362" lon="-1.9334747450314635"><ele>63.5</ele><time>2026-03-24T11:08:35.999Z</time></trkpt><trkpt lat="47.77297098204134" lon="-1.9334785591528263"><ele>63.25</ele><time>2026-03-24T11:08:36.999Z</time></trkpt><trkpt lat="47.77309420163042" lon="-1.9334473048426815"><ele>63.0</ele><time>2026-03-24T11:08:37.999Z</time></trkpt><trkpt lat="47.773210230568374" lon="-1.9333926979628016"><ele>63.0</ele><time>2026-03-24T11:08:38.999Z</time></trkpt><trkpt lat="47.77335630294284" lon="-1.9333240231535376"><ele>63.0</ele><time>2026-03-24T11:08:39.999Z</time></trkpt><trkpt lat="47.77351028294753" lon="-1.9332242973315648"><ele>63.0</ele><time>2026-03-24T11:08:40.999Z</time></trkpt><trkpt lat="47.77364934409401" lon="-1.933142620662044"><ele>63.0</ele><time>2026-03-24T11:08:41.999Z</time></trkpt><trkpt lat="47.77376437459484" lon="-1.933084799967754"><ele>63.0</ele><time>2026-03-24T11:08:42.999Z</time></trkpt><trkpt lat="47.77385247227494" lon="-1.9330371144273275"><ele>63.0</ele><time>2026-03-24T11:08:43.999Z</time></trkpt><trkpt lat="47.773919272678505" lon="-1.9330016051453738"><ele>63.0</ele><time>2026-03-24T11:08:44.999Z</time></trkpt><trkpt lat="47.773963833504006" lon="-1.932897682785891"><ele>63.0</ele><time>2026-03-24T11:08:46.999Z</time></trkpt><trkpt lat="47.773898614032056" lon="-1.9327590426972185"><ele>63.0</ele><time>2026-03-24T11:08:49.999Z</time></trkpt><trkpt lat="47.77386170591106" lon="-1.9326409779408507"><ele>63.0</ele><time>2026-03-24T11:08:51.999Z</time></trkpt><trkpt lat="47.77381981967057" lon="-1.932478218377652"><ele>63.0</ele><time>2026-03-24T11:08:54.019Z</time></trkpt><trkpt lat="47.773794421041515" lon="-1.9323467854212903"><ele>63.0</ele><time>2026-03-24T11:08:55.02Z</time></trkpt><trkpt lat="47.77381203334184" lon="-1.932192616035669"><ele>63.0</ele><time>2026-03-24T11:08:56.999Z</time></trkpt><trkpt lat="47.773888956506916" lon="-1.9321683896222563"><ele>63.166666666666664</ele><time>2026-03-24T11:08:57.999Z</time></trkpt><trkpt lat="47.773953967884445" lon="-1.9321420365364275"><ele>63.33333333333333</ele><time>2026-03-24T11:08:58.999Z</time></trkpt><trkpt lat="47.77401783819798" lon="-1.9321119117690293"><ele>63.5</ele><time>2026-03-24T11:08:59.999Z</time></trkpt><trkpt lat="47.77410228124569" lon="-1.9320813360785127"><ele>63.666666666666664</ele><time>2026-03-24T11:09:00.999Z</time></trkpt><trkpt lat="47.774197925506584" lon="-1.9320077186278486"><ele>63.83333333333333</ele><time>2026-03-24T11:09:02.998Z</time></trkpt><trkpt lat="47.77421523184266" lon="-1.9319094601279025"><ele>64.0</ele><time>2026-03-24T11:09:03.998Z</time></trkpt><trkpt lat="47.77416523817584" lon="-1.9317607604920384"><ele>64.0</ele><time>2026-03-24T11:09:04.998Z</time></trkpt><trkpt lat="47.774149451045155" lon="-1.9316248692700762"><ele>64.0</ele><time>2026-03-24T11:09:05.998Z</time></trkpt><trkpt lat="47.77414919841079" lon="-1.9314916854044448"><ele>64.0</ele><time>2026-03-24T11:09:06.998Z</time></trkpt><trkpt lat="47.774117526713646" lon="-1.931327048273475"><ele>64.0</ele><time>2026-03-24T11:09:08Z</time></trkpt><trkpt lat="47.77410254723889" lon="-1.93117215945564"><ele>64.0</ele><time>2026-03-24T11:09:09Z</time></trkpt><trkpt lat="47.7740880476463" lon="-1.9310203235166847"><ele>64.25</ele><time>2026-03-24T11:09:10Z</time></trkpt><trkpt lat="47.77407091050275" lon="-1.9308406231002362"><ele>64.5</ele><time>2026-03-24T11:09:11Z</time></trkpt><trkpt lat="47.774061345328214" lon="-1.9306345121204433"><ele>64.75</ele><time>2026-03-24T11:09:12Z</time></trkpt><trkpt lat="47.77404252638309" lon="-1.930438764221198"><ele>65.0</ele><time>2026-03-24T11:09:13Z</time></trkpt><trkpt lat="47.77402712230879" lon="-1.9302358349582251"><ele>65.0</ele><time>2026-03-24T11:09:14Z</time></trkpt><trkpt lat="47.774006516528665" lon="-1.9300373317365263"><ele>65.0</ele><time>2026-03-24T11:09:15Z</time></trkpt><trkpt lat="47.77398619211459" lon="-1.9298256439639947"><ele>65.0</ele><time>2026-03-24T11:09:16Z</time></trkpt><trkpt lat="47.77395291295025" lon="-1.9296126441852508"><ele>65.0</ele><time>2026-03-24T11:09:17Z</time></trkpt><trkpt lat="47.77394602074288" lon="-1.9293819021218233"><ele>65.5</ele><time>2026-03-24T11:09:18Z</time></trkpt><trkpt lat="47.773923740698514" lon="-1.9291556796634846"><ele>66.0</ele><time>2026-03-24T11:09:19Z</time></trkpt><trkpt lat="47.77388766413031" lon="-1.9289447857451656"><ele>66.5</ele><time>2026-03-24T11:09:20Z</time></trkpt><trkpt lat="47.77387761596256" lon="-1.928734635688712"><ele>67.0</ele><time>2026-03-24T11:09:21Z</time></trkpt><trkpt lat="47.77386095836996" lon="-1.9285271790348728"><ele>66.75</ele><time>2026-03-24T11:09:22Z</time></trkpt><trkpt lat="47.773844675668464" lon="-1.9283300603534976"><ele>66.5</ele><time>2026-03-24T11:09:23Z</time></trkpt><trkpt lat="47.773825725601995" lon="-1.9281311201151667"><ele>66.25</ele><time>2026-03-24T11:09:24Z</time></trkpt><trkpt lat="47.77380792754515" lon="-1.927927174857648"><ele>66.0</ele><time>2026-03-24T11:09:25Z</time></trkpt><trkpt lat="47.77378814662366" lon="-1.9277167436958762"><ele>66.25</ele><time>2026-03-24T11:09:26Z</time></trkpt><trkpt lat="47.77376457579268" lon="-1.9275244576790687"><ele>66.5</ele><time>2026-03-24T11:09:27Z</time></trkpt><trkpt lat="47.77374454293735" lon="-1.9273176900651636"><ele>66.75</ele><time>2026-03-24T11:09:28Z</time></trkpt><trkpt lat="47.77372199392034" lon="-1.9271251468723116"><ele>67.0</ele><time>2026-03-24T11:09:29Z</time></trkpt><trkpt lat="47.77369831235394" lon="-1.926914752554003"><ele>67.33333333333333</ele><time>2026-03-24T11:09:30Z</time></trkpt><trkpt lat="47.77367985674436" lon="-1.9266816607539095"><ele>67.66666666666667</ele><time>2026-03-24T11:09:31Z</time></trkpt><trkpt lat="47.77366170266853" lon="-1.9264537753118227"><ele>68.0</ele><time>2026-03-24T11:09:32Z</time></trkpt><trkpt lat="47.77364031067228" lon="-1.9262154559676519"><ele>68.0</ele><time>2026-03-24T11:09:33Z</time></trkpt><trkpt lat="47.77360430702208" lon="-1.9259689446199557"><ele>68.0</ele><time>2026-03-24T11:09:34Z</time></trkpt><trkpt lat="47.773587947004025" lon="-1.9257120239724848"><ele>68.0</ele><time>2026-03-24T11:09:35Z</time></trkpt><trkpt lat="47.773556104312256" lon="-1.9254485889395971"><ele>68.0</ele><time>2026-03-24T11:09:36Z</time></trkpt><trkpt lat="47.77353086043065" lon="-1.92519947527754"><ele>68.0</ele><time>2026-03-24T11:09:37Z</time></trkpt><trkpt lat="47.77350301524995" lon="-1.9249363467240563"><ele>68.0</ele><time>2026-03-24T11:09:38Z</time></trkpt><trkpt lat="47.77347513023973" lon="-1.9246745653055561"><ele>68.0</ele><time>2026-03-24T11:09:39Z</time></trkpt><trkpt lat="47.77345005169082" lon="-1.9244228223291244"><ele>68.0</ele><time>2026-03-24T11:09:40Z</time></trkpt><trkpt lat="47.7734208139193" lon="-1.9241528250035156"><ele>68.0</ele><time>2026-03-24T11:09:41Z</time></trkpt><trkpt lat="47.77339276337311" lon="-1.9239227310444345"><ele>68.33333333333334</ele><time>2026-03-24T11:09:42Z</time></trkpt><trkpt lat="47.77337449431508" lon="-1.9236902059384358"><ele>68.66666666666667</ele><time>2026-03-24T11:09:43Z</time></trkpt><trkpt lat="47.773347775600044" lon="-1.9234560822653501"><ele>69.0</ele><time>2026-03-24T11:09:44Z</time></trkpt><trkpt lat="47.77331914459638" lon="-1.9232272661395975"><ele>70.33333333333333</ele><time>2026-03-24T11:09:45Z</time></trkpt><trkpt lat="47.773311405212894" lon="-1.9229797244121796"><ele>71.66666666666666</ele><time>2026-03-24T11:09:46Z</time></trkpt><trkpt lat="47.77329082850969" lon="-1.9227453242555261"><ele>73.0</ele><time>2026-03-24T11:09:47Z</time></trkpt><trkpt lat="47.773268815590335" lon="-1.9224961360180626"><ele>73.25</ele><time>2026-03-24T11:09:48Z</time></trkpt><trkpt lat="47.77324783641505" lon="-1.922267116062319"><ele>73.5</ele><time>2026-03-24T11:09:49Z</time></trkpt><trkpt lat="47.77322503953872" lon="-1.922068672176376"><ele>73.75</ele><time>2026-03-24T11:09:50Z</time></trkpt><trkpt lat="47.77319670496642" lon="-1.9219114821187346"><ele>74.0</ele><time>2026-03-24T11:09:51Z</time></trkpt><trkpt lat="47.77317172766035" lon="-1.9217659908011375"><ele>73.8</ele><time>2026-03-24T11:09:52Z</time></trkpt><trkpt lat="47.773180450472445" lon="-1.9216441038708285"><ele>73.60000000000001</ele><time>2026-03-24T11:09:53Z</time></trkpt><trkpt lat="47.77319636405049" lon="-1.921489907306812"><ele>73.4</ele><time>2026-03-24T11:09:55Z</time></trkpt><trkpt lat="47.77335356163616" lon="-1.9214489449802434"><ele>73.2</ele><time>2026-03-24T11:10:08.999Z</time></trkpt><trkpt lat="47.77341670049368" lon="-1.9215126767378068"><ele>73.0</ele><time>2026-03-24T11:10:09.999Z</time></trkpt><trkpt lat="47.77350335514878" lon="-1.921485655809026"><ele>73.0</ele><time>2026-03-24T11:10:11.999Z</time></trkpt><trkpt lat="47.77354249095228" lon="-1.9212595635675482"><ele>73.0</ele><time>2026-03-24T11:10:13.999Z</time></trkpt><trkpt lat="47.773550328817656" lon="-1.9211368143937975"><ele>73.0</ele><time>2026-03-24T11:10:14.999Z</time></trkpt><trkpt lat="47.773538448838266" lon="-1.9209988630302977"><ele>73.0</ele><time>2026-03-24T11:10:15.999Z</time></trkpt><trkpt lat="47.77353833219088" lon="-1.920829990590159"><ele>73.0</ele><time>2026-03-24T11:10:16.999Z</time></trkpt><trkpt lat="47.77354525331951" lon="-1.920679229099512"><ele>73.25</ele><time>2026-03-24T11:10:17.999Z</time></trkpt><trkpt lat="47.77354645731103" lon="-1.9205044103504256"><ele>73.5</ele><time>2026-03-24T11:10:18.999Z</time></trkpt><trkpt lat="47.77351362854966" lon="-1.920280001199022"><ele>73.75</ele><time>2026-03-24T11:10:19.999Z</time></trkpt><trkpt lat="47.77351015713174" lon="-1.9200835739072408"><ele>74.0</ele><time>2026-03-24T11:10:20.999Z</time></trkpt><trkpt lat="47.7735142835808" lon="-1.9198823313808493"><ele>74.25</ele><time>2026-03-24T11:10:21.999Z</time></trkpt><trkpt lat="47.77352438022011" lon="-1.9196905735178296"><ele>74.5</ele><time>2026-03-24T11:10:22.999Z</time></trkpt><trkpt lat="47.77352817388353" lon="-1.9195256742461506"><ele>74.75</ele><time>2026-03-24T11:10:23.999Z</time></trkpt><trkpt lat="47.77353346023121" lon="-1.9193352804528723"><ele>75.0</ele><time>2026-03-24T11:10:24.999Z</time></trkpt><trkpt lat="47.773541190497724" lon="-1.919132675744949"><ele>75.25</ele><time>2026-03-24T11:10:25.999Z</time></trkpt><trkpt lat="47.773547804554106" lon="-1.918920887493428"><ele>75.5</ele><time>2026-03-24T11:10:26.999Z</time></trkpt><trkpt lat="47.773552582199706" lon="-1.9187133239028933"><ele>75.75</ele><time>2026-03-24T11:10:27.999Z</time></trkpt><trkpt lat="47.77356165449723" lon="-1.9184907064246457"><ele>76.0</ele><time>2026-03-24T11:10:28.999Z</time></trkpt><trkpt lat="47.773566812308985" lon="-1.9182498311724312"><ele>76.33333333333333</ele><time>2026-03-24T11:10:29.999Z</time></trkpt><trkpt lat="47.77357716980004" lon="-1.9180007999279614"><ele>76.66666666666667</ele><time>2026-03-24T11:10:30.999Z</time></trkpt><trkpt lat="47.77357926052538" lon="-1.9177560693680396"><ele>77.0</ele><time>2026-03-24T11:10:31.999Z</time></trkpt><trkpt lat="47.77357977033108" lon="-1.9175375156731795"><ele>77.0</ele><time>2026-03-24T11:10:32.999Z</time></trkpt><trkpt lat="47.773581316835575" lon="-1.9173318881902532"><ele>77.0</ele><time>2026-03-24T11:10:33.999Z</time></trkpt><trkpt lat="47.77359696337707" lon="-1.9171488483427046"><ele>77.0</ele><time>2026-03-24T11:10:34.999Z</time></trkpt><trkpt lat="47.77359826240416" lon="-1.916948028106569"><ele>77.0</ele><time>2026-03-24T11:10:35.999Z</time></trkpt><trkpt lat="47.773629946307" lon="-1.9167220888021408"><ele>77.0</ele><time>2026-03-24T11:10:36.999Z</time></trkpt><trkpt lat="47.77366340263987" lon="-1.9165082540102507"><ele>77.0</ele><time>2026-03-24T11:10:37.999Z</time></trkpt><trkpt lat="47.77368580714641" lon="-1.9162799578947833"><ele>77.0</ele><time>2026-03-24T11:10:38.999Z</time></trkpt><trkpt lat="47.77371444787797" lon="-1.9160450270745637"><ele>77.0</ele><time>2026-03-24T11:10:39.999Z</time></trkpt><trkpt lat="47.77374297429647" lon="-1.9157943425154038"><ele>77.0</ele><time>2026-03-24T11:10:40.999Z</time></trkpt><trkpt lat="47.773774329084425" lon="-1.9155388542842733"><ele>77.0</ele><time>2026-03-24T11:10:41.999Z</time></trkpt><trkpt lat="47.773806504884476" lon="-1.9152777547873887"><ele>77.0</ele><time>2026-03-24T11:10:42.999Z</time></trkpt><trkpt lat="47.7738387505553" lon="-1.9150189882242108"><ele>77.0</ele><time>2026-03-24T11:10:43.999Z</time></trkpt><trkpt lat="47.77386919843786" lon="-1.9147568871559995"><ele>77.0</ele><time>2026-03-24T11:10:44.999Z</time></trkpt><trkpt lat="47.773896379966075" lon="-1.914506688495964"><ele>77.0</ele><time>2026-03-24T11:10:45.999Z</time></trkpt><trkpt lat="47.77392832402087" lon="-1.9142768954237508"><ele>77.0</ele><time>2026-03-24T11:10:46.999Z</time></trkpt><trkpt lat="47.773937204256804" lon="-1.9140552327803935"><ele>77.0</ele><time>2026-03-24T11:10:47.999Z</time></trkpt><trkpt lat="47.77396101278826" lon="-1.9138500324880334"><ele>77.0</ele><time>2026-03-24T11:10:48.999Z</time></trkpt><trkpt lat="47.773981845349965" lon="-1.9136613998968728"><ele>77.0</ele><time>2026-03-24T11:10:49.999Z</time></trkpt><trkpt lat="47.77397339016064" lon="-1.913489928282018"><ele>77.0</ele><time>2026-03-24T11:10:50.999Z</time></trkpt><trkpt lat="47.77399798417193" lon="-1.9133572218331134"><ele>77.0</ele><time>2026-03-24T11:10:51.999Z</time></trkpt><trkpt lat="47.774014648814294" lon="-1.913252243983099"><ele>77.0</ele><time>2026-03-24T11:10:52.999Z</time></trkpt><trkpt lat="47.774025122544536" lon="-1.913154352924897"><ele>77.0</ele><time>2026-03-24T11:10:53.999Z</time></trkpt><trkpt lat="47.77403709422809" lon="-1.9130374383086102"><ele>77.0</ele><time>2026-03-24T11:10:55.999Z</time></trkpt><trkpt lat="47.77408142445552" lon="-1.9129469525068847"><ele>76.75</ele><time>2026-03-24T11:10:58.999Z</time></trkpt><trkpt lat="47.77425878812258" lon="-1.9130125341465678"><ele>76.5</ele><time>2026-03-24T11:10:59.999Z</time></trkpt><trkpt lat="47.774369772621874" lon="-1.9130505654883403"><ele>76.25</ele><time>2026-03-24T11:11:00.999Z</time></trkpt><trkpt lat="47.77447527622624" lon="-1.9130859847042954"><ele>76.0</ele><time>2026-03-24T11:11:01.999Z</time></trkpt><trkpt lat="47.77458553601906" lon="-1.9131204108045456"><ele>75.5</ele><time>2026-03-24T11:11:02.999Z</time></trkpt><trkpt lat="47.77470290880015" lon="-1.9131599799731023"><ele>75.0</ele><time>2026-03-24T11:11:03.999Z</time></trkpt><trkpt lat="47.77483827972621" lon="-1.9131993979095372"><ele>74.5</ele><time>2026-03-24T11:11:04.999Z</time></trkpt><trkpt lat="47.7749854427857" lon="-1.9132462026389496"><ele>74.0</ele><time>2026-03-24T11:11:05.999Z</time></trkpt><trkpt lat="47.77512839811877" lon="-1.9132913063182468"><ele>73.5</ele><time>2026-03-24T11:11:06.999Z</time></trkpt><trkpt lat="47.775257522273904" lon="-1.913341814447691"><ele>73.0</ele><time>2026-03-24T11:11:07.999Z</time></trkpt><trkpt lat="47.77540082789238" lon="-1.9133857941413532"><ele>72.5</ele><time>2026-03-24T11:11:08.998Z</time></trkpt><trkpt lat="47.77555415322446" lon="-1.9134330432485158"><ele>72.0</ele><time>2026-03-24T11:11:09.998Z</time></trkpt><trkpt lat="47.775719522445705" lon="-1.913499565348038"><ele>72.0</ele><time>2026-03-24T11:11:10.998Z</time></trkpt><trkpt lat="47.775893057126225" lon="-1.9135551608935089"><ele>72.0</ele><time>2026-03-24T11:11:11.998Z</time></trkpt><trkpt lat="47.776070576974185" lon="-1.9136116591807877"><ele>72.0</ele><time>2026-03-24T11:11:12.998Z</time></trkpt><trkpt lat="47.776226148365254" lon="-1.9136615688897272"><ele>71.6</ele><time>2026-03-24T11:11:14Z</time></trkpt><trkpt lat="47.77635738982139" lon="-1.9137089140277586"><ele>71.2</ele><time>2026-03-24T11:11:15Z</time></trkpt><trkpt lat="47.776447091789414" lon="-1.91376058845877"><ele>70.8</ele><time>2026-03-24T11:11:16Z</time></trkpt><trkpt lat="47.77652839366467" lon="-1.9137819915474517"><ele>70.4</ele><time>2026-03-24T11:11:17Z</time></trkpt><trkpt lat="47.77660630550927" lon="-1.9137679436391986"><ele>70.0</ele><time>2026-03-24T11:11:18Z</time></trkpt><trkpt lat="47.77670154252079" lon="-1.913797506114749"><ele>70.0</ele><time>2026-03-24T11:11:20Z</time></trkpt><trkpt lat="47.77677825610516" lon="-1.9136132176872864"><ele>70.0</ele><time>2026-03-24T11:11:22Z</time></trkpt><trkpt lat="47.77678839453077" lon="-1.9134894461098944"><ele>70.0</ele><time>2026-03-24T11:11:23Z</time></trkpt><trkpt lat="47.77680646431697" lon="-1.9133392967988154"><ele>70.0</ele><time>2026-03-24T11:11:24Z</time></trkpt><trkpt lat="47.77682966324285" lon="-1.9131670142915838"><ele>69.75</ele><time>2026-03-24T11:11:25Z</time></trkpt><trkpt lat="47.77684739032938" lon="-1.9129820733665182"><ele>69.5</ele><time>2026-03-24T11:11:26Z</time></trkpt><trkpt lat="47.77686501064472" lon="-1.9127997181094132"><ele>69.25</ele><time>2026-03-24T11:11:27Z</time></trkpt><trkpt lat="47.776889847225384" lon="-1.9125983981581527"><ele>69.0</ele><time>2026-03-24T11:11:28Z</time></trkpt><trkpt lat="47.77692211695127" lon="-1.9123764798939942"><ele>68.66666666666667</ele><time>2026-03-24T11:11:29Z</time></trkpt><trkpt lat="47.776952330934066" lon="-1.9121513055954824"><ele>68.33333333333334</ele><time>2026-03-24T11:11:30Z</time></trkpt><trkpt lat="47.77697563864831" lon="-1.9119296957900669"><ele>68.0</ele><time>2026-03-24T11:11:31Z</time></trkpt><trkpt lat="47.77700917071024" lon="-1.9116943176407837"><ele>68.0</ele><time>2026-03-24T11:11:32Z</time></trkpt><trkpt lat="47.77703239665676" lon="-1.911459631990132"><ele>68.0</ele><time>2026-03-24T11:11:33Z</time></trkpt><trkpt lat="47.777065981507114" lon="-1.9112217317244236"><ele>68.0</ele><time>2026-03-24T11:11:34Z</time></trkpt><trkpt lat="47.777102232547115" lon="-1.9109812082852773"><ele>68.0</ele><time>2026-03-24T11:11:35Z</time></trkpt><trkpt lat="47.77713424801572" lon="-1.9107132561338824"><ele>68.0</ele><time>2026-03-24T11:11:36Z</time></trkpt><trkpt lat="47.777109315583836" lon="-1.910462892393693"><ele>68.0</ele><time>2026-03-24T11:11:37Z</time></trkpt><trkpt lat="47.777104191062016" lon="-1.9101685270982667"><ele>69.0</ele><time>2026-03-24T11:11:38Z</time></trkpt><trkpt lat="47.777078254262435" lon="-1.9098778757783512"><ele>70.0</ele><time>2026-03-24T11:11:39Z</time></trkpt><trkpt lat="47.77705239318643" lon="-1.9096124229574662"><ele>71.0</ele><time>2026-03-24T11:11:40Z</time></trkpt><trkpt lat="47.77703188718723" lon="-1.9093377300016636"><ele>72.33333333333334</ele><time>2026-03-24T11:11:41Z</time></trkpt><trkpt lat="47.777019557436674" lon="-1.9090577017849653"><ele>73.66666666666667</ele><time>2026-03-24T11:11:42Z</time></trkpt><trkpt lat="47.77699931906893" lon="-1.9087576701992408"><ele>75.0</ele><time>2026-03-24T11:11:43Z</time></trkpt><trkpt lat="47.77697706275054" lon="-1.9084431453625657"><ele>75.33333333333333</ele><time>2026-03-24T11:11:44Z</time></trkpt><trkpt lat="47.77695899456924" lon="-1.9081477905352064"><ele>75.66666666666666</ele><time>2026-03-24T11:11:45Z</time></trkpt><trkpt lat="47.776941950632676" lon="-1.9078850486036696"><ele>76.0</ele><time>2026-03-24T11:11:46Z</time></trkpt><trkpt lat="47.776896687515176" lon="-1.9076512965435282"><ele>75.0</ele><time>2026-03-24T11:11:47Z</time></trkpt><trkpt lat="47.77684856796235" lon="-1.9074106493059302"><ele>74.0</ele><time>2026-03-24T11:11:48Z</time></trkpt><trkpt lat="47.776793864059776" lon="-1.9071589742912827"><ele>73.0</ele><time>2026-03-24T11:11:49Z</time></trkpt><trkpt lat="47.776754207810846" lon="-1.906888783221497"><ele>73.33333333333333</ele><time>2026-03-24T11:11:50Z</time></trkpt><trkpt lat="47.77669121732571" lon="-1.9066295416564272"><ele>73.66666666666667</ele><time>2026-03-24T11:11:51Z</time></trkpt><trkpt lat="47.77663150353474" lon="-1.9063414746328822"><ele>74.0</ele><time>2026-03-24T11:11:52Z</time></trkpt><trkpt lat="47.77657997255749" lon="-1.9060589060710966"><ele>74.33333333333334</ele><time>2026-03-24T11:11:53Z</time></trkpt><trkpt lat="47.77651357250918" lon="-1.9057635510318178"><ele>74.66666666666667</ele><time>2026-03-24T11:11:54Z</time></trkpt><trkpt lat="47.77644999421347" lon="-1.9054921529175415"><ele>75.0</ele><time>2026-03-24T11:11:55Z</time></trkpt><trkpt lat="47.776401852352315" lon="-1.905252497718276"><ele>75.0</ele><time>2026-03-24T11:11:56Z</time></trkpt><trkpt lat="47.77635583019502" lon="-1.9050332746820664"><ele>75.0</ele><time>2026-03-24T11:11:57Z</time></trkpt><trkpt lat="47.77631135897827" lon="-1.904814307378816"><ele>75.0</ele><time>2026-03-24T11:11:58Z</time></trkpt><trkpt lat="47.776275038515195" lon="-1.9046255801622587"><ele>75.0</ele><time>2026-03-24T11:11:59Z</time></trkpt><trkpt lat="47.77623877932953" lon="-1.904448214063683"><ele>75.0</ele><time>2026-03-24T11:12:00Z</time></trkpt><trkpt lat="47.77620355960018" lon="-1.9042850941037102"><ele>75.0</ele><time>2026-03-24T11:12:01Z</time></trkpt><trkpt lat="47.776175055188936" lon="-1.9041535816696173"><ele>75.0</ele><time>2026-03-24T11:12:02Z</time></trkpt><trkpt lat="47.77612663702364" lon="-1.9040628834068283"><ele>75.0</ele><time>2026-03-24T11:12:03Z</time></trkpt><trkpt lat="47.77609642089991" lon="-1.9039721671206749"><ele>75.0</ele><time>2026-03-24T11:12:05Z</time></trkpt><trkpt lat="47.77617530308336" lon="-1.9037730743272065"><ele>74.5</ele><time>2026-03-24T11:12:07Z</time></trkpt><trkpt lat="47.776231054838306" lon="-1.9036228605771908"><ele>74.0</ele><time>2026-03-24T11:12:07.999Z</time></trkpt><trkpt lat="47.77631198664833" lon="-1.9034737304245883"><ele>73.5</ele><time>2026-03-24T11:12:08.999Z</time></trkpt><trkpt lat="47.776387740822955" lon="-1.9033208102682098"><ele>73.0</ele><time>2026-03-24T11:12:09.999Z</time></trkpt><trkpt lat="47.776462690103386" lon="-1.903150691085307"><ele>73.0</ele><time>2026-03-24T11:12:10.999Z</time></trkpt><trkpt lat="47.77652378237401" lon="-1.9029870287694277"><ele>73.0</ele><time>2026-03-24T11:12:11.999Z</time></trkpt><trkpt lat="47.776576796938166" lon="-1.902867111678939"><ele>73.0</ele><time>2026-03-24T11:12:12.999Z</time></trkpt><trkpt lat="47.77659129378714" lon="-1.9027720612401613"><ele>73.0</ele><time>2026-03-24T11:12:13.999Z</time></trkpt><trkpt lat="47.776455487833736" lon="-1.9027005838735083"><ele>73.0</ele><time>2026-03-24T11:12:16.999Z</time></trkpt><trkpt lat="47.77637011209834" lon="-1.902719073564812"><ele>73.0</ele><time>2026-03-24T11:12:17.999Z</time></trkpt><trkpt lat="47.77625658430311" lon="-1.902733913263188"><ele>73.0</ele><time>2026-03-24T11:12:18.999Z</time></trkpt><trkpt lat="47.77614723725081" lon="-1.9027470859465825"><ele>73.0</ele><time>2026-03-24T11:12:19.999Z</time></trkpt><trkpt lat="47.776027214556855" lon="-1.9027615446900588"><ele>73.0</ele><time>2026-03-24T11:12:20.999Z</time></trkpt><trkpt lat="47.77589186614453" lon="-1.9027778496750056"><ele>73.25</ele><time>2026-03-24T11:12:21.999Z</time></trkpt><trkpt lat="47.775744584035984" lon="-1.9027955922750706"><ele>73.5</ele><time>2026-03-24T11:12:22.999Z</time></trkpt><trkpt lat="47.775593202445485" lon="-1.9028133606850788"><ele>73.75</ele><time>2026-03-24T11:12:23.999Z</time></trkpt><trkpt lat="47.775443885746725" lon="-1.9028306706573335"><ele>74.0</ele><time>2026-03-24T11:12:24.999Z</time></trkpt><trkpt lat="47.77530352419273" lon="-1.9028469424745271"><ele>74.66666666666667</ele><time>2026-03-24T11:12:25.999Z</time></trkpt><trkpt lat="47.77514967904807" lon="-1.9028413270873779"><ele>75.33333333333333</ele><time>2026-03-24T11:12:26.999Z</time></trkpt><trkpt lat="47.77499137133368" lon="-1.9028861114803493"><ele>76.0</ele><time>2026-03-24T11:12:27.999Z</time></trkpt><trkpt lat="47.77481948243351" lon="-1.9028840992411638"><ele>76.0</ele><time>2026-03-24T11:12:28.999Z</time></trkpt><trkpt lat="47.774642843712336" lon="-1.9029033192120444"><ele>76.0</ele><time>2026-03-24T11:12:29.999Z</time></trkpt><trkpt lat="47.77446630064558" lon="-1.9029267500234561"><ele>76.0</ele><time>2026-03-24T11:12:30.999Z</time></trkpt><trkpt lat="47.77430744708562" lon="-1.9029449614789105"><ele>77.0</ele><time>2026-03-24T11:12:31.999Z</time></trkpt><trkpt lat="47.77414405375197" lon="-1.902958450590893"><ele>78.0</ele><time>2026-03-24T11:12:32.999Z</time></trkpt><trkpt lat="47.77397322239273" lon="-1.902971429849477"><ele>79.0</ele><time>2026-03-24T11:12:33.999Z</time></trkpt><trkpt lat="47.773796732864696" lon="-1.9029661187917737"><ele>79.0</ele><time>2026-03-24T11:12:34.999Z</time></trkpt><trkpt lat="47.773611181784354" lon="-1.9029447129050052"><ele>79.0</ele><time>2026-03-24T11:12:35.999Z</time></trkpt><trkpt lat="47.77342278066434" lon="-1.9029157784104895"><ele>79.0</ele><time>2026-03-24T11:12:36.999Z</time></trkpt><trkpt lat="47.773263483668174" lon="-1.9028849443793159"><ele>80.0</ele><time>2026-03-24T11:12:37.999Z</time></trkpt><trkpt lat="47.77311124916567" lon="-1.9028626423713675"><ele>81.0</ele><time>2026-03-24T11:12:38.999Z</time></trkpt><trkpt lat="47.77297315672792" lon="-1.9028584838212652"><ele>82.0</ele><time>2026-03-24T11:12:39.999Z</time></trkpt><trkpt lat="47.772840875375934" lon="-1.9028412761939555"><ele>83.0</ele><time>2026-03-24T11:12:40.999Z</time></trkpt><trkpt lat="47.77272397894156" lon="-1.9028178622753942"><ele>82.5</ele><time>2026-03-24T11:12:41.999Z</time></trkpt><trkpt lat="47.77263927442" lon="-1.9027970527684157"><ele>82.0</ele><time>2026-03-24T11:12:42.999Z</time></trkpt><trkpt lat="47.772572480366044" lon="-1.9027773413234395"><ele>81.5</ele><time>2026-03-24T11:12:43.999Z</time></trkpt><trkpt lat="47.77256859874482" lon="-1.9024130202797693"><ele>81.0</ele><time>2026-03-24T11:12:46.999Z</time></trkpt><trkpt lat="47.77259224254768" lon="-1.902248441064542"><ele>80.66666666666667</ele><time>2026-03-24T11:12:47.999Z</time></trkpt><trkpt lat="47.77259458101896" lon="-1.9020596395463827"><ele>80.33333333333334</ele><time>2026-03-24T11:12:48.999Z</time></trkpt><trkpt lat="47.772624191963146" lon="-1.90182184582408"><ele>80.0</ele><time>2026-03-24T11:12:49.999Z</time></trkpt><trkpt lat="47.772630386902854" lon="-1.9015838350174399"><ele>80.0</ele><time>2026-03-24T11:12:50.999Z</time></trkpt><trkpt lat="47.77264247111888" lon="-1.9013438836855279"><ele>80.0</ele><time>2026-03-24T11:12:51.999Z</time></trkpt><trkpt lat="47.77265349785492" lon="-1.9010767114642864"><ele>80.0</ele><time>2026-03-24T11:12:52.999Z</time></trkpt><trkpt lat="47.772668486684104" lon="-1.9008020023347827"><ele>79.66666666666667</ele><time>2026-03-24T11:12:53.999Z</time></trkpt><trkpt lat="47.772675952723425" lon="-1.900549758507351"><ele>79.33333333333333</ele><time>2026-03-24T11:12:54.999Z</time></trkpt><trkpt lat="47.772686616582845" lon="-1.9003074513920162"><ele>79.0</ele><time>2026-03-24T11:12:55.999Z</time></trkpt><trkpt lat="47.772702578442264" lon="-1.9000447574767139"><ele>79.0</ele><time>2026-03-24T11:12:56.999Z</time></trkpt><trkpt lat="47.772724227166" lon="-1.8997822448628965"><ele>79.0</ele><time>2026-03-24T11:12:57.999Z</time></trkpt><trkpt lat="47.77273858912725" lon="-1.8995005623862187"><ele>79.0</ele><time>2026-03-24T11:12:58.999Z</time></trkpt><trkpt lat="47.77275586182963" lon="-1.8992381115920878"><ele>79.0</ele><time>2026-03-24T11:12:59.999Z</time></trkpt><trkpt lat="47.772773835468335" lon="-1.8989670298026486"><ele>79.0</ele><time>2026-03-24T11:13:00.999Z</time></trkpt><trkpt lat="47.77278189865026" lon="-1.8986937792658303"><ele>79.0</ele><time>2026-03-24T11:13:01.999Z</time></trkpt><trkpt lat="47.77279590232136" lon="-1.8984339017729337"><ele>78.66666666666666</ele><time>2026-03-24T11:13:02.999Z</time></trkpt><trkpt lat="47.77280768934728" lon="-1.8981994837127047"><ele>78.33333333333333</ele><time>2026-03-24T11:13:03.999Z</time></trkpt><trkpt lat="47.77281776918458" lon="-1.8979769865801914"><ele>78.0</ele><time>2026-03-24T11:13:04.999Z</time></trkpt><trkpt lat="47.77283059783741" lon="-1.8977240640816904"><ele>78.0</ele><time>2026-03-24T11:13:05.999Z</time></trkpt><trkpt lat="47.772845291251734" lon="-1.8974735019315905"><ele>78.0</ele><time>2026-03-24T11:13:06.999Z</time></trkpt><trkpt lat="47.77286133198606" lon="-1.897218597422465"><ele>78.0</ele><time>2026-03-24T11:13:07.999Z</time></trkpt><trkpt lat="47.77287321622245" lon="-1.8969962116820234"><ele>78.0</ele><time>2026-03-24T11:13:08.999Z</time></trkpt><trkpt lat="47.772883504716845" lon="-1.896773419351031"><ele>78.0</ele><time>2026-03-24T11:13:09.999Z</time></trkpt><trkpt lat="47.77289872546048" lon="-1.896530249471718"><ele>78.0</ele><time>2026-03-24T11:13:10.999Z</time></trkpt><trkpt lat="47.77291266397544" lon="-1.8963018852312024"><ele>78.75</ele><time>2026-03-24T11:13:11.999Z</time></trkpt><trkpt lat="47.77292093214192" lon="-1.8961060598570023"><ele>79.5</ele><time>2026-03-24T11:13:12.999Z</time></trkpt><trkpt lat="47.77293410985605" lon="-1.8959206664421782"><ele>80.25</ele><time>2026-03-24T11:13:13.999Z</time></trkpt><trkpt lat="47.77294967436091" lon="-1.8957513383048912"><ele>81.0</ele><time>2026-03-24T11:13:14.999Z</time></trkpt><trkpt lat="47.77294973582075" lon="-1.8956045009286933"><ele>81.0</ele><time>2026-03-24T11:13:15.998Z</time></trkpt><trkpt lat="47.772955103496024" lon="-1.8954955568382401"><ele>81.0</ele><time>2026-03-24T11:13:16.998Z</time></trkpt><trkpt lat="47.77296333859547" lon="-1.8953823421829425"><ele>81.0</ele><time>2026-03-24T11:13:18.998Z</time></trkpt><trkpt lat="47.773109649799395" lon="-1.8953820827830803"><ele>81.0</ele><time>2026-03-24T11:13:21Z</time></trkpt><trkpt lat="47.77318543628484" lon="-1.895361527411762"><ele>81.0</ele><time>2026-03-24T11:13:22Z</time></trkpt><trkpt lat="47.77325020126341" lon="-1.8953767192890845"><ele>81.0</ele><time>2026-03-24T11:13:24Z</time></trkpt><trkpt lat="47.77326997225952" lon="-1.8950692494080201"><ele>81.0</ele><time>2026-03-24T11:13:25Z</time></trkpt><trkpt lat="47.7732676953341" lon="-1.8949041428338562"><ele>81.0</ele><time>2026-03-24T11:13:26Z</time></trkpt><trkpt lat="47.773264351531736" lon="-1.894717426738003"><ele>81.0</ele><time>2026-03-24T11:13:27Z</time></trkpt><trkpt lat="47.77325446319765" lon="-1.8945010946665408"><ele>81.0</ele><time>2026-03-24T11:13:28Z</time></trkpt><trkpt lat="47.77324968051228" lon="-1.8942902569070705"><ele>81.0</ele><time>2026-03-24T11:13:29Z</time></trkpt><trkpt lat="47.773251820045594" lon="-1.8940811739533698"><ele>81.0</ele><time>2026-03-24T11:13:30Z</time></trkpt><trkpt lat="47.77325705620145" lon="-1.893846204616744"><ele>81.0</ele><time>2026-03-24T11:13:31Z</time></trkpt><trkpt lat="47.773262574116366" lon="-1.893580437720735"><ele>80.33333333333333</ele><time>2026-03-24T11:13:32Z</time></trkpt><trkpt lat="47.773262507176035" lon="-1.8933278881382538"><ele>79.66666666666666</ele><time>2026-03-24T11:13:33Z</time></trkpt><trkpt lat="47.77326089492908" lon="-1.8930916538777058"><ele>79.0</ele><time>2026-03-24T11:13:34Z</time></trkpt><trkpt lat="47.77326448936466" lon="-1.8928481982502732"><ele>79.0</ele><time>2026-03-24T11:13:35Z</time></trkpt><trkpt lat="47.7732684616107" lon="-1.892600786124255"><ele>79.0</ele><time>2026-03-24T11:13:36Z</time></trkpt><trkpt lat="47.77327399250627" lon="-1.8923502959860747"><ele>79.0</ele><time>2026-03-24T11:13:37Z</time></trkpt><trkpt lat="47.773275583705384" lon="-1.892098859784897"><ele>78.33333333333333</ele><time>2026-03-24T11:13:38Z</time></trkpt><trkpt lat="47.773277980031104" lon="-1.8918337765375866"><ele>77.66666666666667</ele><time>2026-03-24T11:13:39Z</time></trkpt><trkpt lat="47.773281939208445" lon="-1.8915747359788848"><ele>77.0</ele><time>2026-03-24T11:13:40Z</time></trkpt><trkpt lat="47.773281054141805" lon="-1.8913118747016264"><ele>77.0</ele><time>2026-03-24T11:13:41Z</time></trkpt><trkpt lat="47.773280173208114" lon="-1.8910402831190216"><ele>77.0</ele><time>2026-03-24T11:13:42Z</time></trkpt><trkpt lat="47.773283221293426" lon="-1.8907935450627467"><ele>77.0</ele><time>2026-03-24T11:13:43Z</time></trkpt><trkpt lat="47.7732846862743" lon="-1.8905709245010756"><ele>76.6</ele><time>2026-03-24T11:13:44Z</time></trkpt><trkpt lat="47.77327982239883" lon="-1.8903657115858798"><ele>76.2</ele><time>2026-03-24T11:13:45Z</time></trkpt><trkpt lat="47.773278074304145" lon="-1.8901885164260708"><ele>75.8</ele><time>2026-03-24T11:13:46Z</time></trkpt><trkpt lat="47.773280348258645" lon="-1.8900488442019152"><ele>75.4</ele><time>2026-03-24T11:13:47Z</time></trkpt><trkpt lat="47.77328242728265" lon="-1.8899382141221888"><ele>75.0</ele><time>2026-03-24T11:13:48Z</time></trkpt><trkpt lat="47.773286726896075" lon="-1.8898412957330322"><ele>74.8</ele><time>2026-03-24T11:13:49Z</time></trkpt><trkpt lat="47.7732883106153" lon="-1.8896726303913496"><ele>74.6</ele><time>2026-03-24T11:13:51Z</time></trkpt><trkpt lat="47.77321973673387" lon="-1.8895805600844864"><ele>74.4</ele><time>2026-03-24T11:13:54Z</time></trkpt><trkpt lat="47.77310297757024" lon="-1.8896198291669049"><ele>74.2</ele><time>2026-03-24T11:13:56Z</time></trkpt><trkpt lat="47.7730202152938" lon="-1.8896184937551095"><ele>74.0</ele><time>2026-03-24T11:13:57Z</time></trkpt><trkpt lat="47.77289369049574" lon="-1.8896171747864743"><ele>74.0</ele><time>2026-03-24T11:13:58Z</time></trkpt><trkpt lat="47.77277077806366" lon="-1.8896195184527345"><ele>74.0</ele><time>2026-03-24T11:13:59Z</time></trkpt><trkpt lat="47.77266411924689" lon="-1.8896232910430786"><ele>74.0</ele><time>2026-03-24T11:14:00Z</time></trkpt><trkpt lat="47.77254377101678" lon="-1.8896209946506561"><ele>74.0</ele><time>2026-03-24T11:14:01Z</time></trkpt><trkpt lat="47.77240393400848" lon="-1.8896251497067333"><ele>75.0</ele><time>2026-03-24T11:14:02Z</time></trkpt><trkpt lat="47.772250774091326" lon="-1.8896408880148228"><ele>76.0</ele><time>2026-03-24T11:14:03Z</time></trkpt><trkpt lat="47.772103243058226" lon="-1.8896596720782795"><ele>77.0</ele><time>2026-03-24T11:14:04Z</time></trkpt><trkpt lat="47.77196429793708" lon="-1.8896790789942852"><ele>78.0</ele><time>2026-03-24T11:14:05Z</time></trkpt><trkpt lat="47.77182185818488" lon="-1.889699227543665"><ele>79.0</ele><time>2026-03-24T11:14:06Z</time></trkpt><trkpt lat="47.77166939220734" lon="-1.8897628846443264"><ele>80.0</ele><time>2026-03-24T11:14:07Z</time></trkpt><trkpt lat="47.77150474327022" lon="-1.8898003126013607"><ele>81.0</ele><time>2026-03-24T11:14:08Z</time></trkpt><trkpt lat="47.771347054795434" lon="-1.8898555404830601"><ele>81.0</ele><time>2026-03-24T11:14:09Z</time></trkpt><trkpt lat="47.771173151288124" lon="-1.8899269451513938"><ele>81.0</ele><time>2026-03-24T11:14:09.999Z</time></trkpt><trkpt lat="47.7710095383235" lon="-1.8900496824397468"><ele>81.0</ele><time>2026-03-24T11:14:10.999Z</time></trkpt><trkpt lat="47.77085338876571" lon="-1.8901781615524753"><ele>80.75</ele><time>2026-03-24T11:14:11.999Z</time></trkpt><trkpt lat="47.77070899226477" lon="-1.8902977489521346"><ele>80.5</ele><time>2026-03-24T11:14:12.999Z</time></trkpt><trkpt lat="47.77059521644286" lon="-1.890410613003836"><ele>80.25</ele><time>2026-03-24T11:14:13.999Z</time></trkpt><trkpt lat="47.77049408825089" lon="-1.890521727735877"><ele>80.0</ele><time>2026-03-24T11:14:14.999Z</time></trkpt><trkpt lat="47.770406243559734" lon="-1.890634827314323"><ele>80.0</ele><time>2026-03-24T11:14:15.999Z</time></trkpt><trkpt lat="47.77033015890131" lon="-1.8907461723318508"><ele>80.0</ele><time>2026-03-24T11:14:16.999Z</time></trkpt><trkpt lat="47.770261318375574" lon="-1.8908543833325155"><ele>80.0</ele><time>2026-03-24T11:14:17.999Z</time></trkpt><trkpt lat="47.770205013460895" lon="-1.8909429605021613"><ele>80.0</ele><time>2026-03-24T11:14:18.999Z</time></trkpt><trkpt lat="47.77014031966327" lon="-1.8910435318759007"><ele>80.0</ele><time>2026-03-24T11:14:20.999Z</time></trkpt><trkpt lat="47.76996890995223" lon="-1.8907631040482782"><ele>80.0</ele><time>2026-03-24T11:14:23.999Z</time></trkpt><trkpt lat="47.769950250573324" lon="-1.8906124892997895"><ele>80.0</ele><time>2026-03-24T11:14:24.999Z</time></trkpt><trkpt lat="47.76992395578262" lon="-1.8904360499023998"><ele>80.0</ele><time>2026-03-24T11:14:25.999Z</time></trkpt><trkpt lat="47.76989616050732" lon="-1.8902361005456902"><ele>80.0</ele><time>2026-03-24T11:14:26.999Z</time></trkpt><trkpt lat="47.7698556302223" lon="-1.890053797548197"><ele>80.25</ele><time>2026-03-24T11:14:27.999Z</time></trkpt><trkpt lat="47.76984932749793" lon="-1.8898729411488928"><ele>80.5</ele><time>2026-03-24T11:14:28.999Z</time></trkpt><trkpt lat="47.76987458949244" lon="-1.8897001775519575"><ele>80.75</ele><time>2026-03-24T11:14:29.999Z</time></trkpt><trkpt lat="47.769891082219836" lon="-1.8895133430003153"><ele>81.0</ele><time>2026-03-24T11:14:30.999Z</time></trkpt><trkpt lat="47.769909593318715" lon="-1.8892751812182313"><ele>81.0</ele><time>2026-03-24T11:14:31.999Z</time></trkpt><trkpt lat="47.769926394423436" lon="-1.8890437154908897"><ele>81.0</ele><time>2026-03-24T11:14:32.999Z</time></trkpt><trkpt lat="47.7699440374755" lon="-1.8888430943368288"><ele>81.0</ele><time>2026-03-24T11:14:33.999Z</time></trkpt><trkpt lat="47.76995808706792" lon="-1.8886214589537498"><ele>81.0</ele><time>2026-03-24T11:14:34.999Z</time></trkpt><trkpt lat="47.769970383969586" lon="-1.8884100366024283"><ele>82.0</ele><time>2026-03-24T11:14:35.999Z</time></trkpt><trkpt lat="47.76998410750381" lon="-1.8881731984551815"><ele>83.0</ele><time>2026-03-24T11:14:36.999Z</time></trkpt><trkpt lat="47.76999654787923" lon="-1.8879310470454052"><ele>84.0</ele><time>2026-03-24T11:14:37.999Z</time></trkpt><trkpt lat="47.77001329208504" lon="-1.8876646236660137"><ele>85.0</ele><time>2026-03-24T11:14:38.999Z</time></trkpt><trkpt lat="47.77003058737749" lon="-1.887434047718835"><ele>86.0</ele><time>2026-03-24T11:14:39.999Z</time></trkpt><trkpt lat="47.770048065803394" lon="-1.8871911326749284"><ele>87.0</ele><time>2026-03-24T11:14:40.999Z</time></trkpt><trkpt lat="47.770064308112445" lon="-1.8869409514107298"><ele>87.0</ele><time>2026-03-24T11:14:41.999Z</time></trkpt><trkpt lat="47.770082731435274" lon="-1.886670970985561"><ele>87.0</ele><time>2026-03-24T11:14:42.999Z</time></trkpt><trkpt lat="47.77009742062398" lon="-1.886404145122405"><ele>87.0</ele><time>2026-03-24T11:14:43.999Z</time></trkpt><trkpt lat="47.77011343730548" lon="-1.8861648785662166"><ele>87.0</ele><time>2026-03-24T11:14:44.999Z</time></trkpt><trkpt lat="47.770135088387335" lon="-1.8859299345095446"><ele>87.0</ele><time>2026-03-24T11:14:45.999Z</time></trkpt><trkpt lat="47.77015415066031" lon="-1.8857030747442813"><ele>87.0</ele><time>2026-03-24T11:14:46.999Z</time></trkpt><trkpt lat="47.77016771315164" lon="-1.885466272960267"><ele>86.66666666666667</ele><time>2026-03-24T11:14:47.999Z</time></trkpt><trkpt lat="47.7701771332616" lon="-1.8852110973984082"><ele>86.33333333333334</ele><time>2026-03-24T11:14:48.999Z</time></trkpt><trkpt lat="47.770195741176316" lon="-1.8849537728041657"><ele>86.0</ele><time>2026-03-24T11:14:49.999Z</time></trkpt><trkpt lat="47.77021896701992" lon="-1.8846895997041837"><ele>85.0</ele><time>2026-03-24T11:14:50.999Z</time></trkpt><trkpt lat="47.77023430499321" lon="-1.884433689300146"><ele>84.0</ele><time>2026-03-24T11:14:51.999Z</time></trkpt><trkpt lat="47.770252623424355" lon="-1.8841762966211686"><ele>83.0</ele><time>2026-03-24T11:14:52.999Z</time></trkpt><trkpt lat="47.77026766422159" lon="-1.8839178644856969"><ele>82.66666666666667</ele><time>2026-03-24T11:14:53.999Z</time></trkpt><trkpt lat="47.770284885067795" lon="-1.8836466359783521"><ele>82.33333333333333</ele><time>2026-03-24T11:14:54.999Z</time></trkpt><trkpt lat="47.77030295989855" lon="-1.8833857786540777"><ele>82.0</ele><time>2026-03-24T11:14:55.999Z</time></trkpt><trkpt lat="47.77031993261289" lon="-1.8831287982477691"><ele>82.0</ele><time>2026-03-24T11:14:56.999Z</time></trkpt><trkpt lat="47.7703404179453" lon="-1.8828605140402341"><ele>82.0</ele><time>2026-03-24T11:14:57.999Z</time></trkpt><trkpt lat="47.77035954262897" lon="-1.8825891805982824"><ele>82.0</ele><time>2026-03-24T11:14:58.999Z</time></trkpt><trkpt lat="47.770375748565876" lon="-1.8823322900071677"><ele>81.33333333333333</ele><time>2026-03-24T11:14:59.999Z</time></trkpt><trkpt lat="47.77039229390868" lon="-1.8820871527132523"><ele>80.66666666666667</ele><time>2026-03-24T11:15:00.999Z</time></trkpt><trkpt lat="47.77040132617385" lon="-1.8818583619727371"><ele>80.0</ele><time>2026-03-24T11:15:01.999Z</time></trkpt><trkpt lat="47.77041728142778" lon="-1.8816220278034188"><ele>79.33333333333334</ele><time>2026-03-24T11:15:02.999Z</time></trkpt><trkpt lat="47.770436274117884" lon="-1.8813732469054736"><ele>78.66666666666667</ele><time>2026-03-24T11:15:03.999Z</time></trkpt><trkpt lat="47.77044895244031" lon="-1.8811256966579224"><ele>78.0</ele><time>2026-03-24T11:15:04.999Z</time></trkpt><trkpt lat="47.770436024471024" lon="-1.8809146080054484"><ele>77.66666666666667</ele><time>2026-03-24T11:15:05.999Z</time></trkpt><trkpt lat="47.77041559784446" lon="-1.8806898445387805"><ele>77.33333333333334</ele><time>2026-03-24T11:15:06.999Z</time></trkpt><trkpt lat="47.770379112430305" lon="-1.8804581477973334"><ele>77.0</ele><time>2026-03-24T11:15:07.999Z</time></trkpt><trkpt lat="47.77033900692789" lon="-1.8802068330070807"><ele>77.0</ele><time>2026-03-24T11:15:08.999Z</time></trkpt><trkpt lat="47.77029835792516" lon="-1.8799645478867824"><ele>77.0</ele><time>2026-03-24T11:15:09.999Z</time></trkpt><trkpt lat="47.77026148533831" lon="-1.8797200942042978"><ele>77.0</ele><time>2026-03-24T11:15:10.999Z</time></trkpt><trkpt lat="47.77021594171099" lon="-1.8794687149309717"><ele>78.0</ele><time>2026-03-24T11:15:11.999Z</time></trkpt><trkpt lat="47.77017050271956" lon="-1.8792187288659221"><ele>79.0</ele><time>2026-03-24T11:15:12.999Z</time></trkpt><trkpt lat="47.77012970265535" lon="-1.878970956163307"><ele>80.0</ele><time>2026-03-24T11:15:13.999Z</time></trkpt><trkpt lat="47.77009606872067" lon="-1.8787128375314612"><ele>80.0</ele><time>2026-03-24T11:15:14.999Z</time></trkpt><trkpt lat="47.77007785335315" lon="-1.8784638835436442"><ele>80.0</ele><time>2026-03-24T11:15:15.999Z</time></trkpt><trkpt lat="47.77007322735406" lon="-1.8781961544887085"><ele>80.0</ele><time>2026-03-24T11:15:16.998Z</time></trkpt><trkpt lat="47.77007532673269" lon="-1.8779370822921286"><ele>80.33333333333334</ele><time>2026-03-24T11:15:17.998Z</time></trkpt><trkpt lat="47.77007129690078" lon="-1.8776611791462268"><ele>80.66666666666667</ele><time>2026-03-24T11:15:18.998Z</time></trkpt><trkpt lat="47.77005893750123" lon="-1.8773951115014362"><ele>81.0</ele><time>2026-03-24T11:15:19.998Z</time></trkpt><trkpt lat="47.77004606717947" lon="-1.8771209428827427"><ele>81.0</ele><time>2026-03-24T11:15:20.998Z</time></trkpt><trkpt lat="47.7700420963747" lon="-1.8768761271796808"><ele>81.0</ele><time>2026-03-24T11:15:21.998Z</time></trkpt><trkpt lat="47.770037506714246" lon="-1.8766467497273769"><ele>81.0</ele><time>2026-03-24T11:15:22.998Z</time></trkpt><trkpt lat="47.77003235770622" lon="-1.876439861666826"><ele>81.5</ele><time>2026-03-24T11:15:23.998Z</time></trkpt><trkpt lat="47.77002860341555" lon="-1.8762603155130027"><ele>82.0</ele><time>2026-03-24T11:15:24.998Z</time></trkpt><trkpt lat="47.7700246503289" lon="-1.876078416772087"><ele>82.5</ele><time>2026-03-24T11:15:26Z</time></trkpt><trkpt lat="47.77002496707847" lon="-1.8758947554917553"><ele>83.0</ele><time>2026-03-24T11:15:27Z</time></trkpt><trkpt lat="47.77002249343951" lon="-1.8757223516335542"><ele>83.0</ele><time>2026-03-24T11:15:28Z</time></trkpt><trkpt lat="47.770016939142344" lon="-1.8755694282569009"><ele>83.0</ele><time>2026-03-24T11:15:29Z</time></trkpt><trkpt lat="47.77000999784929" lon="-1.875404368429585"><ele>83.0</ele><time>2026-03-24T11:15:30Z</time></trkpt><trkpt lat="47.77000617186663" lon="-1.8752184845093107"><ele>83.0</ele><time>2026-03-24T11:15:31Z</time></trkpt><trkpt lat="47.770007213746574" lon="-1.8750239813890974"><ele>82.80000000000001</ele><time>2026-03-24T11:15:32Z</time></trkpt><trkpt lat="47.770005125274245" lon="-1.8748424176084029"><ele>82.6</ele><time>2026-03-24T11:15:33Z</time></trkpt><trkpt lat="47.76999775796435" lon="-1.8746853329159006"><ele>82.4</ele><time>2026-03-24T11:15:34Z</time></trkpt><trkpt lat="47.769970500354916" lon="-1.8745429056435396"><ele>82.19999999999999</ele><time>2026-03-24T11:15:35Z</time></trkpt><trkpt lat="47.76994456252412" lon="-1.8744062956224494"><ele>82.0</ele><time>2026-03-24T11:15:36Z</time></trkpt><trkpt lat="47.769902207381726" lon="-1.8743020684378588"><ele>81.8</ele><time>2026-03-24T11:15:37Z</time></trkpt><trkpt lat="47.769807759312314" lon="-1.8741825429926844"><ele>81.6</ele><time>2026-03-24T11:15:39Z</time></trkpt><trkpt lat="47.769749323185636" lon="-1.8741287938249114"><ele>81.39999999999999</ele><time>2026-03-24T11:15:40Z</time></trkpt><trkpt lat="47.769673956529516" lon="-1.8740821274590096"><ele>81.19999999999999</ele><time>2026-03-24T11:15:41Z</time></trkpt><trkpt lat="47.76958936955032" lon="-1.8740412703311538"><ele>81.0</ele><time>2026-03-24T11:15:42Z</time></trkpt><trkpt lat="47.769492317142614" lon="-1.8739999041777098"><ele>81.0</ele><time>2026-03-24T11:15:43Z</time></trkpt><trkpt lat="47.769393350543" lon="-1.8739604734399677"><ele>81.0</ele><time>2026-03-24T11:15:44Z</time></trkpt><trkpt lat="47.7693044569957" lon="-1.8739250560496763"><ele>81.0</ele><time>2026-03-24T11:15:45Z</time></trkpt><trkpt lat="47.76921625301317" lon="-1.8738899133989493"><ele>81.0</ele><time>2026-03-24T11:15:46Z</time></trkpt><trkpt lat="47.76914041895645" lon="-1.8738596991818688"><ele>81.0</ele><time>2026-03-24T11:15:47Z</time></trkpt><trkpt lat="47.76903559897097" lon="-1.8738226517721648"><ele>81.6</ele><time>2026-03-24T11:15:48Z</time></trkpt><trkpt lat="47.768939519439016" lon="-1.8737691068517117"><ele>82.19999999999999</ele><time>2026-03-24T11:15:49Z</time></trkpt><trkpt lat="47.76885312804157" lon="-1.8737245054153135"><ele>82.80000000000001</ele><time>2026-03-24T11:15:50Z</time></trkpt><trkpt lat="47.768772624386706" lon="-1.8737341668063348"><ele>83.4</ele><time>2026-03-24T11:15:51Z</time></trkpt><trkpt lat="47.76867807521672" lon="-1.8737285939699224"><ele>84.0</ele><time>2026-03-24T11:15:53Z</time></trkpt><trkpt lat="47.76866460532247" lon="-1.8733803214178364"><ele>84.0</ele><time>2026-03-24T11:15:56Z</time></trkpt><trkpt lat="47.768677859495774" lon="-1.8732339569784466"><ele>84.0</ele><time>2026-03-24T11:15:57Z</time></trkpt><trkpt lat="47.76868123881367" lon="-1.8731002627318294"><ele>84.0</ele><time>2026-03-24T11:15:58Z</time></trkpt><trkpt lat="47.76868829151755" lon="-1.8729523743690348"><ele>84.0</ele><time>2026-03-24T11:15:59Z</time></trkpt><trkpt lat="47.76869767230027" lon="-1.8727777043949279"><ele>84.0</ele><time>2026-03-24T11:16:00Z</time></trkpt><trkpt lat="47.768713324702105" lon="-1.872606838525656"><ele>84.25</ele><time>2026-03-24T11:16:01Z</time></trkpt><trkpt lat="47.76872262944933" lon="-1.8724409012450614"><ele>84.5</ele><time>2026-03-24T11:16:02Z</time></trkpt><trkpt lat="47.768739845125026" lon="-1.872258129759148"><ele>84.75</ele><time>2026-03-24T11:16:03Z</time></trkpt><trkpt lat="47.7687534134914" lon="-1.8720661694796923"><ele>85.0</ele><time>2026-03-24T11:16:04Z</time></trkpt><trkpt lat="47.76876348919919" lon="-1.8718970585547186"><ele>85.25</ele><time>2026-03-24T11:16:05Z</time></trkpt><trkpt lat="47.76877096631993" lon="-1.8717171984574226"><ele>85.5</ele><time>2026-03-24T11:16:06Z</time></trkpt><trkpt lat="47.76877610204434" lon="-1.8715270477762473"><ele>85.75</ele><time>2026-03-24T11:16:07Z</time></trkpt><trkpt lat="47.76878769632364" lon="-1.8713415354952296"><ele>86.0</ele><time>2026-03-24T11:16:08Z</time></trkpt><trkpt lat="47.76880216794178" lon="-1.8711386098334617"><ele>86.0</ele><time>2026-03-24T11:16:09Z</time></trkpt><trkpt lat="47.768815976035086" lon="-1.8709148671289189"><ele>86.0</ele><time>2026-03-24T11:16:10Z</time></trkpt><trkpt lat="47.76882430415823" lon="-1.8706760663635797"><ele>86.0</ele><time>2026-03-24T11:16:11Z</time></trkpt><trkpt lat="47.76883586204739" lon="-1.8704519662567085"><ele>86.0</ele><time>2026-03-24T11:16:12Z</time></trkpt><trkpt lat="47.768837092854554" lon="-1.8702234309876837"><ele>86.0</ele><time>2026-03-24T11:16:12.999Z</time></trkpt><trkpt lat="47.76884481083911" lon="-1.8700247242890768"><ele>86.0</ele><time>2026-03-24T11:16:13.999Z</time></trkpt><trkpt lat="47.76884383722197" lon="-1.8698321891748326"><ele>86.0</ele><time>2026-03-24T11:16:14.999Z</time></trkpt><trkpt lat="47.76884426141487" lon="-1.8696579468241576"><ele>85.6</ele><time>2026-03-24T11:16:15.999Z</time></trkpt><trkpt lat="47.768840941034306" lon="-1.8694977681881146"><ele>85.19999999999999</ele><time>2026-03-24T11:16:16.999Z</time></trkpt><trkpt lat="47.76884365403748" lon="-1.8693414124703374"><ele>84.80000000000001</ele><time>2026-03-24T11:16:17.999Z</time></trkpt><trkpt lat="47.76884265182835" lon="-1.8691980456247568"><ele>84.4</ele><time>2026-03-24T11:16:18.999Z</time></trkpt><trkpt lat="47.768844460169184" lon="-1.8690566738593666"><ele>84.0</ele><time>2026-03-24T11:16:19.999Z</time></trkpt><trkpt lat="47.76884350768389" lon="-1.8689121425446258"><ele>84.0</ele><time>2026-03-24T11:16:20.999Z</time></trkpt><trkpt lat="47.768846982281474" lon="-1.8687989652135697"><ele>84.0</ele><time>2026-03-24T11:16:21.999Z</time></trkpt><trkpt lat="47.768848796270746" lon="-1.8686977206577935"><ele>84.0</ele><time>2026-03-24T11:16:22.999Z</time></trkpt><trkpt lat="47.768850465492775" lon="-1.8686040243228772"><ele>84.0</ele><time>2026-03-24T11:16:23.999Z</time></trkpt><trkpt lat="47.7688503219044" lon="-1.8684146274117857"><ele>84.0</ele><time>2026-03-24T11:16:25.999Z</time></trkpt><trkpt lat="47.76885580357582" lon="-1.8683030560339906"><ele>84.0</ele><time>2026-03-24T11:16:26.999Z</time></trkpt><trkpt lat="47.76885264292796" lon="-1.8681923461598544"><ele>84.16666666666667</ele><time>2026-03-24T11:16:27.999Z</time></trkpt><trkpt lat="47.76885689558037" lon="-1.8680569330619792"><ele>84.33333333333333</ele><time>2026-03-24T11:16:28.999Z</time></trkpt><trkpt lat="47.76886070374461" lon="-1.8679425775999972"><ele>84.5</ele><time>2026-03-24T11:16:29.999Z</time></trkpt><trkpt lat="47.76887418365126" lon="-1.867843179384872"><ele>84.66666666666666</ele><time>2026-03-24T11:16:30.999Z</time></trkpt><trkpt lat="47.7688770443343" lon="-1.8677415812186537"><ele>84.83333333333333</ele><time>2026-03-24T11:16:31.999Z</time></trkpt><trkpt lat="47.768931478557434" lon="-1.867590682185372"><ele>85.0</ele><time>2026-03-24T11:16:33.999Z</time></trkpt><trkpt lat="47.768957726591196" lon="-1.867504601786765"><ele>85.33333333333333</ele><time>2026-03-24T11:16:34.999Z</time></trkpt><trkpt lat="47.768984347810516" lon="-1.8674069878733388"><ele>85.66666666666666</ele><time>2026-03-24T11:16:35.999Z</time></trkpt><trkpt lat="47.76903781417126" lon="-1.8672329257843274"><ele>86.0</ele><time>2026-03-24T11:16:37.999Z</time></trkpt><trkpt lat="47.76905470932014" lon="-1.867133685474746"><ele>86.33333333333333</ele><time>2026-03-24T11:16:38.999Z</time></trkpt><trkpt lat="47.76908022384454" lon="-1.8670087750743751"><ele>86.66666666666667</ele><time>2026-03-24T11:16:39.999Z</time></trkpt><trkpt lat="47.76910277516407" lon="-1.8668907231424168"><ele>87.0</ele><time>2026-03-24T11:16:40.999Z</time></trkpt><trkpt lat="47.76912861058422" lon="-1.8667812856490256"><ele>87.83333333333333</ele><time>2026-03-24T11:16:41.999Z</time></trkpt><trkpt lat="47.76914239494987" lon="-1.8666739719237382"><ele>88.66666666666667</ele><time>2026-03-24T11:16:42.999Z</time></trkpt><trkpt lat="47.769157416669245" lon="-1.866566127639707"><ele>89.5</ele><time>2026-03-24T11:16:43.999Z</time></trkpt><trkpt lat="47.76918562583975" lon="-1.8663913122226645"><ele>90.33333333333334</ele><time>2026-03-24T11:16:45.999Z</time></trkpt><trkpt lat="47.769210088487604" lon="-1.866294854836981"><ele>91.16666666666667</ele><time>2026-03-24T11:16:46.999Z</time></trkpt><trkpt lat="47.76922641567307" lon="-1.8661828321290603"><ele>92.0</ele><time>2026-03-24T11:16:47.999Z</time></trkpt><trkpt lat="47.76925898103278" lon="-1.866065470256619"><ele>93.0</ele><time>2026-03-24T11:16:48.999Z</time></trkpt><trkpt lat="47.76929184292571" lon="-1.8659135491745127"><ele>94.0</ele><time>2026-03-24T11:16:49.999Z</time></trkpt><trkpt lat="47.76927534536423" lon="-1.8657244296685354"><ele>95.0</ele><time>2026-03-24T11:16:50.999Z</time></trkpt><trkpt lat="47.76931139437644" lon="-1.8655901804358763"><ele>96.0</ele><time>2026-03-24T11:16:51.999Z</time></trkpt><trkpt lat="47.769330543304996" lon="-1.865445183614539"><ele>97.0</ele><time>2026-03-24T11:16:52.999Z</time></trkpt><trkpt lat="47.76936829284308" lon="-1.8652915517884276"><ele>97.00000000000001</ele><time>2026-03-24T11:16:53.999Z</time></trkpt><trkpt lat="47.76938779566996" lon="-1.86514600055236"><ele>97.0</ele><time>2026-03-24T11:16:54.999Z</time></trkpt><trkpt lat="47.769400578915416" lon="-1.8650332556210287"><ele>97.0</ele><time>2026-03-24T11:16:55.999Z</time></trkpt><trkpt lat="47.769407345071855" lon="-1.864916714731092"><ele>97.0</ele><time>2026-03-24T11:16:56.999Z</time></trkpt><trkpt lat="47.76941761437137" lon="-1.8647662169142232"><ele>97.00000000000001</ele><time>2026-03-24T11:16:58.999Z</time></trkpt><trkpt lat="47.76936147547675" lon="-1.8647137370188906"><ele>97.0</ele><time>2026-03-24T11:17:01.999Z</time></trkpt><trkpt lat="47.76925307013631" lon="-1.8647481757089057"><ele>97.0</ele><time>2026-03-24T11:17:03.999Z</time></trkpt><trkpt lat="47.769157224267914" lon="-1.8647972866921314"><ele>97.0</ele><time>2026-03-24T11:17:04.999Z</time></trkpt><trkpt lat="47.7690805864593" lon="-1.8648486979521433"><ele>97.0</ele><time>2026-03-24T11:17:05.999Z</time></trkpt><trkpt lat="47.76899089841359" lon="-1.8648944098691511"><ele>97.0</ele><time>2026-03-24T11:17:06.999Z</time></trkpt><trkpt lat="47.76890702141259" lon="-1.8650319289967112"><ele>97.0</ele><time>2026-03-24T11:17:07.999Z</time></trkpt><trkpt lat="47.76880317069625" lon="-1.865114795779773"><ele>97.0</ele><time>2026-03-24T11:17:08.999Z</time></trkpt><trkpt lat="47.768698734138184" lon="-1.8652051987080016"><ele>97.0</ele><time>2026-03-24T11:17:09.999Z</time></trkpt><trkpt lat="47.76859341014761" lon="-1.8653114165098659"><ele>97.0</ele><time>2026-03-24T11:17:10.999Z</time></trkpt><trkpt lat="47.76846426885154" lon="-1.8654427724884834"><ele>97.0</ele><time>2026-03-24T11:17:11.999Z</time></trkpt><trkpt lat="47.768334111289384" lon="-1.865576976365768"><ele>96.75</ele><time>2026-03-24T11:17:12.999Z</time></trkpt><trkpt lat="47.768216968151386" lon="-1.8657120008749892"><ele>96.5</ele><time>2026-03-24T11:17:13.999Z</time></trkpt><trkpt lat="47.76809789876416" lon="-1.865823033665357"><ele>96.25</ele><time>2026-03-24T11:17:14.999Z</time></trkpt><trkpt lat="47.76797019949845" lon="-1.8659351381075684"><ele>96.0</ele><time>2026-03-24T11:17:15.999Z</time></trkpt><trkpt lat="47.767818140104865" lon="-1.8660355095726044"><ele>95.33333333333333</ele><time>2026-03-24T11:17:16.999Z</time></trkpt><trkpt lat="47.76765431363554" lon="-1.8661412562666204"><ele>94.66666666666666</ele><time>2026-03-24T11:17:17.998Z</time></trkpt><trkpt lat="47.76747005711076" lon="-1.8662347242073778"><ele>94.0</ele><time>2026-03-24T11:17:18.998Z</time></trkpt><trkpt lat="47.767287163273586" lon="-1.8663193909705758"><ele>94.0</ele><time>2026-03-24T11:17:19.998Z</time></trkpt><trkpt lat="47.767124993708805" lon="-1.8663880991953499"><ele>94.0</ele><time>2026-03-24T11:17:20.998Z</time></trkpt><trkpt lat="47.76694704005484" lon="-1.8664648789612748"><ele>94.0</ele><time>2026-03-24T11:17:21.998Z</time></trkpt><trkpt lat="47.766766826355855" lon="-1.8665796149882818"><ele>93.33333333333333</ele><time>2026-03-24T11:17:22.998Z</time></trkpt><trkpt lat="47.766584169509414" lon="-1.8666757006195405"><ele>92.66666666666667</ele><time>2026-03-24T11:17:23.998Z</time></trkpt><trkpt lat="47.76641759421072" lon="-1.8667640945458484"><ele>92.0</ele><time>2026-03-24T11:17:24.998Z</time></trkpt><trkpt lat="47.76626682376245" lon="-1.8668448533087132"><ele>92.6</ele><time>2026-03-24T11:17:25.998Z</time></trkpt><trkpt lat="47.766136544010955" lon="-1.8668912701191125"><ele>93.19999999999999</ele><time>2026-03-24T11:17:26.998Z</time></trkpt><trkpt lat="47.766035558426104" lon="-1.8669527191036963"><ele>93.8</ele><time>2026-03-24T11:17:27.998Z</time></trkpt><trkpt lat="47.76594780370037" lon="-1.8670026712489713"><ele>94.4</ele><time>2026-03-24T11:17:28.998Z</time></trkpt><trkpt lat="47.76587475331665" lon="-1.8670364844602043"><ele>95.0</ele><time>2026-03-24T11:17:29.998Z</time></trkpt><trkpt lat="47.765797322065325" lon="-1.8670565125929524"><ele>95.0</ele><time>2026-03-24T11:17:41Z</time></trkpt><trkpt lat="47.76576738295817" lon="-1.8668943184364628"><ele>95.0</ele><time>2026-03-24T11:17:43Z</time></trkpt><trkpt lat="47.76575925176726" lon="-1.86706974395592"><ele>95.0</ele><time>2026-03-24T11:17:44Z</time></trkpt><trkpt lat="47.76561104442323" lon="-1.866936760338011"><ele>95.0</ele><time>2026-03-24T11:17:46Z</time></trkpt><trkpt lat="47.765559114653044" lon="-1.8668779631956047"><ele>95.0</ele><time>2026-03-24T11:17:47Z</time></trkpt><trkpt lat="47.76550685633132" lon="-1.8668147500075"><ele>95.0</ele><time>2026-03-24T11:17:48Z</time></trkpt><trkpt lat="47.76543608072482" lon="-1.8667291667401071"><ele>95.0</ele><time>2026-03-24T11:17:49Z</time></trkpt><trkpt lat="47.76537165408183" lon="-1.8666512608238228"><ele>95.0</ele><time>2026-03-24T11:17:50Z</time></trkpt><trkpt lat="47.76530133526971" lon="-1.8665764682168244"><ele>95.0</ele><time>2026-03-24T11:17:51Z</time></trkpt><trkpt lat="47.765232769454485" lon="-1.8665050812979223"><ele>95.0</ele><time>2026-03-24T11:17:52Z</time></trkpt><trkpt lat="47.765161064066874" lon="-1.8664304255000648"><ele>94.5</ele><time>2026-03-24T11:17:53Z</time></trkpt><trkpt lat="47.76506294240268" lon="-1.8663282666128393"><ele>94.0</ele><time>2026-03-24T11:17:54Z</time></trkpt><trkpt lat="47.76495885637323" lon="-1.8662198980014522"><ele>93.5</ele><time>2026-03-24T11:17:55Z</time></trkpt><trkpt lat="47.76483637963922" lon="-1.8660903308154155"><ele>93.0</ele><time>2026-03-24T11:17:56Z</time></trkpt><trkpt lat="47.76470719251044" lon="-1.865953473114203"><ele>93.0</ele><time>2026-03-24T11:17:57Z</time></trkpt><trkpt lat="47.76458972733184" lon="-1.86583803843222"><ele>93.0</ele><time>2026-03-24T11:17:58Z</time></trkpt><trkpt lat="47.7644371055316" lon="-1.865637820481391"><ele>93.0</ele><time>2026-03-24T11:17:59Z</time></trkpt><trkpt lat="47.76429106835593" lon="-1.8654746626679442"><ele>93.0</ele><time>2026-03-24T11:18:00Z</time></trkpt><trkpt lat="47.764123621187686" lon="-1.8653171589660733"><ele>93.0</ele><time>2026-03-24T11:18:01Z</time></trkpt><trkpt lat="47.76397200979458" lon="-1.8651490010889922"><ele>93.0</ele><time>2026-03-24T11:18:02Z</time></trkpt><trkpt lat="47.763825150781116" lon="-1.8649797228367093"><ele>92.66666666666667</ele><time>2026-03-24T11:18:03Z</time></trkpt><trkpt lat="47.76369514642753" lon="-1.8648294921761648"><ele>92.33333333333334</ele><time>2026-03-24T11:18:04Z</time></trkpt><trkpt lat="47.763559539931094" lon="-1.8646932277372377"><ele>92.0</ele><time>2026-03-24T11:18:05Z</time></trkpt><trkpt lat="47.763421213481855" lon="-1.8645691277916427"><ele>91.66666666666667</ele><time>2026-03-24T11:18:06Z</time></trkpt><trkpt lat="47.76327486045297" lon="-1.864460674943618"><ele>91.33333333333333</ele><time>2026-03-24T11:18:07Z</time></trkpt><trkpt lat="47.763103261463314" lon="-1.864385964735972"><ele>91.0</ele><time>2026-03-24T11:18:08Z</time></trkpt><trkpt lat="47.76289979126556" lon="-1.8643175704273163"><ele>91.0</ele><time>2026-03-24T11:18:09Z</time></trkpt><trkpt lat="47.76268861801256" lon="-1.8642728818083227"><ele>91.0</ele><time>2026-03-24T11:18:10Z</time></trkpt><trkpt lat="47.762450626646405" lon="-1.864200065282216"><ele>91.0</ele><time>2026-03-24T11:18:11Z</time></trkpt><trkpt lat="47.76221725799773" lon="-1.8641268644714084"><ele>91.0</ele><time>2026-03-24T11:18:12Z</time></trkpt><trkpt lat="47.76197224095719" lon="-1.864023968280551"><ele>90.66666666666666</ele><time>2026-03-24T11:18:13Z</time></trkpt><trkpt lat="47.76180219609769" lon="-1.8639915589994775"><ele>90.33333333333333</ele><time>2026-03-24T11:18:14Z</time></trkpt><trkpt lat="47.76158854912042" lon="-1.8639664247043637"><ele>90.0</ele><time>2026-03-24T11:18:15Z</time></trkpt><trkpt lat="47.761352883443344" lon="-1.8639362312980388"><ele>90.0</ele><time>2026-03-24T11:18:15.999Z</time></trkpt><trkpt lat="47.76119625357179" lon="-1.863896200767048"><ele>90.0</ele><time>2026-03-24T11:18:17.999Z</time></trkpt><trkpt lat="47.76100242251187" lon="-1.8638201026653152"><ele>90.0</ele><time>2026-03-24T11:18:18.999Z</time></trkpt><trkpt lat="47.76080192490766" lon="-1.8637630849646256"><ele>90.0</ele><time>2026-03-24T11:18:19.999Z</time></trkpt><trkpt lat="47.76059820359908" lon="-1.8637289760679083"><ele>90.0</ele><time>2026-03-24T11:18:20.999Z</time></trkpt><trkpt lat="47.760395761272264" lon="-1.8636604597795983"><ele>90.0</ele><time>2026-03-24T11:18:21.999Z</time></trkpt><trkpt lat="47.760188007445755" lon="-1.8636169044646187"><ele>90.66666666666667</ele><time>2026-03-24T11:18:22.999Z</time></trkpt><trkpt lat="47.75997987500941" lon="-1.8635607389539126"><ele>91.33333333333334</ele><time>2026-03-24T11:18:23.999Z</time></trkpt><trkpt lat="47.75976362282042" lon="-1.8635023823124799"><ele>92.0</ele><time>2026-03-24T11:18:24.999Z</time></trkpt><trkpt lat="47.75954082410244" lon="-1.863442269862701"><ele>92.66666666666667</ele><time>2026-03-24T11:18:25.999Z</time></trkpt><trkpt lat="47.75932809135723" lon="-1.8633858553311313"><ele>93.33333333333333</ele><time>2026-03-24T11:18:26.999Z</time></trkpt><trkpt lat="47.759126607687314" lon="-1.8633324217199498"><ele>94.0</ele><time>2026-03-24T11:18:27.999Z</time></trkpt><trkpt lat="47.758928662994094" lon="-1.8632799287819195"><ele>94.0</ele><time>2026-03-24T11:18:28.999Z</time></trkpt><trkpt lat="47.75873638428999" lon="-1.863226944777604"><ele>94.0</ele><time>2026-03-24T11:18:29.999Z</time></trkpt><trkpt lat="47.758546828668514" lon="-1.8631695174598475"><ele>94.0</ele><time>2026-03-24T11:18:30.999Z</time></trkpt><trkpt lat="47.758358127049284" lon="-1.8631123486787544"><ele>93.33333333333333</ele><time>2026-03-24T11:18:31.999Z</time></trkpt><trkpt lat="47.758169878309985" lon="-1.8630553171966926"><ele>92.66666666666667</ele><time>2026-03-24T11:18:32.999Z</time></trkpt><trkpt lat="47.75798366960515" lon="-1.8630024556896778"><ele>92.0</ele><time>2026-03-24T11:18:33.999Z</time></trkpt><trkpt lat="47.757798188058516" lon="-1.8629512256988159"><ele>91.66666666666667</ele><time>2026-03-24T11:18:34.999Z</time></trkpt><trkpt lat="47.75761645480191" lon="-1.8629010309681657"><ele>91.33333333333333</ele><time>2026-03-24T11:18:35.999Z</time></trkpt><trkpt lat="47.75743213888277" lon="-1.8628256065648423"><ele>91.0</ele><time>2026-03-24T11:18:36.999Z</time></trkpt><trkpt lat="47.75724525392595" lon="-1.8627900865606128"><ele>91.0</ele><time>2026-03-24T11:18:37.999Z</time></trkpt><trkpt lat="47.75705617198202" lon="-1.8627445580692956"><ele>91.0</ele><time>2026-03-24T11:18:38.999Z</time></trkpt><trkpt lat="47.75687803112329" lon="-1.8627005536599077"><ele>91.0</ele><time>2026-03-24T11:18:39.999Z</time></trkpt><trkpt lat="47.75668918780647" lon="-1.862646938432928"><ele>90.0</ele><time>2026-03-24T11:18:40.999Z</time></trkpt><trkpt lat="47.756494035999935" lon="-1.86259436310609"><ele>89.0</ele><time>2026-03-24T11:18:41.999Z</time></trkpt><trkpt lat="47.75629820489901" lon="-1.8625416048179957"><ele>88.0</ele><time>2026-03-24T11:18:42.999Z</time></trkpt><trkpt lat="47.756111440599206" lon="-1.8624896591940574"><ele>88.0</ele><time>2026-03-24T11:18:43.999Z</time></trkpt><trkpt lat="47.75591575885367" lon="-1.8624340832474537"><ele>88.0</ele><time>2026-03-24T11:18:44.999Z</time></trkpt><trkpt lat="47.75572949832507" lon="-1.862381183032839"><ele>88.0</ele><time>2026-03-24T11:18:45.999Z</time></trkpt><trkpt lat="47.75554068845548" lon="-1.8623272903507337"><ele>88.0</ele><time>2026-03-24T11:18:46.999Z</time></trkpt><trkpt lat="47.755339568175074" lon="-1.8622694782771712"><ele>88.0</ele><time>2026-03-24T11:18:47.999Z</time></trkpt><trkpt lat="47.755145217959296" lon="-1.862214152541613"><ele>88.0</ele><time>2026-03-24T11:18:48.999Z</time></trkpt><trkpt lat="47.75494193317804" lon="-1.8621609355831419"><ele>88.33333333333333</ele><time>2026-03-24T11:18:49.999Z</time></trkpt><trkpt lat="47.75474992550777" lon="-1.8621106708306958"><ele>88.66666666666667</ele><time>2026-03-24T11:18:50.999Z</time></trkpt><trkpt lat="47.75454418081935" lon="-1.862052925289726"><ele>89.0</ele><time>2026-03-24T11:18:51.999Z</time></trkpt><trkpt lat="47.7543601487176" lon="-1.8619977046054212"><ele>88.33333333333334</ele><time>2026-03-24T11:18:52.999Z</time></trkpt><trkpt lat="47.754167312998426" lon="-1.8619396454114259"><ele>87.66666666666667</ele><time>2026-03-24T11:18:53.999Z</time></trkpt><trkpt lat="47.753980385626484" lon="-1.8618741505683765"><ele>87.0</ele><time>2026-03-24T11:18:54.999Z</time></trkpt><trkpt lat="47.75379746407173" lon="-1.8618238268388787"><ele>87.0</ele><time>2026-03-24T11:18:55.999Z</time></trkpt><trkpt lat="47.75362731206768" lon="-1.8617919625732013"><ele>87.0</ele><time>2026-03-24T11:18:56.999Z</time></trkpt><trkpt lat="47.753476049537134" lon="-1.8617766252576986"><ele>87.0</ele><time>2026-03-24T11:18:57.999Z</time></trkpt><trkpt lat="47.753353444787955" lon="-1.8617113545983834"><ele>86.0</ele><time>2026-03-24T11:18:58.999Z</time></trkpt><trkpt lat="47.75321438067337" lon="-1.8616566088276116"><ele>85.0</ele><time>2026-03-24T11:18:59.999Z</time></trkpt><trkpt lat="47.753063866595724" lon="-1.861639104934463"><ele>84.0</ele><time>2026-03-24T11:19:00.999Z</time></trkpt><trkpt lat="47.75289424842207" lon="-1.8615691688470946"><ele>84.0</ele><time>2026-03-24T11:19:01.999Z</time></trkpt><trkpt lat="47.75271525234316" lon="-1.8615231752816008"><ele>84.0</ele><time>2026-03-24T11:19:02.999Z</time></trkpt><trkpt lat="47.75254053175613" lon="-1.861473900117939"><ele>84.0</ele><time>2026-03-24T11:19:03.999Z</time></trkpt><trkpt lat="47.752375227063894" lon="-1.8614330417377805"><ele>83.0</ele><time>2026-03-24T11:19:04.999Z</time></trkpt><trkpt lat="47.75222165993231" lon="-1.8613846478559426"><ele>82.0</ele><time>2026-03-24T11:19:05.999Z</time></trkpt><trkpt lat="47.75207532313192" lon="-1.861348178002133"><ele>81.0</ele><time>2026-03-24T11:19:06.999Z</time></trkpt><trkpt lat="47.75196220086858" lon="-1.8613176588938503"><ele>80.0</ele><time>2026-03-24T11:19:07.999Z</time></trkpt><trkpt lat="47.7518451886766" lon="-1.8612793907797542"><ele>79.25</ele><time>2026-03-24T11:19:08.999Z</time></trkpt><trkpt lat="47.7517388991178" lon="-1.8612823360967778"><ele>78.5</ele><time>2026-03-24T11:19:09.999Z</time></trkpt><trkpt lat="47.751661506596626" lon="-1.861248103644017"><ele>77.75</ele><time>2026-03-24T11:19:10.999Z</time></trkpt><trkpt lat="47.75159296469912" lon="-1.8612304477292763"><ele>77.0</ele><time>2026-03-24T11:19:12.999Z</time></trkpt><trkpt lat="47.7516614107956" lon="-1.860900332480171"><ele>76.75</ele><time>2026-03-24T11:19:13.999Z</time></trkpt><trkpt lat="47.7517034718644" lon="-1.8607220646695117"><ele>76.5</ele><time>2026-03-24T11:19:14.999Z</time></trkpt><trkpt lat="47.75170842289087" lon="-1.8605024543193067"><ele>76.25</ele><time>2026-03-24T11:19:15.999Z</time></trkpt><trkpt lat="47.751730459889465" lon="-1.8602729880687077"><ele>76.0</ele><time>2026-03-24T11:19:16.999Z</time></trkpt><trkpt lat="47.75174339260671" lon="-1.8600560095096783"><ele>74.66666666666666</ele><time>2026-03-24T11:19:17.999Z</time></trkpt><trkpt lat="47.75176075937987" lon="-1.8598336982406738"><ele>73.33333333333333</ele><time>2026-03-24T11:19:18.999Z</time></trkpt><trkpt lat="47.75179047286954" lon="-1.8595960920869261"><ele>72.0</ele><time>2026-03-24T11:19:19.999Z</time></trkpt><trkpt lat="47.75181249236415" lon="-1.8593321021932159"><ele>71.66666666666667</ele><time>2026-03-24T11:19:20.999Z</time></trkpt><trkpt lat="47.751841419677966" lon="-1.8590474516405637"><ele>71.33333333333334</ele><time>2026-03-24T11:19:21.998Z</time></trkpt><trkpt lat="47.751872049219685" lon="-1.8587834739540474"><ele>71.0</ele><time>2026-03-24T11:19:22.998Z</time></trkpt><trkpt lat="47.75190709444454" lon="-1.8585062691342848"><ele>72.33333333333334</ele><time>2026-03-24T11:19:23.998Z</time></trkpt><trkpt lat="47.751940712228944" lon="-1.8582156374036423"><ele>73.66666666666667</ele><time>2026-03-24T11:19:24.998Z</time></trkpt><trkpt lat="47.75197314569538" lon="-1.8579073068524574"><ele>75.0</ele><time>2026-03-24T11:19:25.998Z</time></trkpt><trkpt lat="47.75199356839194" lon="-1.8575991171982256"><ele>75.0</ele><time>2026-03-24T11:19:26.998Z</time></trkpt><trkpt lat="47.75201994642606" lon="-1.8572856889333043"><ele>75.0</ele><time>2026-03-24T11:19:27.998Z</time></trkpt><trkpt lat="47.75205100661626" lon="-1.856970394404461"><ele>75.0</ele><time>2026-03-24T11:19:28.998Z</time></trkpt><trkpt lat="47.752072714098205" lon="-1.8566845257972133"><ele>74.66666666666667</ele><time>2026-03-24T11:19:29.998Z</time></trkpt><trkpt lat="47.75210832611093" lon="-1.856417373580575"><ele>74.33333333333334</ele><time>2026-03-24T11:19:30.998Z</time></trkpt><trkpt lat="47.75214220658472" lon="-1.8561436763807488"><ele>74.0</ele><time>2026-03-24T11:19:31.998Z</time></trkpt><trkpt lat="47.752167775054225" lon="-1.8558639772680376"><ele>73.33333333333334</ele><time>2026-03-24T11:19:32.998Z</time></trkpt><trkpt lat="47.75219161724256" lon="-1.8555911921180772"><ele>72.66666666666667</ele><time>2026-03-24T11:19:33.998Z</time></trkpt><trkpt lat="47.7522294686358" lon="-1.8553023560066828"><ele>72.0</ele><time>2026-03-24T11:19:34.998Z</time></trkpt><trkpt lat="47.75225481487195" lon="-1.8550156443828"><ele>72.0</ele><time>2026-03-24T11:19:35.998Z</time></trkpt><trkpt lat="47.752292718226066" lon="-1.8547068460439442"><ele>72.0</ele><time>2026-03-24T11:19:36.998Z</time></trkpt><trkpt lat="47.75232470507289" lon="-1.8544043384109736"><ele>72.0</ele><time>2026-03-24T11:19:38Z</time></trkpt><trkpt lat="47.75235642006326" lon="-1.8540995479805733"><ele>71.66666666666667</ele><time>2026-03-24T11:19:39Z</time></trkpt><trkpt lat="47.75238974432184" lon="-1.8537902365629815"><ele>71.33333333333334</ele><time>2026-03-24T11:19:40Z</time></trkpt><trkpt lat="47.75242636394746" lon="-1.8534765215395514"><ele>71.0</ele><time>2026-03-24T11:19:41Z</time></trkpt><trkpt lat="47.75245385707495" lon="-1.8531738964749382"><ele>70.66666666666667</ele><time>2026-03-24T11:19:42Z</time></trkpt><trkpt lat="47.75248489878921" lon="-1.8528641205395362"><ele>70.33333333333333</ele><time>2026-03-24T11:19:43Z</time></trkpt><trkpt lat="47.75251565818308" lon="-1.8525571003208419"><ele>70.0</ele><time>2026-03-24T11:19:44Z</time></trkpt><trkpt lat="47.75254314789307" lon="-1.8522527221003715"><ele>70.0</ele><time>2026-03-24T11:19:45Z</time></trkpt><trkpt lat="47.752572704038585" lon="-1.8519525926524167"><ele>70.0</ele><time>2026-03-24T11:19:46Z</time></trkpt><trkpt lat="47.75260744480347" lon="-1.851652459437848"><ele>70.0</ele><time>2026-03-24T11:19:47Z</time></trkpt><trkpt lat="47.75264180382865" lon="-1.8513577877853638"><ele>70.33333333333333</ele><time>2026-03-24T11:19:48Z</time></trkpt><trkpt lat="47.75265827284276" lon="-1.8510500205837728"><ele>70.66666666666667</ele><time>2026-03-24T11:19:49Z</time></trkpt><trkpt lat="47.752689864854965" lon="-1.8507318886982727"><ele>71.0</ele><time>2026-03-24T11:19:50Z</time></trkpt><trkpt lat="47.752727177110486" lon="-1.8504365897310056"><ele>69.33333333333334</ele><time>2026-03-24T11:19:51Z</time></trkpt><trkpt lat="47.752751754396506" lon="-1.8501247633341615"><ele>67.66666666666667</ele><time>2026-03-24T11:19:52Z</time></trkpt><trkpt lat="47.752784442215635" lon="-1.8498175301935322"><ele>66.0</ele><time>2026-03-24T11:19:53Z</time></trkpt><trkpt lat="47.75281615821229" lon="-1.8495400806416402"><ele>66.0</ele><time>2026-03-24T11:19:54Z</time></trkpt><trkpt lat="47.752840543717724" lon="-1.8492745983364636"><ele>66.0</ele><time>2026-03-24T11:19:55Z</time></trkpt><trkpt lat="47.75285719079374" lon="-1.8490525066808738"><ele>66.0</ele><time>2026-03-24T11:19:56Z</time></trkpt><trkpt lat="47.75288061734915" lon="-1.8488852562336215"><ele>66.0</ele><time>2026-03-24T11:19:57Z</time></trkpt><trkpt lat="47.75289393327895" lon="-1.848739428030971"><ele>66.0</ele><time>2026-03-24T11:19:58Z</time></trkpt><trkpt lat="47.7529021790274" lon="-1.8486109409521436"><ele>66.0</ele><time>2026-03-24T11:19:59Z</time></trkpt><trkpt lat="47.752911315269884" lon="-1.8484968638358397"><ele>66.0</ele><time>2026-03-24T11:20:02Z</time></trkpt><trkpt lat="47.753044172011904" lon="-1.84848004303498"><ele>66.0</ele><time>2026-03-24T11:20:04Z</time></trkpt><trkpt lat="47.753137466462505" lon="-1.8484870111357024"><ele>66.0</ele><time>2026-03-24T11:20:06Z</time></trkpt><trkpt lat="47.75321160475288" lon="-1.8484461966101344"><ele>65.8</ele><time>2026-03-24T11:20:09Z</time></trkpt><trkpt lat="47.75324319501926" lon="-1.8483004432657584"><ele>65.6</ele><time>2026-03-24T11:20:13Z</time></trkpt><trkpt lat="47.75326782696664" lon="-1.8481340361552596"><ele>65.4</ele><time>2026-03-24T11:20:15Z</time></trkpt><trkpt lat="47.75327577035469" lon="-1.8480309949677658"><ele>65.2</ele><time>2026-03-24T11:20:16Z</time></trkpt><trkpt lat="47.753278218060586" lon="-1.8479122118722278"><ele>65.0</ele><time>2026-03-24T11:20:17Z</time></trkpt><trkpt lat="47.75328621540466" lon="-1.8477861055222122"><ele>65.0</ele><time>2026-03-24T11:20:18Z</time></trkpt><trkpt lat="47.753296264744094" lon="-1.8476425459990384"><ele>65.0</ele><time>2026-03-24T11:20:19Z</time></trkpt><trkpt lat="47.753315258336855" lon="-1.847470899006997"><ele>65.0</ele><time>2026-03-24T11:20:20Z</time></trkpt><trkpt lat="47.75332844576472" lon="-1.8472851838568272"><ele>65.0</ele><time>2026-03-24T11:20:21Z</time></trkpt><trkpt lat="47.75335076203313" lon="-1.8470764332513139"><ele>64.33333333333334</ele><time>2026-03-24T11:20:22Z</time></trkpt><trkpt lat="47.753377824699164" lon="-1.846840182202551"><ele>63.66666666666667</ele><time>2026-03-24T11:20:22.999Z</time></trkpt><trkpt lat="47.75339174657584" lon="-1.8465970958562543"><ele>63.0</ele><time>2026-03-24T11:20:23.999Z</time></trkpt><trkpt lat="47.753405094850656" lon="-1.8463642847966837"><ele>62.33333333333333</ele><time>2026-03-24T11:20:24.999Z</time></trkpt><trkpt lat="47.75343241633813" lon="-1.846110311835347"><ele>61.666666666666664</ele><time>2026-03-24T11:20:25.999Z</time></trkpt><trkpt lat="47.753447359266026" lon="-1.8458956292537818"><ele>61.0</ele><time>2026-03-24T11:20:26.999Z</time></trkpt><trkpt lat="47.75346516296892" lon="-1.8456995379221641"><ele>60.5</ele><time>2026-03-24T11:20:27.999Z</time></trkpt><trkpt lat="47.7534799948967" lon="-1.845513927297235"><ele>60.0</ele><time>2026-03-24T11:20:28.999Z</time></trkpt><trkpt lat="47.7534943922569" lon="-1.8453200643990673"><ele>59.5</ele><time>2026-03-24T11:20:29.999Z</time></trkpt><trkpt lat="47.75351808714283" lon="-1.8451363076907576"><ele>59.0</ele><time>2026-03-24T11:20:30.999Z</time></trkpt><trkpt lat="47.75353212524373" lon="-1.8449823640064071"><ele>59.0</ele><time>2026-03-24T11:20:31.999Z</time></trkpt><trkpt lat="47.753544854044314" lon="-1.8448286525702355"><ele>59.0</ele><time>2026-03-24T11:20:32.999Z</time></trkpt><trkpt lat="47.75356362860596" lon="-1.8446583950288187"><ele>59.0</ele><time>2026-03-24T11:20:33.999Z</time></trkpt><trkpt lat="47.75357844752291" lon="-1.8444653611241406"><ele>59.0</ele><time>2026-03-24T11:20:34.999Z</time></trkpt><trkpt lat="47.75358969767153" lon="-1.8442821122430606"><ele>59.0</ele><time>2026-03-24T11:20:35.999Z</time></trkpt><trkpt lat="47.753603618884185" lon="-1.844119359765487"><ele>59.00000000000001</ele><time>2026-03-24T11:20:36.999Z</time></trkpt><trkpt lat="47.75362140315288" lon="-1.8439722448728042"><ele>59.00000000000001</ele><time>2026-03-24T11:20:37.999Z</time></trkpt><trkpt lat="47.75363525219529" lon="-1.8438169657799275"><ele>59.0</ele><time>2026-03-24T11:20:38.999Z</time></trkpt><trkpt lat="47.753647805933426" lon="-1.8436748052789493"><ele>59.0</ele><time>2026-03-24T11:20:39.999Z</time></trkpt><trkpt lat="47.753661145672" lon="-1.8435362805738666"><ele>58.16666666666667</ele><time>2026-03-24T11:20:40.999Z</time></trkpt><trkpt lat="47.7536758411307" lon="-1.8434006276737425"><ele>57.333333333333336</ele><time>2026-03-24T11:20:41.999Z</time></trkpt><trkpt lat="47.753687862569706" lon="-1.8432777223826795"><ele>56.5</ele><time>2026-03-24T11:20:42.999Z</time></trkpt><trkpt lat="47.75368212672972" lon="-1.8431475857700155"><ele>55.66666666666667</ele><time>2026-03-24T11:20:43.999Z</time></trkpt><trkpt lat="47.75369390783672" lon="-1.8430366396344662"><ele>54.833333333333336</ele><time>2026-03-24T11:20:44.999Z</time></trkpt><trkpt lat="47.753713488052675" lon="-1.842893019078859"><ele>54.0</ele><time>2026-03-24T11:20:46.999Z</time></trkpt><trkpt lat="47.75369278230957" lon="-1.8427875308882486"><ele>53.5</ele><time>2026-03-24T11:20:58.999Z</time></trkpt><trkpt lat="47.75344340804684" lon="-1.8428843044249772"><ele>53.0</ele><time>2026-03-24T11:21:00.999Z</time></trkpt><trkpt lat="47.75335898813853" lon="-1.8429372751338142"><ele>52.5</ele><time>2026-03-24T11:21:01.999Z</time></trkpt><trkpt lat="47.753279665717855" lon="-1.8430064922629537"><ele>52.0</ele><time>2026-03-24T11:21:02.999Z</time></trkpt><trkpt lat="47.75321245022104" lon="-1.8430775312244274"><ele>52.0</ele><time>2026-03-24T11:21:03.999Z</time></trkpt><trkpt lat="47.75315315106848" lon="-1.8431177690811258"><ele>52.0</ele><time>2026-03-24T11:21:05.999Z</time></trkpt><trkpt lat="47.75303974893387" lon="-1.8432204923999818"><ele>52.0</ele><time>2026-03-24T11:21:07.999Z</time></trkpt><trkpt lat="47.75296570546196" lon="-1.8432779384459768"><ele>52.0</ele><time>2026-03-24T11:21:08.999Z</time></trkpt><trkpt lat="47.75286693299375" lon="-1.8433370080213258"><ele>52.0</ele><time>2026-03-24T11:21:09.999Z</time></trkpt><trkpt lat="47.752768699820415" lon="-1.8434022771167107"><ele>54.0</ele><time>2026-03-24T11:21:10.999Z</time></trkpt><trkpt lat="47.7526722283196" lon="-1.8435046211088144"><ele>56.0</ele><time>2026-03-24T11:21:11.999Z</time></trkpt><trkpt lat="47.75257347062932" lon="-1.8435810206815162"><ele>58.0</ele><time>2026-03-24T11:21:12.999Z</time></trkpt><trkpt lat="47.75247538570405" lon="-1.8436970219533635"><ele>60.0</ele><time>2026-03-24T11:21:13.999Z</time></trkpt><trkpt lat="47.75237270484722" lon="-1.8437697806354443"><ele>60.0</ele><time>2026-03-24T11:21:14.999Z</time></trkpt><trkpt lat="47.75228120714515" lon="-1.8438258908937823"><ele>60.0</ele><time>2026-03-24T11:21:15.999Z</time></trkpt><trkpt lat="47.75221105054005" lon="-1.843950065827869"><ele>60.0</ele><time>2026-03-24T11:21:16.999Z</time></trkpt><trkpt lat="47.75214122341089" lon="-1.8439842667273452"><ele>60.0</ele><time>2026-03-24T11:21:17.999Z</time></trkpt><trkpt lat="47.75208204461886" lon="-1.8440287891705471"><ele>60.0</ele><time>2026-03-24T11:21:18.999Z</time></trkpt><trkpt lat="47.75199708317102" lon="-1.8441027334387"><ele>60.0</ele><time>2026-03-24T11:21:20.999Z</time></trkpt><trkpt lat="47.75193726589433" lon="-1.8440057488827701"><ele>60.0</ele><time>2026-03-24T11:21:21.999Z</time></trkpt><trkpt lat="47.75186148572052" lon="-1.8439931331843453"><ele>60.0</ele><time>2026-03-24T11:21:23.999Z</time></trkpt><trkpt lat="47.751917492179146" lon="-1.843717788778672"><ele>60.0</ele><time>2026-03-24T11:21:24.999Z</time></trkpt><trkpt lat="47.751937576039346" lon="-1.8435638605415978"><ele>60.0</ele><time>2026-03-24T11:21:25.999Z</time></trkpt><trkpt lat="47.751966962941275" lon="-1.84341142544605"><ele>60.0</ele><time>2026-03-24T11:21:26.999Z</time></trkpt><trkpt lat="47.75197584183296" lon="-1.8432676843235896"><ele>60.0</ele><time>2026-03-24T11:21:27.999Z</time></trkpt><trkpt lat="47.75199364220085" lon="-1.8431403531640274"><ele>60.0</ele><time>2026-03-24T11:21:28.999Z</time></trkpt><trkpt lat="47.75201087994597" lon="-1.8429954466809773"><ele>60.0</ele><time>2026-03-24T11:21:29.998Z</time></trkpt><trkpt lat="47.75202845059604" lon="-1.8428482229521614"><ele>60.0</ele><time>2026-03-24T11:21:30.998Z</time></trkpt><trkpt lat="47.75202607902243" lon="-1.8427106623700813"><ele>59.6</ele><time>2026-03-24T11:21:31.998Z</time></trkpt><trkpt lat="47.75203854471394" lon="-1.8425838956092033"><ele>59.2</ele><time>2026-03-24T11:21:32.998Z</time></trkpt><trkpt lat="47.75204856353231" lon="-1.8424820117445733"><ele>58.8</ele><time>2026-03-24T11:21:33.998Z</time></trkpt><trkpt lat="47.75206300411868" lon="-1.842335161784092"><ele>58.4</ele><time>2026-03-24T11:21:34.998Z</time></trkpt><trkpt lat="47.7520946965443" lon="-1.8422026907990896"><ele>58.0</ele><time>2026-03-24T11:21:35.998Z</time></trkpt><trkpt lat="47.75210742622085" lon="-1.8420470127521653"><ele>58.0</ele><time>2026-03-24T11:21:36.998Z</time></trkpt><trkpt lat="47.752116060245875" lon="-1.8418998273043392"><ele>58.0</ele><time>2026-03-24T11:21:37.998Z</time></trkpt><trkpt lat="47.75211621002522" lon="-1.841753701316218"><ele>58.0</ele><time>2026-03-24T11:21:38.998Z</time></trkpt><trkpt lat="47.75212562719798" lon="-1.8415847956803413"><ele>58.0</ele><time>2026-03-24T11:21:39.998Z</time></trkpt><trkpt lat="47.752142942955196" lon="-1.84141448816064"><ele>58.0</ele><time>2026-03-24T11:21:40.998Z</time></trkpt><trkpt lat="47.75216852773665" lon="-1.8412596420384393"><ele>58.0</ele><time>2026-03-24T11:21:41.998Z</time></trkpt><trkpt lat="47.752202036961805" lon="-1.841098305843562"><ele>58.0</ele><time>2026-03-24T11:21:42.998Z</time></trkpt><trkpt lat="47.75223017746695" lon="-1.8409360924904654"><ele>58.0</ele><time>2026-03-24T11:21:44Z</time></trkpt><trkpt lat="47.75226872534045" lon="-1.8408596565011135"><ele>58.0</ele><time>2026-03-24T11:21:45Z</time></trkpt><trkpt lat="47.75230933376596" lon="-1.8407315010873617"><ele>58.0</ele><time>2026-03-24T11:21:46Z</time></trkpt><trkpt lat="47.75235268420719" lon="-1.840619619248802"><ele>57.666666666666664</ele><time>2026-03-24T11:21:47Z</time></trkpt><trkpt lat="47.75239619109469" lon="-1.8404644812918847"><ele>57.33333333333333</ele><time>2026-03-24T11:21:48Z</time></trkpt><trkpt lat="47.75241563570866" lon="-1.8403263054938734"><ele>57.0</ele><time>2026-03-24T11:21:49Z</time></trkpt><trkpt lat="47.75244361082501" lon="-1.8402336725257114"><ele>56.66666666666667</ele><time>2026-03-24T11:21:50Z</time></trkpt><trkpt lat="47.75247609914258" lon="-1.8401307387066246"><ele>56.333333333333336</ele><time>2026-03-24T11:21:51Z</time></trkpt><trkpt lat="47.75248936570589" lon="-1.840022128327569"><ele>56.0</ele><time>2026-03-24T11:21:52Z</time></trkpt><trkpt lat="47.75250434761498" lon="-1.8399124856401565"><ele>55.66666666666667</ele><time>2026-03-24T11:21:53Z</time></trkpt><trkpt lat="47.75253042034596" lon="-1.8398008631819374"><ele>55.333333333333336</ele><time>2026-03-24T11:21:54Z</time></trkpt><trkpt lat="47.75254974454153" lon="-1.8396704919346238"><ele>55.0</ele><time>2026-03-24T11:21:55Z</time></trkpt><trkpt lat="47.752576374753495" lon="-1.8395585682330866"><ele>54.66666666666667</ele><time>2026-03-24T11:21:56Z</time></trkpt><trkpt lat="47.75257603627291" lon="-1.8394326375847434"><ele>54.333333333333336</ele><time>2026-03-24T11:21:57Z</time></trkpt><trkpt lat="47.75259554474879" lon="-1.839298468558919"><ele>54.0</ele><time>2026-03-24T11:21:58Z</time></trkpt><trkpt lat="47.752617955477334" lon="-1.839203009402367"><ele>54.0</ele><time>2026-03-24T11:21:59Z</time></trkpt><trkpt lat="47.75263816023432" lon="-1.8390905875434662"><ele>54.00000000000001</ele><time>2026-03-24T11:22:00Z</time></trkpt><trkpt lat="47.75265148445022" lon="-1.838988155862008"><ele>54.00000000000001</ele><time>2026-03-24T11:22:01Z</time></trkpt><trkpt lat="47.75264759199572" lon="-1.838803989285379"><ele>54.0</ele><time>2026-03-24T11:22:03Z</time></trkpt><trkpt lat="47.752638131261186" lon="-1.8387083321868036"><ele>54.0</ele><time>2026-03-24T11:22:04Z</time></trkpt><trkpt lat="47.75260033134166" lon="-1.8385456383732344"><ele>51.0</ele><time>2026-03-24T11:22:06Z</time></trkpt><trkpt lat="47.75253401532756" lon="-1.8384494567765575"><ele>48.00000000000001</ele><time>2026-03-24T11:22:07Z</time></trkpt><trkpt lat="47.75248433983347" lon="-1.8383727514975694"><ele>45.0</ele><time>2026-03-24T11:22:08Z</time></trkpt><trkpt lat="47.752442615971624" lon="-1.8382984236024833"><ele>42.0</ele><time>2026-03-24T11:22:09Z</time></trkpt><trkpt lat="47.75234222936257" lon="-1.8381954586737597"><ele>39.0</ele><time>2026-03-24T11:22:11Z</time></trkpt><trkpt lat="47.752222003036074" lon="-1.838154908577972"><ele>39.0</ele><time>2026-03-24T11:22:13Z</time></trkpt><trkpt lat="47.75215487790981" lon="-1.8381466629005947"><ele>39.0</ele><time>2026-03-24T11:22:14Z</time></trkpt><trkpt lat="47.7520380378549" lon="-1.8381100295239505"><ele>39.0</ele><time>2026-03-24T11:22:16Z</time></trkpt><trkpt lat="47.75191765751496" lon="-1.8380584832177158"><ele>39.0</ele><time>2026-03-24T11:22:18Z</time></trkpt><trkpt lat="47.75185099711223" lon="-1.838025686315182"><ele>39.0</ele><time>2026-03-24T11:22:19Z</time></trkpt><trkpt lat="47.75180781754903" lon="-1.8379297372480285"><ele>38.0</ele><time>2026-03-24T11:22:20Z</time></trkpt><trkpt lat="47.751681916539646" lon="-1.8378915425106388"><ele>37.0</ele><time>2026-03-24T11:22:22Z</time></trkpt><trkpt lat="47.75160959229466" lon="-1.8378666225874505"><ele>36.0</ele><time>2026-03-24T11:22:23Z</time></trkpt><trkpt lat="47.75153994729726" lon="-1.8378316645529322"><ele>35.0</ele><time>2026-03-24T11:22:24Z</time></trkpt><trkpt lat="47.75146891758752" lon="-1.8377974705073494"><ele>34.0</ele><time>2026-03-24T11:22:25Z</time></trkpt><trkpt lat="47.75137052934466" lon="-1.8378205828590317"><ele>34.0</ele><time>2026-03-24T11:22:26Z</time></trkpt><trkpt lat="47.75126425265792" lon="-1.8378529698963013"><ele>34.0</ele><time>2026-03-24T11:22:27Z</time></trkpt><trkpt lat="47.751157645652334" lon="-1.837811241991089"><ele>34.0</ele><time>2026-03-24T11:22:27.999Z</time></trkpt><trkpt lat="47.75103813301139" lon="-1.8378117362731088"><ele>34.0</ele><time>2026-03-24T11:22:28.999Z</time></trkpt><trkpt lat="47.750930073949796" lon="-1.8378137263319663"><ele>34.0</ele><time>2026-03-24T11:22:29.999Z</time></trkpt><trkpt lat="47.75083677020178" lon="-1.8378202958444514"><ele>32.4</ele><time>2026-03-24T11:22:30.999Z</time></trkpt><trkpt lat="47.75074922874028" lon="-1.837813555998423"><ele>30.799999999999997</ele><time>2026-03-24T11:22:31.999Z</time></trkpt><trkpt lat="47.75066431997265" lon="-1.837800829395425"><ele>29.200000000000003</ele><time>2026-03-24T11:22:32.999Z</time></trkpt><trkpt lat="47.75056913839785" lon="-1.837770872031051"><ele>27.6</ele><time>2026-03-24T11:22:33.999Z</time></trkpt><trkpt lat="47.75047800206717" lon="-1.8377723536609734"><ele>26.0</ele><time>2026-03-24T11:22:34.999Z</time></trkpt><trkpt lat="47.75037496152089" lon="-1.8377753314096192"><ele>26.0</ele><time>2026-03-24T11:22:35.999Z</time></trkpt><trkpt lat="47.750271277325325" lon="-1.837769832141599"><ele>26.0</ele><time>2026-03-24T11:22:36.999Z</time></trkpt><trkpt lat="47.75018075254535" lon="-1.8377880060647798"><ele>26.0</ele><time>2026-03-24T11:22:37.999Z</time></trkpt><trkpt lat="47.750094939676394" lon="-1.837803997174738"><ele>26.0</ele><time>2026-03-24T11:22:38.999Z</time></trkpt><trkpt lat="47.74998592512225" lon="-1.8378018277683184"><ele>26.0</ele><time>2026-03-24T11:22:39.999Z</time></trkpt><trkpt lat="47.74990387751906" lon="-1.8378127083918314"><ele>25.166666666666664</ele><time>2026-03-24T11:22:40.999Z</time></trkpt><trkpt lat="47.74982404239134" lon="-1.837821628755615"><ele>24.333333333333332</ele><time>2026-03-24T11:22:41.999Z</time></trkpt><trkpt lat="47.749757152674185" lon="-1.8378135332640428"><ele>23.5</ele><time>2026-03-24T11:22:42.999Z</time></trkpt><trkpt lat="47.749667146330566" lon="-1.8378214343446206"><ele>22.666666666666664</ele><time>2026-03-24T11:22:43.999Z</time></trkpt><trkpt lat="47.74957958832677" lon="-1.8378437461327928"><ele>21.833333333333332</ele><time>2026-03-24T11:22:44.999Z</time></trkpt><trkpt lat="47.749485856543124" lon="-1.83789117943956"><ele>21.0</ele><time>2026-03-24T11:22:45.999Z</time></trkpt><trkpt lat="47.74939136466319" lon="-1.8379287423035156"><ele>20.0</ele><time>2026-03-24T11:22:46.999Z</time></trkpt><trkpt lat="47.74928204391435" lon="-1.8379731412680322"><ele>19.0</ele><time>2026-03-24T11:22:47.999Z</time></trkpt><trkpt lat="47.749175065999644" lon="-1.838012908438795"><ele>18.0</ele><time>2026-03-24T11:22:48.999Z</time></trkpt><trkpt lat="47.74908136526842" lon="-1.8380527678882752"><ele>17.0</ele><time>2026-03-24T11:22:49.999Z</time></trkpt><trkpt lat="47.748973893165505" lon="-1.838100392652448"><ele>16.0</ele><time>2026-03-24T11:22:50.999Z</time></trkpt><trkpt lat="47.74886136931182" lon="-1.8381501395319009"><ele>15.999999999999998</ele><time>2026-03-24T11:22:51.999Z</time></trkpt><trkpt lat="47.74877255421528" lon="-1.8381949422920216"><ele>16.0</ele><time>2026-03-24T11:22:52.999Z</time></trkpt><trkpt lat="47.74871851563866" lon="-1.8382452172463501"><ele>16.0</ele><time>2026-03-24T11:22:53.999Z</time></trkpt><trkpt lat="47.74863468606816" lon="-1.8383044177337309"><ele>16.0</ele><time>2026-03-24T11:22:55.999Z</time></trkpt><trkpt lat="47.7485721687407" lon="-1.838229568290844"><ele>15.999999999999998</ele><time>2026-03-24T11:23:01.999Z</time></trkpt><trkpt lat="47.74852976725644" lon="-1.8380752469935173"><ele>16.0</ele><time>2026-03-24T11:23:03.999Z</time></trkpt><trkpt lat="47.74855068784956" lon="-1.8379421947545798"><ele>15.5</ele><time>2026-03-24T11:23:04.999Z</time></trkpt><trkpt lat="47.7484930543082" lon="-1.8378458979791272"><ele>15.0</ele><time>2026-03-24T11:23:06.999Z</time></trkpt><trkpt lat="47.74843141592103" lon="-1.8377571138796505"><ele>14.5</ele><time>2026-03-24T11:23:08.999Z</time></trkpt><trkpt lat="47.748372838850166" lon="-1.837720809921687"><ele>14.0</ele><time>2026-03-24T11:23:11.999Z</time></trkpt><trkpt lat="47.74815147258597" lon="-1.837987185830964"><ele>14.0</ele><time>2026-03-24T11:23:12.999Z</time></trkpt><trkpt lat="47.748024001378035" lon="-1.83804641058463"><ele>13.999999999999998</ele><time>2026-03-24T11:23:14.999Z</time></trkpt><trkpt lat="47.74794373764555" lon="-1.8380922376980728"><ele>13.999999999999998</ele><time>2026-03-24T11:23:15.999Z</time></trkpt><trkpt lat="47.747863795120224" lon="-1.8381388812375514"><ele>14.0</ele><time>2026-03-24T11:23:16.999Z</time></trkpt><trkpt lat="47.74778953048976" lon="-1.8381824599715069"><ele>14.0</ele><time>2026-03-24T11:23:17.999Z</time></trkpt><trkpt lat="47.74771376219428" lon="-1.838221918577972"><ele>13.6</ele><time>2026-03-24T11:23:18.999Z</time></trkpt><trkpt lat="47.74763488581871" lon="-1.8382734749199505"><ele>13.2</ele><time>2026-03-24T11:23:19.999Z</time></trkpt><trkpt lat="47.74756331800465" lon="-1.8383321421473493"><ele>12.799999999999999</ele><time>2026-03-24T11:23:20.999Z</time></trkpt><trkpt lat="47.74746809472826" lon="-1.8383896605601948"><ele>12.399999999999999</ele><time>2026-03-24T11:23:21.999Z</time></trkpt><trkpt lat="47.747380832264746" lon="-1.8384469837617257"><ele>12.0</ele><time>2026-03-24T11:23:22.999Z</time></trkpt><trkpt lat="47.74728689571879" lon="-1.8385265790888707"><ele>12.0</ele><time>2026-03-24T11:23:23.999Z</time></trkpt><trkpt lat="47.74719139845742" lon="-1.838590543372371"><ele>12.0</ele><time>2026-03-24T11:23:24.999Z</time></trkpt><trkpt lat="47.74710786122353" lon="-1.8386519621440278"><ele>12.0</ele><time>2026-03-24T11:23:25.999Z</time></trkpt><trkpt lat="47.74702040491462" lon="-1.8387147349617021"><ele>12.0</ele><time>2026-03-24T11:23:26.999Z</time></trkpt><trkpt lat="47.746928492297876" lon="-1.8387868197218218"><ele>12.0</ele><time>2026-03-24T11:23:27.999Z</time></trkpt><trkpt lat="47.746850074204126" lon="-1.838843656635463"><ele>11.5</ele><time>2026-03-24T11:23:28.999Z</time></trkpt><trkpt lat="47.74676612712494" lon="-1.838906093136908"><ele>11.0</ele><time>2026-03-24T11:23:29.999Z</time></trkpt><trkpt lat="47.74669574253298" lon="-1.8389779405166327"><ele>10.5</ele><time>2026-03-24T11:23:30.999Z</time></trkpt><trkpt lat="47.746628867386946" lon="-1.8390335700731648"><ele>10.0</ele><time>2026-03-24T11:23:31.999Z</time></trkpt><trkpt lat="47.74656232303891" lon="-1.8391121207186052"><ele>9.5</ele><time>2026-03-24T11:23:32.999Z</time></trkpt><trkpt lat="47.746510710334086" lon="-1.8391789193671833"><ele>9.0</ele><time>2026-03-24T11:23:33.998Z</time></trkpt><trkpt lat="47.74646175208396" lon="-1.839237804826436"><ele>8.8</ele><time>2026-03-24T11:23:34.998Z</time></trkpt><trkpt lat="47.74639527712118" lon="-1.8393158429993715"><ele>8.600000000000001</ele><time>2026-03-24T11:23:35.998Z</time></trkpt><trkpt lat="47.74633709600799" lon="-1.839361168252997"><ele>8.4</ele><time>2026-03-24T11:23:36.998Z</time></trkpt><trkpt lat="47.74626869692843" lon="-1.8394108276538703"><ele>8.200000000000001</ele><time>2026-03-24T11:23:37.998Z</time></trkpt><trkpt lat="47.746174768884664" lon="-1.8394945192467702"><ele>8.0</ele><time>2026-03-24T11:23:39.998Z</time></trkpt><trkpt lat="47.7460757894537" lon="-1.839584339885571"><ele>8.166666666666666</ele><time>2026-03-24T11:23:41.998Z</time></trkpt><trkpt lat="47.74601881912462" lon="-1.8396471804426855"><ele>8.333333333333332</ele><time>2026-03-24T11:23:42.998Z</time></trkpt><trkpt lat="47.74597019373546" lon="-1.8397101270317515"><ele>8.5</ele><time>2026-03-24T11:23:43.998Z</time></trkpt><trkpt lat="47.74587288329678" lon="-1.8398214695619541"><ele>8.666666666666666</ele><time>2026-03-24T11:23:45.998Z</time></trkpt><trkpt lat="47.74579820699135" lon="-1.8398724554003285"><ele>8.833333333333334</ele><time>2026-03-24T11:23:46.998Z</time></trkpt><trkpt lat="47.74573592174564" lon="-1.8399147224313828"><ele>9.0</ele><time>2026-03-24T11:23:47.998Z</time></trkpt><trkpt lat="47.745681189632265" lon="-1.8399713211202784"><ele>9.0</ele><time>2026-03-24T11:23:48.998Z</time></trkpt><trkpt lat="47.745617363034555" lon="-1.8400183741860785"><ele>9.0</ele><time>2026-03-24T11:23:50Z</time></trkpt><trkpt lat="47.74550903330757" lon="-1.8401195483871085"><ele>9.0</ele><time>2026-03-24T11:23:52Z</time></trkpt><trkpt lat="47.74545190905218" lon="-1.8401815070294594"><ele>9.0</ele><time>2026-03-24T11:23:53Z</time></trkpt><trkpt lat="47.74538847965276" lon="-1.840243241531274"><ele>9.0</ele><time>2026-03-24T11:23:54Z</time></trkpt><trkpt lat="47.7453257312023" lon="-1.8403169606273266"><ele>9.0</ele><time>2026-03-24T11:23:55Z</time></trkpt><trkpt lat="47.745248268080765" lon="-1.8403857844633498"><ele>8.833333333333334</ele><time>2026-03-24T11:23:56Z</time></trkpt><trkpt lat="47.745185973853296" lon="-1.8404342415772905"><ele>8.666666666666666</ele><time>2026-03-24T11:23:57Z</time></trkpt><trkpt lat="47.74511712603067" lon="-1.8404995550348202"><ele>8.5</ele><time>2026-03-24T11:23:58Z</time></trkpt><trkpt lat="47.74504663445956" lon="-1.8405596589894846"><ele>8.333333333333332</ele><time>2026-03-24T11:23:59Z</time></trkpt><trkpt lat="47.74498724439095" lon="-1.8406123672231365"><ele>8.166666666666666</ele><time>2026-03-24T11:24:00Z</time></trkpt><trkpt lat="47.74491646668291" lon="-1.8406867448447963"><ele>8.0</ele><time>2026-03-24T11:24:01Z</time></trkpt><trkpt lat="47.74485867883076" lon="-1.8407511821404203"><ele>7.999999999999999</ele><time>2026-03-24T11:24:02Z</time></trkpt><trkpt lat="47.74479026359646" lon="-1.840807920381234"><ele>8.0</ele><time>2026-03-24T11:24:03Z</time></trkpt><trkpt lat="47.7447289618025" lon="-1.8408737917418505"><ele>8.0</ele><time>2026-03-24T11:24:04Z</time></trkpt><trkpt lat="47.74466126540448" lon="-1.8409421201025866"><ele>8.0</ele><time>2026-03-24T11:24:05Z</time></trkpt><trkpt lat="47.74460305775543" lon="-1.8410080007593423"><ele>7.999999999999999</ele><time>2026-03-24T11:24:06Z</time></trkpt><trkpt lat="47.74453696050878" lon="-1.841064236603224"><ele>8.0</ele><time>2026-03-24T11:24:07Z</time></trkpt><trkpt lat="47.74446597037351" lon="-1.8411286624366838"><ele>7.999999999999999</ele><time>2026-03-24T11:24:08Z</time></trkpt><trkpt lat="47.74438662889794" lon="-1.8412051346369183"><ele>8.0</ele><time>2026-03-24T11:24:09Z</time></trkpt><trkpt lat="47.74430563750647" lon="-1.8412603824988054"><ele>8.0</ele><time>2026-03-24T11:24:10Z</time></trkpt><trkpt lat="47.744230112496304" lon="-1.8413438635231196"><ele>8.0</ele><time>2026-03-24T11:24:11Z</time></trkpt><trkpt lat="47.74416944699526" lon="-1.8414117028853012"><ele>7.999999999999999</ele><time>2026-03-24T11:24:12Z</time></trkpt><trkpt lat="47.74410630925923" lon="-1.8414544876489563"><ele>8.0</ele><time>2026-03-24T11:24:13Z</time></trkpt><trkpt lat="47.744038698678004" lon="-1.8415075326659711"><ele>7.999999999999999</ele><time>2026-03-24T11:24:14Z</time></trkpt><trkpt lat="47.7439758905587" lon="-1.8415517423445138"><ele>8.0</ele><time>2026-03-24T11:24:15Z</time></trkpt><trkpt lat="47.743911584691475" lon="-1.8416122578816498"><ele>8.0</ele><time>2026-03-24T11:24:16Z</time></trkpt><trkpt lat="47.74384232417886" lon="-1.8416835054048752"><ele>8.0</ele><time>2026-03-24T11:24:17Z</time></trkpt><trkpt lat="47.743767373951115" lon="-1.841743643549993"><ele>7.999999999999999</ele><time>2026-03-24T11:24:18Z</time></trkpt><trkpt lat="47.743696974434236" lon="-1.841813816325786"><ele>8.0</ele><time>2026-03-24T11:24:19Z</time></trkpt><trkpt lat="47.74361479878508" lon="-1.8418783130465886"><ele>8.200000000000001</ele><time>2026-03-24T11:24:20Z</time></trkpt><trkpt lat="47.743537559712" lon="-1.841952176389215"><ele>8.4</ele><time>2026-03-24T11:24:21Z</time></trkpt><trkpt lat="47.74344757297412" lon="-1.8420153690309022"><ele>8.600000000000001</ele><time>2026-03-24T11:24:22Z</time></trkpt><trkpt lat="47.74336304825479" lon="-1.8420914650930447"><ele>8.8</ele><time>2026-03-24T11:24:23Z</time></trkpt><trkpt lat="47.7432724534335" lon="-1.8421737061311647"><ele>9.0</ele><time>2026-03-24T11:24:24Z</time></trkpt><trkpt lat="47.74318939481757" lon="-1.8422361288575702"><ele>9.0</ele><time>2026-03-24T11:24:25Z</time></trkpt><trkpt lat="47.743133164961016" lon="-1.8423197599133982"><ele>9.0</ele><time>2026-03-24T11:24:26Z</time></trkpt><trkpt lat="47.74304916757862" lon="-1.842402925410519"><ele>9.0</ele><time>2026-03-24T11:24:27Z</time></trkpt><trkpt lat="47.742970488138" lon="-1.8424791451386673"><ele>9.0</ele><time>2026-03-24T11:24:28Z</time></trkpt><trkpt lat="47.74289413243331" lon="-1.8425640084994654"><ele>9.0</ele><time>2026-03-24T11:24:29Z</time></trkpt><trkpt lat="47.74280490465375" lon="-1.8426412008861026"><ele>8.8</ele><time>2026-03-24T11:24:30Z</time></trkpt><trkpt lat="47.74272982468645" lon="-1.8427132866027236"><ele>8.600000000000001</ele><time>2026-03-24T11:24:31Z</time></trkpt><trkpt lat="47.74264027443138" lon="-1.8427828240710482"><ele>8.4</ele><time>2026-03-24T11:24:32Z</time></trkpt><trkpt lat="47.74256420357893" lon="-1.8428473449096348"><ele>8.200000000000001</ele><time>2026-03-24T11:24:33Z</time></trkpt><trkpt lat="47.74247962279391" lon="-1.842921704227922"><ele>8.0</ele><time>2026-03-24T11:24:34Z</time></trkpt><trkpt lat="47.742419712010964" lon="-1.8429905367431516"><ele>7.999999999999999</ele><time>2026-03-24T11:24:34.999Z</time></trkpt><trkpt lat="47.742364663944365" lon="-1.8430362092465844"><ele>8.0</ele><time>2026-03-24T11:24:35.999Z</time></trkpt><trkpt lat="47.74229808830427" lon="-1.8430887058370322"><ele>8.0</ele><time>2026-03-24T11:24:36.999Z</time></trkpt><trkpt lat="47.74223009764307" lon="-1.8431399913555473"><ele>8.0</ele><time>2026-03-24T11:24:37.999Z</time></trkpt><trkpt lat="47.74215773386648" lon="-1.8431778685374307"><ele>7.999999999999999</ele><time>2026-03-24T11:24:38.999Z</time></trkpt><trkpt lat="47.742089315964826" lon="-1.8432094717197005"><ele>8.0</ele><time>2026-03-24T11:24:39.999Z</time></trkpt><trkpt lat="47.74199457399522" lon="-1.8431563662282828"><ele>7.999999999999999</ele><time>2026-03-24T11:24:40.999Z</time></trkpt><trkpt lat="47.741913706104484" lon="-1.8431056737266094"><ele>8.0</ele><time>2026-03-24T11:24:41.999Z</time></trkpt><trkpt lat="47.74183981734938" lon="-1.8430888669879886"><ele>8.0</ele><time>2026-03-24T11:24:42.999Z</time></trkpt><trkpt lat="47.741749627992476" lon="-1.8430570878447057"><ele>8.0</ele><time>2026-03-24T11:24:43.999Z</time></trkpt><trkpt lat="47.74168017585071" lon="-1.8430310912423205"><ele>7.999999999999999</ele><time>2026-03-24T11:24:44.999Z</time></trkpt><trkpt lat="47.74159975609226" lon="-1.8429820032868252"><ele>8.0</ele><time>2026-03-24T11:24:45.999Z</time></trkpt><trkpt lat="47.741521675091796" lon="-1.8429379508331707"><ele>7.999999999999999</ele><time>2026-03-24T11:24:46.999Z</time></trkpt><trkpt lat="47.74143864076589" lon="-1.8428895706198833"><ele>8.0</ele><time>2026-03-24T11:24:47.999Z</time></trkpt><trkpt lat="47.74135188469394" lon="-1.842864523274744"><ele>8.0</ele><time>2026-03-24T11:24:48.999Z</time></trkpt><trkpt lat="47.74126379964216" lon="-1.8428344105197976"><ele>8.0</ele><time>2026-03-24T11:24:49.999Z</time></trkpt><trkpt lat="47.74117987014257" lon="-1.8427968558442616"><ele>7.999999999999999</ele><time>2026-03-24T11:24:50.999Z</time></trkpt><trkpt lat="47.741108338105605" lon="-1.8427547452879158"><ele>8.0</ele><time>2026-03-24T11:24:51.999Z</time></trkpt><trkpt lat="47.740998912094625" lon="-1.8427782759263285"><ele>7.6000000000000005</ele><time>2026-03-24T11:24:53.999Z</time></trkpt><trkpt lat="47.74093663859145" lon="-1.8428293113057415"><ele>7.200000000000001</ele><time>2026-03-24T11:24:54.999Z</time></trkpt><trkpt lat="47.740888186804575" lon="-1.8430194184351272"><ele>6.8</ele><time>2026-03-24T11:24:55.999Z</time></trkpt><trkpt lat="47.74080935678345" lon="-1.8430757509525344"><ele>6.4</ele><time>2026-03-24T11:24:56.999Z</time></trkpt><trkpt lat="47.740703952612414" lon="-1.8431270937029418"><ele>6.0</ele><time>2026-03-24T11:24:57.999Z</time></trkpt><trkpt lat="47.740600393194924" lon="-1.8431699535889234"><ele>6.0</ele><time>2026-03-24T11:24:58.999Z</time></trkpt><trkpt lat="47.74049401393748" lon="-1.843213980398724"><ele>6.0</ele><time>2026-03-24T11:24:59.999Z</time></trkpt><trkpt lat="47.74040318891713" lon="-1.8432512895699833"><ele>6.0</ele><time>2026-03-24T11:25:00.999Z</time></trkpt><trkpt lat="47.74028538397724" lon="-1.843280672910026"><ele>6.0</ele><time>2026-03-24T11:25:01.999Z</time></trkpt><trkpt lat="47.74017271837774" lon="-1.8433242882738858"><ele>6.0</ele><time>2026-03-24T11:25:02.999Z</time></trkpt><trkpt lat="47.74004082793563" lon="-1.84338978445585"><ele>7.0</ele><time>2026-03-24T11:25:03.999Z</time></trkpt><trkpt lat="47.7399437845768" lon="-1.8434692001492743"><ele>8.0</ele><time>2026-03-24T11:25:04.999Z</time></trkpt><trkpt lat="47.73983820298372" lon="-1.8435247981680396"><ele>9.0</ele><time>2026-03-24T11:25:05.999Z</time></trkpt><trkpt lat="47.739728722317096" lon="-1.8436021132862472"><ele>10.0</ele><time>2026-03-24T11:25:06.999Z</time></trkpt><trkpt lat="47.7396095812785" lon="-1.8436973477666787"><ele>10.0</ele><time>2026-03-24T11:25:07.999Z</time></trkpt><trkpt lat="47.73948148778483" lon="-1.8437888261621083"><ele>10.0</ele><time>2026-03-24T11:25:08.999Z</time></trkpt><trkpt lat="47.73939506680213" lon="-1.843833774636405"><ele>10.0</ele><time>2026-03-24T11:25:09.999Z</time></trkpt><trkpt lat="47.73930981907651" lon="-1.8438948053769335"><ele>10.0</ele><time>2026-03-24T11:25:10.999Z</time></trkpt><trkpt lat="47.73926053851403" lon="-1.8439919447637096"><ele>10.0</ele><time>2026-03-24T11:25:11.999Z</time></trkpt><trkpt lat="47.73923391081334" lon="-1.8441005092921907"><ele>10.0</ele><time>2026-03-24T11:25:12.999Z</time></trkpt><trkpt lat="47.73928410824844" lon="-1.8442060812411931"><ele>10.0</ele><time>2026-03-24T11:25:13.999Z</time></trkpt><trkpt lat="47.73928953141041" lon="-1.8443140321419942"><ele>10.0</ele><time>2026-03-24T11:25:14.999Z</time></trkpt><trkpt lat="47.73927395849483" lon="-1.8444276026640942"><ele>10.0</ele><time>2026-03-24T11:25:17.999Z</time></trkpt><trkpt lat="47.73928538488121" lon="-1.8441963301920627"><ele>10.0</ele><time>2026-03-24T11:25:22.999Z</time></trkpt><trkpt lat="47.73914179159424" lon="-1.8439043879943826"><ele>9.0</ele><time>2026-03-24T11:25:24.999Z</time></trkpt><trkpt lat="47.7390976301199" lon="-1.8437123429725981"><ele>8.0</ele><time>2026-03-24T11:25:25.999Z</time></trkpt><trkpt lat="47.73906246738535" lon="-1.8435456875567584"><ele>7.0</ele><time>2026-03-24T11:25:26.999Z</time></trkpt><trkpt lat="47.73902763540455" lon="-1.8433722849608916"><ele>6.0</ele><time>2026-03-24T11:25:27.999Z</time></trkpt><trkpt lat="47.7390287995906" lon="-1.8432298113057657"><ele>6.0</ele><time>2026-03-24T11:25:28.999Z</time></trkpt><trkpt lat="47.738972675934235" lon="-1.8430075319084112"><ele>6.0</ele><time>2026-03-24T11:25:29.999Z</time></trkpt><trkpt lat="47.738937490502124" lon="-1.8427714876719152"><ele>6.0</ele><time>2026-03-24T11:25:30.999Z</time></trkpt><trkpt lat="47.738902050726075" lon="-1.8425645521899807"><ele>6.0</ele><time>2026-03-24T11:25:31.999Z</time></trkpt><trkpt lat="47.738864883428434" lon="-1.842342382678156"><ele>6.0</ele><time>2026-03-24T11:25:32.999Z</time></trkpt><trkpt lat="47.73882413196455" lon="-1.8421010529946984"><ele>6.0</ele><time>2026-03-24T11:25:33.999Z</time></trkpt><trkpt lat="47.738781846986484" lon="-1.8418455129303961"><ele>7.0</ele><time>2026-03-24T11:25:34.999Z</time></trkpt><trkpt lat="47.738736540590914" lon="-1.8415845650673395"><ele>8.0</ele><time>2026-03-24T11:25:35.999Z</time></trkpt><trkpt lat="47.73870860004993" lon="-1.8413284058233759"><ele>9.0</ele><time>2026-03-24T11:25:36.999Z</time></trkpt><trkpt lat="47.738706207972555" lon="-1.8410659837719536"><ele>9.333333333333334</ele><time>2026-03-24T11:25:37.999Z</time></trkpt><trkpt lat="47.738716908855295" lon="-1.840788661790793"><ele>9.666666666666668</ele><time>2026-03-24T11:25:38.999Z</time></trkpt><trkpt lat="47.73877022833047" lon="-1.8405127039239022"><ele>10.0</ele><time>2026-03-24T11:25:39.999Z</time></trkpt><trkpt lat="47.73884139439628" lon="-1.8402591062185447"><ele>10.75</ele><time>2026-03-24T11:25:40.999Z</time></trkpt><trkpt lat="47.73891811989641" lon="-1.840082750796746"><ele>11.5</ele><time>2026-03-24T11:25:41.999Z</time></trkpt><trkpt lat="47.73897645973402" lon="-1.8399065579193974"><ele>12.25</ele><time>2026-03-24T11:25:42.998Z</time></trkpt><trkpt lat="47.739002639803736" lon="-1.8397759486704082"><ele>13.0</ele><time>2026-03-24T11:25:43.998Z</time></trkpt><trkpt lat="47.73888927687938" lon="-1.8396017565180296"><ele>13.0</ele><time>2026-03-24T11:25:45.998Z</time></trkpt><trkpt lat="47.73882249984066" lon="-1.8394964291820293"><ele>13.0</ele><time>2026-03-24T11:25:46.998Z</time></trkpt><trkpt lat="47.73873459504381" lon="-1.8393649043353768"><ele>13.0</ele><time>2026-03-24T11:25:47.998Z</time></trkpt><trkpt lat="47.73861608933151" lon="-1.8391891193554448"><ele>13.0</ele><time>2026-03-24T11:25:48.998Z</time></trkpt><trkpt lat="47.73850160629631" lon="-1.8390193013977751"><ele>13.0</ele><time>2026-03-24T11:25:49.998Z</time></trkpt><trkpt lat="47.73841106696961" lon="-1.8388694566037187"><ele>13.0</ele><time>2026-03-24T11:25:50.998Z</time></trkpt><trkpt lat="47.73828223419245" lon="-1.8386958375154892"><ele>13.0</ele><time>2026-03-24T11:25:51.998Z</time></trkpt><trkpt lat="47.73815864975837" lon="-1.838514561737189"><ele>12.666666666666666</ele><time>2026-03-24T11:25:52.998Z</time></trkpt><trkpt lat="47.7380446044814" lon="-1.8383180960312937"><ele>12.333333333333332</ele><time>2026-03-24T11:25:53.998Z</time></trkpt><trkpt lat="47.737922101699574" lon="-1.8381361810003396"><ele>12.0</ele><time>2026-03-24T11:25:54.998Z</time></trkpt><trkpt lat="47.73781643601413" lon="-1.8379782299262675"><ele>12.333333333333332</ele><time>2026-03-24T11:25:56Z</time></trkpt><trkpt lat="47.737705603141976" lon="-1.8378180906496517"><ele>12.666666666666666</ele><time>2026-03-24T11:25:57Z</time></trkpt><trkpt lat="47.73758700316513" lon="-1.8376700461429325"><ele>13.0</ele><time>2026-03-24T11:25:58Z</time></trkpt><trkpt lat="47.73747399874112" lon="-1.8375030479567833"><ele>13.0</ele><time>2026-03-24T11:25:59Z</time></trkpt><trkpt lat="47.737366617182666" lon="-1.8373443590413652"><ele>13.0</ele><time>2026-03-24T11:26:00Z</time></trkpt><trkpt lat="47.73725588072186" lon="-1.8371807120584815"><ele>13.0</ele><time>2026-03-24T11:26:01Z</time></trkpt><trkpt lat="47.737139833820514" lon="-1.8370091183060657"><ele>13.0</ele><time>2026-03-24T11:26:02Z</time></trkpt><trkpt lat="47.73702426113002" lon="-1.8368389090127626"><ele>13.0</ele><time>2026-03-24T11:26:03Z</time></trkpt><trkpt lat="47.73690644948944" lon="-1.8366660799766539"><ele>13.0</ele><time>2026-03-24T11:26:04Z</time></trkpt><trkpt lat="47.73678677296753" lon="-1.8364905151817337"><ele>13.0</ele><time>2026-03-24T11:26:05Z</time></trkpt><trkpt lat="47.73666472145367" lon="-1.8363114662830071"><ele>13.0</ele><time>2026-03-24T11:26:06Z</time></trkpt><trkpt lat="47.736545346420854" lon="-1.8361363877674137"><ele>13.0</ele><time>2026-03-24T11:26:07Z</time></trkpt><trkpt lat="47.73642213311076" lon="-1.8359557126057804"><ele>13.333333333333332</ele><time>2026-03-24T11:26:08Z</time></trkpt><trkpt lat="47.73629434840551" lon="-1.83576833393447"><ele>13.666666666666668</ele><time>2026-03-24T11:26:09Z</time></trkpt><trkpt lat="47.73617939951325" lon="-1.8355660112600447"><ele>14.0</ele><time>2026-03-24T11:26:10Z</time></trkpt><trkpt lat="47.736065427306706" lon="-1.83540648073445"><ele>13.25</ele><time>2026-03-24T11:26:11Z</time></trkpt><trkpt lat="47.735958933788666" lon="-1.8352544473017223"><ele>12.5</ele><time>2026-03-24T11:26:12Z</time></trkpt><trkpt lat="47.73586223278414" lon="-1.8351337979308653"><ele>11.75</ele><time>2026-03-24T11:26:13Z</time></trkpt><trkpt lat="47.73579426931276" lon="-1.835034768226863"><ele>11.0</ele><time>2026-03-24T11:26:14Z</time></trkpt><trkpt lat="47.73573548185517" lon="-1.8349453648688177"><ele>11.0</ele><time>2026-03-24T11:26:15Z</time></trkpt><trkpt lat="47.7356812089754" lon="-1.8348634158865866"><ele>11.0</ele><time>2026-03-24T11:26:18Z</time></trkpt><trkpt lat="47.735605898839914" lon="-1.8347512953589915"><ele>11.0</ele><time>2026-03-24T11:26:21Z</time></trkpt><trkpt lat="47.73554572469254" lon="-1.834719801181333"><ele>11.0</ele><time>2026-03-24T11:26:22Z</time></trkpt><trkpt lat="47.73546588874665" lon="-1.834788188486975"><ele>11.0</ele><time>2026-03-24T11:26:23Z</time></trkpt><trkpt lat="47.73536874403141" lon="-1.8347924071688577"><ele>11.0</ele><time>2026-03-24T11:26:24Z</time></trkpt><trkpt lat="47.73529375673387" lon="-1.834797860514167"><ele>10.5</ele><time>2026-03-24T11:26:25Z</time></trkpt><trkpt lat="47.73520976254689" lon="-1.8348039688537112"><ele>10.0</ele><time>2026-03-24T11:26:26Z</time></trkpt><trkpt lat="47.73512085034337" lon="-1.8347891203624462"><ele>9.5</ele><time>2026-03-24T11:26:27Z</time></trkpt><trkpt lat="47.73503016500323" lon="-1.8347945964955157"><ele>9.0</ele><time>2026-03-24T11:26:28Z</time></trkpt><trkpt lat="47.73494405281184" lon="-1.8348232922081733"><ele>8.5</ele><time>2026-03-24T11:26:29Z</time></trkpt><trkpt lat="47.734876591584516" lon="-1.8348291086556892"><ele>8.0</ele><time>2026-03-24T11:26:30Z</time></trkpt><trkpt lat="47.7348021058121" lon="-1.8348172568021475"><ele>8.0</ele><time>2026-03-24T11:26:31Z</time></trkpt><trkpt lat="47.73472735910867" lon="-1.834863847761553"><ele>8.0</ele><time>2026-03-24T11:26:32Z</time></trkpt><trkpt lat="47.73466829939893" lon="-1.834896564312839"><ele>8.0</ele><time>2026-03-24T11:26:33Z</time></trkpt><trkpt lat="47.73460184469951" lon="-1.83498538552236"><ele>8.0</ele><time>2026-03-24T11:26:35Z</time></trkpt><trkpt lat="47.73460308478631" lon="-1.835098120516573"><ele>8.0</ele><time>2026-03-24T11:26:36Z</time></trkpt><trkpt lat="47.73460531519217" lon="-1.8353237920680956"><ele>7.800000000000001</ele><time>2026-03-24T11:26:38Z</time></trkpt><trkpt lat="47.73460423676876" lon="-1.8354747547670873"><ele>7.6000000000000005</ele><time>2026-03-24T11:26:39Z</time></trkpt><trkpt lat="47.734603254538555" lon="-1.835632456990808"><ele>7.3999999999999995</ele><time>2026-03-24T11:26:40Z</time></trkpt><trkpt lat="47.73460231495425" lon="-1.8357833126296699"><ele>7.199999999999999</ele><time>2026-03-24T11:26:41Z</time></trkpt><trkpt lat="47.73458764952553" lon="-1.835937168744275"><ele>7.0</ele><time>2026-03-24T11:26:42Z</time></trkpt><trkpt lat="47.73459788085677" lon="-1.8360963779003354"><ele>7.0</ele><time>2026-03-24T11:26:43Z</time></trkpt><trkpt lat="47.7345915115932" lon="-1.83621611276624"><ele>7.0</ele><time>2026-03-24T11:26:44.999Z</time></trkpt><trkpt lat="47.73445999367728" lon="-1.8364010167149731"><ele>7.0</ele><time>2026-03-24T11:26:46.999Z</time></trkpt><trkpt lat="47.734369935331465" lon="-1.8363984207561446"><ele>7.0</ele><time>2026-03-24T11:26:47.999Z</time></trkpt><trkpt lat="47.73426351728165" lon="-1.8363982107623684"><ele>6.25</ele><time>2026-03-24T11:26:48.999Z</time></trkpt><trkpt lat="47.7341449885419" lon="-1.8363743791905887"><ele>5.5</ele><time>2026-03-24T11:26:49.999Z</time></trkpt><trkpt lat="47.734039842987016" lon="-1.8363889056747076"><ele>4.75</ele><time>2026-03-24T11:26:50.999Z</time></trkpt><trkpt lat="47.73390987174949" lon="-1.8363851591845362"><ele>4.0</ele><time>2026-03-24T11:26:51.999Z</time></trkpt><trkpt lat="47.733769694060676" lon="-1.8363561874745042"><ele>4.0</ele><time>2026-03-24T11:26:52.999Z</time></trkpt><trkpt lat="47.733647205869715" lon="-1.8363359361009557"><ele>4.0</ele><time>2026-03-24T11:26:53.999Z</time></trkpt><trkpt lat="47.73352996424422" lon="-1.836247960310226"><ele>4.0</ele><time>2026-03-24T11:26:54.999Z</time></trkpt><trkpt lat="47.73343128360272" lon="-1.8361625122972844"><ele>4.0</ele><time>2026-03-24T11:26:55.999Z</time></trkpt><trkpt lat="47.73331315160385" lon="-1.8360510241716812"><ele>3.75</ele><time>2026-03-24T11:26:56.999Z</time></trkpt><trkpt lat="47.7332319250717" lon="-1.835991070561297"><ele>3.5</ele><time>2026-03-24T11:26:57.999Z</time></trkpt><trkpt lat="47.73309463947051" lon="-1.8358897393566629"><ele>3.25</ele><time>2026-03-24T11:26:58.999Z</time></trkpt><trkpt lat="47.732910601227644" lon="-1.8357730554849894"><ele>3.0</ele><time>2026-03-24T11:26:59.999Z</time></trkpt><trkpt lat="47.73276002339258" lon="-1.8356953844720443"><ele>3.0</ele><time>2026-03-24T11:27:00.999Z</time></trkpt><trkpt lat="47.7326372295225" lon="-1.835629106691394"><ele>3.0</ele><time>2026-03-24T11:27:01.999Z</time></trkpt><trkpt lat="47.73252553835212" lon="-1.8355682372104802"><ele>3.0</ele><time>2026-03-24T11:27:02.999Z</time></trkpt><trkpt lat="47.73240222134083" lon="-1.8354777440235501"><ele>3.0</ele><time>2026-03-24T11:27:03.999Z</time></trkpt><trkpt lat="47.7322870765873" lon="-1.8354270791856702"><ele>3.0</ele><time>2026-03-24T11:27:04.999Z</time></trkpt><trkpt lat="47.7321759031822" lon="-1.835367619020164"><ele>3.0</ele><time>2026-03-24T11:27:05.999Z</time></trkpt><trkpt lat="47.732074620915355" lon="-1.8353153982353985"><ele>3.0</ele><time>2026-03-24T11:27:06.999Z</time></trkpt><trkpt lat="47.73198628946773" lon="-1.8352591455339538"><ele>3.0</ele><time>2026-03-24T11:27:07.999Z</time></trkpt><trkpt lat="47.73186786381984" lon="-1.8351189323237092"><ele>3.5</ele><time>2026-03-24T11:27:08.999Z</time></trkpt><trkpt lat="47.73175512100539" lon="-1.8350081222697125"><ele>4.0</ele><time>2026-03-24T11:27:09.999Z</time></trkpt><trkpt lat="47.7316195978685" lon="-1.8348762282892714"><ele>4.5</ele><time>2026-03-24T11:27:10.999Z</time></trkpt><trkpt lat="47.731505996759545" lon="-1.8347656692628707"><ele>5.0</ele><time>2026-03-24T11:27:11.999Z</time></trkpt><trkpt lat="47.73139527771115" lon="-1.8346561525507104"><ele>5.0</ele><time>2026-03-24T11:27:12.999Z</time></trkpt><trkpt lat="47.73127478394184" lon="-1.83453628324159"><ele>5.0</ele><time>2026-03-24T11:27:13.999Z</time></trkpt><trkpt lat="47.73115096704377" lon="-1.8344149902476727"><ele>5.0</ele><time>2026-03-24T11:27:14.999Z</time></trkpt><trkpt lat="47.73103657400598" lon="-1.8343026411246421"><ele>5.0</ele><time>2026-03-24T11:27:15.999Z</time></trkpt><trkpt lat="47.73091135373335" lon="-1.8341715085680406"><ele>5.25</ele><time>2026-03-24T11:27:16.999Z</time></trkpt><trkpt lat="47.730794670359124" lon="-1.8340406585498257"><ele>5.5</ele><time>2026-03-24T11:27:17.999Z</time></trkpt><trkpt lat="47.73070193554084" lon="-1.8339002988772135"><ele>5.75</ele><time>2026-03-24T11:27:18.999Z</time></trkpt><trkpt lat="47.73060459872114" lon="-1.8337769557297192"><ele>6.0</ele><time>2026-03-24T11:27:19.999Z</time></trkpt><trkpt lat="47.730529505631004" lon="-1.833686331505051"><ele>6.0</ele><time>2026-03-24T11:27:20.999Z</time></trkpt><trkpt lat="47.7304758703034" lon="-1.8336205332803024"><ele>6.0</ele><time>2026-03-24T11:27:21.999Z</time></trkpt><trkpt lat="47.730411991559265" lon="-1.8338162855579958"><ele>6.0</ele><time>2026-03-24T11:27:27.999Z</time></trkpt><trkpt lat="47.73041202881568" lon="-1.8340503904437893"><ele>6.0</ele><time>2026-03-24T11:27:29.999Z</time></trkpt><trkpt lat="47.73041501462028" lon="-1.8341900364307846"><ele>5.75</ele><time>2026-03-24T11:27:30.999Z</time></trkpt><trkpt lat="47.730417579163834" lon="-1.8343345120639036"><ele>5.5</ele><time>2026-03-24T11:27:31.999Z</time></trkpt><trkpt lat="47.7304311231836" lon="-1.83451676726313"><ele>5.25</ele><time>2026-03-24T11:27:32.999Z</time></trkpt><trkpt lat="47.73048950668603" lon="-1.8347259349215435"><ele>5.0</ele><time>2026-03-24T11:27:33.999Z</time></trkpt><trkpt lat="47.73050396772722" lon="-1.834923156811754"><ele>5.0</ele><time>2026-03-24T11:27:34.999Z</time></trkpt><trkpt lat="47.730507981170526" lon="-1.8351303355955537"><ele>5.0</ele><time>2026-03-24T11:27:35.999Z</time></trkpt><trkpt lat="47.73054736867226" lon="-1.8352800683378634"><ele>5.0</ele><time>2026-03-24T11:27:36.999Z</time></trkpt><trkpt lat="47.73056616091168" lon="-1.8354492194908818"><ele>5.0</ele><time>2026-03-24T11:27:37.999Z</time></trkpt><trkpt lat="47.730571518593756" lon="-1.8356161651688652"><ele>5.0</ele><time>2026-03-24T11:27:38.999Z</time></trkpt><trkpt lat="47.73058214357045" lon="-1.8357610893059895"><ele>5.0</ele><time>2026-03-24T11:27:39.999Z</time></trkpt><trkpt lat="47.73060939527285" lon="-1.8359266791060078"><ele>5.0</ele><time>2026-03-24T11:27:43.999Z</time></trkpt><trkpt lat="47.73061064718565" lon="-1.8360204168428391"><ele>5.0</ele><time>2026-03-24T11:27:44.999Z</time></trkpt><trkpt lat="47.73061701652947" lon="-1.836132183091587"><ele>5.0</ele><time>2026-03-24T11:27:45.999Z</time></trkpt><trkpt lat="47.73061952290401" lon="-1.8362710008592005"><ele>5.0</ele><time>2026-03-24T11:27:47.999Z</time></trkpt><trkpt lat="47.730629098217754" lon="-1.8364016225902162"><ele>5.0</ele><time>2026-03-24T11:27:49.999Z</time></trkpt><trkpt lat="47.73061427213617" lon="-1.8365000704798553"><ele>5.0</ele><time>2026-03-24T11:27:53.998Z</time></trkpt><trkpt lat="47.73062557199834" lon="-1.8363535215798772"><ele>5.0</ele><time>2026-03-24T11:28:02Z</time></trkpt><trkpt lat="47.73059223192641" lon="-1.8361270321872096"><ele>5.0</ele><time>2026-03-24T11:28:04Z</time></trkpt><trkpt lat="47.730453846472884" lon="-1.8357168264228865"><ele>5.0</ele><time>2026-03-24T11:28:05Z</time></trkpt><trkpt lat="47.730363364456686" lon="-1.835694205504654"><ele>5.0</ele><time>2026-03-24T11:28:06Z</time></trkpt><trkpt lat="47.73028584350012" lon="-1.8356748223998567"><ele>5.0</ele><time>2026-03-24T11:28:07Z</time></trkpt><trkpt lat="47.73018307298565" lon="-1.8356491257864425"><ele>5.0</ele><time>2026-03-24T11:28:09Z</time></trkpt><trkpt lat="47.730098369256694" lon="-1.8356343128756385"><ele>5.0</ele><time>2026-03-24T11:28:10Z</time></trkpt><trkpt lat="47.72999926174763" lon="-1.8356062719164352"><ele>5.25</ele><time>2026-03-24T11:28:11Z</time></trkpt><trkpt lat="47.729908227598976" lon="-1.8355891621522802"><ele>5.5</ele><time>2026-03-24T11:28:12Z</time></trkpt><trkpt lat="47.729793947990345" lon="-1.8355434257167353"><ele>5.75</ele><time>2026-03-24T11:28:13Z</time></trkpt><trkpt lat="47.72966469592338" lon="-1.8355169088668497"><ele>6.0</ele><time>2026-03-24T11:28:14Z</time></trkpt><trkpt lat="47.729535360422275" lon="-1.835504393193669"><ele>6.0</ele><time>2026-03-24T11:28:15Z</time></trkpt><trkpt lat="47.72940749818361" lon="-1.835458549614278"><ele>6.0</ele><time>2026-03-24T11:28:16Z</time></trkpt><trkpt lat="47.72928350540688" lon="-1.8354191930076167"><ele>6.0</ele><time>2026-03-24T11:28:17Z</time></trkpt><trkpt lat="47.72914908244778" lon="-1.835382223749632"><ele>6.0</ele><time>2026-03-24T11:28:18Z</time></trkpt><trkpt lat="47.72898175603754" lon="-1.8353535547315016"><ele>6.0</ele><time>2026-03-24T11:28:19Z</time></trkpt><trkpt lat="47.728848261324046" lon="-1.835320296990178"><ele>6.0</ele><time>2026-03-24T11:28:20Z</time></trkpt><trkpt lat="47.72871536684381" lon="-1.83529384316517"><ele>6.0</ele><time>2026-03-24T11:28:21Z</time></trkpt><trkpt lat="47.72856922760681" lon="-1.8352463182093746"><ele>6.0</ele><time>2026-03-24T11:28:22Z</time></trkpt><trkpt lat="47.72841425847309" lon="-1.8352058127359046"><ele>5.666666666666667</ele><time>2026-03-24T11:28:23Z</time></trkpt><trkpt lat="47.72823888171905" lon="-1.8351615530611836"><ele>5.333333333333334</ele><time>2026-03-24T11:28:24Z</time></trkpt><trkpt lat="47.728056425617325" lon="-1.8351110180603594"><ele>5.0</ele><time>2026-03-24T11:28:25Z</time></trkpt><trkpt lat="47.7278960496302" lon="-1.8350638785352764"><ele>5.0</ele><time>2026-03-24T11:28:26Z</time></trkpt><trkpt lat="47.72774454648593" lon="-1.8350120414562248"><ele>5.0</ele><time>2026-03-24T11:28:27Z</time></trkpt><trkpt lat="47.727579780357466" lon="-1.8349686335402293"><ele>5.0</ele><time>2026-03-24T11:28:28Z</time></trkpt><trkpt lat="47.727407686609304" lon="-1.8349244983339523"><ele>4.666666666666667</ele><time>2026-03-24T11:28:29Z</time></trkpt><trkpt lat="47.72723356795198" lon="-1.83488463322488"><ele>4.333333333333333</ele><time>2026-03-24T11:28:30Z</time></trkpt><trkpt lat="47.727045794277245" lon="-1.8348474388925744"><ele>4.0</ele><time>2026-03-24T11:28:31Z</time></trkpt><trkpt lat="47.72687083318934" lon="-1.834796261546846"><ele>3.6666666666666665</ele><time>2026-03-24T11:28:32Z</time></trkpt><trkpt lat="47.726696238049804" lon="-1.8347112777035641"><ele>3.333333333333333</ele><time>2026-03-24T11:28:33Z</time></trkpt><trkpt lat="47.72651524684646" lon="-1.8346803337488673"><ele>3.0</ele><time>2026-03-24T11:28:34Z</time></trkpt><trkpt lat="47.72635684790955" lon="-1.8346389316430824"><ele>3.0</ele><time>2026-03-24T11:28:35Z</time></trkpt><trkpt lat="47.72622212524811" lon="-1.8346164157774003"><ele>3.0</ele><time>2026-03-24T11:28:36Z</time></trkpt><trkpt lat="47.726080126844856" lon="-1.8345963673921748"><ele>3.0</ele><time>2026-03-24T11:28:37Z</time></trkpt><trkpt lat="47.725959072568074" lon="-1.8345752941842992"><ele>3.0</ele><time>2026-03-24T11:28:38Z</time></trkpt><trkpt lat="47.72585848993915" lon="-1.8345427261307041"><ele>3.25</ele><time>2026-03-24T11:28:39Z</time></trkpt><trkpt lat="47.72577931339081" lon="-1.8345098786690943"><ele>3.5</ele><time>2026-03-24T11:28:40Z</time></trkpt><trkpt lat="47.725696250968014" lon="-1.8344990715835863"><ele>3.75</ele><time>2026-03-24T11:28:41.999Z</time></trkpt><trkpt lat="47.72561371274695" lon="-1.8349026973452964"><ele>4.0</ele><time>2026-03-24T11:28:56.999Z</time></trkpt><trkpt lat="47.72559662952565" lon="-1.8350856204358215"><ele>3.5</ele><time>2026-03-24T11:28:57.999Z</time></trkpt><trkpt lat="47.725586036094576" lon="-1.835287003888583"><ele>3.0</ele><time>2026-03-24T11:28:58.999Z</time></trkpt><trkpt lat="47.72556902183178" lon="-1.835486464488853"><ele>2.5</ele><time>2026-03-24T11:28:59.999Z</time></trkpt><trkpt lat="47.72555128921885" lon="-1.8357309601157772"><ele>2.0</ele><time>2026-03-24T11:29:00.999Z</time></trkpt><trkpt lat="47.72553524126095" lon="-1.8359795421757188"><ele>2.0</ele><time>2026-03-24T11:29:01.999Z</time></trkpt><trkpt lat="47.725521130149374" lon="-1.8362075523177896"><ele>2.0</ele><time>2026-03-24T11:29:02.999Z</time></trkpt><trkpt lat="47.725512496452886" lon="-1.8363618163221982"><ele>2.0</ele><time>2026-03-24T11:29:03.999Z</time></trkpt><trkpt lat="47.72550867639595" lon="-1.8364842873264504"><ele>2.0</ele><time>2026-03-24T11:29:05.999Z</time></trkpt><trkpt lat="47.72546775869977" lon="-1.8363769890408697"><ele>2.0</ele><time>2026-03-24T11:29:14.999Z</time></trkpt><trkpt lat="47.7255245047708" lon="-1.8363260231860243"><ele>2.0</ele><time>2026-03-24T11:29:15.999Z</time></trkpt><trkpt lat="47.72553558956564" lon="-1.8361379894568743"><ele>2.0</ele><time>2026-03-24T11:29:17.999Z</time></trkpt><trkpt lat="47.725545848771695" lon="-1.8359690260425026"><ele>2.0</ele><time>2026-03-24T11:29:18.999Z</time></trkpt><trkpt lat="47.72556171546488" lon="-1.835827224686654"><ele>2.0</ele><time>2026-03-24T11:29:19.999Z</time></trkpt><trkpt lat="47.72557902861759" lon="-1.8356526741510102"><ele>2.0</ele><time>2026-03-24T11:29:20.999Z</time></trkpt><trkpt lat="47.72558777830703" lon="-1.8354407411133948"><ele>2.0</ele><time>2026-03-24T11:29:21.999Z</time></trkpt><trkpt lat="47.725611357438716" lon="-1.8352730241157797"><ele>2.0</ele><time>2026-03-24T11:29:22.999Z</time></trkpt><trkpt lat="47.72562963081761" lon="-1.8350582169085543"><ele>2.0</ele><time>2026-03-24T11:29:23.999Z</time></trkpt><trkpt lat="47.72564886946792" lon="-1.834874780457085"><ele>2.2</ele><time>2026-03-24T11:29:24.999Z</time></trkpt><trkpt lat="47.72566179440054" lon="-1.8347256374859064"><ele>2.4000000000000004</ele><time>2026-03-24T11:29:25.999Z</time></trkpt><trkpt lat="47.725656472619804" lon="-1.8346050959060731"><ele>2.5999999999999996</ele><time>2026-03-24T11:29:26.999Z</time></trkpt><trkpt lat="47.72568328818004" lon="-1.8345067481863182"><ele>2.8</ele><time>2026-03-24T11:29:27.999Z</time></trkpt><trkpt lat="47.72569479581228" lon="-1.8343201945345369"><ele>3.0</ele><time>2026-03-24T11:29:29.999Z</time></trkpt><trkpt lat="47.72570106172274" lon="-1.8342086595725031"><ele>3.0</ele><time>2026-03-24T11:29:30.999Z</time></trkpt><trkpt lat="47.725706771407104" lon="-1.8340808996371454"><ele>3.0</ele><time>2026-03-24T11:29:31.999Z</time></trkpt><trkpt lat="47.72571419689886" lon="-1.8339578617434082"><ele>3.0</ele><time>2026-03-24T11:29:32.999Z</time></trkpt><trkpt lat="47.725713342346104" lon="-1.8338641012238708"><ele>3.0</ele><time>2026-03-24T11:29:33.999Z</time></trkpt><trkpt lat="47.725725971119985" lon="-1.8336889371408907"><ele>3.0</ele><time>2026-03-24T11:29:36.999Z</time></trkpt><trkpt lat="47.725689099463466" lon="-1.8335827035419414"><ele>3.0</ele><time>2026-03-24T11:29:37.999Z</time></trkpt><trkpt lat="47.72561218745907" lon="-1.8335144672403687"><ele>3.333333333333333</ele><time>2026-03-24T11:29:38.999Z</time></trkpt><trkpt lat="47.7257643969127" lon="-1.8332770759395107"><ele>3.6666666666666665</ele><time>2026-03-24T11:29:39.999Z</time></trkpt><trkpt lat="47.7257829568776" lon="-1.833111070195932"><ele>4.0</ele><time>2026-03-24T11:29:40.999Z</time></trkpt><trkpt lat="47.725795475538696" lon="-1.8328973391018308"><ele>4.0</ele><time>2026-03-24T11:29:41.999Z</time></trkpt><trkpt lat="47.72580644087562" lon="-1.8326804448270828"><ele>4.0</ele><time>2026-03-24T11:29:42.999Z</time></trkpt><trkpt lat="47.72581942484533" lon="-1.832505435236085"><ele>4.0</ele><time>2026-03-24T11:29:43.999Z</time></trkpt><trkpt lat="47.725829329173784" lon="-1.8323601729410148"><ele>4.0</ele><time>2026-03-24T11:29:44.999Z</time></trkpt><trkpt lat="47.72583305160663" lon="-1.8322408780656592"><ele>4.0</ele><time>2026-03-24T11:29:45.999Z</time></trkpt><trkpt lat="47.72581635740851" lon="-1.8321367136103988"><ele>4.0</ele><time>2026-03-24T11:29:46.999Z</time></trkpt><trkpt lat="47.72577564170585" lon="-1.8320310929792056"><ele>4.0</ele><time>2026-03-24T11:29:47.999Z</time></trkpt><trkpt lat="47.7257022088665" lon="-1.8319240183944883"><ele>4.0</ele><time>2026-03-24T11:29:48.999Z</time></trkpt><trkpt lat="47.725647643717565" lon="-1.8318157861656175"><ele>4.0</ele><time>2026-03-24T11:29:49.998Z</time></trkpt><trkpt lat="47.7256043943464" lon="-1.8316910593115612"><ele>4.0</ele><time>2026-03-24T11:29:50.998Z</time></trkpt><trkpt lat="47.72558944566266" lon="-1.8315730460768065"><ele>4.0</ele><time>2026-03-24T11:29:51.998Z</time></trkpt><trkpt lat="47.72560292922184" lon="-1.8314357302154378"><ele>4.0</ele><time>2026-03-24T11:29:52.998Z</time></trkpt><trkpt lat="47.72565389303131" lon="-1.8312998725976513"><ele>4.0</ele><time>2026-03-24T11:29:53.998Z</time></trkpt><trkpt lat="47.72569188505936" lon="-1.8311463611312735"><ele>4.0</ele><time>2026-03-24T11:29:54.998Z</time></trkpt><trkpt lat="47.725739291791875" lon="-1.830995105198342"><ele>4.0</ele><time>2026-03-24T11:29:55.998Z</time></trkpt><trkpt lat="47.725768521096164" lon="-1.8308274320360713"><ele>4.2</ele><time>2026-03-24T11:29:56.998Z</time></trkpt><trkpt lat="47.72580743761901" lon="-1.830666403287255"><ele>4.4</ele><time>2026-03-24T11:29:57.998Z</time></trkpt><trkpt lat="47.725843339360146" lon="-1.83053796282663"><ele>4.6</ele><time>2026-03-24T11:29:58.998Z</time></trkpt><trkpt lat="47.725864569279985" lon="-1.8304097071903633"><ele>4.8</ele><time>2026-03-24T11:29:59.998Z</time></trkpt><trkpt lat="47.72590626398925" lon="-1.8302739701758337"><ele>5.0</ele><time>2026-03-24T11:30:01.998Z</time></trkpt><trkpt lat="47.72578431304808" lon="-1.83017329541666"><ele>5.0</ele><time>2026-03-24T11:30:03.998Z</time></trkpt><trkpt lat="47.72571077745747" lon="-1.830119633465873"><ele>5.0</ele><time>2026-03-24T11:30:04.998Z</time></trkpt><trkpt lat="47.72562490090266" lon="-1.8301001401366408"><ele>5.0</ele><time>2026-03-24T11:30:05.998Z</time></trkpt><trkpt lat="47.72555412869008" lon="-1.830048220982655"><ele>5.0</ele><time>2026-03-24T11:30:06.998Z</time></trkpt><trkpt lat="47.72544239463967" lon="-1.8300054612411176"><ele>5.0</ele><time>2026-03-24T11:30:08Z</time></trkpt><trkpt lat="47.72534245055682" lon="-1.8299564581539844"><ele>5.0</ele><time>2026-03-24T11:30:09Z</time></trkpt><trkpt lat="47.7252366561203" lon="-1.829893606500833"><ele>5.0</ele><time>2026-03-24T11:30:10Z</time></trkpt><trkpt lat="47.725114952280556" lon="-1.82984571319084"><ele>5.0</ele><time>2026-03-24T11:30:11Z</time></trkpt><trkpt lat="47.72501958011148" lon="-1.82975739456648"><ele>5.0</ele><time>2026-03-24T11:30:12Z</time></trkpt><trkpt lat="47.724923677883005" lon="-1.8297415585977184"><ele>5.0</ele><time>2026-03-24T11:30:13Z</time></trkpt><trkpt lat="47.72484005003718" lon="-1.8296846398724065"><ele>5.2</ele><time>2026-03-24T11:30:14Z</time></trkpt><trkpt lat="47.724747250685496" lon="-1.8296537355398166"><ele>5.4</ele><time>2026-03-24T11:30:15Z</time></trkpt><trkpt lat="47.724663945876266" lon="-1.8296047188264457"><ele>5.6</ele><time>2026-03-24T11:30:16Z</time></trkpt><trkpt lat="47.724572514811996" lon="-1.8295405837882839"><ele>5.8</ele><time>2026-03-24T11:30:17Z</time></trkpt><trkpt lat="47.72449541516017" lon="-1.8294596295751697"><ele>6.0</ele><time>2026-03-24T11:30:18Z</time></trkpt><trkpt lat="47.724402801749314" lon="-1.8293887477343806"><ele>5.25</ele><time>2026-03-24T11:30:19Z</time></trkpt><trkpt lat="47.72431563737253" lon="-1.8293091923872198"><ele>4.5</ele><time>2026-03-24T11:30:20Z</time></trkpt><trkpt lat="47.72421075258059" lon="-1.8291976340539562"><ele>3.75</ele><time>2026-03-24T11:30:21Z</time></trkpt><trkpt lat="47.72409512173805" lon="-1.8290604571351983"><ele>3.0</ele><time>2026-03-24T11:30:22Z</time></trkpt><trkpt lat="47.723971936100554" lon="-1.8289309622492573"><ele>3.0</ele><time>2026-03-24T11:30:23Z</time></trkpt><trkpt lat="47.72385273724245" lon="-1.8288265010571738"><ele>3.0</ele><time>2026-03-24T11:30:24Z</time></trkpt><trkpt lat="47.72371537667428" lon="-1.828689402720459"><ele>3.0</ele><time>2026-03-24T11:30:25Z</time></trkpt><trkpt lat="47.72358343098318" lon="-1.828550168802076"><ele>3.333333333333333</ele><time>2026-03-24T11:30:26Z</time></trkpt><trkpt lat="47.723446646865675" lon="-1.8284202271916465"><ele>3.6666666666666665</ele><time>2026-03-24T11:30:27Z</time></trkpt><trkpt lat="47.72333178006188" lon="-1.8282876834062431"><ele>4.0</ele><time>2026-03-24T11:30:28Z</time></trkpt><trkpt lat="47.72319450372198" lon="-1.8281513578873057"><ele>4.0</ele><time>2026-03-24T11:30:29Z</time></trkpt><trkpt lat="47.723072501809874" lon="-1.8280243782585945"><ele>4.0</ele><time>2026-03-24T11:30:30Z</time></trkpt><trkpt lat="47.72295436705033" lon="-1.8279342184801866"><ele>4.0</ele><time>2026-03-24T11:30:31Z</time></trkpt><trkpt lat="47.722873908104766" lon="-1.8278602411630729"><ele>4.0</ele><time>2026-03-24T11:30:32Z</time></trkpt><trkpt lat="47.72281265404587" lon="-1.8277891434839286"><ele>4.0</ele><time>2026-03-24T11:30:33Z</time></trkpt><trkpt lat="47.72273924642595" lon="-1.8276842969607103"><ele>4.0</ele><time>2026-03-24T11:30:35Z</time></trkpt><trkpt lat="47.72273888636608" lon="-1.8275592955670763"><ele>4.0</ele><time>2026-03-24T11:30:39Z</time></trkpt><trkpt lat="47.72263746830899" lon="-1.8274656156699483"><ele>4.0</ele><time>2026-03-24T11:30:41Z</time></trkpt><trkpt lat="47.72252531006274" lon="-1.8274023409507183"><ele>4.0</ele><time>2026-03-24T11:30:43Z</time></trkpt><trkpt lat="47.72243383191686" lon="-1.827342027229144"><ele>4.2</ele><time>2026-03-24T11:30:44Z</time></trkpt><trkpt lat="47.722334410885466" lon="-1.8272935892389173"><ele>4.4</ele><time>2026-03-24T11:30:45Z</time></trkpt><trkpt lat="47.722230357729394" lon="-1.8272511977460382"><ele>4.6</ele><time>2026-03-24T11:30:46Z</time></trkpt><trkpt lat="47.72213186165586" lon="-1.8272013346673361"><ele>4.8</ele><time>2026-03-24T11:30:47Z</time></trkpt><trkpt lat="47.722027821890535" lon="-1.8271638735656228"><ele>5.0</ele><time>2026-03-24T11:30:48Z</time></trkpt><trkpt lat="47.72191551014677" lon="-1.8271162799319602"><ele>5.25</ele><time>2026-03-24T11:30:49Z</time></trkpt><trkpt lat="47.721772675992256" lon="-1.8270617684618002"><ele>5.5</ele><time>2026-03-24T11:30:50Z</time></trkpt><trkpt lat="47.7216213891873" lon="-1.8270024059937853"><ele>5.75</ele><time>2026-03-24T11:30:51Z</time></trkpt><trkpt lat="47.72148194564613" lon="-1.826960154781683"><ele>6.0</ele><time>2026-03-24T11:30:51.999Z</time></trkpt><trkpt lat="47.72134827587512" lon="-1.8269178142132323"><ele>6.0</ele><time>2026-03-24T11:30:52.999Z</time></trkpt><trkpt lat="47.72121601216528" lon="-1.8268944776193714"><ele>6.0</ele><time>2026-03-24T11:30:53.999Z</time></trkpt><trkpt lat="47.72109291768958" lon="-1.8268744525248772"><ele>6.0</ele><time>2026-03-24T11:30:54.999Z</time></trkpt><trkpt lat="47.72094811008687" lon="-1.8268303802087122"><ele>6.0</ele><time>2026-03-24T11:30:55.999Z</time></trkpt><trkpt lat="47.72079628155512" lon="-1.8267925156179996"><ele>5.666666666666667</ele><time>2026-03-24T11:30:56.999Z</time></trkpt><trkpt lat="47.72064223243859" lon="-1.8267522621177537"><ele>5.333333333333334</ele><time>2026-03-24T11:30:57.999Z</time></trkpt><trkpt lat="47.72048435554835" lon="-1.826724821871241"><ele>5.0</ele><time>2026-03-24T11:30:58.999Z</time></trkpt><trkpt lat="47.72032461781706" lon="-1.8267032360945958"><ele>5.0</ele><time>2026-03-24T11:30:59.999Z</time></trkpt><trkpt lat="47.72017376202187" lon="-1.826684367119923"><ele>5.0</ele><time>2026-03-24T11:31:00.999Z</time></trkpt><trkpt lat="47.72002040088853" lon="-1.8266584696467383"><ele>5.0</ele><time>2026-03-24T11:31:01.999Z</time></trkpt><trkpt lat="47.71985047563203" lon="-1.8266230734119029"><ele>5.0</ele><time>2026-03-24T11:31:02.999Z</time></trkpt><trkpt lat="47.71969174398543" lon="-1.8265997983683897"><ele>5.0</ele><time>2026-03-24T11:31:03.999Z</time></trkpt><trkpt lat="47.719531562695366" lon="-1.8265757315467361"><ele>5.0</ele><time>2026-03-24T11:31:04.999Z</time></trkpt><trkpt lat="47.71936783248104" lon="-1.8265542822256953"><ele>5.0</ele><time>2026-03-24T11:31:05.999Z</time></trkpt><trkpt lat="47.71921137013338" lon="-1.8265365368460753"><ele>5.0</ele><time>2026-03-24T11:31:06.999Z</time></trkpt><trkpt lat="47.719037639008086" lon="-1.8265000557631512"><ele>5.0</ele><time>2026-03-24T11:31:07.999Z</time></trkpt><trkpt lat="47.71886798859563" lon="-1.8264692596810963"><ele>5.0</ele><time>2026-03-24T11:31:08.999Z</time></trkpt><trkpt lat="47.718697717425286" lon="-1.8264349632005403"><ele>5.0</ele><time>2026-03-24T11:31:09.999Z</time></trkpt><trkpt lat="47.718530894631186" lon="-1.8264061399881422"><ele>5.0</ele><time>2026-03-24T11:31:10.999Z</time></trkpt><trkpt lat="47.71836599061648" lon="-1.8263821358579764"><ele>5.0</ele><time>2026-03-24T11:31:11.999Z</time></trkpt><trkpt lat="47.7182004959588" lon="-1.8263447796884225"><ele>5.0</ele><time>2026-03-24T11:31:12.999Z</time></trkpt><trkpt lat="47.71803083952195" lon="-1.8262947926600326"><ele>5.0</ele><time>2026-03-24T11:31:13.999Z</time></trkpt><trkpt lat="47.717860874160806" lon="-1.826252553661962"><ele>4.666666666666667</ele><time>2026-03-24T11:31:14.999Z</time></trkpt><trkpt lat="47.71768246127083" lon="-1.8261834722316752"><ele>4.333333333333333</ele><time>2026-03-24T11:31:15.999Z</time></trkpt><trkpt lat="47.717519126399644" lon="-1.826134411961463"><ele>4.0</ele><time>2026-03-24T11:31:16.999Z</time></trkpt><trkpt lat="47.717339777308354" lon="-1.8260750237765468"><ele>4.0</ele><time>2026-03-24T11:31:17.999Z</time></trkpt><trkpt lat="47.71717431404507" lon="-1.826012786219148"><ele>4.0</ele><time>2026-03-24T11:31:18.999Z</time></trkpt><trkpt lat="47.71702706437482" lon="-1.8259664069420862"><ele>4.0</ele><time>2026-03-24T11:31:19.999Z</time></trkpt><trkpt lat="47.71689389728177" lon="-1.8259247470334534"><ele>4.0</ele><time>2026-03-24T11:31:20.999Z</time></trkpt><trkpt lat="47.716796140782485" lon="-1.825850389859941"><ele>4.0</ele><time>2026-03-24T11:31:21.999Z</time></trkpt><trkpt lat="47.71668031158237" lon="-1.8258149234203978"><ele>4.0</ele><time>2026-03-24T11:31:22.999Z</time></trkpt><trkpt lat="47.71661136810546" lon="-1.8258419782547577"><ele>4.0</ele><time>2026-03-24T11:31:23.999Z</time></trkpt><trkpt lat="47.716510082305405" lon="-1.8258269173297188"><ele>4.0</ele><time>2026-03-24T11:31:24.999Z</time></trkpt><trkpt lat="47.716440064865075" lon="-1.8258015178748257"><ele>4.0</ele><time>2026-03-24T11:31:25.999Z</time></trkpt><trkpt lat="47.716330604817415" lon="-1.8257707376385683"><ele>4.0</ele><time>2026-03-24T11:31:26.999Z</time></trkpt><trkpt lat="47.716214046630846" lon="-1.825765778631228"><ele>4.0</ele><time>2026-03-24T11:31:27.999Z</time></trkpt><trkpt lat="47.71610486957232" lon="-1.8257364642732596"><ele>4.0</ele><time>2026-03-24T11:31:28.999Z</time></trkpt><trkpt lat="47.71600856705861" lon="-1.8257402434878955"><ele>4.0</ele><time>2026-03-24T11:31:29.999Z</time></trkpt><trkpt lat="47.71591484270118" lon="-1.8257103600703235"><ele>3.6</ele><time>2026-03-24T11:31:30.999Z</time></trkpt><trkpt lat="47.71583231995192" lon="-1.8257097478926696"><ele>3.2</ele><time>2026-03-24T11:31:31.999Z</time></trkpt><trkpt lat="47.71574878120686" lon="-1.8256776774761048"><ele>2.8000000000000003</ele><time>2026-03-24T11:31:32.999Z</time></trkpt><trkpt lat="47.71565862511811" lon="-1.8256452837453643"><ele>2.4000000000000004</ele><time>2026-03-24T11:31:33.999Z</time></trkpt><trkpt lat="47.71555887749053" lon="-1.825618413369678"><ele>2.0</ele><time>2026-03-24T11:31:34.999Z</time></trkpt><trkpt lat="47.71546323609237" lon="-1.8255685170557456"><ele>2.0</ele><time>2026-03-24T11:31:35.999Z</time></trkpt><trkpt lat="47.71533844075595" lon="-1.8255064130050063"><ele>2.0</ele><time>2026-03-24T11:31:36.999Z</time></trkpt><trkpt lat="47.715230756976695" lon="-1.8254391763807687"><ele>2.0</ele><time>2026-03-24T11:31:37.999Z</time></trkpt><trkpt lat="47.71510912609623" lon="-1.8253875478570145"><ele>2.0</ele><time>2026-03-24T11:31:38.999Z</time></trkpt><trkpt lat="47.71501683913057" lon="-1.825305431116918"><ele>2.0</ele><time>2026-03-24T11:31:39.999Z</time></trkpt><trkpt lat="47.71492056599054" lon="-1.82522864684939"><ele>2.0</ele><time>2026-03-24T11:31:40.999Z</time></trkpt><trkpt lat="47.714814541517974" lon="-1.8251347756670129"><ele>2.0</ele><time>2026-03-24T11:31:41.999Z</time></trkpt><trkpt lat="47.714715249434974" lon="-1.8250601832887774"><ele>2.0</ele><time>2026-03-24T11:31:42.999Z</time></trkpt><trkpt lat="47.71460967262726" lon="-1.8249777530638451"><ele>2.0</ele><time>2026-03-24T11:31:43.999Z</time></trkpt><trkpt lat="47.714503657227816" lon="-1.8248767762724816"><ele>2.0</ele><time>2026-03-24T11:31:44.999Z</time></trkpt><trkpt lat="47.71440769676599" lon="-1.8247639631463668"><ele>2.0</ele><time>2026-03-24T11:31:45.999Z</time></trkpt><trkpt lat="47.71428952558889" lon="-1.8246513764800671"><ele>2.0</ele><time>2026-03-24T11:31:46.999Z</time></trkpt><trkpt lat="47.71417980950371" lon="-1.8245245663542975"><ele>2.0</ele><time>2026-03-24T11:31:47.999Z</time></trkpt><trkpt lat="47.71408338805318" lon="-1.8244133309549808"><ele>2.0</ele><time>2026-03-24T11:31:48.999Z</time></trkpt><trkpt lat="47.71399200253249" lon="-1.8243137571592911"><ele>2.0</ele><time>2026-03-24T11:31:49.999Z</time></trkpt><trkpt lat="47.71390136163726" lon="-1.8242114139043522"><ele>2.0</ele><time>2026-03-24T11:31:50.999Z</time></trkpt><trkpt lat="47.713819583792535" lon="-1.8241209539095617"><ele>2.25</ele><time>2026-03-24T11:31:51.999Z</time></trkpt><trkpt lat="47.71372872904688" lon="-1.824016269214042"><ele>2.5</ele><time>2026-03-24T11:31:52.999Z</time></trkpt><trkpt lat="47.71363796370038" lon="-1.8239167739667193"><ele>2.75</ele><time>2026-03-24T11:31:53.999Z</time></trkpt><trkpt lat="47.713537077401625" lon="-1.8238170776606462"><ele>3.0</ele><time>2026-03-24T11:31:54.999Z</time></trkpt><trkpt lat="47.71344964289496" lon="-1.8237203494825958"><ele>3.0</ele><time>2026-03-24T11:31:55.999Z</time></trkpt><trkpt lat="47.71336481183933" lon="-1.82365799592617"><ele>3.0</ele><time>2026-03-24T11:31:56.999Z</time></trkpt><trkpt lat="47.71329284188666" lon="-1.8235944483875743"><ele>3.0</ele><time>2026-03-24T11:31:57.999Z</time></trkpt><trkpt lat="47.71322752625536" lon="-1.823542516744122"><ele>3.0</ele><time>2026-03-24T11:31:58.999Z</time></trkpt><trkpt lat="47.7131761907001" lon="-1.8234838944382112"><ele>3.0</ele><time>2026-03-24T11:31:59.999Z</time></trkpt><trkpt lat="47.71308327131848" lon="-1.823431511608201"><ele>3.0</ele><time>2026-03-24T11:32:01.998Z</time></trkpt><trkpt lat="47.71300761549205" lon="-1.8233703486519177"><ele>3.0</ele><time>2026-03-24T11:32:04.998Z</time></trkpt><trkpt lat="47.712939967650094" lon="-1.8233073849595693"><ele>3.0</ele><time>2026-03-24T11:32:07.998Z</time></trkpt><trkpt lat="47.712893462365294" lon="-1.823205905597581"><ele>3.0</ele><time>2026-03-24T11:32:11.998Z</time></trkpt><trkpt lat="47.71287662641399" lon="-1.8233018326220858"><ele>3.0</ele><time>2026-03-24T11:32:16Z</time></trkpt><trkpt lat="47.712940613391225" lon="-1.8233646950733753"><ele>3.0</ele><time>2026-03-24T11:32:18Z</time></trkpt><trkpt lat="47.71303350307206" lon="-1.823425541424257"><ele>3.0</ele><time>2026-03-24T11:32:20Z</time></trkpt><trkpt lat="47.713132590098034" lon="-1.8234876840534153"><ele>2.6</ele><time>2026-03-24T11:32:22Z</time></trkpt><trkpt lat="47.713237489009025" lon="-1.823561112684011"><ele>2.1999999999999997</ele><time>2026-03-24T11:32:24Z</time></trkpt><trkpt lat="47.71332586977829" lon="-1.8236491501640077"><ele>1.8</ele><time>2026-03-24T11:32:26Z</time></trkpt><trkpt lat="47.713381311142236" lon="-1.823716349276736"><ele>1.4</ele><time>2026-03-24T11:32:27Z</time></trkpt><trkpt lat="47.71345505159333" lon="-1.8237819756592157"><ele>1.0</ele><time>2026-03-24T11:32:28Z</time></trkpt><trkpt lat="47.71353001966038" lon="-1.8238444948931016"><ele>1.4</ele><time>2026-03-24T11:32:29Z</time></trkpt><trkpt lat="47.71360945616602" lon="-1.8239290478254313"><ele>1.8</ele><time>2026-03-24T11:32:30Z</time></trkpt><trkpt lat="47.713694057463606" lon="-1.8240159182585496"><ele>2.1999999999999997</ele><time>2026-03-24T11:32:31Z</time></trkpt><trkpt lat="47.71377337673179" lon="-1.824102865300249"><ele>2.6</ele><time>2026-03-24T11:32:32Z</time></trkpt><trkpt lat="47.7138502699147" lon="-1.8241820833202054"><ele>3.0</ele><time>2026-03-24T11:32:33Z</time></trkpt><trkpt lat="47.71393501997491" lon="-1.8242712232846594"><ele>2.75</ele><time>2026-03-24T11:32:34Z</time></trkpt><trkpt lat="47.71402254266926" lon="-1.824372460068403"><ele>2.5</ele><time>2026-03-24T11:32:35Z</time></trkpt><trkpt lat="47.71411665631716" lon="-1.8244681729174337"><ele>2.25</ele><time>2026-03-24T11:32:36Z</time></trkpt><trkpt lat="47.714193417326044" lon="-1.8245648006877533"><ele>2.0</ele><time>2026-03-24T11:32:37Z</time></trkpt><trkpt lat="47.71431146080672" lon="-1.8246656608654608"><ele>2.25</ele><time>2026-03-24T11:32:38Z</time></trkpt><trkpt lat="47.7144141410053" lon="-1.8247610500369378"><ele>2.5</ele><time>2026-03-24T11:32:39Z</time></trkpt><trkpt lat="47.71451784951374" lon="-1.8248743483803054"><ele>2.75</ele><time>2026-03-24T11:32:40Z</time></trkpt><trkpt lat="47.71461134927281" lon="-1.8249829454501045"><ele>3.0</ele><time>2026-03-24T11:32:41Z</time></trkpt><trkpt lat="47.71469443420274" lon="-1.8250903775037637"><ele>2.8</ele><time>2026-03-24T11:32:42Z</time></trkpt><trkpt lat="47.71478578698095" lon="-1.8251799809591736"><ele>2.5999999999999996</ele><time>2026-03-24T11:32:43Z</time></trkpt><trkpt lat="47.71487571604188" lon="-1.8252501401028027"><ele>2.4000000000000004</ele><time>2026-03-24T11:32:44Z</time></trkpt><trkpt lat="47.71496862704454" lon="-1.8253190946006477"><ele>2.2</ele><time>2026-03-24T11:32:45Z</time></trkpt><trkpt lat="47.715064370180336" lon="-1.825390197525267"><ele>2.0</ele><time>2026-03-24T11:32:46Z</time></trkpt><trkpt lat="47.715175582557926" lon="-1.8254412113016922"><ele>2.0</ele><time>2026-03-24T11:32:47Z</time></trkpt><trkpt lat="47.71529040961982" lon="-1.825514995815936"><ele>2.0</ele><time>2026-03-24T11:32:48Z</time></trkpt><trkpt lat="47.715400287646354" lon="-1.8255825775724042"><ele>2.0</ele><time>2026-03-24T11:32:49Z</time></trkpt><trkpt lat="47.71551544271599" lon="-1.825633074651635"><ele>2.0</ele><time>2026-03-24T11:32:50Z</time></trkpt><trkpt lat="47.71562140803614" lon="-1.82568158143176"><ele>2.0</ele><time>2026-03-24T11:32:51Z</time></trkpt><trkpt lat="47.715726669116165" lon="-1.8257175289121674"><ele>2.0</ele><time>2026-03-24T11:32:52Z</time></trkpt><trkpt lat="47.71583617022187" lon="-1.825734141260035"><ele>2.0</ele><time>2026-03-24T11:32:53Z</time></trkpt><trkpt lat="47.71596476597537" lon="-1.8257442741654017"><ele>2.0</ele><time>2026-03-24T11:32:54Z</time></trkpt><trkpt lat="47.71608928989378" lon="-1.8257498163824306"><ele>2.333333333333333</ele><time>2026-03-24T11:32:55Z</time></trkpt><trkpt lat="47.71618427092251" lon="-1.8257821266364784"><ele>2.6666666666666665</ele><time>2026-03-24T11:32:56Z</time></trkpt><trkpt lat="47.71627144680846" lon="-1.8257676289677285"><ele>3.0</ele><time>2026-03-24T11:32:57Z</time></trkpt><trkpt lat="47.71636004978962" lon="-1.8257631991548917"><ele>3.333333333333333</ele><time>2026-03-24T11:32:58Z</time></trkpt><trkpt lat="47.716444473943845" lon="-1.8257731649049485"><ele>3.6666666666666665</ele><time>2026-03-24T11:32:59Z</time></trkpt><trkpt lat="47.71652482959533" lon="-1.8257771401643113"><ele>4.0</ele><time>2026-03-24T11:33:00Z</time></trkpt><trkpt lat="47.716600588777325" lon="-1.825791515167436"><ele>4.0</ele><time>2026-03-24T11:33:01Z</time></trkpt><trkpt lat="47.71666646402276" lon="-1.8257912614227307"><ele>4.0</ele><time>2026-03-24T11:33:02Z</time></trkpt><trkpt lat="47.71672332764187" lon="-1.825663846414062"><ele>4.0</ele><time>2026-03-24T11:33:03.999Z</time></trkpt><trkpt lat="47.716740912498985" lon="-1.8255224750309882"><ele>4.0</ele><time>2026-03-24T11:33:04.999Z</time></trkpt><trkpt lat="47.71676003586508" lon="-1.8253887898875676"><ele>4.0</ele><time>2026-03-24T11:33:05.999Z</time></trkpt><trkpt lat="47.716798767121716" lon="-1.8252372103514511"><ele>4.25</ele><time>2026-03-24T11:33:06.999Z</time></trkpt><trkpt lat="47.71685637170732" lon="-1.825087668904194"><ele>4.5</ele><time>2026-03-24T11:33:07.999Z</time></trkpt><trkpt lat="47.71692707664605" lon="-1.8249507743926605"><ele>4.75</ele><time>2026-03-24T11:33:08.999Z</time></trkpt><trkpt lat="47.717020761652556" lon="-1.8248376685592154"><ele>5.0</ele><time>2026-03-24T11:33:09.999Z</time></trkpt><trkpt lat="47.71707739686292" lon="-1.8247197649437483"><ele>5.0</ele><time>2026-03-24T11:33:10.999Z</time></trkpt><trkpt lat="47.717126339092296" lon="-1.8246309973043537"><ele>5.0</ele><time>2026-03-24T11:33:11.999Z</time></trkpt><trkpt lat="47.71718239896106" lon="-1.8245757524338726"><ele>5.0</ele><time>2026-03-24T11:33:12.999Z</time></trkpt><trkpt lat="47.71722695946875" lon="-1.8244722702910199"><ele>5.0</ele><time>2026-03-24T11:33:13.999Z</time></trkpt><trkpt lat="47.717258562523256" lon="-1.8243811883462124"><ele>5.0</ele><time>2026-03-24T11:33:14.999Z</time></trkpt><trkpt lat="47.71727120387028" lon="-1.8242684900574029"><ele>5.0</ele><time>2026-03-24T11:33:15.999Z</time></trkpt><trkpt lat="47.71723525324461" lon="-1.8241519828566122"><ele>5.0</ele><time>2026-03-24T11:33:16.999Z</time></trkpt><trkpt lat="47.717209516175195" lon="-1.8240423411502293"><ele>5.0</ele><time>2026-03-24T11:33:17.999Z</time></trkpt><trkpt lat="47.717211206112566" lon="-1.82391212450127"><ele>5.0</ele><time>2026-03-24T11:33:18.999Z</time></trkpt><trkpt lat="47.717200093807676" lon="-1.823794818121122"><ele>5.0</ele><time>2026-03-24T11:33:19.999Z</time></trkpt><trkpt lat="47.71720582981577" lon="-1.8236924124139682"><ele>5.0</ele><time>2026-03-24T11:33:20.999Z</time></trkpt><trkpt lat="47.7172173425236" lon="-1.823563676692244"><ele>5.0</ele><time>2026-03-24T11:33:21.999Z</time></trkpt><trkpt lat="47.71721310702045" lon="-1.82341477729225"><ele>6.0</ele><time>2026-03-24T11:33:22.999Z</time></trkpt><trkpt lat="47.71722301313526" lon="-1.8232449187986488"><ele>7.0</ele><time>2026-03-24T11:33:23.999Z</time></trkpt><trkpt lat="47.71723577162618" lon="-1.8230681011581955"><ele>8.0</ele><time>2026-03-24T11:33:24.999Z</time></trkpt><trkpt lat="47.71724473527527" lon="-1.8228786262122476"><ele>9.0</ele><time>2026-03-24T11:33:25.999Z</time></trkpt><trkpt lat="47.717250993361155" lon="-1.8226903591089525"><ele>9.0</ele><time>2026-03-24T11:33:26.999Z</time></trkpt><trkpt lat="47.71723059150299" lon="-1.8224892235332948"><ele>9.0</ele><time>2026-03-24T11:33:27.999Z</time></trkpt><trkpt lat="47.71724036601272" lon="-1.8222853260115555"><ele>9.0</ele><time>2026-03-24T11:33:28.999Z</time></trkpt><trkpt lat="47.717245683391994" lon="-1.822054441611898"><ele>9.0</ele><time>2026-03-24T11:33:29.999Z</time></trkpt><trkpt lat="47.71725025522993" lon="-1.821860640523447"><ele>9.166666666666666</ele><time>2026-03-24T11:33:30.999Z</time></trkpt><trkpt lat="47.717254578016174" lon="-1.8216933436133274"><ele>9.333333333333334</ele><time>2026-03-24T11:33:31.999Z</time></trkpt><trkpt lat="47.7172542774701" lon="-1.8215573084074732"><ele>9.5</ele><time>2026-03-24T11:33:32.999Z</time></trkpt><trkpt lat="47.7172541771193" lon="-1.8214225597704115"><ele>9.666666666666668</ele><time>2026-03-24T11:33:33.999Z</time></trkpt><trkpt lat="47.717251392564954" lon="-1.821306383245045"><ele>9.833333333333334</ele><time>2026-03-24T11:33:34.999Z</time></trkpt><trkpt lat="47.71725001244045" lon="-1.821198357689679"><ele>10.0</ele><time>2026-03-24T11:33:35.999Z</time></trkpt><trkpt lat="47.71727585632247" lon="-1.821059091906182"><ele>10.0</ele><time>2026-03-24T11:33:37.999Z</time></trkpt><trkpt lat="47.71746634765087" lon="-1.821041984235346"><ele>10.0</ele><time>2026-03-24T11:33:39.999Z</time></trkpt><trkpt lat="47.7175445938196" lon="-1.8210949349289796"><ele>10.0</ele><time>2026-03-24T11:33:40.999Z</time></trkpt><trkpt lat="47.71762338443402" lon="-1.8211852304213638"><ele>10.0</ele><time>2026-03-24T11:33:41.999Z</time></trkpt><trkpt lat="47.71770570351194" lon="-1.8212427257890647"><ele>9.75</ele><time>2026-03-24T11:33:42.999Z</time></trkpt><trkpt lat="47.71776781637671" lon="-1.8212909567440894"><ele>9.5</ele><time>2026-03-24T11:33:43.999Z</time></trkpt><trkpt lat="47.71790470001235" lon="-1.8211071078784002"><ele>9.25</ele><time>2026-03-24T11:33:46.999Z</time></trkpt><trkpt lat="47.71789772164251" lon="-1.8209595562103928"><ele>9.0</ele><time>2026-03-24T11:33:47.999Z</time></trkpt><trkpt lat="47.71790167596427" lon="-1.8208047421124982"><ele>9.5</ele><time>2026-03-24T11:33:48.999Z</time></trkpt><trkpt lat="47.71791390994284" lon="-1.8206341857717627"><ele>10.0</ele><time>2026-03-24T11:33:49.999Z</time></trkpt><trkpt lat="47.717931892719236" lon="-1.8204664176195617"><ele>10.5</ele><time>2026-03-24T11:33:50.999Z</time></trkpt><trkpt lat="47.71794462987677" lon="-1.8202655481815297"><ele>11.0</ele><time>2026-03-24T11:33:51.999Z</time></trkpt><trkpt lat="47.71796593716491" lon="-1.820061268967413"><ele>11.25</ele><time>2026-03-24T11:33:52.999Z</time></trkpt><trkpt lat="47.71798127570307" lon="-1.8198509762205561"><ele>11.5</ele><time>2026-03-24T11:33:53.999Z</time></trkpt><trkpt lat="47.71799000543712" lon="-1.819622167150825"><ele>11.75</ele><time>2026-03-24T11:33:54.999Z</time></trkpt><trkpt lat="47.71799476414728" lon="-1.8194219236337918"><ele>12.0</ele><time>2026-03-24T11:33:55.999Z</time></trkpt><trkpt lat="47.717995801100244" lon="-1.8192176964967832"><ele>12.25</ele><time>2026-03-24T11:33:56.999Z</time></trkpt><trkpt lat="47.71800356195351" lon="-1.8190128508308294"><ele>12.5</ele><time>2026-03-24T11:33:57.999Z</time></trkpt><trkpt lat="47.71801493445787" lon="-1.8188079266588673"><ele>12.75</ele><time>2026-03-24T11:33:58.999Z</time></trkpt><trkpt lat="47.71804377619928" lon="-1.8186138186772527"><ele>13.0</ele><time>2026-03-24T11:33:59.999Z</time></trkpt><trkpt lat="47.71807601032248" lon="-1.8184677823331772"><ele>13.0</ele><time>2026-03-24T11:34:00.999Z</time></trkpt><trkpt lat="47.71811583107199" lon="-1.8183541465698696"><ele>13.0</ele><time>2026-03-24T11:34:02.999Z</time></trkpt><trkpt lat="47.718098792145064" lon="-1.818464656318689"><ele>13.0</ele><time>2026-03-24T11:34:08.999Z</time></trkpt><trkpt lat="47.71807155861384" lon="-1.818566874818102"><ele>13.0</ele><time>2026-03-24T11:34:10.999Z</time></trkpt><trkpt lat="47.718202106687976" lon="-1.8186814918632535"><ele>13.0</ele><time>2026-03-24T11:34:12.998Z</time></trkpt><trkpt lat="47.71827358295097" lon="-1.8186835564094326"><ele>13.0</ele><time>2026-03-24T11:34:13.998Z</time></trkpt><trkpt lat="47.71836265984107" lon="-1.8186510477690851"><ele>13.0</ele><time>2026-03-24T11:34:14.998Z</time></trkpt><trkpt lat="47.718462649111" lon="-1.8186086047236356"><ele>13.0</ele><time>2026-03-24T11:34:15.998Z</time></trkpt><trkpt lat="47.71855971467213" lon="-1.8185409155632088"><ele>13.0</ele><time>2026-03-24T11:34:16.998Z</time></trkpt><trkpt lat="47.718646836383066" lon="-1.8184907725774448"><ele>13.0</ele><time>2026-03-24T11:34:17.998Z</time></trkpt><trkpt lat="47.71876293723618" lon="-1.8184058252839554"><ele>13.25</ele><time>2026-03-24T11:34:18.998Z</time></trkpt><trkpt lat="47.718881420566646" lon="-1.8183238598800258"><ele>13.5</ele><time>2026-03-24T11:34:20Z</time></trkpt><trkpt lat="47.71900488630356" lon="-1.8182508784148563"><ele>13.75</ele><time>2026-03-24T11:34:21Z</time></trkpt><trkpt lat="47.719124559961635" lon="-1.8181739454773282"><ele>14.0</ele><time>2026-03-24T11:34:22Z</time></trkpt><trkpt lat="47.71926074345483" lon="-1.8180597290914877"><ele>14.0</ele><time>2026-03-24T11:34:23Z</time></trkpt><trkpt lat="47.71938642555947" lon="-1.8179833054718928"><ele>14.0</ele><time>2026-03-24T11:34:24Z</time></trkpt><trkpt lat="47.71950595819961" lon="-1.8178896021198279"><ele>14.0</ele><time>2026-03-24T11:34:25Z</time></trkpt><trkpt lat="47.71961610236974" lon="-1.8178101845195584"><ele>14.0</ele><time>2026-03-24T11:34:26Z</time></trkpt><trkpt lat="47.71971265390158" lon="-1.8177878342671379"><ele>14.25</ele><time>2026-03-24T11:34:27Z</time></trkpt><trkpt lat="47.71982527069587" lon="-1.8177464652492616"><ele>14.5</ele><time>2026-03-24T11:34:28Z</time></trkpt><trkpt lat="47.71993562611689" lon="-1.817759852880838"><ele>14.75</ele><time>2026-03-24T11:34:29Z</time></trkpt><trkpt lat="47.72004205076883" lon="-1.817764156936533"><ele>15.0</ele><time>2026-03-24T11:34:30Z</time></trkpt><trkpt lat="47.72017478392988" lon="-1.8177640118203566"><ele>15.25</ele><time>2026-03-24T11:34:31Z</time></trkpt><trkpt lat="47.72029834590966" lon="-1.8177553605944947"><ele>15.5</ele><time>2026-03-24T11:34:32Z</time></trkpt><trkpt lat="47.72043214995561" lon="-1.8177429691829952"><ele>15.75</ele><time>2026-03-24T11:34:33Z</time></trkpt><trkpt lat="47.720565369896406" lon="-1.81773952226043"><ele>16.0</ele><time>2026-03-24T11:34:34Z</time></trkpt><trkpt lat="47.720724840478816" lon="-1.8177295527416943"><ele>16.0</ele><time>2026-03-24T11:34:35Z</time></trkpt><trkpt lat="47.720887193875505" lon="-1.817717352434038"><ele>16.0</ele><time>2026-03-24T11:34:36Z</time></trkpt><trkpt lat="47.721039298426575" lon="-1.8176986158763173"><ele>16.0</ele><time>2026-03-24T11:34:37Z</time></trkpt><trkpt lat="47.721201624693684" lon="-1.817663323555061"><ele>16.0</ele><time>2026-03-24T11:34:38Z</time></trkpt><trkpt lat="47.72134991649867" lon="-1.8176489055972562"><ele>16.0</ele><time>2026-03-24T11:34:39Z</time></trkpt><trkpt lat="47.721503193406186" lon="-1.8176488434310922"><ele>16.0</ele><time>2026-03-24T11:34:40Z</time></trkpt><trkpt lat="47.72166143608253" lon="-1.8176606198429035"><ele>17.25</ele><time>2026-03-24T11:34:41Z</time></trkpt><trkpt lat="47.72181780819623" lon="-1.8176464610824592"><ele>18.5</ele><time>2026-03-24T11:34:42Z</time></trkpt><trkpt lat="47.72196831770966" lon="-1.8176200129377915"><ele>19.75</ele><time>2026-03-24T11:34:43Z</time></trkpt><trkpt lat="47.72210517264497" lon="-1.8176080264342165"><ele>21.0</ele><time>2026-03-24T11:34:44Z</time></trkpt><trkpt lat="47.722209738709914" lon="-1.8176221718115382"><ele>21.200000000000003</ele><time>2026-03-24T11:34:45Z</time></trkpt><trkpt lat="47.722312612672376" lon="-1.8175840290544008"><ele>21.400000000000002</ele><time>2026-03-24T11:34:46Z</time></trkpt><trkpt lat="47.722391434422995" lon="-1.8175765838152524"><ele>21.6</ele><time>2026-03-24T11:34:48Z</time></trkpt><trkpt lat="47.72247254200626" lon="-1.8175316814925166"><ele>21.8</ele><time>2026-03-24T11:34:49Z</time></trkpt><trkpt lat="47.72255726336406" lon="-1.8174564278359877"><ele>22.0</ele><time>2026-03-24T11:34:50Z</time></trkpt><trkpt lat="47.722629887260155" lon="-1.8173418720884058"><ele>22.0</ele><time>2026-03-24T11:34:51Z</time></trkpt><trkpt lat="47.72271539429642" lon="-1.8172568135649332"><ele>22.0</ele><time>2026-03-24T11:34:52Z</time></trkpt><trkpt lat="47.72279460223117" lon="-1.8171223479692986"><ele>22.0</ele><time>2026-03-24T11:34:53Z</time></trkpt><trkpt lat="47.72289994260938" lon="-1.8170342948330425"><ele>22.0</ele><time>2026-03-24T11:34:54Z</time></trkpt><trkpt lat="47.72299782095577" lon="-1.8169311436527067"><ele>23.0</ele><time>2026-03-24T11:34:55Z</time></trkpt><trkpt lat="47.723102134186774" lon="-1.8168420443166011"><ele>24.0</ele><time>2026-03-24T11:34:56Z</time></trkpt><trkpt lat="47.72324066262575" lon="-1.8168064648300113"><ele>25.0</ele><time>2026-03-24T11:34:57Z</time></trkpt><trkpt lat="47.72336466952401" lon="-1.8167815102683038"><ele>26.0</ele><time>2026-03-24T11:34:58Z</time></trkpt><trkpt lat="47.72347054846474" lon="-1.816759555734604"><ele>26.0</ele><time>2026-03-24T11:34:59Z</time></trkpt><trkpt lat="47.723560578078704" lon="-1.8167317240547378"><ele>26.0</ele><time>2026-03-24T11:35:01Z</time></trkpt><trkpt lat="47.72360421131613" lon="-1.8166234703176936"><ele>26.0</ele><time>2026-03-24T11:35:02Z</time></trkpt><trkpt lat="47.72361698754597" lon="-1.816422738677576"><ele>26.0</ele><time>2026-03-24T11:35:03Z</time></trkpt><trkpt lat="47.72365296074334" lon="-1.816230341218718"><ele>26.0</ele><time>2026-03-24T11:35:04Z</time></trkpt><trkpt lat="47.723696452961796" lon="-1.816044635593025"><ele>28.0</ele><time>2026-03-24T11:35:05Z</time></trkpt><trkpt lat="47.723760152475045" lon="-1.8158453239000563"><ele>30.0</ele><time>2026-03-24T11:35:05.999Z</time></trkpt><trkpt lat="47.72381362449818" lon="-1.8155936464913558"><ele>32.0</ele><time>2026-03-24T11:35:06.999Z</time></trkpt><trkpt lat="47.7238604725493" lon="-1.8153505517718207"><ele>31.666666666666664</ele><time>2026-03-24T11:35:07.999Z</time></trkpt><trkpt lat="47.72391307263609" lon="-1.8151115923495318"><ele>31.333333333333336</ele><time>2026-03-24T11:35:08.999Z</time></trkpt><trkpt lat="47.72397621204798" lon="-1.8148648260980094"><ele>31.0</ele><time>2026-03-24T11:35:09.999Z</time></trkpt><trkpt lat="47.72401177010259" lon="-1.8146424147731886"><ele>31.0</ele><time>2026-03-24T11:35:10.999Z</time></trkpt><trkpt lat="47.724028326954716" lon="-1.8144302184814929"><ele>31.0</ele><time>2026-03-24T11:35:11.999Z</time></trkpt><trkpt lat="47.72402589171297" lon="-1.8142049830625473"><ele>31.0</ele><time>2026-03-24T11:35:12.999Z</time></trkpt><trkpt lat="47.72399356013892" lon="-1.8139380766659337"><ele>31.666666666666668</ele><time>2026-03-24T11:35:13.999Z</time></trkpt><trkpt lat="47.72398469570388" lon="-1.8136867614877397"><ele>32.333333333333336</ele><time>2026-03-24T11:35:14.999Z</time></trkpt><trkpt lat="47.72398208584577" lon="-1.813457777862745"><ele>33.0</ele><time>2026-03-24T11:35:15.999Z</time></trkpt><trkpt lat="47.723977835184975" lon="-1.813256377219739"><ele>33.6</ele><time>2026-03-24T11:35:16.999Z</time></trkpt><trkpt lat="47.72397830827242" lon="-1.8131105157691978"><ele>34.199999999999996</ele><time>2026-03-24T11:35:17.999Z</time></trkpt><trkpt lat="47.72398233570442" lon="-1.813002967737813"><ele>34.8</ele><time>2026-03-24T11:35:18.999Z</time></trkpt><trkpt lat="47.72397109486061" lon="-1.8128528091969265"><ele>35.4</ele><time>2026-03-24T11:35:20.999Z</time></trkpt><trkpt lat="47.72385270386765" lon="-1.8128146191065966"><ele>36.0</ele><time>2026-03-24T11:35:22.999Z</time></trkpt><trkpt lat="47.723786135722534" lon="-1.812826245866028"><ele>36.0</ele><time>2026-03-24T11:35:23.999Z</time></trkpt><trkpt lat="47.72371444056736" lon="-1.8128348166766317"><ele>36.0</ele><time>2026-03-24T11:35:24.999Z</time></trkpt><trkpt lat="47.723650979555366" lon="-1.8128334637296943"><ele>36.0</ele><time>2026-03-24T11:35:25.999Z</time></trkpt><trkpt lat="47.723581733240536" lon="-1.8128351406860668"><ele>36.0</ele><time>2026-03-24T11:35:26.999Z</time></trkpt><trkpt lat="47.72350930140212" lon="-1.8128286798323054"><ele>36.0</ele><time>2026-03-24T11:35:27.999Z</time></trkpt><trkpt lat="47.72341715172452" lon="-1.8128168187662255"><ele>36.0</ele><time>2026-03-24T11:35:28.999Z</time></trkpt><trkpt lat="47.723323022409" lon="-1.8128086200544926"><ele>35.0</ele><time>2026-03-24T11:35:29.999Z</time></trkpt><trkpt lat="47.72323623614207" lon="-1.812806208790704"><ele>34.0</ele><time>2026-03-24T11:35:30.999Z</time></trkpt><trkpt lat="47.72313136561756" lon="-1.8128065942380218"><ele>33.0</ele><time>2026-03-24T11:35:31.999Z</time></trkpt><trkpt lat="47.723032099484115" lon="-1.812796408367137"><ele>32.0</ele><time>2026-03-24T11:35:32.999Z</time></trkpt><trkpt lat="47.72293353387529" lon="-1.8127902030290322"><ele>31.0</ele><time>2026-03-24T11:35:33.999Z</time></trkpt><trkpt lat="47.72283582980867" lon="-1.8127755239554637"><ele>31.0</ele><time>2026-03-24T11:35:34.999Z</time></trkpt><trkpt lat="47.72274351431626" lon="-1.812770316973575"><ele>31.0</ele><time>2026-03-24T11:35:35.999Z</time></trkpt><trkpt lat="47.72263541212867" lon="-1.812762713457587"><ele>31.0</ele><time>2026-03-24T11:35:36.999Z</time></trkpt><trkpt lat="47.722525127580504" lon="-1.8127501124617538"><ele>31.0</ele><time>2026-03-24T11:35:37.999Z</time></trkpt><trkpt lat="47.72240794285649" lon="-1.8127427681680666"><ele>31.0</ele><time>2026-03-24T11:35:38.999Z</time></trkpt><trkpt lat="47.72231027707983" lon="-1.8127472150725708"><ele>30.200000000000003</ele><time>2026-03-24T11:35:39.999Z</time></trkpt><trkpt lat="47.72220619524794" lon="-1.812748108851105"><ele>29.400000000000002</ele><time>2026-03-24T11:35:40.999Z</time></trkpt><trkpt lat="47.72210549865188" lon="-1.8127404035184427"><ele>28.6</ele><time>2026-03-24T11:35:41.999Z</time></trkpt><trkpt lat="47.72199172622689" lon="-1.8127400195157186"><ele>27.8</ele><time>2026-03-24T11:35:42.999Z</time></trkpt><trkpt lat="47.72188581362267" lon="-1.8127315677513953"><ele>27.0</ele><time>2026-03-24T11:35:43.999Z</time></trkpt><trkpt lat="47.72179374718383" lon="-1.812736470976834"><ele>26.6</ele><time>2026-03-24T11:35:44.999Z</time></trkpt><trkpt lat="47.72170164698443" lon="-1.8127290030611665"><ele>26.200000000000003</ele><time>2026-03-24T11:35:45.999Z</time></trkpt><trkpt lat="47.72160229967945" lon="-1.812728032010528"><ele>25.8</ele><time>2026-03-24T11:35:46.999Z</time></trkpt><trkpt lat="47.72150704262413" lon="-1.8127249213243435"><ele>25.4</ele><time>2026-03-24T11:35:47.999Z</time></trkpt><trkpt lat="47.72141546015924" lon="-1.8127153540721246"><ele>25.0</ele><time>2026-03-24T11:35:48.999Z</time></trkpt><trkpt lat="47.72132742506179" lon="-1.812725476688493"><ele>25.0</ele><time>2026-03-24T11:35:49.999Z</time></trkpt><trkpt lat="47.72124735291982" lon="-1.8127226547178898"><ele>25.0</ele><time>2026-03-24T11:35:50.999Z</time></trkpt><trkpt lat="47.72115339136164" lon="-1.812734995496872"><ele>25.0</ele><time>2026-03-24T11:35:51.999Z</time></trkpt><trkpt lat="47.721054357071836" lon="-1.8127501150070908"><ele>25.0</ele><time>2026-03-24T11:35:52.999Z</time></trkpt><trkpt lat="47.720936727084485" lon="-1.8127653066332372"><ele>25.0</ele><time>2026-03-24T11:35:53.999Z</time></trkpt><trkpt lat="47.7208274390572" lon="-1.8127843951099956"><ele>25.0</ele><time>2026-03-24T11:35:54.999Z</time></trkpt><trkpt lat="47.720712904980694" lon="-1.812811261895802"><ele>25.0</ele><time>2026-03-24T11:35:55.999Z</time></trkpt><trkpt lat="47.72059112839682" lon="-1.8128340824671378"><ele>25.0</ele><time>2026-03-24T11:35:56.999Z</time></trkpt><trkpt lat="47.720462741864736" lon="-1.8128499573937695"><ele>25.0</ele><time>2026-03-24T11:35:57.999Z</time></trkpt><trkpt lat="47.720338041564816" lon="-1.8128513131513033"><ele>24.5</ele><time>2026-03-24T11:35:58.999Z</time></trkpt><trkpt lat="47.72022068628722" lon="-1.812820368182772"><ele>24.0</ele><time>2026-03-24T11:35:59.999Z</time></trkpt><trkpt lat="47.72011092674947" lon="-1.812787026703688"><ele>23.5</ele><time>2026-03-24T11:36:00.999Z</time></trkpt><trkpt lat="47.72000165762451" lon="-1.8127447557679255"><ele>23.0</ele><time>2026-03-24T11:36:01.999Z</time></trkpt><trkpt lat="47.7198837975863" lon="-1.8127111295107068"><ele>23.0</ele><time>2026-03-24T11:36:02.999Z</time></trkpt><trkpt lat="47.71976449230209" lon="-1.8126828634048804"><ele>23.0</ele><time>2026-03-24T11:36:03.999Z</time></trkpt><trkpt lat="47.719645048574534" lon="-1.8126477673665957"><ele>23.0</ele><time>2026-03-24T11:36:04.999Z</time></trkpt><trkpt lat="47.71951130914274" lon="-1.8126256685993345"><ele>23.0</ele><time>2026-03-24T11:36:05.999Z</time></trkpt><trkpt lat="47.71941011335708" lon="-1.8126069715453765"><ele>23.4</ele><time>2026-03-24T11:36:06.999Z</time></trkpt><trkpt lat="47.71932721544862" lon="-1.8125829939713547"><ele>23.799999999999997</ele><time>2026-03-24T11:36:07.999Z</time></trkpt><trkpt lat="47.71928661077368" lon="-1.8124981289729982"><ele>24.2</ele><time>2026-03-24T11:36:09.999Z</time></trkpt><trkpt lat="47.71933079881578" lon="-1.8124043241123262"><ele>24.6</ele><time>2026-03-24T11:36:11.999Z</time></trkpt><trkpt lat="47.71941079469955" lon="-1.812312396033109"><ele>25.0</ele><time>2026-03-24T11:36:13.999Z</time></trkpt><trkpt lat="47.71950338045475" lon="-1.812189678496049"><ele>25.333333333333336</ele><time>2026-03-24T11:36:15.998Z</time></trkpt><trkpt lat="47.71956855930031" lon="-1.8120723017270988"><ele>25.666666666666668</ele><time>2026-03-24T11:36:16.998Z</time></trkpt><trkpt lat="47.719603297155736" lon="-1.8119781753128061"><ele>26.0</ele><time>2026-03-24T11:36:17.998Z</time></trkpt><trkpt lat="47.71963365957934" lon="-1.8118682928389993"><ele>26.333333333333336</ele><time>2026-03-24T11:36:18.998Z</time></trkpt><trkpt lat="47.719666427151125" lon="-1.811765402279396"><ele>26.666666666666668</ele><time>2026-03-24T11:36:19.998Z</time></trkpt><trkpt lat="47.719702176027305" lon="-1.8116088858369326"><ele>27.0</ele><time>2026-03-24T11:36:21.998Z</time></trkpt><trkpt lat="47.71971850424503" lon="-1.8115135255389294"><ele>27.6</ele><time>2026-03-24T11:36:31Z</time></trkpt><trkpt lat="47.719759398856986" lon="-1.8113453339448018"><ele>28.200000000000003</ele><time>2026-03-24T11:36:33Z</time></trkpt><trkpt lat="47.71976482971414" lon="-1.8112501262725285"><ele>28.8</ele><time>2026-03-24T11:36:34Z</time></trkpt><trkpt lat="47.71980041888067" lon="-1.8111467949616737"><ele>29.4</ele><time>2026-03-24T11:36:35Z</time></trkpt><trkpt lat="47.719815537287445" lon="-1.8109965661617309"><ele>30.0</ele><time>2026-03-24T11:36:36Z</time></trkpt><trkpt lat="47.719849963320115" lon="-1.8108400631612642"><ele>30.6</ele><time>2026-03-24T11:36:37Z</time></trkpt><trkpt lat="47.719876211933276" lon="-1.8107039904656415"><ele>31.2</ele><time>2026-03-24T11:36:38Z</time></trkpt><trkpt lat="47.7199025315746" lon="-1.8105666771606288"><ele>31.799999999999997</ele><time>2026-03-24T11:36:39Z</time></trkpt><trkpt lat="47.719945148132176" lon="-1.810396498472869"><ele>32.4</ele><time>2026-03-24T11:36:40Z</time></trkpt><trkpt lat="47.71999558513587" lon="-1.8102366234303844"><ele>33.0</ele><time>2026-03-24T11:36:41Z</time></trkpt><trkpt lat="47.72005827449929" lon="-1.8100868523607454"><ele>34.0</ele><time>2026-03-24T11:36:42Z</time></trkpt><trkpt lat="47.72012531715852" lon="-1.809948398291854"><ele>35.0</ele><time>2026-03-24T11:36:43Z</time></trkpt><trkpt lat="47.720206533597974" lon="-1.8098264232171064"><ele>36.0</ele><time>2026-03-24T11:36:44Z</time></trkpt><trkpt lat="47.72030410123152" lon="-1.8097320368156116"><ele>37.0</ele><time>2026-03-24T11:36:45Z</time></trkpt><trkpt lat="47.72041428207177" lon="-1.809653696823776"><ele>37.0</ele><time>2026-03-24T11:36:46Z</time></trkpt><trkpt lat="47.72053013993505" lon="-1.8095824130471585"><ele>37.0</ele><time>2026-03-24T11:36:47Z</time></trkpt><trkpt lat="47.72063501018235" lon="-1.8094949072818887"><ele>37.0</ele><time>2026-03-24T11:36:48Z</time></trkpt><trkpt lat="47.720750144812875" lon="-1.809412609921742"><ele>37.0</ele><time>2026-03-24T11:36:49Z</time></trkpt><trkpt lat="47.72086679530429" lon="-1.8092877161425376"><ele>37.75</ele><time>2026-03-24T11:36:50Z</time></trkpt><trkpt lat="47.72097281747141" lon="-1.8091545528650048"><ele>38.5</ele><time>2026-03-24T11:36:51Z</time></trkpt><trkpt lat="47.72103830521045" lon="-1.808994442880645"><ele>39.25</ele><time>2026-03-24T11:36:52Z</time></trkpt><trkpt lat="47.72107886716891" lon="-1.8088602375643947"><ele>40.0</ele><time>2026-03-24T11:36:53Z</time></trkpt><trkpt lat="47.721081910811726" lon="-1.8087141882403848"><ele>40.5</ele><time>2026-03-24T11:36:55Z</time></trkpt><trkpt lat="47.720892657547445" lon="-1.8087150972217847"><ele>41.0</ele><time>2026-03-24T11:36:59Z</time></trkpt><trkpt lat="47.720805646800265" lon="-1.8086903297515822"><ele>41.5</ele><time>2026-03-24T11:37:00Z</time></trkpt><trkpt lat="47.720711471315624" lon="-1.8086587748389622"><ele>42.0</ele><time>2026-03-24T11:37:01Z</time></trkpt><trkpt lat="47.72059595616149" lon="-1.8086122863402672"><ele>42.0</ele><time>2026-03-24T11:37:02Z</time></trkpt><trkpt lat="47.72048478148075" lon="-1.808558082014981"><ele>42.0</ele><time>2026-03-24T11:37:03Z</time></trkpt><trkpt lat="47.72039451456456" lon="-1.8084822907911084"><ele>42.0</ele><time>2026-03-24T11:37:04Z</time></trkpt><trkpt lat="47.72031895094555" lon="-1.808439398533719"><ele>42.0</ele><time>2026-03-24T11:37:05Z</time></trkpt><trkpt lat="47.720249142385235" lon="-1.8083826023971517"><ele>42.0</ele><time>2026-03-24T11:37:06Z</time></trkpt><trkpt lat="47.72015744146383" lon="-1.808337731516904"><ele>41.8</ele><time>2026-03-24T11:37:08Z</time></trkpt><trkpt lat="47.720170955563844" lon="-1.8081532284045283"><ele>41.6</ele><time>2026-03-24T11:37:09Z</time></trkpt><trkpt lat="47.720153765316404" lon="-1.808008650879898"><ele>41.4</ele><time>2026-03-24T11:37:10Z</time></trkpt><trkpt lat="47.720128625490666" lon="-1.8078582379656603"><ele>41.199999999999996</ele><time>2026-03-24T11:37:11Z</time></trkpt><trkpt lat="47.72014003514228" lon="-1.8077144711161177"><ele>41.0</ele><time>2026-03-24T11:37:12Z</time></trkpt><trkpt lat="47.72013586095096" lon="-1.8075515625993033"><ele>41.0</ele><time>2026-03-24T11:37:13Z</time></trkpt><trkpt lat="47.72012654361208" lon="-1.8073509878632834"><ele>41.0</ele><time>2026-03-24T11:37:14Z</time></trkpt><trkpt lat="47.72011719682307" lon="-1.8071552466781828"><ele>41.0</ele><time>2026-03-24T11:37:15Z</time></trkpt><trkpt lat="47.72008627538506" lon="-1.8069473133594336"><ele>41.0</ele><time>2026-03-24T11:37:16Z</time></trkpt><trkpt lat="47.72006571087357" lon="-1.8067529412414256"><ele>41.5</ele><time>2026-03-24T11:37:17Z</time></trkpt><trkpt lat="47.720038303213464" lon="-1.8065548970770364"><ele>42.0</ele><time>2026-03-24T11:37:17.999Z</time></trkpt><trkpt lat="47.72000932537516" lon="-1.8063595208709962"><ele>42.5</ele><time>2026-03-24T11:37:18.999Z</time></trkpt><trkpt lat="47.719994843138934" lon="-1.806146394274009"><ele>43.0</ele><time>2026-03-24T11:37:19.999Z</time></trkpt><trkpt lat="47.71995891033092" lon="-1.805912680584806"><ele>43.0</ele><time>2026-03-24T11:37:20.999Z</time></trkpt><trkpt lat="47.719934157239734" lon="-1.8056963012672298"><ele>43.0</ele><time>2026-03-24T11:37:21.999Z</time></trkpt><trkpt lat="47.71989235085252" lon="-1.8054743945898248"><ele>43.0</ele><time>2026-03-24T11:37:22.999Z</time></trkpt><trkpt lat="47.719861045592666" lon="-1.805245387620464"><ele>43.333333333333336</ele><time>2026-03-24T11:37:23.999Z</time></trkpt><trkpt lat="47.71983237108336" lon="-1.8050387854339964"><ele>43.666666666666664</ele><time>2026-03-24T11:37:24.999Z</time></trkpt><trkpt lat="47.71980011087331" lon="-1.8048038753511984"><ele>44.0</ele><time>2026-03-24T11:37:25.999Z</time></trkpt><trkpt lat="47.71976583386161" lon="-1.8045526443210698"><ele>43.666666666666664</ele><time>2026-03-24T11:37:26.999Z</time></trkpt><trkpt lat="47.71972675633636" lon="-1.8042662280761883"><ele>43.333333333333336</ele><time>2026-03-24T11:37:27.999Z</time></trkpt><trkpt lat="47.7196972470567" lon="-1.8040499427027163"><ele>43.0</ele><time>2026-03-24T11:37:28.999Z</time></trkpt><trkpt lat="47.71966585384604" lon="-1.8038256406542454"><ele>43.0</ele><time>2026-03-24T11:37:29.999Z</time></trkpt><trkpt lat="47.71963255031097" lon="-1.803588951030354"><ele>43.0</ele><time>2026-03-24T11:37:30.999Z</time></trkpt><trkpt lat="47.719602802312366" lon="-1.8033775310799607"><ele>43.0</ele><time>2026-03-24T11:37:31.999Z</time></trkpt><trkpt lat="47.71958690612966" lon="-1.8031729940432406"><ele>43.0</ele><time>2026-03-24T11:37:32.999Z</time></trkpt><trkpt lat="47.71954758860453" lon="-1.8029851252543412"><ele>43.0</ele><time>2026-03-24T11:37:33.999Z</time></trkpt><trkpt lat="47.719520789332385" lon="-1.802794661866631"><ele>43.0</ele><time>2026-03-24T11:37:34.999Z</time></trkpt><trkpt lat="47.71949114923868" lon="-1.802584008640595"><ele>43.0</ele><time>2026-03-24T11:37:35.999Z</time></trkpt><trkpt lat="47.719463440465375" lon="-1.8023870812559097"><ele>43.0</ele><time>2026-03-24T11:37:36.999Z</time></trkpt><trkpt lat="47.719454379207264" lon="-1.802208461790762"><ele>43.16666666666667</ele><time>2026-03-24T11:37:37.999Z</time></trkpt><trkpt lat="47.71942331235024" lon="-1.802031843729439"><ele>43.333333333333336</ele><time>2026-03-24T11:37:38.999Z</time></trkpt><trkpt lat="47.71940572558778" lon="-1.801890405928136"><ele>43.5</ele><time>2026-03-24T11:37:39.999Z</time></trkpt><trkpt lat="47.719389207575496" lon="-1.8017781123703158"><ele>43.666666666666664</ele><time>2026-03-24T11:37:40.999Z</time></trkpt><trkpt lat="47.719375419509625" lon="-1.8016632905556746"><ele>43.83333333333333</ele><time>2026-03-24T11:37:41.999Z</time></trkpt><trkpt lat="47.719365833559166" lon="-1.8015595893677345"><ele>44.0</ele><time>2026-03-24T11:37:42.999Z</time></trkpt><trkpt lat="47.71934973425698" lon="-1.8014534725908036"><ele>42.800000000000004</ele><time>2026-03-24T11:37:44.999Z</time></trkpt><trkpt lat="47.71930346396467" lon="-1.8012628361893004"><ele>41.6</ele><time>2026-03-24T11:37:50.999Z</time></trkpt><trkpt lat="47.71926354020572" lon="-1.8011670792195151"><ele>40.4</ele><time>2026-03-24T11:37:51.999Z</time></trkpt><trkpt lat="47.719230110326286" lon="-1.8010451197824675"><ele>39.2</ele><time>2026-03-24T11:37:52.999Z</time></trkpt><trkpt lat="47.71919225423634" lon="-1.80090701432218"><ele>38.0</ele><time>2026-03-24T11:37:53.999Z</time></trkpt><trkpt lat="47.719151024249285" lon="-1.8007686264806542"><ele>38.0</ele><time>2026-03-24T11:37:54.999Z</time></trkpt><trkpt lat="47.71910319391557" lon="-1.800634953725395"><ele>38.0</ele><time>2026-03-24T11:37:55.999Z</time></trkpt><trkpt lat="47.71905138531956" lon="-1.8005133726427058"><ele>38.0</ele><time>2026-03-24T11:37:56.999Z</time></trkpt><trkpt lat="47.71900665592468" lon="-1.8004143714277934"><ele>38.0</ele><time>2026-03-24T11:37:57.999Z</time></trkpt><trkpt lat="47.71896706525469" lon="-1.8003267442985462"><ele>38.0</ele><time>2026-03-24T11:37:58.999Z</time></trkpt><trkpt lat="47.718914327055465" lon="-1.8002116561301076"><ele>38.0</ele><time>2026-03-24T11:38:00.999Z</time></trkpt><trkpt lat="47.71884232637902" lon="-1.8001407981778643"><ele>37.666666666666664</ele><time>2026-03-24T11:38:02.999Z</time></trkpt><trkpt lat="47.71875768785706" lon="-1.8000756272007123"><ele>37.33333333333333</ele><time>2026-03-24T11:38:04.999Z</time></trkpt><trkpt lat="47.718734519038975" lon="-1.7999681063766289"><ele>37.0</ele><time>2026-03-24T11:38:08.999Z</time></trkpt><trkpt lat="47.71874066591565" lon="-1.7997996438927701"><ele>36.666666666666664</ele><time>2026-03-24T11:38:11.999Z</time></trkpt><trkpt lat="47.718742902118066" lon="-1.799667565198325"><ele>36.333333333333336</ele><time>2026-03-24T11:38:13.999Z</time></trkpt><trkpt lat="47.71874709232965" lon="-1.799562372089625"><ele>36.0</ele><time>2026-03-24T11:38:16.999Z</time></trkpt><trkpt lat="47.718731048652934" lon="-1.7994507984594599"><ele>36.0</ele><time>2026-03-24T11:38:21.999Z</time></trkpt><trkpt lat="47.7187106845901" lon="-1.7993378322133964"><ele>36.0</ele><time>2026-03-24T11:38:25.999Z</time></trkpt><trkpt lat="47.71888292622935" lon="-1.7992489189907448"><ele>36.0</ele><time>2026-03-24T11:38:29.998Z</time></trkpt><trkpt lat="47.718997918941604" lon="-1.799218105851712"><ele>36.0</ele><time>2026-03-24T11:38:32Z</time></trkpt><trkpt lat="47.719127521440264" lon="-1.799181181409169"><ele>35.4</ele><time>2026-03-24T11:38:34Z</time></trkpt><trkpt lat="47.719205293629" lon="-1.799179051122703"><ele>34.8</ele><time>2026-03-24T11:38:35Z</time></trkpt><trkpt lat="47.7192893247449" lon="-1.7991328841613943"><ele>34.199999999999996</ele><time>2026-03-24T11:38:36Z</time></trkpt><trkpt lat="47.71937734052327" lon="-1.7991161108409346"><ele>33.6</ele><time>2026-03-24T11:38:38Z</time></trkpt><trkpt lat="47.719234489153656" lon="-1.798925368175407"><ele>33.0</ele><time>2026-03-24T11:38:43Z</time></trkpt><trkpt lat="47.71918217375036" lon="-1.7988631692976995"><ele>33.0</ele><time>2026-03-24T11:38:44Z</time></trkpt><trkpt lat="47.7191223414522" lon="-1.7987920337715047"><ele>33.0</ele><time>2026-03-24T11:38:45Z</time></trkpt><trkpt lat="47.7190341257919" lon="-1.7986882209888972"><ele>33.0</ele><time>2026-03-24T11:38:46Z</time></trkpt><trkpt lat="47.718936308078355" lon="-1.7985734995264528"><ele>33.0</ele><time>2026-03-24T11:38:47Z</time></trkpt><trkpt lat="47.7188466509061" lon="-1.7984683491756053"><ele>33.0</ele><time>2026-03-24T11:38:48Z</time></trkpt><trkpt lat="47.718759043769225" lon="-1.7983656027465869"><ele>32.75</ele><time>2026-03-24T11:38:49Z</time></trkpt><trkpt lat="47.718673550633845" lon="-1.7982647960805382"><ele>32.5</ele><time>2026-03-24T11:38:50Z</time></trkpt><trkpt lat="47.71857572487604" lon="-1.7981254081501432"><ele>32.25</ele><time>2026-03-24T11:38:51Z</time></trkpt><trkpt lat="47.71846684699311" lon="-1.797997499239776"><ele>32.0</ele><time>2026-03-24T11:38:52Z</time></trkpt><trkpt lat="47.71834839285254" lon="-1.7978726158790004"><ele>31.75</ele><time>2026-03-24T11:38:53Z</time></trkpt><trkpt lat="47.718237525975496" lon="-1.7977433114871586"><ele>31.5</ele><time>2026-03-24T11:38:54Z</time></trkpt><trkpt lat="47.71812315500094" lon="-1.7976157571576177"><ele>31.25</ele><time>2026-03-24T11:38:55Z</time></trkpt><trkpt lat="47.71800855463666" lon="-1.7974796837607732"><ele>31.0</ele><time>2026-03-24T11:38:56Z</time></trkpt><trkpt lat="47.71787784702716" lon="-1.797331841986286"><ele>30.333333333333336</ele><time>2026-03-24T11:38:57Z</time></trkpt><trkpt lat="47.717750277463246" lon="-1.7971879669620705"><ele>29.666666666666664</ele><time>2026-03-24T11:38:58Z</time></trkpt><trkpt lat="47.71761915254929" lon="-1.7970350842566618"><ele>29.0</ele><time>2026-03-24T11:38:59Z</time></trkpt><trkpt lat="47.717486159178264" lon="-1.7968782712283293"><ele>27.666666666666664</ele><time>2026-03-24T11:39:00Z</time></trkpt><trkpt lat="47.717363109310995" lon="-1.7967299195541298"><ele>26.333333333333336</ele><time>2026-03-24T11:39:01Z</time></trkpt><trkpt lat="47.71723750110779" lon="-1.7965861805010048"><ele>25.0</ele><time>2026-03-24T11:39:02Z</time></trkpt><trkpt lat="47.717099077170396" lon="-1.7964305383787027"><ele>25.0</ele><time>2026-03-24T11:39:03Z</time></trkpt><trkpt lat="47.71696250831147" lon="-1.7962714154574255"><ele>25.0</ele><time>2026-03-24T11:39:04Z</time></trkpt><trkpt lat="47.716819950998236" lon="-1.796116713168273"><ele>25.0</ele><time>2026-03-24T11:39:05Z</time></trkpt><trkpt lat="47.716677373669064" lon="-1.7959491279126385"><ele>24.666666666666668</ele><time>2026-03-24T11:39:06Z</time></trkpt><trkpt lat="47.71654135192644" lon="-1.7957846814636762"><ele>24.333333333333336</ele><time>2026-03-24T11:39:07Z</time></trkpt><trkpt lat="47.71640682686697" lon="-1.795622827489708"><ele>24.0</ele><time>2026-03-24T11:39:08Z</time></trkpt><trkpt lat="47.71627415678564" lon="-1.7954618612923"><ele>24.0</ele><time>2026-03-24T11:39:09Z</time></trkpt><trkpt lat="47.71613655629981" lon="-1.7953045749532819"><ele>24.0</ele><time>2026-03-24T11:39:10Z</time></trkpt><trkpt lat="47.71599488781723" lon="-1.7951389357090832"><ele>24.0</ele><time>2026-03-24T11:39:11Z</time></trkpt><trkpt lat="47.7158525536317" lon="-1.7949721372166063"><ele>23.0</ele><time>2026-03-24T11:39:12Z</time></trkpt><trkpt lat="47.71571209704499" lon="-1.7948041936327992"><ele>22.0</ele><time>2026-03-24T11:39:13Z</time></trkpt><trkpt lat="47.71556614917218" lon="-1.7946348183695893"><ele>21.0</ele><time>2026-03-24T11:39:14Z</time></trkpt><trkpt lat="47.71542843731435" lon="-1.7944622749598524"><ele>20.666666666666668</ele><time>2026-03-24T11:39:15Z</time></trkpt><trkpt lat="47.715283286206315" lon="-1.794296887373778"><ele>20.333333333333336</ele><time>2026-03-24T11:39:16Z</time></trkpt><trkpt lat="47.71512941482314" lon="-1.7941253424464105"><ele>20.0</ele><time>2026-03-24T11:39:17Z</time></trkpt><trkpt lat="47.71498094441187" lon="-1.7939630356677572"><ele>20.0</ele><time>2026-03-24T11:39:18Z</time></trkpt><trkpt lat="47.714829157048634" lon="-1.7937903655498573"><ele>20.0</ele><time>2026-03-24T11:39:19Z</time></trkpt><trkpt lat="47.71467750429823" lon="-1.7936125960811262"><ele>20.0</ele><time>2026-03-24T11:39:20Z</time></trkpt><trkpt lat="47.71451964033678" lon="-1.7934320292677977"><ele>19.0</ele><time>2026-03-24T11:39:21Z</time></trkpt><trkpt lat="47.71436629979841" lon="-1.7932545625085305"><ele>18.0</ele><time>2026-03-24T11:39:21.999Z</time></trkpt><trkpt lat="47.71420934478023" lon="-1.7930721435156403"><ele>17.0</ele><time>2026-03-24T11:39:22.999Z</time></trkpt><trkpt lat="47.714045808634665" lon="-1.7928931234457104"><ele>17.0</ele><time>2026-03-24T11:39:23.999Z</time></trkpt><trkpt lat="47.713886803609476" lon="-1.7927050583560804"><ele>17.0</ele><time>2026-03-24T11:39:24.999Z</time></trkpt><trkpt lat="47.71372012811343" lon="-1.792510135356129"><ele>17.0</ele><time>2026-03-24T11:39:25.999Z</time></trkpt><trkpt lat="47.71356058749915" lon="-1.792321849768271"><ele>16.333333333333336</ele><time>2026-03-24T11:39:26.999Z</time></trkpt><trkpt lat="47.71340776000945" lon="-1.79214048424921"><ele>15.666666666666668</ele><time>2026-03-24T11:39:27.999Z</time></trkpt><trkpt lat="47.71325232459738" lon="-1.7919689616258343"><ele>15.0</ele><time>2026-03-24T11:39:28.999Z</time></trkpt><trkpt lat="47.713103071385426" lon="-1.7917882807219736"><ele>15.0</ele><time>2026-03-24T11:39:29.999Z</time></trkpt><trkpt lat="47.71295523486171" lon="-1.7916131945362985"><ele>15.0</ele><time>2026-03-24T11:39:30.999Z</time></trkpt><trkpt lat="47.71280199044115" lon="-1.791435714986795"><ele>15.0</ele><time>2026-03-24T11:39:31.999Z</time></trkpt><trkpt lat="47.71266465319136" lon="-1.7912561847616806"><ele>15.0</ele><time>2026-03-24T11:39:32.999Z</time></trkpt><trkpt lat="47.71252282458096" lon="-1.7910843019905751"><ele>15.0</ele><time>2026-03-24T11:39:33.999Z</time></trkpt><trkpt lat="47.71237722689239" lon="-1.7909109957276246"><ele>15.0</ele><time>2026-03-24T11:39:34.999Z</time></trkpt><trkpt lat="47.71221887647356" lon="-1.790749536281182"><ele>14.333333333333332</ele><time>2026-03-24T11:39:35.999Z</time></trkpt><trkpt lat="47.71207237693811" lon="-1.7905809973412197"><ele>13.666666666666666</ele><time>2026-03-24T11:39:36.999Z</time></trkpt><trkpt lat="47.71193122742264" lon="-1.7904186133588798"><ele>13.0</ele><time>2026-03-24T11:39:37.999Z</time></trkpt><trkpt lat="47.71180866792773" lon="-1.7902528193498684"><ele>12.75</ele><time>2026-03-24T11:39:38.999Z</time></trkpt><trkpt lat="47.71168106572363" lon="-1.7901211592237192"><ele>12.5</ele><time>2026-03-24T11:39:39.999Z</time></trkpt><trkpt lat="47.7115537147519" lon="-1.7899802548894688"><ele>12.25</ele><time>2026-03-24T11:39:40.999Z</time></trkpt><trkpt lat="47.71148372711578" lon="-1.7898666749654883"><ele>12.0</ele><time>2026-03-24T11:39:41.999Z</time></trkpt><trkpt lat="47.71139064854052" lon="-1.7897872704269429"><ele>12.0</ele><time>2026-03-24T11:39:42.999Z</time></trkpt><trkpt lat="47.71132313628022" lon="-1.7897085396654082"><ele>12.0</ele><time>2026-03-24T11:39:43.999Z</time></trkpt><trkpt lat="47.711266537492804" lon="-1.789642690372955"><ele>12.0</ele><time>2026-03-24T11:39:44.999Z</time></trkpt><trkpt lat="47.711211099898314" lon="-1.7895778230877009"><ele>12.0</ele><time>2026-03-24T11:39:45.999Z</time></trkpt><trkpt lat="47.71129906649063" lon="-1.789241839428523"><ele>12.0</ele><time>2026-03-24T11:39:46.999Z</time></trkpt><trkpt lat="47.711282601532155" lon="-1.7890631824088907"><ele>12.0</ele><time>2026-03-24T11:39:47.999Z</time></trkpt><trkpt lat="47.71127578520463" lon="-1.7888570782878752"><ele>12.0</ele><time>2026-03-24T11:39:48.999Z</time></trkpt><trkpt lat="47.71126088902641" lon="-1.7886521088478837"><ele>12.0</ele><time>2026-03-24T11:39:49.999Z</time></trkpt><trkpt lat="47.71122740837473" lon="-1.7884848141942835"><ele>12.0</ele><time>2026-03-24T11:39:50.999Z</time></trkpt><trkpt lat="47.71121344953189" lon="-1.788309870777486"><ele>12.0</ele><time>2026-03-24T11:39:51.999Z</time></trkpt><trkpt lat="47.711200710589544" lon="-1.7881271449268"><ele>12.0</ele><time>2026-03-24T11:39:52.999Z</time></trkpt><trkpt lat="47.71118655009239" lon="-1.787949746660898"><ele>12.0</ele><time>2026-03-24T11:39:53.999Z</time></trkpt><trkpt lat="47.71116966331218" lon="-1.7877884887183138"><ele>12.0</ele><time>2026-03-24T11:39:54.999Z</time></trkpt><trkpt lat="47.71116023707023" lon="-1.7876446226754092"><ele>12.0</ele><time>2026-03-24T11:39:55.999Z</time></trkpt><trkpt lat="47.71115540713323" lon="-1.7875072326252173"><ele>12.0</ele><time>2026-03-24T11:39:56.999Z</time></trkpt><trkpt lat="47.711156796678985" lon="-1.7873909530636205"><ele>12.0</ele><time>2026-03-24T11:39:57.999Z</time></trkpt><trkpt lat="47.71115856605301" lon="-1.78727747207862"><ele>12.0</ele><time>2026-03-24T11:39:58.999Z</time></trkpt><trkpt lat="47.71112132221081" lon="-1.7871023080930286"><ele>12.0</ele><time>2026-03-24T11:40:00.999Z</time></trkpt><trkpt lat="47.71112189659192" lon="-1.7869089948764285"><ele>12.0</ele><time>2026-03-24T11:40:02.999Z</time></trkpt><trkpt lat="47.71112958181129" lon="-1.7867858826455425"><ele>12.0</ele><time>2026-03-24T11:40:03.999Z</time></trkpt><trkpt lat="47.71114615866712" lon="-1.7866468987174167"><ele>12.0</ele><time>2026-03-24T11:40:04.999Z</time></trkpt><trkpt lat="47.71117732694324" lon="-1.7864786687849648"><ele>12.0</ele><time>2026-03-24T11:40:05.999Z</time></trkpt><trkpt lat="47.71120622409558" lon="-1.7862726403682447"><ele>12.5</ele><time>2026-03-24T11:40:06.999Z</time></trkpt><trkpt lat="47.71122303214886" lon="-1.786056091043472"><ele>13.0</ele><time>2026-03-24T11:40:07.999Z</time></trkpt><trkpt lat="47.71122163678323" lon="-1.785832277997072"><ele>13.5</ele><time>2026-03-24T11:40:08.999Z</time></trkpt><trkpt lat="47.711240939172015" lon="-1.785610199684755"><ele>14.0</ele><time>2026-03-24T11:40:09.999Z</time></trkpt><trkpt lat="47.71127030671408" lon="-1.7853972254450852"><ele>15.0</ele><time>2026-03-24T11:40:10.999Z</time></trkpt><trkpt lat="47.711300814888695" lon="-1.7851637127038436"><ele>16.0</ele><time>2026-03-24T11:40:11.999Z</time></trkpt><trkpt lat="47.71132438528765" lon="-1.78493681172959"><ele>17.0</ele><time>2026-03-24T11:40:12.999Z</time></trkpt><trkpt lat="47.711346546371885" lon="-1.7847026436959115"><ele>17.0</ele><time>2026-03-24T11:40:13.999Z</time></trkpt><trkpt lat="47.7113635591573" lon="-1.7844568496059363"><ele>17.0</ele><time>2026-03-24T11:40:14.999Z</time></trkpt><trkpt lat="47.71138961664191" lon="-1.7842126828140081"><ele>17.0</ele><time>2026-03-24T11:40:15.999Z</time></trkpt><trkpt lat="47.71142922014402" lon="-1.7839649774970388"><ele>17.666666666666668</ele><time>2026-03-24T11:40:16.999Z</time></trkpt><trkpt lat="47.711479694936855" lon="-1.7837174044726556"><ele>18.333333333333332</ele><time>2026-03-24T11:40:17.999Z</time></trkpt><trkpt lat="47.71152173944036" lon="-1.7834709570928486"><ele>19.0</ele><time>2026-03-24T11:40:18.999Z</time></trkpt><trkpt lat="47.711574276914256" lon="-1.783227739963326"><ele>19.0</ele><time>2026-03-24T11:40:19.999Z</time></trkpt><trkpt lat="47.71161076566605" lon="-1.782988705380346"><ele>19.0</ele><time>2026-03-24T11:40:20.999Z</time></trkpt><trkpt lat="47.71165565065725" lon="-1.782764711890167"><ele>19.0</ele><time>2026-03-24T11:40:21.999Z</time></trkpt><trkpt lat="47.71168944756092" lon="-1.7825553621248313"><ele>19.666666666666664</ele><time>2026-03-24T11:40:22.999Z</time></trkpt><trkpt lat="47.71170609276406" lon="-1.7823375115881408"><ele>20.333333333333332</ele><time>2026-03-24T11:40:23.999Z</time></trkpt><trkpt lat="47.71172396318069" lon="-1.7821287310336131"><ele>21.0</ele><time>2026-03-24T11:40:24.999Z</time></trkpt><trkpt lat="47.711743265485914" lon="-1.7818727747859713"><ele>21.333333333333332</ele><time>2026-03-24T11:40:25.999Z</time></trkpt><trkpt lat="47.71175926313403" lon="-1.781620286083572"><ele>21.666666666666664</ele><time>2026-03-24T11:40:26.999Z</time></trkpt><trkpt lat="47.71177104471885" lon="-1.7813761727707593"><ele>22.0</ele><time>2026-03-24T11:40:27.999Z</time></trkpt><trkpt lat="47.711785681734476" lon="-1.7811198280907394"><ele>22.0</ele><time>2026-03-24T11:40:28.999Z</time></trkpt><trkpt lat="47.71180140673834" lon="-1.780867441690215"><ele>22.0</ele><time>2026-03-24T11:40:29.999Z</time></trkpt><trkpt lat="47.71181799630555" lon="-1.7806255621521432"><ele>22.0</ele><time>2026-03-24T11:40:30.998Z</time></trkpt><trkpt lat="47.711838239146886" lon="-1.7803613749783658"><ele>22.0</ele><time>2026-03-24T11:40:31.998Z</time></trkpt><trkpt lat="47.71185754069617" lon="-1.780092327285674"><ele>22.0</ele><time>2026-03-24T11:40:32.998Z</time></trkpt><trkpt lat="47.711880469544674" lon="-1.779848630247609"><ele>22.0</ele><time>2026-03-24T11:40:33.998Z</time></trkpt><trkpt lat="47.711926525988375" lon="-1.7796059176295473"><ele>21.666666666666664</ele><time>2026-03-24T11:40:34.998Z</time></trkpt><trkpt lat="47.711965569504294" lon="-1.7793439310124803"><ele>21.333333333333332</ele><time>2026-03-24T11:40:35.998Z</time></trkpt><trkpt lat="47.712000355483056" lon="-1.7790971210522517"><ele>21.0</ele><time>2026-03-24T11:40:36.998Z</time></trkpt><trkpt lat="47.71201566015667" lon="-1.778876972088525"><ele>21.0</ele><time>2026-03-24T11:40:38Z</time></trkpt><trkpt lat="47.71205161231746" lon="-1.7786351913159488"><ele>21.0</ele><time>2026-03-24T11:40:39Z</time></trkpt><trkpt lat="47.712086907511534" lon="-1.7783978286308815"><ele>21.0</ele><time>2026-03-24T11:40:40Z</time></trkpt><trkpt lat="47.71212609801136" lon="-1.7781342699131215"><ele>21.333333333333332</ele><time>2026-03-24T11:40:41Z</time></trkpt><trkpt lat="47.71216399520158" lon="-1.7778711431250127"><ele>21.666666666666664</ele><time>2026-03-24T11:40:42Z</time></trkpt><trkpt lat="47.712202739788445" lon="-1.7776360265126252"><ele>22.0</ele><time>2026-03-24T11:40:43Z</time></trkpt><trkpt lat="47.7122254052663" lon="-1.777406364136753"><ele>22.5</ele><time>2026-03-24T11:40:44Z</time></trkpt><trkpt lat="47.7122446757287" lon="-1.7771849523844354"><ele>23.0</ele><time>2026-03-24T11:40:45Z</time></trkpt><trkpt lat="47.71224334058948" lon="-1.776979927696476"><ele>23.5</ele><time>2026-03-24T11:40:46Z</time></trkpt><trkpt lat="47.71223106540606" lon="-1.7767987538418977"><ele>24.0</ele><time>2026-03-24T11:40:47Z</time></trkpt><trkpt lat="47.712208054554665" lon="-1.7766167649953735"><ele>24.0</ele><time>2026-03-24T11:40:48Z</time></trkpt><trkpt lat="47.71217749153181" lon="-1.776431973674875"><ele>24.0</ele><time>2026-03-24T11:40:49Z</time></trkpt><trkpt lat="47.712166032870506" lon="-1.7762324990683467"><ele>24.0</ele><time>2026-03-24T11:40:50Z</time></trkpt><trkpt lat="47.71213988483" lon="-1.7760119359648578"><ele>24.0</ele><time>2026-03-24T11:40:51Z</time></trkpt><trkpt lat="47.7121310279995" lon="-1.77577504417683"><ele>24.333333333333336</ele><time>2026-03-24T11:40:52Z</time></trkpt><trkpt lat="47.712125807699934" lon="-1.7755283759309899"><ele>24.666666666666668</ele><time>2026-03-24T11:40:53Z</time></trkpt><trkpt lat="47.71209972032604" lon="-1.7752819229681092"><ele>25.0</ele><time>2026-03-24T11:40:54Z</time></trkpt><trkpt lat="47.71208057475247" lon="-1.7750311888642987"><ele>25.0</ele><time>2026-03-24T11:40:55Z</time></trkpt><trkpt lat="47.712051522506236" lon="-1.7747840279633258"><ele>25.0</ele><time>2026-03-24T11:40:56Z</time></trkpt><trkpt lat="47.712022715703704" lon="-1.7745424901917415"><ele>25.0</ele><time>2026-03-24T11:40:57Z</time></trkpt><trkpt lat="47.71200322018304" lon="-1.7742818026441236"><ele>25.0</ele><time>2026-03-24T11:40:58Z</time></trkpt><trkpt lat="47.71200310923241" lon="-1.7740177073810457"><ele>25.0</ele><time>2026-03-24T11:40:59Z</time></trkpt><trkpt lat="47.712006281891135" lon="-1.7737481716287609"><ele>25.0</ele><time>2026-03-24T11:41:00Z</time></trkpt><trkpt lat="47.712013345319356" lon="-1.7734815556402739"><ele>25.333333333333336</ele><time>2026-03-24T11:41:01Z</time></trkpt><trkpt lat="47.71201461257188" lon="-1.7732118063239137"><ele>25.666666666666664</ele><time>2026-03-24T11:41:02Z</time></trkpt><trkpt lat="47.71201951879512" lon="-1.7729743845919779"><ele>26.0</ele><time>2026-03-24T11:41:03Z</time></trkpt><trkpt lat="47.71202645556194" lon="-1.7727480453208404"><ele>26.25</ele><time>2026-03-24T11:41:04Z</time></trkpt><trkpt lat="47.71203349205306" lon="-1.7725560556530338"><ele>26.5</ele><time>2026-03-24T11:41:05Z</time></trkpt><trkpt lat="47.71205248694256" lon="-1.7723621304375003"><ele>26.75</ele><time>2026-03-24T11:41:06Z</time></trkpt><trkpt lat="47.71206738726506" lon="-1.7721736553368002"><ele>27.0</ele><time>2026-03-24T11:41:07Z</time></trkpt><trkpt lat="47.71208513839225" lon="-1.77200253392399"><ele>26.8</ele><time>2026-03-24T11:41:08Z</time></trkpt><trkpt lat="47.71208865808928" lon="-1.771816897977399"><ele>26.6</ele><time>2026-03-24T11:41:09Z</time></trkpt><trkpt lat="47.712101534931456" lon="-1.7716440185559883"><ele>26.400000000000002</ele><time>2026-03-24T11:41:10Z</time></trkpt><trkpt lat="47.7121113173749" lon="-1.7715082537217035"><ele>26.200000000000003</ele><time>2026-03-24T11:41:11Z</time></trkpt><trkpt lat="47.71212243849527" lon="-1.7714045423810192"><ele>26.0</ele><time>2026-03-24T11:41:12Z</time></trkpt><trkpt lat="47.71210591923698" lon="-1.7712528599504909"><ele>26.0</ele><time>2026-03-24T11:41:14Z</time></trkpt><trkpt lat="47.71202395208366" lon="-1.7712410862400787"><ele>26.0</ele><time>2026-03-24T11:41:15Z</time></trkpt><trkpt lat="47.71194616535551" lon="-1.7712011111536305"><ele>26.0</ele><time>2026-03-24T11:41:16Z</time></trkpt><trkpt lat="47.711838017746935" lon="-1.7711470038915187"><ele>26.0</ele><time>2026-03-24T11:41:17Z</time></trkpt><trkpt lat="47.711720634240315" lon="-1.771088977608664"><ele>26.0</ele><time>2026-03-24T11:41:18Z</time></trkpt><trkpt lat="47.71158748100041" lon="-1.7710231558136993"><ele>25.6</ele><time>2026-03-24T11:41:19Z</time></trkpt><trkpt lat="47.71147069899018" lon="-1.7709430257993164"><ele>25.200000000000003</ele><time>2026-03-24T11:41:20Z</time></trkpt><trkpt lat="47.71136685934928" lon="-1.7709150238634677"><ele>24.799999999999997</ele><time>2026-03-24T11:41:21Z</time></trkpt><trkpt lat="47.71129985916656" lon="-1.7708744817624689"><ele>24.4</ele><time>2026-03-24T11:41:22Z</time></trkpt><trkpt lat="47.71123668852331" lon="-1.7708488613097044"><ele>24.0</ele><time>2026-03-24T11:41:23.999Z</time></trkpt><trkpt lat="47.71125243971059" lon="-1.7705618927615145"><ele>24.0</ele><time>2026-03-24T11:41:26.999Z</time></trkpt><trkpt lat="47.71129964137706" lon="-1.770460034106306"><ele>24.0</ele><time>2026-03-24T11:41:27.999Z</time></trkpt><trkpt lat="47.71132311134503" lon="-1.7703185319891517"><ele>24.0</ele><time>2026-03-24T11:41:28.999Z</time></trkpt><trkpt lat="47.711367535136546" lon="-1.770139875959774"><ele>24.0</ele><time>2026-03-24T11:41:29.999Z</time></trkpt><trkpt lat="47.71142162732543" lon="-1.7699784116622197"><ele>24.0</ele><time>2026-03-24T11:41:30.999Z</time></trkpt><trkpt lat="47.71146678785648" lon="-1.769807637465638"><ele>23.75</ele><time>2026-03-24T11:41:31.999Z</time></trkpt><trkpt lat="47.71152002984952" lon="-1.7696490233757305"><ele>23.5</ele><time>2026-03-24T11:41:32.999Z</time></trkpt><trkpt lat="47.71157411031267" lon="-1.769457302551409"><ele>23.25</ele><time>2026-03-24T11:41:33.999Z</time></trkpt><trkpt lat="47.71163940133457" lon="-1.7692484877636014"><ele>23.0</ele><time>2026-03-24T11:41:34.999Z</time></trkpt><trkpt lat="47.71170282041962" lon="-1.7690293848149485"><ele>22.666666666666668</ele><time>2026-03-24T11:41:35.999Z</time></trkpt><trkpt lat="47.711761973861044" lon="-1.7688195759987069"><ele>22.333333333333332</ele><time>2026-03-24T11:41:36.999Z</time></trkpt><trkpt lat="47.711820773463984" lon="-1.768604824624095"><ele>22.0</ele><time>2026-03-24T11:41:37.999Z</time></trkpt><trkpt lat="47.711888799982674" lon="-1.7683816409153648"><ele>22.333333333333332</ele><time>2026-03-24T11:41:38.999Z</time></trkpt><trkpt lat="47.71196121194225" lon="-1.7681330263150494"><ele>22.666666666666668</ele><time>2026-03-24T11:41:39.999Z</time></trkpt><trkpt lat="47.71202463770831" lon="-1.7678799830916279"><ele>23.0</ele><time>2026-03-24T11:41:40.999Z</time></trkpt><trkpt lat="47.71209765375808" lon="-1.7676303861508256"><ele>23.333333333333336</ele><time>2026-03-24T11:41:41.999Z</time></trkpt><trkpt lat="47.71218193493267" lon="-1.7673636121356437"><ele>23.666666666666668</ele><time>2026-03-24T11:41:42.999Z</time></trkpt><trkpt lat="47.712254002784114" lon="-1.767135366030363"><ele>24.0</ele><time>2026-03-24T11:41:43.999Z</time></trkpt><trkpt lat="47.71232322808218" lon="-1.7669000521569087"><ele>24.0</ele><time>2026-03-24T11:41:44.999Z</time></trkpt><trkpt lat="47.712400164114946" lon="-1.7666382330246755"><ele>24.0</ele><time>2026-03-24T11:41:45.999Z</time></trkpt><trkpt lat="47.71246279044157" lon="-1.7663730384715193"><ele>24.0</ele><time>2026-03-24T11:41:46.999Z</time></trkpt><trkpt lat="47.712535554826964" lon="-1.7661201490480924"><ele>24.333333333333336</ele><time>2026-03-24T11:41:47.999Z</time></trkpt><trkpt lat="47.712624169766485" lon="-1.7658737445458805"><ele>24.666666666666668</ele><time>2026-03-24T11:41:48.999Z</time></trkpt><trkpt lat="47.712694430097585" lon="-1.765609168702012"><ele>25.0</ele><time>2026-03-24T11:41:49.999Z</time></trkpt><trkpt lat="47.71276890180342" lon="-1.765356022144156"><ele>26.0</ele><time>2026-03-24T11:41:50.999Z</time></trkpt><trkpt lat="47.712833017566524" lon="-1.7650921939962794"><ele>27.0</ele><time>2026-03-24T11:41:51.999Z</time></trkpt><trkpt lat="47.71289119028806" lon="-1.7648110113714022"><ele>28.0</ele><time>2026-03-24T11:41:52.999Z</time></trkpt><trkpt lat="47.712944717528536" lon="-1.7645379872270814"><ele>28.666666666666668</ele><time>2026-03-24T11:41:53.999Z</time></trkpt><trkpt lat="47.712995855033334" lon="-1.7642542083669825"><ele>29.333333333333336</ele><time>2026-03-24T11:41:54.999Z</time></trkpt><trkpt lat="47.71304812769538" lon="-1.7639656884948578"><ele>30.0</ele><time>2026-03-24T11:41:55.999Z</time></trkpt><trkpt lat="47.713091978307176" lon="-1.763676361269536"><ele>29.666666666666664</ele><time>2026-03-24T11:41:56.999Z</time></trkpt><trkpt lat="47.713144462826634" lon="-1.763382428805235"><ele>29.333333333333332</ele><time>2026-03-24T11:41:57.999Z</time></trkpt><trkpt lat="47.71319806215072" lon="-1.7630902166945381"><ele>29.0</ele><time>2026-03-24T11:41:58.999Z</time></trkpt><trkpt lat="47.71324896949896" lon="-1.7628306527421174"><ele>28.333333333333332</ele><time>2026-03-24T11:41:59.999Z</time></trkpt><trkpt lat="47.71329576496986" lon="-1.762576193677881"><ele>27.666666666666664</ele><time>2026-03-24T11:42:00.999Z</time></trkpt><trkpt lat="47.713343724259175" lon="-1.7623166622591628"><ele>27.0</ele><time>2026-03-24T11:42:01.999Z</time></trkpt><trkpt lat="47.71339451681324" lon="-1.7620278382121717"><ele>27.333333333333336</ele><time>2026-03-24T11:42:02.999Z</time></trkpt><trkpt lat="47.71342965965753" lon="-1.7617403275214172"><ele>27.666666666666668</ele><time>2026-03-24T11:42:03.999Z</time></trkpt><trkpt lat="47.71349273902822" lon="-1.7614758132009116"><ele>28.0</ele><time>2026-03-24T11:42:04.999Z</time></trkpt><trkpt lat="47.71353837195676" lon="-1.761208819992167"><ele>28.333333333333336</ele><time>2026-03-24T11:42:05.999Z</time></trkpt><trkpt lat="47.71358516166141" lon="-1.7609455322316019"><ele>28.666666666666664</ele><time>2026-03-24T11:42:06.999Z</time></trkpt><trkpt lat="47.71363005611252" lon="-1.7606837123900057"><ele>29.0</ele><time>2026-03-24T11:42:07.999Z</time></trkpt><trkpt lat="47.71367236065106" lon="-1.7604243210488693"><ele>28.666666666666664</ele><time>2026-03-24T11:42:08.999Z</time></trkpt><trkpt lat="47.71371870199475" lon="-1.7601573961043828"><ele>28.333333333333336</ele><time>2026-03-24T11:42:09.999Z</time></trkpt><trkpt lat="47.713764191150595" lon="-1.759892116759913"><ele>28.0</ele><time>2026-03-24T11:42:10.999Z</time></trkpt><trkpt lat="47.71381436484789" lon="-1.7596264913033488"><ele>28.333333333333336</ele><time>2026-03-24T11:42:11.999Z</time></trkpt><trkpt lat="47.71386511939184" lon="-1.7593537794723637"><ele>28.666666666666664</ele><time>2026-03-24T11:42:12.999Z</time></trkpt><trkpt lat="47.71390179479518" lon="-1.7590654050783494"><ele>29.0</ele><time>2026-03-24T11:42:13.999Z</time></trkpt><trkpt lat="47.71395344726648" lon="-1.7587735892516076"><ele>29.0</ele><time>2026-03-24T11:42:14.999Z</time></trkpt><trkpt lat="47.714005899933305" lon="-1.7584812391207019"><ele>29.0</ele><time>2026-03-24T11:42:15.999Z</time></trkpt><trkpt lat="47.71405836428333" lon="-1.7581888236984802"><ele>29.0</ele><time>2026-03-24T11:42:16.999Z</time></trkpt><trkpt lat="47.71411067830499" lon="-1.757897246165539"><ele>28.333333333333332</ele><time>2026-03-24T11:42:17.999Z</time></trkpt><trkpt lat="47.71416060647538" lon="-1.757611567070417"><ele>27.666666666666664</ele><time>2026-03-24T11:42:18.999Z</time></trkpt><trkpt lat="47.71421370597653" lon="-1.7573105546287475"><ele>27.0</ele><time>2026-03-24T11:42:19.999Z</time></trkpt><trkpt lat="47.71426679876826" lon="-1.7570132521093806"><ele>27.0</ele><time>2026-03-24T11:42:20.999Z</time></trkpt><trkpt lat="47.71431903837959" lon="-1.756721411016126"><ele>27.0</ele><time>2026-03-24T11:42:21.999Z</time></trkpt><trkpt lat="47.71437246280244" lon="-1.756422951167887"><ele>27.0</ele><time>2026-03-24T11:42:22.999Z</time></trkpt><trkpt lat="47.714424376018606" lon="-1.7561283416900724"><ele>26.333333333333336</ele><time>2026-03-24T11:42:23.999Z</time></trkpt><trkpt lat="47.71447680526215" lon="-1.75583026040731"><ele>25.666666666666668</ele><time>2026-03-24T11:42:24.999Z</time></trkpt><trkpt lat="47.71452962928456" lon="-1.7555329384698855"><ele>25.0</ele><time>2026-03-24T11:42:25.999Z</time></trkpt><trkpt lat="47.71458468867465" lon="-1.755226906397875"><ele>24.666666666666668</ele><time>2026-03-24T11:42:26.999Z</time></trkpt><trkpt lat="47.71463627333077" lon="-1.7549311576478692"><ele>24.333333333333336</ele><time>2026-03-24T11:42:27.999Z</time></trkpt><trkpt lat="47.71470149353257" lon="-1.7546456840291464"><ele>24.0</ele><time>2026-03-24T11:42:28.999Z</time></trkpt><trkpt lat="47.71474803251907" lon="-1.7543514571214198"><ele>24.0</ele><time>2026-03-24T11:42:29.999Z</time></trkpt><trkpt lat="47.714793390319116" lon="-1.754060603834027"><ele>24.0</ele><time>2026-03-24T11:42:30.999Z</time></trkpt><trkpt lat="47.71484517857416" lon="-1.7537880361599099"><ele>24.0</ele><time>2026-03-24T11:42:31.999Z</time></trkpt><trkpt lat="47.71489947995495" lon="-1.7535126048048733"><ele>25.0</ele><time>2026-03-24T11:42:32.999Z</time></trkpt><trkpt lat="47.71495132654681" lon="-1.7532478503715714"><ele>26.0</ele><time>2026-03-24T11:42:33.998Z</time></trkpt><trkpt lat="47.71500957175745" lon="-1.752991097482649"><ele>27.0</ele><time>2026-03-24T11:42:34.998Z</time></trkpt><trkpt lat="47.71508573688498" lon="-1.7527458399519973"><ele>27.333333333333336</ele><time>2026-03-24T11:42:35.998Z</time></trkpt><trkpt lat="47.71517802808015" lon="-1.7525031188346532"><ele>27.666666666666668</ele><time>2026-03-24T11:42:36.998Z</time></trkpt><trkpt lat="47.7152578079186" lon="-1.7522533066584962"><ele>28.0</ele><time>2026-03-24T11:42:37.998Z</time></trkpt><trkpt lat="47.715348784287805" lon="-1.7520024522740298"><ele>28.666666666666668</ele><time>2026-03-24T11:42:38.998Z</time></trkpt><trkpt lat="47.71543843148741" lon="-1.7517533528005784"><ele>29.333333333333336</ele><time>2026-03-24T11:42:39.998Z</time></trkpt><trkpt lat="47.715528325549144" lon="-1.7515026678891619"><ele>30.0</ele><time>2026-03-24T11:42:40.998Z</time></trkpt><trkpt lat="47.71562018137446" lon="-1.7512490484156529"><ele>30.0</ele><time>2026-03-24T11:42:41.998Z</time></trkpt><trkpt lat="47.7157111461807" lon="-1.7509959238753454"><ele>30.0</ele><time>2026-03-24T11:42:42.998Z</time></trkpt><trkpt lat="47.71580716662879" lon="-1.7507294311020696"><ele>30.0</ele><time>2026-03-24T11:42:44Z</time></trkpt><trkpt lat="47.715899675971286" lon="-1.75047421228116"><ele>30.333333333333336</ele><time>2026-03-24T11:42:45Z</time></trkpt><trkpt lat="47.715993910701734" lon="-1.7502080749026667"><ele>30.666666666666668</ele><time>2026-03-24T11:42:46Z</time></trkpt><trkpt lat="47.71609289926521" lon="-1.749940100220741"><ele>31.0</ele><time>2026-03-24T11:42:47Z</time></trkpt><trkpt lat="47.716187494061316" lon="-1.7496758116819453"><ele>31.666666666666668</ele><time>2026-03-24T11:42:48Z</time></trkpt><trkpt lat="47.71630456500591" lon="-1.7494337353635299"><ele>32.333333333333336</ele><time>2026-03-24T11:42:49Z</time></trkpt><trkpt lat="47.7163956848483" lon="-1.7491743918889027"><ele>33.0</ele><time>2026-03-24T11:42:50Z</time></trkpt><trkpt lat="47.71648710749142" lon="-1.748913753647325"><ele>33.333333333333336</ele><time>2026-03-24T11:42:51Z</time></trkpt><trkpt lat="47.716575077013346" lon="-1.7486583054381255"><ele>33.66666666666667</ele><time>2026-03-24T11:42:52Z</time></trkpt><trkpt lat="47.71664391586808" lon="-1.7484000452607498"><ele>34.0</ele><time>2026-03-24T11:42:53Z</time></trkpt><trkpt lat="47.71673011455097" lon="-1.7481507078540952"><ele>34.0</ele><time>2026-03-24T11:42:54Z</time></trkpt><trkpt lat="47.716817899258764" lon="-1.74790281872118"><ele>34.0</ele><time>2026-03-24T11:42:55Z</time></trkpt><trkpt lat="47.71690461484653" lon="-1.7476570340361897"><ele>34.0</ele><time>2026-03-24T11:42:56Z</time></trkpt><trkpt lat="47.716989316373244" lon="-1.747412875971717"><ele>34.66666666666667</ele><time>2026-03-24T11:42:57Z</time></trkpt><trkpt lat="47.71707756945056" lon="-1.7471641576832075"><ele>35.333333333333336</ele><time>2026-03-24T11:42:58Z</time></trkpt><trkpt lat="47.71716417010613" lon="-1.7469207650154797"><ele>36.0</ele><time>2026-03-24T11:42:59Z</time></trkpt><trkpt lat="47.717253736232415" lon="-1.7466665483605524"><ele>36.333333333333336</ele><time>2026-03-24T11:43:00Z</time></trkpt><trkpt lat="47.71733816047224" lon="-1.7464269046549734"><ele>36.66666666666667</ele><time>2026-03-24T11:43:01Z</time></trkpt><trkpt lat="47.7174351199748" lon="-1.7461857618520968"><ele>37.0</ele><time>2026-03-24T11:43:02Z</time></trkpt><trkpt lat="47.71756386226397" lon="-1.745958959012324"><ele>37.66666666666667</ele><time>2026-03-24T11:43:03Z</time></trkpt><trkpt lat="47.717696628765786" lon="-1.745722290257411"><ele>38.333333333333336</ele><time>2026-03-24T11:43:04Z</time></trkpt><trkpt lat="47.71784238013382" lon="-1.745513578256649"><ele>39.0</ele><time>2026-03-24T11:43:05Z</time></trkpt><trkpt lat="47.717999887793525" lon="-1.7453069939346268"><ele>39.0</ele><time>2026-03-24T11:43:06Z</time></trkpt><trkpt lat="47.71815012140107" lon="-1.7450724830010684"><ele>39.0</ele><time>2026-03-24T11:43:07Z</time></trkpt><trkpt lat="47.718308322956936" lon="-1.7448506760858284"><ele>39.0</ele><time>2026-03-24T11:43:08Z</time></trkpt><trkpt lat="47.71845957000284" lon="-1.744634565060892"><ele>40.0</ele><time>2026-03-24T11:43:09Z</time></trkpt><trkpt lat="47.71860543328755" lon="-1.7444275048547797"><ele>41.0</ele><time>2026-03-24T11:43:10Z</time></trkpt><trkpt lat="47.71876213848153" lon="-1.7442393753020446"><ele>42.0</ele><time>2026-03-24T11:43:11Z</time></trkpt><trkpt lat="47.71889266096654" lon="-1.7440225977388255"><ele>42.0</ele><time>2026-03-24T11:43:12Z</time></trkpt><trkpt lat="47.7190432876428" lon="-1.743840914711949"><ele>42.0</ele><time>2026-03-24T11:43:13Z</time></trkpt><trkpt lat="47.719179642934996" lon="-1.743646836251772"><ele>42.0</ele><time>2026-03-24T11:43:14Z</time></trkpt><trkpt lat="47.719323173744854" lon="-1.7434345075245277"><ele>42.666666666666664</ele><time>2026-03-24T11:43:15Z</time></trkpt><trkpt lat="47.71944163182034" lon="-1.7431990232208017"><ele>43.33333333333333</ele><time>2026-03-24T11:43:16Z</time></trkpt><trkpt lat="47.71955932111743" lon="-1.7429626392981523"><ele>44.0</ele><time>2026-03-24T11:43:17Z</time></trkpt><trkpt lat="47.71967548358469" lon="-1.742711661121691"><ele>44.0</ele><time>2026-03-24T11:43:18Z</time></trkpt><trkpt lat="47.71979037334104" lon="-1.7424647706410683"><ele>44.0</ele><time>2026-03-24T11:43:19Z</time></trkpt><trkpt lat="47.71991299573477" lon="-1.7422468631907089"><ele>44.0</ele><time>2026-03-24T11:43:20Z</time></trkpt><trkpt lat="47.720003493499846" lon="-1.7420098977480607"><ele>44.33333333333333</ele><time>2026-03-24T11:43:21Z</time></trkpt><trkpt lat="47.720111087322906" lon="-1.7417806850782418"><ele>44.666666666666664</ele><time>2026-03-24T11:43:22Z</time></trkpt><trkpt lat="47.720226231556104" lon="-1.741578685981818"><ele>45.0</ele><time>2026-03-24T11:43:23Z</time></trkpt><trkpt lat="47.720321171395405" lon="-1.7413511410176201"><ele>46.0</ele><time>2026-03-24T11:43:24Z</time></trkpt><trkpt lat="47.72041834475455" lon="-1.7411338382229247"><ele>47.0</ele><time>2026-03-24T11:43:25Z</time></trkpt><trkpt lat="47.72052855464018" lon="-1.740915468374212"><ele>48.0</ele><time>2026-03-24T11:43:26Z</time></trkpt><trkpt lat="47.720620906749524" lon="-1.740683194977728"><ele>48.0</ele><time>2026-03-24T11:43:27Z</time></trkpt><trkpt lat="47.72072183293565" lon="-1.7404930418022424"><ele>48.0</ele><time>2026-03-24T11:43:28Z</time></trkpt><trkpt lat="47.72079913210902" lon="-1.7403074161520107"><ele>48.0</ele><time>2026-03-24T11:43:29Z</time></trkpt><trkpt lat="47.7208819000187" lon="-1.7401340003018728"><ele>47.75</ele><time>2026-03-24T11:43:30Z</time></trkpt><trkpt lat="47.72095861602476" lon="-1.739978064584512"><ele>47.5</ele><time>2026-03-24T11:43:31Z</time></trkpt><trkpt lat="47.72102577202975" lon="-1.739820823390473"><ele>47.25</ele><time>2026-03-24T11:43:31.999Z</time></trkpt><trkpt lat="47.72108908411803" lon="-1.7396537663439189"><ele>47.0</ele><time>2026-03-24T11:43:32.999Z</time></trkpt><trkpt lat="47.72116370292398" lon="-1.7394904570027265"><ele>47.75</ele><time>2026-03-24T11:43:33.999Z</time></trkpt><trkpt lat="47.72124165860429" lon="-1.7393206374838335"><ele>48.5</ele><time>2026-03-24T11:43:34.999Z</time></trkpt><trkpt lat="47.72131798963581" lon="-1.7391329618352973"><ele>49.25</ele><time>2026-03-24T11:43:35.999Z</time></trkpt><trkpt lat="47.7213947258927" lon="-1.7389482489618213"><ele>50.0</ele><time>2026-03-24T11:43:36.999Z</time></trkpt><trkpt lat="47.72146482861062" lon="-1.7387655187690156"><ele>50.0</ele><time>2026-03-24T11:43:37.999Z</time></trkpt><trkpt lat="47.72152387390359" lon="-1.7385794416420772"><ele>50.0</ele><time>2026-03-24T11:43:38.999Z</time></trkpt><trkpt lat="47.72155968716917" lon="-1.7383713955574887"><ele>50.0</ele><time>2026-03-24T11:43:39.999Z</time></trkpt><trkpt lat="47.7216069396235" lon="-1.7381758347622427"><ele>50.0</ele><time>2026-03-24T11:43:40.999Z</time></trkpt><trkpt lat="47.72165166341019" lon="-1.7379814545268824"><ele>49.5</ele><time>2026-03-24T11:43:41.999Z</time></trkpt><trkpt lat="47.72169475322669" lon="-1.7377931135840157"><ele>49.0</ele><time>2026-03-24T11:43:42.999Z</time></trkpt><trkpt lat="47.72172751317506" lon="-1.737573298295879"><ele>48.5</ele><time>2026-03-24T11:43:43.999Z</time></trkpt><trkpt lat="47.72176724317403" lon="-1.7373899698616997"><ele>48.0</ele><time>2026-03-24T11:43:44.999Z</time></trkpt><trkpt lat="47.72181412791716" lon="-1.737235038509288"><ele>47.75</ele><time>2026-03-24T11:43:45.999Z</time></trkpt><trkpt lat="47.72184787146964" lon="-1.7370523379465737"><ele>47.5</ele><time>2026-03-24T11:43:46.999Z</time></trkpt><trkpt lat="47.72188461670022" lon="-1.736881670079577"><ele>47.25</ele><time>2026-03-24T11:43:47.999Z</time></trkpt><trkpt lat="47.72192403428429" lon="-1.7367309804305466"><ele>47.0</ele><time>2026-03-24T11:43:48.999Z</time></trkpt><trkpt lat="47.72196273776829" lon="-1.7365872845167325"><ele>47.0</ele><time>2026-03-24T11:43:49.999Z</time></trkpt><trkpt lat="47.72199232445026" lon="-1.7364375640724434"><ele>47.0</ele><time>2026-03-24T11:43:50.999Z</time></trkpt><trkpt lat="47.722017018327755" lon="-1.7363102462039348"><ele>47.0</ele><time>2026-03-24T11:43:51.999Z</time></trkpt><trkpt lat="47.72204536227754" lon="-1.7361758886807137"><ele>47.0</ele><time>2026-03-24T11:43:52.999Z</time></trkpt><trkpt lat="47.72204358689889" lon="-1.7360448605782428"><ele>47.0</ele><time>2026-03-24T11:43:53.999Z</time></trkpt><trkpt lat="47.72205001655994" lon="-1.735931794228182"><ele>47.166666666666664</ele><time>2026-03-24T11:43:54.999Z</time></trkpt><trkpt lat="47.72205515844779" lon="-1.735802823802964"><ele>47.33333333333333</ele><time>2026-03-24T11:43:55.999Z</time></trkpt><trkpt lat="47.722059755345335" lon="-1.7356741106063605"><ele>47.5</ele><time>2026-03-24T11:43:56.999Z</time></trkpt><trkpt lat="47.72206492859304" lon="-1.7355292598600764"><ele>47.666666666666664</ele><time>2026-03-24T11:43:57.999Z</time></trkpt><trkpt lat="47.72206902701327" lon="-1.7354145036617006"><ele>47.833333333333336</ele><time>2026-03-24T11:43:58.999Z</time></trkpt><trkpt lat="47.72207347442994" lon="-1.7352946298434766"><ele>48.0</ele><time>2026-03-24T11:43:59.999Z</time></trkpt><trkpt lat="47.722074812549224" lon="-1.7351816875436339"><ele>48.0</ele><time>2026-03-24T11:44:00.999Z</time></trkpt><trkpt lat="47.72208766431037" lon="-1.735037987942961"><ele>48.0</ele><time>2026-03-24T11:44:02.999Z</time></trkpt><trkpt lat="47.72208925205571" lon="-1.7349185171578283"><ele>48.0</ele><time>2026-03-24T11:44:04.999Z</time></trkpt><trkpt lat="47.72208906116208" lon="-1.7347941098967716"><ele>48.0</ele><time>2026-03-24T11:44:06.999Z</time></trkpt><trkpt lat="47.72209911273508" lon="-1.7346918224565917"><ele>48.0</ele><time>2026-03-24T11:44:08.999Z</time></trkpt><trkpt lat="47.72226774692229" lon="-1.7347233300141387"><ele>48.0</ele><time>2026-03-24T11:44:09.999Z</time></trkpt><trkpt lat="47.72240162390941" lon="-1.7347661770640785"><ele>48.0</ele><time>2026-03-24T11:44:10.999Z</time></trkpt><trkpt lat="47.72251452832357" lon="-1.7347814835338107"><ele>48.0</ele><time>2026-03-24T11:44:11.999Z</time></trkpt><trkpt lat="47.722647765656774" lon="-1.7347952054415978"><ele>48.0</ele><time>2026-03-24T11:44:12.999Z</time></trkpt><trkpt lat="47.722788967320184" lon="-1.7347879987211843"><ele>49.0</ele><time>2026-03-24T11:44:13.999Z</time></trkpt><trkpt lat="47.722954277623764" lon="-1.734792943705408"><ele>50.0</ele><time>2026-03-24T11:44:14.999Z</time></trkpt><trkpt lat="47.72310399809514" lon="-1.7348148462283366"><ele>51.0</ele><time>2026-03-24T11:44:15.999Z</time></trkpt><trkpt lat="47.72324994425926" lon="-1.7348321240465032"><ele>51.0</ele><time>2026-03-24T11:44:16.999Z</time></trkpt><trkpt lat="47.72341201485724" lon="-1.7348318066049495"><ele>51.0</ele><time>2026-03-24T11:44:17.999Z</time></trkpt><trkpt lat="47.72358740831388" lon="-1.7348409311146926"><ele>51.0</ele><time>2026-03-24T11:44:18.999Z</time></trkpt><trkpt lat="47.723761171993694" lon="-1.7348535389665025"><ele>50.5</ele><time>2026-03-24T11:44:19.999Z</time></trkpt><trkpt lat="47.723911070710166" lon="-1.734854511938743"><ele>50.0</ele><time>2026-03-24T11:44:20.999Z</time></trkpt><trkpt lat="47.724048859779955" lon="-1.7348149478882378"><ele>49.5</ele><time>2026-03-24T11:44:21.999Z</time></trkpt><trkpt lat="47.724189219236145" lon="-1.7348071067414017"><ele>49.0</ele><time>2026-03-24T11:44:22.999Z</time></trkpt><trkpt lat="47.72431172033296" lon="-1.7347952318603235"><ele>49.83333333333333</ele><time>2026-03-24T11:44:23.999Z</time></trkpt><trkpt lat="47.72439966039085" lon="-1.7347863571546507"><ele>50.666666666666664</ele><time>2026-03-24T11:44:24.999Z</time></trkpt><trkpt lat="47.72446446226085" lon="-1.7347311769818563"><ele>51.5</ele><time>2026-03-24T11:44:25.999Z</time></trkpt><trkpt lat="47.724532676207495" lon="-1.7346673110890212"><ele>52.33333333333333</ele><time>2026-03-24T11:44:27.999Z</time></trkpt><trkpt lat="47.72448022624227" lon="-1.73453405911725"><ele>53.166666666666664</ele><time>2026-03-24T11:44:31.999Z</time></trkpt><trkpt lat="47.72445813139974" lon="-1.7344309918333503"><ele>54.0</ele><time>2026-03-24T11:44:32.999Z</time></trkpt><trkpt lat="47.724420263113345" lon="-1.7342560097682933"><ele>54.75</ele><time>2026-03-24T11:44:33.999Z</time></trkpt><trkpt lat="47.72438432934662" lon="-1.7340964586520184"><ele>55.5</ele><time>2026-03-24T11:44:34.999Z</time></trkpt><trkpt lat="47.72434622858762" lon="-1.7339210861763408"><ele>56.25</ele><time>2026-03-24T11:44:35.999Z</time></trkpt><trkpt lat="47.72431989151849" lon="-1.7337194107706513"><ele>57.0</ele><time>2026-03-24T11:44:36.999Z</time></trkpt><trkpt lat="47.724253263761234" lon="-1.7335349683289025"><ele>57.6</ele><time>2026-03-24T11:44:37.999Z</time></trkpt><trkpt lat="47.72420810153464" lon="-1.7333286614642562"><ele>58.2</ele><time>2026-03-24T11:44:38.999Z</time></trkpt><trkpt lat="47.72419019140976" lon="-1.733155189700537"><ele>58.8</ele><time>2026-03-24T11:44:39.999Z</time></trkpt><trkpt lat="47.72419392394357" lon="-1.7329963890381652"><ele>59.4</ele><time>2026-03-24T11:44:40.999Z</time></trkpt><trkpt lat="47.724205157861725" lon="-1.7329006472818667"><ele>60.0</ele><time>2026-03-24T11:44:41.999Z</time></trkpt><trkpt lat="47.724230797149005" lon="-1.7328086242302285"><ele>60.5</ele><time>2026-03-24T11:44:43.998Z</time></trkpt><trkpt lat="47.72441215743466" lon="-1.7327459343808163"><ele>61.0</ele><time>2026-03-24T11:44:50Z</time></trkpt><trkpt lat="47.72448611822288" lon="-1.7327362741623773"><ele>61.5</ele><time>2026-03-24T11:44:51Z</time></trkpt><trkpt lat="47.72457773946451" lon="-1.7327746148421104"><ele>62.0</ele><time>2026-03-24T11:44:52Z</time></trkpt><trkpt lat="47.724700237497686" lon="-1.732818256147048"><ele>62.0</ele><time>2026-03-24T11:44:53Z</time></trkpt><trkpt lat="47.724796260781886" lon="-1.732876487902004"><ele>62.0</ele><time>2026-03-24T11:44:54Z</time></trkpt><trkpt lat="47.724868252070415" lon="-1.7329280048096078"><ele>62.0</ele><time>2026-03-24T11:44:55Z</time></trkpt><trkpt lat="47.724962110647986" lon="-1.7329605187594026"><ele>62.0</ele><time>2026-03-24T11:44:56Z</time></trkpt><trkpt lat="47.725051052198175" lon="-1.7330035354676125"><ele>62.0</ele><time>2026-03-24T11:44:57Z</time></trkpt><trkpt lat="47.72513868666454" lon="-1.7330440840513333"><ele>62.0</ele><time>2026-03-24T11:44:58Z</time></trkpt><trkpt lat="47.7252253035251" lon="-1.7330810530938683"><ele>62.0</ele><time>2026-03-24T11:44:59Z</time></trkpt><trkpt lat="47.725326715035564" lon="-1.73315323677482"><ele>62.0</ele><time>2026-03-24T11:45:00Z</time></trkpt><trkpt lat="47.72539593927156" lon="-1.7331910679687632"><ele>62.0</ele><time>2026-03-24T11:45:01Z</time></trkpt><trkpt lat="47.725479897515186" lon="-1.7332266177776565"><ele>62.0</ele><time>2026-03-24T11:45:02Z</time></trkpt><trkpt lat="47.725561676176326" lon="-1.7332670759047986"><ele>62.142857142857146</ele><time>2026-03-24T11:45:03Z</time></trkpt><trkpt lat="47.725621657756754" lon="-1.7333114187737768"><ele>62.28571428571429</ele><time>2026-03-24T11:45:04Z</time></trkpt><trkpt lat="47.725684484420874" lon="-1.7333465750018988"><ele>62.42857142857143</ele><time>2026-03-24T11:45:05Z</time></trkpt><trkpt lat="47.7257496954572" lon="-1.733380736512684"><ele>62.57142857142857</ele><time>2026-03-24T11:45:06Z</time></trkpt><trkpt lat="47.72581019469276" lon="-1.733419584179263"><ele>62.714285714285715</ele><time>2026-03-24T11:45:07Z</time></trkpt><trkpt lat="47.725894422806874" lon="-1.733488545276062"><ele>62.85714285714286</ele><time>2026-03-24T11:45:09Z</time></trkpt><trkpt lat="47.725971348521824" lon="-1.7335283320236732"><ele>63.0</ele><time>2026-03-24T11:45:12Z</time></trkpt><trkpt lat="47.726040775702174" lon="-1.7335613691716674"><ele>63.599999999999994</ele><time>2026-03-24T11:45:43.999Z</time></trkpt><trkpt lat="47.726158036798736" lon="-1.733631088015338"><ele>64.19999999999999</ele><time>2026-03-24T11:45:45.999Z</time></trkpt><trkpt lat="47.72624380279875" lon="-1.733665480620266"><ele>64.8</ele><time>2026-03-24T11:45:46.999Z</time></trkpt><trkpt lat="47.72633210524623" lon="-1.7337278222271835"><ele>65.39999999999999</ele><time>2026-03-24T11:45:47.999Z</time></trkpt><trkpt lat="47.72642015231474" lon="-1.7337375870872562"><ele>66.0</ele><time>2026-03-24T11:45:48.999Z</time></trkpt><trkpt lat="47.72648740022038" lon="-1.7337909347114748"><ele>66.0</ele><time>2026-03-24T11:45:50.999Z</time></trkpt><trkpt lat="47.72654830126353" lon="-1.7334176768303464"><ele>66.0</ele><time>2026-03-24T11:45:52.999Z</time></trkpt><trkpt lat="47.72656919126797" lon="-1.7332413911290814"><ele>66.0</ele><time>2026-03-24T11:45:53.999Z</time></trkpt><trkpt lat="47.72658922167809" lon="-1.7330616031381973"><ele>66.0</ele><time>2026-03-24T11:45:54.999Z</time></trkpt><trkpt lat="47.726609512489404" lon="-1.7328756592704195"><ele>66.0</ele><time>2026-03-24T11:45:55.999Z</time></trkpt><trkpt lat="47.72661496086548" lon="-1.7327070363442396"><ele>66.0</ele><time>2026-03-24T11:45:56.999Z</time></trkpt><trkpt lat="47.726618878685926" lon="-1.732561517488013"><ele>66.0</ele><time>2026-03-24T11:45:57.999Z</time></trkpt><trkpt lat="47.726622612572534" lon="-1.7324237102606825"><ele>66.0</ele><time>2026-03-24T11:45:58.999Z</time></trkpt><trkpt lat="47.726625884012215" lon="-1.732307557618933"><ele>65.66666666666667</ele><time>2026-03-24T11:45:59.999Z</time></trkpt><trkpt lat="47.72664499609473" lon="-1.73219920611032"><ele>65.33333333333333</ele><time>2026-03-24T11:46:00.999Z</time></trkpt><trkpt lat="47.72663771144081" lon="-1.7320821451121267"><ele>65.0</ele><time>2026-03-24T11:46:01.999Z</time></trkpt><trkpt lat="47.72664074233562" lon="-1.7319756802357424"><ele>64.66666666666666</ele><time>2026-03-24T11:46:02.999Z</time></trkpt><trkpt lat="47.726643165564724" lon="-1.731875846829719"><ele>64.33333333333333</ele><time>2026-03-24T11:46:03.999Z</time></trkpt><trkpt lat="47.72663324858674" lon="-1.7317053562880957"><ele>64.0</ele><time>2026-03-24T11:46:05.999Z</time></trkpt><trkpt lat="47.72664561804586" lon="-1.7315429536740068"><ele>63.6</ele><time>2026-03-24T11:46:07.999Z</time></trkpt><trkpt lat="47.72665256295706" lon="-1.7313526900169007"><ele>63.2</ele><time>2026-03-24T11:46:09.999Z</time></trkpt><trkpt lat="47.726655406061845" lon="-1.7312436707889902"><ele>62.800000000000004</ele><time>2026-03-24T11:46:10.999Z</time></trkpt><trkpt lat="47.7266594618177" lon="-1.7311348814934944"><ele>62.400000000000006</ele><time>2026-03-24T11:46:11.999Z</time></trkpt><trkpt lat="47.726662565781595" lon="-1.7310054538461155"><ele>62.0</ele><time>2026-03-24T11:46:12.999Z</time></trkpt><trkpt lat="47.726673698593274" lon="-1.7308510018141412"><ele>60.8</ele><time>2026-03-24T11:46:13.999Z</time></trkpt><trkpt lat="47.72667740791318" lon="-1.7306887520084149"><ele>59.6</ele><time>2026-03-24T11:46:14.999Z</time></trkpt><trkpt lat="47.72668164283962" lon="-1.7305277293075334"><ele>58.39999999999999</ele><time>2026-03-24T11:46:15.999Z</time></trkpt><trkpt lat="47.72668724152424" lon="-1.7303501973479842"><ele>57.199999999999996</ele><time>2026-03-24T11:46:16.999Z</time></trkpt><trkpt lat="47.72668365560072" lon="-1.7302113645075008"><ele>56.0</ele><time>2026-03-24T11:46:17.999Z</time></trkpt><trkpt lat="47.72668253961957" lon="-1.730052469886268"><ele>55.833333333333336</ele><time>2026-03-24T11:46:18.999Z</time></trkpt><trkpt lat="47.726687901379094" lon="-1.729880080827884"><ele>55.66666666666667</ele><time>2026-03-24T11:46:19.999Z</time></trkpt><trkpt lat="47.72668720989452" lon="-1.7297388205894302"><ele>55.5</ele><time>2026-03-24T11:46:20.999Z</time></trkpt><trkpt lat="47.726703924264115" lon="-1.7296174874951085"><ele>55.33333333333333</ele><time>2026-03-24T11:46:21.999Z</time></trkpt><trkpt lat="47.72669838772753" lon="-1.7295075182919812"><ele>55.166666666666664</ele><time>2026-03-24T11:46:22.999Z</time></trkpt><trkpt lat="47.72670808289881" lon="-1.7294147033090366"><ele>55.0</ele><time>2026-03-24T11:46:23.999Z</time></trkpt><trkpt lat="47.72670872552942" lon="-1.729230681520457"><ele>55.0</ele><time>2026-03-24T11:46:25.999Z</time></trkpt><trkpt lat="47.726704567549305" lon="-1.72910311751129"><ele>55.0</ele><time>2026-03-24T11:46:27.999Z</time></trkpt><trkpt lat="47.726592959871155" lon="-1.7289418206258753"><ele>55.0</ele><time>2026-03-24T11:46:29.999Z</time></trkpt><trkpt lat="47.72650065021251" lon="-1.728885983952725"><ele>55.0</ele><time>2026-03-24T11:46:30.999Z</time></trkpt><trkpt lat="47.72642895314113" lon="-1.7288571794160632"><ele>55.0</ele><time>2026-03-24T11:46:31.999Z</time></trkpt><trkpt lat="47.726337456850175" lon="-1.7287819938628852"><ele>54.99999999999999</ele><time>2026-03-24T11:46:32.999Z</time></trkpt><trkpt lat="47.726280175834695" lon="-1.7287117869576887"><ele>55.0</ele><time>2026-03-24T11:46:33.999Z</time></trkpt><trkpt lat="47.72622507817266" lon="-1.7286191330650276"><ele>55.0</ele><time>2026-03-24T11:46:34.999Z</time></trkpt><trkpt lat="47.726187026484915" lon="-1.7285432837051378"><ele>55.0</ele><time>2026-03-24T11:46:35.999Z</time></trkpt><trkpt lat="47.726144994797245" lon="-1.7284510806736662"><ele>54.99999999999999</ele><time>2026-03-24T11:46:37.999Z</time></trkpt><trkpt lat="47.72606360766496" lon="-1.7284392384001277"><ele>55.0</ele><time>2026-03-24T11:46:41.999Z</time></trkpt><trkpt lat="47.72592250598147" lon="-1.7285370588635727"><ele>54.0</ele><time>2026-03-24T11:46:43.999Z</time></trkpt><trkpt lat="47.725812396165786" lon="-1.7285737731094108"><ele>53.0</ele><time>2026-03-24T11:46:44.999Z</time></trkpt><trkpt lat="47.72570879022468" lon="-1.728608950749863"><ele>52.0</ele><time>2026-03-24T11:46:45.999Z</time></trkpt><trkpt lat="47.72557652934676" lon="-1.7286543686819613"><ele>51.0</ele><time>2026-03-24T11:46:46.999Z</time></trkpt><trkpt lat="47.72542447452268" lon="-1.728708057266724"><ele>51.0</ele><time>2026-03-24T11:46:47.998Z</time></trkpt><trkpt lat="47.72529475299855" lon="-1.7287626490249839"><ele>51.0</ele><time>2026-03-24T11:46:48.998Z</time></trkpt><trkpt lat="47.72517083733163" lon="-1.7288309056498923"><ele>51.0</ele><time>2026-03-24T11:46:49.998Z</time></trkpt><trkpt lat="47.725057499801096" lon="-1.7289500424101376"><ele>51.0</ele><time>2026-03-24T11:46:50.998Z</time></trkpt><trkpt lat="47.72496656665925" lon="-1.7291502281321438"><ele>50.8</ele><time>2026-03-24T11:46:51.998Z</time></trkpt><trkpt lat="47.72492807812474" lon="-1.729224976416954"><ele>50.599999999999994</ele><time>2026-03-24T11:46:52.998Z</time></trkpt><trkpt lat="47.72484110568354" lon="-1.7293938852204294"><ele>50.4</ele><time>2026-03-24T11:46:53.998Z</time></trkpt><trkpt lat="47.72476723395316" lon="-1.7295314049559163"><ele>50.2</ele><time>2026-03-24T11:46:54.998Z</time></trkpt><trkpt lat="47.72469705538785" lon="-1.7296611502221588"><ele>50.0</ele><time>2026-03-24T11:46:56Z</time></trkpt><trkpt lat="47.72465203325796" lon="-1.7298012623589796"><ele>50.0</ele><time>2026-03-24T11:46:57Z</time></trkpt><trkpt lat="47.72458783037109" lon="-1.7299257099215064"><ele>50.0</ele><time>2026-03-24T11:46:58Z</time></trkpt><trkpt lat="47.72451578936251" lon="-1.7300630143671765"><ele>50.0</ele><time>2026-03-24T11:46:59Z</time></trkpt><trkpt lat="47.72443467534056" lon="-1.730171403025889"><ele>50.0</ele><time>2026-03-24T11:47:00Z</time></trkpt><trkpt lat="47.7243700237979" lon="-1.7303029108647734"><ele>50.0</ele><time>2026-03-24T11:47:01Z</time></trkpt><trkpt lat="47.72431292320386" lon="-1.730405133839106"><ele>51.4</ele><time>2026-03-24T11:47:02Z</time></trkpt><trkpt lat="47.72424454711698" lon="-1.7305276314802047"><ele>52.8</ele><time>2026-03-24T11:47:03Z</time></trkpt><trkpt lat="47.72418312854301" lon="-1.7306367925476958"><ele>54.2</ele><time>2026-03-24T11:47:04Z</time></trkpt><trkpt lat="47.7241334058717" lon="-1.730722336735388"><ele>55.6</ele><time>2026-03-24T11:47:05Z</time></trkpt><trkpt lat="47.7240748852631" lon="-1.7308494218574348"><ele>57.0</ele><time>2026-03-24T11:47:07Z</time></trkpt><trkpt lat="47.72400388366427" lon="-1.7309741468793516"><ele>57.8</ele><time>2026-03-24T11:47:14Z</time></trkpt><trkpt lat="47.72397997356802" lon="-1.7310839489099505"><ele>58.6</ele><time>2026-03-24T11:47:15Z</time></trkpt><trkpt lat="47.72395548238913" lon="-1.7312128481084916"><ele>59.39999999999999</ele><time>2026-03-24T11:47:16Z</time></trkpt><trkpt lat="47.723912801936024" lon="-1.7313346533445308"><ele>60.199999999999996</ele><time>2026-03-24T11:47:17Z</time></trkpt><trkpt lat="47.72384809028145" lon="-1.731447762003253"><ele>61.0</ele><time>2026-03-24T11:47:18Z</time></trkpt><trkpt lat="47.72377596116987" lon="-1.731533315705471"><ele>61.0</ele><time>2026-03-24T11:47:19Z</time></trkpt><trkpt lat="47.723723646938616" lon="-1.7316559351478766"><ele>60.99999999999999</ele><time>2026-03-24T11:47:21Z</time></trkpt><trkpt lat="47.723700186167385" lon="-1.7318130618673748"><ele>60.99999999999999</ele><time>2026-03-24T11:47:25Z</time></trkpt><trkpt lat="47.72367854679604" lon="-1.7319178312868961"><ele>61.0</ele><time>2026-03-24T11:47:26Z</time></trkpt><trkpt lat="47.723661171067356" lon="-1.7320483048550972"><ele>61.0</ele><time>2026-03-24T11:47:28Z</time></trkpt><trkpt lat="47.723638862375786" lon="-1.732164472907819"><ele>61.0</ele><time>2026-03-24T11:47:30Z</time></trkpt><trkpt lat="47.72359402523464" lon="-1.7322402266014056"><ele>61.0</ele><time>2026-03-24T11:47:33Z</time></trkpt><trkpt lat="47.72368402063343" lon="-1.7322274150141537"><ele>61.0</ele><time>2026-03-24T11:47:34Z</time></trkpt></trkseg></trk></gpx>